
Distance (Route):
Temperature : 18.6°C
Humidity : 0%
Pressure : 0hPa| Receiver | Frames | First received | Last received |
|---|---|---|---|
| BIOWL1-15 | 897 | 2026-09-03 03:47:43 | 2026-09-03 06:16:27 |
| DL1XH-west | 718 | 2026-09-03 03:53:50 | 2026-09-03 06:11:27 |
| DM0DOS-11 | 709 | 2026-09-03 03:46:13 | 2026-09-03 06:16:23 |
| DO2JMG | 606 | 2026-09-03 04:00:44 | 2026-09-03 06:00:59 |
| DL1XH1-15 | 560 | 2026-09-03 03:52:24 | 2026-09-03 06:11:17 |
| AA1-15 | 523 | 2026-09-03 04:10:20 | 2026-09-03 06:04:39 |
| HSKMA3-T | 433 | 2026-09-03 04:21:01 | 2026-09-03 06:01:51 |
| DL1XH-15 | 427 | 2026-09-03 03:59:21 | 2026-09-03 06:08:44 |
| DF8AY | 397 | 2026-09-03 04:27:21 | 2026-09-03 06:09:03 |
| DB0DAN | 320 | 2026-09-03 03:56:40 | 2026-09-03 06:16:10 |
| GOEST3-10 | 279 | 2026-09-03 03:49:36 | 2026-09-03 06:05:32 |
| DD8BA-10 | 190 | 2026-09-03 03:47:43 | 2026-09-03 06:11:44 |
| DO2SHX-10 | 174 | 2026-09-03 04:28:26 | 2026-09-03 05:57:41 |
| DJ2DS-15 | 140 | 2026-09-03 03:47:40 | 2026-09-03 06:11:49 |
| DL3AQ-11 | 132 | 2026-09-03 03:59:50 | 2026-09-03 06:10:57 |
| DF5WG-10 | 118 | 2026-09-03 03:58:05 | 2026-09-03 06:00:18 |
| DL4XJ-10 | 87 | 2026-09-03 04:06:38 | 2026-09-03 08:18:54 |
| DO9LL-15 | 74 | 2026-09-03 03:47:56 | 2026-09-03 06:02:40 |
| BIOWL9-15 | 52 | 2026-09-03 03:48:28 | 2026-09-03 06:15:24 |
| DL1NUX | 48 | 2026-09-03 05:27:00 | 2026-09-03 05:57:16 |
| DB0UT-7 | 44 | 2026-09-03 04:06:16 | 2026-09-03 06:07:35 |
| DO3DL | 43 | 2026-09-03 04:06:22 | 2026-09-03 05:44:39 |
| DF8AY-15 | 37 | 2026-09-03 04:41:40 | 2026-09-03 06:05:09 |
| HTAHTA | 36 | 2026-09-03 03:54:49 | 2026-09-03 05:53:50 |
| DL4BBY-15 | 33 | 2026-09-03 03:47:46 | 2026-09-03 06:09:08 |
| DL1CLM-18 | 32 | 2026-09-03 03:47:38 | 2026-09-03 06:10:27 |
| DD1CC8 | 32 | 2026-09-03 04:08:31 | 2026-09-03 06:07:03 |
| DB0NH | 32 | 2026-09-03 04:19:42 | 2026-09-03 05:48:41 |
| DF4FW | 31 | 2026-09-03 03:53:51 | 2026-09-03 05:45:49 |
| DC6BW-12 | 30 | 2026-09-03 03:48:07 | 2026-09-03 06:02:16 |
| BIOWL7-15 | 28 | 2026-09-03 03:47:36 | 2026-09-03 06:13:48 |
| D01LWL | 28 | 2026-09-03 04:17:08 | 2026-09-03 05:55:28 |
| BUE01 | 27 | 2026-09-03 04:10:50 | 2026-09-03 06:12:30 |
| DJ8HS-15 | 27 | 2026-09-03 04:46:19 | 2026-09-03 05:42:21 |
| DO3MHA-12 | 27 | 2026-09-03 05:16:09 | 2026-09-03 05:36:50 |
| DL1LOL-11 | 26 | 2026-09-03 03:46:03 | 2026-09-03 06:12:32 |
| SONCRA | 26 | 2026-09-03 04:11:09 | 2026-09-03 06:11:12 |
| DD1CC3-15 | 24 | 2026-09-03 03:56:21 | 2026-09-03 06:07:59 |
| DL3OBA | 23 | 2026-09-03 04:18:12 | 2026-09-03 06:15:43 |
| SONDE2-11 | 23 | 2026-09-03 04:20:07 | 2026-09-03 05:58:56 |
| DK9SH | 22 | 2026-09-03 03:52:36 | 2026-09-03 06:09:32 |
| DB0ND-19 | 20 | 2026-09-03 04:28:07 | 2026-09-03 06:03:48 |
| SMARD9-15 | 19 | 2026-09-03 04:37:56 | 2026-09-03 06:00:46 |
| DO3MHA-11 | 18 | 2026-09-03 05:02:49 | 2026-09-03 05:32:52 |
| AU51GT2 | 17 | 2026-09-03 04:14:51 | 2026-09-03 05:46:55 |
| DL8OAI-8 | 16 | 2026-09-03 04:24:47 | 2026-09-03 06:10:50 |
| DO2KSM | 15 | 2026-09-03 04:24:48 | 2026-09-03 05:47:44 |
| DF7PN | 15 | 2026-09-03 04:34:47 | 2026-09-03 05:39:30 |
| DK5PH-5 | 14 | 2026-09-03 04:35:58 | 2026-09-03 05:22:59 |
| EDDB2-11 | 14 | 2026-09-03 04:38:56 | 2026-09-03 05:56:00 |
| SMARD9-10 | 13 | 2026-09-03 04:05:52 | 2026-09-03 06:02:39 |
| EDDB2-12 | 13 | 2026-09-03 04:31:59 | 2026-09-03 06:01:59 |
| DL8DAS-14 | 12 | 2026-09-03 04:38:07 | 2026-09-03 05:47:55 |
| DO1YAY-16 | 10 | 2026-09-03 04:57:01 | 2026-09-03 05:39:59 |
| S3001 | 10 | 2026-09-03 05:11:07 | 2026-09-03 05:36:28 |
| MET0W-2 | 9 | 2026-09-03 04:00:47 | 2026-09-03 05:51:34 |
| DO2LYB-13 | 9 | 2026-09-03 04:12:26 | 2026-09-03 05:46:54 |
| SP3BTT-10 | 9 | 2026-09-03 04:56:19 | 2026-09-03 05:31:39 |
| NBG1-10 | 6 | 2026-09-03 04:33:14 | 2026-09-03 05:31:18 |
| DL8DAS-15 | 5 | 2026-09-03 04:47:03 | 2026-09-03 05:14:45 |
| SO1NDE-10 | 5 | 2026-09-03 05:30:20 | 2026-09-03 05:56:55 |
| WEDDY | 4 | 2026-09-03 04:19:26 | 2026-09-03 05:19:41 |
| DD1CC1-15 | 3 | 2026-09-03 04:30:43 | 2026-09-03 04:34:39 |
| HARRO8 | 3 | 2026-09-03 04:44:56 | 2026-09-03 05:54:48 |
| DJTTGO | 3 | 2026-09-03 05:16:27 | 2026-09-03 05:35:29 |
| DJ3KS | 3 | 2026-09-03 05:23:39 | 2026-09-03 05:33:29 |
| AP2371 | 1 | 2026-09-03 04:53:52 | 2026-09-03 04:53:52 |
| Receiver | Date | Latitude | Longitude | Direction | Speed | Altitude | Climb | Temperature | Humidity | Pressure | Voltage | Killtimer | Uptime | BKT | XDATA |
|---|---|---|---|---|---|---|---|---|---|---|---|---|---|---|---|
| DL4XJ-10 | 2026-09-03 08:18:54 | 52.29386 | 9.44845 | 0° | 0km/h | 274m | -0.0m/s | 18.6°C | 0% | 0hPa | 2.7V | 00:00:00 | 00:00:00 | 00:00:00 | |
| DL4XJ-10 | 2026-09-03 08:14:14 | 52.29383 | 9.44847 | 0° | 0km/h | 283m | 0.1m/s | 18.7°C | 0% | 0hPa | 2.7V | 00:00:00 | 00:00:00 | 00:00:00 | |
| DL4XJ-10 | 2026-09-03 08:13:05 | 52.29384 | 9.44846 | 0° | 0km/h | 278m | -0.0m/s | 18.6°C | 0% | 0hPa | 2.7V | 00:00:00 | 00:00:00 | 00:00:00 | |
| DL4XJ-10 | 2026-09-03 08:12:08 | 52.29384 | 9.44845 | 0° | 0km/h | 272m | -0.0m/s | 18.6°C | 0% | 0hPa | 2.7V | 00:00:00 | 00:00:00 | 00:00:00 | |
| DL4XJ-10 | 2026-09-03 08:11:30 | 52.29384 | 9.44847 | 0° | 0km/h | 281m | 0.0m/s | 18.5°C | 0% | 0hPa | 2.7V | 00:00:00 | 00:00:00 | 00:00:00 | |
| DL4XJ-10 | 2026-09-03 07:39:14 | 52.29384 | 9.44847 | 0° | 0km/h | 283m | 0.0m/s | 18.4°C | 0% | 0hPa | 2.7V | 00:00:00 | 00:00:00 | 00:00:00 | |
| DL4XJ-10 | 2026-09-03 07:29:59 | 52.29384 | 9.44847 | 41° | 2km/h | 283m | -0.0m/s | 18.6°C | 0% | 0hPa | 2.7V | 00:00:00 | 00:00:00 | 00:00:00 | |
| BIOWL1-15 | 2026-09-03 06:16:27 | 52.29169 | 9.44621 | 42° | 40km/h | 454m | -6.2m/s | 14.5°C | 85.5% | 967.3hPa | 2.7V | 07:49:00 | 02:44:56 | 00:00:00 | |
| BIOWL1-15 | 2026-09-03 06:16:27 | 52.29161 | 9.44609 | 43° | 42km/h | 460m | -6.3m/s | 14.5°C | 85.1% | 966.6hPa | 2.7V | 07:49:00 | 02:44:55 | 00:00:00 | |
| BIOWL1-15 | 2026-09-03 06:16:23 | 52.29123 | 9.44546 | 47° | 44km/h | 492m | -6.1m/s | 14.7°C | 84.5% | 963hPa | 2.6V | 07:49:51 | 02:44:50 | 00:00:00 | |
| DM0DOS-11 | 2026-09-03 06:16:23 | 52.29138 | 9.44572 | 46° | 44km/h | 479m | -6.8m/s | 14.7°C | 80.9% | 964.6hPa | 2.7V | 07:49:02 | 02:44:52 | 00:00:00 | |
| DM0DOS-11 | 2026-09-03 06:16:23 | 52.29123 | 9.44546 | 47° | 44km/h | 492m | -6.1m/s | 14.7°C | 80.7% | 963hPa | 2.6V | 07:49:04 | 02:44:50 | 00:00:00 | |
| BIOWL1-15 | 2026-09-03 06:16:23 | 52.29115 | 9.44533 | 49° | 46km/h | 498m | -6.5m/s | 14.7°C | 84.7% | 962.3hPa | 2.7V | 07:49:51 | 02:44:49 | 00:00:00 | |
| BIOWL1-15 | 2026-09-03 06:16:17 | 52.29093 | 9.44488 | 54° | 47km/h | 517m | -6.8m/s | 14.6°C | 85.4% | 960.4hPa | 2.7V | 07:49:51 | 02:44:46 | 00:00:00 | |
| DM0DOS-11 | 2026-09-03 06:16:17 | 52.29079 | 9.44455 | 55° | 49km/h | 530m | -6.3m/s | 14.6°C | 81.2% | 958.8hPa | 2.7V | 07:49:10 | 02:44:44 | 00:00:00 | |
| DM0DOS-11 | 2026-09-03 06:16:17 | 52.29065 | 9.44421 | 57° | 49km/h | 543m | -6.9m/s | 14.5°C | 81.4% | 957.4hPa | 2.6V | 07:49:12 | 02:44:42 | 00:00:00 | |
| BIOWL1-15 | 2026-09-03 06:16:17 | 52.29086 | 9.44471 | 54° | 49km/h | 524m | -6.4m/s | 14.5°C | 85.3% | 959.5hPa | 2.7V | 07:49:51 | 02:44:45 | 00:00:00 | |
| BIOWL1-15 | 2026-09-03 06:16:13 | 52.29065 | 9.44421 | 57° | 49km/h | 543m | -6.9m/s | 14.5°C | 86.2% | 957.4hPa | 2.6V | 07:49:51 | 02:44:42 | 00:00:00 | |
| BIOWL1-15 | 2026-09-03 06:16:13 | 52.29058 | 9.44404 | 59° | 49km/h | 550m | -7m/s | 14.4°C | 85.6% | 956.7hPa | 2.7V | 07:49:51 | 02:44:41 | 00:00:00 | |
| DM0DOS-11 | 2026-09-03 06:16:11 | 52.29052 | 9.44386 | 57° | 51km/h | 557m | -6.2m/s | 14.4°C | 81.9% | 955.9hPa | 2.7V | 07:49:14 | 02:44:40 | 00:00:00 | |
| DM0DOS-11 | 2026-09-03 06:16:11 | 52.29024 | 9.44318 | 55° | 49km/h | 580m | -5.8m/s | 14.2°C | 82.6% | 952.9hPa | 2.7V | 07:49:18 | 02:44:36 | 00:00:00 | |
| DB0DAN | 2026-09-03 06:16:10 | 52.29051 | 9.44386 | 58° | 47km/h | 557m | -6.3m/s | 14.4°C | 80.5% | 955.92hPa | 2.7V | 00:00:00 | 00:00:00 | 00:00:00 | |
| BIOWL1-15 | 2026-09-03 06:16:10 | 52.29051 | 9.44386 | 58° | 51km/h | 557m | -6.3m/s | 14.4°C | 85.1% | 955.9hPa | 2.7V | 07:49:51 | 02:44:40 | 00:00:00 | |
| BIOWL1-15 | 2026-09-03 06:16:08 | 52.29038 | 9.44352 | 57° | 49km/h | 569m | -5.3m/s | 14.3°C | 84.5% | 954.2hPa | 2.7V | 07:49:51 | 02:44:38 | 00:00:00 | |
| BIOWL1-15 | 2026-09-03 06:16:06 | 52.29003 | 9.44267 | 59° | 51km/h | 597m | -6.2m/s | 14°C | 86.2% | 951.1hPa | 2.7V | 07:49:51 | 02:44:33 | 00:00:00 | |
| BIOWL1-15 | 2026-09-03 06:16:05 | 52.28997 | 9.44248 | 59° | 53km/h | 604m | -6.5m/s | 14°C | 86.2% | 950.6hPa | 2.7V | 07:49:51 | 02:44:32 | 00:00:00 | |
| DM0DOS-11 | 2026-09-03 06:16:05 | 52.28997 | 9.44248 | 59° | 53km/h | 604m | -6.5m/s | 14°C | 83.2% | 950.6hPa | 2.7V | 07:49:22 | 02:44:32 | 00:00:00 | |
| DM0DOS-11 | 2026-09-03 06:16:05 | 52.28983 | 9.44210 | 60° | 55km/h | 617m | -6.7m/s | 14.3°C | 82.5% | 949hPa | 2.7V | 07:49:24 | 02:44:30 | 00:00:00 | |
| BIOWL1-15 | 2026-09-03 06:16:00 | 52.28983 | 9.44210 | 60° | 55km/h | 617m | -6.7m/s | 14.3°C | 86.8% | 949.1hPa | 2.7V | 07:49:51 | 02:44:30 | 00:00:00 | |
| DM0DOS-11 | 2026-09-03 06:15:59 | 52.28956 | 9.44130 | 61° | 55km/h | 643m | -6.9m/s | 14°C | 83.4% | 945.9hPa | 2.7V | 07:49:28 | 02:44:26 | 00:00:00 | |
| DM0DOS-11 | 2026-09-03 06:15:59 | 52.28942 | 9.44089 | 62° | 55km/h | 657m | -6.6m/s | 13.9°C | 84% | 944.3hPa | 2.7V | 07:49:30 | 02:44:24 | 00:00:00 | |
| BIOWL1-15 | 2026-09-03 06:15:59 | 52.28976 | 9.44190 | 61° | 55km/h | 623m | -6.3m/s | 14.2°C | 87.2% | 948.2hPa | 2.7V | 07:49:51 | 02:44:29 | 00:00:00 | |
| BIOWL1-15 | 2026-09-03 06:15:57 | 52.28962 | 9.44150 | 62° | 55km/h | 636m | -6.5m/s | 14.1°C | 87.8% | 946.8hPa | 2.6V | 07:49:51 | 02:44:27 | 00:00:00 | |
| DB0DAN | 2026-09-03 06:15:55 | 52.28949 | 9.44110 | 62° | 53km/h | 650m | -6.8m/s | 14°C | 82.1% | 945.25hPa | 2.7V | 00:00:00 | 00:00:00 | 00:00:00 | |
| BIOWL1-15 | 2026-09-03 06:15:55 | 52.28949 | 9.44110 | 62° | 55km/h | 650m | -6.8m/s | 14°C | 87.8% | 945.2hPa | 2.7V | 07:49:51 | 02:44:25 | 00:00:00 | |
| DM0DOS-11 | 2026-09-03 06:15:53 | 52.28918 | 9.44005 | 65° | 58km/h | 683m | -6.8m/s | 13.8°C | 84.9% | 941.6hPa | 2.7V | 07:49:34 | 02:44:20 | 00:00:00 | |
| BIOWL1-15 | 2026-09-03 06:15:53 | 52.28936 | 9.44069 | 64° | 57km/h | 663m | -6.8m/s | 13.9°C | 88.2% | 943.8hPa | 2.7V | 07:49:51 | 02:44:23 | 00:00:00 | |
| BIOWL1-15 | 2026-09-03 06:15:52 | 52.28930 | 9.44048 | 64° | 57km/h | 670m | -6.7m/s | 13.9°C | 88.4% | 943.1hPa | 2.7V | 07:49:51 | 02:44:22 | 00:00:00 | |
| BIOWL1-15 | 2026-09-03 06:15:50 | 52.28911 | 9.43983 | 66° | 60km/h | 690m | -6.6m/s | 13.8°C | 88% | 940.7hPa | 2.6V | 07:49:51 | 02:44:19 | 00:00:00 | |
| BIOWL1-15 | 2026-09-03 06:15:50 | 52.28905 | 9.43960 | 66° | 60km/h | 697m | -6.7m/s | 13.7°C | 88.2% | 939.8hPa | 2.7V | 07:49:51 | 02:44:18 | 00:00:00 | |
| DM0DOS-11 | 2026-09-03 06:15:48 | 52.28880 | 9.43869 | 65° | 60km/h | 722m | -6.3m/s | 13.6°C | 85.8% | 937.1hPa | 2.7V | 07:49:40 | 02:44:14 | 00:00:00 | |
| DM0DOS-11 | 2026-09-03 06:15:48 | 52.28867 | 9.43824 | 65° | 62km/h | 735m | -6.1m/s | 13.6°C | 86% | 935.9hPa | 2.6V | 07:49:42 | 02:44:12 | 00:00:00 | |
| BIOWL1-15 | 2026-09-03 06:15:47 | 52.28873 | 9.43847 | 65° | 62km/h | 729m | -6.2m/s | 13.6°C | 88.8% | 936.3hPa | 2.7V | 07:49:51 | 02:44:13 | 00:00:00 | |
| BIOWL1-15 | 2026-09-03 06:15:46 | 52.28867 | 9.43824 | 65° | 62km/h | 735m | -6.1m/s | 13.6°C | 88.8% | 936hPa | 2.6V | 07:49:51 | 02:44:12 | 00:00:00 | |
| DL3OBA | 2026-09-03 06:15:43 | 52.28880 | 9.43869 | 66° | 60km/h | 722m | -6.3m/s | 13.6°C | 84.3% | 937.1hPa | 2.7V | 07:49:00 | 00:00:00 | 00:00:00 | |
| DL4XJ-10 | 2026-09-03 06:15:42 | 52.28867 | 9.43823 | 66° | 64km/h | 735m | -6.1m/s | 15.0°C | 0% | 0hPa | 2.7V | 00:00:00 | 00:00:00 | 00:00:00 | |
| DM0DOS-11 | 2026-09-03 06:15:41 | 52.28854 | 9.43777 | 65° | 62km/h | 747m | -6.4m/s | 13.5°C | 86.1% | 934.6hPa | 2.7V | 07:49:44 | 02:44:10 | 00:00:00 | |
| DM0DOS-11 | 2026-09-03 06:15:41 | 52.28829 | 9.43679 | 68° | 68km/h | 773m | -6.2m/s | 13.6°C | 85.4% | 931.6hPa | 2.7V | 07:49:48 | 02:44:06 | 00:00:00 | |
| BIOWL1-15 | 2026-09-03 06:15:40 | 52.28835 | 9.43704 | 68° | 66km/h | 767m | -6.3m/s | 13.7°C | 88.6% | 932.3hPa | 2.7V | 07:49:51 | 02:44:07 | 00:00:00 | |
| DB0DAN | 2026-09-03 06:15:40 | 52.28854 | 9.43777 | 66° | 58km/h | 747m | -6.4m/s | 13.5°C | 84.6% | 934.58hPa | 2.7V | 00:00:00 | 00:00:00 | 00:00:00 | |
| BIOWL1-15 | 2026-09-03 06:15:40 | 52.28829 | 9.43679 | 69° | 68km/h | 773m | -6.2m/s | 13.6°C | 88.7% | 931.6hPa | 2.7V | 07:49:51 | 02:44:06 | 00:00:00 | |
| DM0DOS-11 | 2026-09-03 06:15:35 | 52.28804 | 9.43576 | 67° | 68km/h | 797m | -5.8m/s | 13.4°C | 86.3% | 929hPa | 2.7V | 07:49:52 | 02:44:02 | 00:00:00 | |
| DM0DOS-11 | 2026-09-03 06:15:35 | 52.28792 | 9.43525 | 68° | 68km/h | 810m | -6m/s | 13.3°C | 86.9% | 927.5hPa | 2.7V | 07:49:54 | 02:44:00 | 00:00:00 | |
| BIOWL1-15 | 2026-09-03 06:15:34 | 52.28811 | 9.43602 | 69° | 66km/h | 791m | -6.1m/s | 13.5°C | 89.2% | 929.5hPa | 2.7V | 07:49:51 | 02:44:03 | 00:00:00 | |
| BIOWL1-15 | 2026-09-03 06:15:34 | 52.28804 | 9.43576 | 68° | 68km/h | 797m | -5.8m/s | 13.4°C | 89.6% | 929hPa | 2.7V | 07:50:42 | 02:44:02 | 00:00:00 | |
| BIOWL1-15 | 2026-09-03 06:15:30 | 52.28792 | 9.43525 | 68° | 68km/h | 810m | -6m/s | 13.3°C | 90% | 927.6hPa | 2.7V | 07:50:42 | 02:44:00 | 00:00:00 | |
| DM0DOS-11 | 2026-09-03 06:15:29 | 52.28754 | 9.43367 | 69° | 69km/h | 846m | -6.1m/s | 13.2°C | 87.2% | 923.5hPa | 2.7V | 07:50:00 | 02:43:54 | 00:00:00 | |
| BIOWL1-15 | 2026-09-03 06:15:29 | 52.28785 | 9.43499 | 68° | 68km/h | 815m | -5.6m/s | 13.2°C | 90.2% | 927hPa | 2.7V | 07:50:42 | 02:43:59 | 00:00:00 | |
| BIOWL1-15 | 2026-09-03 06:15:27 | 52.28773 | 9.43446 | 68° | 69km/h | 827m | -6.2m/s | 13.2°C | 90.6% | 925.8hPa | 2.7V | 07:50:42 | 02:43:57 | 00:00:00 | |
| DB0DAN | 2026-09-03 06:15:25 | 52.28760 | 9.43393 | 69° | 66km/h | 840m | -6m/s | 13.2°C | 85.6% | 924.4hPa | 2.7V | 00:00:00 | 00:00:00 | 00:00:00 | |
| BIOWL1-15 | 2026-09-03 06:15:25 | 52.28741 | 9.43313 | 70° | 69km/h | 858m | -6.1m/s | 13.2°C | 90.9% | 922.4hPa | 2.7V | 07:50:42 | 02:43:52 | 00:00:00 | |
| BIOWL1-15 | 2026-09-03 06:15:25 | 52.28735 | 9.43286 | 70° | 71km/h | 864m | -6.2m/s | 13.2°C | 91.5% | 921.5hPa | 2.6V | 07:50:42 | 02:43:51 | 00:00:00 | |
| BIOWL9-15 | 2026-09-03 06:15:24 | 52.28754 | 9.43367 | 69° | 68km/h | 846m | -6.1m/s | 13.2°C | 85.6% | 923.5hPa | 2.7V | 00:00:00 | 00:00:00 | 00:00:00 | |
| DL3OBA | 2026-09-03 06:15:23 | 52.28754 | 9.43367 | 70° | 69km/h | 846m | -6.1m/s | 13.2°C | 85.6% | 923.5hPa | 2.7V | 07:50:00 | 00:00:00 | 00:00:00 | |
| DM0DOS-11 | 2026-09-03 06:15:23 | 52.28717 | 9.43204 | 69° | 69km/h | 883m | -6m/s | 13.1°C | 85% | 919.5hPa | 2.7V | 07:50:06 | 02:43:48 | 00:00:00 | |
| BIOWL1-15 | 2026-09-03 06:15:19 | 52.28717 | 9.43204 | 69° | 69km/h | 883m | -6m/s | 13.1°C | 89.6% | 919.5hPa | 2.7V | 07:50:42 | 02:43:48 | 00:00:00 | |
| BIOWL1-15 | 2026-09-03 06:15:19 | 52.28711 | 9.43177 | 69° | 69km/h | 889m | -6m/s | 13°C | 89.7% | 918.9hPa | 2.7V | 07:50:42 | 02:43:47 | 00:00:00 | |
| DM0DOS-11 | 2026-09-03 06:15:17 | 52.28704 | 9.43150 | 69° | 69km/h | 895m | -6.2m/s | 13°C | 83.8% | 918.1hPa | 2.7V | 07:50:08 | 02:43:46 | 00:00:00 | |
| DM0DOS-11 | 2026-09-03 06:15:17 | 52.28692 | 9.43096 | 69° | 71km/h | 907m | -5.8m/s | 12.9°C | 84% | 916.9hPa | 2.7V | 07:50:10 | 02:43:44 | 00:00:00 | |
| DM0DOS-11 | 2026-09-03 06:15:17 | 52.28679 | 9.43041 | 69° | 71km/h | 919m | -5.9m/s | 12.8°C | 84.6% | 915.5hPa | 2.7V | 07:50:12 | 02:43:42 | 00:00:00 | |
| BIOWL1-15 | 2026-09-03 06:15:15 | 52.28698 | 9.43123 | 70° | 69km/h | 902m | -6.2m/s | 13°C | 88.7% | 917.4hPa | 2.7V | 07:50:42 | 02:43:45 | 00:00:00 | |
| BIOWL1-15 | 2026-09-03 06:15:13 | 52.28679 | 9.43041 | 69° | 71km/h | 920m | -5.9m/s | 12.8°C | 89.5% | 915.5hPa | 2.7V | 07:50:42 | 02:43:42 | 00:00:00 | |
| BIOWL1-15 | 2026-09-03 06:15:13 | 52.28673 | 9.43013 | 69° | 71km/h | 925m | -5.8m/s | 12.8°C | 90.1% | 914.9hPa | 2.7V | 07:50:42 | 02:43:41 | 00:00:00 | |
| DL4XJ-10 | 2026-09-03 06:15:12 | 52.28679 | 9.43041 | 70° | 71km/h | 920m | -5.8m/s | 14.3°C | 0% | 0hPa | 2.7V | 00:00:00 | 00:00:00 | 00:00:00 | |
| DM0DOS-11 | 2026-09-03 06:15:11 | 52.28653 | 9.42930 | 69° | 73km/h | 943m | -6.1m/s | 12.6°C | 85.6% | 913hPa | 2.7V | 07:50:16 | 02:43:38 | 00:00:00 | |
| DM0DOS-11 | 2026-09-03 06:15:11 | 52.28641 | 9.42874 | 69° | 71km/h | 956m | -5.8m/s | 12.5°C | 86.2% | 911.9hPa | 2.7V | 07:50:18 | 02:43:36 | 00:00:00 | |
| DB0DAN | 2026-09-03 06:15:10 | 52.28666 | 9.42985 | 69° | 68km/h | 931m | -5.9m/s | 12.7°C | 83.5% | 914.45hPa | 2.6V | 00:00:00 | 00:00:00 | 00:00:00 | |
| BIOWL1-15 | 2026-09-03 06:15:10 | 52.28666 | 9.42985 | 69° | 71km/h | 931m | -5.9m/s | 12.7°C | 90.5% | 914.5hPa | 2.6V | 07:50:42 | 02:43:40 | 00:00:00 | |
| BIOWL1-15 | 2026-09-03 06:15:09 | 52.28641 | 9.42874 | 70° | 71km/h | 956m | -5.8m/s | 12.5°C | 91.1% | 911.9hPa | 2.7V | 07:50:42 | 02:43:36 | 00:00:00 | |
| BIOWL1-15 | 2026-09-03 06:15:08 | 52.28634 | 9.42847 | 69° | 71km/h | 961m | -5.4m/s | 12.4°C | 91.4% | 911.1hPa | 2.7V | 07:50:42 | 02:43:35 | 00:00:00 | |
| BIOWL1-15 | 2026-09-03 06:15:06 | 52.28628 | 9.42820 | 70° | 71km/h | 967m | -5.3m/s | 12.4°C | 91.6% | 910.5hPa | 2.7V | 07:50:42 | 02:43:34 | 00:00:00 | |
| BIOWL1-15 | 2026-09-03 06:15:02 | 52.28576 | 9.42579 | 70° | 66km/h | 1017m | -4.9m/s | 11.9°C | 91.8% | 904.8hPa | 2.7V | 07:50:42 | 02:43:25 | 00:00:00 | |
| BIOWL1-15 | 2026-09-03 06:15:02 | 52.28570 | 9.42553 | 70° | 66km/h | 1021m | -4.7m/s | 11.9°C | 91.9% | 904.5hPa | 2.7V | 07:50:42 | 02:43:24 | 00:00:00 | |
| DM0DOS-11 | 2026-09-03 06:14:59 | 52.28593 | 9.42658 | 70° | 68km/h | 1000m | -5.6m/s | 12.1°C | 88.6% | 906.8hPa | 2.6V | 07:50:26 | 02:43:28 | 00:00:00 | |
| DM0DOS-11 | 2026-09-03 06:14:59 | 52.28570 | 9.42554 | 69° | 66km/h | 1021m | -4.7m/s | 11.9°C | 89.3% | 904.5hPa | 2.7V | 07:50:30 | 02:43:24 | 00:00:00 | |
| BIOWL1-15 | 2026-09-03 06:14:57 | 52.28564 | 9.42528 | 71° | 66km/h | 1026m | -4.8m/s | 11.9°C | 92.8% | 904.1hPa | 2.7V | 07:50:42 | 02:43:23 | 00:00:00 | |
| DB0DAN | 2026-09-03 06:14:55 | 52.28576 | 9.42579 | 70° | 64km/h | 1017m | -4.9m/s | 11.9°C | 87.7% | 904.84hPa | 2.7V | 00:00:00 | 00:00:00 | 00:00:00 | |
| BIOWL9-15 | 2026-09-03 06:14:53 | 52.28564 | 9.42528 | 70° | 66km/h | 1026m | -4.8m/s | 11.9°C | 88.4% | 904.1hPa | 2.7V | 00:00:00 | 00:00:00 | 00:00:00 | |
| DM0DOS-11 | 2026-09-03 06:14:53 | 52.28548 | 9.42451 | 71° | 66km/h | 1042m | -5.7m/s | 11.7°C | 94.6% | 902.5hPa | 2.7V | 07:50:34 | 02:43:20 | 00:00:00 | |
| BIOWL1-15 | 2026-09-03 06:14:51 | 52.28553 | 9.42477 | 71° | 66km/h | 1037m | -5.6m/s | 11.8°C | 94.8% | 902.8hPa | 2.7V | 07:50:42 | 02:43:21 | 00:00:00 | |
| BIOWL1-15 | 2026-09-03 06:14:49 | 52.28543 | 9.42425 | 72° | 66km/h | 1048m | -5m/s | 11.7°C | 95.3% | 901.6hPa | 2.7V | 07:50:42 | 02:43:19 | 00:00:00 | |
| BIOWL1-15 | 2026-09-03 06:14:48 | 52.28538 | 9.42400 | 73° | 66km/h | 1053m | -5.9m/s | 11.6°C | 99.8% | 901hPa | 2.7V | 07:50:42 | 02:43:18 | 00:00:00 | |
| DM0DOS-11 | 2026-09-03 06:14:47 | 52.28527 | 9.42348 | 72° | 66km/h | 1065m | -5.8m/s | 11.5°C | 96.4% | 900.1hPa | 2.6V | 07:50:38 | 02:43:16 | 00:00:00 | |
| DM0DOS-11 | 2026-09-03 06:14:47 | 52.28518 | 9.42296 | 73° | 64km/h | 1076m | -5.7m/s | 11.4°C | 97% | 898.5hPa | 2.7V | 07:50:40 | 02:43:14 | 00:00:00 | |
| DM0DOS-11 | 2026-09-03 06:14:47 | 52.28509 | 9.42247 | 73° | 60km/h | 1087m | -5.4m/s | 11.4°C | 96.7% | 897.5hPa | 2.7V | 07:50:42 | 02:43:12 | 00:00:00 | |
| BIOWL1-15 | 2026-09-03 06:14:46 | 52.28528 | 9.42348 | 72° | 66km/h | 1065m | -5.8m/s | 11.5°C | 99.7% | 900.1hPa | 2.6V | 07:50:42 | 02:43:16 | 00:00:00 | |
| BIOWL1-15 | 2026-09-03 06:14:45 | 52.28523 | 9.42322 | 73° | 66km/h | 1070m | -5.8m/s | 11.4°C | 99.7% | 899.3hPa | 2.6V | 07:50:42 | 02:43:15 | 00:00:00 | |
| BIOWL1-15 | 2026-09-03 06:14:44 | 52.28518 | 9.42296 | 74° | 64km/h | 1076m | -5.7m/s | 11.4°C | 98.9% | 898.5hPa | 2.7V | 07:50:42 | 02:43:14 | 00:00:00 | |
| BIOWL1-15 | 2026-09-03 06:14:42 | 52.28505 | 9.42223 | 74° | 60km/h | 1093m | -5.6m/s | 11.5°C | 98.6% | 896.8hPa | 2.7V | 07:51:33 | 02:43:11 | 00:00:00 | |
| BIOWL1-15 | 2026-09-03 06:14:42 | 52.28501 | 9.42199 | 74° | 60km/h | 1098m | -5.7m/s | 11.3°C | 99.2% | 896.3hPa | 2.7V | 07:51:33 | 02:43:10 | 00:00:00 | |
| DL4XJ-10 | 2026-09-03 06:14:42 | 52.28509 | 9.42247 | 74° | 60km/h | 1087m | -5.3m/s | 12.8°C | 0% | 0hPa | 2.6V | 00:00:00 | 00:00:00 | 00:00:00 | |
| DM0DOS-11 | 2026-09-03 06:14:41 | 52.28492 | 9.42151 | 74° | 60km/h | 1109m | -5.6m/s | 11.1°C | 98.1% | 895.1hPa | 2.6V | 07:50:46 | 02:43:08 | 00:00:00 | |
| DM0DOS-11 | 2026-09-03 06:14:41 | 52.28485 | 9.42103 | 76° | 60km/h | 1121m | -5.9m/s | 11°C | 98.2% | 894hPa | 2.7V | 07:50:48 | 02:43:06 | 00:00:00 | |
| DB0DAN | 2026-09-03 06:14:40 | 52.28501 | 9.42199 | 74° | 58km/h | 1098m | -5.7m/s | 11.3°C | 95% | 896.29hPa | 2.7V | 00:00:00 | 00:00:00 | 00:00:00 | |
| BIOWL1-15 | 2026-09-03 06:14:38 | 52.28485 | 9.42103 | 76° | 60km/h | 1121m | -5.9m/s | 11°C | 99.9% | 894hPa | 2.7V | 07:51:33 | 02:43:06 | 00:00:00 | |
| DM0DOS-11 | 2026-09-03 06:14:35 | 52.28477 | 9.42055 | 76° | 58km/h | 1133m | -6m/s | 11°C | 98.1% | 892.8hPa | 2.7V | 07:50:50 | 02:43:04 | 00:00:00 | |
| DM0DOS-11 | 2026-09-03 06:14:35 | 52.28471 | 9.42008 | 78° | 58km/h | 1145m | -5.7m/s | 11°C | 98.1% | 891.3hPa | 2.6V | 07:50:52 | 02:43:02 | 00:00:00 | |
| BIOWL1-15 | 2026-09-03 06:14:34 | 52.28474 | 9.42031 | 78° | 58km/h | 1139m | -5.7m/s | 11°C | 99.5% | 891.9hPa | 2.7V | 07:51:33 | 02:43:03 | 00:00:00 | |
| BIOWL1-15 | 2026-09-03 06:14:34 | 52.28471 | 9.42008 | 79° | 58km/h | 1145m | -5.7m/s | 11°C | 99.5% | 891.3hPa | 2.6V | 07:51:33 | 02:43:02 | 00:00:00 | |
| BIOWL1-15 | 2026-09-03 06:14:31 | 52.28469 | 9.41984 | 80° | 58km/h | 1150m | -5.7m/s | 11°C | 99.5% | 890.8hPa | 2.7V | 07:51:33 | 02:43:01 | 00:00:00 | |
| DM0DOS-11 | 2026-09-03 06:14:29 | 52.28461 | 9.41915 | 79° | 57km/h | 1168m | -6m/s | 10.8°C | 99.4% | 889hPa | 2.7V | 07:50:56 | 02:42:58 | 00:00:00 | |
| BIOWL1-15 | 2026-09-03 06:14:29 | 52.28463 | 9.41938 | 80° | 57km/h | 1162m | -5.7m/s | 10.9°C | 99.8% | 889.6hPa | 2.7V | 07:51:33 | 02:42:59 | 00:00:00 | |
| BIOWL1-15 | 2026-09-03 06:14:27 | 52.28458 | 9.41892 | 79° | 57km/h | 1173m | -5.7m/s | 10.8°C | 100% | 888.4hPa | 2.7V | 07:51:33 | 02:42:57 | 00:00:00 | |
| DB0DAN | 2026-09-03 06:14:25 | 52.28453 | 9.41846 | 81° | 53km/h | 1185m | -5.8m/s | 10.8°C | 98.5% | 887.11hPa | 2.7V | 00:00:00 | 00:00:00 | 00:00:00 | |
| BIOWL1-15 | 2026-09-03 06:14:25 | 52.28451 | 9.41824 | 82° | 55km/h | 1191m | -5.8m/s | 10.8°C | 99.9% | 886.5hPa | 2.7V | 07:51:33 | 02:42:54 | 00:00:00 | |
| BIOWL1-15 | 2026-09-03 06:14:25 | 52.28450 | 9.41802 | 83° | 55km/h | 1197m | -5.5m/s | 10.8°C | 100% | 886hPa | 2.7V | 07:51:33 | 02:42:53 | 00:00:00 | |
| DM0DOS-11 | 2026-09-03 06:14:23 | 52.28448 | 9.41779 | 84° | 55km/h | 1202m | -5.4m/s | 10.8°C | 0% | 885.3hPa | 2.7V | 07:51:02 | 02:42:52 | 00:00:00 | |
| DM0DOS-11 | 2026-09-03 06:14:23 | 52.28445 | 9.41735 | 85° | 55km/h | 1213m | -5.6m/s | 10.8°C | 0% | 884.1hPa | 2.6V | 07:51:04 | 02:42:50 | 00:00:00 | |
| DM0DOS-11 | 2026-09-03 06:14:23 | 52.28443 | 9.41690 | 84° | 55km/h | 1224m | -5.5m/s | 10.8°C | 0% | 883hPa | 2.7V | 07:51:06 | 02:42:48 | 00:00:00 | |
| BIOWL1-15 | 2026-09-03 06:14:21 | 52.28447 | 9.41757 | 85° | 55km/h | 1208m | -5.4m/s | 10.8°C | 100% | 884.8hPa | 2.7V | 07:51:33 | 02:42:51 | 00:00:00 | |
| BIOWL1-15 | 2026-09-03 06:14:19 | 52.28444 | 9.41712 | 85° | 55km/h | 1219m | -5.6m/s | 10.9°C | 100% | 883.6hPa | 2.7V | 07:51:33 | 02:42:49 | 00:00:00 | |
| DM0DOS-11 | 2026-09-03 06:14:17 | 52.28437 | 9.41598 | 83° | 57km/h | 1247m | -5.5m/s | 10.8°C | 0% | 880.7hPa | 2.6V | 07:51:10 | 02:42:44 | 00:00:00 | |
| BIOWL1-15 | 2026-09-03 06:14:17 | 52.28442 | 9.41667 | 84° | 57km/h | 1230m | -5.4m/s | 10.8°C | 100% | 882.8hPa | 2.7V | 07:51:33 | 02:42:47 | 00:00:00 | |
| BIOWL1-15 | 2026-09-03 06:14:15 | 52.28437 | 9.41598 | 84° | 57km/h | 1247m | -5.6m/s | 10.8°C | 100% | 880.7hPa | 2.6V | 07:51:33 | 02:42:44 | 00:00:00 | |
| BIOWL1-15 | 2026-09-03 06:14:15 | 52.28435 | 9.41575 | 84° | 57km/h | 1253m | -6.1m/s | 10.8°C | 100% | 880.2hPa | 2.7V | 07:51:33 | 02:42:43 | 00:00:00 | |
| BIOWL1-15 | 2026-09-03 06:14:11 | 52.28431 | 9.41506 | 83° | 55km/h | 1269m | -5.2m/s | 10.8°C | 100% | 878.4hPa | 2.7V | 07:51:33 | 02:42:40 | 00:00:00 | |
| DM0DOS-11 | 2026-09-03 06:14:11 | 52.28431 | 9.41506 | 83° | 55km/h | 1269m | -5.2m/s | 10.8°C | 0% | 878.4hPa | 2.7V | 07:51:14 | 02:42:40 | 00:00:00 | |
| DM0DOS-11 | 2026-09-03 06:14:11 | 52.28427 | 9.41461 | 82° | 55km/h | 1280m | -5.5m/s | 11°C | 96% | 877.2hPa | 2.6V | 07:51:16 | 02:42:38 | 00:00:00 | |
| BIOWL1-15 | 2026-09-03 06:14:11 | 52.28429 | 9.41484 | 83° | 55km/h | 1275m | -5.5m/s | 10.9°C | 100% | 877.9hPa | 2.7V | 07:51:33 | 02:42:39 | 00:00:00 | |
| DB0DAN | 2026-09-03 06:14:10 | 52.28431 | 9.41506 | 83° | 53km/h | 1269m | -5.2m/s | 10.8°C | 98.9% | 878.35hPa | 2.7V | 00:00:00 | 00:00:00 | 00:00:00 | |
| BIOWL1-15 | 2026-09-03 06:14:08 | 52.28427 | 9.41461 | 83° | 55km/h | 1280m | -5.5m/s | 11°C | 99% | 877.2hPa | 2.6V | 07:51:33 | 02:42:38 | 00:00:00 | |
| BIOWL1-15 | 2026-09-03 06:14:07 | 52.28426 | 9.41439 | 83° | 55km/h | 1286m | -5.3m/s | 11°C | 98.4% | 876.6hPa | 2.7V | 07:51:33 | 02:42:37 | 00:00:00 | |
| DM0DOS-11 | 2026-09-03 06:14:05 | 52.28421 | 9.41371 | 83° | 57km/h | 1303m | -5.5m/s | 10.9°C | 93.8% | 874.8hPa | 2.7V | 07:51:20 | 02:42:34 | 00:00:00 | |
| DM0DOS-11 | 2026-09-03 06:14:05 | 52.28413 | 9.41278 | 80° | 58km/h | 1325m | -5.5m/s | 10.9°C | 93.4% | 872.4hPa | 2.7V | 07:51:24 | 02:42:30 | 00:00:00 | |
| BIOWL1-15 | 2026-09-03 06:14:05 | 52.28422 | 9.41394 | 83° | 55km/h | 1298m | -5.7m/s | 11°C | 97.3% | 875.3hPa | 2.7V | 07:51:33 | 02:42:35 | 00:00:00 | |
| BIOWL1-15 | 2026-09-03 06:14:04 | 52.28413 | 9.41278 | 81° | 58km/h | 1326m | -5.5m/s | 10.9°C | 96.7% | 872.4hPa | 2.7V | 07:51:33 | 02:42:30 | 00:00:00 | |
| BIOWL1-15 | 2026-09-03 06:14:03 | 52.28410 | 9.41254 | 80° | 58km/h | 1331m | -5.8m/s | 10.8°C | 96.5% | 872hPa | 2.7V | 07:51:33 | 02:42:29 | 00:00:00 | |
| DL3OBA | 2026-09-03 06:14:02 | 52.28419 | 9.41348 | 84° | 57km/h | 1309m | -5.7m/s | 10.9°C | 91.6% | 874.2hPa | 2.6V | 07:51:00 | 00:00:00 | 00:00:00 | |
| DL4XJ-10 | 2026-09-03 06:14:02 | 52.28417 | 9.41324 | 82° | 57km/h | 1314m | -5.1m/s | 12.4°C | 0% | 0hPa | 2.6V | 00:00:00 | 00:00:00 | 00:00:00 | |
| DM0DOS-11 | 2026-09-03 06:13:59 | 52.28402 | 9.41186 | 77° | 55km/h | 1349m | -5.8m/s | 10.7°C | 93.8% | 870.1hPa | 2.6V | 07:51:28 | 02:42:26 | 00:00:00 | |
| DM0DOS-11 | 2026-09-03 06:13:59 | 52.28396 | 9.41141 | 77° | 57km/h | 1360m | -6.2m/s | 10.6°C | 94.5% | 868.9hPa | 2.7V | 07:51:30 | 02:42:24 | 00:00:00 | |
| BIOWL1-15 | 2026-09-03 06:13:57 | 52.28402 | 9.41186 | 78° | 55km/h | 1349m | -5.8m/s | 10.7°C | 97.6% | 870.1hPa | 2.6V | 07:51:33 | 02:42:26 | 00:00:00 | |
| BIOWL1-15 | 2026-09-03 06:13:57 | 52.28399 | 9.41163 | 77° | 55km/h | 1355m | -5.4m/s | 10.6°C | 98.3% | 869.5hPa | 2.7V | 07:51:33 | 02:42:25 | 00:00:00 | |
| DB0DAN | 2026-09-03 06:13:55 | 52.28399 | 9.41163 | 77° | 53km/h | 1355m | -5.4m/s | 10.6°C | 92.4% | 869.52hPa | 2.7V | 00:00:00 | 00:00:00 | 00:00:00 | |
| BIOWL1-15 | 2026-09-03 06:13:53 | 52.28392 | 9.41118 | 77° | 58km/h | 1367m | -6.2m/s | 10.5°C | 98.8% | 868.3hPa | 2.7V | 07:51:33 | 02:42:23 | 00:00:00 | |
| DM0DOS-11 | 2026-09-03 06:13:53 | 52.28389 | 9.41094 | 77° | 58km/h | 1373m | -6.4m/s | 10.5°C | 94.8% | 867.7hPa | 2.7V | 07:51:32 | 02:42:22 | 00:00:00 | |
| DM0DOS-11 | 2026-09-03 06:13:53 | 52.28376 | 9.40999 | 78° | 58km/h | 1398m | -5.8m/s | 10.3°C | 95.7% | 864.9hPa | 2.7V | 07:51:36 | 02:42:18 | 00:00:00 | |
| BIOWL1-15 | 2026-09-03 06:13:51 | 52.28386 | 9.41071 | 77° | 58km/h | 1379m | -5.9m/s | 10.4°C | 98.6% | 867.1hPa | 2.7V | 07:51:33 | 02:42:21 | 00:00:00 | |
| BIOWL1-15 | 2026-09-03 06:13:50 | 52.28383 | 9.41047 | 78° | 60km/h | 1385m | -6m/s | 10.4°C | 98.6% | 866.4hPa | 2.7V | 07:52:24 | 02:42:20 | 00:00:00 | |
| BIOWL1-15 | 2026-09-03 06:13:49 | 52.28379 | 9.41023 | 78° | 60km/h | 1391m | -6.2m/s | 10.3°C | 98.5% | 865.8hPa | 2.7V | 07:52:24 | 02:42:19 | 00:00:00 | |
| BIOWL7-15 | 2026-09-03 06:13:48 | 52.28379 | 9.41023 | 79° | 60km/h | 1391m | -6.2m/s | 10.3°C | 93.5% | 865.8hPa | 2.7V | 07:52:00 | 00:00:00 | 00:00:00 | |
| DM0DOS-11 | 2026-09-03 06:13:47 | 52.28363 | 9.40904 | 76° | 60km/h | 1420m | -6.2m/s | 10.1°C | 96.8% | 862.6hPa | 2.7V | 07:51:40 | 02:42:14 | 00:00:00 | |
| DM0DOS-11 | 2026-09-03 06:13:47 | 52.28356 | 9.40856 | 75° | 60km/h | 1432m | -5.8m/s | 10°C | 97.3% | 861.5hPa | 2.7V | 07:51:42 | 02:42:12 | 00:00:00 | |
| BIOWL1-15 | 2026-09-03 06:13:47 | 52.28373 | 9.40975 | 78° | 58km/h | 1403m | -5.8m/s | 10.2°C | 98.8% | 864.4hPa | 2.6V | 07:52:24 | 02:42:17 | 00:00:00 | |
| BIOWL1-15 | 2026-09-03 06:13:46 | 52.28370 | 9.40952 | 78° | 58km/h | 1409m | -5m/s | 10.2°C | 98.6% | 863.9hPa | 2.6V | 07:52:24 | 02:42:16 | 00:00:00 | |
| BIOWL1-15 | 2026-09-03 06:13:44 | 52.28356 | 9.40856 | 76° | 60km/h | 1432m | -5.8m/s | 10°C | 100% | 861.5hPa | 2.7V | 07:52:24 | 02:42:12 | 00:00:00 | |
| BIOWL1-15 | 2026-09-03 06:13:41 | 52.28352 | 9.40831 | 75° | 62km/h | 1437m | -5.6m/s | 9.9°C | 100% | 860.8hPa | 2.7V | 07:52:24 | 02:42:11 | 00:00:00 | |
| DB0DAN | 2026-09-03 06:13:40 | 52.28348 | 9.40807 | 76° | 58km/h | 1443m | -5.9m/s | 9.9°C | 96.3% | 860.34hPa | 2.6V | 00:00:00 | 00:00:00 | 00:00:00 | |
| BIOWL1-15 | 2026-09-03 06:13:39 | 52.28328 | 9.40684 | 74° | 62km/h | 1473m | -5.7m/s | 9.7°C | 100% | 857.1hPa | 2.7V | 07:52:24 | 02:42:05 | 00:00:00 | |
| BIOWL1-15 | 2026-09-03 06:13:39 | 52.28324 | 9.40659 | 75° | 62km/h | 1479m | -5.6m/s | 9.7°C | 99.9% | 856.6hPa | 2.7V | 07:52:24 | 02:42:04 | 00:00:00 | |
| BIOWL1-15 | 2026-09-03 06:13:37 | 52.28320 | 9.40634 | 75° | 62km/h | 1485m | -5.7m/s | 9.7°C | 99.8% | 856.1hPa | 2.7V | 07:52:24 | 02:42:03 | 00:00:00 | |
| DM0DOS-11 | 2026-09-03 06:13:35 | 52.28324 | 9.40659 | 74° | 62km/h | 1479m | -5.6m/s | 9.7°C | 96.6% | 856.6hPa | 2.7V | 07:51:50 | 02:42:04 | 00:00:00 | |
| BIOWL1-15 | 2026-09-03 06:13:31 | 52.28308 | 9.40560 | 74° | 62km/h | 1501m | -5.5m/s | 9.7°C | 97.3% | 854.3hPa | 2.6V | 07:52:24 | 02:42:00 | 00:00:00 | |
| BIOWL1-15 | 2026-09-03 06:13:31 | 52.28304 | 9.40535 | 74° | 62km/h | 1507m | -5.9m/s | 9.6°C | 96.9% | 853.7hPa | 2.7V | 07:52:24 | 02:41:59 | 00:00:00 | |
| DM0DOS-11 | 2026-09-03 06:13:29 | 52.28281 | 9.40413 | 73° | 60km/h | 1537m | -6.1m/s | 9.5°C | 92.9% | 850.6hPa | 2.7V | 07:52:00 | 02:41:54 | 00:00:00 | |
| BIOWL1-15 | 2026-09-03 06:13:27 | 52.28295 | 9.40486 | 74° | 62km/h | 1519m | -6m/s | 9.6°C | 96.9% | 852.5hPa | 2.7V | 07:52:24 | 02:41:57 | 00:00:00 | |
| DB0DAN | 2026-09-03 06:13:25 | 52.28286 | 9.40437 | 73° | 58km/h | 1531m | -6.1m/s | 9.5°C | 91.1% | 851.22hPa | 2.7V | 00:00:00 | 00:00:00 | 00:00:00 | |
| BIOWL1-15 | 2026-09-03 06:13:25 | 52.28286 | 9.40437 | 73° | 62km/h | 1531m | -6.1m/s | 9.5°C | 96.7% | 851.2hPa | 2.7V | 07:52:24 | 02:41:55 | 00:00:00 | |
| BIOWL1-15 | 2026-09-03 06:13:24 | 52.28281 | 9.40413 | 74° | 60km/h | 1538m | -6.1m/s | 9.5°C | 96.6% | 850.6hPa | 2.7V | 07:52:24 | 02:41:54 | 00:00:00 | |
| DM0DOS-11 | 2026-09-03 06:13:23 | 52.28273 | 9.40364 | 73° | 62km/h | 1550m | -6m/s | 9.4°C | 93% | 849.4hPa | 2.7V | 07:52:02 | 02:41:52 | 00:00:00 | |
| BIOWL1-15 | 2026-09-03 06:13:23 | 52.28277 | 9.40388 | 74° | 62km/h | 1544m | -5.8m/s | 9.4°C | 96.5% | 850hPa | 2.7V | 07:52:24 | 02:41:53 | 00:00:00 | |
| BIOWL1-15 | 2026-09-03 06:13:22 | 52.28273 | 9.40364 | 74° | 62km/h | 1550m | -6m/s | 9.4°C | 96.5% | 849.4hPa | 2.7V | 07:52:24 | 02:41:52 | 00:00:00 | |
| BIOWL1-15 | 2026-09-03 06:13:20 | 52.28264 | 9.40315 | 74° | 60km/h | 1561m | -5.6m/s | 9.3°C | 97.2% | 848.4hPa | 2.6V | 07:52:24 | 02:41:50 | 00:00:00 | |
| BIOWL1-15 | 2026-09-03 06:13:19 | 52.28260 | 9.40291 | 75° | 60km/h | 1567m | -6.2m/s | 9.3°C | 97.7% | 847.6hPa | 2.7V | 07:52:24 | 02:41:49 | 00:00:00 | |
| DM0DOS-11 | 2026-09-03 06:13:18 | 52.28248 | 9.40219 | 74° | 60km/h | 1585m | -6.1m/s | 9.2°C | 94.5% | 845.9hPa | 2.7V | 07:52:08 | 02:41:46 | 00:00:00 | |
| DM0DOS-11 | 2026-09-03 06:13:18 | 52.28240 | 9.40171 | 74° | 60km/h | 1597m | -5.8m/s | 9.1°C | 94.9% | 844.8hPa | 2.7V | 07:52:10 | 02:41:44 | 00:00:00 | |
| DM0DOS-11 | 2026-09-03 06:13:18 | 52.28232 | 9.40124 | 74° | 60km/h | 1608m | -5.6m/s | 9°C | 95.5% | 843.3hPa | 2.7V | 07:52:12 | 02:41:42 | 00:00:00 | |
| BIOWL1-15 | 2026-09-03 06:13:17 | 52.28252 | 9.40243 | 74° | 60km/h | 1579m | -5.7m/s | 9.2°C | 98% | 846.5hPa | 2.7V | 07:52:24 | 02:41:47 | 00:00:00 | |
| BIOWL1-15 | 2026-09-03 06:13:16 | 52.28248 | 9.40219 | 75° | 60km/h | 1585m | -6.1m/s | 9.2°C | 97.9% | 845.9hPa | 2.7V | 07:52:24 | 02:41:46 | 00:00:00 | |
| BIOWL1-15 | 2026-09-03 06:13:14 | 52.28240 | 9.40171 | 75° | 60km/h | 1597m | -5.8m/s | 9.1°C | 98.1% | 844.8hPa | 2.7V | 07:52:24 | 02:41:44 | 00:00:00 | |
| BIOWL1-15 | 2026-09-03 06:13:12 | 52.28232 | 9.40124 | 75° | 60km/h | 1608m | -5.6m/s | 9°C | 98.5% | 843.3hPa | 2.7V | 07:52:24 | 02:41:42 | 00:00:00 | |
| DL4XJ-10 | 2026-09-03 06:13:12 | 52.28231 | 9.40123 | 75° | 60km/h | 1608m | -5.6m/s | 10.4°C | 0% | 0hPa | 2.7V | 00:00:00 | 00:00:00 | 00:00:00 | |
| DM0DOS-11 | 2026-09-03 06:13:11 | 52.28215 | 9.40028 | 73° | 60km/h | 1631m | -5.8m/s | 8.8°C | 97.3% | 841.2hPa | 2.7V | 07:52:16 | 02:41:38 | 00:00:00 | |
| DB0DAN | 2026-09-03 06:13:10 | 52.28224 | 9.40076 | 75° | 57km/h | 1620m | -5.5m/s | 8.9°C | 94.7% | 842.13hPa | 2.6V | 00:00:00 | 00:00:00 | 00:00:00 | |
| BIOWL1-15 | 2026-09-03 06:13:10 | 52.28224 | 9.40076 | 75° | 60km/h | 1620m | -5.5m/s | 8.9°C | 99.5% | 842.1hPa | 2.6V | 07:52:24 | 02:41:40 | 00:00:00 | |
| BIOWL1-15 | 2026-09-03 06:13:08 | 52.28203 | 9.39956 | 73° | 60km/h | 1648m | -5.6m/s | 8.6°C | 100% | 839.4hPa | 2.7V | 07:52:24 | 02:41:35 | 00:00:00 | |
| BIOWL1-15 | 2026-09-03 06:13:08 | 52.28198 | 9.39931 | 73° | 60km/h | 1654m | -6m/s | 8.6°C | 100% | 838.7hPa | 2.7V | 07:52:24 | 02:41:34 | 00:00:00 | |
| DM0DOS-11 | 2026-09-03 06:13:05 | 52.28198 | 9.39931 | 73° | 60km/h | 1654m | -6m/s | 8.6°C | 98.6% | 838.7hPa | 2.7V | 07:52:20 | 02:41:34 | 00:00:00 | |
| DM0DOS-11 | 2026-09-03 06:13:05 | 52.28189 | 9.39883 | 72° | 60km/h | 1666m | -5.4m/s | 8.5°C | 99.1% | 837.4hPa | 2.7V | 07:52:22 | 02:41:32 | 00:00:00 | |
| BIOWL1-15 | 2026-09-03 06:13:02 | 52.28189 | 9.39883 | 72° | 62km/h | 1666m | -5.4m/s | 8.5°C | 100% | 837.4hPa | 2.7V | 07:52:24 | 02:41:32 | 00:00:00 | |
| BIOWL1-15 | 2026-09-03 06:13:00 | 52.28159 | 9.39716 | 74° | 58km/h | 1707m | -6.2m/s | 8.2°C | 100% | 833.5hPa | 2.7V | 07:53:15 | 02:41:25 | 00:00:00 | |
| BIOWL1-15 | 2026-09-03 06:13:00 | 52.28155 | 9.39692 | 74° | 58km/h | 1714m | -6.2m/s | 8.2°C | 100% | 832.6hPa | 2.6V | 07:53:15 | 02:41:24 | 00:00:00 | |
| DL3OBA | 2026-09-03 06:12:59 | 52.28180 | 9.39835 | 75° | 60km/h | 1678m | -6.0m/s | 8.4°C | 97.3% | 836.4hPa | 2.6V | 07:52:00 | 00:00:00 | 00:00:00 | |
| DM0DOS-11 | 2026-09-03 06:12:59 | 52.28155 | 9.39692 | 73° | 58km/h | 1714m | -6.2m/s | 8.2°C | 0% | 832.6hPa | 2.6V | 07:52:30 | 02:41:24 | 00:00:00 | |
| DB0DAN | 2026-09-03 06:12:55 | 52.28159 | 9.39716 | 74° | 57km/h | 1707m | -6.2m/s | 8.2°C | 98.3% | 833.5hPa | 2.7V | 00:00:00 | 00:00:00 | 00:00:00 | |
| BIOWL1-15 | 2026-09-03 06:12:55 | 52.28151 | 9.39669 | 73° | 58km/h | 1719m | -5.4m/s | 8.2°C | 100% | 832.3hPa | 2.7V | 07:53:15 | 02:41:23 | 00:00:00 | |
| DM0DOS-11 | 2026-09-03 06:12:53 | 52.28146 | 9.39646 | 73° | 58km/h | 1725m | -5.7m/s | 8.1°C | 99.8% | 831.5hPa | 2.7V | 07:52:32 | 02:41:22 | 00:00:00 | |
| DM0DOS-11 | 2026-09-03 06:12:53 | 52.28128 | 9.39553 | 72° | 60km/h | 1749m | -6.3m/s | 8°C | 99.3% | 829.1hPa | 2.7V | 07:52:36 | 02:41:18 | 00:00:00 | |
| BIOWL1-15 | 2026-09-03 06:12:51 | 52.28137 | 9.39600 | 72° | 58km/h | 1737m | -5.7m/s | 8.1°C | 100% | 830.4hPa | 2.7V | 07:53:15 | 02:41:20 | 00:00:00 | |
| BIOWL1-15 | 2026-09-03 06:12:51 | 52.28133 | 9.39576 | 72° | 60km/h | 1743m | -6m/s | 8°C | 100% | 829.7hPa | 2.6V | 07:53:15 | 02:41:19 | 00:00:00 | |
| BIOWL9-15 | 2026-09-03 06:12:49 | 52.28128 | 9.39553 | 72° | 58km/h | 1749m | -6.3m/s | 8.0°C | 97.3% | 829.1hPa | 2.6V | 00:00:00 | 00:00:00 | 00:00:00 | |
| DM0DOS-11 | 2026-09-03 06:12:47 | 52.28110 | 9.39457 | 72° | 60km/h | 1773m | -6m/s | 7.8°C | 99.7% | 826.7hPa | 2.6V | 07:52:40 | 02:41:14 | 00:00:00 | |
| BIOWL1-15 | 2026-09-03 06:12:47 | 52.28123 | 9.39529 | 72° | 60km/h | 1755m | -5.9m/s | 8°C | 100% | 828.5hPa | 2.7V | 07:53:15 | 02:41:17 | 00:00:00 | |
| BIOWL1-15 | 2026-09-03 06:12:45 | 52.28110 | 9.39457 | 73° | 60km/h | 1773m | -6m/s | 7.9°C | 100% | 826.7hPa | 2.6V | 07:53:15 | 02:41:14 | 00:00:00 | |
| BIOWL1-15 | 2026-09-03 06:12:45 | 52.28105 | 9.39433 | 73° | 60km/h | 1779m | -5.8m/s | 7.8°C | 100% | 826.3hPa | 2.7V | 07:53:15 | 02:41:13 | 00:00:00 | |
| BIOWL1-15 | 2026-09-03 06:12:42 | 52.28100 | 9.39409 | 73° | 60km/h | 1785m | -6.1m/s | 7.8°C | 100% | 825.7hPa | 2.7V | 07:53:15 | 02:41:12 | 00:00:00 | |
| DL4XJ-10 | 2026-09-03 06:12:42 | 52.28100 | 9.39409 | 73° | 60km/h | 1784m | -6.0m/s | 9.2°C | 0% | 0hPa | 2.7V | 00:00:00 | 00:00:00 | 00:00:00 | |
| DM0DOS-11 | 2026-09-03 06:12:41 | 52.28091 | 9.39362 | 72° | 58km/h | 1797m | -6.2m/s | 7.7°C | 0% | 824.4hPa | 2.7V | 07:52:44 | 02:41:10 | 00:00:00 | |
| DB0DAN | 2026-09-03 06:12:40 | 52.28092 | 9.39362 | 73° | 57km/h | 1797m | -6.2m/s | 7.7°C | 98.3% | 824.43hPa | 2.7V | 00:00:00 | 00:00:00 | 00:00:00 | |
| BIOWL1-15 | 2026-09-03 06:12:40 | 52.28092 | 9.39362 | 73° | 60km/h | 1797m | -6.2m/s | 7.7°C | 100% | 824.4hPa | 2.7V | 07:53:15 | 02:41:10 | 00:00:00 | |
| BIOWL1-15 | 2026-09-03 06:12:38 | 52.28068 | 9.39245 | 72° | 60km/h | 1827m | -6m/s | 7.5°C | 100% | 821.5hPa | 2.7V | 07:53:15 | 02:41:05 | 00:00:00 | |
| BIOWL1-15 | 2026-09-03 06:12:38 | 52.28064 | 9.39222 | 73° | 60km/h | 1833m | -6m/s | 7.4°C | 100% | 820.9hPa | 2.7V | 07:53:15 | 02:41:04 | 00:00:00 | |
| DM0DOS-11 | 2026-09-03 06:12:35 | 52.28064 | 9.39222 | 72° | 60km/h | 1833m | -6m/s | 7.4°C | 0% | 820.9hPa | 2.7V | 07:52:50 | 02:41:04 | 00:00:00 | |
| DM0DOS-11 | 2026-09-03 06:12:35 | 52.28055 | 9.39174 | 73° | 60km/h | 1846m | -6m/s | 7.4°C | 0% | 819.5hPa | 2.7V | 07:52:52 | 02:41:02 | 00:00:00 | |
| BIOWL1-15 | 2026-09-03 06:12:32 | 52.28050 | 9.39151 | 73° | 60km/h | 1852m | -6.3m/s | 7.3°C | 100% | 818.9hPa | 2.6V | 07:53:15 | 02:41:01 | 00:00:00 | |
| BIOWL1-15 | 2026-09-03 06:12:32 | 52.28046 | 9.39127 | 73° | 60km/h | 1858m | -6.1m/s | 7.3°C | 100% | 818.5hPa | 2.6V | 07:53:15 | 02:41:00 | 00:00:00 | |
| DL4XJ-10 | 2026-09-03 06:12:32 | 52.28055 | 9.39174 | 74° | 60km/h | 1846m | -5.9m/s | 8.8°C | 0% | 0hPa | 2.7V | 00:00:00 | 00:00:00 | 00:00:00 | |
| DL1LOL-11 | 2026-09-03 06:12:32 | 52.28055 | 9.39174 | 74° | 60km/h | 1846m | -6.0m/s | 7.4°C | 0% | 819.5hPa | 2.7V | 07:53:00 | 00:00:00 | 00:00:00 | |
| BUE01 | 2026-09-03 06:12:30 | 52.28046 | 9.39127 | 72° | 60km/h | 1858m | -6.1m/s | 7.3°C | 100.0% | 818.5hPa | 2.7V | 00:00:00 | 00:00:00 | 00:00:00 | |
| DM0DOS-11 | 2026-09-03 06:12:29 | 52.28036 | 9.39079 | 72° | 60km/h | 1870m | -6.1m/s | 7.3°C | 0% | 817.1hPa | 2.7V | 07:52:56 | 02:40:58 | 00:00:00 | |
| BIOWL1-15 | 2026-09-03 06:12:29 | 52.28041 | 9.39103 | 72° | 60km/h | 1864m | -5.6m/s | 7.3°C | 100% | 817.7hPa | 2.7V | 07:53:15 | 02:40:59 | 00:00:00 | |
| BIOWL1-15 | 2026-09-03 06:12:27 | 52.28032 | 9.39056 | 72° | 60km/h | 1876m | -6.2m/s | 7.3°C | 100% | 816.6hPa | 2.7V | 07:53:15 | 02:40:57 | 00:00:00 | |
| BIOWL7-15 | 2026-09-03 06:12:26 | 52.28032 | 9.39056 | 73° | 60km/h | 1876m | -6.2m/s | 7.3°C | 0% | 816.6hPa | 2.7V | 07:53:00 | 00:00:00 | 00:00:00 | |
| BIOWL1-15 | 2026-09-03 06:12:26 | 52.28027 | 9.39032 | 72° | 60km/h | 1882m | -6.2m/s | 7.2°C | 100% | 816hPa | 2.7V | 07:53:15 | 02:40:56 | 00:00:00 | |
| DB0DAN | 2026-09-03 06:12:25 | 52.28022 | 9.39009 | 72° | 58km/h | 1888m | -5.8m/s | 7.2°C | 100% | 815.4hPa | 2.7V | 00:00:00 | 00:00:00 | 00:00:00 | |
| BIOWL1-15 | 2026-09-03 06:12:25 | 52.28022 | 9.39009 | 72° | 60km/h | 1888m | -5.8m/s | 7.2°C | 100% | 815.4hPa | 2.7V | 07:53:15 | 02:40:55 | 00:00:00 | |
| DM0DOS-11 | 2026-09-03 06:12:23 | 52.28009 | 9.38937 | 73° | 60km/h | 1907m | -5.9m/s | 7.1°C | 0% | 813.5hPa | 2.6V | 07:53:02 | 02:40:52 | 00:00:00 | |
| DM0DOS-11 | 2026-09-03 06:12:23 | 52.28000 | 9.38890 | 72° | 60km/h | 1919m | -5.8m/s | 7.1°C | 0% | 812.5hPa | 2.7V | 07:53:04 | 02:40:50 | 00:00:00 | |
| DM0DOS-11 | 2026-09-03 06:12:23 | 52.27991 | 9.38843 | 71° | 60km/h | 1931m | -6.1m/s | 7.1°C | 0% | 811hPa | 2.7V | 07:53:06 | 02:40:48 | 00:00:00 | |
| BIOWL1-15 | 2026-09-03 06:12:23 | 52.28013 | 9.38961 | 73° | 60km/h | 1900m | -6.4m/s | 7.1°C | 100% | 814.3hPa | 2.7V | 07:53:15 | 02:40:53 | 00:00:00 | |
| BIOWL1-15 | 2026-09-03 06:12:22 | 52.28009 | 9.38937 | 73° | 60km/h | 1907m | -5.9m/s | 7.1°C | 100% | 813.5hPa | 2.6V | 07:53:15 | 02:40:52 | 00:00:00 | |
| BIOWL1-15 | 2026-09-03 06:12:20 | 52.28000 | 9.38890 | 72° | 60km/h | 1919m | -5.8m/s | 7.1°C | 100% | 812.5hPa | 2.7V | 07:53:15 | 02:40:50 | 00:00:00 | |
| BIOWL1-15 | 2026-09-03 06:12:18 | 52.27976 | 9.38772 | 72° | 60km/h | 1950m | -6.3m/s | 7.1°C | 100% | 809.4hPa | 2.7V | 07:53:15 | 02:40:45 | 00:00:00 | |
| BIOWL1-15 | 2026-09-03 06:12:18 | 52.27971 | 9.38748 | 72° | 60km/h | 1956m | -6m/s | 7.1°C | 100% | 808.7hPa | 2.7V | 07:53:15 | 02:40:44 | 00:00:00 | |
| DL3OBA | 2026-09-03 06:12:17 | 52.27991 | 9.38843 | 72° | 60km/h | 1931m | -6.1m/s | 7.1°C | 0% | 811.0hPa | 2.7V | 07:53:00 | 00:00:00 | 00:00:00 | |
| DM0DOS-11 | 2026-09-03 06:12:17 | 52.27981 | 9.38796 | 71° | 60km/h | 1943m | -6m/s | 7.1°C | 0% | 810hPa | 2.7V | 07:53:08 | 02:40:46 | 00:00:00 | |
| DM0DOS-11 | 2026-09-03 06:12:17 | 52.27971 | 9.38748 | 71° | 60km/h | 1956m | -6m/s | 7.1°C | 0% | 808.7hPa | 2.7V | 07:53:10 | 02:40:44 | 00:00:00 | |
| BIOWL1-15 | 2026-09-03 06:12:12 | 52.27952 | 9.38654 | 72° | 60km/h | 1979m | -5.8m/s | 6.9°C | 100% | 806.4hPa | 2.7V | 07:53:15 | 02:40:40 | 00:00:00 | |
| DL4XJ-10 | 2026-09-03 06:12:12 | 52.27961 | 9.38701 | 72° | 60km/h | 1968m | -5.9m/s | 8.5°C | 0% | 0hPa | 2.7V | 00:00:00 | 00:00:00 | 00:00:00 | |
| DM0DOS-11 | 2026-09-03 06:12:11 | 52.27952 | 9.38654 | 71° | 60km/h | 1979m | -5.8m/s | 6.9°C | 0% | 806.4hPa | 2.7V | 07:53:14 | 02:40:40 | 00:00:00 | |
| DM0DOS-11 | 2026-09-03 06:12:11 | 52.27943 | 9.38608 | 72° | 58km/h | 1991m | -5.6m/s | 6.9°C | 0% | 805.3hPa | 2.7V | 07:53:16 | 02:40:38 | 00:00:00 | |
| DM0DOS-11 | 2026-09-03 06:12:11 | 52.27934 | 9.38561 | 72° | 58km/h | 2002m | -5.6m/s | 6.8°C | 0% | 804.1hPa | 2.7V | 07:53:18 | 02:40:36 | 00:00:00 | |
| BIOWL1-15 | 2026-09-03 06:12:11 | 52.27947 | 9.38631 | 72° | 60km/h | 1985m | -5.3m/s | 6.9°C | 100% | 805.9hPa | 2.7V | 07:53:15 | 02:40:39 | 00:00:00 | |
| DB0DAN | 2026-09-03 06:12:10 | 52.27952 | 9.38654 | 72° | 57km/h | 1979m | -5.8m/s | 6.9°C | 100% | 806.43hPa | 2.7V | 00:00:00 | 00:00:00 | 00:00:00 | |
| BIOWL1-15 | 2026-09-03 06:12:08 | 52.27943 | 9.38608 | 72° | 58km/h | 1991m | -5.6m/s | 6.9°C | 100% | 805.3hPa | 2.7V | 07:54:06 | 02:40:38 | 00:00:00 | |
| BIOWL1-15 | 2026-09-03 06:12:07 | 52.27938 | 9.38584 | 72° | 60km/h | 1996m | -5.5m/s | 6.9°C | 100% | 804.7hPa | 2.7V | 07:54:06 | 02:40:37 | 00:00:00 | |
| BIOWL1-15 | 2026-09-03 06:11:58 | 52.27894 | 9.38328 | 76° | 58km/h | 2059m | -5.9m/s | 6.6°C | 100% | 798.7hPa | 2.7V | 07:54:06 | 02:40:26 | 00:00:00 | |
| DL3OBA | 2026-09-03 06:11:56 | 52.27898 | 9.38351 | 76° | 58km/h | 2053m | -6.1m/s | 6.6°C | 99.9% | 799.3hPa | 2.7V | 07:54:00 | 00:00:00 | 00:00:00 | |
| DM0DOS-11 | 2026-09-03 06:11:56 | 52.27895 | 9.38328 | 75° | 58km/h | 2059m | -5.8m/s | 6.6°C | 0% | 798.6hPa | 2.7V | 07:53:28 | 02:40:26 | 00:00:00 | |
| DM0DOS-11 | 2026-09-03 06:11:56 | 52.27878 | 9.38212 | 77° | 58km/h | 2087m | -6.1m/s | 6.4°C | 0% | 795.8hPa | 2.6V | 07:53:33 | 02:40:21 | 00:00:00 | |
| DB0DAN | 2026-09-03 06:11:55 | 52.27891 | 9.38305 | 77° | 55km/h | 2064m | -5.3m/s | 6.6°C | 99.9% | 798.25hPa | 2.7V | 00:00:00 | 00:00:00 | 00:00:00 | |
| DJ2DS-15 | 2026-09-03 06:11:49 | 52.27869 | 9.38142 | 77° | 57km/h | 2105m | -5.4m/s | 6.3°C | 99.5% | 794.1hPa | 2.7V | 00:00:00 | 00:00:00 | 00:00:00 | |
| BIOWL9-15 | 2026-09-03 06:11:47 | 52.27862 | 9.38096 | 76° | 55km/h | 2117m | -5.7m/s | 6.2°C | 99.6% | 793.0hPa | 2.7V | 00:00:00 | 00:00:00 | 00:00:00 | |
| DM0DOS-11 | 2026-09-03 06:11:46 | 52.27862 | 9.38096 | 76° | 57km/h | 2117m | -5.7m/s | 6.2°C | 0% | 793hPa | 2.7V | 07:53:38 | 02:40:16 | 00:00:00 | |
| DM0DOS-11 | 2026-09-03 06:11:46 | 52.27846 | 9.37982 | 76° | 57km/h | 2145m | -5.7m/s | 6°C | 0% | 790.4hPa | 2.6V | 07:53:43 | 02:40:11 | 00:00:00 | |
| BIOWL1-15 | 2026-09-03 06:11:45 | 52.27859 | 9.38073 | 77° | 57km/h | 2122m | -5.2m/s | 6.2°C | 100% | 792.3hPa | 2.7V | 07:54:06 | 02:40:15 | 00:00:00 | |
| DD8BA-10 | 2026-09-03 06:11:44 | 52.27856 | 9.38051 | 77° | 57km/h | 2128m | -5.6m/s | 6.1°C | 0% | 791.8hPa | 2.6V | 00:00:00 | 00:00:00 | 00:00:00 | |
| BIOWL7-15 | 2026-09-03 06:11:43 | 52.27856 | 9.38051 | 78° | 57km/h | 2128m | -5.7m/s | 6.2°C | 99.6% | 791.8hPa | 2.6V | 07:54:00 | 00:00:00 | 00:00:00 | |
| DL4XJ-10 | 2026-09-03 06:11:42 | 52.27849 | 9.38005 | 77° | 58km/h | 2140m | -5.6m/s | 7.5°C | 0% | 0hPa | 2.6V | 00:00:00 | 00:00:00 | 00:00:00 | |
| DM0DOS-11 | 2026-09-03 06:11:41 | 52.27830 | 9.37868 | 77° | 57km/h | 2174m | -6m/s | 5.9°C | 0% | 787.6hPa | 2.6V | 07:53:48 | 02:40:06 | 00:00:00 | |
| DM0DOS-11 | 2026-09-03 06:11:36 | 52.27814 | 9.37753 | 77° | 57km/h | 2203m | -6.5m/s | 5.7°C | 0% | 784.8hPa | 2.7V | 07:53:53 | 02:40:01 | 00:00:00 | |
| BIOWL1-15 | 2026-09-03 06:11:34 | 52.27823 | 9.37822 | 77° | 57km/h | 2185m | -5.7m/s | 5.9°C | 100% | 786.4hPa | 2.7V | 07:54:06 | 02:40:04 | 00:00:00 | |
| DD8BA-10 | 2026-09-03 06:11:32 | 52.27817 | 9.37776 | 78° | 58km/h | 2197m | -6.2m/s | 5.7°C | 0% | 785.3hPa | 2.7V | 00:00:00 | 00:00:00 | 00:00:00 | |
| DM0DOS-11 | 2026-09-03 06:11:31 | 52.27798 | 9.37636 | 76° | 60km/h | 2236m | -6.4m/s | 5.5°C | 0% | 781.6hPa | 2.7V | 07:53:58 | 02:39:56 | 00:00:00 | |
| DL1XH-west | 2026-09-03 06:11:27 | 52.27801 | 9.37659 | 77° | 58km/h | 2229m | -6.7m/s | 5.6°C | 100% | 782.1hPa | 2.7V | 07:54:57 | 02:39:57 | 00:00:00 | |
| DM0DOS-11 | 2026-09-03 06:11:26 | 52.27781 | 9.37512 | 78° | 62km/h | 2267m | -6.2m/s | 5.3°C | 0% | 778.7hPa | 2.7V | 07:54:03 | 02:39:51 | 00:00:00 | |
| BIOWL1-15 | 2026-09-03 06:11:25 | 52.27787 | 9.37562 | 77° | 62km/h | 2255m | -6.4m/s | 5.4°C | 100% | 779.7hPa | 2.6V | 07:54:06 | 02:39:53 | 00:00:00 | |
| DB0DAN | 2026-09-03 06:11:25 | 52.27794 | 9.37611 | 77° | 58km/h | 2242m | -6.4m/s | 5.5°C | 99.6% | 781.09hPa | 2.7V | 00:00:00 | 00:00:00 | 00:00:00 | |
| DD8BA-10 | 2026-09-03 06:11:22 | 52.27784 | 9.37537 | 78° | 62km/h | 2261m | -6.1m/s | 5.3°C | 0% | 779.2hPa | 2.7V | 00:00:00 | 00:00:00 | 00:00:00 | |
| DL1LOL-11 | 2026-09-03 06:11:18 | 52.27774 | 9.37462 | 80° | 62km/h | 2280m | -6.1m/s | 5.3°C | 99.4% | 777.5hPa | 2.7V | 00:00:00 | 00:00:00 | 00:00:00 | |
| DL1XH1-15 | 2026-09-03 06:11:17 | 52.27757 | 9.37312 | 79° | 60km/h | 2318m | -6.2m/s | 5°C | 0% | 774hPa | 2.7V | 07:54:11 | 02:39:43 | 00:00:00 | |
| DM0DOS-11 | 2026-09-03 06:11:16 | 52.27766 | 9.37387 | 78° | 62km/h | 2299m | -6.4m/s | 5.1°C | 0% | 775.7hPa | 2.6V | 07:54:08 | 02:39:46 | 00:00:00 | |
| DM0DOS-11 | 2026-09-03 06:11:16 | 52.27752 | 9.37262 | 80° | 62km/h | 2330m | -6m/s | 5°C | 0% | 772.6hPa | 2.7V | 07:54:13 | 02:39:41 | 00:00:00 | |
| DL1XH-west | 2026-09-03 06:11:13 | 52.27757 | 9.37312 | 80° | 60km/h | 2318m | -6.3m/s | 5°C | 100% | 774hPa | 2.7V | 07:54:57 | 02:39:43 | 00:00:00 | |
| DJ2DS-15 | 2026-09-03 06:11:13 | 52.27754 | 9.37287 | 80° | 60km/h | 2324m | -6.4m/s | 5.0°C | 99.3% | 773.2hPa | 2.7V | 00:00:00 | 00:00:00 | 00:00:00 | |
| SONCRA | 2026-09-03 06:11:12 | 52.27754 | 9.37287 | 80° | 60km/h | 2324m | -6.4m/s | 5.0°C | 99.3% | 773.2hPa | 2.7V | 00:00:00 | 00:00:00 | 00:00:00 | |
| DB0DAN | 2026-09-03 06:11:10 | 52.27749 | 9.37237 | 81° | 60km/h | 2336m | -5.9m/s | 4.9°C | 99.2% | 772.07hPa | 2.7V | 00:00:00 | 00:00:00 | 00:00:00 | |
| DD8BA-10 | 2026-09-03 06:11:09 | 52.27747 | 9.37211 | 83° | 62km/h | 2342m | -6.0m/s | 4.8°C | 0% | 771.6hPa | 2.7V | 00:00:00 | 00:00:00 | 00:00:00 | |
| DL1XH1-15 | 2026-09-03 06:11:07 | 52.27735 | 9.37060 | 84° | 62km/h | 2380m | -6.5m/s | 4.6°C | 0% | 767.9hPa | 2.7V | 07:54:21 | 02:39:33 | 00:00:00 | |
| DM0DOS-11 | 2026-09-03 06:11:06 | 52.27740 | 9.37135 | 82° | 62km/h | 2361m | -6m/s | 4.7°C | 0% | 769.8hPa | 2.7V | 07:54:18 | 02:39:36 | 00:00:00 | |
| DM0DOS-11 | 2026-09-03 06:11:06 | 52.27732 | 9.37009 | 85° | 60km/h | 2394m | -6.6m/s | 4.5°C | 0% | 766.6hPa | 2.7V | 07:54:23 | 02:39:31 | 00:00:00 | |
| BIOWL1-15 | 2026-09-03 06:11:04 | 52.27734 | 9.37034 | 85° | 62km/h | 2387m | -6.6m/s | 4.6°C | 100% | 767.4hPa | 2.7V | 07:54:57 | 02:39:32 | 00:00:00 | |
| DL1XH-west | 2026-09-03 06:11:01 | 52.27732 | 9.37009 | 85° | 60km/h | 2394m | -6.6m/s | 4.5°C | 99.9% | 766.6hPa | 2.7V | 07:54:57 | 02:39:31 | 00:00:00 | |
| DL3AQ-11 | 2026-09-03 06:10:57 | 52.27726 | 9.36859 | 86° | 60km/h | 2430m | -6.2m/s | 4.4°C | 99.0% | 763.1hPa | 2.7V | 00:00:00 | 00:00:00 | 00:00:00 | |
| DB0DAN | 2026-09-03 06:10:55 | 52.27726 | 9.36859 | 87° | 58km/h | 2430m | -6.2m/s | 4.4°C | 99% | 763.13hPa | 2.7V | 00:00:00 | 00:00:00 | 00:00:00 | |
| BIOWL1-15 | 2026-09-03 06:10:54 | 52.27724 | 9.36782 | 88° | 64km/h | 2449m | -6.3m/s | 4.6°C | 98.3% | 761.5hPa | 2.6V | 07:54:57 | 02:39:22 | 00:00:00 | |
| DL1XH1-15 | 2026-09-03 06:10:51 | 52.27724 | 9.36756 | 89° | 64km/h | 2455m | -6.2m/s | 4.7°C | 96.5% | 761.2hPa | 2.6V | 07:54:33 | 02:39:21 | 00:00:00 | |
| DM0DOS-11 | 2026-09-03 06:10:51 | 52.27725 | 9.36622 | 92° | 64km/h | 2487m | -6.1m/s | 4.8°C | 89.4% | 758.1hPa | 2.7V | 07:54:38 | 02:39:16 | 00:00:00 | |
| DL1XH-west | 2026-09-03 06:10:51 | 52.27724 | 9.36756 | 89° | 64km/h | 2455m | -6.2m/s | 4.7°C | 95.2% | 761.2hPa | 2.6V | 07:54:57 | 02:39:21 | 00:00:00 | |
| DL8OAI-8 | 2026-09-03 06:10:50 | 52.27724 | 9.36756 | 90° | 64km/h | 2455m | -6.2m/s | 4.7°C | 94.4% | 761.2hPa | 2.7V | 07:54:00 | 00:00:00 | 00:00:00 | |
| DD8BA-10 | 2026-09-03 06:10:49 | 52.27724 | 9.36702 | 92° | 66km/h | 2468m | -6.2m/s | 4.8°C | 90.1% | 759.6hPa | 2.7V | 00:00:00 | 00:00:00 | 00:00:00 | |
| DL1XH1-15 | 2026-09-03 06:10:46 | 52.27727 | 9.36488 | 90° | 66km/h | 2518m | -6.4m/s | 5.3°C | 68.1% | 755.2hPa | 2.7V | 07:54:43 | 02:39:11 | 00:00:00 | |
| DL3AQ-11 | 2026-09-03 06:10:46 | 52.27726 | 9.36595 | 92° | 64km/h | 2493m | -6.2m/s | 4.8°C | 86.7% | 757.5hPa | 2.7V | 00:00:00 | 00:00:00 | 00:00:00 | |
| BIOWL9-15 | 2026-09-03 06:10:45 | 52.27726 | 9.36569 | 91° | 64km/h | 2499m | -6.3m/s | 4.8°C | 84.0% | 756.6hPa | 2.7V | 00:00:00 | 00:00:00 | 00:00:00 | |
| BIOWL1-15 | 2026-09-03 06:10:41 | 52.27727 | 9.36488 | 91° | 66km/h | 2518m | -6.4m/s | 5.3°C | 71.5% | 755.2hPa | 2.7V | 07:54:57 | 02:39:11 | 00:00:00 | |
| DB0DAN | 2026-09-03 06:10:40 | 52.27727 | 9.36461 | 91° | 62km/h | 2524m | -6.3m/s | 5.4°C | 61.3% | 754.56hPa | 2.7V | 00:00:00 | 00:00:00 | 00:00:00 | |
| DL1XH-west | 2026-09-03 06:10:40 | 52.27727 | 9.36461 | 91° | 66km/h | 2524m | -6.3m/s | 5.4°C | 66.5% | 754.6hPa | 2.7V | 07:54:57 | 02:39:10 | 00:00:00 | |
| DD8BA-10 | 2026-09-03 06:10:39 | 52.27727 | 9.36434 | 92° | 64km/h | 2530m | -5.7m/s | 5.5°C | 54.6% | 753.9hPa | 2.7V | 07:54:00 | 00:00:00 | 00:00:00 | |
| DJ2DS-15 | 2026-09-03 06:10:37 | 52.27729 | 9.36354 | 91° | 64km/h | 2547m | -5.9m/s | 5.5°C | 52.9% | 752.5hPa | 2.7V | 00:00:00 | 00:00:00 | 00:00:00 | |
| DM0DOS-11 | 2026-09-03 06:10:36 | 52.27731 | 9.36222 | 91° | 64km/h | 2578m | -6.3m/s | 5.5°C | 58.3% | 749.4hPa | 2.7V | 07:54:53 | 02:39:01 | 00:00:00 | |
| BIOWL1-15 | 2026-09-03 06:10:33 | 52.27731 | 9.36222 | 92° | 64km/h | 2578m | -6.3m/s | 5.5°C | 62.9% | 749.5hPa | 2.7V | 07:54:57 | 02:39:01 | 00:00:00 | |
| DL1XH-west | 2026-09-03 06:10:29 | 52.27732 | 9.36170 | 92° | 64km/h | 2590m | -5.9m/s | 5.5°C | 64.6% | 748.5hPa | 2.7V | 07:54:57 | 02:38:59 | 00:00:00 | |
| DD8BA-10 | 2026-09-03 06:10:29 | 52.27732 | 9.36170 | 92° | 62km/h | 2590m | -5.8m/s | 5.5°C | 60.2% | 748.5hPa | 2.7V | 00:00:00 | 00:00:00 | 00:00:00 | |
| DL1CLM-18 | 2026-09-03 06:10:27 | 52.27732 | 9.36144 | 93° | 62km/h | 2596m | -5.6m/s | 5.5°C | 59.2% | 747.7hPa | 2.7V | 07:54:00 | 00:00:00 | 00:00:00 | |
| DB0DAN | 2026-09-03 06:10:25 | 52.27735 | 9.36067 | 94° | 60km/h | 2613m | -5.7m/s | 5.4°C | 57.6% | 746.26hPa | 2.7V | 00:00:00 | 00:00:00 | 00:00:00 | |
| DM0DOS-11 | 2026-09-03 06:10:21 | 52.27739 | 9.35963 | 94° | 62km/h | 2637m | -6.2m/s | 5.3°C | 63% | 744.2hPa | 2.7V | 07:55:03 | 02:38:51 | 00:00:00 | |
| DL1XH1-15 | 2026-09-03 06:10:21 | 52.27746 | 9.35835 | 95° | 62km/h | 2668m | -6m/s | 5.1°C | 71% | 741.3hPa | 2.6V | 07:55:08 | 02:38:46 | 00:00:00 | |
| BIOWL1-15 | 2026-09-03 06:10:20 | 52.27741 | 9.35937 | 94° | 62km/h | 2643m | -6.9m/s | 5.2°C | 70.3% | 743.6hPa | 2.7V | 07:55:48 | 02:38:50 | 00:00:00 | |
| DL1XH-west | 2026-09-03 06:10:18 | 52.27743 | 9.35886 | 94° | 62km/h | 2656m | -6.1m/s | 5.1°C | 71.5% | 742.3hPa | 2.7V | 07:55:48 | 02:38:48 | 00:00:00 | |
| DL3AQ-11 | 2026-09-03 06:10:17 | 52.27746 | 9.35835 | 95° | 60km/h | 2668m | -6.0m/s | 5.1°C | 69.4% | 741.3hPa | 2.7V | 00:00:00 | 00:00:00 | 00:00:00 | |
| DL1XH1-15 | 2026-09-03 06:10:16 | 52.27755 | 9.35708 | 96° | 62km/h | 2699m | -6.1m/s | 4.9°C | 72.1% | 738.6hPa | 2.7V | 07:55:13 | 02:38:41 | 00:00:00 | |
| DL3OBA | 2026-09-03 06:10:15 | 52.27746 | 9.35835 | 96° | 62km/h | 2668m | -6.0m/s | 5.1°C | 69.4% | 741.3hPa | 2.7V | 07:55:00 | 00:00:00 | 00:00:00 | |
| BIOWL9-15 | 2026-09-03 06:10:14 | 52.27751 | 9.35759 | 97° | 62km/h | 2686m | -6.5m/s | 5.1°C | 69.7% | 739.9hPa | 2.7V | 00:00:00 | 00:00:00 | 00:00:00 | |
| DL1CLM-18 | 2026-09-03 06:10:11 | 52.27753 | 9.35734 | 97° | 62km/h | 2693m | -6.3m/s | 5.0°C | 69.9% | 739.2hPa | 2.7V | 07:55:00 | 00:00:00 | 00:00:00 | |
| DB0DAN | 2026-09-03 06:10:10 | 52.27757 | 9.35682 | 96° | 60km/h | 2705m | -6.5m/s | 4.9°C | 71.4% | 738.17hPa | 2.7V | 00:00:00 | 00:00:00 | 00:00:00 | |
| BIOWL1-15 | 2026-09-03 06:10:10 | 52.27757 | 9.35682 | 96° | 64km/h | 2705m | -6.5m/s | 4.9°C | 78.4% | 738.2hPa | 2.7V | 07:55:48 | 02:38:40 | 00:00:00 | |
| DL1XH-west | 2026-09-03 06:10:08 | 52.27760 | 9.35631 | 97° | 64km/h | 2719m | -6.3m/s | 4.8°C | 79.6% | 736.9hPa | 2.6V | 07:55:48 | 02:38:38 | 00:00:00 | |
| DL1XH1-15 | 2026-09-03 06:10:07 | 52.27764 | 9.35579 | 95° | 64km/h | 2731m | -6.9m/s | 4.7°C | 75% | 735.7hPa | 2.7V | 07:55:18 | 02:38:36 | 00:00:00 | |
| DL1XH1-15 | 2026-09-03 06:10:01 | 52.27772 | 9.35450 | 95° | 62km/h | 2764m | -6m/s | 4.4°C | 75.8% | 732.8hPa | 2.7V | 07:55:23 | 02:38:31 | 00:00:00 | |
| BIOWL1-15 | 2026-09-03 06:09:59 | 52.27775 | 9.35398 | 96° | 62km/h | 2777m | -6.8m/s | 4.3°C | 81.8% | 731.6hPa | 2.7V | 07:55:48 | 02:38:29 | 00:00:00 | |
| DL1XH-west | 2026-09-03 06:09:57 | 52.27778 | 9.35347 | 96° | 62km/h | 2790m | -6.6m/s | 4.2°C | 82.2% | 730.4hPa | 2.6V | 07:55:48 | 02:38:27 | 00:00:00 | |
| DM0DOS-11 | 2026-09-03 06:09:57 | 52.27779 | 9.35322 | 96° | 60km/h | 2796m | -6.5m/s | 4.2°C | 77% | 730hPa | 2.7V | 07:55:28 | 02:38:26 | 00:00:00 | |
| DB0DAN | 2026-09-03 06:09:55 | 52.27781 | 9.35297 | 95° | 58km/h | 2803m | -6.7m/s | 4.1°C | 75.2% | 729.21hPa | 2.7V | 00:00:00 | 00:00:00 | 00:00:00 | |
| BUE01 | 2026-09-03 06:09:55 | 52.27782 | 9.35272 | 95° | 60km/h | 2809m | -6.5m/s | 4.1°C | 75.0% | 728.7hPa | 2.6V | 00:00:00 | 00:00:00 | 00:00:00 | |
| DL3OBA | 2026-09-03 06:09:54 | 52.27781 | 9.35297 | 96° | 62km/h | 2803m | -6.7m/s | 4.1°C | 75.2% | 729.2hPa | 2.6V | 07:55:00 | 00:00:00 | 00:00:00 | |
| DM0DOS-11 | 2026-09-03 06:09:51 | 52.27787 | 9.35195 | 95° | 62km/h | 2829m | -6.9m/s | 3.9°C | 77.3% | 727hPa | 2.6V | 07:55:33 | 02:38:21 | 00:00:00 | |
| BIOWL1-15 | 2026-09-03 06:09:48 | 52.27792 | 9.35120 | 96° | 62km/h | 2850m | -6.9m/s | 3.8°C | 82.5% | 725.1hPa | 2.7V | 07:55:48 | 02:38:18 | 00:00:00 | |
| DL1XH1-15 | 2026-09-03 06:09:47 | 52.27795 | 9.35069 | 96° | 62km/h | 2862m | -6.5m/s | 3.6°C | 77% | 723.8hPa | 2.7V | 07:55:38 | 02:38:16 | 00:00:00 | |
| DL1XH-west | 2026-09-03 06:09:47 | 52.27793 | 9.35094 | 96° | 60km/h | 2856m | -6.1m/s | 3.7°C | 82.3% | 724.5hPa | 2.7V | 07:55:48 | 02:38:17 | 00:00:00 | |
| DL1XH1-15 | 2026-09-03 06:09:41 | 52.27804 | 9.34943 | 96° | 60km/h | 2895m | -6.6m/s | 3.4°C | 76.9% | 721hPa | 2.7V | 07:55:43 | 02:38:11 | 00:00:00 | |
| DM0DOS-11 | 2026-09-03 06:09:41 | 52.27812 | 9.34820 | 96° | 58km/h | 2928m | -6.7m/s | 3°C | 77.9% | 718.1hPa | 2.6V | 07:55:48 | 02:38:06 | 00:00:00 | |
| DB0DAN | 2026-09-03 06:09:40 | 52.27806 | 9.34918 | 96° | 58km/h | 2902m | -6.4m/s | 3.3°C | 75.2% | 720.46hPa | 2.7V | 00:00:00 | 00:00:00 | 00:00:00 | |
| BIOWL1-15 | 2026-09-03 06:09:37 | 52.27810 | 9.34844 | 96° | 60km/h | 2921m | -6.6m/s | 3.1°C | 82.8% | 718.7hPa | 2.7V | 07:55:48 | 02:38:07 | 00:00:00 | |
| DL3AQ-11 | 2026-09-03 06:09:36 | 52.27812 | 9.34820 | 96° | 58km/h | 2928m | -6.7m/s | 3.1°C | 76.1% | 718.1hPa | 2.7V | 00:00:00 | 00:00:00 | 00:00:00 | |
| DL3OBA | 2026-09-03 06:09:33 | 52.27815 | 9.34770 | 98° | 60km/h | 2941m | -6.5m/s | 2.9°C | 76.7% | 716.9hPa | 2.7V | 07:56:00 | 00:00:00 | 00:00:00 | |
| DK9SH | 2026-09-03 06:09:32 | 52.27819 | 9.34721 | 98° | 60km/h | 2955m | -6.6m/s | 2.8°C | 76.1% | 715.8hPa | 2.7V | 07:56:00 | 00:00:00 | 00:00:00 | |
| DM0DOS-11 | 2026-09-03 06:09:31 | 52.27831 | 9.34572 | 97° | 60km/h | 2996m | -6.7m/s | 2.5°C | 78.2% | 712.4hPa | 2.7V | 07:55:58 | 02:37:56 | 00:00:00 | |
| BIOWL1-15 | 2026-09-03 06:09:29 | 52.27829 | 9.34597 | 98° | 60km/h | 2989m | -6.9m/s | 2.5°C | 83.3% | 713hPa | 2.7V | 07:56:39 | 02:37:57 | 00:00:00 | |
| DL1XH-west | 2026-09-03 06:09:26 | 52.27831 | 9.34572 | 98° | 60km/h | 2996m | -6.7m/s | 2.5°C | 83.4% | 712.4hPa | 2.7V | 07:56:39 | 02:37:56 | 00:00:00 | |
| DB0DAN | 2026-09-03 06:09:25 | 52.27833 | 9.34547 | 98° | 58km/h | 3002m | -6.5m/s | 2.4°C | 76.8% | 711.6hPa | 2.7V | 00:00:00 | 00:00:00 | 00:00:00 | |
| BIOWL1-15 | 2026-09-03 06:09:18 | 52.27854 | 9.34322 | 100° | 62km/h | 3062m | -6.8m/s | 1.9°C | 83.9% | 706.4hPa | 2.7V | 07:56:39 | 02:37:46 | 00:00:00 | |
| DL1XH1-15 | 2026-09-03 06:09:16 | 52.27854 | 9.34322 | 99° | 62km/h | 3062m | -6.8m/s | 1.9°C | 78.9% | 706.4hPa | 2.7V | 07:56:08 | 02:37:46 | 00:00:00 | |
| DM0DOS-11 | 2026-09-03 06:09:16 | 52.27868 | 9.34198 | 101° | 60km/h | 3096m | -6.6m/s | 1.6°C | 79.3% | 703.4hPa | 2.7V | 07:56:13 | 02:37:41 | 00:00:00 | |
| DL1XH-west | 2026-09-03 06:09:15 | 52.27856 | 9.34298 | 99° | 60km/h | 3069m | -6.5m/s | 1.8°C | 83.8% | 705.8hPa | 2.6V | 07:56:39 | 02:37:45 | 00:00:00 | |
| DL3OBA | 2026-09-03 06:09:13 | 52.27859 | 9.34273 | 101° | 62km/h | 3076m | -6.5m/s | 1.7°C | 77.2% | 705.3hPa | 2.7V | 07:56:00 | 00:00:00 | 00:00:00 | |
| DB0DAN | 2026-09-03 06:09:10 | 52.27871 | 9.34173 | 101° | 60km/h | 3103m | -6.5m/s | 1.5°C | 77.3% | 702.82hPa | 2.7V | 00:00:00 | 00:00:00 | 00:00:00 | |
| DL3AQ-11 | 2026-09-03 06:09:10 | 52.27874 | 9.34148 | 102° | 60km/h | 3109m | -6.7m/s | 1.5°C | 77.3% | 702.2hPa | 2.7V | 00:00:00 | 00:00:00 | 00:00:00 | |
| DD8BA-10 | 2026-09-03 06:09:09 | 52.27874 | 9.34148 | 103° | 64km/h | 3109m | -6.6m/s | 1.4°C | 79.3% | 702.1hPa | 2.7V | 00:00:00 | 00:00:00 | 00:00:00 | |
| DL4BBY-15 | 2026-09-03 06:09:08 | 52.27878 | 9.34123 | 104° | 66km/h | 3116m | -6.7m/s | 2.8°C | 0% | 0hPa | 2.7V | 00:00:00 | 00:00:00 | 00:00:00 | |
| DL8OAI-8 | 2026-09-03 06:09:07 | 52.27877 | 9.34123 | 104° | 62km/h | 3116m | -6.8m/s | 1.4°C | 77.4% | 701.7hPa | 2.7V | 07:56:00 | 00:00:00 | 00:00:00 | |
| DL1XH1-15 | 2026-09-03 06:09:06 | 52.27885 | 9.34072 | 104° | 64km/h | 3129m | -6.6m/s | 1.3°C | 79.1% | 700.4hPa | 2.7V | 07:56:18 | 02:37:36 | 00:00:00 | |
| DL1XH1-15 | 2026-09-03 06:09:06 | 52.27905 | 9.33945 | 104° | 64km/h | 3163m | -6.9m/s | 1.1°C | 79% | 697.7hPa | 2.6V | 07:56:23 | 02:37:31 | 00:00:00 | |
| DL1XH-west | 2026-09-03 06:09:05 | 52.27889 | 9.34047 | 104° | 64km/h | 3136m | -6.7m/s | 1.3°C | 83.6% | 700hPa | 2.7V | 07:56:39 | 02:37:35 | 00:00:00 | |
| DF8AY | 2026-09-03 06:09:03 | 52.27897 | 9.33996 | 105° | 64km/h | 3149m | -6.6m/s | 1.2°C | 83.4% | 698.6hPa | 2.7V | 07:56:39 | 02:37:33 | 00:00:00 | |
| DL4XJ-10 | 2026-09-03 06:09:02 | 52.27901 | 9.33970 | 105° | 66km/h | 3156m | -6.7m/s | 2.6°C | 0% | 0hPa | 2.7V | 00:00:00 | 00:00:00 | 00:00:00 | |
| DL1LOL-11 | 2026-09-03 06:09:01 | 52.27901 | 9.33970 | 105° | 64km/h | 3156m | -6.7m/s | 1.2°C | 76.5% | 698.1hPa | 2.7V | 07:56:00 | 00:00:00 | 00:00:00 | |
| DL3AQ-11 | 2026-09-03 06:08:57 | 52.27944 | 9.33690 | 103° | 66km/h | 3229m | -6.4m/s | 0.6°C | 91.3% | 691.9hPa | 2.7V | 00:00:00 | 00:00:00 | 00:00:00 | |
| DL1XH1-15 | 2026-09-03 06:08:56 | 52.27924 | 9.33819 | 103° | 62km/h | 3196m | -6.2m/s | 0.8°C | 87.8% | 694.5hPa | 2.7V | 07:56:28 | 02:37:26 | 00:00:00 | |
| DM0DOS-11 | 2026-09-03 06:08:56 | 52.27944 | 9.33690 | 103° | 66km/h | 3229m | -6.4m/s | 0.6°C | 93.6% | 691.9hPa | 2.7V | 07:56:33 | 02:37:21 | 00:00:00 | |
| DB0DAN | 2026-09-03 06:08:55 | 52.27928 | 9.33793 | 104° | 60km/h | 3203m | -6.5m/s | 0.8°C | 87.2% | 694.02hPa | 2.6V | 00:00:00 | 00:00:00 | 00:00:00 | |
| DL1XH-west | 2026-09-03 06:08:54 | 52.27932 | 9.33768 | 104° | 64km/h | 3209m | -6.4m/s | 0.7°C | 93.5% | 693.5hPa | 2.6V | 07:56:39 | 02:37:24 | 00:00:00 | |
| DL3OBA | 2026-09-03 06:08:53 | 52.27936 | 9.33742 | 105° | 66km/h | 3216m | -6.3m/s | 0.7°C | 89.3% | 693.0hPa | 2.6V | 07:56:00 | 00:00:00 | 00:00:00 | |
| DL1XH1-15 | 2026-09-03 06:08:51 | 52.27963 | 9.33556 | 102° | 68km/h | 3261m | -6.6m/s | 0.4°C | 93.2% | 689hPa | 2.6V | 07:56:38 | 02:37:16 | 00:00:00 | |
| DJ2DS-15 | 2026-09-03 06:08:48 | 52.27956 | 9.33610 | 103° | 66km/h | 3248m | -6.3m/s | 0.5°C | 91.5% | 690.1hPa | 2.6V | 00:00:00 | 00:00:00 | 00:00:00 | |
| DL8OAI-8 | 2026-09-03 06:08:47 | 52.27956 | 9.33610 | 104° | 66km/h | 3249m | -6.3m/s | 0.5°C | 91.5% | 690.2hPa | 2.6V | 07:56:00 | 00:00:00 | 00:00:00 | |
| DL1XH1-15 | 2026-09-03 06:08:46 | 52.27980 | 9.33419 | 101° | 69km/h | 3294m | -6.1m/s | 0.2°C | 88.9% | 686.3hPa | 2.6V | 07:56:43 | 02:37:11 | 00:00:00 | |
| DL3AQ-11 | 2026-09-03 06:08:46 | 52.27966 | 9.33529 | 101° | 66km/h | 3268m | -6.6m/s | 0.4°C | 90.4% | 688.5hPa | 2.7V | 00:00:00 | 00:00:00 | 00:00:00 | |
| DL1XH-15 | 2026-09-03 06:08:44 | 52.27970 | 9.33501 | 102° | 68km/h | 3274m | -6.4m/s | 0.3°C | 91.6% | 687.9hPa | 2.7V | 07:56:40 | 02:37:14 | 00:00:00 | |
| BIOWL1-15 | 2026-09-03 06:08:44 | 52.27970 | 9.33501 | 102° | 68km/h | 3274m | -6.4m/s | 0.3°C | 94.5% | 687.9hPa | 2.7V | 07:57:30 | 02:37:14 | 00:00:00 | |
| DL1XH-west | 2026-09-03 06:08:43 | 52.27973 | 9.33474 | 101° | 68km/h | 3281m | -6.4m/s | 0.3°C | 93.1% | 687.4hPa | 2.7V | 07:57:30 | 02:37:13 | 00:00:00 | |
| DF8AY | 2026-09-03 06:08:41 | 52.27980 | 9.33419 | 102° | 69km/h | 3294m | -6.1m/s | 0.2°C | 91.6% | 686.4hPa | 2.6V | 08:00:03 | 02:37:11 | 00:00:00 | |
| DB0DAN | 2026-09-03 06:08:40 | 52.27984 | 9.33391 | 102° | 66km/h | 3300m | -6.5m/s | 0.2°C | 84.2% | 685.74hPa | 2.6V | 00:00:00 | 00:00:00 | 00:00:00 | |
| DL1XH-15 | 2026-09-03 06:08:39 | 52.28004 | 9.33224 | 101° | 69km/h | 3340m | -6.9m/s | -0.1°C | 85.7% | 682.5hPa | 2.6V | 07:56:50 | 02:37:04 | 00:00:00 | |
| DD8BA-10 | 2026-09-03 06:08:39 | 52.27987 | 9.33363 | 102° | 69km/h | 3306m | -6.3m/s | 0.0°C | 89.2% | 685.1hPa | 2.6V | 00:00:00 | 00:00:00 | 00:00:00 | |
| DL4BBY-15 | 2026-09-03 06:08:38 | 52.27991 | 9.33335 | 103° | 68km/h | 3313m | -6.5m/s | 1.5°C | 0% | 0hPa | 2.6V | 00:00:00 | 00:00:00 | 00:00:00 | |
| DM0DOS-11 | 2026-09-03 06:08:36 | 52.27998 | 9.33280 | 101° | 69km/h | 3326m | -6.7m/s | -0°C | 91.9% | 683.6hPa | 2.6V | 07:56:48 | 02:37:06 | 00:00:00 | |
| BIOWL1-15 | 2026-09-03 06:08:34 | 52.28005 | 9.33224 | 102° | 69km/h | 3340m | -6.9m/s | -0.1°C | 88.9% | 682.5hPa | 2.6V | 07:57:30 | 02:37:04 | 00:00:00 | |
| DL1XH-15 | 2026-09-03 06:08:33 | 52.28027 | 9.33057 | 102° | 69km/h | 3379m | -6.5m/s | -0.4°C | 88.2% | 679.1hPa | 2.6V | 07:56:56 | 02:36:58 | 00:00:00 | |
| DL1XH-west | 2026-09-03 06:08:33 | 52.28008 | 9.33196 | 101° | 69km/h | 3347m | -6.7m/s | -0.1°C | 90.1% | 681.8hPa | 2.6V | 07:57:30 | 02:37:03 | 00:00:00 | |
| DF8AY | 2026-09-03 06:08:31 | 52.28015 | 9.33140 | 102° | 69km/h | 3360m | -6.5m/s | -0.2°C | 90.1% | 680.7hPa | 2.6V | 08:00:03 | 02:37:01 | 00:00:00 | |
| DL3AQ-11 | 2026-09-03 06:08:30 | 52.28023 | 9.33085 | 102° | 69km/h | 3373m | -6.6m/s | -0.3°C | 83.7% | 679.6hPa | 2.6V | 00:00:00 | 00:00:00 | 00:00:00 | |
| DD8BA-10 | 2026-09-03 06:08:29 | 52.28023 | 9.33084 | 103° | 69km/h | 3373m | -6.5m/s | -0.3°C | 85.9% | 679.6hPa | 2.6V | 00:00:00 | 00:00:00 | 00:00:00 | |
| DL1XH-15 | 2026-09-03 06:08:27 | 52.28048 | 9.32889 | 101° | 69km/h | 3419m | -6.6m/s | -0.5°C | 73.8% | 675.8hPa | 2.6V | 07:57:02 | 02:36:52 | 00:00:00 | |
| DM0DOS-11 | 2026-09-03 06:08:26 | 52.28034 | 9.33001 | 102° | 69km/h | 3392m | -6.6m/s | -0.4°C | 82.2% | 677.8hPa | 2.6V | 07:56:58 | 02:36:56 | 00:00:00 | |
| DM0DOS-11 | 2026-09-03 06:08:26 | 52.28051 | 9.32861 | 101° | 68km/h | 3426m | -6.8m/s | -0.6°C | 71.2% | 675.2hPa | 2.6V | 07:57:03 | 02:36:51 | 00:00:00 | |
| DB0DAN | 2026-09-03 06:08:25 | 52.28038 | 9.32973 | 102° | 66km/h | 3399m | -6.6m/s | -0.5°C | 77.9% | 677.39hPa | 2.6V | 00:00:00 | 00:00:00 | 00:00:00 | |
| DL1XH-west | 2026-09-03 06:08:23 | 52.28044 | 9.32917 | 102° | 69km/h | 3413m | -6.8m/s | -0.5°C | 81.2% | 676.2hPa | 2.6V | 07:57:30 | 02:36:53 | 00:00:00 | |
| DL1XH-15 | 2026-09-03 06:08:22 | 52.28065 | 9.32751 | 101° | 68km/h | 3452m | -6.4m/s | -0.7°C | 73.9% | 672.8hPa | 2.6V | 07:57:07 | 02:36:47 | 00:00:00 | |
| DL4XJ-10 | 2026-09-03 06:08:22 | 52.28048 | 9.32889 | 102° | 68km/h | 3420m | -6.6m/s | 0.9°C | 0% | 0hPa | 2.6V | 00:00:00 | 00:00:00 | 00:00:00 | |
| BUE01 | 2026-09-03 06:08:21 | 52.28051 | 9.32861 | 101° | 68km/h | 3426m | -6.8m/s | -0.6°C | 69.3% | 675.2hPa | 2.6V | 00:00:00 | 00:00:00 | 00:00:00 | |
| DJ2DS-15 | 2026-09-03 06:08:19 | 52.28058 | 9.32806 | 102° | 68km/h | 3439m | -6.3m/s | -0.6°C | 74.6% | 674.0hPa | 2.6V | 00:00:00 | 02:36:49 | 00:00:00 | |
| DL1XH1-15 | 2026-09-03 06:08:16 | 52.28069 | 9.32724 | 102° | 68km/h | 3458m | -6.5m/s | -0.7°C | 72.4% | 672.1hPa | 2.6V | 07:57:08 | 02:36:46 | 00:00:00 | |
| DM0DOS-11 | 2026-09-03 06:08:16 | 52.28086 | 9.32588 | 101° | 66km/h | 3491m | -7m/s | -0.8°C | 55.3% | 669.5hPa | 2.6V | 07:57:13 | 02:36:41 | 00:00:00 | |
| DF8AY | 2026-09-03 06:08:15 | 52.28072 | 9.32696 | 102° | 68km/h | 3465m | -6.5m/s | -0.8°C | 71.6% | 671.7hPa | 2.6V | 08:00:03 | 02:36:45 | 00:00:00 | |
| DL1XH-west | 2026-09-03 06:08:13 | 52.28079 | 9.32642 | 102° | 68km/h | 3478m | -6.7m/s | -0.8°C | 66.2% | 670.5hPa | 2.6V | 07:57:30 | 02:36:43 | 00:00:00 | |
| DL1XH-15 | 2026-09-03 06:08:12 | 52.28083 | 9.32615 | 101° | 66km/h | 3484m | -6.8m/s | -0.8°C | 59.8% | 670hPa | 2.6V | 07:57:12 | 02:36:42 | 00:00:00 | |
| DL3OBA | 2026-09-03 06:08:11 | 52.28082 | 9.32615 | 103° | 66km/h | 3485m | -6.8m/s | -0.8°C | 58.2% | 670.0hPa | 2.6V | 07:57:00 | 00:00:00 | 00:00:00 | |
| DB0DAN | 2026-09-03 06:08:10 | 52.28089 | 9.32562 | 102° | 64km/h | 3498m | -6.8m/s | -0.8°C | 48.8% | 668.9hPa | 2.6V | 00:00:00 | 00:00:00 | 00:00:00 | |
| DD8BA-10 | 2026-09-03 06:08:09 | 52.28092 | 9.32535 | 102° | 68km/h | 3505m | -7.0m/s | -0.8°C | 48.5% | 668.3hPa | 2.6V | 00:00:00 | 00:00:00 | 00:00:00 | |
| DL4BBY-15 | 2026-09-03 06:08:08 | 52.28096 | 9.32508 | 102° | 68km/h | 3513m | -6.8m/s | 0.5°C | 0% | 0hPa | 2.6V | 00:00:00 | 00:00:00 | 00:00:00 | |
| DL1XH1-15 | 2026-09-03 06:08:07 | 52.28103 | 9.32454 | 102° | 68km/h | 3526m | -6.9m/s | -1°C | 50.8% | 666.6hPa | 2.6V | 07:57:18 | 02:36:36 | 00:00:00 | |
| SONCRA | 2026-09-03 06:08:06 | 52.28103 | 9.32454 | 102° | 68km/h | 3526m | -6.9m/s | -1.0°C | 49.4% | 666.6hPa | 2.6V | 00:00:00 | 00:00:00 | 00:00:00 | |
| DL3AQ-11 | 2026-09-03 06:08:05 | 52.28107 | 9.32426 | 101° | 66km/h | 3533m | -6.7m/s | -1.1°C | 50.0% | 666.0hPa | 2.6V | 00:00:00 | 00:00:00 | 00:00:00 | |
| DL1XH-15 | 2026-09-03 06:08:02 | 52.28118 | 9.32345 | 102° | 68km/h | 3552m | -6.5m/s | -1.2°C | 48.4% | 664.4hPa | 2.6V | 07:57:22 | 02:36:32 | 00:00:00 | |
| BIOWL1-15 | 2026-09-03 06:08:02 | 52.28118 | 9.32345 | 103° | 68km/h | 3553m | -6.5m/s | -1.2°C | 52.2% | 664.4hPa | 2.6V | 07:57:30 | 02:36:32 | 00:00:00 | |
| DL1XH1-15 | 2026-09-03 06:08:01 | 52.28122 | 9.32318 | 102° | 68km/h | 3559m | -6.7m/s | -1.2°C | 47.6% | 663.8hPa | 2.6V | 07:57:23 | 02:36:31 | 00:00:00 | |
| DL1CLM-18 | 2026-09-03 06:08:00 | 52.28121 | 9.32318 | 104° | 68km/h | 3559m | -6.7m/s | -1.2°C | 46.3% | 663.8hPa | 2.6V | 07:57:00 | 00:00:00 | 00:00:00 | |
| DD1CC3-15 | 2026-09-03 06:07:59 | 52.28129 | 9.32264 | 104° | 68km/h | 3573m | -6.7m/s | -1.3°C | 46.2% | 662.6hPa | 2.6V | 00:00:00 | 00:00:00 | 00:00:00 | |
| DL1XH1-15 | 2026-09-03 06:07:55 | 52.28160 | 9.32016 | 100° | 69km/h | 3634m | -6.9m/s | -1.6°C | 44.9% | 657.5hPa | 2.6V | 07:57:34 | 02:36:20 | 00:00:00 | |
| DB0DAN | 2026-09-03 06:07:55 | 52.28143 | 9.32155 | 102° | 66km/h | 3600m | -6.9m/s | -1.5°C | 47.6% | 660.29hPa | 2.6V | 00:00:00 | 00:00:00 | 00:00:00 | |
| DL1XH-west | 2026-09-03 06:07:51 | 52.28157 | 9.32044 | 101° | 69km/h | 3627m | -7m/s | -1.6°C | 48.7% | 658.2hPa | 2.6V | 07:58:21 | 02:36:21 | 00:00:00 | |
| BUE01 | 2026-09-03 06:07:50 | 52.28160 | 9.32016 | 100° | 68km/h | 3634m | -6.9m/s | -1.6°C | 43.7% | 657.5hPa | 2.6V | 00:00:00 | 00:00:00 | 00:00:00 | |
| DL1XH1-15 | 2026-09-03 06:07:45 | 52.28175 | 9.31874 | 98° | 71km/h | 3669m | -7m/s | -1.5°C | 31.6% | 654.8hPa | 2.6V | 07:57:39 | 02:36:15 | 00:00:00 | |
| DL1XH1-15 | 2026-09-03 06:07:45 | 52.28188 | 9.31732 | 98° | 69km/h | 3703m | -7.2m/s | -1.2°C | 11.1% | 652.1hPa | 2.6V | 07:57:44 | 02:36:10 | 00:00:00 | |
| DL1XH-west | 2026-09-03 06:07:41 | 52.28186 | 9.31760 | 99° | 69km/h | 3696m | -6.9m/s | -1.3°C | 18.8% | 652.5hPa | 2.6V | 07:58:21 | 02:36:11 | 00:00:00 | |
| BIOWL1-15 | 2026-09-03 06:07:40 | 52.28188 | 9.31732 | 99° | 69km/h | 3703m | -7.2m/s | -1.2°C | 11.8% | 652.1hPa | 2.6V | 07:58:21 | 02:36:10 | 00:00:00 | |
| DB0DAN | 2026-09-03 06:07:40 | 52.28188 | 9.31732 | 99° | 66km/h | 3703m | -7.2m/s | -1.2°C | 10.8% | 652.08hPa | 2.6V | 00:00:00 | 00:00:00 | 00:00:00 | |
| DL1XH-15 | 2026-09-03 06:07:39 | 52.28191 | 9.31704 | 99° | 69km/h | 3710m | -7.2m/s | -1.2°C | 9.4% | 651.4hPa | 2.6V | 07:57:45 | 02:36:09 | 00:00:00 | |
| DL1XH-15 | 2026-09-03 06:07:39 | 52.28208 | 9.31539 | 100° | 66km/h | 3752m | -7m/s | -1.2°C | 12.5% | 648hPa | 2.6V | 07:57:51 | 02:36:03 | 00:00:00 | |
| BIOWL9-15 | 2026-09-03 06:07:39 | 52.28194 | 9.31676 | 99° | 68km/h | 3717m | -7.1m/s | -1.2°C | 10.5% | 650.9hPa | 2.6V | 00:00:00 | 00:00:00 | 00:00:00 | |
| DL3AQ-11 | 2026-09-03 06:07:37 | 52.28199 | 9.31621 | 100° | 68km/h | 3731m | -6.8m/s | -1.1°C | 12.4% | 649.7hPa | 2.6V | 00:00:00 | 00:00:00 | 00:00:00 | |
| DJ2DS-15 | 2026-09-03 06:07:36 | 52.28199 | 9.31621 | 100° | 68km/h | 3731m | -6.8m/s | -1.1°C | 12.4% | 649.7hPa | 2.6V | 00:00:00 | 00:00:00 | 00:00:00 | |
| DB0UT-7 | 2026-09-03 06:07:35 | 52.28202 | 9.31593 | 100° | 66km/h | 3738m | -6.8m/s | -1.1°C | 12.7% | 649.0hPa | 2.6V | 00:00:00 | 00:00:00 | 00:00:00 | |
| DL1XH-15 | 2026-09-03 06:07:34 | 52.28223 | 9.31405 | 100° | 66km/h | 3787m | -7.1m/s | -1.2°C | 14.2% | 645hPa | 2.6V | 07:57:56 | 02:35:58 | 00:00:00 | |
| DL3OBA | 2026-09-03 06:07:31 | 52.28211 | 9.31512 | 102° | 66km/h | 3759m | -6.8m/s | -1.2°C | 11.9% | 647.4hPa | 2.6V | 07:58:00 | 00:00:00 | 00:00:00 | |
| DM0DOS-11 | 2026-09-03 06:07:30 | 52.28217 | 9.31458 | 100° | 66km/h | 3773m | -6.9m/s | -1.1°C | 13.1% | 646.2hPa | 2.6V | 07:57:54 | 02:36:00 | 00:00:00 | |
| DL1XH-west | 2026-09-03 06:07:30 | 52.28217 | 9.31458 | 101° | 66km/h | 3773m | -6.9m/s | -1.1°C | 14.6% | 646.2hPa | 2.6V | 07:58:21 | 02:36:00 | 00:00:00 | |
| DD8BA-10 | 2026-09-03 06:07:29 | 52.28220 | 9.31432 | 102° | 64km/h | 3780m | -7.1m/s | -1.1°C | 13.1% | 645.6hPa | 2.6V | 00:00:00 | 00:00:00 | 00:00:00 | |
| DL1XH-15 | 2026-09-03 06:07:28 | 52.28241 | 9.31275 | 103° | 64km/h | 3822m | -7m/s | -1.3°C | 19.4% | 642.2hPa | 2.6V | 07:58:01 | 02:35:53 | 00:00:00 | |
| DL1XH1-15 | 2026-09-03 06:07:25 | 52.28233 | 9.31327 | 102° | 64km/h | 3808m | -7.2m/s | -1.2°C | 17.8% | 643.5hPa | 2.6V | 07:57:59 | 02:35:55 | 00:00:00 | |
| DB0DAN | 2026-09-03 06:07:25 | 52.28233 | 9.31327 | 102° | 60km/h | 3808m | -7.2m/s | -1.2°C | 17.3% | 643.48hPa | 2.6V | 00:00:00 | 00:00:00 | 00:00:00 | |
| DF8AY | 2026-09-03 06:07:25 | 52.28233 | 9.31327 | 103° | 64km/h | 3808m | -7.2m/s | -1.2°C | 20.5% | 643.5hPa | 2.6V | 08:00:03 | 02:35:55 | 00:00:00 | |
| DL1XH-west | 2026-09-03 06:07:20 | 52.28252 | 9.31199 | 103° | 64km/h | 3844m | -7.1m/s | -1.5°C | 23.6% | 640.6hPa | 2.6V | 07:58:21 | 02:35:50 | 00:00:00 | |
| BIOWL1-15 | 2026-09-03 06:07:19 | 52.28255 | 9.31173 | 104° | 64km/h | 3851m | -6.8m/s | -1.5°C | 23.6% | 640.1hPa | 2.6V | 07:58:21 | 02:35:49 | 00:00:00 | |
| DL1XH-15 | 2026-09-03 06:07:18 | 52.28259 | 9.31147 | 103° | 64km/h | 3858m | -7.1m/s | -1.6°C | 20.4% | 639.5hPa | 2.6V | 07:58:06 | 02:35:48 | 00:00:00 | |
| DM0DOS-11 | 2026-09-03 06:07:15 | 52.28289 | 9.30938 | 103° | 66km/h | 3914m | -7m/s | -2°C | 19.4% | 635hPa | 2.6V | 07:58:14 | 02:35:40 | 00:00:00 | |
| DL1XH-15 | 2026-09-03 06:07:13 | 52.28297 | 9.30885 | 103° | 66km/h | 3928m | -7.1m/s | -2.1°C | 18.1% | 633.8hPa | 2.6V | 07:58:16 | 02:35:38 | 00:00:00 | |
| DL1LOL-11 | 2026-09-03 06:07:11 | 52.28281 | 9.30990 | 104° | 66km/h | 3900m | -7.2m/s | -1.9°C | 18.6% | 636.2hPa | 2.6V | 00:00:00 | 00:00:00 | 00:00:00 | |
| DB0DAN | 2026-09-03 06:07:10 | 52.28289 | 9.30938 | 104° | 62km/h | 3914m | -7m/s | -2°C | 18.8% | 635.04hPa | 2.6V | 00:00:00 | 00:00:00 | 00:00:00 | |
| DL1XH-west | 2026-09-03 06:07:10 | 52.28289 | 9.30938 | 104° | 66km/h | 3914m | -7m/s | -2°C | 22.4% | 635hPa | 2.6V | 07:58:21 | 02:35:40 | 00:00:00 | |
| BIOWL1-15 | 2026-09-03 06:07:08 | 52.28312 | 9.30778 | 103° | 66km/h | 3957m | -6.7m/s | -2.2°C | 23.2% | 631.5hPa | 2.6V | 07:58:21 | 02:35:34 | 00:00:00 | |
| DL1XH-15 | 2026-09-03 06:07:07 | 52.28320 | 9.30725 | 103° | 66km/h | 3970m | -7m/s | -2.2°C | 19.9% | 630.4hPa | 2.6V | 07:58:22 | 02:35:32 | 00:00:00 | |
| SONCRA | 2026-09-03 06:07:04 | 52.28312 | 9.30778 | 103° | 64km/h | 3957m | -6.7m/s | -2.2°C | 19.5% | 631.5hPa | 2.6V | 00:00:00 | 00:00:00 | 00:00:00 | |
| DD1CC8 | 2026-09-03 06:07:03 | 52.28376 | 9.30356 | 105° | 66km/h | 4070m | -7.0m/s | -3.0°C | 20.0% | 622.6hPa | 2.6V | 00:00:00 | 00:00:00 | 00:00:00 | |
| DL1XH-15 | 2026-09-03 06:07:02 | 52.28344 | 9.30566 | 103° | 66km/h | 4012m | -7m/s | -2.5°C | 19.8% | 627.2hPa | 2.6V | 07:58:28 | 02:35:26 | 00:00:00 | |
| DL4XJ-10 | 2026-09-03 06:07:02 | 52.28320 | 9.30725 | 104° | 66km/h | 3971m | -6.9m/s | -0.7°C | 0% | 0hPa | 2.6V | 00:00:00 | 00:00:00 | 00:00:00 | |
| DL1XH1-15 | 2026-09-03 06:07:00 | 52.28328 | 9.30672 | 103° | 66km/h | 3985m | -7m/s | -2.3°C | 19.7% | 629.3hPa | 2.6V | 07:58:24 | 02:35:30 | 00:00:00 | |
| DL1XH-west | 2026-09-03 06:06:59 | 52.28332 | 9.30646 | 104° | 66km/h | 3992m | -6.8m/s | -2.4°C | 23.1% | 628.8hPa | 2.6V | 07:59:12 | 02:35:29 | 00:00:00 | |
| DJ2DS-15 | 2026-09-03 06:06:59 | 52.28332 | 9.30645 | 104° | 66km/h | 3992m | -6.8m/s | -2.3°C | 20.0% | 628.7hPa | 2.6V | 00:00:00 | 02:35:29 | 00:00:00 | |
| DK9SH | 2026-09-03 06:06:58 | 52.28336 | 9.30619 | 105° | 66km/h | 3998m | -6.6m/s | -2.4°C | 19.0% | 628.3hPa | 2.6V | 07:59:00 | 00:00:00 | 00:00:00 | |
| DM0DOS-11 | 2026-09-03 06:06:57 | 52.28347 | 9.30540 | 104° | 66km/h | 4019m | -7.1m/s | -2.6°C | 20% | 626.6hPa | 2.6V | 07:58:29 | 02:35:25 | 00:00:00 | |
| BIOWL1-15 | 2026-09-03 06:06:57 | 52.28340 | 9.30593 | 104° | 66km/h | 4005m | -6.8m/s | -2.5°C | 22.8% | 627.7hPa | 2.6V | 07:59:12 | 02:35:27 | 00:00:00 | |
| DL3AQ-11 | 2026-09-03 06:06:56 | 52.28344 | 9.30566 | 103° | 64km/h | 4012m | -7.0m/s | -2.5°C | 19.1% | 627.2hPa | 2.6V | 00:00:00 | 00:00:00 | 00:00:00 | |
| DL1XH-15 | 2026-09-03 06:06:56 | 52.28364 | 9.30435 | 104° | 66km/h | 4048m | -7.6m/s | -2.8°C | 20.3% | 624.4hPa | 2.6V | 07:58:33 | 02:35:21 | 00:00:00 | |
| DB0DAN | 2026-09-03 06:06:55 | 52.28347 | 9.30540 | 104° | 62km/h | 4019m | -7.1m/s | -2.6°C | 19.4% | 626.58hPa | 2.6V | 00:00:00 | 00:00:00 | 00:00:00 | |
| DL1XH-15 | 2026-09-03 06:06:51 | 52.28385 | 9.30303 | 104° | 66km/h | 4084m | -6.7m/s | -3.1°C | 20.9% | 621.5hPa | 2.5V | 07:58:38 | 02:35:16 | 00:00:00 | |
| DM0DOS-11 | 2026-09-03 06:06:50 | 52.28368 | 9.30408 | 104° | 66km/h | 4056m | -7.3m/s | -2.9°C | 20.5% | 623.9hPa | 2.6V | 07:58:34 | 02:35:20 | 00:00:00 | |
| DM0DOS-11 | 2026-09-03 06:06:50 | 52.28389 | 9.30277 | 105° | 66km/h | 4091m | -6.9m/s | -3.2°C | 21% | 620.8hPa | 2.6V | 07:58:39 | 02:35:15 | 00:00:00 | |
| DL1XH-west | 2026-09-03 06:06:49 | 52.28372 | 9.30382 | 105° | 66km/h | 4063m | -7m/s | -3°C | 23.8% | 623.2hPa | 2.6V | 07:59:12 | 02:35:19 | 00:00:00 | |
| BIOWL1-15 | 2026-09-03 06:06:49 | 52.28380 | 9.30329 | 105° | 66km/h | 4077m | -7m/s | -3.1°C | 23.8% | 622hPa | 2.5V | 07:59:12 | 02:35:17 | 00:00:00 | |
| DF8AY | 2026-09-03 06:06:48 | 52.28376 | 9.30356 | 105° | 66km/h | 4070m | -7m/s | -3°C | 23.7% | 622.6hPa | 2.6V | 08:00:03 | 02:35:18 | 00:00:00 | |
| DL1XH-15 | 2026-09-03 06:06:46 | 52.28407 | 9.30173 | 105° | 64km/h | 4119m | -7.5m/s | -3.4°C | 21.4% | 618.5hPa | 2.5V | 07:58:43 | 02:35:11 | 00:00:00 | |
| DM0DOS-11 | 2026-09-03 06:06:45 | 52.28411 | 9.30148 | 105° | 64km/h | 4126m | -7.4m/s | -3.5°C | 21.6% | 618hPa | 2.5V | 07:58:44 | 02:35:10 | 00:00:00 | |
| DB0UT-7 | 2026-09-03 06:06:43 | 52.28398 | 9.30225 | 106° | 64km/h | 4105m | -6.9m/s | -3.3°C | 21.4% | 619.9hPa | 2.5V | 07:58:00 | 02:35:13 | 00:00:00 | |
| DL4XJ-10 | 2026-09-03 06:06:42 | 52.28402 | 9.30199 | 106° | 64km/h | 4111m | -7.0m/s | -1.9°C | 0% | 0hPa | 2.5V | 00:00:00 | 00:00:00 | 00:00:00 | |
| DB0DAN | 2026-09-03 06:06:40 | 52.28411 | 9.30148 | 106° | 60km/h | 4126m | -7.4m/s | -3.5°C | 20.9% | 618.05hPa | 2.5V | 00:00:00 | 00:00:00 | 00:00:00 | |
| DL1XH-west | 2026-09-03 06:06:38 | 52.28420 | 9.30097 | 107° | 64km/h | 4141m | -7.6m/s | -3.6°C | 24.5% | 617hPa | 2.6V | 07:59:12 | 02:35:08 | 00:00:00 | |
| BIOWL1-15 | 2026-09-03 06:06:36 | 52.28429 | 9.30047 | 107° | 64km/h | 4155m | -7m/s | -3.7°C | 23.7% | 615.8hPa | 2.5V | 07:59:12 | 02:35:06 | 00:00:00 | |
| DL1XH1-15 | 2026-09-03 06:06:35 | 52.28434 | 9.30022 | 105° | 64km/h | 4163m | -7.5m/s | -3.6°C | 20.3% | 615.2hPa | 2.6V | 07:58:49 | 02:35:05 | 00:00:00 | |
| DF8AY | 2026-09-03 06:06:32 | 52.28447 | 9.29946 | 106° | 64km/h | 4184m | -7.4m/s | -3.6°C | 20.2% | 613.5hPa | 2.6V | 08:00:03 | 02:35:02 | 00:00:00 | |
| DL1XH-15 | 2026-09-03 06:06:31 | 52.28456 | 9.29896 | 106° | 64km/h | 4198m | -6.8m/s | -3.5°C | 13.5% | 612.4hPa | 2.5V | 07:58:54 | 02:35:00 | 00:00:00 | |
| BIOWL1-15 | 2026-09-03 06:06:28 | 52.28476 | 9.29796 | 108° | 64km/h | 4228m | -7.5m/s | -3.7°C | 15.4% | 610.1hPa | 2.6V | 07:59:12 | 02:34:56 | 00:00:00 | |
| DL1XH-west | 2026-09-03 06:06:28 | 52.28466 | 9.29846 | 108° | 64km/h | 4213m | -7.5m/s | -3.6°C | 15.2% | 611.2hPa | 2.6V | 07:59:12 | 02:34:58 | 00:00:00 | |
| DL1XH1-15 | 2026-09-03 06:06:27 | 52.28481 | 9.29770 | 107° | 64km/h | 4235m | -7.3m/s | -3.8°C | 13.5% | 609.6hPa | 2.6V | 07:58:59 | 02:34:55 | 00:00:00 | |
| DD8BA-10 | 2026-09-03 06:06:27 | 52.28471 | 9.29821 | 108° | 66km/h | 4220m | -7.6m/s | -3.6°C | 13.4% | 610.7hPa | 2.6V | 00:00:00 | 00:00:00 | 00:00:00 | |
| DB0DAN | 2026-09-03 06:06:25 | 52.28481 | 9.29770 | 108° | 62km/h | 4235m | -7.3m/s | -3.8°C | 13.1% | 609.62hPa | 2.6V | 00:00:00 | 00:00:00 | 00:00:00 | |
| DJ2DS-15 | 2026-09-03 06:06:24 | 52.28486 | 9.29745 | 108° | 64km/h | 4242m | -7.0m/s | -3.8°C | 13.1% | 608.9hPa | 2.6V | 00:00:00 | 00:00:00 | 00:00:00 | |
| DL8OAI-8 | 2026-09-03 06:06:23 | 52.28486 | 9.29745 | 109° | 66km/h | 4242m | -7.0m/s | -3.8°C | 13.1% | 608.9hPa | 2.6V | 07:59:00 | 00:00:00 | 00:00:00 | |
| DL1CLM-18 | 2026-09-03 06:06:22 | 52.28497 | 9.29694 | 110° | 66km/h | 4256m | -7.1m/s | -3.9°C | 13.0% | 607.8hPa | 2.6V | 07:59:00 | 00:00:00 | 00:00:00 | |
| DL1XH1-15 | 2026-09-03 06:06:20 | 52.28508 | 9.29643 | 108° | 66km/h | 4270m | -7.5m/s | -4°C | 13.5% | 606.7hPa | 2.6V | 07:59:04 | 02:34:50 | 00:00:00 | |
| DF8AY | 2026-09-03 06:06:19 | 52.28562 | 9.29384 | 109° | 66km/h | 4344m | -7.7m/s | -4.5°C | 18.4% | 601.3hPa | 2.6V | 08:00:03 | 02:34:40 | 00:00:00 | |
| DL1XH-west | 2026-09-03 06:06:18 | 52.28518 | 9.29591 | 108° | 66km/h | 4285m | -7.5m/s | -4.1°C | 15.4% | 605.6hPa | 2.5V | 07:59:12 | 02:34:48 | 00:00:00 | |
| DM0DOS-11 | 2026-09-03 06:06:17 | 52.28534 | 9.29514 | 108° | 68km/h | 4307m | -7.1m/s | -4.3°C | 14.4% | 604.1hPa | 2.6V | 07:59:09 | 02:34:45 | 00:00:00 | |
| BIOWL1-15 | 2026-09-03 06:06:15 | 52.28534 | 9.29514 | 109° | 68km/h | 4307m | -7.1m/s | -4.3°C | 16.5% | 604.1hPa | 2.6V | 07:59:12 | 02:34:45 | 00:00:00 | |
| DD8BA-10 | 2026-09-03 06:06:15 | 52.28534 | 9.29514 | 109° | 68km/h | 4307m | -7.0m/s | -4.2°C | 14.4% | 604.0hPa | 2.6V | 00:00:00 | 00:00:00 | 00:00:00 | |
| DL1XH-15 | 2026-09-03 06:06:14 | 52.28568 | 9.29358 | 109° | 66km/h | 4351m | -7.5m/s | -4.6°C | 16% | 600.6hPa | 2.6V | 07:59:15 | 02:34:39 | 00:00:00 | |
| DB0UT-7 | 2026-09-03 06:06:13 | 52.28545 | 9.29461 | 109° | 68km/h | 4321m | -7.3m/s | -4.3°C | 15.7% | 602.8hPa | 2.6V | 00:00:00 | 00:00:00 | 00:00:00 | |
| DB0DAN | 2026-09-03 06:06:10 | 52.28562 | 9.29384 | 109° | 64km/h | 4344m | -7.7m/s | -4.5°C | 15.4% | 601.29hPa | 2.6V | 00:00:00 | 00:00:00 | 00:00:00 | |
| DM0DOS-11 | 2026-09-03 06:06:10 | 52.28563 | 9.29384 | 109° | 66km/h | 4343m | -7.7m/s | -4.5°C | 16% | 601.3hPa | 2.6V | 07:59:14 | 02:34:40 | 00:00:00 | |
| DL3OBA | 2026-09-03 06:06:08 | 52.28568 | 9.29358 | 111° | 66km/h | 4351m | -7.5m/s | -4.6°C | 15.5% | 600.6hPa | 2.6V | 08:00:00 | 00:00:00 | 00:00:00 | |
| BIOWL7-15 | 2026-09-03 06:06:07 | 52.28573 | 9.29332 | 111° | 66km/h | 4359m | -7.1m/s | -4.7°C | 15.6% | 600.2hPa | 2.6V | 00:00:00 | 00:00:00 | 00:00:00 | |
| DL1XH-west | 2026-09-03 06:06:07 | 52.28580 | 9.29307 | 111° | 68km/h | 4366m | -6.8m/s | -4.8°C | 18.8% | 599.5hPa | 2.5V | 08:00:03 | 02:34:37 | 00:00:00 | |
| BIOWL1-15 | 2026-09-03 06:06:07 | 52.28591 | 9.29255 | 110° | 66km/h | 4380m | -7.5m/s | -4.9°C | 19% | 598.4hPa | 2.6V | 08:00:03 | 02:34:35 | 00:00:00 | |
| DL3AQ-11 | 2026-09-03 06:06:06 | 52.28591 | 9.29255 | 110° | 66km/h | 4380m | -7.5m/s | -4.9°C | 15.9% | 598.4hPa | 2.6V | 00:00:00 | 00:00:00 | 00:00:00 | |
| DL1XH1-15 | 2026-09-03 06:06:05 | 52.28591 | 9.29255 | 110° | 66km/h | 4380m | -7.5m/s | -4.9°C | 16.5% | 598.3hPa | 2.6V | 07:59:19 | 02:34:35 | 00:00:00 | |
| DM0DOS-11 | 2026-09-03 06:06:05 | 52.28627 | 9.29100 | 110° | 68km/h | 4424m | -6.9m/s | -5.2°C | 17.1% | 595.1hPa | 2.6V | 07:59:25 | 02:34:29 | 00:00:00 | |
| DL1XH-15 | 2026-09-03 06:06:04 | 52.28597 | 9.29230 | 110° | 68km/h | 4387m | -7.5m/s | -5°C | 16.6% | 597.9hPa | 2.6V | 07:59:20 | 02:34:34 | 00:00:00 | |
| DL1XH-15 | 2026-09-03 06:06:04 | 52.28627 | 9.29100 | 110° | 68km/h | 4424m | -6.9m/s | -5.2°C | 17.1% | 595.1hPa | 2.6V | 07:59:25 | 02:34:29 | 00:00:00 | |
| DL4XJ-10 | 2026-09-03 06:06:02 | 52.28609 | 9.29178 | 111° | 68km/h | 4403m | -7.4m/s | -3.6°C | 0% | 0hPa | 2.6V | 00:00:00 | 00:00:00 | 00:00:00 | |
| DD1CC8 | 2026-09-03 06:06:01 | 52.28621 | 9.29126 | 110° | 66km/h | 4417m | -7.3m/s | -5.2°C | 16.4% | 595.8hPa | 2.6V | 00:00:00 | 00:00:00 | 00:00:00 | |
| DM0DOS-11 | 2026-09-03 06:05:59 | 52.28656 | 9.28971 | 110° | 66km/h | 4459m | -7.6m/s | -5.5°C | 17.1% | 592.6hPa | 2.6V | 07:59:30 | 02:34:24 | 00:00:00 | |
| DL1XH-west | 2026-09-03 06:05:57 | 52.28639 | 9.29048 | 111° | 68km/h | 4438m | -6.7m/s | -5.4°C | 20% | 594hPa | 2.6V | 08:00:03 | 02:34:27 | 00:00:00 | |
| DB0DAN | 2026-09-03 06:05:55 | 52.28651 | 9.28996 | 110° | 62km/h | 4451m | -7.5m/s | -5.4°C | 16.6% | 593.07hPa | 2.5V | 00:00:00 | 00:00:00 | 00:00:00 | |
| DL1XH1-15 | 2026-09-03 06:05:55 | 52.28651 | 9.28996 | 110° | 66km/h | 4451m | -7.5m/s | -5.4°C | 17.2% | 593.1hPa | 2.5V | 07:59:29 | 02:34:25 | 00:00:00 | |
| BIOWL1-15 | 2026-09-03 06:05:55 | 52.28651 | 9.28996 | 110° | 66km/h | 4451m | -7.5m/s | -5.4°C | 19.8% | 593.1hPa | 2.5V | 08:00:03 | 02:34:25 | 00:00:00 | |
| DD8BA-10 | 2026-09-03 06:05:55 | 52.28651 | 9.28996 | 111° | 68km/h | 4451m | -7.5m/s | -5.4°C | 17.2% | 593.0hPa | 2.5V | 00:00:00 | 00:00:00 | 00:00:00 | |
| DM0DOS-11 | 2026-09-03 06:05:54 | 52.28686 | 9.28842 | 110° | 68km/h | 4495m | -7.7m/s | -5.7°C | 15.6% | 589.8hPa | 2.5V | 07:59:35 | 02:34:19 | 00:00:00 | |
| DL3AQ-11 | 2026-09-03 06:05:50 | 52.28686 | 9.28842 | 110° | 68km/h | 4495m | -7.7m/s | -5.7°C | 15.0% | 589.8hPa | 2.5V | 00:00:00 | 00:00:00 | 00:00:00 | |
| DJ2DS-15 | 2026-09-03 06:05:48 | 52.28692 | 9.28816 | 110° | 68km/h | 4502m | -7.7m/s | -5.8°C | 14.9% | 589.2hPa | 2.5V | 00:00:00 | 00:00:00 | 00:00:00 | |
| DL1XH1-15 | 2026-09-03 06:05:47 | 52.28709 | 9.28738 | 110° | 68km/h | 4524m | -7.2m/s | -5.9°C | 15.1% | 587.6hPa | 2.5V | 07:59:39 | 02:34:15 | 00:00:00 | |
| DL1XH-west | 2026-09-03 06:05:46 | 52.28703 | 9.28764 | 110° | 68km/h | 4517m | -6.9m/s | -5.9°C | 17.2% | 588.1hPa | 2.6V | 08:00:03 | 02:34:16 | 00:00:00 | |
| BIOWL1-15 | 2026-09-03 06:05:45 | 52.28709 | 9.28738 | 110° | 68km/h | 4524m | -7.2m/s | -5.9°C | 17.2% | 587.6hPa | 2.5V | 08:00:03 | 02:34:15 | 00:00:00 | |
| DL1XH-15 | 2026-09-03 06:05:44 | 52.28715 | 9.28711 | 109° | 68km/h | 4531m | -7.4m/s | -5.9°C | 14.5% | 586.9hPa | 2.5V | 07:59:40 | 02:34:14 | 00:00:00 | |
| DD8BA-10 | 2026-09-03 06:05:44 | 52.28715 | 9.28711 | 110° | 68km/h | 4531m | -7.3m/s | -5.9°C | 14.5% | 586.8hPa | 2.6V | 00:00:00 | 00:00:00 | 00:00:00 | |
| DB0UT-7 | 2026-09-03 06:05:43 | 52.28721 | 9.28685 | 109° | 68km/h | 4539m | -7.1m/s | -5.9°C | 14.2% | 586.5hPa | 2.6V | 00:00:00 | 02:34:13 | 00:00:00 | |
| DL4XJ-10 | 2026-09-03 06:05:42 | 52.28726 | 9.28658 | 110° | 68km/h | 4546m | -7.0m/s | -4.5°C | 0% | 0hPa | 2.6V | 00:00:00 | 00:00:00 | 00:00:00 | |
| DL8OAI-8 | 2026-09-03 06:05:41 | 52.28726 | 9.28658 | 110° | 68km/h | 4546m | -7.1m/s | -5.9°C | 13.4% | 586.1hPa | 2.6V | 08:00:00 | 00:00:00 | 00:00:00 | |
| DB0DAN | 2026-09-03 06:05:40 | 52.28737 | 9.28606 | 109° | 64km/h | 4560m | -7.3m/s | -6°C | 12.1% | 584.96hPa | 2.6V | 00:00:00 | 00:00:00 | 00:00:00 | |
| DL1XH1-15 | 2026-09-03 06:05:40 | 52.28765 | 9.28474 | 109° | 68km/h | 4596m | -7m/s | -6.1°C | 11.1% | 582.3hPa | 2.6V | 07:59:49 | 02:34:05 | 00:00:00 | |
| DL1XH-west | 2026-09-03 06:05:35 | 52.28765 | 9.28474 | 109° | 68km/h | 4596m | -7m/s | -6.1°C | 12.3% | 582.3hPa | 2.6V | 08:00:03 | 02:34:05 | 00:00:00 | |
| DL1XH-15 | 2026-09-03 06:05:34 | 52.28770 | 9.28448 | 108° | 68km/h | 4603m | -6.9m/s | -6.1°C | 11.1% | 581.9hPa | 2.5V | 07:59:50 | 02:34:04 | 00:00:00 | |
| BIOWL1-15 | 2026-09-03 06:05:34 | 52.28771 | 9.28448 | 109° | 68km/h | 4603m | -6.9m/s | -6.1°C | 12.3% | 581.9hPa | 2.5V | 08:00:03 | 02:34:04 | 00:00:00 | |
| DD8BA-10 | 2026-09-03 06:05:34 | 52.28771 | 9.28448 | 109° | 68km/h | 4603m | -6.8m/s | -6.1°C | 11.1% | 581.8hPa | 2.6V | 00:00:00 | 00:00:00 | 00:00:00 | |
| GOEST3-10 | 2026-09-03 06:05:32 | 52.28781 | 9.28395 | 109° | 68km/h | 4617m | -7.0m/s | -6.2°C | 10.8% | 580.8hPa | 2.6V | 00:00:00 | 02:34:02 | 00:00:00 | |
| SONCRA | 2026-09-03 06:05:31 | 52.28787 | 9.28369 | 107° | 66km/h | 4623m | -7.2m/s | -6.3°C | 10.3% | 580.1hPa | 2.6V | 00:00:00 | 00:00:00 | 00:00:00 | |
| DD1CC8 | 2026-09-03 06:05:30 | 52.28792 | 9.28343 | 107° | 66km/h | 4631m | -7.4m/s | -6.3°C | 10.3% | 579.6hPa | 2.6V | 00:00:00 | 00:00:00 | 00:00:00 | |
| GOEST3-10 | 2026-09-03 06:05:27 | 52.28807 | 9.28264 | 107° | 68km/h | 4652m | -6.9m/s | -6.5°C | 10.6% | 578.1hPa | 2.6V | 00:00:00 | 00:00:00 | 00:00:00 | |
| DL3OBA | 2026-09-03 06:05:26 | 52.28807 | 9.28264 | 108° | 66km/h | 4652m | -6.9m/s | -6.5°C | 10.2% | 578.1hPa | 2.6V | 08:00:00 | 00:00:00 | 00:00:00 | |
| DB0DAN | 2026-09-03 06:05:25 | 52.28817 | 9.28211 | 106° | 64km/h | 4667m | -7.2m/s | -6.7°C | 10.1% | 577.15hPa | 2.6V | 00:00:00 | 00:00:00 | 00:00:00 | |
| DL1XH1-15 | 2026-09-03 06:05:25 | 52.28817 | 9.28211 | 106° | 68km/h | 4667m | -7.2m/s | -6.7°C | 10.6% | 577.1hPa | 2.6V | 07:59:59 | 02:33:55 | 00:00:00 | |
| DL1XH1-15 | 2026-09-03 06:05:25 | 52.28840 | 9.28076 | 104° | 68km/h | 4702m | -7.3m/s | -6.9°C | 10.2% | 574.5hPa | 2.6V | 08:00:04 | 02:33:50 | 00:00:00 | |
| DL1XH-west | 2026-09-03 06:05:25 | 52.28817 | 9.28211 | 106° | 68km/h | 4667m | -7.2m/s | -6.7°C | 11.6% | 577.1hPa | 2.6V | 08:00:03 | 02:33:55 | 00:00:00 | |
| DL1XH-15 | 2026-09-03 06:05:24 | 52.28822 | 9.28185 | 106° | 68km/h | 4674m | -7.2m/s | -6.7°C | 10.5% | 576.7hPa | 2.6V | 08:00:00 | 02:33:54 | 00:00:00 | |
| DF8AY | 2026-09-03 06:05:24 | 52.28822 | 9.28185 | 106° | 68km/h | 4674m | -7.2m/s | -6.7°C | 11.5% | 576.7hPa | 2.6V | 08:00:03 | 02:33:54 | 00:00:00 | |
| BIOWL1-15 | 2026-09-03 06:05:23 | 52.28826 | 9.28158 | 106° | 68km/h | 4681m | -7.1m/s | -6.8°C | 11.3% | 576hPa | 2.5V | 08:00:03 | 02:33:53 | 00:00:00 | |
| DL4XJ-10 | 2026-09-03 06:05:22 | 52.28831 | 9.28130 | 106° | 71km/h | 4688m | -7.2m/s | -5.3°C | 0% | 0hPa | 2.6V | 00:00:00 | 00:00:00 | 00:00:00 | |
| DL8OAI-8 | 2026-09-03 06:05:21 | 52.28831 | 9.28130 | 106° | 68km/h | 4688m | -7.3m/s | -6.8°C | 10.0% | 575.4hPa | 2.6V | 08:00:00 | 00:00:00 | 00:00:00 | |
| DL1XH1-15 | 2026-09-03 06:05:20 | 52.28868 | 9.27909 | 105° | 71km/h | 4746m | -6.8m/s | -7°C | 9.6% | 571.2hPa | 2.6V | 08:00:10 | 02:33:44 | 00:00:00 | |
| GOEST3-10 | 2026-09-03 06:05:20 | 52.28840 | 9.28076 | 105° | 71km/h | 4703m | -7.2m/s | -6.9°C | 10.2% | 574.5hPa | 2.6V | 00:00:00 | 02:33:50 | 00:00:00 | |
| DJ2DS-15 | 2026-09-03 06:05:19 | 52.28844 | 9.28049 | 106° | 71km/h | 4710m | -6.9m/s | -6.9°C | 10.1% | 573.8hPa | 2.6V | 00:00:00 | 02:33:49 | 00:00:00 | |
| DL1CLM-18 | 2026-09-03 06:05:18 | 52.28844 | 9.28049 | 106° | 69km/h | 4710m | -6.9m/s | -7.0°C | 9.7% | 573.8hPa | 2.6V | 08:00:00 | 00:00:00 | 00:00:00 | |
| DD1CC3-15 | 2026-09-03 06:05:16 | 52.28853 | 9.27993 | 107° | 69km/h | 4724m | -7.2m/s | -7.0°C | 9.4% | 573.0hPa | 2.6V | 08:00:00 | 00:00:00 | 00:00:00 | |
| DL1XH-15 | 2026-09-03 06:05:15 | 52.28868 | 9.27909 | 105° | 71km/h | 4746m | -6.8m/s | -7°C | 9.6% | 571.2hPa | 2.6V | 08:00:10 | 02:33:44 | 00:00:00 | |
| DL1XH-west | 2026-09-03 06:05:14 | 52.28868 | 9.27909 | 106° | 71km/h | 4746m | -6.8m/s | -7°C | 10.3% | 571.2hPa | 2.6V | 08:00:54 | 02:33:44 | 00:00:00 | |
| DM0DOS-11 | 2026-09-03 06:05:14 | 52.28893 | 9.27766 | 105° | 73km/h | 4781m | -6.9m/s | -7.1°C | 10.8% | 568.7hPa | 2.6V | 08:00:15 | 02:33:39 | 00:00:00 | |
| BIOWL1-15 | 2026-09-03 06:05:13 | 52.28873 | 9.27881 | 106° | 71km/h | 4753m | -7.3m/s | -7.1°C | 10.1% | 570.5hPa | 2.6V | 08:00:54 | 02:33:43 | 00:00:00 | |
| DB0UT-7 | 2026-09-03 06:05:13 | 52.28873 | 9.27881 | 106° | 75km/h | 4753m | -7.2m/s | -7.0°C | 9.4% | 570.5hPa | 2.6V | 00:00:00 | 00:00:00 | 00:00:00 | |
| DJ2DS-15 | 2026-09-03 06:05:12 | 52.28878 | 9.27853 | 105° | 71km/h | 4760m | -7.2m/s | -7.1°C | 9.0% | 570.2hPa | 2.6V | 00:00:00 | 00:00:00 | 00:00:00 | |
| DK9SH | 2026-09-03 06:05:11 | 52.28877 | 9.27853 | 106° | 71km/h | 4760m | -7.2m/s | -7.1°C | 9.0% | 570.2hPa | 2.6V | 08:00:00 | 00:00:00 | 00:00:00 | |
| DB0DAN | 2026-09-03 06:05:10 | 52.28887 | 9.27795 | 106° | 69km/h | 4774m | -7.4m/s | -7.1°C | 9.3% | 569.1hPa | 2.6V | 00:00:00 | 00:00:00 | 00:00:00 | |
| DF8AY-15 | 2026-09-03 06:05:09 | 52.28892 | 9.27766 | 106° | 73km/h | 4782m | -6.8m/s | -7.0°C | 10.8% | 568.6hPa | 2.6V | 00:00:00 | 02:33:39 | 00:00:00 | |
| DL3OBA | 2026-09-03 06:05:06 | 52.28903 | 9.27709 | 108° | 73km/h | 4795m | -6.8m/s | -7.1°C | 10.3% | 567.6hPa | 2.5V | 08:00:00 | 00:00:00 | 00:00:00 | |
| DL1XH1-15 | 2026-09-03 06:05:04 | 52.28920 | 9.27623 | 108° | 73km/h | 4816m | -6.9m/s | -7.2°C | 10.6% | 566hPa | 2.5V | 08:00:20 | 02:33:34 | 00:00:00 | |
| DM0DOS-11 | 2026-09-03 06:05:04 | 52.28950 | 9.27479 | 108° | 75km/h | 4852m | -7.1m/s | -7.4°C | 13.6% | 563.4hPa | 2.5V | 08:00:25 | 02:33:29 | 00:00:00 | |
| DF8AY | 2026-09-03 06:05:03 | 52.28926 | 9.27594 | 109° | 73km/h | 4823m | -6.8m/s | -7.3°C | 11.9% | 565.6hPa | 2.6V | 08:00:54 | 02:33:33 | 00:00:00 | |
| BIOWL1-15 | 2026-09-03 06:05:02 | 52.28932 | 9.27566 | 109° | 73km/h | 4830m | -6.9m/s | -7.3°C | 12.5% | 565hPa | 2.6V | 08:00:54 | 02:33:32 | 00:00:00 | |
| DL4XJ-10 | 2026-09-03 06:05:02 | 52.28932 | 9.27566 | 109° | 75km/h | 4830m | -6.9m/s | -5.8°C | 0% | 0hPa | 2.6V | 00:00:00 | 00:00:00 | 00:00:00 | |
| DL8OAI-8 | 2026-09-03 06:05:01 | 52.28931 | 9.27566 | 110° | 73km/h | 4830m | -6.9m/s | -7.3°C | 10.7% | 565.0hPa | 2.6V | 08:00:00 | 00:00:00 | 00:00:00 | |
| SONCRA | 2026-09-03 06:05:00 | 52.28944 | 9.27508 | 108° | 73km/h | 4844m | -7.6m/s | -7.4°C | 11.5% | 563.9hPa | 2.6V | 00:00:00 | 00:00:00 | 00:00:00 | |
| DD1CC8 | 2026-09-03 06:04:59 | 52.28950 | 9.27479 | 108° | 75km/h | 4852m | -7.1m/s | -7.4°C | 13.1% | 563.4hPa | 2.6V | 00:00:00 | 00:00:00 | 00:00:00 | |
| DL3AQ-11 | 2026-09-03 06:04:56 | 52.28967 | 9.27391 | 108° | 73km/h | 4873m | -7.7m/s | -7.7°C | 19.7% | 561.9hPa | 2.6V | 00:00:00 | 00:00:00 | 00:00:00 | |
| DB0DAN | 2026-09-03 06:04:55 | 52.28974 | 9.27362 | 109° | 71km/h | 4881m | -6.9m/s | -7.7°C | 22.5% | 561.47hPa | 2.6V | 00:00:00 | 00:00:00 | 00:00:00 | |
| DL1XH1-15 | 2026-09-03 06:04:54 | 52.28979 | 9.27333 | 108° | 75km/h | 4888m | -7.4m/s | -7.8°C | 25.5% | 560.8hPa | 2.5V | 08:00:30 | 02:33:24 | 00:00:00 | |
| DL1XH1-15 | 2026-09-03 06:04:54 | 52.29009 | 9.27187 | 108° | 75km/h | 4924m | -7m/s | -7.9°C | 30.3% | 558.3hPa | 2.6V | 08:00:35 | 02:33:19 | 00:00:00 | |
| BIOWL1-15 | 2026-09-03 06:04:52 | 52.28991 | 9.27275 | 108° | 73km/h | 4902m | -6.9m/s | -7.9°C | 39.3% | 559.7hPa | 2.6V | 08:00:54 | 02:33:22 | 00:00:00 | |
| DF8AY-15 | 2026-09-03 06:04:49 | 52.29009 | 9.27186 | 109° | 75km/h | 4924m | -7.0m/s | -7.9°C | 30.3% | 558.2hPa | 2.6V | 00:00:00 | 02:33:19 | 00:00:00 | |
| DK9SH | 2026-09-03 06:04:48 | 52.29009 | 9.27187 | 109° | 75km/h | 4924m | -7.0m/s | -7.9°C | 29.2% | 558.3hPa | 2.6V | 08:00:00 | 00:00:00 | 00:00:00 | |
| DL3OBA | 2026-09-03 06:04:45 | 52.29027 | 9.27098 | 109° | 75km/h | 4946m | -7.7m/s | -8.1°C | 29.2% | 556.8hPa | 2.6V | 08:00:00 | 00:00:00 | 00:00:00 | |
| DL1XH1-15 | 2026-09-03 06:04:44 | 52.29069 | 9.26895 | 109° | 73km/h | 4997m | -7.7m/s | -8.6°C | 52% | 553hPa | 2.6V | 08:00:45 | 02:33:09 | 00:00:00 | |
| DF8AY | 2026-09-03 06:04:42 | 52.29051 | 9.26980 | 109° | 75km/h | 4975m | -7.9m/s | -8.3°C | 37.1% | 554.5hPa | 2.6V | 08:00:54 | 02:33:12 | 00:00:00 | |
| DL1XH-west | 2026-09-03 06:04:42 | 52.29057 | 9.26952 | 109° | 73km/h | 4982m | -7m/s | -8.4°C | 47.5% | 554hPa | 2.5V | 08:00:54 | 02:33:11 | 00:00:00 | |
| AA1-15 | 2026-09-03 06:04:39 | 52.29069 | 9.26895 | 109° | 73km/h | 4997m | -7.7m/s | -8.6°C | 55.7% | 553hPa | 2.6V | 08:01:45 | 02:33:09 | 00:00:00 | |
| DJ2DS-15 | 2026-09-03 06:04:39 | 52.29069 | 9.26895 | 110° | 73km/h | 4997m | -7.7m/s | -8.5°C | 52.0% | 553.0hPa | 2.6V | 00:00:00 | 02:33:09 | 00:00:00 | |
| DL1XH-15 | 2026-09-03 06:04:37 | 52.29111 | 9.26695 | 109° | 73km/h | 5050m | -7.7m/s | -8.9°C | 59% | 549.2hPa | 2.6V | 08:00:52 | 02:33:02 | 00:00:00 | |
| DL1XH1-15 | 2026-09-03 06:04:36 | 52.29105 | 9.26724 | 108° | 73km/h | 5042m | -7.9m/s | -8.9°C | 58.2% | 549.8hPa | 2.6V | 08:00:51 | 02:33:03 | 00:00:00 | |
| DM0DOS-11 | 2026-09-03 06:04:34 | 52.29130 | 9.26609 | 110° | 73km/h | 5073m | -8m/s | -9°C | 60.8% | 547.6hPa | 2.6V | 08:00:55 | 02:32:59 | 00:00:00 | |
| DF8AY | 2026-09-03 06:04:31 | 52.29117 | 9.26666 | 110° | 75km/h | 5058m | -7.9m/s | -9°C | 62.2% | 548.6hPa | 2.5V | 08:00:54 | 02:33:01 | 00:00:00 | |
| BIOWL1-15 | 2026-09-03 06:04:30 | 52.29124 | 9.26638 | 110° | 73km/h | 5066m | -7.6m/s | -9°C | 63.1% | 548.1hPa | 2.5V | 08:00:54 | 02:33:00 | 00:00:00 | |
| AA1-15 | 2026-09-03 06:04:28 | 52.29136 | 9.26581 | 111° | 73km/h | 5082m | -7.8m/s | -9°C | 66.2% | 547hPa | 2.6V | 08:01:45 | 02:32:58 | 00:00:00 | |
| DL1XH-15 | 2026-09-03 06:04:27 | 52.29177 | 9.26412 | 112° | 75km/h | 5127m | -7.2m/s | -8.9°C | 4.8% | 543.9hPa | 2.6V | 08:01:02 | 02:32:52 | 00:00:00 | |
| DB0DAN | 2026-09-03 06:04:25 | 52.29156 | 9.26497 | 112° | 69km/h | 5104m | -7.9m/s | -9°C | 36.7% | 545.46hPa | 2.5V | 00:00:00 | 00:00:00 | 00:00:00 | |
| DL4BBY-15 | 2026-09-03 06:04:25 | 52.29156 | 9.26497 | 112° | 77km/h | 5104m | -7.9m/s | -7.5°C | 0% | 0hPa | 2.6V | 00:00:00 | 00:00:00 | 00:00:00 | |
| DM0DOS-11 | 2026-09-03 06:04:24 | 52.29199 | 9.26327 | 113° | 75km/h | 5150m | -7.4m/s | -9°C | 3.2% | 542.2hPa | 2.6V | 08:01:05 | 02:32:49 | 00:00:00 | |
| BIOWL1-15 | 2026-09-03 06:04:22 | 52.29191 | 9.26355 | 113° | 75km/h | 5143m | -7.6m/s | -9°C | 0.7% | 542.8hPa | 2.5V | 08:01:45 | 02:32:50 | 00:00:00 | |
| DF8AY | 2026-09-03 06:04:21 | 52.29184 | 9.26383 | 112° | 75km/h | 5135m | -7.8m/s | -8.9°C | 1.3% | 543.3hPa | 2.5V | 08:01:45 | 02:32:51 | 00:00:00 | |
| DL1XH-west | 2026-09-03 06:04:19 | 52.29199 | 9.26327 | 113° | 75km/h | 5150m | -7.4m/s | -9°C | 0.9% | 542.2hPa | 2.6V | 08:01:45 | 02:32:49 | 00:00:00 | |
| AA1-15 | 2026-09-03 06:04:18 | 52.29206 | 9.26298 | 113° | 77km/h | 5158m | -7.9m/s | -9°C | 1% | 541.8hPa | 2.6V | 08:01:45 | 02:32:48 | 00:00:00 | |
| DJ2DS-15 | 2026-09-03 06:04:18 | 52.29206 | 9.26298 | 113° | 77km/h | 5158m | -7.8m/s | -9.0°C | 3.3% | 541.7hPa | 2.6V | 00:00:00 | 02:32:48 | 00:00:00 | |
| DL3AQ-11 | 2026-09-03 06:04:17 | 52.29221 | 9.26240 | 112° | 75km/h | 5174m | -7.9m/s | -9.0°C | 3.4% | 540.8hPa | 2.6V | 00:00:00 | 00:00:00 | 00:00:00 | |
| DM0DOS-11 | 2026-09-03 06:04:14 | 52.29274 | 9.26038 | 114° | 77km/h | 5226m | -7.3m/s | -9.2°C | 6.9% | 537hPa | 2.6V | 08:01:15 | 02:32:39 | 00:00:00 | |
| BIOWL1-15 | 2026-09-03 06:04:11 | 52.29274 | 9.26038 | 114° | 77km/h | 5226m | -7.3m/s | -9.2°C | 6.7% | 537hPa | 2.6V | 08:01:45 | 02:32:39 | 00:00:00 | |
| DB0DAN | 2026-09-03 06:04:10 | 52.29266 | 9.26067 | 113° | 73km/h | 5219m | -7.3m/s | -9.1°C | 5.8% | 537.56hPa | 2.5V | 00:00:00 | 00:00:00 | 00:00:00 | |
| DF8AY | 2026-09-03 06:04:10 | 52.29266 | 9.26067 | 113° | 77km/h | 5219m | -7.3m/s | -9.1°C | 5.6% | 537.6hPa | 2.5V | 08:01:45 | 02:32:40 | 00:00:00 | |
| DL1XH-west | 2026-09-03 06:04:08 | 52.29282 | 9.26009 | 113° | 78km/h | 5234m | -7.2m/s | -9.2°C | 7.3% | 536.5hPa | 2.6V | 08:01:45 | 02:32:38 | 00:00:00 | |
| AA1-15 | 2026-09-03 06:04:07 | 52.29290 | 9.25979 | 113° | 77km/h | 5241m | -7.2m/s | -9.2°C | 7.8% | 535.8hPa | 2.6V | 08:01:45 | 02:32:37 | 00:00:00 | |
| DK9SH | 2026-09-03 06:04:05 | 52.29297 | 9.25950 | 115° | 78km/h | 5249m | -7.3m/s | -9.3°C | 7.5% | 535.3hPa | 2.6V | 08:01:00 | 00:00:00 | 00:00:00 | |
| DM0DOS-11 | 2026-09-03 06:04:04 | 52.29350 | 9.25740 | 111° | 80km/h | 5300m | -7.4m/s | -9.7°C | 9.3% | 531.8hPa | 2.6V | 08:01:25 | 02:32:29 | 00:00:00 | |
| DF8AY | 2026-09-03 06:04:00 | 52.29343 | 9.25770 | 112° | 80km/h | 5293m | -7.4m/s | -9.7°C | 9.8% | 532.2hPa | 2.5V | 08:01:45 | 02:32:30 | 00:00:00 | |
| BIOWL1-15 | 2026-09-03 06:04:00 | 52.29357 | 9.25709 | 111° | 78km/h | 5307m | -7.5m/s | -9.8°C | 10.3% | 531.1hPa | 2.6V | 08:01:45 | 02:32:28 | 00:00:00 | |
| DL1XH1-15 | 2026-09-03 06:03:58 | 52.29393 | 9.25557 | 109° | 78km/h | 5346m | -8.1m/s | -10.1°C | 10.9% | 528.5hPa | 2.6V | 08:01:31 | 02:32:23 | 00:00:00 | |
| DL1XH-west | 2026-09-03 06:03:57 | 52.29365 | 9.25679 | 111° | 78km/h | 5314m | -7.6m/s | -9.8°C | 10.7% | 530.5hPa | 2.6V | 08:01:45 | 02:32:27 | 00:00:00 | |
| AA1-15 | 2026-09-03 06:03:56 | 52.29372 | 9.25648 | 110° | 78km/h | 5322m | -7.8m/s | -9.9°C | 11.1% | 529.9hPa | 2.5V | 08:01:45 | 02:32:26 | 00:00:00 | |
| DB0DAN | 2026-09-03 06:03:55 | 52.29379 | 9.25618 | 111° | 75km/h | 5330m | -7.9m/s | -10°C | 9.8% | 529.65hPa | 2.5V | 00:00:00 | 00:00:00 | 00:00:00 | |
| DF8AY | 2026-09-03 06:03:54 | 52.29419 | 9.25433 | 109° | 78km/h | 5377m | -7.7m/s | -10.4°C | 16.3% | 526.3hPa | 2.6V | 08:01:45 | 02:32:19 | 00:00:00 | |
| DM0DOS-11 | 2026-09-03 06:03:54 | 52.29419 | 9.25433 | 108° | 78km/h | 5377m | -7.7m/s | -10.4°C | 14% | 526.3hPa | 2.6V | 08:01:35 | 02:32:19 | 00:00:00 | |
| BIOWL1-15 | 2026-09-03 06:03:49 | 52.29431 | 9.25371 | 108° | 78km/h | 5392m | -7.6m/s | -10.5°C | 19.1% | 525.3hPa | 2.6V | 08:01:45 | 02:32:17 | 00:00:00 | |
| DB0ND-19 | 2026-09-03 06:03:48 | 52.29425 | 9.25402 | 108° | 78km/h | 5384m | -7.8m/s | -10.4°C | 14.8% | 525.9hPa | 2.5V | 00:00:00 | 00:00:00 | 00:00:00 | |
| DL1XH1-15 | 2026-09-03 06:03:46 | 52.29456 | 9.25247 | 107° | 78km/h | 5423m | -7.6m/s | -10.8°C | 14.9% | 523.2hPa | 2.5V | 08:01:41 | 02:32:13 | 00:00:00 | |
| DL1XH-west | 2026-09-03 06:03:46 | 52.29438 | 9.25340 | 108° | 78km/h | 5400m | -7.8m/s | -10.6°C | 18.8% | 524.8hPa | 2.6V | 08:01:45 | 02:32:16 | 00:00:00 | |
| AA1-15 | 2026-09-03 06:03:45 | 52.29444 | 9.25309 | 107° | 78km/h | 5408m | -8m/s | -10.6°C | 18.5% | 524.2hPa | 2.5V | 08:01:45 | 02:32:15 | 00:00:00 | |
| DD8BA-10 | 2026-09-03 06:03:44 | 52.29449 | 9.25278 | 108° | 78km/h | 5416m | -7.9m/s | -10.7°C | 15.5% | 523.7hPa | 2.6V | 00:00:00 | 00:00:00 | 00:00:00 | |
| DB0UT-7 | 2026-09-03 06:03:43 | 52.29455 | 9.25247 | 108° | 75km/h | 5423m | -7.6m/s | -10.7°C | 14.9% | 523.2hPa | 2.6V | 00:00:00 | 02:32:13 | 00:00:00 | |
| DL4XJ-10 | 2026-09-03 06:03:42 | 52.29461 | 9.25215 | 107° | 77km/h | 5431m | -7.5m/s | -9.3°C | 0% | 0hPa | 2.6V | 00:00:00 | 00:00:00 | 00:00:00 | |
| DL1CLM-18 | 2026-09-03 06:03:41 | 52.29461 | 9.25215 | 108° | 80km/h | 5431m | -7.6m/s | -10.8°C | 14.2% | 522.8hPa | 2.6V | 00:00:00 | 00:00:00 | 00:00:00 | |
| DB0DAN | 2026-09-03 06:03:40 | 52.29473 | 9.25153 | 107° | 75km/h | 5446m | -7.8m/s | -10.9°C | 13.4% | 521.65hPa | 2.6V | 00:00:00 | 00:00:00 | 00:00:00 | |
| DF8AY | 2026-09-03 06:03:38 | 52.29484 | 9.25091 | 106° | 78km/h | 5462m | -7.9m/s | -11°C | 16% | 520.5hPa | 2.5V | 08:02:36 | 02:32:08 | 00:00:00 | |
| DJ2DS-15 | 2026-09-03 06:03:38 | 52.29484 | 9.25091 | 107° | 75km/h | 5462m | -7.9m/s | -11.0°C | 13.8% | 520.4hPa | 2.5V | 00:00:00 | 02:32:08 | 00:00:00 | |
| DL1XH-15 | 2026-09-03 06:03:37 | 52.29516 | 9.24907 | 105° | 77km/h | 5509m | -8m/s | -11.3°C | 13.8% | 517.5hPa | 2.5V | 08:01:52 | 02:32:02 | 00:00:00 | |
| DL1XH-west | 2026-09-03 06:03:36 | 52.29495 | 9.25029 | 106° | 77km/h | 5478m | -8m/s | -11.1°C | 16.1% | 519.5hPa | 2.6V | 08:02:36 | 02:32:06 | 00:00:00 | |
| AA1-15 | 2026-09-03 06:03:34 | 52.29506 | 9.24968 | 106° | 77km/h | 5493m | -8.1m/s | -11.2°C | 15.9% | 518.5hPa | 2.6V | 08:02:36 | 02:32:04 | 00:00:00 | |
| DF8AY | 2026-09-03 06:03:28 | 52.29537 | 9.24786 | 106° | 77km/h | 5540m | -7.8m/s | -11.6°C | 15.6% | 515.4hPa | 2.6V | 08:02:36 | 02:31:58 | 00:00:00 | |
| BIOWL1-15 | 2026-09-03 06:03:26 | 52.29547 | 9.24726 | 105° | 75km/h | 5556m | -7.9m/s | -11.7°C | 15.1% | 514.3hPa | 2.5V | 08:02:36 | 02:31:56 | 00:00:00 | |
| DB0DAN | 2026-09-03 06:03:25 | 52.29552 | 9.24697 | 105° | 71km/h | 5564m | -7.8m/s | -11.8°C | 12.3% | 513.69hPa | 2.5V | 00:00:00 | 00:00:00 | 00:00:00 | |
| DL4BBY-15 | 2026-09-03 06:03:25 | 52.29551 | 9.24697 | 105° | 71km/h | 5564m | -7.8m/s | -10.3°C | 0% | 0hPa | 2.6V | 00:00:00 | 00:00:00 | 00:00:00 | |
| DL1XH-west | 2026-09-03 06:03:25 | 52.29552 | 9.24697 | 105° | 75km/h | 5564m | -7.8m/s | -11.8°C | 14.9% | 513.7hPa | 2.5V | 08:02:36 | 02:31:55 | 00:00:00 | |
| DL1XH1-15 | 2026-09-03 06:03:24 | 52.29561 | 9.24637 | 104° | 73km/h | 5580m | -7.8m/s | -11.9°C | 12.6% | 512.8hPa | 2.6V | 08:02:01 | 02:31:53 | 00:00:00 | |
| DM0DOS-11 | 2026-09-03 06:03:24 | 52.29580 | 9.24519 | 103° | 73km/h | 5611m | -7.7m/s | -12°C | 10.9% | 510.6hPa | 2.5V | 08:02:05 | 02:31:49 | 00:00:00 | |
| AA1-15 | 2026-09-03 06:03:23 | 52.29561 | 9.24637 | 104° | 73km/h | 5580m | -7.8m/s | -11.9°C | 14.5% | 512.8hPa | 2.6V | 08:02:36 | 02:31:53 | 00:00:00 | |
| DF8AY | 2026-09-03 06:03:17 | 52.29588 | 9.24460 | 104° | 73km/h | 5627m | -7.7m/s | -12.1°C | 10.4% | 509.4hPa | 2.5V | 08:02:36 | 02:31:47 | 00:00:00 | |
| DL1XH-15 | 2026-09-03 06:03:17 | 52.29611 | 9.24316 | 105° | 73km/h | 5665m | -8.1m/s | -12.4°C | 9.5% | 506.9hPa | 2.5V | 08:02:12 | 02:31:42 | 00:00:00 | |
| DL1XH-west | 2026-09-03 06:03:15 | 52.29597 | 9.24402 | 105° | 71km/h | 5642m | -7.4m/s | -12.2°C | 10.1% | 508.4hPa | 2.6V | 08:02:36 | 02:31:45 | 00:00:00 | |
| DM0DOS-11 | 2026-09-03 06:03:14 | 52.29626 | 9.24231 | 105° | 71km/h | 5689m | -8.2m/s | -12.6°C | 9.6% | 505.2hPa | 2.6V | 08:02:15 | 02:31:39 | 00:00:00 | |
| DL1XH1-15 | 2026-09-03 06:03:14 | 52.29607 | 9.24345 | 104° | 71km/h | 5658m | -7.6m/s | -12.3°C | 9.4% | 507.6hPa | 2.6V | 08:02:11 | 02:31:43 | 00:00:00 | |
| AA1-15 | 2026-09-03 06:03:13 | 52.29607 | 9.24345 | 105° | 71km/h | 5658m | -7.6m/s | -12.3°C | 10.3% | 507.6hPa | 2.6V | 08:02:36 | 02:31:43 | 00:00:00 | |
| DB0UT-7 | 2026-09-03 06:03:13 | 52.29606 | 9.24345 | 105° | 69km/h | 5658m | -7.5m/s | -12.3°C | 9.4% | 507.5hPa | 2.5V | 00:00:00 | 00:00:00 | 00:00:00 | |
| DD1CC3-15 | 2026-09-03 06:03:12 | 52.29606 | 9.24345 | 106° | 71km/h | 5658m | -7.6m/s | -12.3°C | 8.8% | 507.6hPa | 2.5V | 08:02:00 | 00:00:00 | 00:00:00 | |
| DB0DAN | 2026-09-03 06:03:10 | 52.29621 | 9.24259 | 106° | 68km/h | 5681m | -7.8m/s | -12.5°C | 9% | 505.9hPa | 2.5V | 00:00:00 | 00:00:00 | 00:00:00 | |
| DF8AY-15 | 2026-09-03 06:03:09 | 52.29626 | 9.24231 | 106° | 69km/h | 5689m | -8.2m/s | -12.5°C | 9.6% | 505.2hPa | 2.6V | 00:00:00 | 02:31:39 | 00:00:00 | |
| GOEST3-10 | 2026-09-03 06:03:08 | 52.29630 | 9.24203 | 107° | 69km/h | 5697m | -7.5m/s | -12.6°C | 9.7% | 504.9hPa | 2.6V | 00:00:00 | 02:31:38 | 00:00:00 | |
| DL1XH-15 | 2026-09-03 06:03:07 | 52.29662 | 9.24040 | 108° | 68km/h | 5744m | -7.8m/s | -12.9°C | 12.1% | 501.8hPa | 2.6V | 08:02:22 | 02:31:32 | 00:00:00 | |
| DF8AY | 2026-09-03 06:03:06 | 52.29641 | 9.24148 | 107° | 69km/h | 5712m | -8.3m/s | -12.7°C | 11.3% | 503.7hPa | 2.6V | 08:02:36 | 02:31:36 | 00:00:00 | |
| DL1XH-west | 2026-09-03 06:03:05 | 52.29646 | 9.24121 | 107° | 69km/h | 5720m | -7.8m/s | -12.7°C | 12.3% | 503.2hPa | 2.5V | 08:02:36 | 02:31:35 | 00:00:00 | |
| DL1XH1-15 | 2026-09-03 06:03:04 | 52.29656 | 9.24067 | 108° | 69km/h | 5736m | -8.1m/s | -12.9°C | 11.4% | 502.4hPa | 2.5V | 08:02:21 | 02:31:33 | 00:00:00 | |
| AA1-15 | 2026-09-03 06:03:02 | 52.29662 | 9.24040 | 109° | 68km/h | 5744m | -7.8m/s | -12.9°C | 14% | 501.8hPa | 2.6V | 08:02:36 | 02:31:32 | 00:00:00 | |
| DL4XJ-10 | 2026-09-03 06:03:02 | 52.29662 | 9.24040 | 109° | 69km/h | 5744m | -7.8m/s | -11.5°C | 0% | 0hPa | 2.5V | 00:00:00 | 00:00:00 | 00:00:00 | |
| BIOWL9-15 | 2026-09-03 06:02:59 | 52.29679 | 9.23960 | 110° | 69km/h | 5767m | -7.7m/s | -13.2°C | 13.2% | 500.1hPa | 2.5V | 00:00:00 | 00:00:00 | 00:00:00 | |
| DJ2DS-15 | 2026-09-03 06:02:58 | 52.29686 | 9.23934 | 113° | 69km/h | 5775m | -7.7m/s | -13.2°C | 15.2% | 499.6hPa | 2.5V | 08:02:00 | 02:31:28 | 00:00:00 | |
| DL1XH-15 | 2026-09-03 06:02:57 | 52.29724 | 9.23776 | 112° | 68km/h | 5823m | -7.8m/s | -13.7°C | 34.2% | 496.6hPa | 2.6V | 08:02:32 | 02:31:22 | 00:00:00 | |
| DF8AY | 2026-09-03 06:02:56 | 52.29705 | 9.23855 | 112° | 68km/h | 5799m | -8.4m/s | -13.4°C | 26.6% | 498.1hPa | 2.6V | 08:02:36 | 02:31:25 | 00:00:00 | |
| SONCRA | 2026-09-03 06:02:56 | 52.29705 | 9.23855 | 111° | 68km/h | 5799m | -8.4m/s | -13.4°C | 21.7% | 498.1hPa | 2.6V | 00:00:00 | 00:00:00 | 00:00:00 | |
| DB0DAN | 2026-09-03 06:02:55 | 52.29705 | 9.23855 | 111° | 66km/h | 5799m | -8.4m/s | -13.4°C | 21.7% | 498.1hPa | 2.6V | 00:00:00 | 00:00:00 | 00:00:00 | |
| DD1CC8 | 2026-09-03 06:02:55 | 52.29711 | 9.23828 | 110° | 68km/h | 5807m | -8.3m/s | -13.5°C | 23.2% | 497.7hPa | 2.6V | 00:00:00 | 00:00:00 | 00:00:00 | |
| DL1XH1-15 | 2026-09-03 06:02:54 | 52.29717 | 9.23802 | 111° | 69km/h | 5815m | -8m/s | -13.6°C | 29.2% | 497.1hPa | 2.6V | 08:02:31 | 02:31:23 | 00:00:00 | |
| DL1XH-west | 2026-09-03 06:02:54 | 52.29711 | 9.23828 | 111° | 68km/h | 5807m | -8.3m/s | -13.5°C | 28.3% | 497.7hPa | 2.6V | 08:02:36 | 02:31:24 | 00:00:00 | |
| AA1-15 | 2026-09-03 06:02:52 | 52.29724 | 9.23776 | 113° | 68km/h | 5823m | -7.8m/s | -13.7°C | 38.6% | 496.6hPa | 2.6V | 08:02:36 | 02:31:22 | 00:00:00 | |
| DJ2DS-15 | 2026-09-03 06:02:48 | 52.29750 | 9.23671 | 112° | 68km/h | 5855m | -7.8m/s | -14.0°C | 49.3% | 494.4hPa | 2.5V | 00:00:00 | 00:00:00 | 00:00:00 | |
| DL1XH-15 | 2026-09-03 06:02:47 | 52.29788 | 9.23511 | 110° | 69km/h | 5902m | -8.2m/s | -14.3°C | 52.3% | 491.4hPa | 2.5V | 08:02:42 | 02:31:12 | 00:00:00 | |
| DF8AY | 2026-09-03 06:02:45 | 52.29769 | 9.23591 | 111° | 69km/h | 5878m | -7.7m/s | -14.1°C | 56.1% | 493hPa | 2.6V | 08:03:27 | 02:31:15 | 00:00:00 | |
| DL1XH1-15 | 2026-09-03 06:02:44 | 52.29782 | 9.23537 | 111° | 69km/h | 5894m | -7.7m/s | -14.2°C | 52.6% | 492hPa | 2.5V | 08:02:41 | 02:31:13 | 00:00:00 | |
| BIOWL1-15 | 2026-09-03 06:02:44 | 52.29775 | 9.23564 | 111° | 69km/h | 5886m | -8.1m/s | -14.2°C | 56.3% | 492.5hPa | 2.5V | 08:03:27 | 02:31:14 | 00:00:00 | |
| DL1XH-west | 2026-09-03 06:02:43 | 52.29782 | 9.23537 | 112° | 69km/h | 5894m | -7.7m/s | -14.2°C | 56.7% | 492hPa | 2.5V | 08:03:27 | 02:31:13 | 00:00:00 | |
| AA1-15 | 2026-09-03 06:02:41 | 52.29794 | 9.23484 | 110° | 68km/h | 5910m | -7.7m/s | -14.4°C | 56.1% | 491hPa | 2.6V | 08:04:18 | 02:31:11 | 00:00:00 | |
| DB0DAN | 2026-09-03 06:02:40 | 52.29800 | 9.23457 | 110° | 66km/h | 5917m | -8m/s | -14.4°C | 49.1% | 490.43hPa | 2.6V | 00:00:00 | 00:00:00 | 00:00:00 | |
| DO9LL-15 | 2026-09-03 06:02:40 | 52.29800 | 9.23457 | 110° | 69km/h | 5917m | -8.0m/s | -14.4°C | 51.2% | 490.4hPa | 2.6V | 00:00:00 | 02:31:10 | 00:00:00 | |
| SMARD9-10 | 2026-09-03 06:02:39 | 52.29800 | 9.23457 | 111° | 69km/h | 5917m | -8.0m/s | -14.4°C | 49.1% | 490.4hPa | 2.6V | 00:00:00 | 00:00:00 | 00:00:00 | |
| DJ2DS-15 | 2026-09-03 06:02:38 | 52.29812 | 9.23403 | 111° | 71km/h | 5933m | -7.9m/s | -14.5°C | 51.4% | 489.3hPa | 2.6V | 00:00:00 | 02:31:08 | 00:00:00 | |
| DL1XH-15 | 2026-09-03 06:02:37 | 52.29846 | 9.23241 | 107° | 69km/h | 5980m | -7.8m/s | -15°C | 49.8% | 486.4hPa | 2.6V | 08:02:52 | 02:31:02 | 00:00:00 | |
| DF8AY | 2026-09-03 06:02:35 | 52.29829 | 9.23323 | 109° | 71km/h | 5957m | -7.9m/s | -14.8°C | 56.1% | 487.9hPa | 2.5V | 08:03:27 | 02:31:05 | 00:00:00 | |
| DL1XH1-15 | 2026-09-03 06:02:34 | 52.29841 | 9.23268 | 109° | 69km/h | 5973m | -7.9m/s | -14.9°C | 50.8% | 486.9hPa | 2.6V | 08:02:51 | 02:31:03 | 00:00:00 | |
| BIOWL1-15 | 2026-09-03 06:02:34 | 52.29835 | 9.23295 | 109° | 71km/h | 5965m | -8.2m/s | -14.8°C | 55.6% | 487.3hPa | 2.6V | 08:03:27 | 02:31:04 | 00:00:00 | |
| DL1XH-west | 2026-09-03 06:02:33 | 52.29841 | 9.23268 | 109° | 69km/h | 5973m | -7.9m/s | -14.9°C | 54.9% | 486.9hPa | 2.6V | 08:03:27 | 02:31:03 | 00:00:00 | |
| AA1-15 | 2026-09-03 06:02:31 | 52.29852 | 9.23213 | 108° | 71km/h | 5988m | -8.2m/s | -15°C | 52.8% | 485.9hPa | 2.5V | 08:04:18 | 02:31:01 | 00:00:00 | |
| DF8AY-15 | 2026-09-03 06:02:29 | 52.29863 | 9.23158 | 109° | 71km/h | 6004m | -7.7m/s | -15.1°C | 49.7% | 484.8hPa | 2.6V | 00:00:00 | 02:30:59 | 00:00:00 | |
| DL1XH1-15 | 2026-09-03 06:02:28 | 52.29893 | 9.22991 | 105° | 71km/h | 6051m | -7.7m/s | -15.5°C | 46.9% | 481.8hPa | 2.6V | 08:03:01 | 02:30:53 | 00:00:00 | |
| DL1XH-15 | 2026-09-03 06:02:27 | 52.29898 | 9.22962 | 105° | 71km/h | 6059m | -7.5m/s | -15.6°C | 47.2% | 481.3hPa | 2.6V | 08:03:02 | 02:30:52 | 00:00:00 | |
| GOEST3-10 | 2026-09-03 06:02:27 | 52.29873 | 9.23103 | 107° | 71km/h | 6019m | -8.2m/s | -15.2°C | 49.8% | 483.8hPa | 2.6V | 08:02:00 | 02:30:57 | 00:00:00 | |
| DB0DAN | 2026-09-03 06:02:25 | 52.29883 | 9.23047 | 107° | 68km/h | 6035m | -7.9m/s | -15.4°C | 45.7% | 482.77hPa | 2.5V | 00:00:00 | 00:00:00 | 00:00:00 | |
| BIOWL1-15 | 2026-09-03 06:02:25 | 52.29893 | 9.22991 | 106° | 71km/h | 6051m | -7.7m/s | -15.5°C | 51.1% | 481.8hPa | 2.6V | 08:03:27 | 02:30:53 | 00:00:00 | |
| DF8AY | 2026-09-03 06:02:24 | 52.29888 | 9.23019 | 106° | 69km/h | 6043m | -7.9m/s | -15.4°C | 51.4% | 482.3hPa | 2.5V | 08:03:27 | 02:30:54 | 00:00:00 | |
| DL1XH-west | 2026-09-03 06:02:22 | 52.29898 | 9.22962 | 106° | 71km/h | 6059m | -7.5m/s | -15.6°C | 51.4% | 481.3hPa | 2.6V | 08:03:27 | 02:30:52 | 00:00:00 | |
| AA1-15 | 2026-09-03 06:02:20 | 52.29907 | 9.22905 | 104° | 73km/h | 6073m | -7.8m/s | -15.7°C | 53.6% | 480.4hPa | 2.6V | 08:04:18 | 02:30:50 | 00:00:00 | |
| DL1CLM-18 | 2026-09-03 06:02:19 | 52.29907 | 9.22905 | 105° | 73km/h | 6074m | -7.8m/s | -15.7°C | 47.4% | 480.4hPa | 2.5V | 00:00:00 | 00:00:00 | 00:00:00 | |
| DL1XH1-15 | 2026-09-03 06:02:18 | 52.29938 | 9.22704 | 103° | 71km/h | 6128m | -7.9m/s | -16.1°C | 55.7% | 476.9hPa | 2.5V | 08:03:11 | 02:30:43 | 00:00:00 | |
| DL1XH-15 | 2026-09-03 06:02:17 | 52.29942 | 9.22675 | 102° | 71km/h | 6135m | -7.8m/s | -16.2°C | 57.1% | 476.5hPa | 2.5V | 08:03:12 | 02:30:42 | 00:00:00 | |
| DJ2DS-15 | 2026-09-03 06:02:17 | 52.29921 | 9.22819 | 104° | 73km/h | 6097m | -7.5m/s | -15.8°C | 52.3% | 478.8hPa | 2.6V | 00:00:00 | 02:30:47 | 00:00:00 | |
| DC6BW-12 | 2026-09-03 06:02:16 | 52.29921 | 9.22819 | 105° | 71km/h | 6097m | -7.6m/s | -15.9°C | 50.1% | 478.9hPa | 2.6V | 08:03:00 | 00:00:00 | 00:00:00 | |
| DB0ND-19 | 2026-09-03 06:02:15 | 52.29929 | 9.22761 | 103° | 71km/h | 6112m | -7.8m/s | -16.0°C | 51.8% | 477.9hPa | 2.6V | 00:00:00 | 00:00:00 | 00:00:00 | |
| DM0DOS-11 | 2026-09-03 06:02:14 | 52.29953 | 9.22588 | 102° | 73km/h | 6159m | -7.6m/s | -16.4°C | 60.2% | 474.9hPa | 2.6V | 08:03:15 | 02:30:39 | 00:00:00 | |
| BIOWL1-15 | 2026-09-03 06:02:13 | 52.29938 | 9.22704 | 103° | 71km/h | 6128m | -7.9m/s | -16.1°C | 59.5% | 476.9hPa | 2.5V | 08:03:27 | 02:30:43 | 00:00:00 | |
| DL1XH-west | 2026-09-03 06:02:11 | 52.29946 | 9.22646 | 102° | 71km/h | 6143m | -7.8m/s | -16.3°C | 61.7% | 476.1hPa | 2.6V | 08:03:27 | 02:30:41 | 00:00:00 | |
| DB0DAN | 2026-09-03 06:02:10 | 52.29950 | 9.22617 | 102° | 69km/h | 6151m | -8m/s | -16.3°C | 56.7% | 475.62hPa | 2.6V | 00:00:00 | 00:00:00 | 00:00:00 | |
| AA1-15 | 2026-09-03 06:02:10 | 52.29950 | 9.22617 | 102° | 73km/h | 6151m | -8m/s | -16.3°C | 62.8% | 475.6hPa | 2.6V | 08:04:18 | 02:30:40 | 00:00:00 | |
| BUE01 | 2026-09-03 06:02:09 | 52.29957 | 9.22559 | 102° | 73km/h | 6166m | -7.9m/s | -16.5°C | 58.4% | 474.5hPa | 2.6V | 00:00:00 | 00:00:00 | 00:00:00 | |
| DL1XH1-15 | 2026-09-03 06:02:08 | 52.29976 | 9.22412 | 101° | 73km/h | 6205m | -7.5m/s | -16.8°C | 59.6% | 472hPa | 2.6V | 08:03:21 | 02:30:33 | 00:00:00 | |
| DO9LL-15 | 2026-09-03 06:02:08 | 52.29957 | 9.22558 | 103° | 73km/h | 6167m | -7.8m/s | -16.4°C | 61.0% | 474.5hPa | 2.5V | 00:00:00 | 02:30:38 | 00:00:00 | |
| DL1XH-15 | 2026-09-03 06:02:07 | 52.29980 | 9.22382 | 102° | 73km/h | 6213m | -7.5m/s | -16.9°C | 59.5% | 471.7hPa | 2.5V | 08:03:22 | 02:30:32 | 00:00:00 | |
| BIOWL1-15 | 2026-09-03 06:02:03 | 52.29980 | 9.22382 | 102° | 73km/h | 6213m | -7.5m/s | -16.9°C | 63.1% | 471.7hPa | 2.5V | 08:03:27 | 02:30:32 | 00:00:00 | |
| DF8AY | 2026-09-03 06:02:03 | 52.29976 | 9.22412 | 102° | 73km/h | 6205m | -7.5m/s | -16.8°C | 63.3% | 472hPa | 2.6V | 08:03:27 | 02:30:33 | 00:00:00 | |
| DL4XJ-10 | 2026-09-03 06:02:02 | 52.29980 | 9.22382 | 103° | 73km/h | 6213m | -7.5m/s | -15.4°C | 0% | 0hPa | 2.6V | 00:00:00 | 00:00:00 | 00:00:00 | |
| GOEST3-10 | 2026-09-03 06:02:01 | 52.29984 | 9.22353 | 102° | 73km/h | 6220m | -7.6m/s | -16.9°C | 58.7% | 471.0hPa | 2.6V | 00:00:00 | 00:00:00 | 00:00:00 | |
| DM0DOS-11 | 2026-09-03 06:02:00 | 52.29992 | 9.22294 | 101° | 73km/h | 6236m | -8.1m/s | -17.1°C | 60.7% | 470.2hPa | 2.6V | 08:03:25 | 02:30:29 | 00:00:00 | |
| DL1XH-west | 2026-09-03 06:02:00 | 52.29988 | 9.22324 | 102° | 73km/h | 6228m | -7.8m/s | -17°C | 63.2% | 470.6hPa | 2.6V | 08:03:27 | 02:30:30 | 00:00:00 | |
| AA1-15 | 2026-09-03 06:01:59 | 52.29992 | 9.22294 | 102° | 73km/h | 6236m | -8.1m/s | -17.1°C | 64.4% | 470.2hPa | 2.6V | 08:04:18 | 02:30:29 | 00:00:00 | |
| EDDB2-12 | 2026-09-03 06:01:59 | 52.30003 | 9.22205 | 101° | 73km/h | 6259m | -7.7m/s | -17.3°C | 59.8% | 468.6hPa | 2.6V | 00:00:00 | 00:00:00 | 00:00:00 | |
| DL1XH1-15 | 2026-09-03 06:01:58 | 52.30013 | 9.22115 | 100° | 73km/h | 6282m | -7.9m/s | -17.6°C | 64.3% | 467.2hPa | 2.6V | 08:03:31 | 02:30:23 | 00:00:00 | |
| DL1XH-15 | 2026-09-03 06:01:57 | 52.30017 | 9.22085 | 100° | 73km/h | 6290m | -7.6m/s | -17.6°C | 65.1% | 466.8hPa | 2.6V | 08:03:32 | 02:30:22 | 00:00:00 | |
| DJ2DS-15 | 2026-09-03 06:01:57 | 52.29999 | 9.22235 | 102° | 75km/h | 6252m | -7.9m/s | -17.2°C | 62.1% | 469.1hPa | 2.5V | 00:00:00 | 02:30:27 | 00:00:00 | |
| DB0DAN | 2026-09-03 06:01:55 | 52.30006 | 9.22175 | 101° | 71km/h | 6267m | -7.7m/s | -17.4°C | 60.3% | 468.14hPa | 2.5V | 00:00:00 | 00:00:00 | 00:00:00 | |
| DM0DOS-11 | 2026-09-03 06:01:54 | 52.30027 | 9.21996 | 100° | 73km/h | 6312m | -7.9m/s | -17.9°C | 66.1% | 465.3hPa | 2.5V | 08:03:35 | 02:30:19 | 00:00:00 | |
| BIOWL1-15 | 2026-09-03 06:01:52 | 52.30017 | 9.22085 | 101° | 73km/h | 6290m | -7.6m/s | -17.6°C | 68.5% | 466.8hPa | 2.6V | 08:04:18 | 02:30:22 | 00:00:00 | |
| HSKMA3-T | 2026-09-03 06:01:51 | 52.30020 | 9.22055 | 100° | 73km/h | 6297m | -7.5m/s | -17.7°C | 68.8% | 466.2hPa | 2.6V | 08:06:00 | 02:30:21 | 00:00:00 | |
| DL1XH-west | 2026-09-03 06:01:49 | 52.30027 | 9.21996 | 100° | 73km/h | 6312m | -7.9m/s | -17.9°C | 69.4% | 465.3hPa | 2.5V | 08:04:18 | 02:30:19 | 00:00:00 | |
| DF8AY-15 | 2026-09-03 06:01:49 | 52.30027 | 9.21996 | 101° | 75km/h | 6313m | -7.9m/s | -17.8°C | 66.1% | 465.3hPa | 2.5V | 00:00:00 | 02:30:19 | 00:00:00 | |
| DL1XH-15 | 2026-09-03 06:01:47 | 52.30051 | 9.21786 | 99° | 73km/h | 6366m | -7.7m/s | -18.5°C | 69.2% | 461.9hPa | 2.5V | 08:03:42 | 02:30:12 | 00:00:00 | |
| DM0DOS-11 | 2026-09-03 06:01:44 | 52.30061 | 9.21696 | 100° | 75km/h | 6390m | -7.8m/s | -18.8°C | 70.4% | 460.4hPa | 2.6V | 08:03:45 | 02:30:09 | 00:00:00 | |
| BIOWL1-15 | 2026-09-03 06:01:42 | 52.30051 | 9.21786 | 100° | 73km/h | 6366m | -7.7m/s | -18.5°C | 71.5% | 461.9hPa | 2.5V | 08:04:18 | 02:30:12 | 00:00:00 | |
| DL4XJ-10 | 2026-09-03 06:01:42 | 52.30051 | 9.21786 | 100° | 75km/h | 6366m | -7.7m/s | -17.0°C | 0% | 0hPa | 2.6V | 00:00:00 | 00:00:00 | 00:00:00 | |
| DL3OBA | 2026-09-03 06:01:41 | 52.30051 | 9.21786 | 101° | 73km/h | 6366m | -7.7m/s | -18.5°C | 66.2% | 461.9hPa | 2.6V | 08:04:00 | 00:00:00 | 00:00:00 | |
| DB0DAN | 2026-09-03 06:01:40 | 52.30057 | 9.21726 | 101° | 69km/h | 6382m | -7.9m/s | -18.7°C | 67% | 461.03hPa | 2.6V | 00:00:00 | 00:00:00 | 00:00:00 | |
| DL1XH-west | 2026-09-03 06:01:38 | 52.30064 | 9.21665 | 101° | 75km/h | 6397m | -7.9m/s | -18.9°C | 72.6% | 460.1hPa | 2.6V | 08:04:18 | 02:30:08 | 00:00:00 | |
| DL1XH-15 | 2026-09-03 06:01:37 | 52.30085 | 9.21483 | 99° | 75km/h | 6443m | -7.8m/s | -19.4°C | 72.2% | 457.4hPa | 2.6V | 08:03:52 | 02:30:02 | 00:00:00 | |
| DJ2DS-15 | 2026-09-03 06:01:37 | 52.30068 | 9.21635 | 100° | 75km/h | 6405m | -7.9m/s | -18.9°C | 71.3% | 459.5hPa | 2.5V | 00:00:00 | 02:30:07 | 00:00:00 | |
| DJ2DS-15 | 2026-09-03 06:01:36 | 52.30074 | 9.21574 | 100° | 73km/h | 6420m | -7.7m/s | -19.2°C | 68.8% | 458.7hPa | 2.5V | 00:00:00 | 00:00:00 | 00:00:00 | |
| DO9LL-15 | 2026-09-03 06:01:35 | 52.30074 | 9.21574 | 101° | 75km/h | 6421m | -7.6m/s | -19.1°C | 71.9% | 458.6hPa | 2.5V | 00:00:00 | 02:30:05 | 00:00:00 | |
| DM0DOS-11 | 2026-09-03 06:01:34 | 52.30095 | 9.21392 | 100° | 77km/h | 6466m | -8m/s | -19.6°C | 72.9% | 455.8hPa | 2.5V | 08:03:55 | 02:29:59 | 00:00:00 | |
| DF8AY | 2026-09-03 06:01:31 | 52.30088 | 9.21453 | 99° | 73km/h | 6451m | -7.5m/s | -19.5°C | 73.3% | 456.8hPa | 2.5V | 08:04:18 | 02:30:01 | 00:00:00 | |
| GOEST3-10 | 2026-09-03 06:01:30 | 52.30091 | 9.21423 | 101° | 75km/h | 6459m | -7.7m/s | -19.5°C | 72.6% | 456.1hPa | 2.5V | 00:00:00 | 02:30:00 | 00:00:00 | |
| DF8AY-15 | 2026-09-03 06:01:29 | 52.30094 | 9.21392 | 101° | 77km/h | 6466m | -8.0m/s | -19.6°C | 72.9% | 455.8hPa | 2.5V | 00:00:00 | 02:29:59 | 00:00:00 | |
| DL1XH1-15 | 2026-09-03 06:01:28 | 52.30113 | 9.21208 | 98° | 75km/h | 6513m | -8m/s | -20.1°C | 74.6% | 453hPa | 2.5V | 08:04:01 | 02:29:53 | 00:00:00 | |
| DL1XH-west | 2026-09-03 06:01:27 | 52.30101 | 9.21331 | 99° | 75km/h | 6482m | -7.7m/s | -19.8°C | 74.5% | 455hPa | 2.6V | 08:04:18 | 02:29:57 | 00:00:00 | |
| DB0DAN | 2026-09-03 06:01:25 | 52.30107 | 9.21270 | 100° | 71km/h | 6497m | -8m/s | -20°C | 70.5% | 453.98hPa | 2.6V | 00:00:00 | 00:00:00 | 00:00:00 | |
| GOEST3-10 | 2026-09-03 06:01:25 | 52.30107 | 9.21270 | 101° | 75km/h | 6497m | -8.0m/s | -19.9°C | 73.8% | 453.9hPa | 2.6V | 00:00:00 | 00:00:00 | 00:00:00 | |
| DM0DOS-11 | 2026-09-03 06:01:24 | 52.30126 | 9.21085 | 99° | 77km/h | 6544m | -7.7m/s | -20.4°C | 76% | 451.1hPa | 2.6V | 08:04:05 | 02:29:49 | 00:00:00 | |
| BIOWL1-15 | 2026-09-03 06:01:21 | 52.30119 | 9.21147 | 100° | 75km/h | 6528m | -8m/s | -20.3°C | 74.9% | 452.1hPa | 2.6V | 08:04:18 | 02:29:51 | 00:00:00 | |
| GOEST3-10 | 2026-09-03 06:01:20 | 52.30122 | 9.21116 | 101° | 77km/h | 6536m | -7.9m/s | -20.3°C | 75.5% | 451.5hPa | 2.6V | 00:00:00 | 02:29:50 | 00:00:00 | |
| AA1-15 | 2026-09-03 06:01:20 | 52.30122 | 9.21116 | 100° | 77km/h | 6536m | -7.9m/s | -20.3°C | 75.3% | 451.5hPa | 2.6V | 08:04:18 | 02:29:50 | 00:00:00 | |
| DL1XH1-15 | 2026-09-03 06:01:18 | 52.30143 | 9.20899 | 98° | 77km/h | 6590m | -8m/s | -20.8°C | 78.2% | 448.2hPa | 2.6V | 08:04:11 | 02:29:43 | 00:00:00 | |
| DL1XH-15 | 2026-09-03 06:01:17 | 52.30146 | 9.20868 | 98° | 78km/h | 6598m | -8.2m/s | -20.8°C | 78.7% | 447.8hPa | 2.5V | 08:04:12 | 02:29:42 | 00:00:00 | |
| DL1XH-west | 2026-09-03 06:01:17 | 52.30132 | 9.21023 | 99° | 75km/h | 6559m | -7.6m/s | -20.5°C | 76.3% | 450.2hPa | 2.5V | 08:04:18 | 02:29:47 | 00:00:00 | |
| DJ2DS-15 | 2026-09-03 06:01:17 | 52.30132 | 9.21023 | 99° | 78km/h | 6559m | -7.6m/s | -20.5°C | 76.9% | 450.2hPa | 2.6V | 00:00:00 | 02:29:47 | 00:00:00 | |
| GOEST3-10 | 2026-09-03 06:01:15 | 52.30138 | 9.20962 | 99° | 77km/h | 6575m | -7.9m/s | -20.6°C | 77.6% | 449.1hPa | 2.6V | 00:00:00 | 00:00:00 | 00:00:00 | |
| DM0DOS-11 | 2026-09-03 06:01:14 | 52.30155 | 9.20772 | 98° | 78km/h | 6621m | -8.1m/s | -21°C | 79.5% | 446.3hPa | 2.6V | 08:04:15 | 02:29:39 | 00:00:00 | |
| DF8AY | 2026-09-03 06:01:11 | 52.30149 | 9.20836 | 98° | 78km/h | 6606m | -8.1m/s | -20.9°C | 78% | 447.4hPa | 2.5V | 08:04:18 | 02:29:41 | 00:00:00 | |
| DB0DAN | 2026-09-03 06:01:10 | 52.30152 | 9.20804 | 98° | 75km/h | 6614m | -8m/s | -21°C | 75.8% | 446.84hPa | 2.6V | 00:00:00 | 00:00:00 | 00:00:00 | |
| BIOWL1-15 | 2026-09-03 06:01:10 | 52.30152 | 9.20804 | 98° | 78km/h | 6614m | -8m/s | -21°C | 78.2% | 446.8hPa | 2.6V | 08:04:18 | 02:29:40 | 00:00:00 | |
| AA1-15 | 2026-09-03 06:01:09 | 52.30155 | 9.20772 | 99° | 78km/h | 6621m | -8.1m/s | -21°C | 78.5% | 446.3hPa | 2.6V | 08:04:18 | 02:29:39 | 00:00:00 | |
| DF8AY-15 | 2026-09-03 06:01:09 | 52.30155 | 9.20772 | 99° | 82km/h | 6622m | -8.1m/s | -21.0°C | 79.5% | 446.3hPa | 2.6V | 08:04:00 | 02:29:39 | 00:00:00 | |
| DL1XH1-15 | 2026-09-03 06:01:08 | 52.30172 | 9.20578 | 97° | 80km/h | 6668m | -8.1m/s | -21.3°C | 81.9% | 443.6hPa | 2.6V | 08:04:21 | 02:29:33 | 00:00:00 | |
| DL1XH-15 | 2026-09-03 06:01:07 | 52.30175 | 9.20545 | 97° | 82km/h | 6677m | -7.9m/s | -21.4°C | 82.2% | 443.1hPa | 2.6V | 08:04:22 | 02:29:32 | 00:00:00 | |
| DL1XH-west | 2026-09-03 06:01:06 | 52.30163 | 9.20676 | 98° | 78km/h | 6646m | -7.9m/s | -21.2°C | 79.3% | 445hPa | 2.5V | 08:04:18 | 02:29:36 | 00:00:00 | |
| DL4BBY-15 | 2026-09-03 06:01:06 | 52.30163 | 9.20676 | 99° | 84km/h | 6646m | -7.8m/s | -19.8°C | 0% | 0hPa | 2.5V | 00:00:00 | 00:00:00 | 00:00:00 | |
| GOEST3-10 | 2026-09-03 06:01:05 | 52.30166 | 9.20643 | 99° | 80km/h | 6653m | -7.6m/s | -21.2°C | 80.8% | 444.5hPa | 2.5V | 00:00:00 | 00:00:00 | 00:00:00 | |
| DM0DOS-11 | 2026-09-03 06:01:04 | 52.30183 | 9.20445 | 97° | 82km/h | 6700m | -8m/s | -21.5°C | 82.8% | 441.6hPa | 2.5V | 08:04:25 | 02:29:29 | 00:00:00 | |
| DF8AY | 2026-09-03 06:01:00 | 52.30180 | 9.20478 | 97° | 82km/h | 6692m | -8m/s | -21.5°C | 81.5% | 442.2hPa | 2.5V | 08:05:09 | 02:29:30 | 00:00:00 | |
| DO2JMG | 2026-09-03 06:00:59 | 52.30183 | 9.20445 | 98° | 82km/h | 6700m | -8m/s | -21.5°C | 81.6% | 441.6hPa | 2.5V | 08:05:09 | 02:29:29 | 00:00:00 | |
| AA1-15 | 2026-09-03 06:00:58 | 52.30186 | 9.20412 | 98° | 82km/h | 6708m | -7.9m/s | -21.6°C | 81.6% | 441.2hPa | 2.6V | 08:05:09 | 02:29:28 | 00:00:00 | |
| DL1XH-15 | 2026-09-03 06:00:57 | 52.30203 | 9.20204 | 97° | 88km/h | 6756m | -7.9m/s | -22°C | 80.9% | 438.4hPa | 2.6V | 08:04:32 | 02:29:22 | 00:00:00 | |
| DL3AQ-11 | 2026-09-03 06:00:57 | 52.30192 | 9.20344 | 97° | 84km/h | 6724m | -8.1m/s | -21.7°C | 78.9% | 440.3hPa | 2.5V | 00:00:00 | 00:00:00 | 00:00:00 | |
| SMARD9-10 | 2026-09-03 06:00:56 | 52.30189 | 9.20378 | 98° | 82km/h | 6716m | -8.1m/s | -21.6°C | 79.1% | 440.7hPa | 2.5V | 00:00:00 | 00:00:00 | 00:00:00 | |
| DB0DAN | 2026-09-03 06:00:55 | 52.30194 | 9.20310 | 97° | 80km/h | 6732m | -8m/s | -21.8°C | 78.4% | 439.89hPa | 2.5V | 00:00:00 | 00:00:00 | 00:00:00 | |
| DL1XH-west | 2026-09-03 06:00:55 | 52.30194 | 9.20310 | 97° | 86km/h | 6732m | -8m/s | -21.8°C | 80.6% | 439.9hPa | 2.5V | 08:05:09 | 02:29:25 | 00:00:00 | |
| GOEST3-10 | 2026-09-03 06:00:55 | 52.30194 | 9.20310 | 97° | 86km/h | 6732m | -7.9m/s | -21.7°C | 82.1% | 439.8hPa | 2.6V | 00:00:00 | 00:00:00 | 00:00:00 | |
| DM0DOS-11 | 2026-09-03 06:00:54 | 52.30212 | 9.20097 | 98° | 88km/h | 6779m | -8m/s | -22.2°C | 80.7% | 437.1hPa | 2.6V | 08:04:35 | 02:29:19 | 00:00:00 | |
| HSKMA3-T | 2026-09-03 06:00:51 | 52.30206 | 9.20168 | 98° | 88km/h | 6764m | -7.7m/s | -22.1°C | 78.3% | 438.1hPa | 2.5V | 08:06:00 | 02:29:21 | 00:00:00 | |
| DF8AY | 2026-09-03 06:00:50 | 52.30209 | 9.20133 | 98° | 88km/h | 6771m | -7.8m/s | -22.1°C | 78% | 437.5hPa | 2.5V | 08:05:09 | 02:29:20 | 00:00:00 | |
| BIOWL1-15 | 2026-09-03 06:00:49 | 52.30212 | 9.20097 | 98° | 88km/h | 6779m | -8m/s | -22.2°C | 77.6% | 437.1hPa | 2.6V | 08:05:09 | 02:29:19 | 00:00:00 | |
| DO2JMG | 2026-09-03 06:00:48 | 52.30215 | 9.20062 | 98° | 86km/h | 6787m | -8.2m/s | -22.3°C | 77.4% | 436.6hPa | 2.6V | 08:05:09 | 02:29:18 | 00:00:00 | |
| DL1XH-15 | 2026-09-03 06:00:47 | 52.30236 | 9.19854 | 99° | 84km/h | 6833m | -7.9m/s | -22.5°C | 81.2% | 433.8hPa | 2.6V | 08:04:42 | 02:29:12 | 00:00:00 | |
| SMARD9-15 | 2026-09-03 06:00:46 | 52.30225 | 9.19957 | 98° | 84km/h | 6810m | -7.6m/s | -22.3°C | 77.4% | 435.1hPa | 2.5V | 00:00:00 | 00:00:00 | 00:00:00 | |
| GOEST3-10 | 2026-09-03 06:00:45 | 52.30225 | 9.19957 | 99° | 84km/h | 6811m | -7.5m/s | -22.3°C | 81.1% | 435.0hPa | 2.5V | 00:00:00 | 00:00:00 | 00:00:00 | |
| DM0DOS-11 | 2026-09-03 06:00:44 | 52.30247 | 9.19751 | 100° | 84km/h | 6856m | -7.9m/s | -22.6°C | 83.6% | 432.3hPa | 2.5V | 08:04:45 | 02:29:09 | 00:00:00 | |
| DL1XH-west | 2026-09-03 06:00:44 | 52.30229 | 9.19923 | 99° | 84km/h | 6818m | -7.8m/s | -22.4°C | 77.9% | 434.6hPa | 2.5V | 08:05:09 | 02:29:14 | 00:00:00 | |
| DD8BA-10 | 2026-09-03 06:00:44 | 52.30229 | 9.19923 | 99° | 84km/h | 6818m | -7.7m/s | -22.4°C | 80.9% | 434.6hPa | 2.5V | 00:00:00 | 00:00:00 | 00:00:00 | |
| DB0UT-7 | 2026-09-03 06:00:43 | 52.30232 | 9.19888 | 100° | 84km/h | 6826m | -7.5m/s | -22.4°C | 80.9% | 434.2hPa | 2.5V | 00:00:00 | 02:29:13 | 00:00:00 | |
| DL4XJ-10 | 2026-09-03 06:00:42 | 52.30236 | 9.19854 | 100° | 84km/h | 6834m | -7.8m/s | -21.1°C | 0% | 0hPa | 2.5V | 00:00:00 | 00:00:00 | 00:00:00 | |
| DL1CLM-18 | 2026-09-03 06:00:41 | 52.30236 | 9.19854 | 100° | 84km/h | 6834m | -7.9m/s | -22.5°C | 77.5% | 433.8hPa | 2.5V | 00:00:00 | 00:00:00 | 00:00:00 | |
| DB0DAN | 2026-09-03 06:00:40 | 52.30243 | 9.19785 | 100° | 80km/h | 6849m | -7.9m/s | -22.6°C | 79% | 432.92hPa | 2.5V | 00:00:00 | 00:00:00 | 00:00:00 | |
| HSKMA3-T | 2026-09-03 06:00:40 | 52.30243 | 9.19785 | 100° | 84km/h | 6849m | -7.9m/s | -22.6°C | 79% | 432.9hPa | 2.5V | 08:06:00 | 02:29:10 | 00:00:00 | |
| GOEST3-10 | 2026-09-03 06:00:40 | 52.30243 | 9.19785 | 101° | 84km/h | 6849m | -7.8m/s | -22.5°C | 82.7% | 432.9hPa | 2.5V | 00:00:00 | 02:29:10 | 00:00:00 | |
| DL1XH1-15 | 2026-09-03 06:00:39 | 52.30274 | 9.19549 | 102° | 82km/h | 6904m | -7.9m/s | -22°C | 91.7% | 429.4hPa | 2.5V | 08:04:51 | 02:29:03 | 00:00:00 | |
| AA1-15 | 2026-09-03 06:00:38 | 52.30251 | 9.19717 | 102° | 84km/h | 6865m | -8.2m/s | -22.5°C | 81.5% | 432hPa | 2.5V | 08:05:09 | 02:29:08 | 00:00:00 | |
| DO2JMG | 2026-09-03 06:00:37 | 52.30256 | 9.19683 | 102° | 84km/h | 6873m | -8.2m/s | -22.3°C | 84.9% | 431.4hPa | 2.6V | 08:05:09 | 02:29:07 | 00:00:00 | |
| DL1XH-west | 2026-09-03 06:00:34 | 52.30270 | 9.19582 | 103° | 82km/h | 6896m | -7.9m/s | -21.9°C | 90.2% | 430.1hPa | 2.5V | 08:05:09 | 02:29:04 | 00:00:00 | |
| DD8BA-10 | 2026-09-03 06:00:34 | 52.30269 | 9.19582 | 103° | 82km/h | 6896m | -7.8m/s | -21.9°C | 91.4% | 430.1hPa | 2.6V | 00:00:00 | 00:00:00 | 00:00:00 | |
| DK9SH | 2026-09-03 06:00:32 | 52.30274 | 9.19549 | 104° | 82km/h | 6904m | -7.9m/s | -22.0°C | 87.7% | 429.4hPa | 2.6V | 08:05:00 | 00:00:00 | 00:00:00 | |
| GOEST3-10 | 2026-09-03 06:00:30 | 52.30289 | 9.19449 | 104° | 82km/h | 6928m | -7.9m/s | -22.1°C | 92.5% | 428.2hPa | 2.6V | 00:00:00 | 02:29:00 | 00:00:00 | |
| DF8AY-15 | 2026-09-03 06:00:29 | 52.30294 | 9.19416 | 104° | 84km/h | 6936m | -7.8m/s | -22.1°C | 92.8% | 427.7hPa | 2.6V | 00:00:00 | 02:28:59 | 00:00:00 | |
| DL1XH1-15 | 2026-09-03 06:00:28 | 52.30327 | 9.19218 | 105° | 84km/h | 6982m | -8m/s | -22.4°C | 89.4% | 425.1hPa | 2.6V | 08:05:01 | 02:28:53 | 00:00:00 | |
| AA1-15 | 2026-09-03 06:00:28 | 52.30300 | 9.19383 | 106° | 82km/h | 6943m | -7.8m/s | -22.2°C | 91.9% | 427.4hPa | 2.6V | 08:05:09 | 02:28:58 | 00:00:00 | |
| DL4BBY-15 | 2026-09-03 06:00:28 | 52.30299 | 9.19383 | 106° | 88km/h | 6943m | -7.7m/s | -20.8°C | 0% | 0hPa | 2.6V | 00:00:00 | 00:00:00 | 00:00:00 | |
| DL1XH-15 | 2026-09-03 06:00:27 | 52.30332 | 9.19185 | 104° | 82km/h | 6990m | -7.5m/s | -22.5°C | 88.9% | 424.7hPa | 2.6V | 08:05:02 | 02:28:52 | 00:00:00 | |
| DO2JMG | 2026-09-03 06:00:27 | 52.30305 | 9.19350 | 105° | 84km/h | 6951m | -7.9m/s | -22.2°C | 91.6% | 427hPa | 2.6V | 08:05:09 | 02:28:57 | 00:00:00 | |
| DL1CLM-18 | 2026-09-03 06:00:26 | 52.30305 | 9.19350 | 106° | 84km/h | 6951m | -7.9m/s | -22.2°C | 88.1% | 427.0hPa | 2.5V | 00:00:00 | 00:00:00 | 00:00:00 | |
| DB0DAN | 2026-09-03 06:00:25 | 52.30316 | 9.19284 | 105° | 80km/h | 6967m | -7.8m/s | -22.3°C | 87% | 425.93hPa | 2.5V | 00:00:00 | 00:00:00 | 00:00:00 | |
| DL1XH-west | 2026-09-03 06:00:24 | 52.30321 | 9.19251 | 105° | 82km/h | 6974m | -7.9m/s | -22.3°C | 90.3% | 425.5hPa | 2.6V | 08:05:09 | 02:28:54 | 00:00:00 | |
| DF8AY | 2026-09-03 06:00:18 | 52.30354 | 9.19052 | 105° | 86km/h | 7021m | -7.6m/s | -22.7°C | 88.3% | 422.9hPa | 2.6V | 08:05:09 | 02:28:48 | 00:00:00 | |
| DF5WG-10 | 2026-09-03 06:00:18 | 52.30353 | 9.19052 | 105° | 86km/h | 7021m | -7.5m/s | -22.7°C | 88.7% | 422.8hPa | 2.6V | 00:00:00 | 02:28:48 | 00:00:00 | |
| DL1XH-15 | 2026-09-03 06:00:17 | 52.30386 | 9.18849 | 105° | 86km/h | 7066m | -7.5m/s | -23.1°C | 85.8% | 420.1hPa | 2.6V | 08:05:12 | 02:28:42 | 00:00:00 | |
| BIOWL1-15 | 2026-09-03 06:00:16 | 52.30370 | 9.18952 | 104° | 86km/h | 7044m | -7.8m/s | -22.9°C | 87.9% | 421.6hPa | 2.5V | 08:05:09 | 02:28:45 | 00:00:00 | |
| DO2JMG | 2026-09-03 06:00:16 | 52.30364 | 9.18986 | 105° | 84km/h | 7036m | -7.9m/s | -22.8°C | 88.1% | 422.1hPa | 2.6V | 08:05:09 | 02:28:46 | 00:00:00 | |
| AA1-15 | 2026-09-03 06:00:14 | 52.30375 | 9.18918 | 104° | 84km/h | 7052m | -7.8m/s | -23°C | 87.6% | 421.1hPa | 2.5V | 08:06:00 | 02:28:44 | 00:00:00 | |
| DL1XH-west | 2026-09-03 06:00:13 | 52.30380 | 9.18884 | 105° | 86km/h | 7059m | -7.6m/s | -23°C | 87% | 420.7hPa | 2.5V | 08:06:00 | 02:28:43 | 00:00:00 | |
| DO9LL-15 | 2026-09-03 06:00:13 | 52.30380 | 9.18884 | 105° | 95km/h | 7059m | -7.5m/s | -23.0°C | 87.0% | 420.6hPa | 2.5V | 08:05:00 | 02:28:43 | 00:00:00 | |
| DC6BW-12 | 2026-09-03 06:00:11 | 52.30386 | 9.18849 | 106° | 86km/h | 7067m | -7.5m/s | -23.1°C | 81.9% | 420.1hPa | 2.6V | 08:06:00 | 00:00:00 | 00:00:00 | |
| DB0DAN | 2026-09-03 06:00:10 | 52.30397 | 9.18780 | 104° | 80km/h | 7082m | -8.3m/s | -23.3°C | 80.7% | 419.36hPa | 2.6V | 00:00:00 | 00:00:00 | 00:00:00 | |
| DF8AY | 2026-09-03 06:00:08 | 52.30407 | 9.18711 | 103° | 84km/h | 7098m | -7.7m/s | -23.4°C | 84.6% | 418.4hPa | 2.5V | 08:06:00 | 02:28:38 | 00:00:00 | |
| DL1XH-15 | 2026-09-03 06:00:07 | 52.30438 | 9.18500 | 104° | 89km/h | 7146m | -8.2m/s | -23.8°C | 82.7% | 415.7hPa | 2.5V | 08:05:22 | 02:28:32 | 00:00:00 | |
| BIOWL1-15 | 2026-09-03 06:00:05 | 52.30422 | 9.18608 | 104° | 88km/h | 7122m | -8m/s | -23.6°C | 84.4% | 417.1hPa | 2.6V | 08:06:00 | 02:28:35 | 00:00:00 | |
| AA1-15 | 2026-09-03 06:00:03 | 52.30433 | 9.18536 | 103° | 89km/h | 7138m | -7.9m/s | -23.8°C | 81.8% | 416.1hPa | 2.5V | 08:06:00 | 02:28:33 | 00:00:00 | |
| DF8AY | 2026-09-03 05:59:57 | 52.30468 | 9.18318 | 105° | 93km/h | 7188m | -8.6m/s | -24.1°C | 84.3% | 413.3hPa | 2.5V | 08:06:00 | 02:28:27 | 00:00:00 | |
| DL1XH-15 | 2026-09-03 05:59:57 | 52.30499 | 9.18129 | 104° | 95km/h | 7229m | -8.3m/s | -24.3°C | 81.9% | 410.9hPa | 2.6V | 08:05:32 | 02:28:22 | 00:00:00 | |
| BIOWL1-15 | 2026-09-03 05:59:56 | 52.30486 | 9.18206 | 105° | 97km/h | 7213m | -8.2m/s | -24.3°C | 84% | 412.1hPa | 2.6V | 08:06:00 | 02:28:24 | 00:00:00 | |
| DB0DAN | 2026-09-03 05:59:55 | 52.30480 | 9.18244 | 105° | 91km/h | 7205m | -8.3m/s | -24.3°C | 80.2% | 412.52hPa | 2.5V | 00:00:00 | 00:00:00 | 00:00:00 | |
| DO2JMG | 2026-09-03 05:59:55 | 52.30480 | 9.18244 | 105° | 95km/h | 7205m | -8.3m/s | -24.3°C | 85.1% | 412.5hPa | 2.5V | 08:06:51 | 02:28:25 | 00:00:00 | |
| GOEST3-10 | 2026-09-03 05:59:55 | 52.30480 | 9.18243 | 106° | 97km/h | 7205m | -8.2m/s | -24.2°C | 84.2% | 412.5hPa | 2.5V | 00:00:00 | 00:00:00 | 00:00:00 | |
| DM0DOS-11 | 2026-09-03 05:59:54 | 52.30518 | 9.18013 | 104° | 97km/h | 7254m | -8.3m/s | -24.4°C | 81% | 409.6hPa | 2.5V | 08:05:35 | 02:28:19 | 00:00:00 | |
| DL1XH-west | 2026-09-03 05:59:53 | 52.30493 | 9.18167 | 105° | 97km/h | 7221m | -8.1m/s | -24.4°C | 83.4% | 411.4hPa | 2.6V | 08:06:00 | 02:28:23 | 00:00:00 | |
| DF8AY | 2026-09-03 05:59:47 | 52.30530 | 9.17936 | 104° | 97km/h | 7271m | -8.4m/s | -24.5°C | 82.3% | 408.8hPa | 2.6V | 08:06:00 | 02:28:17 | 00:00:00 | |
| GOEST3-10 | 2026-09-03 05:59:45 | 52.30542 | 9.17858 | 106° | 97km/h | 7287m | -8.4m/s | -24.6°C | 80.4% | 407.7hPa | 2.5V | 00:00:00 | 00:00:00 | 00:00:00 | |
| DM0DOS-11 | 2026-09-03 05:59:44 | 52.30579 | 9.17624 | 104° | 99km/h | 7336m | -8.6m/s | -25.1°C | 78% | 405hPa | 2.5V | 08:05:45 | 02:28:09 | 00:00:00 | |
| DO2JMG | 2026-09-03 05:59:44 | 52.30549 | 9.17819 | 104° | 97km/h | 7295m | -8m/s | -24.7°C | 81.8% | 407.3hPa | 2.5V | 08:06:51 | 02:28:14 | 00:00:00 | |
| BIOWL1-15 | 2026-09-03 05:59:43 | 52.30555 | 9.17780 | 104° | 99km/h | 7304m | -8.3m/s | -24.8°C | 80.8% | 406.7hPa | 2.5V | 08:06:00 | 02:28:13 | 00:00:00 | |
| DL1XH1-15 | 2026-09-03 05:59:43 | 52.30555 | 9.17780 | 104° | 99km/h | 7304m | -8.3m/s | -24.8°C | 79.2% | 406.7hPa | 2.5V | 08:05:41 | 02:28:13 | 00:00:00 | |
| DL1XH-west | 2026-09-03 05:59:42 | 52.30561 | 9.17741 | 105° | 97km/h | 7312m | -8.2m/s | -24.8°C | 80% | 406.4hPa | 2.6V | 08:06:00 | 02:28:12 | 00:00:00 | |
| DF8AY | 2026-09-03 05:59:37 | 52.30590 | 9.17547 | 103° | 97km/h | 7353m | -8.4m/s | -25.2°C | 78.9% | 404.1hPa | 2.5V | 08:06:00 | 02:28:07 | 00:00:00 | |
| DJ2DS-15 | 2026-09-03 05:59:37 | 52.30590 | 9.17547 | 104° | 95km/h | 7353m | -8.4m/s | -25.1°C | 77.2% | 404.0hPa | 2.6V | 00:00:00 | 02:28:07 | 00:00:00 | |
| DL3AQ-11 | 2026-09-03 05:59:36 | 52.30596 | 9.17508 | 103° | 97km/h | 7361m | -8.5m/s | -25.3°C | 73.3% | 403.4hPa | 2.6V | 00:00:00 | 00:00:00 | 00:00:00 | |
| DM0DOS-11 | 2026-09-03 05:59:35 | 52.30635 | 9.17237 | 103° | 93km/h | 7420m | -8.4m/s | -25.8°C | 76.8% | 400.3hPa | 2.6V | 08:05:55 | 02:27:59 | 00:00:00 | |
| DO2JMG | 2026-09-03 05:59:34 | 52.30607 | 9.17430 | 104° | 97km/h | 7378m | -8.7m/s | -25.4°C | 78.3% | 402.5hPa | 2.6V | 08:06:51 | 02:28:04 | 00:00:00 | |
| DL1XH1-15 | 2026-09-03 05:59:33 | 52.30613 | 9.17391 | 102° | 95km/h | 7386m | -8.4m/s | -25.5°C | 76.6% | 402.1hPa | 2.5V | 08:05:51 | 02:28:03 | 00:00:00 | |
| BIOWL1-15 | 2026-09-03 05:59:32 | 52.30618 | 9.17353 | 103° | 97km/h | 7394m | -8.4m/s | -25.5°C | 78.3% | 401.7hPa | 2.5V | 08:06:00 | 02:28:02 | 00:00:00 | |
| DL1XH-west | 2026-09-03 05:59:31 | 52.30624 | 9.17314 | 104° | 97km/h | 7403m | -8.9m/s | -25.6°C | 78.4% | 401.2hPa | 2.5V | 08:06:00 | 02:28:01 | 00:00:00 | |
| DF8AY | 2026-09-03 05:59:27 | 52.30652 | 9.17122 | 104° | 97km/h | 7445m | -8.5m/s | -26°C | 78.3% | 398.9hPa | 2.5V | 08:06:00 | 02:27:56 | 00:00:00 | |
| DB0DAN | 2026-09-03 05:59:25 | 52.30658 | 9.17084 | 103° | 89km/h | 7453m | -8.4m/s | -26°C | 72.6% | 398.5hPa | 2.5V | 00:00:00 | 00:00:00 | 00:00:00 | |
| GOEST3-10 | 2026-09-03 05:59:25 | 52.30658 | 9.17084 | 104° | 95km/h | 7453m | -8.4m/s | -26.0°C | 76.5% | 398.4hPa | 2.6V | 00:00:00 | 00:00:00 | 00:00:00 | |
| DL1LOL-11 | 2026-09-03 05:59:24 | 52.30658 | 9.17084 | 104° | 95km/h | 7453m | -8.4m/s | -26.0°C | 72.7% | 398.5hPa | 2.6V | 00:00:00 | 00:00:00 | 00:00:00 | |
| DL1XH1-15 | 2026-09-03 05:59:23 | 52.30668 | 9.17007 | 102° | 97km/h | 7469m | -8.1m/s | -26.2°C | 76.8% | 397.5hPa | 2.6V | 08:06:01 | 02:27:53 | 00:00:00 | |
| AA1-15 | 2026-09-03 05:59:22 | 52.30673 | 9.16968 | 103° | 97km/h | 7478m | -8.4m/s | -26.2°C | 78.7% | 396.9hPa | 2.6V | 08:06:51 | 02:27:52 | 00:00:00 | |
| BIOWL9-15 | 2026-09-03 05:59:22 | 52.30679 | 9.16930 | 102° | 93km/h | 7486m | -8.2m/s | -26.3°C | 73.4% | 396.6hPa | 2.5V | 00:00:00 | 00:00:00 | 00:00:00 | |
| DM0DOS-11 | 2026-09-03 05:59:21 | 52.30689 | 9.16854 | 103° | 95km/h | 7503m | -8.4m/s | -26.4°C | 78.2% | 395.7hPa | 2.5V | 08:06:05 | 02:27:49 | 00:00:00 | |
| DL1XH-west | 2026-09-03 05:59:21 | 52.30679 | 9.16930 | 102° | 93km/h | 7486m | -8.2m/s | -26.3°C | 79.1% | 396.6hPa | 2.5V | 08:06:51 | 02:27:51 | 00:00:00 | |
| HSKMA3-T | 2026-09-03 05:59:19 | 52.30689 | 9.16854 | 103° | 95km/h | 7503m | -8.4m/s | -26.4°C | 79.9% | 395.7hPa | 2.5V | 08:06:51 | 02:27:49 | 00:00:00 | |
| DD1CC8 | 2026-09-03 05:59:18 | 52.30699 | 9.16778 | 102° | 95km/h | 7519m | -8.4m/s | -26.5°C | 74.3% | 394.8hPa | 2.6V | 00:00:00 | 00:00:00 | 00:00:00 | |
| DL1XH-15 | 2026-09-03 05:59:17 | 52.30726 | 9.16591 | 102° | 93km/h | 7560m | -8.1m/s | -26.9°C | 77.8% | 392.5hPa | 2.6V | 08:06:12 | 02:27:42 | 00:00:00 | |
| DF8AY | 2026-09-03 05:59:16 | 52.30705 | 9.16741 | 103° | 93km/h | 7527m | -8.6m/s | -26.6°C | 79.8% | 394.4hPa | 2.6V | 08:06:51 | 02:27:46 | 00:00:00 | |
| GOEST3-10 | 2026-09-03 05:59:15 | 52.30710 | 9.16703 | 104° | 93km/h | 7536m | -8.5m/s | -26.6°C | 78.1% | 393.9hPa | 2.5V | 00:00:00 | 00:00:00 | 00:00:00 | |
| DM0DOS-11 | 2026-09-03 05:59:14 | 52.30743 | 9.16477 | 102° | 97km/h | 7585m | -8.4m/s | -27.1°C | 78.2% | 391.2hPa | 2.5V | 08:06:15 | 02:27:39 | 00:00:00 | |
| DL1XH1-15 | 2026-09-03 05:59:13 | 52.30721 | 9.16629 | 103° | 93km/h | 7552m | -8m/s | -26.8°C | 77.9% | 393hPa | 2.5V | 08:06:11 | 02:27:43 | 00:00:00 | |
| AA1-15 | 2026-09-03 05:59:12 | 52.30726 | 9.16591 | 103° | 93km/h | 7560m | -8.1m/s | -26.9°C | 79.6% | 392.5hPa | 2.6V | 08:06:51 | 02:27:42 | 00:00:00 | |
| DL8OAI-8 | 2026-09-03 05:59:11 | 52.30726 | 9.16591 | 104° | 93km/h | 7560m | -8.1m/s | -26.9°C | 73.8% | 392.5hPa | 2.6V | 08:06:00 | 00:00:00 | 00:00:00 | |
| DB0DAN | 2026-09-03 05:59:10 | 52.30737 | 9.16516 | 104° | 89km/h | 7576m | -8.5m/s | -27°C | 73.9% | 391.66hPa | 2.6V | 00:00:00 | 00:00:00 | 00:00:00 | |
| BIOWL1-15 | 2026-09-03 05:59:10 | 52.30737 | 9.16516 | 104° | 95km/h | 7576m | -8.5m/s | -27°C | 79.7% | 391.7hPa | 2.6V | 08:06:51 | 02:27:40 | 00:00:00 | |
| HSKMA3-T | 2026-09-03 05:59:09 | 52.30743 | 9.16477 | 103° | 97km/h | 7585m | -8.4m/s | -27.1°C | 80% | 391.2hPa | 2.5V | 08:06:51 | 02:27:39 | 00:00:00 | |
| DC6BW-12 | 2026-09-03 05:59:09 | 52.30743 | 9.16477 | 104° | 97km/h | 7585m | -8.4m/s | -27.1°C | 74.2% | 391.2hPa | 2.5V | 00:00:00 | 00:00:00 | 00:00:00 | |
| DL1XH1-15 | 2026-09-03 05:59:08 | 52.30774 | 9.16245 | 102° | 97km/h | 7635m | -8.3m/s | -27.5°C | 79.8% | 388.5hPa | 2.5V | 08:06:21 | 02:27:33 | 00:00:00 | |
| DL1XH-15 | 2026-09-03 05:59:07 | 52.30780 | 9.16206 | 104° | 95km/h | 7643m | -8.2m/s | -27.6°C | 80.2% | 388hPa | 2.5V | 08:06:22 | 02:27:32 | 00:00:00 | |
| DF8AY | 2026-09-03 05:59:06 | 52.30759 | 9.16361 | 102° | 97km/h | 7610m | -8.4m/s | -27.3°C | 80.5% | 389.8hPa | 2.6V | 08:06:51 | 02:27:36 | 00:00:00 | |
| GOEST3-10 | 2026-09-03 05:59:06 | 52.30764 | 9.16322 | 102° | 97km/h | 7618m | -8.5m/s | -27.3°C | 78.8% | 389.3hPa | 2.6V | 00:00:00 | 00:00:00 | 00:00:00 | |
| DM0DOS-11 | 2026-09-03 05:59:04 | 52.30799 | 9.16092 | 104° | 97km/h | 7668m | -8m/s | -27.8°C | 81% | 386.8hPa | 2.6V | 08:06:25 | 02:27:29 | 00:00:00 | |
| AA1-15 | 2026-09-03 05:59:01 | 52.30786 | 9.16168 | 105° | 97km/h | 7651m | -8.1m/s | -27.6°C | 81.8% | 387.6hPa | 2.5V | 08:06:51 | 02:27:31 | 00:00:00 | |
| DO2JMG | 2026-09-03 05:58:59 | 52.30799 | 9.16092 | 105° | 97km/h | 7668m | -8m/s | -27.8°C | 82.2% | 386.9hPa | 2.6V | 08:06:51 | 02:27:29 | 00:00:00 | |
| DL1XH-15 | 2026-09-03 05:58:57 | 52.30841 | 9.15822 | 104° | 99km/h | 7722m | -8m/s | -28.2°C | 82.4% | 383.8hPa | 2.6V | 08:06:32 | 02:27:22 | 00:00:00 | |
| DL3AQ-11 | 2026-09-03 05:58:57 | 52.30817 | 9.15979 | 104° | 95km/h | 7691m | -7.7m/s | -27.9°C | 77.8% | 385.5hPa | 2.6V | 00:00:00 | 00:00:00 | 00:00:00 | |
| SONDE2-11 | 2026-09-03 05:58:56 | 52.30817 | 9.15979 | 104° | 95km/h | 7691m | -7.7m/s | -27.9°C | 77.8% | 385.5hPa | 2.6V | 00:00:00 | 00:00:00 | 00:00:00 | |
| DB0DAN | 2026-09-03 05:58:55 | 52.30823 | 9.15940 | 104° | 93km/h | 7699m | -7.7m/s | -28°C | 78.1% | 385.13hPa | 2.6V | 00:00:00 | 00:00:00 | 00:00:00 | |
| DF8AY | 2026-09-03 05:58:55 | 52.30823 | 9.15940 | 104° | 99km/h | 7699m | -7.7m/s | -28°C | 83.8% | 385.1hPa | 2.6V | 08:06:51 | 02:27:25 | 00:00:00 | |
| GOEST3-10 | 2026-09-03 05:58:55 | 52.30823 | 9.15940 | 104° | 99km/h | 7699m | -7.7m/s | -27.9°C | 82.4% | 385.1hPa | 2.5V | 00:00:00 | 00:00:00 | 00:00:00 | |
| DM0DOS-11 | 2026-09-03 05:58:54 | 52.30859 | 9.15706 | 105° | 95km/h | 7747m | -8.8m/s | -28.4°C | 82.5% | 382.6hPa | 2.5V | 08:06:35 | 02:27:19 | 00:00:00 | |
| AA1-15 | 2026-09-03 05:58:50 | 52.30853 | 9.15744 | 105° | 95km/h | 7738m | -8.3m/s | -28.3°C | 84.3% | 383hPa | 2.5V | 08:06:51 | 02:27:20 | 00:00:00 | |
| DO2JMG | 2026-09-03 05:58:49 | 52.30859 | 9.15706 | 106° | 95km/h | 7747m | -8.8m/s | -28.4°C | 84.4% | 382.6hPa | 2.5V | 08:06:51 | 02:27:19 | 00:00:00 | |
| DL1XH-west | 2026-09-03 05:58:48 | 52.30866 | 9.15668 | 107° | 97km/h | 7755m | -8.4m/s | -28.4°C | 84.6% | 382.2hPa | 2.5V | 08:06:51 | 02:27:18 | 00:00:00 | |
| DF8AY | 2026-09-03 05:58:46 | 52.30887 | 9.15552 | 107° | 99km/h | 7780m | -8.8m/s | -28.6°C | 84% | 380.9hPa | 2.6V | 08:06:51 | 02:27:15 | 00:00:00 | |
| DL3AQ-11 | 2026-09-03 05:58:46 | 52.30887 | 9.15552 | 106° | 97km/h | 7780m | -8.8m/s | -28.6°C | 77.7% | 380.9hPa | 2.6V | 00:00:00 | 00:00:00 | 00:00:00 | |
| GOEST3-10 | 2026-09-03 05:58:45 | 52.30887 | 9.15552 | 107° | 99km/h | 7780m | -8.7m/s | -28.6°C | 82.0% | 380.8hPa | 2.6V | 00:00:00 | 00:00:00 | 00:00:00 | |
| DM0DOS-11 | 2026-09-03 05:58:44 | 52.30928 | 9.15320 | 106° | 99km/h | 7829m | -8.5m/s | -29°C | 81.8% | 378.2hPa | 2.6V | 08:06:45 | 02:27:09 | 00:00:00 | |
| DD8BA-10 | 2026-09-03 05:58:44 | 52.30894 | 9.15514 | 107° | 97km/h | 7789m | -8.6m/s | -28.6°C | 81.9% | 380.5hPa | 2.6V | 00:00:00 | 00:00:00 | 00:00:00 | |
| DB0UT-7 | 2026-09-03 05:58:43 | 52.30901 | 9.15475 | 107° | 99km/h | 7797m | -8.6m/s | -28.7°C | 81.8% | 379.8hPa | 2.6V | 00:00:00 | 02:27:13 | 00:00:00 | |
| DL4XJ-10 | 2026-09-03 05:58:42 | 52.30908 | 9.15437 | 106° | 99km/h | 7805m | -8.0m/s | -27.5°C | 0% | 0hPa | 2.6V | 00:00:00 | 00:00:00 | 00:00:00 | |
| DB0DAN | 2026-09-03 05:58:40 | 52.30921 | 9.15359 | 105° | 95km/h | 7821m | -7.8m/s | -29°C | 77.3% | 378.51hPa | 2.6V | 00:00:00 | 00:00:00 | 00:00:00 | |
| AA1-15 | 2026-09-03 05:58:40 | 52.30921 | 9.15359 | 105° | 99km/h | 7821m | -7.8m/s | -29°C | 83.2% | 378.5hPa | 2.6V | 08:06:51 | 02:27:10 | 00:00:00 | |
| DO2JMG | 2026-09-03 05:58:39 | 52.30928 | 9.15320 | 106° | 99km/h | 7829m | -8.5m/s | -29°C | 83.4% | 378.2hPa | 2.6V | 08:06:51 | 02:27:09 | 00:00:00 | |
| BIOWL1-15 | 2026-09-03 05:58:38 | 52.30934 | 9.15281 | 105° | 97km/h | 7837m | -8.2m/s | -29.1°C | 83.5% | 377.7hPa | 2.5V | 08:06:51 | 02:27:08 | 00:00:00 | |
| DL1XH-west | 2026-09-03 05:58:37 | 52.30940 | 9.15242 | 104° | 99km/h | 7845m | -8.2m/s | -29.2°C | 83.6% | 377.3hPa | 2.5V | 08:06:51 | 02:27:07 | 00:00:00 | |
| DF8AY | 2026-09-03 05:58:34 | 52.30959 | 9.15126 | 104° | 97km/h | 7869m | -8m/s | -29.4°C | 84.5% | 376.1hPa | 2.6V | 08:06:51 | 02:27:04 | 00:00:00 | |
| AA1-15 | 2026-09-03 05:58:30 | 52.30984 | 9.14971 | 104° | 97km/h | 7902m | -8m/s | -29.6°C | 84.5% | 374.3hPa | 2.5V | 08:07:42 | 02:27:00 | 00:00:00 | |
| GOEST3-10 | 2026-09-03 05:58:30 | 52.30984 | 9.14971 | 104° | 99km/h | 7902m | -8.0m/s | -29.6°C | 83.1% | 374.2hPa | 2.5V | 00:00:00 | 02:27:00 | 00:00:00 | |
| DF8AY-15 | 2026-09-03 05:58:29 | 52.30990 | 9.14932 | 104° | 100km/h | 7910m | -8.7m/s | -29.6°C | 82.7% | 373.9hPa | 2.5V | 00:00:00 | 02:26:59 | 00:00:00 | |
| DL1XH1-15 | 2026-09-03 05:58:28 | 52.31026 | 9.14696 | 103° | 99km/h | 7958m | -8.1m/s | -30.1°C | 82.1% | 371.4hPa | 2.5V | 08:07:01 | 02:26:53 | 00:00:00 | |
| DO2JMG | 2026-09-03 05:58:28 | 52.30995 | 9.14893 | 104° | 100km/h | 7918m | -8.2m/s | -29.7°C | 83.9% | 373.5hPa | 2.6V | 08:07:42 | 02:26:58 | 00:00:00 | |
| BIOWL1-15 | 2026-09-03 05:58:27 | 52.31002 | 9.14853 | 105° | 100km/h | 7927m | -8.2m/s | -29.8°C | 83.7% | 373.2hPa | 2.5V | 08:07:42 | 02:26:57 | 00:00:00 | |
| DL1XH-west | 2026-09-03 05:58:26 | 52.31008 | 9.14813 | 105° | 99km/h | 7935m | -8.1m/s | -29.9°C | 83.4% | 372.7hPa | 2.5V | 08:07:42 | 02:26:56 | 00:00:00 | |
| DF8AY | 2026-09-03 05:58:25 | 52.31020 | 9.14735 | 104° | 97km/h | 7951m | -7.9m/s | -30°C | 83.5% | 371.8hPa | 2.6V | 08:07:42 | 02:26:54 | 00:00:00 | |
| DB0DAN | 2026-09-03 05:58:25 | 52.31014 | 9.14774 | 104° | 93km/h | 7943m | -8.1m/s | -30°C | 77.8% | 372.18hPa | 2.6V | 00:00:00 | 00:00:00 | 00:00:00 | |
| AA1-15 | 2026-09-03 05:58:19 | 52.31052 | 9.14537 | 105° | 99km/h | 7991m | -8.1m/s | -30.4°C | 84% | 369.7hPa | 2.6V | 08:07:42 | 02:26:49 | 00:00:00 | |
| DL1XH1-15 | 2026-09-03 05:58:18 | 52.31089 | 9.14298 | 105° | 102km/h | 8040m | -8.2m/s | -30.8°C | 83.4% | 367.2hPa | 2.6V | 08:07:11 | 02:26:43 | 00:00:00 | |
| BIOWL1-15 | 2026-09-03 05:58:17 | 52.31065 | 9.14459 | 104° | 99km/h | 8007m | -8.2m/s | -30.5°C | 84.3% | 369hPa | 2.5V | 08:07:42 | 02:26:47 | 00:00:00 | |
| HSKMA3-T | 2026-09-03 05:58:16 | 52.31071 | 9.14419 | 104° | 100km/h | 8016m | -8.5m/s | -30.6°C | 84.4% | 368.4hPa | 2.5V | 08:07:42 | 02:26:46 | 00:00:00 | |
| GOEST3-10 | 2026-09-03 05:58:15 | 52.31077 | 9.14379 | 104° | 102km/h | 8024m | -8.0m/s | -30.6°C | 83.5% | 367.9hPa | 2.5V | 00:00:00 | 00:00:00 | 00:00:00 | |
| DL1XH-west | 2026-09-03 05:58:15 | 52.31077 | 9.14379 | 104° | 100km/h | 8024m | -8.1m/s | -30.6°C | 84.4% | 368hPa | 2.5V | 08:07:42 | 02:26:45 | 00:00:00 | |
| DM0DOS-11 | 2026-09-03 05:58:14 | 52.31116 | 9.14137 | 104° | 102km/h | 8073m | -8.3m/s | -31°C | 84.4% | 365.6hPa | 2.5V | 08:07:15 | 02:26:39 | 00:00:00 | |
| DF8AY | 2026-09-03 05:58:13 | 52.31089 | 9.14298 | 105° | 102km/h | 8040m | -8.2m/s | -30.8°C | 84.6% | 367.2hPa | 2.6V | 08:07:42 | 02:26:43 | 00:00:00 | |
| AA1-15 | 2026-09-03 05:58:08 | 52.31123 | 9.14096 | 105° | 104km/h | 8081m | -8.5m/s | -31.1°C | 85.4% | 365.1hPa | 2.6V | 08:07:42 | 02:26:38 | 00:00:00 | |
| BIOWL1-15 | 2026-09-03 05:58:06 | 52.31137 | 9.14015 | 106° | 102km/h | 8097m | -8.2m/s | -31.3°C | 84.8% | 364.2hPa | 2.5V | 08:07:42 | 02:26:36 | 00:00:00 | |
| DL1XH-west | 2026-09-03 05:58:05 | 52.31144 | 9.13975 | 106° | 100km/h | 8106m | -8.5m/s | -31.3°C | 84.4% | 363.7hPa | 2.5V | 08:07:42 | 02:26:35 | 00:00:00 | |
| DF8AY | 2026-09-03 05:58:03 | 52.31157 | 9.13895 | 105° | 100km/h | 8122m | -8.3m/s | -31.5°C | 84.5% | 363hPa | 2.6V | 08:07:42 | 02:26:33 | 00:00:00 | |
| AA1-15 | 2026-09-03 05:57:58 | 52.31191 | 9.13693 | 106° | 102km/h | 8163m | -8.7m/s | -31.8°C | 82.5% | 360.7hPa | 2.6V | 08:07:42 | 02:26:28 | 00:00:00 | |
| DF8AY | 2026-09-03 05:57:57 | 52.31232 | 9.13446 | 104° | 104km/h | 8213m | -8.1m/s | -32.2°C | 78.2% | 358.2hPa | 2.6V | 08:07:42 | 02:26:22 | 00:00:00 | |
| BIOWL1-15 | 2026-09-03 05:57:56 | 52.31204 | 9.13612 | 105° | 104km/h | 8180m | -8.5m/s | -31.9°C | 81% | 360hPa | 2.5V | 08:07:42 | 02:26:26 | 00:00:00 | |
| DB0DAN | 2026-09-03 05:57:55 | 52.31211 | 9.13571 | 105° | 97km/h | 8188m | -8.3m/s | -32°C | 76.1% | 359.52hPa | 2.5V | 00:00:00 | 00:00:00 | 00:00:00 | |
| DL1XH-west | 2026-09-03 05:57:54 | 52.31218 | 9.13530 | 106° | 104km/h | 8197m | -8.3m/s | -32°C | 79.6% | 359.2hPa | 2.5V | 08:07:42 | 02:26:24 | 00:00:00 | |
| EDDB2-12 | 2026-09-03 05:57:50 | 52.31245 | 9.13362 | 104° | 104km/h | 8230m | -8.2m/s | -32.3°C | 73.3% | 357.4hPa | 2.6V | 00:00:00 | 00:00:00 | 00:00:00 | |
| BIOWL9-15 | 2026-09-03 05:57:49 | 52.31258 | 9.13277 | 103° | 106km/h | 8246m | -8.7m/s | -32.4°C | 72.4% | 356.6hPa | 2.6V | 00:00:00 | 00:00:00 | 00:00:00 | |
| DL1XH1-15 | 2026-09-03 05:57:48 | 52.31292 | 9.13059 | 104° | 111km/h | 8288m | -8.3m/s | -32.4°C | 77.8% | 354.6hPa | 2.6V | 08:07:41 | 02:26:13 | 00:00:00 | |
| AA1-15 | 2026-09-03 05:57:47 | 52.31265 | 9.13234 | 104° | 106km/h | 8255m | -8.7m/s | -32.4°C | 76% | 356.2hPa | 2.5V | 08:07:42 | 02:26:17 | 00:00:00 | |
| DO2JMG | 2026-09-03 05:57:46 | 52.31271 | 9.13191 | 105° | 108km/h | 8263m | -8.4m/s | -32.4°C | 76.3% | 355.8hPa | 2.5V | 08:07:42 | 02:26:16 | 00:00:00 | |
| BIOWL1-15 | 2026-09-03 05:57:45 | 52.31278 | 9.13147 | 104° | 111km/h | 8272m | -8.5m/s | -32.4°C | 76.5% | 355.4hPa | 2.5V | 08:07:42 | 02:26:15 | 00:00:00 | |
| DL1XH-west | 2026-09-03 05:57:44 | 52.31285 | 9.13103 | 104° | 111km/h | 8280m | -8.4m/s | -32.4°C | 76.8% | 354.8hPa | 2.6V | 08:07:42 | 02:26:14 | 00:00:00 | |
| HSKMA3-T | 2026-09-03 05:57:43 | 52.31292 | 9.13059 | 104° | 111km/h | 8288m | -8.3m/s | -32.4°C | 77% | 354.6hPa | 2.6V | 08:07:42 | 02:26:13 | 00:00:00 | |
| DF8AY | 2026-09-03 05:57:42 | 52.31299 | 9.13014 | 105° | 113km/h | 8296m | -8.5m/s | -32.4°C | 77.4% | 354.1hPa | 2.6V | 08:07:42 | 02:26:12 | 00:00:00 | |
| DL4XJ-10 | 2026-09-03 05:57:42 | 52.31299 | 9.13014 | 105° | 117km/h | 8297m | -8.4m/s | -31.1°C | 0% | 0hPa | 2.5V | 00:00:00 | 00:00:00 | 00:00:00 | |
| DO2SHX-10 | 2026-09-03 05:57:41 | 52.31306 | 9.12969 | 105° | 113km/h | 8305m | -8.7m/s | -32.4°C | 78.3% | 353.5hPa | 2.5V | 08:07:00 | 02:26:11 | 00:00:00 | |
| GOEST3-10 | 2026-09-03 05:57:40 | 52.31313 | 9.12923 | 104° | 113km/h | 8313m | -8.1m/s | -32.5°C | 78.9% | 353.1hPa | 2.6V | 00:00:00 | 02:26:10 | 00:00:00 | |
| DF5WG-10 | 2026-09-03 05:57:39 | 52.31320 | 9.12878 | 104° | 117km/h | 8321m | -8.1m/s | -32.5°C | 79.4% | 352.6hPa | 2.6V | 00:00:00 | 02:26:09 | 00:00:00 | |
| DL1XH1-15 | 2026-09-03 05:57:38 | 52.31364 | 9.12603 | 104° | 119km/h | 8372m | -8.8m/s | -32.5°C | 82.1% | 350.3hPa | 2.6V | 08:07:51 | 02:26:03 | 00:00:00 | |
| AA1-15 | 2026-09-03 05:57:37 | 52.31334 | 9.12788 | 105° | 115km/h | 8338m | -8.7m/s | -32.6°C | 79.2% | 351.9hPa | 2.6V | 08:08:33 | 02:26:07 | 00:00:00 | |
| DO2JMG | 2026-09-03 05:57:36 | 52.31341 | 9.12742 | 104° | 115km/h | 8346m | -8.6m/s | -32.6°C | 79.8% | 351.6hPa | 2.5V | 08:08:33 | 02:26:06 | 00:00:00 | |
| BIOWL1-15 | 2026-09-03 05:57:34 | 52.31356 | 9.12650 | 105° | 119km/h | 8363m | -8.8m/s | -32.5°C | 81% | 350.7hPa | 2.6V | 08:08:33 | 02:26:04 | 00:00:00 | |
| DL1XH-west | 2026-09-03 05:57:33 | 52.31364 | 9.12603 | 105° | 119km/h | 8372m | -8.8m/s | -32.5°C | 81.5% | 350.3hPa | 2.6V | 08:08:33 | 02:26:03 | 00:00:00 | |
| HSKMA3-T | 2026-09-03 05:57:32 | 52.31372 | 9.12556 | 106° | 117km/h | 8380m | -8.9m/s | -32.5°C | 81.7% | 349.8hPa | 2.5V | 08:08:33 | 02:26:02 | 00:00:00 | |
| GOEST3-10 | 2026-09-03 05:57:30 | 52.31388 | 9.12462 | 106° | 120km/h | 8398m | -8.6m/s | -32.3°C | 80.0% | 348.9hPa | 2.6V | 00:00:00 | 02:26:00 | 00:00:00 | |
| DF8AY-15 | 2026-09-03 05:57:29 | 52.31396 | 9.12414 | 106° | 124km/h | 8407m | -8.8m/s | -32.2°C | 79.2% | 348.4hPa | 2.6V | 00:00:00 | 02:25:59 | 00:00:00 | |
| DL1XH1-15 | 2026-09-03 05:57:28 | 52.31448 | 9.12127 | 106° | 124km/h | 8457m | -8.5m/s | -32.5°C | 79.6% | 346hPa | 2.6V | 08:08:01 | 02:25:53 | 00:00:00 | |
| DL1XH-15 | 2026-09-03 05:57:27 | 52.31456 | 9.12078 | 106° | 122km/h | 8466m | -8.3m/s | -32.5°C | 79.9% | 345.7hPa | 2.6V | 08:08:02 | 02:25:52 | 00:00:00 | |
| DO2JMG | 2026-09-03 05:57:26 | 52.31421 | 9.12272 | 106° | 120km/h | 8431m | -8.5m/s | -32.3°C | 80.6% | 347.3hPa | 2.5V | 08:08:33 | 02:25:56 | 00:00:00 | |
| DB0DAN | 2026-09-03 05:57:25 | 52.31430 | 9.12224 | 107° | 115km/h | 8440m | -8.8m/s | -32.4°C | 74.5% | 346.93hPa | 2.5V | 00:00:00 | 00:00:00 | 00:00:00 | |
| BIOWL1-15 | 2026-09-03 05:57:23 | 52.31448 | 9.12127 | 106° | 124km/h | 8458m | -8.5m/s | -32.5°C | 81.6% | 346.1hPa | 2.6V | 08:08:33 | 02:25:53 | 00:00:00 | |
| DL1XH-west | 2026-09-03 05:57:22 | 52.31456 | 9.12078 | 107° | 122km/h | 8466m | -8.3m/s | -32.5°C | 81.9% | 345.7hPa | 2.6V | 08:08:33 | 02:25:52 | 00:00:00 | |
| HSKMA3-T | 2026-09-03 05:57:21 | 52.31466 | 9.12030 | 108° | 124km/h | 8474m | -8.5m/s | -32.6°C | 82.1% | 345.4hPa | 2.5V | 08:08:33 | 02:25:51 | 00:00:00 | |
| GOEST3-10 | 2026-09-03 05:57:20 | 52.31475 | 9.11981 | 108° | 124km/h | 8483m | -8.7m/s | -32.6°C | 80.2% | 344.8hPa | 2.5V | 00:00:00 | 02:25:50 | 00:00:00 | |
| DF5WG-10 | 2026-09-03 05:57:19 | 52.31485 | 9.11931 | 108° | 126km/h | 8491m | -8.3m/s | -32.6°C | 80.2% | 344.5hPa | 2.5V | 00:00:00 | 02:25:49 | 00:00:00 | |
| DL1XH1-15 | 2026-09-03 05:57:18 | 52.31543 | 9.11637 | 108° | 128km/h | 8541m | -8.6m/s | -33°C | 79.8% | 342hPa | 2.5V | 08:08:11 | 02:25:43 | 00:00:00 | |
| BIOWL9-15 | 2026-09-03 05:57:18 | 52.31504 | 9.11833 | 108° | 124km/h | 8508m | -8.7m/s | -32.8°C | 75.4% | 343.6hPa | 2.6V | 00:00:00 | 00:00:00 | 00:00:00 | |
| DL1XH-15 | 2026-09-03 05:57:17 | 52.31553 | 9.11587 | 108° | 126km/h | 8550m | -8.2m/s | -33°C | 79.5% | 341.7hPa | 2.6V | 08:08:12 | 02:25:42 | 00:00:00 | |
| DJ2DS-15 | 2026-09-03 05:57:17 | 52.31504 | 9.11833 | 109° | 130km/h | 8508m | -8.6m/s | -32.7°C | 80.2% | 343.5hPa | 2.6V | 00:00:00 | 02:25:47 | 00:00:00 | |
| DL1NUX | 2026-09-03 05:57:16 | 52.31563 | 9.11538 | 108° | 128km/h | 8558m | -8.5m/s | -33.1°C | 79.6% | 341.2hPa | 2.6V | 08:08:13 | 02:25:41 | 00:00:00 | |
| DO2JMG | 2026-09-03 05:57:16 | 52.31514 | 9.11784 | 108° | 124km/h | 8516m | -8.5m/s | -32.8°C | 82.4% | 343.3hPa | 2.6V | 08:08:33 | 02:25:46 | 00:00:00 | |
| BIOWL1-15 | 2026-09-03 05:57:13 | 52.31543 | 9.11637 | 108° | 128km/h | 8542m | -8.6m/s | -33°C | 82.3% | 342hPa | 2.5V | 08:08:33 | 02:25:43 | 00:00:00 | |
| DL1XH-west | 2026-09-03 05:57:11 | 52.31563 | 9.11538 | 109° | 128km/h | 8558m | -8.5m/s | -33.1°C | 82.2% | 341.2hPa | 2.6V | 08:08:33 | 02:25:41 | 00:00:00 | |
| DB0DAN | 2026-09-03 05:57:10 | 52.31574 | 9.11488 | 108° | 120km/h | 8567m | -8.5m/s | -33.2°C | 74.7% | 340.82hPa | 2.5V | 00:00:00 | 00:00:00 | 00:00:00 | |
| GOEST3-10 | 2026-09-03 05:57:10 | 52.31573 | 9.11488 | 109° | 130km/h | 8567m | -8.4m/s | -33.1°C | 79.5% | 340.8hPa | 2.5V | 00:00:00 | 02:25:40 | 00:00:00 | |
| HSKMA3-T | 2026-09-03 05:57:10 | 52.31574 | 9.11488 | 108° | 126km/h | 8567m | -8.5m/s | -33.2°C | 82.2% | 340.8hPa | 2.5V | 08:08:33 | 02:25:40 | 00:00:00 | |
| DL1XH1-15 | 2026-09-03 05:57:08 | 52.31649 | 9.11133 | 109° | 131km/h | 8625m | -8.1m/s | -33.6°C | 80.4% | 338hPa | 2.5V | 08:08:21 | 02:25:33 | 00:00:00 | |
| DO2SHX-10 | 2026-09-03 05:57:08 | 52.31595 | 9.11387 | 109° | 130km/h | 8583m | -8.3m/s | -33.2°C | 79.9% | 339.9hPa | 2.5V | 00:00:00 | 02:25:38 | 00:00:00 | |
| DL1XH-15 | 2026-09-03 05:57:07 | 52.31660 | 9.11081 | 109° | 133km/h | 8633m | -8.7m/s | -33.7°C | 80.4% | 337.5hPa | 2.5V | 08:08:22 | 02:25:32 | 00:00:00 | |
| DL1NUX | 2026-09-03 05:57:06 | 52.31671 | 9.11030 | 108° | 131km/h | 8641m | -8.2m/s | -33.8°C | 80.1% | 337.1hPa | 2.6V | 08:08:23 | 02:25:31 | 00:00:00 | |
| AA1-15 | 2026-09-03 05:57:05 | 52.31627 | 9.11235 | 110° | 131km/h | 8608m | -8.4m/s | -33.5°C | 82.8% | 338.7hPa | 2.6V | 08:08:33 | 02:25:35 | 00:00:00 | |
| BIOWL1-15 | 2026-09-03 05:57:03 | 52.31649 | 9.11133 | 109° | 131km/h | 8625m | -8.1m/s | -33.6°C | 82.9% | 338hPa | 2.5V | 08:08:33 | 02:25:33 | 00:00:00 | |
| DM0DOS-11 | 2026-09-03 05:57:02 | 52.31694 | 9.10926 | 110° | 133km/h | 8658m | -8.4m/s | -33.9°C | 80.4% | 336.3hPa | 2.5V | 08:08:25 | 02:25:29 | 00:00:00 | |
| DL1XH-west | 2026-09-03 05:57:01 | 52.31671 | 9.11030 | 109° | 131km/h | 8642m | -8.2m/s | -33.8°C | 82.6% | 337.1hPa | 2.6V | 08:08:33 | 02:25:31 | 00:00:00 | |
| HSKMA3-T | 2026-09-03 05:57:00 | 52.31682 | 9.10978 | 109° | 135km/h | 8650m | -8.5m/s | -33.8°C | 82.7% | 336.8hPa | 2.6V | 08:08:33 | 02:25:30 | 00:00:00 | |
| DO2SHX-10 | 2026-09-03 05:56:59 | 52.31694 | 9.10925 | 111° | 133km/h | 8658m | -8.4m/s | -33.8°C | 80.4% | 336.3hPa | 2.5V | 00:00:00 | 02:25:29 | 00:00:00 | |
| DL1XH1-15 | 2026-09-03 05:56:58 | 52.31763 | 9.10612 | 110° | 135km/h | 8709m | -8.7m/s | -34.3°C | 81.8% | 334hPa | 2.5V | 08:08:31 | 02:25:23 | 00:00:00 | |
| DF5WG-10 | 2026-09-03 05:56:58 | 52.31705 | 9.10874 | 110° | 135km/h | 8667m | -8.3m/s | -33.9°C | 80.6% | 336.0hPa | 2.5V | 00:00:00 | 02:25:28 | 00:00:00 | |
| DL1XH-15 | 2026-09-03 05:56:57 | 52.31775 | 9.10560 | 110° | 133km/h | 8718m | -8.4m/s | -34.4°C | 82.1% | 333.5hPa | 2.5V | 08:08:32 | 02:25:22 | 00:00:00 | |
| DL3AQ-11 | 2026-09-03 05:56:57 | 52.31728 | 9.10770 | 109° | 135km/h | 8683m | -8.4m/s | -34.1°C | 76.4% | 335.1hPa | 2.5V | 00:00:00 | 00:00:00 | 00:00:00 | |
| DL1NUX | 2026-09-03 05:56:56 | 52.31786 | 9.10508 | 109° | 135km/h | 8726m | -8.6m/s | -34.4°C | 82.2% | 333.1hPa | 2.5V | 08:08:33 | 02:25:21 | 00:00:00 | |
| DO2SHX-10 | 2026-09-03 05:56:56 | 52.31727 | 9.10770 | 110° | 135km/h | 8684m | -8.3m/s | -34.0°C | 81.3% | 335.1hPa | 2.6V | 00:00:00 | 02:25:26 | 00:00:00 | |
| SO1NDE-10 | 2026-09-03 05:56:55 | 52.31739 | 9.10717 | 110° | 135km/h | 8692m | -8.6m/s | -34.1°C | 81.4% | 334.7hPa | 2.6V | 00:00:00 | 02:25:25 | 00:00:00 | |
| DM0DOS-11 | 2026-09-03 05:56:54 | 52.31810 | 9.10403 | 111° | 135km/h | 8743m | -8.5m/s | -34.6°C | 82.4% | 332.2hPa | 2.6V | 08:08:35 | 02:25:19 | 00:00:00 | |
| AA1-15 | 2026-09-03 05:56:54 | 52.31751 | 9.10665 | 110° | 137km/h | 8701m | -9m/s | -34.2°C | 84.4% | 334.3hPa | 2.6V | 08:08:33 | 02:25:24 | 00:00:00 | |
| BIOWL1-15 | 2026-09-03 05:56:53 | 52.31763 | 9.10612 | 111° | 135km/h | 8709m | -8.7m/s | -34.3°C | 84.6% | 334hPa | 2.5V | 08:08:33 | 02:25:23 | 00:00:00 | |
| DL1XH-west | 2026-09-03 05:56:50 | 52.31798 | 9.10456 | 110° | 137km/h | 8735m | -8.7m/s | -34.5°C | 85.1% | 332.6hPa | 2.6V | 08:09:24 | 02:25:20 | 00:00:00 | |
| HSKMA3-T | 2026-09-03 05:56:49 | 52.31810 | 9.10403 | 111° | 135km/h | 8743m | -8.5m/s | -34.6°C | 85.2% | 332.2hPa | 2.6V | 08:09:24 | 02:25:19 | 00:00:00 | |
| DF8AY-15 | 2026-09-03 05:56:49 | 52.31810 | 9.10403 | 112° | 135km/h | 8743m | -8.5m/s | -34.5°C | 82.4% | 332.2hPa | 2.5V | 00:00:00 | 02:25:19 | 00:00:00 | |
| DF5WG-10 | 2026-09-03 05:56:48 | 52.31822 | 9.10351 | 111° | 135km/h | 8752m | -8.2m/s | -34.6°C | 82.5% | 331.9hPa | 2.5V | 00:00:00 | 02:25:18 | 00:00:00 | |
| DL1XH-15 | 2026-09-03 05:56:47 | 52.31895 | 9.10040 | 111° | 133km/h | 8802m | -8.6m/s | -35.1°C | 82.4% | 329.5hPa | 2.5V | 08:08:42 | 02:25:12 | 00:00:00 | |
| BIOWL9-15 | 2026-09-03 05:56:47 | 52.31846 | 9.10246 | 111° | 135km/h | 8768m | -8.9m/s | -34.8°C | 77.4% | 331.0hPa | 2.5V | 00:00:00 | 00:00:00 | 00:00:00 | |
| DL1NUX | 2026-09-03 05:56:46 | 52.31908 | 9.09989 | 110° | 131km/h | 8811m | -8.2m/s | -35.2°C | 82.4% | 329.1hPa | 2.5V | 08:08:43 | 02:25:11 | 00:00:00 | |
| DL3AQ-11 | 2026-09-03 05:56:46 | 52.31859 | 9.10194 | 111° | 133km/h | 8777m | -8.7m/s | -34.9°C | 77.5% | 330.7hPa | 2.6V | 00:00:00 | 00:00:00 | 00:00:00 | |
| GOEST3-10 | 2026-09-03 05:56:45 | 52.31859 | 9.10194 | 112° | 133km/h | 8777m | -8.6m/s | -34.8°C | 82.5% | 330.6hPa | 2.6V | 00:00:00 | 00:00:00 | 00:00:00 | |
| DL1XH1-15 | 2026-09-03 05:56:44 | 52.31883 | 9.10091 | 111° | 135km/h | 8794m | -8.6m/s | -35°C | 82.3% | 329.9hPa | 2.6V | 08:08:41 | 02:25:13 | 00:00:00 | |
| DO2JMG | 2026-09-03 05:56:44 | 52.31871 | 9.10143 | 111° | 133km/h | 8786m | -8.3m/s | -34.9°C | 85% | 330.3hPa | 2.6V | 08:09:24 | 02:25:14 | 00:00:00 | |
| BIOWL1-15 | 2026-09-03 05:56:44 | 52.31895 | 9.10040 | 112° | 133km/h | 8802m | -8.6m/s | -35.1°C | 85% | 329.5hPa | 2.5V | 08:09:24 | 02:25:12 | 00:00:00 | |
| DO2SHX-10 | 2026-09-03 05:56:44 | 52.31871 | 9.10143 | 111° | 133km/h | 8786m | -8.3m/s | -34.9°C | 82.4% | 330.2hPa | 2.6V | 00:00:00 | 02:25:14 | 00:00:00 | |
| DB0UT-7 | 2026-09-03 05:56:43 | 52.31883 | 9.10091 | 112° | 135km/h | 8794m | -8.6m/s | -35.0°C | 82.3% | 329.9hPa | 2.6V | 00:00:00 | 02:25:13 | 00:00:00 | |
| DD8BA-10 | 2026-09-03 05:56:42 | 52.31895 | 9.10040 | 112° | 133km/h | 8803m | -8.6m/s | -35.1°C | 82.4% | 329.4hPa | 2.5V | 00:00:00 | 00:00:00 | 00:00:00 | |
| DB0DAN | 2026-09-03 05:56:40 | 52.31919 | 9.09937 | 111° | 128km/h | 8819m | -8.5m/s | -35.3°C | 77.3% | 328.67hPa | 2.5V | 00:00:00 | 00:00:00 | 00:00:00 | |
| DL1XH-west | 2026-09-03 05:56:40 | 52.31919 | 9.09937 | 111° | 135km/h | 8819m | -8.5m/s | -35.3°C | 84.8% | 328.7hPa | 2.5V | 08:09:24 | 02:25:10 | 00:00:00 | |
| HSKMA3-T | 2026-09-03 05:56:39 | 52.31932 | 9.09886 | 111° | 133km/h | 8827m | -8.4m/s | -35.3°C | 84.5% | 328.3hPa | 2.5V | 08:09:24 | 02:25:09 | 00:00:00 | |
| DO2SHX-10 | 2026-09-03 05:56:38 | 52.31944 | 9.09835 | 111° | 133km/h | 8835m | -8.2m/s | -35.4°C | 81.6% | 327.8hPa | 2.6V | 00:00:00 | 02:25:08 | 00:00:00 | |
| DL1XH-15 | 2026-09-03 05:56:37 | 52.32016 | 9.09525 | 111° | 133km/h | 8886m | -8.6m/s | -35.8°C | 77.8% | 325.5hPa | 2.6V | 08:08:52 | 02:25:02 | 00:00:00 | |
| DJ2DS-15 | 2026-09-03 05:56:37 | 52.31955 | 9.09784 | 111° | 135km/h | 8843m | -8.1m/s | -35.4°C | 81.2% | 327.5hPa | 2.6V | 00:00:00 | 02:25:07 | 00:00:00 | |
| DL1NUX | 2026-09-03 05:56:36 | 52.32029 | 9.09474 | 110° | 133km/h | 8894m | -8.5m/s | -35.9°C | 77.5% | 325.1hPa | 2.6V | 08:08:53 | 02:25:01 | 00:00:00 | |
| BIOWL1-15 | 2026-09-03 05:56:36 | 52.32017 | 9.09525 | 112° | 133km/h | 8886m | -8.6m/s | -35.8°C | 80.8% | 325.5hPa | 2.6V | 08:09:24 | 02:25:02 | 00:00:00 | |
| DO2SHX-10 | 2026-09-03 05:56:35 | 52.31979 | 9.09680 | 111° | 135km/h | 8860m | -8.7m/s | -35.6°C | 79.6% | 326.6hPa | 2.5V | 00:00:00 | 02:25:05 | 00:00:00 | |
| DL1XH1-15 | 2026-09-03 05:56:34 | 52.32004 | 9.09577 | 111° | 135km/h | 8877m | -8.5m/s | -35.8°C | 78.6% | 326hPa | 2.5V | 08:08:51 | 02:25:03 | 00:00:00 | |
| DO2JMG | 2026-09-03 05:56:34 | 52.31992 | 9.09628 | 111° | 135km/h | 8868m | -9m/s | -35.7°C | 82% | 326.4hPa | 2.5V | 08:09:24 | 02:25:04 | 00:00:00 | |
| DL1XH-west | 2026-09-03 05:56:30 | 52.32040 | 9.09422 | 110° | 135km/h | 8902m | -9m/s | -35.9°C | 79.5% | 324.8hPa | 2.5V | 08:09:24 | 02:25:00 | 00:00:00 | |
| HSKMA3-T | 2026-09-03 05:56:29 | 52.32052 | 9.09370 | 111° | 135km/h | 8911m | -8.6m/s | -36°C | 79.7% | 324.2hPa | 2.5V | 08:09:24 | 02:24:59 | 00:00:00 | |
| DF8AY-15 | 2026-09-03 05:56:29 | 52.32052 | 9.09370 | 111° | 135km/h | 8911m | -8.5m/s | -36.0°C | 77.1% | 324.2hPa | 2.5V | 00:00:00 | 02:24:59 | 00:00:00 | |
| DL1XH-15 | 2026-09-03 05:56:27 | 52.32137 | 9.09006 | 110° | 133km/h | 8970m | -8.7m/s | -36.6°C | 77.2% | 321.6hPa | 2.5V | 08:09:02 | 02:24:52 | 00:00:00 | |
| DF5WG-10 | 2026-09-03 05:56:27 | 52.32076 | 9.09267 | 111° | 135km/h | 8928m | -8.3m/s | -36.1°C | 76.7% | 323.6hPa | 2.6V | 08:08:00 | 02:24:57 | 00:00:00 | |
| DL1NUX | 2026-09-03 05:56:26 | 52.32149 | 9.08954 | 109° | 135km/h | 8979m | -8.9m/s | -36.6°C | 77.1% | 321.2hPa | 2.5V | 08:09:03 | 02:24:51 | 00:00:00 | |
| DB0DAN | 2026-09-03 05:56:25 | 52.32100 | 9.09162 | 111° | 130km/h | 8944m | -8.8m/s | -36.3°C | 71.9% | 322.82hPa | 2.6V | 00:00:00 | 00:00:00 | 00:00:00 | |
| SO1NDE-10 | 2026-09-03 05:56:25 | 52.32100 | 9.09162 | 111° | 141km/h | 8944m | -8.8m/s | -36.3°C | 76.9% | 322.8hPa | 2.6V | 00:00:00 | 02:24:55 | 00:00:00 | |
| DL1XH1-15 | 2026-09-03 05:56:24 | 52.32125 | 9.09058 | 111° | 135km/h | 8961m | -8.8m/s | -36.5°C | 77.3% | 322hPa | 2.5V | 08:09:01 | 02:24:53 | 00:00:00 | |
| DM0DOS-11 | 2026-09-03 05:56:23 | 52.32173 | 9.08848 | 110° | 135km/h | 8996m | -8.8m/s | -36.8°C | 75.9% | 320.4hPa | 2.6V | 08:09:05 | 02:24:49 | 00:00:00 | |
| DO2JMG | 2026-09-03 05:56:23 | 52.32125 | 9.09057 | 111° | 135km/h | 8961m | -8.8m/s | -36.5°C | 80.6% | 322hPa | 2.5V | 08:09:24 | 02:24:53 | 00:00:00 | |
| BIOWL1-15 | 2026-09-03 05:56:22 | 52.32137 | 9.09006 | 111° | 133km/h | 8970m | -8.7m/s | -36.6°C | 80.4% | 321.6hPa | 2.5V | 08:09:24 | 02:24:52 | 00:00:00 | |
| DF8AY | 2026-09-03 05:56:20 | 52.32161 | 9.08901 | 110° | 137km/h | 8987m | -8.7m/s | -36.7°C | 79.8% | 320.6hPa | 2.6V | 08:09:24 | 02:24:50 | 00:00:00 | |
| DL1XH-west | 2026-09-03 05:56:19 | 52.32173 | 9.08849 | 111° | 135km/h | 8996m | -8.8m/s | -36.8°C | 78.8% | 320.4hPa | 2.6V | 08:09:24 | 02:24:49 | 00:00:00 | |
| GOEST3-10 | 2026-09-03 05:56:19 | 52.32173 | 9.08849 | 111° | 137km/h | 8996m | -8.7m/s | -36.8°C | 75.9% | 320.3hPa | 2.6V | 08:09:00 | 02:24:49 | 00:00:00 | |
| DL1XH-15 | 2026-09-03 05:56:17 | 52.32256 | 9.08479 | 110° | 139km/h | 9057m | -9.1m/s | -37.4°C | 77.4% | 317.6hPa | 2.5V | 08:09:12 | 02:24:42 | 00:00:00 | |
| BIOWL1-15 | 2026-09-03 05:56:13 | 52.32268 | 9.08426 | 110° | 135km/h | 9066m | -8.4m/s | -37.4°C | 80.7% | 317.3hPa | 2.5V | 08:09:24 | 02:24:41 | 00:00:00 | |
| DO2JMG | 2026-09-03 05:56:13 | 52.32244 | 9.08532 | 110° | 135km/h | 9048m | -8.5m/s | -37.3°C | 79.8% | 318hPa | 2.6V | 08:09:24 | 02:24:43 | 00:00:00 | |
| DB0UT-7 | 2026-09-03 05:56:13 | 52.32244 | 9.08532 | 110° | 141km/h | 9048m | -8.5m/s | -37.2°C | 76.9% | 318.0hPa | 2.6V | 00:00:00 | 00:00:00 | 00:00:00 | |
| DD8BA-10 | 2026-09-03 05:56:12 | 52.32256 | 9.08479 | 111° | 139km/h | 9057m | -9.1m/s | -37.3°C | 77.4% | 317.6hPa | 2.6V | 00:00:00 | 00:00:00 | 00:00:00 | |
| DM0DOS-11 | 2026-09-03 05:56:11 | 52.32292 | 9.08320 | 109° | 137km/h | 9083m | -8.7m/s | -37.6°C | 78.1% | 316.4hPa | 2.6V | 08:09:15 | 02:24:39 | 00:00:00 | |
| DB0DAN | 2026-09-03 05:56:10 | 52.32280 | 9.08373 | 110° | 131km/h | 9074m | -8.9m/s | -37.5°C | 73% | 316.69hPa | 2.5V | 00:00:00 | 00:00:00 | 00:00:00 | |
| HSKMA3-T | 2026-09-03 05:56:09 | 52.32292 | 9.08320 | 110° | 137km/h | 9083m | -8.7m/s | -37.6°C | 80.9% | 316.4hPa | 2.6V | 08:09:24 | 02:24:39 | 00:00:00 | |
| DL1XH-west | 2026-09-03 05:56:08 | 52.32304 | 9.08267 | 110° | 139km/h | 9092m | -8.9m/s | -37.7°C | 81% | 316.1hPa | 2.6V | 08:09:24 | 02:24:38 | 00:00:00 | |
| BIOWL1-15 | 2026-09-03 05:56:02 | 52.32402 | 9.07836 | 110° | 141km/h | 9161m | -8.9m/s | -38.3°C | 81% | 312.9hPa | 2.6V | 08:09:24 | 02:24:30 | 00:00:00 | |
| DO2JMG | 2026-09-03 05:56:02 | 52.32377 | 9.07944 | 110° | 139km/h | 9143m | -8.6m/s | -38.2°C | 80.8% | 313.6hPa | 2.6V | 08:09:24 | 02:24:32 | 00:00:00 | |
| DD8BA-10 | 2026-09-03 05:56:02 | 52.32377 | 9.07944 | 111° | 141km/h | 9144m | -8.6m/s | -38.1°C | 78.1% | 313.6hPa | 2.5V | 00:00:00 | 00:00:00 | 00:00:00 | |
| DM0DOS-11 | 2026-09-03 05:56:01 | 52.32414 | 9.07781 | 111° | 141km/h | 9170m | -8.7m/s | -38.4°C | 78.1% | 312.6hPa | 2.5V | 08:09:25 | 02:24:29 | 00:00:00 | |
| EDDB2-11 | 2026-09-03 05:56:00 | 52.32414 | 9.07781 | 111° | 139km/h | 9170m | -8.7m/s | -38.4°C | 72.8% | 312.6hPa | 2.6V | 00:00:00 | 00:00:00 | 00:00:00 | |
| DO2SHX-10 | 2026-09-03 05:55:59 | 52.32414 | 9.07781 | 112° | 141km/h | 9170m | -8.7m/s | -38.3°C | 78.1% | 312.5hPa | 2.6V | 00:00:00 | 02:24:29 | 00:00:00 | |
| DL1XH1-15 | 2026-09-03 05:55:58 | 52.32490 | 9.07456 | 111° | 141km/h | 9221m | -8.9m/s | -38.9°C | 75.1% | 310.2hPa | 2.6V | 08:09:31 | 02:24:23 | 00:00:00 | |
| HSKMA3-T | 2026-09-03 05:55:58 | 52.32427 | 9.07727 | 110° | 141km/h | 9178m | -8.6m/s | -38.5°C | 80.7% | 312.1hPa | 2.5V | 08:10:15 | 02:24:28 | 00:00:00 | |
| DL1XH-west | 2026-09-03 05:55:57 | 52.32439 | 9.07673 | 111° | 141km/h | 9187m | -8.8m/s | -38.5°C | 80.5% | 311.7hPa | 2.5V | 08:10:15 | 02:24:27 | 00:00:00 | |
| BUE01 | 2026-09-03 05:55:56 | 52.32452 | 9.07619 | 110° | 141km/h | 9195m | -8.7m/s | -38.6°C | 72.1% | 311.3hPa | 2.6V | 00:00:00 | 00:00:00 | 00:00:00 | |
| DB0DAN | 2026-09-03 05:55:55 | 52.32464 | 9.07565 | 111° | 133km/h | 9204m | -8.8m/s | -38.7°C | 71.5% | 310.89hPa | 2.6V | 00:00:00 | 00:00:00 | 00:00:00 | |
| DO2JMG | 2026-09-03 05:55:52 | 52.32503 | 9.07402 | 111° | 142km/h | 9230m | -8.5m/s | -38.9°C | 77.8% | 309.8hPa | 2.5V | 08:10:15 | 02:24:22 | 00:00:00 | |
| DD8BA-10 | 2026-09-03 05:55:52 | 52.32503 | 9.07402 | 112° | 142km/h | 9230m | -8.4m/s | -38.9°C | 75.1% | 309.8hPa | 2.5V | 00:00:00 | 00:00:00 | 00:00:00 | |
| DM0DOS-11 | 2026-09-03 05:55:51 | 52.32541 | 9.07239 | 110° | 141km/h | 9256m | -8.6m/s | -39.2°C | 75.1% | 308.6hPa | 2.6V | 08:09:35 | 02:24:19 | 00:00:00 | |
| AA1-15 | 2026-09-03 05:55:51 | 52.32515 | 9.07348 | 111° | 141km/h | 9239m | -8.9m/s | -39°C | 77.9% | 309.4hPa | 2.5V | 08:10:15 | 02:24:21 | 00:00:00 | |
| BIOWL1-15 | 2026-09-03 05:55:49 | 52.32541 | 9.07239 | 111° | 141km/h | 9256m | -8.6m/s | -39.2°C | 77.8% | 308.6hPa | 2.6V | 08:10:15 | 02:24:19 | 00:00:00 | |
| DO2SHX-10 | 2026-09-03 05:55:49 | 52.32541 | 9.07239 | 111° | 142km/h | 9256m | -8.5m/s | -39.1°C | 75.1% | 308.5hPa | 2.6V | 00:00:00 | 02:24:19 | 00:00:00 | |
| DL1XH1-15 | 2026-09-03 05:55:48 | 52.32618 | 9.06908 | 110° | 142km/h | 9308m | -8.8m/s | -39.6°C | 73.8% | 306.3hPa | 2.6V | 08:09:41 | 02:24:13 | 00:00:00 | |
| DF8AY | 2026-09-03 05:55:47 | 52.32566 | 9.07129 | 111° | 144km/h | 9273m | -8.8m/s | -39.3°C | 77.5% | 307.9hPa | 2.5V | 08:10:15 | 02:24:17 | 00:00:00 | |
| DL1XH-west | 2026-09-03 05:55:46 | 52.32579 | 9.07074 | 111° | 142km/h | 9282m | -8.6m/s | -39.4°C | 77.3% | 307.4hPa | 2.5V | 08:10:15 | 02:24:16 | 00:00:00 | |
| DO2SHX-10 | 2026-09-03 05:55:46 | 52.32579 | 9.07074 | 111° | 144km/h | 9282m | -8.5m/s | -39.4°C | 74.5% | 307.4hPa | 2.5V | 00:00:00 | 02:24:16 | 00:00:00 | |
| DF5WG-10 | 2026-09-03 05:55:45 | 52.32592 | 9.07019 | 112° | 144km/h | 9291m | -8.6m/s | -39.4°C | 74.3% | 307.0hPa | 2.5V | 00:00:00 | 02:24:15 | 00:00:00 | |
| DM0DOS-11 | 2026-09-03 05:55:44 | 52.32671 | 9.06687 | 110° | 142km/h | 9343m | -9.2m/s | -40°C | 72.9% | 304.7hPa | 2.5V | 08:09:45 | 02:24:09 | 00:00:00 | |
| DO2JMG | 2026-09-03 05:55:42 | 52.32631 | 9.06853 | 112° | 144km/h | 9317m | -9.1m/s | -39.7°C | 76.3% | 306hPa | 2.6V | 08:10:15 | 02:24:12 | 00:00:00 | |
| AA1-15 | 2026-09-03 05:55:41 | 52.32644 | 9.06798 | 111° | 142km/h | 9326m | -9.1m/s | -39.8°C | 76.1% | 305.5hPa | 2.5V | 08:10:15 | 02:24:11 | 00:00:00 | |
| DB0DAN | 2026-09-03 05:55:40 | 52.32657 | 9.06742 | 111° | 137km/h | 9335m | -8.9m/s | -39.9°C | 68% | 305.08hPa | 2.5V | 00:00:00 | 00:00:00 | 00:00:00 | |
| BIOWL1-15 | 2026-09-03 05:55:38 | 52.32683 | 9.06632 | 111° | 144km/h | 9352m | -8.9m/s | -40.1°C | 75.5% | 304.3hPa | 2.5V | 08:10:15 | 02:24:08 | 00:00:00 | |
| DL1XH-west | 2026-09-03 05:55:36 | 52.32709 | 9.06520 | 111° | 144km/h | 9370m | -9.2m/s | -40.2°C | 76.1% | 303.4hPa | 2.6V | 08:10:15 | 02:24:06 | 00:00:00 | |
| DF5WG-10 | 2026-09-03 05:55:35 | 52.32723 | 9.06464 | 111° | 146km/h | 9379m | -8.8m/s | -40.2°C | 74.1% | 303.1hPa | 2.5V | 00:00:00 | 02:24:05 | 00:00:00 | |
| DM0DOS-11 | 2026-09-03 05:55:34 | 52.32803 | 9.06128 | 110° | 148km/h | 9431m | -8.7m/s | -40.8°C | 75.4% | 300.7hPa | 2.5V | 08:09:55 | 02:23:59 | 00:00:00 | |
| DO2JMG | 2026-09-03 05:55:31 | 52.32776 | 9.06240 | 111° | 144km/h | 9414m | -8.6m/s | -40.6°C | 77.6% | 301.6hPa | 2.6V | 08:10:15 | 02:24:01 | 00:00:00 | |
| AA1-15 | 2026-09-03 05:55:30 | 52.32789 | 9.06184 | 112° | 146km/h | 9423m | -8.6m/s | -40.7°C | 77.7% | 301.1hPa | 2.6V | 08:10:15 | 02:24:00 | 00:00:00 | |
| BIOWL1-15 | 2026-09-03 05:55:30 | 52.32816 | 9.06071 | 111° | 146km/h | 9440m | -9.2m/s | -40.9°C | 77.9% | 300.4hPa | 2.5V | 08:10:15 | 02:23:58 | 00:00:00 | |
| DF8AY-15 | 2026-09-03 05:55:29 | 52.32802 | 9.06128 | 111° | 146km/h | 9431m | -8.6m/s | -40.7°C | 75.4% | 300.7hPa | 2.5V | 00:00:00 | 02:23:59 | 00:00:00 | |
| D01LWL | 2026-09-03 05:55:28 | 52.32816 | 9.06071 | 111° | 146km/h | 9440m | -9.2m/s | -40.9°C | 69.9% | 300.4hPa | 2.5V | 00:00:00 | 00:00:00 | 00:00:00 | |
| DL1XH-15 | 2026-09-03 05:55:27 | 52.32895 | 9.05733 | 111° | 148km/h | 9493m | -9.3m/s | -41.3°C | 73.7% | 298.1hPa | 2.5V | 08:10:02 | 02:23:52 | 00:00:00 | |
| HSKMA3-T | 2026-09-03 05:55:26 | 52.32842 | 9.05958 | 111° | 144km/h | 9458m | -8.9m/s | -41°C | 77.8% | 299.6hPa | 2.6V | 08:10:15 | 02:23:56 | 00:00:00 | |
| DB0DAN | 2026-09-03 05:55:25 | 52.32855 | 9.05902 | 111° | 141km/h | 9466m | -9.1m/s | -41.1°C | 69.1% | 299.19hPa | 2.6V | 00:00:00 | 00:00:00 | 00:00:00 | |
| DL1XH-west | 2026-09-03 05:55:25 | 52.32855 | 9.05902 | 111° | 148km/h | 9466m | -9.1m/s | -41.1°C | 77.6% | 299.2hPa | 2.6V | 08:10:15 | 02:23:55 | 00:00:00 | |
| AA1-15 | 2026-09-03 05:55:20 | 52.32921 | 9.05621 | 112° | 144km/h | 9511m | -8.7m/s | -41.5°C | 76.2% | 297.2hPa | 2.6V | 08:10:15 | 02:23:50 | 00:00:00 | |
| BIOWL1-15 | 2026-09-03 05:55:19 | 52.32962 | 9.05453 | 112° | 146km/h | 9537m | -9.1m/s | -41.7°C | 76% | 296hPa | 2.5V | 08:10:15 | 02:23:47 | 00:00:00 | |
| DO2SHX-10 | 2026-09-03 05:55:19 | 52.32935 | 9.05564 | 112° | 146km/h | 9520m | -8.7m/s | -41.5°C | 73.0% | 296.8hPa | 2.5V | 00:00:00 | 02:23:49 | 00:00:00 | |
| GOEST3-10 | 2026-09-03 05:55:18 | 52.32948 | 9.05508 | 112° | 146km/h | 9529m | -8.6m/s | -41.6°C | 72.7% | 296.5hPa | 2.5V | 00:00:00 | 02:23:48 | 00:00:00 | |
| DL1XH-15 | 2026-09-03 05:55:17 | 52.33029 | 9.05173 | 111° | 144km/h | 9581m | -9.1m/s | -42.1°C | 72.5% | 294.2hPa | 2.6V | 08:10:12 | 02:23:42 | 00:00:00 | |
| HSKMA3-T | 2026-09-03 05:55:16 | 52.32975 | 9.05396 | 111° | 148km/h | 9546m | -8.9m/s | -41.8°C | 75.9% | 295.8hPa | 2.5V | 08:10:15 | 02:23:46 | 00:00:00 | |
| DL1XH-west | 2026-09-03 05:55:14 | 52.33002 | 9.05284 | 112° | 146km/h | 9564m | -8.8m/s | -42°C | 75.7% | 294.9hPa | 2.6V | 08:10:15 | 02:23:44 | 00:00:00 | |
| AA1-15 | 2026-09-03 05:55:10 | 52.33055 | 9.05061 | 111° | 144km/h | 9599m | -8.8m/s | -42.3°C | 75.8% | 293.4hPa | 2.5V | 08:10:15 | 02:23:40 | 00:00:00 | |
| DB0DAN | 2026-09-03 05:55:10 | 52.33055 | 9.05061 | 111° | 139km/h | 9599m | -8.8m/s | -42.3°C | 66.9% | 293.39hPa | 2.5V | 00:00:00 | 00:00:00 | 00:00:00 | |
| DO2SHX-10 | 2026-09-03 05:55:10 | 52.33055 | 9.05061 | 111° | 144km/h | 9599m | -8.7m/s | -42.2°C | 72.5% | 293.3hPa | 2.5V | 00:00:00 | 02:23:40 | 00:00:00 | |
| DF8AY-15 | 2026-09-03 05:55:09 | 52.33069 | 9.05005 | 112° | 146km/h | 9608m | -8.7m/s | -42.3°C | 72.5% | 293.1hPa | 2.5V | 08:10:00 | 02:23:39 | 00:00:00 | |
| DL1XH1-15 | 2026-09-03 05:55:08 | 52.33149 | 9.04672 | 111° | 146km/h | 9660m | -9.1m/s | -42.9°C | 72.3% | 290.8hPa | 2.5V | 08:10:21 | 02:23:33 | 00:00:00 | |
| BIOWL1-15 | 2026-09-03 05:55:07 | 52.33095 | 9.04894 | 111° | 146km/h | 9625m | -8.9m/s | -42.5°C | 75.8% | 292.2hPa | 2.6V | 08:11:06 | 02:23:37 | 00:00:00 | |
| HSKMA3-T | 2026-09-03 05:55:05 | 52.33122 | 9.04783 | 111° | 144km/h | 9643m | -8.6m/s | -42.7°C | 75.8% | 291.4hPa | 2.6V | 08:11:06 | 02:23:35 | 00:00:00 | |
| DL1XH-west | 2026-09-03 05:55:03 | 52.33148 | 9.04672 | 112° | 146km/h | 9660m | -9.1m/s | -42.9°C | 75.8% | 290.8hPa | 2.5V | 08:11:06 | 02:23:33 | 00:00:00 | |
| DO2JMG | 2026-09-03 05:55:00 | 52.33189 | 9.04505 | 111° | 144km/h | 9687m | -9.1m/s | -43.1°C | 76.1% | 289.6hPa | 2.6V | 08:11:06 | 02:23:30 | 00:00:00 | |
| AA1-15 | 2026-09-03 05:54:59 | 52.33202 | 9.04449 | 112° | 146km/h | 9696m | -9.2m/s | -43.2°C | 76.1% | 289.1hPa | 2.5V | 08:11:06 | 02:23:29 | 00:00:00 | |
| DL1XH1-15 | 2026-09-03 05:54:58 | 52.33283 | 9.04113 | 111° | 144km/h | 9749m | -9m/s | -43.7°C | 71.4% | 286.9hPa | 2.5V | 08:10:31 | 02:23:23 | 00:00:00 | |
| BIOWL1-15 | 2026-09-03 05:54:57 | 52.33229 | 9.04337 | 112° | 146km/h | 9713m | -9m/s | -43.4°C | 75.8% | 288.4hPa | 2.5V | 08:11:06 | 02:23:27 | 00:00:00 | |
| DF8AY | 2026-09-03 05:54:55 | 52.33257 | 9.04225 | 111° | 146km/h | 9731m | -9.1m/s | -43.5°C | 75.2% | 287.8hPa | 2.6V | 08:11:06 | 02:23:25 | 00:00:00 | |
| DB0DAN | 2026-09-03 05:54:55 | 52.33257 | 9.04225 | 111° | 139km/h | 9731m | -9.1m/s | -43.5°C | 66% | 287.75hPa | 2.6V | 00:00:00 | 00:00:00 | 00:00:00 | |
| HSKMA3-T | 2026-09-03 05:54:54 | 52.33270 | 9.04169 | 111° | 144km/h | 9740m | -8.8m/s | -43.6°C | 75% | 287.3hPa | 2.5V | 08:11:06 | 02:23:24 | 00:00:00 | |
| DL1XH-west | 2026-09-03 05:54:53 | 52.33283 | 9.04113 | 111° | 144km/h | 9749m | -9m/s | -43.7°C | 74.9% | 286.9hPa | 2.5V | 08:11:06 | 02:23:23 | 00:00:00 | |
| DO2JMG | 2026-09-03 05:54:49 | 52.33337 | 9.03890 | 111° | 146km/h | 9784m | -9.1m/s | -44°C | 74.6% | 285.4hPa | 2.6V | 08:11:06 | 02:23:19 | 00:00:00 | |
| AA1-15 | 2026-09-03 05:54:48 | 52.33350 | 9.03834 | 111° | 146km/h | 9793m | -9.2m/s | -44.1°C | 74.8% | 285hPa | 2.5V | 08:11:06 | 02:23:18 | 00:00:00 | |
| HARRO8 | 2026-09-03 05:54:48 | 52.33364 | 9.03778 | 110° | 144km/h | 9802m | -8.8m/s | -44.2°C | 65.7% | 284.7hPa | 2.6V | 00:00:00 | 00:00:00 | 00:00:00 | |
| DL1XH-15 | 2026-09-03 05:54:47 | 52.33429 | 9.03500 | 111° | 144km/h | 9847m | -8.9m/s | -44.6°C | 72.3% | 282.8hPa | 2.6V | 08:10:42 | 02:23:12 | 00:00:00 | |
| BIOWL1-15 | 2026-09-03 05:54:46 | 52.33377 | 9.03722 | 111° | 144km/h | 9811m | -9.2m/s | -44.3°C | 75% | 284.4hPa | 2.5V | 08:11:06 | 02:23:16 | 00:00:00 | |
| DF8AY | 2026-09-03 05:54:45 | 52.33390 | 9.03666 | 111° | 144km/h | 9820m | -8.9m/s | -44.3°C | 75.2% | 283.9hPa | 2.5V | 08:11:06 | 02:23:15 | 00:00:00 | |
| HSKMA3-T | 2026-09-03 05:54:44 | 52.33403 | 9.03611 | 111° | 144km/h | 9829m | -9.2m/s | -44.4°C | 75.4% | 283.5hPa | 2.6V | 08:11:06 | 02:23:14 | 00:00:00 | |
| EDDB2-12 | 2026-09-03 05:54:44 | 52.33403 | 9.03611 | 110° | 142km/h | 9829m | -9.2m/s | -44.4°C | 66.2% | 283.5hPa | 2.6V | 00:00:00 | 00:00:00 | 00:00:00 | |
| DL1XH-west | 2026-09-03 05:54:43 | 52.33416 | 9.03556 | 111° | 144km/h | 9838m | -8.9m/s | -44.5°C | 75.5% | 283.2hPa | 2.6V | 08:11:06 | 02:23:13 | 00:00:00 | |
| DB0UT-7 | 2026-09-03 05:54:43 | 52.33416 | 9.03556 | 112° | 146km/h | 9838m | -8.8m/s | -44.5°C | 72.3% | 283.1hPa | 2.5V | 00:00:00 | 02:23:13 | 00:00:00 | |
| DD8BA-10 | 2026-09-03 05:54:42 | 52.33429 | 9.03500 | 112° | 146km/h | 9847m | -8.8m/s | -44.5°C | 72.3% | 282.8hPa | 2.5V | 00:00:00 | 00:00:00 | 00:00:00 | |
| DB0DAN | 2026-09-03 05:54:40 | 52.33456 | 9.03389 | 111° | 139km/h | 9865m | -9.2m/s | -44.7°C | 66.6% | 282.01hPa | 2.5V | 00:00:00 | 00:00:00 | 00:00:00 | |
| DO2JMG | 2026-09-03 05:54:39 | 52.33469 | 9.03333 | 111° | 146km/h | 9874m | -9.4m/s | -44.8°C | 75.8% | 281.8hPa | 2.5V | 08:11:06 | 02:23:09 | 00:00:00 | |
| DL1XH1-15 | 2026-09-03 05:54:38 | 52.33548 | 9.02996 | 110° | 146km/h | 9927m | -9.1m/s | -45.3°C | 74.4% | 279.4hPa | 2.5V | 08:10:51 | 02:23:03 | 00:00:00 | |
| AA1-15 | 2026-09-03 05:54:38 | 52.33482 | 9.03277 | 111° | 146km/h | 9883m | -9.2m/s | -44.9°C | 75.9% | 281.3hPa | 2.5V | 08:11:06 | 02:23:08 | 00:00:00 | |
| BIOWL1-15 | 2026-09-03 05:54:36 | 52.33508 | 9.03165 | 111° | 146km/h | 9901m | -8.6m/s | -45.1°C | 76.4% | 280.6hPa | 2.6V | 08:11:06 | 02:23:06 | 00:00:00 | |
| HSKMA3-T | 2026-09-03 05:54:34 | 52.33535 | 9.03052 | 111° | 146km/h | 9918m | -9m/s | -45.2°C | 77.1% | 279.8hPa | 2.5V | 08:11:06 | 02:23:04 | 00:00:00 | |
| DL1XH-west | 2026-09-03 05:54:33 | 52.33548 | 9.02996 | 111° | 146km/h | 9927m | -9.1m/s | -45.3°C | 77.6% | 279.4hPa | 2.5V | 08:11:06 | 02:23:03 | 00:00:00 | |
| DF5WG-10 | 2026-09-03 05:54:33 | 52.33548 | 9.02995 | 111° | 144km/h | 9927m | -9.1m/s | -45.3°C | 74.4% | 279.3hPa | 2.5V | 00:00:00 | 02:23:03 | 00:00:00 | |
| DD8BA-10 | 2026-09-03 05:54:32 | 52.33561 | 9.02939 | 111° | 144km/h | 9937m | -9.2m/s | -45.3°C | 74.8% | 279.0hPa | 2.5V | 00:00:00 | 00:00:00 | 00:00:00 | |
| DO2SHX-10 | 2026-09-03 05:54:31 | 52.33574 | 9.02882 | 111° | 146km/h | 9946m | -9.3m/s | -45.4°C | 75.2% | 278.7hPa | 2.5V | 08:10:00 | 02:23:01 | 00:00:00 | |
| DF8AY-15 | 2026-09-03 05:54:29 | 52.33600 | 9.02770 | 111° | 146km/h | 9964m | -8.9m/s | -45.6°C | 76.5% | 277.9hPa | 2.6V | 00:00:00 | 02:22:59 | 00:00:00 | |
| DO2JMG | 2026-09-03 05:54:29 | 52.33600 | 9.02770 | 111° | 144km/h | 9964m | -9m/s | -45.6°C | 79.7% | 277.9hPa | 2.6V | 08:11:06 | 02:22:59 | 00:00:00 | |
| DL1XH1-15 | 2026-09-03 05:54:28 | 52.33675 | 9.02435 | 109° | 144km/h | 10018m | -9.4m/s | -46.1°C | 78.7% | 275.7hPa | 2.6V | 08:11:01 | 02:22:53 | 00:00:00 | |
| AA1-15 | 2026-09-03 05:54:27 | 52.33626 | 9.02658 | 110° | 144km/h | 9982m | -9.2m/s | -45.8°C | 80.8% | 277.1hPa | 2.5V | 08:11:06 | 02:22:57 | 00:00:00 | |
| BIOWL1-15 | 2026-09-03 05:54:25 | 52.33662 | 9.02491 | 109° | 142km/h | 10009m | -8.9m/s | -46.1°C | 82% | 276hPa | 2.5V | 08:11:06 | 02:22:54 | 00:00:00 | |
| DF8AY | 2026-09-03 05:54:23 | 52.33675 | 9.02435 | 110° | 144km/h | 10018m | -9.4m/s | -46.1°C | 82.2% | 275.7hPa | 2.6V | 08:11:06 | 02:22:53 | 00:00:00 | |
| DL1XH-west | 2026-09-03 05:54:22 | 52.33687 | 9.02379 | 109° | 144km/h | 10028m | -9.3m/s | -46.2°C | 82.4% | 275.4hPa | 2.6V | 08:11:06 | 02:22:52 | 00:00:00 | |
| DO2JMG | 2026-09-03 05:54:18 | 52.33737 | 9.02152 | 110° | 146km/h | 10064m | -9.2m/s | -46.6°C | 82.6% | 273.8hPa | 2.5V | 08:11:06 | 02:22:48 | 00:00:00 | |
| GOEST3-10 | 2026-09-03 05:54:18 | 52.33736 | 9.02152 | 111° | 146km/h | 10064m | -9.2m/s | -46.5°C | 79.0% | 273.7hPa | 2.5V | 00:00:00 | 02:22:48 | 00:00:00 | |
| DL1XH-15 | 2026-09-03 05:54:17 | 52.33812 | 9.01811 | 109° | 146km/h | 10119m | -9.2m/s | -47.1°C | 78.4% | 271.5hPa | 2.5V | 08:11:12 | 02:22:42 | 00:00:00 | |
| AA1-15 | 2026-09-03 05:54:16 | 52.33762 | 9.02039 | 110° | 146km/h | 10082m | -9.3m/s | -46.7°C | 82.3% | 273hPa | 2.6V | 08:11:57 | 02:22:46 | 00:00:00 | |
| DD1CC3-15 | 2026-09-03 05:54:15 | 52.33762 | 9.02039 | 111° | 146km/h | 10082m | -9.3m/s | -46.7°C | 72.2% | 273.0hPa | 2.6V | 08:11:00 | 00:00:00 | 00:00:00 | |
| DL1NUX | 2026-09-03 05:54:14 | 52.33849 | 9.01639 | 109° | 148km/h | 10147m | -9.3m/s | -47.3°C | 77.6% | 270.3hPa | 2.6V | 08:11:15 | 02:22:39 | 00:00:00 | |
| BIOWL1-15 | 2026-09-03 05:54:13 | 52.33799 | 9.01868 | 110° | 146km/h | 10110m | -9.5m/s | -47°C | 82.1% | 271.9hPa | 2.5V | 08:11:57 | 02:22:43 | 00:00:00 | |
| DL1XH-west | 2026-09-03 05:54:12 | 52.33812 | 9.01811 | 110° | 146km/h | 10119m | -9.2m/s | -47.1°C | 81.7% | 271.5hPa | 2.5V | 08:11:57 | 02:22:42 | 00:00:00 | |
| DO2SHX-10 | 2026-09-03 05:54:12 | 52.33812 | 9.01811 | 110° | 146km/h | 10120m | -9.2m/s | -47.0°C | 78.4% | 271.4hPa | 2.5V | 00:00:00 | 02:22:42 | 00:00:00 | |
| DB0DAN | 2026-09-03 05:54:10 | 52.33837 | 9.01697 | 109° | 141km/h | 10138m | -9.1m/s | -47.3°C | 71% | 270.78hPa | 2.5V | 00:00:00 | 00:00:00 | 00:00:00 | |
| DO2JMG | 2026-09-03 05:54:08 | 52.33862 | 9.01582 | 110° | 148km/h | 10156m | -9.4m/s | -47.4°C | 81.2% | 270hPa | 2.6V | 08:11:57 | 02:22:38 | 00:00:00 | |
| GOEST3-10 | 2026-09-03 05:54:08 | 52.33862 | 9.01582 | 110° | 148km/h | 10156m | -9.3m/s | -47.4°C | 77.7% | 269.9hPa | 2.6V | 00:00:00 | 02:22:38 | 00:00:00 | |
| DL1XH-15 | 2026-09-03 05:54:07 | 52.33937 | 9.01237 | 109° | 148km/h | 10211m | -8.9m/s | -48°C | 79% | 267.7hPa | 2.6V | 08:11:22 | 02:22:32 | 00:00:00 | |
| AA1-15 | 2026-09-03 05:54:06 | 52.33887 | 9.01467 | 109° | 148km/h | 10174m | -9.4m/s | -47.6°C | 81.6% | 269.3hPa | 2.5V | 08:11:57 | 02:22:36 | 00:00:00 | |
| DO2SHX-10 | 2026-09-03 05:54:05 | 52.33899 | 9.01409 | 111° | 148km/h | 10184m | -9.3m/s | -47.6°C | 78.4% | 268.9hPa | 2.5V | 00:00:00 | 02:22:35 | 00:00:00 | |
| DL1NUX | 2026-09-03 05:54:04 | 52.33974 | 9.01062 | 109° | 151km/h | 10239m | -9.2m/s | -48.2°C | 80% | 266.6hPa | 2.5V | 08:11:25 | 02:22:29 | 00:00:00 | |
| HSKMA3-T | 2026-09-03 05:54:03 | 52.33925 | 9.01294 | 110° | 150km/h | 10202m | -9.7m/s | -47.9°C | 82.1% | 268.2hPa | 2.5V | 08:11:57 | 02:22:33 | 00:00:00 | |
| BIOWL1-15 | 2026-09-03 05:54:02 | 52.33937 | 9.01237 | 110° | 148km/h | 10211m | -8.9m/s | -48°C | 82.3% | 267.7hPa | 2.6V | 08:11:57 | 02:22:32 | 00:00:00 | |
| DF8AY | 2026-09-03 05:54:01 | 52.33950 | 9.01179 | 109° | 150km/h | 10221m | -9.9m/s | -48°C | 82.7% | 267.4hPa | 2.6V | 08:11:57 | 02:22:31 | 00:00:00 | |
| DB0ND-19 | 2026-09-03 05:53:59 | 52.33987 | 9.01003 | 109° | 150km/h | 10248m | -9.4m/s | -48.3°C | 73.3% | 266.2hPa | 2.6V | 00:00:00 | 00:00:00 | 00:00:00 | |
| DL1XH1-15 | 2026-09-03 05:53:58 | 52.34047 | 9.00704 | 107° | 153km/h | 10295m | -9.2m/s | -48.6°C | 80.7% | 264.4hPa | 2.6V | 08:11:31 | 02:22:23 | 00:00:00 | |
| DO2JMG | 2026-09-03 05:53:57 | 52.33999 | 9.00944 | 109° | 151km/h | 10257m | -9.6m/s | -48.4°C | 83.6% | 265.9hPa | 2.5V | 08:11:57 | 02:22:27 | 00:00:00 | |
| EDDB2-11 | 2026-09-03 05:53:56 | 52.34024 | 9.00824 | 107° | 151km/h | 10276m | -9.6m/s | -48.5°C | 73.6% | 265.2hPa | 2.6V | 00:00:00 | 00:00:00 | 00:00:00 | |
| DB0DAN | 2026-09-03 05:53:55 | 52.34024 | 9.00824 | 108° | 146km/h | 10276m | -9.6m/s | -48.5°C | 73.6% | 265.21hPa | 2.6V | 00:00:00 | 00:00:00 | 00:00:00 | |
| AA1-15 | 2026-09-03 05:53:55 | 52.34024 | 9.00824 | 108° | 153km/h | 10276m | -9.6m/s | -48.5°C | 83.8% | 265.2hPa | 2.6V | 08:11:57 | 02:22:25 | 00:00:00 | |
| DL1NUX | 2026-09-03 05:53:54 | 52.34095 | 9.00463 | 108° | 155km/h | 10332m | -9.1m/s | -48.9°C | 81.3% | 263hPa | 2.5V | 08:11:35 | 02:22:19 | 00:00:00 | |
| HSKMA3-T | 2026-09-03 05:53:52 | 52.34059 | 9.00644 | 108° | 153km/h | 10305m | -9.2m/s | -48.7°C | 83.8% | 264.1hPa | 2.5V | 08:11:57 | 02:22:22 | 00:00:00 | |
| DL1XH-west | 2026-09-03 05:53:51 | 52.34071 | 9.00584 | 108° | 153km/h | 10314m | -9m/s | -48.8°C | 83.9% | 263.7hPa | 2.5V | 08:11:57 | 02:22:21 | 00:00:00 | |
| DF8AY | 2026-09-03 05:53:50 | 52.34083 | 9.00524 | 108° | 153km/h | 10323m | -9m/s | -48.8°C | 84.3% | 263.3hPa | 2.5V | 08:11:57 | 02:22:20 | 00:00:00 | |
| HTAHTA | 2026-09-03 05:53:50 | 52.34096 | 9.00463 | 108° | 155km/h | 10332m | -9.1m/s | -48.9°C | 74.3% | 263.0hPa | 2.5V | 00:00:00 | 00:00:00 | 00:00:00 | |
| DF8AY-15 | 2026-09-03 05:53:49 | 52.34095 | 9.00463 | 109° | 161km/h | 10332m | -9.0m/s | -48.8°C | 81.3% | 263.0hPa | 2.5V | 00:00:00 | 02:22:19 | 00:00:00 | |
| DL1XH1-15 | 2026-09-03 05:53:48 | 52.34172 | 9.00096 | 109° | 159km/h | 10387m | -9.3m/s | -49.3°C | 76.5% | 260.8hPa | 2.5V | 08:11:41 | 02:22:13 | 00:00:00 | |
| DF5WG-10 | 2026-09-03 05:53:48 | 52.34108 | 9.00403 | 110° | 157km/h | 10341m | -8.6m/s | -48.9°C | 80.9% | 262.5hPa | 2.6V | 00:00:00 | 02:22:18 | 00:00:00 | |
| DL1XH-15 | 2026-09-03 05:53:47 | 52.34185 | 9.00035 | 109° | 159km/h | 10396m | -9m/s | -49.3°C | 76% | 260.4hPa | 2.5V | 08:11:42 | 02:22:12 | 00:00:00 | |
| DO2JMG | 2026-09-03 05:53:47 | 52.34121 | 9.00342 | 109° | 155km/h | 10350m | -9m/s | -49°C | 82.7% | 262.2hPa | 2.6V | 08:11:57 | 02:22:17 | 00:00:00 | |
| AA1-15 | 2026-09-03 05:53:45 | 52.34146 | 9.00220 | 109° | 157km/h | 10369m | -9.8m/s | -49.1°C | 79.8% | 261.4hPa | 2.5V | 08:11:57 | 02:22:15 | 00:00:00 | |
| HSKMA3-T | 2026-09-03 05:53:42 | 52.34185 | 9.00035 | 109° | 159km/h | 10396m | -9m/s | -49.3°C | 78.4% | 260.4hPa | 2.5V | 08:11:57 | 02:22:12 | 00:00:00 | |
| BIOWL1-15 | 2026-09-03 05:53:41 | 52.34198 | 8.99973 | 109° | 159km/h | 10406m | -9.4m/s | -49.4°C | 78.3% | 260hPa | 2.6V | 08:11:57 | 02:22:11 | 00:00:00 | |
| DB0DAN | 2026-09-03 05:53:40 | 52.34211 | 8.99911 | 109° | 153km/h | 10415m | -9.3m/s | -49.4°C | 69% | 259.65hPa | 2.6V | 00:00:00 | 00:00:00 | 00:00:00 | |
| DF8AY | 2026-09-03 05:53:39 | 52.34225 | 8.99848 | 109° | 161km/h | 10424m | -9.2m/s | -49.4°C | 78.1% | 259.3hPa | 2.6V | 08:11:57 | 02:22:09 | 00:00:00 | |
| DL1XH1-15 | 2026-09-03 05:53:38 | 52.34307 | 8.99469 | 109° | 162km/h | 10478m | -9.3m/s | -49.8°C | 71.9% | 257.1hPa | 2.6V | 08:11:51 | 02:22:03 | 00:00:00 | |
| DO2SHX-10 | 2026-09-03 05:53:38 | 52.34238 | 8.99785 | 110° | 162km/h | 10434m | -8.8m/s | -49.4°C | 74.8% | 258.8hPa | 2.6V | 00:00:00 | 02:22:08 | 00:00:00 | |
| DL1XH-15 | 2026-09-03 05:53:37 | 52.34321 | 8.99405 | 109° | 164km/h | 10488m | -9.6m/s | -49.8°C | 71.5% | 256.8hPa | 2.6V | 08:11:52 | 02:22:02 | 00:00:00 | |
| DJ2DS-15 | 2026-09-03 05:53:37 | 52.34251 | 8.99722 | 110° | 164km/h | 10443m | -9.1m/s | -49.5°C | 74.1% | 258.6hPa | 2.5V | 00:00:00 | 02:22:07 | 00:00:00 | |
| DD1CC8 | 2026-09-03 05:53:36 | 52.34265 | 8.99659 | 109° | 161km/h | 10452m | -9.0m/s | -49.6°C | 66.7% | 258.1hPa | 2.5V | 00:00:00 | 00:00:00 | 00:00:00 | |
| DO2JMG | 2026-09-03 05:53:36 | 52.34265 | 8.99659 | 109° | 162km/h | 10452m | -9m/s | -49.6°C | 76.7% | 258.1hPa | 2.5V | 08:11:57 | 02:22:06 | 00:00:00 | |
| DO2SHX-10 | 2026-09-03 05:53:35 | 52.34279 | 8.99595 | 110° | 162km/h | 10461m | -8.7m/s | -49.6°C | 73.0% | 257.6hPa | 2.5V | 00:00:00 | 02:22:05 | 00:00:00 | |
| DL1NUX | 2026-09-03 05:53:34 | 52.34363 | 8.99215 | 110° | 164km/h | 10516m | -9.7m/s | -50°C | 70.1% | 255.7hPa | 2.5V | 08:11:55 | 02:21:59 | 00:00:00 | |
| AA1-15 | 2026-09-03 05:53:34 | 52.34293 | 8.99532 | 110° | 164km/h | 10469m | -9m/s | -49.7°C | 75.6% | 257.3hPa | 2.6V | 08:11:57 | 02:22:04 | 00:00:00 | |
| HSKMA3-T | 2026-09-03 05:53:31 | 52.34335 | 8.99342 | 110° | 162km/h | 10497m | -9.3m/s | -49.9°C | 74.4% | 256.3hPa | 2.5V | 08:11:57 | 02:22:01 | 00:00:00 | |
| DL1XH-west | 2026-09-03 05:53:30 | 52.34349 | 8.99278 | 110° | 164km/h | 10506m | -9.2m/s | -50°C | 73.8% | 256hPa | 2.5V | 08:11:57 | 02:22:00 | 00:00:00 | |
| DF8AY | 2026-09-03 05:53:29 | 52.34363 | 8.99215 | 110° | 164km/h | 10516m | -9.7m/s | -50.1°C | 73.2% | 255.7hPa | 2.5V | 08:11:57 | 02:21:59 | 00:00:00 | |
| DF8AY-15 | 2026-09-03 05:53:29 | 52.34363 | 8.99214 | 111° | 164km/h | 10516m | -9.6m/s | -50.0°C | 70.1% | 255.6hPa | 2.5V | 00:00:00 | 02:21:59 | 00:00:00 | |
| DL1XH1-15 | 2026-09-03 05:53:28 | 52.34449 | 8.98833 | 110° | 164km/h | 10572m | -9.1m/s | -50.3°C | 67.4% | 253.4hPa | 2.5V | 08:12:01 | 02:21:53 | 00:00:00 | |
| DF5WG-10 | 2026-09-03 05:53:28 | 52.34377 | 8.99151 | 110° | 164km/h | 10526m | -9.4m/s | -50.0°C | 69.1% | 255.1hPa | 2.5V | 00:00:00 | 02:21:58 | 00:00:00 | |
| DL1XH-15 | 2026-09-03 05:53:27 | 52.34463 | 8.98770 | 110° | 164km/h | 10581m | -9.1m/s | -50.4°C | 67.6% | 253.1hPa | 2.5V | 08:12:02 | 02:21:52 | 00:00:00 | |
| DO2JMG | 2026-09-03 05:53:25 | 52.34420 | 8.98961 | 111° | 164km/h | 10553m | -9.2m/s | -50.3°C | 71.3% | 254.2hPa | 2.6V | 08:12:48 | 02:21:55 | 00:00:00 | |
| DB0DAN | 2026-09-03 05:53:25 | 52.34420 | 8.98961 | 111° | 157km/h | 10553m | -9.2m/s | -50.3°C | 61.6% | 254.18hPa | 2.6V | 00:00:00 | 00:00:00 | 00:00:00 | |
| DL1NUX | 2026-09-03 05:53:24 | 52.34507 | 8.98578 | 111° | 166km/h | 10609m | -9.7m/s | -50.6°C | 68.4% | 251.9hPa | 2.6V | 08:12:05 | 02:21:49 | 00:00:00 | |
| AA1-15 | 2026-09-03 05:53:23 | 52.34449 | 8.98833 | 110° | 164km/h | 10572m | -9.1m/s | -50.3°C | 71% | 253.4hPa | 2.5V | 08:12:48 | 02:21:53 | 00:00:00 | |
| HSKMA3-T | 2026-09-03 05:53:21 | 52.34478 | 8.98706 | 111° | 164km/h | 10590m | -9.7m/s | -50.5°C | 71.4% | 252.7hPa | 2.5V | 08:12:48 | 02:21:51 | 00:00:00 | |
| BIOWL1-15 | 2026-09-03 05:53:20 | 52.34493 | 8.98642 | 111° | 166km/h | 10599m | -9.7m/s | -50.6°C | 71.5% | 252.3hPa | 2.6V | 08:12:48 | 02:21:50 | 00:00:00 | |
| DL1XH-west | 2026-09-03 05:53:19 | 52.34507 | 8.98578 | 111° | 166km/h | 10609m | -9.7m/s | -50.6°C | 71.8% | 251.9hPa | 2.6V | 08:12:48 | 02:21:49 | 00:00:00 | |
| HTAHTA | 2026-09-03 05:53:19 | 52.34523 | 8.98515 | 110° | 164km/h | 10619m | -9.9m/s | -50.7°C | 61.8% | 251.6hPa | 2.6V | 00:00:00 | 00:00:00 | 00:00:00 | |
| DL1XH1-15 | 2026-09-03 05:53:18 | 52.34599 | 8.98196 | 111° | 166km/h | 10668m | -9.2m/s | -51.1°C | 69.3% | 249.8hPa | 2.6V | 08:12:11 | 02:21:43 | 00:00:00 | |
| GOEST3-10 | 2026-09-03 05:53:18 | 52.34523 | 8.98515 | 111° | 166km/h | 10619m | -9.8m/s | -50.7°C | 68.6% | 251.5hPa | 2.6V | 08:12:00 | 02:21:48 | 00:00:00 | |
| DL1XH-15 | 2026-09-03 05:53:17 | 52.34615 | 8.98132 | 111° | 166km/h | 10677m | -10m/s | -51.1°C | 69.4% | 249.4hPa | 2.6V | 08:12:12 | 02:21:42 | 00:00:00 | |
| DO2JMG | 2026-09-03 05:53:15 | 52.34568 | 8.98323 | 111° | 166km/h | 10648m | -9.7m/s | -50.9°C | 72.7% | 250.4hPa | 2.5V | 08:12:48 | 02:21:45 | 00:00:00 | |
| SONDE2-11 | 2026-09-03 05:53:15 | 52.34584 | 8.98260 | 111° | 164km/h | 10658m | -10.0m/s | -51.0°C | 62.3% | 250.2hPa | 2.5V | 00:00:00 | 00:00:00 | 00:00:00 | |
| DL1NUX | 2026-09-03 05:53:14 | 52.34662 | 8.97942 | 112° | 164km/h | 10706m | -9.2m/s | -51.4°C | 70.1% | 248.2hPa | 2.5V | 08:12:15 | 02:21:39 | 00:00:00 | |
| AA1-15 | 2026-09-03 05:53:12 | 52.34615 | 8.98132 | 112° | 166km/h | 10677m | -10m/s | -51.1°C | 73.3% | 249.4hPa | 2.6V | 08:12:48 | 02:21:42 | 00:00:00 | |
| DD8BA-10 | 2026-09-03 05:53:12 | 52.34615 | 8.98132 | 112° | 166km/h | 10677m | -10.0m/s | -51.1°C | 69.4% | 249.4hPa | 2.5V | 00:00:00 | 00:00:00 | 00:00:00 | |
| DB0DAN | 2026-09-03 05:53:10 | 52.34646 | 8.98005 | 113° | 159km/h | 10697m | -9.5m/s | -51.3°C | 62.9% | 248.58hPa | 2.5V | 00:00:00 | 00:00:00 | 00:00:00 | |
| HSKMA3-T | 2026-09-03 05:53:10 | 52.34646 | 8.98005 | 113° | 166km/h | 10697m | -9.5m/s | -51.3°C | 73.7% | 248.6hPa | 2.5V | 08:12:48 | 02:21:40 | 00:00:00 | |
| DL1XH-west | 2026-09-03 05:53:09 | 52.34662 | 8.97942 | 112° | 166km/h | 10706m | -9.3m/s | -51.4°C | 74% | 248.2hPa | 2.5V | 08:12:48 | 02:21:39 | 00:00:00 | |
| DO2SHX-10 | 2026-09-03 05:53:08 | 52.34678 | 8.97878 | 113° | 166km/h | 10716m | -9.4m/s | -51.4°C | 70.4% | 247.8hPa | 2.5V | 00:00:00 | 02:21:38 | 00:00:00 | |
| DL1XH-15 | 2026-09-03 05:53:07 | 52.34775 | 8.97495 | 113° | 168km/h | 10772m | -9.4m/s | -52°C | 71.2% | 245.8hPa | 2.5V | 08:12:22 | 02:21:32 | 00:00:00 | |
| DO2JMG | 2026-09-03 05:53:05 | 52.34726 | 8.97687 | 112° | 168km/h | 10745m | -9.6m/s | -51.7°C | 74.8% | 246.9hPa | 2.6V | 08:12:48 | 02:21:35 | 00:00:00 | |
| DO2SHX-10 | 2026-09-03 05:53:05 | 52.34726 | 8.97687 | 113° | 168km/h | 10745m | -9.6m/s | -51.7°C | 71.0% | 246.9hPa | 2.6V | 00:00:00 | 02:21:35 | 00:00:00 | |
| DM0DOS-11 | 2026-09-03 05:53:04 | 52.34825 | 8.97303 | 112° | 168km/h | 10801m | -9.6m/s | -52.2°C | 70.9% | 244.6hPa | 2.6V | 08:12:25 | 02:21:29 | 00:00:00 | |
| AA1-15 | 2026-09-03 05:53:02 | 52.34775 | 8.97495 | 113° | 168km/h | 10773m | -9.4m/s | -52°C | 75.2% | 245.8hPa | 2.5V | 08:12:48 | 02:21:32 | 00:00:00 | |
| BIOWL1-15 | 2026-09-03 05:53:00 | 52.34808 | 8.97367 | 113° | 168km/h | 10792m | -9.2m/s | -52.2°C | 75.2% | 245.1hPa | 2.5V | 08:12:48 | 02:21:30 | 00:00:00 | |
| HSKMA3-T | 2026-09-03 05:52:59 | 52.34825 | 8.97303 | 113° | 168km/h | 10801m | -9.6m/s | -52.2°C | 75.1% | 244.7hPa | 2.6V | 08:12:48 | 02:21:29 | 00:00:00 | |
| DO2SHX-10 | 2026-09-03 05:52:59 | 52.34825 | 8.97303 | 113° | 168km/h | 10801m | -9.5m/s | -52.2°C | 70.9% | 244.6hPa | 2.6V | 08:12:00 | 02:21:29 | 00:00:00 | |
| DL1XH1-15 | 2026-09-03 05:52:58 | 52.34927 | 8.96917 | 113° | 170km/h | 10858m | -9.5m/s | -52.7°C | 69.3% | 242.6hPa | 2.5V | 08:12:31 | 02:21:23 | 00:00:00 | |
| DL1XH-west | 2026-09-03 05:52:58 | 52.34841 | 8.97239 | 113° | 170km/h | 10810m | -9.3m/s | -52.3°C | 75.1% | 244.3hPa | 2.6V | 08:12:48 | 02:21:28 | 00:00:00 | |
| DB0ND-19 | 2026-09-03 05:52:57 | 52.34875 | 8.97110 | 112° | 170km/h | 10830m | -10.0m/s | -52.5°C | 63.0% | 243.6hPa | 2.5V | 00:00:00 | 00:00:00 | 00:00:00 | |
| DK9SH | 2026-09-03 05:52:56 | 52.34858 | 8.97175 | 115° | 170km/h | 10820m | -9.7m/s | -52.4°C | 63.4% | 244.0hPa | 2.5V | 08:12:00 | 00:00:00 | 00:00:00 | |
| DB0DAN | 2026-09-03 05:52:55 | 52.34892 | 8.97046 | 114° | 162km/h | 10840m | -9.7m/s | -52.6°C | 62.7% | 243.28hPa | 2.5V | 00:00:00 | 00:00:00 | 00:00:00 | |
| DO2JMG | 2026-09-03 05:52:54 | 52.34909 | 8.96981 | 114° | 172km/h | 10849m | -9.2m/s | -52.6°C | 74% | 242.8hPa | 2.5V | 08:12:48 | 02:21:24 | 00:00:00 | |
| AA1-15 | 2026-09-03 05:52:51 | 52.34962 | 8.96788 | 114° | 172km/h | 10877m | -9.8m/s | -52.9°C | 73.6% | 241.8hPa | 2.6V | 08:12:48 | 02:21:21 | 00:00:00 | |
| BIOWL1-15 | 2026-09-03 05:52:49 | 52.34997 | 8.96659 | 115° | 172km/h | 10896m | -8.9m/s | -53°C | 72.8% | 241.1hPa | 2.5V | 08:12:48 | 02:21:19 | 00:00:00 | |
| DF8AY | 2026-09-03 05:52:48 | 52.35015 | 8.96594 | 115° | 173km/h | 10905m | -9.3m/s | -53.1°C | 72.7% | 240.7hPa | 2.5V | 08:12:48 | 02:21:18 | 00:00:00 | |
| DL1XH-west | 2026-09-03 05:52:47 | 52.35033 | 8.96529 | 114° | 172km/h | 10915m | -9.4m/s | -53.2°C | 72.6% | 240.3hPa | 2.5V | 08:12:48 | 02:21:17 | 00:00:00 | |
| DO2JMG | 2026-09-03 05:52:44 | 52.35088 | 8.96334 | 114° | 173km/h | 10943m | -10.1m/s | -53.5°C | 72.2% | 239.3hPa | 2.6V | 08:12:48 | 02:21:14 | 00:00:00 | |
| AA1-15 | 2026-09-03 05:52:41 | 52.35143 | 8.96138 | 114° | 173km/h | 10973m | -9.2m/s | -53.7°C | 72.3% | 238.2hPa | 2.5V | 08:12:48 | 02:21:11 | 00:00:00 | |
| DB0DAN | 2026-09-03 05:52:40 | 52.35161 | 8.96073 | 114° | 164km/h | 10982m | -9.7m/s | -53.8°C | 61.8% | 237.88hPa | 2.5V | 00:00:00 | 00:00:00 | 00:00:00 | |
| BIOWL1-15 | 2026-09-03 05:52:39 | 52.35179 | 8.96007 | 114° | 173km/h | 10992m | -10.2m/s | -53.9°C | 72.8% | 237.5hPa | 2.6V | 08:12:48 | 02:21:09 | 00:00:00 | |
| DL1XH1-15 | 2026-09-03 05:52:39 | 52.35289 | 8.95613 | 114° | 179km/h | 11051m | -9.9m/s | -54.4°C | 71.6% | 235.2hPa | 2.6V | 08:12:51 | 02:21:03 | 00:00:00 | |
| HSKMA3-T | 2026-09-03 05:52:38 | 52.35197 | 8.95942 | 114° | 173km/h | 11002m | -10.2m/s | -53.9°C | 73.1% | 237.1hPa | 2.6V | 08:12:48 | 02:21:08 | 00:00:00 | |
| DL1XH-west | 2026-09-03 05:52:36 | 52.35233 | 8.95812 | 115° | 175km/h | 11022m | -10.3m/s | -54.1°C | 73.8% | 236.4hPa | 2.5V | 08:12:48 | 02:21:06 | 00:00:00 | |
| DO2JMG | 2026-09-03 05:52:33 | 52.35290 | 8.95613 | 115° | 179km/h | 11051m | -9.9m/s | -54.4°C | 74.8% | 235.3hPa | 2.6V | 08:13:39 | 02:21:03 | 00:00:00 | |
| BIOWL1-15 | 2026-09-03 05:52:31 | 52.35366 | 8.95342 | 115° | 181km/h | 11091m | -9.7m/s | -54.8°C | 76.5% | 234hPa | 2.6V | 08:13:39 | 02:20:59 | 00:00:00 | |
| DM0DOS-11 | 2026-09-03 05:52:30 | 52.35366 | 8.95342 | 115° | 181km/h | 11091m | -9.7m/s | -54.8°C | 74.2% | 234hPa | 2.6V | 08:12:55 | 02:20:59 | 00:00:00 | |
| AA1-15 | 2026-09-03 05:52:30 | 52.35347 | 8.95410 | 115° | 181km/h | 11081m | -10.2m/s | -54.7°C | 76% | 234.3hPa | 2.5V | 08:13:39 | 02:21:00 | 00:00:00 | |
| DL3AQ-11 | 2026-09-03 05:52:30 | 52.35366 | 8.95342 | 115° | 181km/h | 11091m | -9.7m/s | -54.8°C | 66.3% | 234.0hPa | 2.5V | 00:00:00 | 00:00:00 | 00:00:00 | |
| DL1XH1-15 | 2026-09-03 05:52:29 | 52.35484 | 8.94931 | 115° | 184km/h | 11150m | -9.9m/s | -54.9°C | 74.9% | 231.7hPa | 2.5V | 08:13:01 | 02:20:53 | 00:00:00 | |
| HSKMA3-T | 2026-09-03 05:52:27 | 52.35405 | 8.95206 | 115° | 183km/h | 11111m | -9.3m/s | -54.9°C | 77.5% | 233.2hPa | 2.6V | 08:13:39 | 02:20:57 | 00:00:00 | |
| DL1XH-west | 2026-09-03 05:52:26 | 52.35425 | 8.95137 | 115° | 184km/h | 11120m | -9.7m/s | -54.8°C | 78% | 232.9hPa | 2.5V | 08:13:39 | 02:20:56 | 00:00:00 | |
| DB0DAN | 2026-09-03 05:52:25 | 52.35444 | 8.95068 | 115° | 175km/h | 11130m | -10m/s | -54.8°C | 68.1% | 232.48hPa | 2.5V | 00:00:00 | 00:00:00 | 00:00:00 | |
| DO2JMG | 2026-09-03 05:52:23 | 52.35484 | 8.94931 | 115° | 184km/h | 11150m | -9.9m/s | -54.9°C | 77.3% | 231.7hPa | 2.5V | 08:13:39 | 02:20:53 | 00:00:00 | |
| DO2SHX-10 | 2026-09-03 05:52:23 | 52.35484 | 8.94931 | 116° | 184km/h | 11150m | -9.8m/s | -54.9°C | 74.9% | 231.7hPa | 2.5V | 00:00:00 | 02:20:53 | 00:00:00 | |
| DL4XJ-10 | 2026-09-03 05:52:22 | 52.35504 | 8.94862 | 116° | 186km/h | 11160m | -10.1m/s | -53.7°C | 0% | 0hPa | 2.5V | 00:00:00 | 00:00:00 | 00:00:00 | |
| DL8OAI-8 | 2026-09-03 05:52:21 | 52.35504 | 8.94862 | 116° | 184km/h | 11160m | -10.2m/s | -54.9°C | 66.5% | 231.4hPa | 2.5V | 08:13:00 | 00:00:00 | 00:00:00 | |
| DM0DOS-11 | 2026-09-03 05:52:20 | 52.35564 | 8.94655 | 115° | 184km/h | 11190m | -9.4m/s | -55.1°C | 73.4% | 230.3hPa | 2.5V | 08:13:05 | 02:20:49 | 00:00:00 | |
| AA1-15 | 2026-09-03 05:52:20 | 52.35544 | 8.94724 | 115° | 184km/h | 11179m | -10.2m/s | -55.1°C | 76.5% | 230.7hPa | 2.6V | 08:13:39 | 02:20:50 | 00:00:00 | |
| DO2SHX-10 | 2026-09-03 05:52:20 | 52.35544 | 8.94723 | 116° | 184km/h | 11180m | -10.1m/s | -55.0°C | 73.8% | 230.7hPa | 2.6V | 00:00:00 | 02:20:50 | 00:00:00 | |
| BUE01 | 2026-09-03 05:52:19 | 52.35584 | 8.94586 | 115° | 184km/h | 11199m | -9.8m/s | -55.2°C | 65.4% | 230.0hPa | 2.6V | 00:00:00 | 00:00:00 | 00:00:00 | |
| DL1XH1-15 | 2026-09-03 05:52:18 | 52.35687 | 8.94242 | 116° | 184km/h | 11248m | -9.6m/s | -55.6°C | 71.5% | 228.3hPa | 2.6V | 08:13:11 | 02:20:43 | 00:00:00 | |
| BIOWL1-15 | 2026-09-03 05:52:18 | 52.35584 | 8.94586 | 116° | 184km/h | 11199m | -9.8m/s | -55.2°C | 76% | 230hPa | 2.5V | 08:13:39 | 02:20:48 | 00:00:00 | |
| DL1XH-15 | 2026-09-03 05:52:17 | 52.35707 | 8.94174 | 116° | 186km/h | 11258m | -9.2m/s | -55.7°C | 71.3% | 227.9hPa | 2.5V | 08:13:12 | 02:20:42 | 00:00:00 | |
| HSKMA3-T | 2026-09-03 05:52:16 | 52.35625 | 8.94448 | 116° | 184km/h | 11219m | -9.8m/s | -55.4°C | 75.2% | 229.3hPa | 2.5V | 08:13:39 | 02:20:46 | 00:00:00 | |
| DL1XH-west | 2026-09-03 05:52:15 | 52.35645 | 8.94380 | 116° | 184km/h | 11229m | -9.8m/s | -55.5°C | 74.8% | 228.9hPa | 2.6V | 08:13:39 | 02:20:45 | 00:00:00 | |
| DO2JMG | 2026-09-03 05:52:12 | 52.35708 | 8.94174 | 117° | 186km/h | 11258m | -9.2m/s | -55.7°C | 73.7% | 227.9hPa | 2.5V | 08:13:39 | 02:20:42 | 00:00:00 | |
| DD8BA-10 | 2026-09-03 05:52:12 | 52.35708 | 8.94174 | 117° | 186km/h | 11258m | -9.2m/s | -55.6°C | 71.3% | 227.9hPa | 2.6V | 00:00:00 | 00:00:00 | 00:00:00 | |
| DO2SHX-10 | 2026-09-03 05:52:11 | 52.35729 | 8.94105 | 117° | 186km/h | 11267m | -9.3m/s | -55.7°C | 70.8% | 227.5hPa | 2.6V | 00:00:00 | 02:20:41 | 00:00:00 | |
| DM0DOS-11 | 2026-09-03 05:52:10 | 52.35770 | 8.93967 | 115° | 186km/h | 11286m | -10.7m/s | -55.9°C | 69.9% | 226.8hPa | 2.6V | 08:13:15 | 02:20:39 | 00:00:00 | |
| BIOWL1-15 | 2026-09-03 05:52:10 | 52.35791 | 8.93898 | 116° | 186km/h | 11297m | -10.3m/s | -56°C | 71.6% | 226.5hPa | 2.6V | 08:13:39 | 02:20:38 | 00:00:00 | |
| DB0DAN | 2026-09-03 05:52:10 | 52.35749 | 8.94036 | 116° | 177km/h | 11276m | -9.9m/s | -55.9°C | 62.4% | 227.2hPa | 2.5V | 00:00:00 | 00:00:00 | 00:00:00 | |
| AA1-15 | 2026-09-03 05:52:09 | 52.35770 | 8.93967 | 116° | 186km/h | 11286m | -10.7m/s | -55.9°C | 72.2% | 226.8hPa | 2.6V | 08:13:39 | 02:20:39 | 00:00:00 | |
| GOEST3-10 | 2026-09-03 05:52:08 | 52.35791 | 8.93898 | 116° | 186km/h | 11297m | -10.2m/s | -55.9°C | 69.3% | 226.4hPa | 2.5V | 00:00:00 | 02:20:38 | 00:00:00 | |
| DL1XH-15 | 2026-09-03 05:52:07 | 52.35918 | 8.93484 | 117° | 186km/h | 11357m | -10.3m/s | -56.4°C | 66% | 224.3hPa | 2.5V | 08:13:22 | 02:20:32 | 00:00:00 | |
| HSKMA3-T | 2026-09-03 05:52:06 | 52.35832 | 8.93760 | 117° | 186km/h | 11318m | -9.9m/s | -56.1°C | 70.4% | 225.7hPa | 2.5V | 08:13:39 | 02:20:36 | 00:00:00 | |
| DL1XH-west | 2026-09-03 05:52:05 | 52.35854 | 8.93691 | 117° | 186km/h | 11327m | -9.8m/s | -56.2°C | 69.9% | 225.5hPa | 2.5V | 08:13:39 | 02:20:35 | 00:00:00 | |
| DO2SHX-10 | 2026-09-03 05:52:05 | 52.35853 | 8.93691 | 117° | 186km/h | 11328m | -9.7m/s | -56.2°C | 67.6% | 225.4hPa | 2.5V | 08:13:00 | 02:20:35 | 00:00:00 | |
| SONCRA | 2026-09-03 05:52:04 | 52.35897 | 8.93553 | 116° | 186km/h | 11347m | -10.0m/s | -56.3°C | 58.6% | 224.7hPa | 2.6V | 00:00:00 | 00:00:00 | 00:00:00 | |
| DL1NUX | 2026-09-03 05:52:03 | 52.36003 | 8.93210 | 116° | 184km/h | 11398m | -10.3m/s | -56.7°C | 63.7% | 223hPa | 2.6V | 08:13:26 | 02:20:28 | 00:00:00 | |
| DO2JMG | 2026-09-03 05:52:02 | 52.35918 | 8.93484 | 117° | 188km/h | 11357m | -10.3m/s | -56.4°C | 68.2% | 224.3hPa | 2.5V | 08:13:39 | 02:20:32 | 00:00:00 | |
| AA1-15 | 2026-09-03 05:51:59 | 52.35982 | 8.93279 | 117° | 186km/h | 11388m | -10.2m/s | -56.6°C | 66.3% | 223.3hPa | 2.6V | 08:13:39 | 02:20:29 | 00:00:00 | |
| BIOWL1-15 | 2026-09-03 05:51:58 | 52.36003 | 8.93210 | 117° | 184km/h | 11398m | -10.3m/s | -56.7°C | 65.7% | 223hPa | 2.6V | 08:13:39 | 02:20:28 | 00:00:00 | |
| SMARD9-15 | 2026-09-03 05:51:58 | 52.36024 | 8.93142 | 116° | 183km/h | 11408m | -10.1m/s | -56.8°C | 55.2% | 222.5hPa | 2.6V | 00:00:00 | 00:00:00 | 00:00:00 | |
| DL1XH-15 | 2026-09-03 05:51:57 | 52.36126 | 8.92803 | 115° | 181km/h | 11457m | -10.1m/s | -57.1°C | 59% | 220.9hPa | 2.6V | 08:13:32 | 02:20:22 | 00:00:00 | |
| DL1XH-west | 2026-09-03 05:51:55 | 52.36065 | 8.93006 | 116° | 183km/h | 11428m | -9.6m/s | -56.9°C | 63.4% | 221.9hPa | 2.5V | 08:13:39 | 02:20:25 | 00:00:00 | |
| DB0DAN | 2026-09-03 05:51:55 | 52.36065 | 8.93006 | 116° | 173km/h | 11428m | -9.6m/s | -56.9°C | 53.9% | 221.94hPa | 2.5V | 00:00:00 | 00:00:00 | 00:00:00 | |
| DF8AY | 2026-09-03 05:51:54 | 52.36086 | 8.92939 | 116° | 183km/h | 11438m | -9.6m/s | -57°C | 62.5% | 221.5hPa | 2.5V | 08:13:39 | 02:20:24 | 00:00:00 | |
| DO2JMG | 2026-09-03 05:51:51 | 52.36145 | 8.92736 | 116° | 181km/h | 11467m | -10.4m/s | -57.2°C | 59.7% | 220.6hPa | 2.6V | 08:13:39 | 02:20:21 | 00:00:00 | |
| DL1NUX | 2026-09-03 05:51:51 | 52.36204 | 8.92534 | 115° | 181km/h | 11497m | -10.2m/s | -57.3°C | 55.7% | 219.5hPa | 2.5V | 08:13:36 | 02:20:18 | 00:00:00 | |
| BIOWL1-15 | 2026-09-03 05:51:49 | 52.36223 | 8.92466 | 115° | 181km/h | 11508m | -10.3m/s | -57.3°C | 56.6% | 219.2hPa | 2.5V | 08:13:39 | 02:20:17 | 00:00:00 | |
| DL1XH1-15 | 2026-09-03 05:51:48 | 52.36299 | 8.92193 | 113° | 183km/h | 11547m | -9.6m/s | -57.6°C | 53.9% | 217.8hPa | 2.6V | 08:13:41 | 02:20:13 | 00:00:00 | |
| AA1-15 | 2026-09-03 05:51:48 | 52.36204 | 8.92534 | 115° | 181km/h | 11497m | -10.2m/s | -57.3°C | 57.2% | 219.5hPa | 2.5V | 08:13:39 | 02:20:18 | 00:00:00 | |
| DL1XH-west | 2026-09-03 05:51:45 | 52.36261 | 8.92330 | 114° | 181km/h | 11528m | -10.1m/s | -57.4°C | 55.8% | 218.5hPa | 2.6V | 08:13:39 | 02:20:15 | 00:00:00 | |
| HSKMA3-T | 2026-09-03 05:51:44 | 52.36280 | 8.92262 | 114° | 181km/h | 11538m | -9.5m/s | -57.5°C | 55.5% | 218.1hPa | 2.6V | 08:14:30 | 02:20:14 | 00:00:00 | |
| DF8AY | 2026-09-03 05:51:43 | 52.36299 | 8.92193 | 114° | 183km/h | 11547m | -9.6m/s | -57.6°C | 55.2% | 217.8hPa | 2.6V | 08:14:30 | 02:20:13 | 00:00:00 | |
| DO2JMG | 2026-09-03 05:51:41 | 52.36336 | 8.92056 | 114° | 181km/h | 11566m | -9.8m/s | -57.7°C | 54.5% | 217.1hPa | 2.5V | 08:14:30 | 02:20:11 | 00:00:00 | |
| DO2SHX-10 | 2026-09-03 05:51:41 | 52.36336 | 8.92056 | 114° | 181km/h | 11566m | -9.7m/s | -57.7°C | 53.4% | 217.0hPa | 2.5V | 00:00:00 | 02:20:11 | 00:00:00 | |
| DO9LL-15 | 2026-09-03 05:51:40 | 52.36354 | 8.91988 | 114° | 179km/h | 11576m | -10.1m/s | -57.7°C | 52.9% | 216.7hPa | 2.5V | 00:00:00 | 02:20:10 | 00:00:00 | |
| DL1XH1-15 | 2026-09-03 05:51:38 | 52.36480 | 8.91510 | 112° | 179km/h | 11646m | -10.4m/s | -58°C | 49.9% | 214.3hPa | 2.6V | 08:13:51 | 02:20:03 | 00:00:00 | |
| AA1-15 | 2026-09-03 05:51:38 | 52.36391 | 8.91851 | 114° | 181km/h | 11596m | -9.4m/s | -57.9°C | 53.3% | 216hPa | 2.6V | 08:14:30 | 02:20:08 | 00:00:00 | |
| BIOWL1-15 | 2026-09-03 05:51:37 | 52.36409 | 8.91783 | 113° | 181km/h | 11605m | -10.4m/s | -57.9°C | 52.8% | 215.7hPa | 2.5V | 08:14:30 | 02:20:07 | 00:00:00 | |
| DL3AQ-11 | 2026-09-03 05:51:37 | 52.36427 | 8.91715 | 113° | 179km/h | 11615m | -10.0m/s | -58.0°C | 44.2% | 215.4hPa | 2.5V | 00:00:00 | 00:00:00 | 00:00:00 | |
| DJ2DS-15 | 2026-09-03 05:51:36 | 52.36427 | 8.91715 | 114° | 181km/h | 11616m | -10.0m/s | -58.0°C | 51.5% | 215.4hPa | 2.5V | 00:00:00 | 02:20:06 | 00:00:00 | |
| DO2SHX-10 | 2026-09-03 05:51:35 | 52.36445 | 8.91647 | 113° | 179km/h | 11626m | -10.0m/s | -58.0°C | 51.0% | 214.9hPa | 2.5V | 00:00:00 | 02:20:05 | 00:00:00 | |
| MET0W-2 | 2026-09-03 05:51:34 | 52.36462 | 8.91579 | 112° | 179km/h | 11636m | -10.6m/s | -58.0°C | 43.2% | 214.6hPa | 2.5V | 00:00:00 | 00:00:00 | 00:00:00 | |
| DL1XH-west | 2026-09-03 05:51:34 | 52.36462 | 8.91579 | 113° | 179km/h | 11636m | -10.6m/s | -58°C | 51.3% | 214.6hPa | 2.6V | 08:14:30 | 02:20:04 | 00:00:00 | |
| DL1NUX | 2026-09-03 05:51:33 | 52.36568 | 8.91165 | 112° | 183km/h | 11695m | -10.2m/s | -58.3°C | 48.2% | 212.7hPa | 2.5V | 08:13:56 | 02:19:58 | 00:00:00 | |
| HSKMA3-T | 2026-09-03 05:51:33 | 52.36480 | 8.91510 | 113° | 179km/h | 11646m | -10.4m/s | -58.1°C | 50.9% | 214.3hPa | 2.6V | 08:14:30 | 02:20:03 | 00:00:00 | |
| DO2JMG | 2026-09-03 05:51:30 | 52.36533 | 8.91304 | 113° | 183km/h | 11676m | -9.5m/s | -58.2°C | 49.1% | 213.3hPa | 2.5V | 08:14:30 | 02:20:00 | 00:00:00 | |
| AA1-15 | 2026-09-03 05:51:28 | 52.36568 | 8.91165 | 113° | 183km/h | 11695m | -10.2m/s | -58.3°C | 48.4% | 212.7hPa | 2.5V | 08:14:30 | 02:19:58 | 00:00:00 | |
| BIOWL1-15 | 2026-09-03 05:51:28 | 52.36603 | 8.91026 | 113° | 183km/h | 11715m | -9.5m/s | -58.5°C | 47.8% | 212hPa | 2.6V | 08:14:30 | 02:19:56 | 00:00:00 | |
| GOEST3-10 | 2026-09-03 05:51:28 | 52.36568 | 8.91165 | 113° | 183km/h | 11695m | -10.1m/s | -58.3°C | 48.2% | 212.6hPa | 2.5V | 00:00:00 | 02:19:58 | 00:00:00 | |
| DL1XH-15 | 2026-09-03 05:51:27 | 52.36676 | 8.90749 | 113° | 181km/h | 11755m | -9.7m/s | -58.7°C | 46.1% | 210.6hPa | 2.5V | 08:14:02 | 02:19:52 | 00:00:00 | |
| DL3AQ-11 | 2026-09-03 05:51:26 | 52.36621 | 8.90956 | 112° | 181km/h | 11725m | -9.8m/s | -58.5°C | 40.2% | 211.6hPa | 2.5V | 00:00:00 | 00:00:00 | 00:00:00 | |
| DM0DOS-11 | 2026-09-03 05:51:24 | 52.36729 | 8.90544 | 113° | 179km/h | 11784m | -9.8m/s | -58.7°C | 44.3% | 209.6hPa | 2.5V | 08:14:05 | 02:19:49 | 00:00:00 | |
| DL1XH-west | 2026-09-03 05:51:23 | 52.36657 | 8.90818 | 113° | 183km/h | 11745m | -10.2m/s | -58.6°C | 46.3% | 211hPa | 2.5V | 08:14:30 | 02:19:53 | 00:00:00 | |
| HSKMA3-T | 2026-09-03 05:51:22 | 52.36675 | 8.90749 | 113° | 181km/h | 11755m | -9.7m/s | -58.7°C | 45.8% | 210.6hPa | 2.5V | 08:14:30 | 02:19:52 | 00:00:00 | |
| DO2JMG | 2026-09-03 05:51:20 | 52.36712 | 8.90612 | 113° | 179km/h | 11774m | -10.1m/s | -58.7°C | 44.6% | 210hPa | 2.6V | 08:14:30 | 02:19:50 | 00:00:00 | |
| DO2SHX-10 | 2026-09-03 05:51:20 | 52.36712 | 8.90612 | 114° | 179km/h | 11775m | -10.1m/s | -58.7°C | 44.9% | 210.0hPa | 2.6V | 00:00:00 | 02:19:50 | 00:00:00 | |
| DL8OAI-8 | 2026-09-03 05:51:19 | 52.36712 | 8.90612 | 114° | 179km/h | 11775m | -10.1m/s | -58.7°C | 37.8% | 210.0hPa | 2.5V | 08:14:00 | 00:00:00 | 00:00:00 | |
| DL1XH1-15 | 2026-09-03 05:51:18 | 52.36835 | 8.90143 | 113° | 173km/h | 11844m | -10.4m/s | -58.7°C | 38.7% | 207.7hPa | 2.5V | 08:14:11 | 02:19:43 | 00:00:00 | |
| AA1-15 | 2026-09-03 05:51:18 | 52.36747 | 8.90476 | 113° | 179km/h | 11794m | -9.9m/s | -58.7°C | 43.2% | 209.3hPa | 2.5V | 08:14:30 | 02:19:48 | 00:00:00 | |
| BIOWL1-15 | 2026-09-03 05:51:16 | 52.36783 | 8.90342 | 114° | 175km/h | 11814m | -9.8m/s | -58.8°C | 41.6% | 208.7hPa | 2.6V | 08:14:30 | 02:19:46 | 00:00:00 | |
| DJ2DS-15 | 2026-09-03 05:51:16 | 52.36782 | 8.90342 | 114° | 164km/h | 11814m | -9.8m/s | -58.7°C | 41.7% | 208.6hPa | 2.6V | 00:00:00 | 02:19:46 | 00:00:00 | |
| DO2SHX-10 | 2026-09-03 05:51:14 | 52.36818 | 8.90209 | 114° | 173km/h | 11834m | -10.0m/s | -58.7°C | 39.6% | 208.0hPa | 2.6V | 00:00:00 | 02:19:44 | 00:00:00 | |
| DM0DOS-11 | 2026-09-03 05:51:13 | 52.36903 | 8.89886 | 113° | 166km/h | 11884m | -9.7m/s | -58.7°C | 36.5% | 206.3hPa | 2.6V | 08:14:15 | 02:19:39 | 00:00:00 | |
| DL1XH-west | 2026-09-03 05:51:13 | 52.36835 | 8.90143 | 113° | 173km/h | 11844m | -10.4m/s | -58.7°C | 39.2% | 207.7hPa | 2.5V | 08:14:30 | 02:19:43 | 00:00:00 | |
| HSKMA3-T | 2026-09-03 05:51:11 | 52.36869 | 8.90013 | 113° | 170km/h | 11864m | -10.3m/s | -58.9°C | 38.1% | 207.1hPa | 2.5V | 08:14:30 | 02:19:41 | 00:00:00 | |
| DO2JMG | 2026-09-03 05:51:10 | 52.36886 | 8.89949 | 113° | 168km/h | 11874m | -10.3m/s | -58.8°C | 37.4% | 206.7hPa | 2.5V | 08:14:30 | 02:19:40 | 00:00:00 | |
| DO9LL-15 | 2026-09-03 05:51:10 | 52.36886 | 8.89949 | 114° | 157km/h | 11875m | -10.3m/s | -58.8°C | 37.2% | 206.6hPa | 2.6V | 00:00:00 | 02:19:40 | 00:00:00 | |
| SMARD9-10 | 2026-09-03 05:51:09 | 52.36886 | 8.89949 | 114° | 168km/h | 11875m | -10.3m/s | -58.8°C | 30.7% | 206.7hPa | 2.6V | 00:00:00 | 00:00:00 | 00:00:00 | |
| DL1XH1-15 | 2026-09-03 05:51:08 | 52.37000 | 8.89514 | 112° | 161km/h | 11945m | -10.6m/s | -58.5°C | 32.8% | 204.4hPa | 2.6V | 08:14:21 | 02:19:33 | 00:00:00 | |
| GOEST3-10 | 2026-09-03 05:51:08 | 52.36919 | 8.89823 | 114° | 162km/h | 11895m | -9.7m/s | -58.6°C | 35.7% | 206.0hPa | 2.6V | 00:00:00 | 02:19:38 | 00:00:00 | |
| DL1XH-15 | 2026-09-03 05:51:07 | 52.37015 | 8.89453 | 112° | 159km/h | 11955m | -10.3m/s | -58.5°C | 32.2% | 204.1hPa | 2.6V | 08:14:22 | 02:19:32 | 00:00:00 | |
| AA1-15 | 2026-09-03 05:51:07 | 52.36935 | 8.89760 | 113° | 164km/h | 11904m | -10m/s | -58.6°C | 35.8% | 205.7hPa | 2.6V | 08:14:30 | 02:19:37 | 00:00:00 | |
| BIOWL1-15 | 2026-09-03 05:51:05 | 52.36968 | 8.89636 | 113° | 162km/h | 11924m | -10.5m/s | -58.6°C | 34.9% | 205hPa | 2.5V | 08:14:30 | 02:19:35 | 00:00:00 | |
| DL1XH-west | 2026-09-03 05:51:02 | 52.37015 | 8.89453 | 112° | 159km/h | 11955m | -10.3m/s | -58.5°C | 33.3% | 204.1hPa | 2.6V | 08:14:30 | 02:19:32 | 00:00:00 | |
| HSKMA3-T | 2026-09-03 05:51:00 | 52.37046 | 8.89332 | 112° | 157km/h | 11976m | -10.5m/s | -58.6°C | 32.4% | 203.3hPa | 2.5V | 08:14:30 | 02:19:30 | 00:00:00 | |
| DO2JMG | 2026-09-03 05:50:59 | 52.37060 | 8.89272 | 112° | 157km/h | 11986m | -10.5m/s | -58.6°C | 31.9% | 203hPa | 2.5V | 08:14:30 | 02:19:29 | 00:00:00 | |
| DO2SHX-10 | 2026-09-03 05:50:59 | 52.37060 | 8.89272 | 112° | 157km/h | 11986m | -10.4m/s | -58.5°C | 30.9% | 202.9hPa | 2.5V | 00:00:00 | 02:19:29 | 00:00:00 | |
| DL1XH1-15 | 2026-09-03 05:50:58 | 52.37143 | 8.88912 | 109° | 155km/h | 12048m | -10.6m/s | -58.9°C | 28.4% | 201.1hPa | 2.5V | 08:14:31 | 02:19:23 | 00:00:00 | |
| DF5WG-10 | 2026-09-03 05:50:58 | 52.37075 | 8.89212 | 112° | 155km/h | 11996m | -10.1m/s | -58.5°C | 30.4% | 202.7hPa | 2.5V | 00:00:00 | 02:19:28 | 00:00:00 | |
| DL1XH-15 | 2026-09-03 05:50:57 | 52.37156 | 8.88852 | 109° | 153km/h | 12059m | -10.3m/s | -58.9°C | 27.9% | 200.7hPa | 2.5V | 08:14:32 | 02:19:22 | 00:00:00 | |
| AA1-15 | 2026-09-03 05:50:56 | 52.37103 | 8.89092 | 111° | 155km/h | 12017m | -9.9m/s | -58.7°C | 30.6% | 202.1hPa | 2.6V | 08:14:30 | 02:19:26 | 00:00:00 | |
| DB0DAN | 2026-09-03 05:50:55 | 52.37117 | 8.89032 | 110° | 148km/h | 12027m | -10.7m/s | -58.8°C | 23.5% | 201.76hPa | 2.5V | 00:00:00 | 00:00:00 | 00:00:00 | |
| BIOWL1-15 | 2026-09-03 05:50:54 | 52.37130 | 8.88972 | 110° | 155km/h | 12038m | -10.4m/s | -58.8°C | 29.6% | 201.4hPa | 2.5V | 08:14:30 | 02:19:24 | 00:00:00 | |
| DL1XH-west | 2026-09-03 05:50:52 | 52.37156 | 8.88852 | 110° | 153km/h | 12059m | -10.3m/s | -58.9°C | 28.5% | 200.7hPa | 2.5V | 08:15:21 | 02:19:22 | 00:00:00 | |
| DF8AY | 2026-09-03 05:50:51 | 52.37169 | 8.88793 | 110° | 153km/h | 12069m | -10.2m/s | -59°C | 28.1% | 200.4hPa | 2.6V | 08:15:21 | 02:19:21 | 00:00:00 | |
| DO2JMG | 2026-09-03 05:50:49 | 52.37195 | 8.88673 | 109° | 153km/h | 12090m | -10.6m/s | -59°C | 26.9% | 199.7hPa | 2.6V | 08:15:21 | 02:19:19 | 00:00:00 | |
| D01LWL | 2026-09-03 05:50:49 | 52.37220 | 8.88553 | 108° | 151km/h | 12112m | -10.6m/s | -59.0°C | 20.1% | 199.0hPa | 2.5V | 00:00:00 | 00:00:00 | 00:00:00 | |
| DL1XH1-15 | 2026-09-03 05:50:48 | 52.37268 | 8.88313 | 107° | 151km/h | 12156m | -10.8m/s | -59.3°C | 25.1% | 197.6hPa | 2.5V | 08:14:41 | 02:19:13 | 00:00:00 | |
| DF5WG-10 | 2026-09-03 05:50:48 | 52.37208 | 8.88613 | 110° | 153km/h | 12101m | -10.6m/s | -58.9°C | 26.2% | 199.4hPa | 2.5V | 08:14:00 | 02:19:18 | 00:00:00 | |
| DL1XH-15 | 2026-09-03 05:50:47 | 52.37280 | 8.88253 | 106° | 151km/h | 12167m | -11.1m/s | -59.4°C | 24.9% | 197.3hPa | 2.5V | 08:14:42 | 02:19:12 | 00:00:00 | |
| AA1-15 | 2026-09-03 05:50:45 | 52.37245 | 8.88433 | 108° | 153km/h | 12133m | -11m/s | -59.1°C | 24.7% | 198.4hPa | 2.6V | 08:15:21 | 02:19:15 | 00:00:00 | |
| DF8AY-15 | 2026-09-03 05:50:44 | 52.37257 | 8.88373 | 109° | 159km/h | 12145m | -11.4m/s | -59.2°C | 25.2% | 197.9hPa | 2.6V | 00:00:00 | 02:19:14 | 00:00:00 | |
| DM0DOS-11 | 2026-09-03 05:50:43 | 52.37312 | 8.88071 | 105° | 155km/h | 12199m | -10.8m/s | -59.7°C | 24.3% | 196.3hPa | 2.6V | 08:14:45 | 02:19:09 | 00:00:00 | |
| BIOWL1-15 | 2026-09-03 05:50:43 | 52.37268 | 8.88313 | 107° | 151km/h | 12156m | -10.8m/s | -59.3°C | 23.7% | 197.6hPa | 2.5V | 08:15:21 | 02:19:13 | 00:00:00 | |
| DL1XH-west | 2026-09-03 05:50:41 | 52.37290 | 8.88193 | 106° | 151km/h | 12177m | -10.4m/s | -59.5°C | 22.6% | 197.1hPa | 2.5V | 08:15:21 | 02:19:11 | 00:00:00 | |
| DO2JMG | 2026-09-03 05:50:38 | 52.37322 | 8.88008 | 105° | 157km/h | 12210m | -10.5m/s | -59.8°C | 20.9% | 196hPa | 2.6V | 08:15:21 | 02:19:08 | 00:00:00 | |
| DF5WG-10 | 2026-09-03 05:50:38 | 52.37322 | 8.88008 | 106° | 162km/h | 12210m | -10.4m/s | -59.8°C | 23.8% | 195.9hPa | 2.6V | 00:00:00 | 02:19:08 | 00:00:00 | |
| DL1XH-15 | 2026-09-03 05:50:37 | 52.37388 | 8.87624 | 106° | 166km/h | 12275m | -10.9m/s | -60°C | 20.3% | 193.9hPa | 2.6V | 08:14:52 | 02:19:02 | 00:00:00 | |
| AA1-15 | 2026-09-03 05:50:34 | 52.37365 | 8.87754 | 106° | 162km/h | 12253m | -11m/s | -60.1°C | 18% | 194.7hPa | 2.5V | 08:15:21 | 02:19:04 | 00:00:00 | |
| BIOWL1-15 | 2026-09-03 05:50:33 | 52.37376 | 8.87689 | 106° | 164km/h | 12264m | -11.2m/s | -60.1°C | 17.3% | 194.2hPa | 2.6V | 08:15:21 | 02:19:03 | 00:00:00 | |
| DL1XH-west | 2026-09-03 05:50:31 | 52.37400 | 8.87558 | 107° | 164km/h | 12286m | -11.1m/s | -60°C | 15.6% | 193.5hPa | 2.6V | 08:15:21 | 02:19:01 | 00:00:00 | |
| DO2JMG | 2026-09-03 05:50:28 | 52.37439 | 8.87363 | 109° | 164km/h | 12320m | -11.4m/s | -59.5°C | 12.8% | 192.5hPa | 2.5V | 08:15:21 | 02:18:58 | 00:00:00 | |
| DD1CC3-15 | 2026-09-03 05:50:28 | 52.37439 | 8.87363 | 110° | 164km/h | 12320m | -11.4m/s | -59.5°C | 11.3% | 192.5hPa | 2.6V | 08:15:00 | 00:00:00 | 00:00:00 | |
| DL1XH-15 | 2026-09-03 05:50:27 | 52.37526 | 8.86992 | 112° | 155km/h | 12385m | -11.4m/s | -57.7°C | 11.5% | 190.5hPa | 2.6V | 08:15:02 | 02:18:52 | 00:00:00 | |
| DB0DAN | 2026-09-03 05:50:25 | 52.37481 | 8.87174 | 111° | 153km/h | 12353m | -10.9m/s | -58.9°C | 9.1% | 191.56hPa | 2.5V | 00:00:00 | 00:00:00 | 00:00:00 | |
| AA1-15 | 2026-09-03 05:50:24 | 52.37496 | 8.87113 | 112° | 159km/h | 12363m | -10.3m/s | -58.7°C | 9.9% | 191.2hPa | 2.5V | 08:15:21 | 02:18:54 | 00:00:00 | |
| DF8AY-15 | 2026-09-03 05:50:24 | 52.37496 | 8.87112 | 112° | 144km/h | 12364m | -10.3m/s | -58.7°C | 13.2% | 191.2hPa | 2.5V | 00:00:00 | 02:18:54 | 00:00:00 | |
| DM0DOS-11 | 2026-09-03 05:50:23 | 52.37569 | 8.86818 | 111° | 148km/h | 12419m | -10.9m/s | -56.5°C | 9.9% | 189.6hPa | 2.5V | 08:15:05 | 02:18:49 | 00:00:00 | |
| BIOWL1-15 | 2026-09-03 05:50:22 | 52.37526 | 8.86992 | 112° | 155km/h | 12385m | -11.4m/s | -57.7°C | 8.6% | 190.5hPa | 2.6V | 08:15:21 | 02:18:52 | 00:00:00 | |
| DL1XH-west | 2026-09-03 05:50:21 | 52.37540 | 8.86934 | 112° | 153km/h | 12397m | -11.1m/s | -57.1°C | 8.1% | 190.2hPa | 2.6V | 08:15:21 | 02:18:51 | 00:00:00 | |
| DF8AY | 2026-09-03 05:50:20 | 52.37555 | 8.86875 | 112° | 151km/h | 12407m | -11.3m/s | -56.9°C | 7.8% | 189.9hPa | 2.6V | 08:15:21 | 02:18:50 | 00:00:00 | |
| HSKMA3-T | 2026-09-03 05:50:17 | 52.37596 | 8.86705 | 111° | 146km/h | 12440m | -10.7m/s | -56°C | 7% | 188.9hPa | 2.5V | 08:15:21 | 02:18:47 | 00:00:00 | |
| DL3AQ-11 | 2026-09-03 05:50:17 | 52.37609 | 8.86649 | 110° | 142km/h | 12451m | -10.8m/s | -55.9°C | 5.6% | 188.6hPa | 2.6V | 00:00:00 | 00:00:00 | 00:00:00 | |
| DJ2DS-15 | 2026-09-03 05:50:16 | 52.37609 | 8.86649 | 111° | 141km/h | 12451m | -10.8m/s | -55.8°C | 9.0% | 188.5hPa | 2.6V | 00:00:00 | 02:18:46 | 00:00:00 | |
| DO2SHX-10 | 2026-09-03 05:50:14 | 52.37633 | 8.86538 | 109° | 141km/h | 12474m | -11.0m/s | -55.8°C | 9.0% | 187.9hPa | 2.6V | 00:00:00 | 02:18:44 | 00:00:00 | |
| DM0DOS-11 | 2026-09-03 05:50:13 | 52.37685 | 8.86262 | 105° | 139km/h | 12528m | -10.8m/s | -55.5°C | 8.9% | 186.2hPa | 2.6V | 08:15:15 | 02:18:39 | 00:00:00 | |
| AA1-15 | 2026-09-03 05:50:13 | 52.37645 | 8.86483 | 109° | 141km/h | 12484m | -10.8m/s | -55.9°C | 6.6% | 187.6hPa | 2.5V | 08:15:21 | 02:18:43 | 00:00:00 | |
| DL1XH-west | 2026-09-03 05:50:10 | 52.37676 | 8.86318 | 106° | 141km/h | 12518m | -11m/s | -55.7°C | 6.5% | 186.6hPa | 2.6V | 08:15:21 | 02:18:40 | 00:00:00 | |
| DF8AY | 2026-09-03 05:50:09 | 52.37685 | 8.86262 | 106° | 139km/h | 12528m | -10.8m/s | -55.5°C | 6.4% | 186.3hPa | 2.6V | 08:15:21 | 02:18:39 | 00:00:00 | |
| DL1NUX | 2026-09-03 05:50:08 | 52.37744 | 8.85928 | 105° | 142km/h | 12593m | -11.2m/s | -55.5°C | 8.1% | 184.4hPa | 2.6V | 08:15:21 | 02:18:33 | 00:00:00 | |
| DO2JMG | 2026-09-03 05:50:07 | 52.37705 | 8.86151 | 106° | 141km/h | 12550m | -10.7m/s | -55.5°C | 6.1% | 185.7hPa | 2.5V | 08:15:21 | 02:18:37 | 00:00:00 | |
| BIOWL1-15 | 2026-09-03 05:50:07 | 52.37764 | 8.85815 | 107° | 144km/h | 12615m | -11.5m/s | -55.2°C | 4.8% | 183.8hPa | 2.5V | 08:16:12 | 02:18:31 | 00:00:00 | |
| DO9LL-15 | 2026-09-03 05:50:05 | 52.37724 | 8.86040 | 106° | 142km/h | 12571m | -11.2m/s | -55.4°C | 8.4% | 185.0hPa | 2.5V | 00:00:00 | 02:18:35 | 00:00:00 | |
| DF8AY-15 | 2026-09-03 05:50:04 | 52.37734 | 8.85984 | 106° | 142km/h | 12582m | -10.6m/s | -55.4°C | 8.2% | 184.7hPa | 2.5V | 00:00:00 | 02:18:34 | 00:00:00 | |
| DM0DOS-11 | 2026-09-03 05:50:03 | 52.37785 | 8.85702 | 108° | 144km/h | 12637m | -11.6m/s | -54.6°C | 7% | 183.1hPa | 2.5V | 08:15:25 | 02:18:29 | 00:00:00 | |
| AA1-15 | 2026-09-03 05:50:02 | 52.37754 | 8.85872 | 106° | 142km/h | 12604m | -10.7m/s | -55.4°C | 5% | 184.1hPa | 2.6V | 08:16:12 | 02:18:32 | 00:00:00 | |
| DL1XH-west | 2026-09-03 05:49:59 | 52.37785 | 8.85702 | 108° | 144km/h | 12637m | -11.6m/s | -54.6°C | 4.1% | 183.1hPa | 2.5V | 08:16:12 | 02:18:29 | 00:00:00 | |
| DO2SHX-10 | 2026-09-03 05:49:59 | 52.37785 | 8.85702 | 109° | 144km/h | 12637m | -11.5m/s | -54.5°C | 7.0% | 183.0hPa | 2.5V | 00:00:00 | 02:18:29 | 00:00:00 | |
| DL1NUX | 2026-09-03 05:49:58 | 52.37859 | 8.85369 | 110° | 142km/h | 12706m | -11.3m/s | -54.1°C | 6.3% | 181.1hPa | 2.6V | 08:15:31 | 02:18:23 | 00:00:00 | |
| HSKMA3-T | 2026-09-03 05:49:57 | 52.37809 | 8.85590 | 109° | 144km/h | 12660m | -11.7m/s | -54°C | 3.8% | 182.5hPa | 2.6V | 08:16:12 | 02:18:27 | 00:00:00 | |
| DO2JMG | 2026-09-03 05:49:56 | 52.37821 | 8.85534 | 110° | 142km/h | 12672m | -12.1m/s | -54°C | 3.7% | 182.1hPa | 2.5V | 08:16:12 | 02:18:26 | 00:00:00 | |
| DB0DAN | 2026-09-03 05:49:55 | 52.37833 | 8.85479 | 110° | 137km/h | 12684m | -11.5m/s | -54°C | 3.4% | 181.76hPa | 2.5V | 00:00:00 | 00:00:00 | 00:00:00 | |
| DM0DOS-11 | 2026-09-03 05:49:54 | 52.37911 | 8.85150 | 112° | 142km/h | 12751m | -11.7m/s | -53.1°C | 5.8% | 179.9hPa | 2.5V | 08:15:35 | 02:18:19 | 00:00:00 | |
| BIOWL1-15 | 2026-09-03 05:49:54 | 52.37898 | 8.85205 | 112° | 142km/h | 12739m | -11.4m/s | -53.4°C | 3.1% | 180.2hPa | 2.5V | 08:16:12 | 02:18:20 | 00:00:00 | |
| AA1-15 | 2026-09-03 05:49:52 | 52.37871 | 8.85314 | 111° | 142km/h | 12717m | -11.1m/s | -53.9°C | 3.4% | 180.9hPa | 2.6V | 08:16:12 | 02:18:22 | 00:00:00 | |
| DF8AY | 2026-09-03 05:49:49 | 52.37925 | 8.85096 | 112° | 142km/h | 12763m | -11.8m/s | -52.8°C | 2.9% | 179.6hPa | 2.5V | 08:16:12 | 02:18:18 | 00:00:00 | |
| DL1XH-west | 2026-09-03 05:49:49 | 52.37911 | 8.85150 | 112° | 142km/h | 12751m | -11.7m/s | -53.2°C | 3.1% | 179.9hPa | 2.5V | 08:16:12 | 02:18:19 | 00:00:00 | |
| GOEST3-10 | 2026-09-03 05:49:48 | 52.37925 | 8.85096 | 112° | 144km/h | 12763m | -11.7m/s | -52.8°C | 5.5% | 179.5hPa | 2.5V | 00:00:00 | 02:18:18 | 00:00:00 | |
| DL1XH-15 | 2026-09-03 05:49:47 | 52.38009 | 8.84767 | 114° | 144km/h | 12831m | -11.4m/s | -52.5°C | 5.3% | 177.6hPa | 2.6V | 08:15:42 | 02:18:12 | 00:00:00 | |
| HSKMA3-T | 2026-09-03 05:49:46 | 52.37952 | 8.84986 | 113° | 144km/h | 12786m | -11.7m/s | -52.8°C | 2.9% | 179hPa | 2.6V | 08:16:12 | 02:18:16 | 00:00:00 | |
| DO2JMG | 2026-09-03 05:49:46 | 52.37966 | 8.84931 | 113° | 144km/h | 12798m | -11.4m/s | -52.7°C | 2.9% | 178.6hPa | 2.5V | 08:16:12 | 02:18:15 | 00:00:00 | |
| DF8AY-15 | 2026-09-03 05:49:44 | 52.37980 | 8.84876 | 114° | 133km/h | 12809m | -11.0m/s | -52.5°C | 5.4% | 178.3hPa | 2.5V | 00:00:00 | 02:18:14 | 00:00:00 | |
| DM0DOS-11 | 2026-09-03 05:49:43 | 52.38055 | 8.84606 | 115° | 141km/h | 12866m | -11.7m/s | -52.6°C | 5.3% | 176.8hPa | 2.5V | 08:15:45 | 02:18:09 | 00:00:00 | |
| AA1-15 | 2026-09-03 05:49:41 | 52.38024 | 8.84713 | 114° | 142km/h | 12843m | -11.7m/s | -52.5°C | 2.8% | 177.3hPa | 2.6V | 08:16:12 | 02:18:11 | 00:00:00 | |
| BIOWL1-15 | 2026-09-03 05:49:39 | 52.38117 | 8.84400 | 118° | 137km/h | 12913m | -11.2m/s | -52.6°C | 2.6% | 175.5hPa | 2.6V | 08:16:12 | 02:18:05 | 00:00:00 | |
| DL1XH-west | 2026-09-03 05:49:38 | 52.38070 | 8.84553 | 116° | 141km/h | 12878m | -11.2m/s | -52.7°C | 2.7% | 176.4hPa | 2.5V | 08:16:12 | 02:18:08 | 00:00:00 | |
| DL1XH-15 | 2026-09-03 05:49:37 | 52.38164 | 8.84254 | 117° | 131km/h | 12947m | -11.6m/s | -52.2°C | 5% | 174.5hPa | 2.5V | 08:15:52 | 02:18:02 | 00:00:00 | |
| HSKMA3-T | 2026-09-03 05:49:36 | 52.38101 | 8.84450 | 116° | 137km/h | 12901m | -12m/s | -52.7°C | 2.6% | 175.7hPa | 2.5V | 08:16:12 | 02:18:06 | 00:00:00 | |
| DO2JMG | 2026-09-03 05:49:34 | 52.38132 | 8.84350 | 118° | 133km/h | 12924m | -11.2m/s | -52.5°C | 2.4% | 175.2hPa | 2.6V | 08:16:12 | 02:18:04 | 00:00:00 | |
| AA1-15 | 2026-09-03 05:49:31 | 52.38179 | 8.84206 | 118° | 130km/h | 12959m | -11.2m/s | -52.2°C | 2.3% | 174.2hPa | 2.5V | 08:16:12 | 02:18:01 | 00:00:00 | |
| BIOWL1-15 | 2026-09-03 05:49:29 | 52.38210 | 8.84113 | 118° | 126km/h | 12981m | -11.8m/s | -52.1°C | 2.2% | 173.6hPa | 2.6V | 08:16:12 | 02:17:59 | 00:00:00 | |
| DL1XH-west | 2026-09-03 05:49:28 | 52.38226 | 8.84068 | 120° | 124km/h | 12993m | -11.6m/s | -52°C | 2.1% | 173.3hPa | 2.6V | 08:16:12 | 02:17:58 | 00:00:00 | |
| DF8AY | 2026-09-03 05:49:27 | 52.38241 | 8.84023 | 119° | 122km/h | 13005m | -11.9m/s | -52°C | 2.1% | 173hPa | 2.5V | 08:16:12 | 02:17:57 | 00:00:00 | |
| HSKMA3-T | 2026-09-03 05:49:25 | 52.38271 | 8.83936 | 119° | 120km/h | 13028m | -11.8m/s | -52.1°C | 2% | 172.3hPa | 2.5V | 08:16:12 | 02:17:55 | 00:00:00 | |
| DO2JMG | 2026-09-03 05:49:24 | 52.38286 | 8.83893 | 120° | 119km/h | 13040m | -11.7m/s | -52.1°C | 2% | 172hPa | 2.6V | 08:16:12 | 02:17:54 | 00:00:00 | |
| AA1-15 | 2026-09-03 05:49:21 | 52.38330 | 8.83768 | 120° | 115km/h | 13075m | -11.9m/s | -52.1°C | 1.9% | 171hPa | 2.5V | 08:16:12 | 02:17:51 | 00:00:00 | |
| BIOWL1-15 | 2026-09-03 05:49:19 | 52.38358 | 8.83687 | 120° | 111km/h | 13098m | -11.6m/s | -52.1°C | 1.9% | 170.5hPa | 2.5V | 08:16:12 | 02:17:49 | 00:00:00 | |
| DL1NUX | 2026-09-03 05:49:18 | 52.38440 | 8.83456 | 119° | 102km/h | 13168m | -11.4m/s | -52.3°C | 4.6% | 168.7hPa | 2.6V | 08:16:11 | 02:17:43 | 00:00:00 | |
| DL1XH-west | 2026-09-03 05:49:17 | 52.38386 | 8.83607 | 120° | 110km/h | 13121m | -12m/s | -52.1°C | 1.9% | 169.9hPa | 2.6V | 08:16:12 | 02:17:47 | 00:00:00 | |
| HSKMA3-T | 2026-09-03 05:49:15 | 52.38414 | 8.83530 | 120° | 106km/h | 13145m | -11.8m/s | -52.2°C | 1.8% | 169.2hPa | 2.5V | 08:16:12 | 02:17:45 | 00:00:00 | |
| DO2JMG | 2026-09-03 05:49:13 | 52.38440 | 8.83456 | 120° | 102km/h | 13168m | -11.4m/s | -52.3°C | 1.8% | 168.7hPa | 2.6V | 08:16:12 | 02:17:43 | 00:00:00 | |
| BIOWL1-15 | 2026-09-03 05:49:11 | 52.38490 | 8.83312 | 119° | 97km/h | 13215m | -11.7m/s | -52.4°C | 1.8% | 167.4hPa | 2.5V | 08:17:03 | 02:17:39 | 00:00:00 | |
| AA1-15 | 2026-09-03 05:49:10 | 52.38478 | 8.83347 | 120° | 99km/h | 13203m | -12m/s | -52.4°C | 1.8% | 167.8hPa | 2.5V | 08:17:03 | 02:17:40 | 00:00:00 | |
| DO2SHX-10 | 2026-09-03 05:49:09 | 52.38490 | 8.83312 | 120° | 95km/h | 13215m | -11.6m/s | -52.4°C | 4.6% | 167.4hPa | 2.5V | 08:16:00 | 02:17:39 | 00:00:00 | |
| DL1NUX | 2026-09-03 05:49:08 | 52.38553 | 8.83108 | 113° | 89km/h | 13286m | -12.2m/s | -52.5°C | 4.6% | 165.5hPa | 2.5V | 08:16:21 | 02:17:33 | 00:00:00 | |
| DL1XH-15 | 2026-09-03 05:49:07 | 52.38562 | 8.83074 | 111° | 88km/h | 13298m | -11.8m/s | -52.5°C | 4.6% | 165.4hPa | 2.5V | 08:16:22 | 02:17:32 | 00:00:00 | |
| DL1XH-west | 2026-09-03 05:49:07 | 52.38513 | 8.83243 | 118° | 93km/h | 13238m | -12.4m/s | -52.4°C | 1.8% | 166.8hPa | 2.5V | 08:17:03 | 02:17:37 | 00:00:00 | |
| DF8AY | 2026-09-03 05:49:06 | 52.38524 | 8.83209 | 116° | 91km/h | 13251m | -12.1m/s | -52.3°C | 1.7% | 166.5hPa | 2.6V | 08:17:03 | 02:17:36 | 00:00:00 | |
| HSKMA3-T | 2026-09-03 05:49:04 | 52.38544 | 8.83142 | 115° | 89km/h | 13274m | -11.8m/s | -52.5°C | 1.8% | 165.9hPa | 2.6V | 08:17:03 | 02:17:34 | 00:00:00 | |
| DM0DOS-11 | 2026-09-03 05:49:03 | 52.38585 | 8.82970 | 109° | 89km/h | 13334m | -11.9m/s | -52.5°C | 4.6% | 164.3hPa | 2.6V | 08:16:25 | 02:17:29 | 00:00:00 | |
| DO2JMG | 2026-09-03 05:49:03 | 52.38553 | 8.83108 | 113° | 89km/h | 13286m | -12.2m/s | -52.5°C | 1.7% | 165.5hPa | 2.5V | 08:17:03 | 02:17:33 | 00:00:00 | |
| AA1-15 | 2026-09-03 05:48:59 | 52.38585 | 8.82970 | 110° | 89km/h | 13334m | -11.9m/s | -52.5°C | 1.8% | 164.4hPa | 2.6V | 08:17:03 | 02:17:29 | 00:00:00 | |
| BIOWL1-15 | 2026-09-03 05:48:58 | 52.38593 | 8.82935 | 109° | 89km/h | 13346m | -12.3m/s | -52.5°C | 1.8% | 164.1hPa | 2.5V | 08:17:03 | 02:17:28 | 00:00:00 | |
| DL1XH-15 | 2026-09-03 05:48:57 | 52.38639 | 8.82721 | 109° | 93km/h | 13419m | -12.4m/s | -52.4°C | 4.6% | 162.2hPa | 2.5V | 08:16:32 | 02:17:22 | 00:00:00 | |
| DL1XH-west | 2026-09-03 05:48:56 | 52.38608 | 8.82864 | 110° | 91km/h | 13370m | -12.2m/s | -52.5°C | 1.9% | 163.5hPa | 2.5V | 08:17:03 | 02:17:26 | 00:00:00 | |
| DF8AY | 2026-09-03 05:48:55 | 52.38615 | 8.82829 | 109° | 91km/h | 13382m | -12m/s | -52.5°C | 1.8% | 163.2hPa | 2.6V | 08:17:03 | 02:17:25 | 00:00:00 | |
| DB0DAN | 2026-09-03 05:48:55 | 52.38615 | 8.82829 | 109° | 88km/h | 13382m | -12m/s | -52.5°C | 2.2% | 163.15hPa | 2.6V | 00:00:00 | 00:00:00 | 00:00:00 | |
| HSKMA3-T | 2026-09-03 05:48:53 | 52.38631 | 8.82757 | 110° | 93km/h | 13407m | -11.9m/s | -52.4°C | 1.8% | 162.5hPa | 2.6V | 08:17:03 | 02:17:23 | 00:00:00 | |
| DO2JMG | 2026-09-03 05:48:52 | 52.38639 | 8.82721 | 110° | 93km/h | 13419m | -12.4m/s | -52.4°C | 1.9% | 162.2hPa | 2.5V | 08:17:03 | 02:17:22 | 00:00:00 | |
| DD8BA-10 | 2026-09-03 05:48:52 | 52.38639 | 8.82721 | 110° | 95km/h | 13419m | -12.3m/s | -52.3°C | 4.6% | 162.2hPa | 2.5V | 00:00:00 | 00:00:00 | 00:00:00 | |
| DO2SHX-10 | 2026-09-03 05:48:51 | 52.38647 | 8.82684 | 110° | 95km/h | 13431m | -12.2m/s | -52.3°C | 4.6% | 162.0hPa | 2.5V | 00:00:00 | 02:17:21 | 00:00:00 | |
| DM0DOS-11 | 2026-09-03 05:48:50 | 52.38664 | 8.82611 | 110° | 95km/h | 13455m | -12.2m/s | -52.4°C | 4.6% | 161.3hPa | 2.6V | 08:16:35 | 02:17:19 | 00:00:00 | |
| AA1-15 | 2026-09-03 05:48:49 | 52.38664 | 8.82611 | 110° | 95km/h | 13455m | -12.2m/s | -52.4°C | 1.8% | 161.3hPa | 2.6V | 08:17:03 | 02:17:19 | 00:00:00 | |
| BIOWL1-15 | 2026-09-03 05:48:48 | 52.38672 | 8.82574 | 109° | 95km/h | 13467m | -12.1m/s | -52.5°C | 1.9% | 161hPa | 2.6V | 08:17:03 | 02:17:18 | 00:00:00 | |
| DO2SHX-10 | 2026-09-03 05:48:48 | 52.38672 | 8.82574 | 109° | 95km/h | 13467m | -12.1m/s | -52.5°C | 4.6% | 161.0hPa | 2.6V | 00:00:00 | 02:17:18 | 00:00:00 | |
| DL1XH-15 | 2026-09-03 05:48:47 | 52.38717 | 8.82351 | 107° | 95km/h | 13540m | -12.2m/s | -52.8°C | 4.7% | 159.2hPa | 2.6V | 08:16:42 | 02:17:12 | 00:00:00 | |
| DL1XH-west | 2026-09-03 05:48:45 | 52.38695 | 8.82463 | 108° | 95km/h | 13504m | -12.5m/s | -52.7°C | 1.8% | 160.1hPa | 2.5V | 08:17:03 | 02:17:15 | 00:00:00 | |
| D01LWL | 2026-09-03 05:48:45 | 52.38703 | 8.82426 | 107° | 93km/h | 13516m | -12.3m/s | -52.8°C | 2.2% | 159.8hPa | 2.6V | 00:00:00 | 00:00:00 | 00:00:00 | |
| HSKMA3-T | 2026-09-03 05:48:42 | 52.38717 | 8.82351 | 108° | 95km/h | 13541m | -12.2m/s | -52.8°C | 1.9% | 159.2hPa | 2.6V | 08:17:03 | 02:17:12 | 00:00:00 | |
| DO2JMG | 2026-09-03 05:48:41 | 52.38724 | 8.82313 | 107° | 95km/h | 13553m | -12.4m/s | -52.8°C | 1.8% | 158.9hPa | 2.5V | 08:17:03 | 02:17:11 | 00:00:00 | |
| DB0NH | 2026-09-03 05:48:41 | 52.38724 | 8.82313 | 108° | 93km/h | 13553m | -12.3m/s | -52.7°C | 4.6% | 158.8hPa | 2.5V | 00:00:00 | 02:17:11 | 00:00:00 | |
| DM0DOS-11 | 2026-09-03 05:48:40 | 52.38739 | 8.82238 | 107° | 95km/h | 13578m | -12.2m/s | -52.8°C | 4.6% | 158.3hPa | 2.5V | 08:16:45 | 02:17:09 | 00:00:00 | |
| DB0DAN | 2026-09-03 05:48:40 | 52.38731 | 8.82276 | 107° | 91km/h | 13565m | -12.6m/s | -52.8°C | 2.1% | 158.54hPa | 2.5V | 00:00:00 | 00:00:00 | 00:00:00 | |
| BIOWL1-15 | 2026-09-03 05:48:39 | 52.38754 | 8.82162 | 108° | 97km/h | 13602m | -12.6m/s | -52.8°C | 1.8% | 157.7hPa | 2.6V | 08:17:03 | 02:17:07 | 00:00:00 | |
| AA1-15 | 2026-09-03 05:48:38 | 52.38746 | 8.82200 | 108° | 97km/h | 13590m | -12.6m/s | -52.8°C | 1.7% | 158hPa | 2.6V | 08:17:03 | 02:17:08 | 00:00:00 | |
| DL1XH-15 | 2026-09-03 05:48:37 | 52.38792 | 8.81977 | 108° | 93km/h | 13664m | -12.7m/s | -52.9°C | 4.6% | 156.2hPa | 2.6V | 08:16:52 | 02:17:02 | 00:00:00 | |
| DF8AY | 2026-09-03 05:48:35 | 52.38769 | 8.82087 | 109° | 97km/h | 13627m | -12.7m/s | -52.8°C | 1.8% | 157.1hPa | 2.5V | 08:17:03 | 02:17:05 | 00:00:00 | |
| DL1XH-west | 2026-09-03 05:48:34 | 52.38777 | 8.82050 | 109° | 95km/h | 13640m | -12.4m/s | -52.9°C | 1.8% | 156.8hPa | 2.5V | 08:17:03 | 02:17:04 | 00:00:00 | |
| HSKMA3-T | 2026-09-03 05:48:32 | 52.38792 | 8.81976 | 109° | 93km/h | 13664m | -12.7m/s | -52.9°C | 1.7% | 156.2hPa | 2.6V | 08:17:03 | 02:17:02 | 00:00:00 | |
| DO2JMG | 2026-09-03 05:48:32 | 52.38799 | 8.81940 | 108° | 93km/h | 13677m | -12.7m/s | -52.9°C | 1.7% | 155.8hPa | 2.6V | 08:17:03 | 02:17:01 | 00:00:00 | |
| BIOWL1-15 | 2026-09-03 05:48:29 | 52.38827 | 8.81795 | 107° | 89km/h | 13728m | -12.7m/s | -52.8°C | 1.7% | 154.6hPa | 2.5V | 08:17:03 | 02:16:57 | 00:00:00 | |
| AA1-15 | 2026-09-03 05:48:28 | 52.38821 | 8.81831 | 107° | 91km/h | 13715m | -12.4m/s | -52.8°C | 1.7% | 155hPa | 2.5V | 08:17:03 | 02:16:58 | 00:00:00 | |
| MET0W-2 | 2026-09-03 05:48:28 | 52.38827 | 8.81795 | 106° | 89km/h | 13728m | -12.7m/s | -52.8°C | 2.1% | 154.6hPa | 2.6V | 00:00:00 | 00:00:00 | 00:00:00 | |
| DO2SHX-10 | 2026-09-03 05:48:27 | 52.38827 | 8.81795 | 107° | 89km/h | 13728m | -12.6m/s | -52.7°C | 4.6% | 154.6hPa | 2.6V | 00:00:00 | 02:16:57 | 00:00:00 | |
| DL1LOL-11 | 2026-09-03 05:48:26 | 52.38827 | 8.81795 | 108° | 89km/h | 13728m | -12.7m/s | -52.8°C | 2.1% | 154.6hPa | 2.6V | 00:00:00 | 00:00:00 | 00:00:00 | |
| DB0DAN | 2026-09-03 05:48:25 | 52.38841 | 8.81724 | 108° | 86km/h | 13753m | -12.7m/s | -52.9°C | 2.1% | 153.97hPa | 2.6V | 00:00:00 | 00:00:00 | 00:00:00 | |
| DL1XH-west | 2026-09-03 05:48:24 | 52.38847 | 8.81689 | 107° | 89km/h | 13765m | -12.9m/s | -53°C | 1.7% | 153.8hPa | 2.6V | 08:17:03 | 02:16:54 | 00:00:00 | |
| HSKMA3-T | 2026-09-03 05:48:22 | 52.38861 | 8.81617 | 108° | 91km/h | 13791m | -12.2m/s | -53.2°C | 1.7% | 153.1hPa | 2.5V | 08:17:03 | 02:16:52 | 00:00:00 | |
| DO2JMG | 2026-09-03 05:48:21 | 52.38868 | 8.81582 | 106° | 91km/h | 13803m | -13m/s | -53.2°C | 1.7% | 152.9hPa | 2.5V | 08:17:03 | 02:16:51 | 00:00:00 | |
| DO2SHX-10 | 2026-09-03 05:48:21 | 52.38868 | 8.81582 | 107° | 91km/h | 13803m | -13.0m/s | -53.2°C | 4.7% | 152.8hPa | 2.6V | 00:00:00 | 02:16:51 | 00:00:00 | |
| SMARD9-15 | 2026-09-03 05:48:20 | 52.38874 | 8.81545 | 106° | 91km/h | 13816m | -13.0m/s | -53.3°C | 2.1% | 152.5hPa | 2.6V | 00:00:00 | 00:00:00 | 00:00:00 | |
| DL3OBA | 2026-09-03 05:48:19 | 52.38874 | 8.81545 | 107° | 91km/h | 13817m | -13.0m/s | -53.3°C | 2.1% | 152.5hPa | 2.6V | 08:17:00 | 00:00:00 | 00:00:00 | |
| DL1NUX | 2026-09-03 05:48:18 | 52.38916 | 8.81285 | 103° | 93km/h | 13906m | -13.2m/s | -53.5°C | 4.7% | 150.5hPa | 2.6V | 08:17:11 | 02:16:43 | 00:00:00 | |
| AA1-15 | 2026-09-03 05:48:18 | 52.38887 | 8.81471 | 105° | 93km/h | 13842m | -13.1m/s | -53.5°C | 1.8% | 152hPa | 2.5V | 08:17:54 | 02:16:48 | 00:00:00 | |
| BIOWL1-15 | 2026-09-03 05:48:17 | 52.38893 | 8.81434 | 105° | 93km/h | 13855m | -12.8m/s | -53.4°C | 1.7% | 151.7hPa | 2.5V | 08:17:54 | 02:16:47 | 00:00:00 | |
| DL1XH-west | 2026-09-03 05:48:13 | 52.38915 | 8.81284 | 103° | 93km/h | 13906m | -13.2m/s | -53.5°C | 1.7% | 150.5hPa | 2.6V | 08:17:54 | 02:16:43 | 00:00:00 | |
| HSKMA3-T | 2026-09-03 05:48:11 | 52.38926 | 8.81210 | 104° | 93km/h | 13931m | -12.5m/s | -53.4°C | 1.7% | 149.8hPa | 2.5V | 08:17:54 | 02:16:41 | 00:00:00 | |
| DB0NH | 2026-09-03 05:48:11 | 52.38926 | 8.81210 | 105° | 95km/h | 13931m | -12.4m/s | -53.4°C | 4.7% | 149.8hPa | 2.6V | 00:00:00 | 02:16:41 | 00:00:00 | |
| DM0DOS-11 | 2026-09-03 05:48:10 | 52.38939 | 8.81136 | 105° | 91km/h | 13957m | -12.9m/s | -53.3°C | 4.6% | 149.3hPa | 2.6V | 08:17:15 | 02:16:39 | 00:00:00 | |
| DO2JMG | 2026-09-03 05:48:10 | 52.38932 | 8.81172 | 105° | 93km/h | 13944m | -12.7m/s | -53.4°C | 1.7% | 149.5hPa | 2.5V | 08:17:54 | 02:16:40 | 00:00:00 | |
| DO2SHX-10 | 2026-09-03 05:48:09 | 52.38938 | 8.81136 | 106° | 93km/h | 13957m | -12.8m/s | -53.3°C | 4.6% | 149.2hPa | 2.6V | 00:00:00 | 02:16:39 | 00:00:00 | |
| DL1NUX | 2026-09-03 05:48:08 | 52.38983 | 8.80917 | 109° | 93km/h | 14034m | -13.1m/s | -53.3°C | 4.6% | 147.4hPa | 2.6V | 08:17:21 | 02:16:33 | 00:00:00 | |
| HTAHTA | 2026-09-03 05:48:08 | 52.38945 | 8.81099 | 106° | 91km/h | 13970m | -13.0m/s | -53.3°C | 2.0% | 148.9hPa | 2.6V | 00:00:00 | 00:00:00 | 00:00:00 | |
| DL1XH-15 | 2026-09-03 05:48:07 | 52.38991 | 8.80880 | 110° | 95km/h | 14047m | -13.2m/s | -53.3°C | 4.7% | 147.1hPa | 2.6V | 08:17:22 | 02:16:32 | 00:00:00 | |
| AA1-15 | 2026-09-03 05:48:07 | 52.38952 | 8.81063 | 108° | 91km/h | 13982m | -12.7m/s | -53.3°C | 1.6% | 148.6hPa | 2.5V | 08:17:54 | 02:16:37 | 00:00:00 | |
| BIOWL1-15 | 2026-09-03 05:48:06 | 52.38959 | 8.81026 | 108° | 93km/h | 13995m | -12.7m/s | -53.3°C | 1.6% | 148.4hPa | 2.5V | 08:17:54 | 02:16:36 | 00:00:00 | |
| DF8AY | 2026-09-03 05:48:03 | 52.38983 | 8.80917 | 110° | 93km/h | 14034m | -13.1m/s | -53.3°C | 1.7% | 147.4hPa | 2.6V | 08:17:54 | 02:16:33 | 00:00:00 | |
| DO9LL-15 | 2026-09-03 05:48:03 | 52.38983 | 8.80917 | 110° | 95km/h | 14034m | -13.1m/s | -53.3°C | 4.6% | 147.3hPa | 2.5V | 00:00:00 | 02:16:33 | 00:00:00 | |
| DM0DOS-11 | 2026-09-03 05:48:02 | 52.39017 | 8.80772 | 111° | 93km/h | 14086m | -13.2m/s | -53.1°C | 4.6% | 146.3hPa | 2.5V | 08:17:25 | 02:16:29 | 00:00:00 | |
| DL1XH-west | 2026-09-03 05:48:02 | 52.38991 | 8.80880 | 111° | 95km/h | 14047m | -13.2m/s | -53.3°C | 1.7% | 147.1hPa | 2.6V | 08:17:54 | 02:16:32 | 00:00:00 | |
| HSKMA3-T | 2026-09-03 05:48:01 | 52.39000 | 8.80844 | 111° | 93km/h | 14060m | -13m/s | -53.2°C | 1.7% | 146.9hPa | 2.5V | 08:17:54 | 02:16:31 | 00:00:00 | |
| DO2JMG | 2026-09-03 05:47:59 | 52.39017 | 8.80772 | 111° | 93km/h | 14086m | -13.2m/s | -53.1°C | 1.7% | 146.3hPa | 2.5V | 08:17:54 | 02:16:29 | 00:00:00 | |
| DL1NUX | 2026-09-03 05:47:58 | 52.39071 | 8.80561 | 112° | 91km/h | 14165m | -13.1m/s | -53.3°C | 4.7% | 144.5hPa | 2.6V | 08:17:31 | 02:16:23 | 00:00:00 | |
| DL1XH-15 | 2026-09-03 05:47:57 | 52.39080 | 8.80526 | 112° | 93km/h | 14178m | -13.1m/s | -53.4°C | 4.7% | 144.2hPa | 2.6V | 08:17:32 | 02:16:22 | 00:00:00 | |
| BIOWL1-15 | 2026-09-03 05:47:56 | 52.39044 | 8.80666 | 114° | 91km/h | 14126m | -13.3m/s | -53.2°C | 1.6% | 145.4hPa | 2.5V | 08:17:54 | 02:16:26 | 00:00:00 | |
| DB0DAN | 2026-09-03 05:47:55 | 52.39053 | 8.80631 | 113° | 88km/h | 14139m | -13.4m/s | -53.2°C | 2% | 145.1hPa | 2.5V | 00:00:00 | 00:00:00 | 00:00:00 | |
| DL8DAS-14 | 2026-09-03 05:47:55 | 52.39062 | 8.80596 | 113° | 89km/h | 14152m | -13.5m/s | -53.3°C | 2.0% | 144.7hPa | 2.5V | 00:00:00 | 00:00:00 | 00:00:00 | |
| DM0DOS-11 | 2026-09-03 05:47:54 | 52.39107 | 8.80419 | 111° | 95km/h | 14215m | -11.7m/s | -53.5°C | 4.8% | 143.3hPa | 2.5V | 08:17:35 | 02:16:19 | 00:00:00 | |
| DL1XH-west | 2026-09-03 05:47:52 | 52.39080 | 8.80526 | 113° | 93km/h | 14178m | -13.1m/s | -53.4°C | 1.8% | 144.2hPa | 2.6V | 08:17:54 | 02:16:22 | 00:00:00 | |
| HSKMA3-T | 2026-09-03 05:47:50 | 52.39098 | 8.80455 | 112° | 95km/h | 14203m | -12.1m/s | -53.4°C | 1.8% | 143.6hPa | 2.5V | 08:17:54 | 02:16:20 | 00:00:00 | |
| DO2JMG | 2026-09-03 05:47:48 | 52.39116 | 8.80382 | 112° | 97km/h | 14227m | -12.7m/s | -53.4°C | 1.9% | 143.1hPa | 2.5V | 08:17:54 | 02:16:18 | 00:00:00 | |
| DO2SHX-10 | 2026-09-03 05:47:48 | 52.39116 | 8.80382 | 113° | 97km/h | 14227m | -12.7m/s | -53.4°C | 4.8% | 143.1hPa | 2.5V | 08:17:00 | 02:16:18 | 00:00:00 | |
| DL1XH-15 | 2026-09-03 05:47:47 | 52.39174 | 8.80161 | 113° | 97km/h | 14299m | -13.2m/s | -53.3°C | 4.7% | 141.4hPa | 2.6V | 08:17:42 | 02:16:12 | 00:00:00 | |
| AA1-15 | 2026-09-03 05:47:45 | 52.39145 | 8.80272 | 113° | 97km/h | 14261m | -12.1m/s | -53.2°C | 1.8% | 142.3hPa | 2.5V | 08:17:54 | 02:16:15 | 00:00:00 | |
| DO2SHX-10 | 2026-09-03 05:47:45 | 52.39145 | 8.80272 | 114° | 97km/h | 14261m | -12.1m/s | -53.2°C | 4.7% | 142.2hPa | 2.5V | 00:00:00 | 02:16:15 | 00:00:00 | |
| DO2KSM | 2026-09-03 05:47:44 | 52.39145 | 8.80272 | 114° | 97km/h | 14261m | -12.1m/s | -53.2°C | 2.1% | 142.3hPa | 2.5V | 00:00:00 | 00:00:00 | 00:00:00 | |
| DB0UT-7 | 2026-09-03 05:47:43 | 52.39164 | 8.80197 | 113° | 89km/h | 14287m | -13.2m/s | -53.2°C | 4.7% | 141.6hPa | 2.5V | 00:00:00 | 02:16:13 | 00:00:00 | |
| DM0DOS-11 | 2026-09-03 05:47:42 | 52.39203 | 8.80052 | 114° | 95km/h | 14339m | -13.4m/s | -53.1°C | 4.6% | 140.6hPa | 2.5V | 08:17:45 | 02:16:09 | 00:00:00 | |
| DL1XH-west | 2026-09-03 05:47:42 | 52.39174 | 8.80161 | 113° | 97km/h | 14299m | -13.2m/s | -53.3°C | 1.8% | 141.4hPa | 2.6V | 08:17:54 | 02:16:12 | 00:00:00 | |
| DF8AY | 2026-09-03 05:47:41 | 52.39184 | 8.80124 | 113° | 97km/h | 14312m | -13.2m/s | -53.3°C | 1.8% | 141.2hPa | 2.6V | 08:17:54 | 02:16:11 | 00:00:00 | |
| HSKMA3-T | 2026-09-03 05:47:40 | 52.39193 | 8.80088 | 114° | 95km/h | 14326m | -13.4m/s | -53.2°C | 1.8% | 140.8hPa | 2.6V | 08:17:54 | 02:16:10 | 00:00:00 | |
| DO2JMG | 2026-09-03 05:47:38 | 52.39213 | 8.80016 | 114° | 95km/h | 14352m | -13m/s | -53.2°C | 1.7% | 140.3hPa | 2.5V | 08:17:54 | 02:16:08 | 00:00:00 | |
| BIOWL1-15 | 2026-09-03 05:47:35 | 52.39242 | 8.79907 | 113° | 97km/h | 14391m | -13.4m/s | -53.3°C | 1.7% | 139.5hPa | 2.6V | 08:17:54 | 02:16:05 | 00:00:00 | |
| AA1-15 | 2026-09-03 05:47:34 | 52.39251 | 8.79870 | 112° | 97km/h | 14405m | -12.9m/s | -53.4°C | 1.7% | 139.3hPa | 2.5V | 08:17:54 | 02:16:04 | 00:00:00 | |
| DL1XH-west | 2026-09-03 05:47:32 | 52.39269 | 8.79796 | 111° | 97km/h | 14430m | -12.7m/s | -53.5°C | 1.7% | 138.7hPa | 2.5V | 08:17:54 | 02:16:02 | 00:00:00 | |
| HSKMA3-T | 2026-09-03 05:47:29 | 52.39296 | 8.79687 | 112° | 93km/h | 14470m | -13.5m/s | -53.4°C | 1.6% | 137.8hPa | 2.6V | 08:18:45 | 02:15:59 | 00:00:00 | |
| DF8AY | 2026-09-03 05:47:28 | 52.39305 | 8.79651 | 112° | 91km/h | 14483m | -13.3m/s | -53.4°C | 1.6% | 137.5hPa | 2.5V | 08:18:45 | 02:15:58 | 00:00:00 | |
| BIOWL9-15 | 2026-09-03 05:47:28 | 52.39305 | 8.79651 | 112° | 89km/h | 14483m | -13.3m/s | -53.4°C | 2.0% | 137.5hPa | 2.5V | 00:00:00 | 00:00:00 | 00:00:00 | |
| DL1XH-15 | 2026-09-03 05:47:27 | 52.39357 | 8.79454 | 114° | 84km/h | 14563m | -12.8m/s | -53.6°C | 4.6% | 135.8hPa | 2.5V | 08:18:02 | 02:15:52 | 00:00:00 | |
| DO2JMG | 2026-09-03 05:47:27 | 52.39314 | 8.79617 | 113° | 89km/h | 14496m | -13.7m/s | -53.4°C | 1.6% | 137.2hPa | 2.5V | 08:18:45 | 02:15:57 | 00:00:00 | |
| BIOWL1-15 | 2026-09-03 05:47:25 | 52.39331 | 8.79550 | 113° | 88km/h | 14523m | -13.2m/s | -53.5°C | 1.5% | 136.6hPa | 2.6V | 08:18:45 | 02:15:55 | 00:00:00 | |
| AA1-15 | 2026-09-03 05:47:24 | 52.39340 | 8.79518 | 114° | 84km/h | 14537m | -13.8m/s | -53.5°C | 1.5% | 136.4hPa | 2.6V | 08:18:45 | 02:15:54 | 00:00:00 | |
| DO2KSM | 2026-09-03 05:47:23 | 52.39340 | 8.79518 | 115° | 84km/h | 14537m | -13.8m/s | -53.5°C | 1.9% | 136.4hPa | 2.6V | 00:00:00 | 00:00:00 | 00:00:00 | |
| DM0DOS-11 | 2026-09-03 05:47:22 | 52.39382 | 8.79360 | 113° | 82km/h | 14603m | -13.5m/s | -53.7°C | 4.6% | 135hPa | 2.6V | 08:18:05 | 02:15:49 | 00:00:00 | |
| DL1XH-west | 2026-09-03 05:47:21 | 52.39365 | 8.79422 | 113° | 82km/h | 14576m | -13.9m/s | -53.7°C | 1.5% | 135.6hPa | 2.5V | 08:18:45 | 02:15:51 | 00:00:00 | |
| HSKMA3-T | 2026-09-03 05:47:18 | 52.39390 | 8.79329 | 115° | 82km/h | 14616m | -13.3m/s | -53.6°C | 1.5% | 134.7hPa | 2.6V | 08:18:45 | 02:15:48 | 00:00:00 | |
| DF8AY | 2026-09-03 05:47:17 | 52.39399 | 8.79299 | 114° | 82km/h | 14630m | -13.6m/s | -53.5°C | 1.5% | 134.5hPa | 2.5V | 08:18:45 | 02:15:47 | 00:00:00 | |
| DO2JMG | 2026-09-03 05:47:16 | 52.39407 | 8.79268 | 115° | 80km/h | 14643m | -12.9m/s | -53.4°C | 1.4% | 134.2hPa | 2.5V | 08:18:45 | 02:15:46 | 00:00:00 | |
| BIOWL1-15 | 2026-09-03 05:47:14 | 52.39424 | 8.79207 | 114° | 82km/h | 14669m | -13.9m/s | -53.5°C | 1.3% | 133.6hPa | 2.6V | 08:18:45 | 02:15:44 | 00:00:00 | |
| DL1NUX | 2026-09-03 05:47:13 | 52.39472 | 8.79029 | 112° | 75km/h | 14751m | -13.7m/s | -53.8°C | 4.4% | 131.8hPa | 2.6V | 08:18:16 | 02:15:38 | 00:00:00 | |
| AA1-15 | 2026-09-03 05:47:13 | 52.39433 | 8.79176 | 114° | 80km/h | 14683m | -13.7m/s | -53.6°C | 1.4% | 133.3hPa | 2.6V | 08:18:45 | 02:15:43 | 00:00:00 | |
| DB0UT-7 | 2026-09-03 05:47:13 | 52.39432 | 8.79176 | 114° | 77km/h | 14683m | -13.6m/s | -53.5°C | 4.4% | 133.2hPa | 2.6V | 00:00:00 | 00:00:00 | 00:00:00 | |
| DM0DOS-11 | 2026-09-03 05:47:12 | 52.39464 | 8.79058 | 112° | 77km/h | 14737m | -14.5m/s | -53.7°C | 4.3% | 132.2hPa | 2.6V | 08:18:15 | 02:15:39 | 00:00:00 | |
| DL1XH-west | 2026-09-03 05:47:10 | 52.39457 | 8.79087 | 113° | 77km/h | 14723m | -14m/s | -53.6°C | 1.2% | 132.5hPa | 2.5V | 08:18:45 | 02:15:40 | 00:00:00 | |
| DL3AQ-11 | 2026-09-03 05:47:10 | 52.39464 | 8.79058 | 112° | 75km/h | 14737m | -14.5m/s | -53.7°C | 1.8% | 132.2hPa | 2.6V | 00:00:00 | 00:00:00 | 00:00:00 | |
| DO2SHX-10 | 2026-09-03 05:47:09 | 52.39464 | 8.79058 | 113° | 75km/h | 14737m | -14.4m/s | -53.6°C | 4.3% | 132.2hPa | 2.6V | 00:00:00 | 02:15:39 | 00:00:00 | |
| DL1XH1-15 | 2026-09-03 05:47:08 | 52.39510 | 8.78890 | 114° | 71km/h | 14818m | -13.1m/s | -53.6°C | 4.3% | 130.6hPa | 2.6V | 08:18:21 | 02:15:33 | 00:00:00 | |
| HSKMA3-T | 2026-09-03 05:47:07 | 52.39479 | 8.79000 | 113° | 75km/h | 14765m | -13.3m/s | -53.8°C | 1.3% | 131.7hPa | 2.6V | 08:18:45 | 02:15:37 | 00:00:00 | |
| DO2JMG | 2026-09-03 05:47:05 | 52.39494 | 8.78944 | 114° | 73km/h | 14791m | -13.4m/s | -53.7°C | 1.3% | 131.1hPa | 2.5V | 08:18:45 | 02:15:35 | 00:00:00 | |
| DM0DOS-11 | 2026-09-03 05:47:04 | 52.39539 | 8.78780 | 113° | 75km/h | 14871m | -13.3m/s | -53.8°C | 4.3% | 129.5hPa | 2.5V | 08:18:25 | 02:15:29 | 00:00:00 | |
| BIOWL1-15 | 2026-09-03 05:47:04 | 52.39502 | 8.78917 | 115° | 73km/h | 14804m | -13.6m/s | -53.7°C | 1.2% | 130.8hPa | 2.5V | 08:18:45 | 02:15:34 | 00:00:00 | |
| AA1-15 | 2026-09-03 05:47:02 | 52.39517 | 8.78863 | 114° | 73km/h | 14831m | -13.4m/s | -53.7°C | 1.2% | 130.3hPa | 2.6V | 08:18:45 | 02:15:32 | 00:00:00 | |
| DL1XH-west | 2026-09-03 05:47:00 | 52.39532 | 8.78808 | 113° | 75km/h | 14857m | -13.8m/s | -53.7°C | 1.2% | 129.8hPa | 2.5V | 08:18:45 | 02:15:30 | 00:00:00 | |
| EDDB2-12 | 2026-09-03 05:46:59 | 52.39547 | 8.78751 | 113° | 75km/h | 14885m | -13.4m/s | -53.9°C | 1.7% | 129.2hPa | 2.5V | 00:00:00 | 00:00:00 | 00:00:00 | |
| DL1XH1-15 | 2026-09-03 05:46:58 | 52.39587 | 8.78607 | 116° | 77km/h | 14952m | -13.4m/s | -54.3°C | 4.4% | 127.9hPa | 2.5V | 08:18:31 | 02:15:23 | 00:00:00 | |
| DL1XH-15 | 2026-09-03 05:46:57 | 52.39596 | 8.78579 | 117° | 78km/h | 14965m | -13.2m/s | -54.3°C | 4.4% | 127.6hPa | 2.6V | 08:18:32 | 02:15:22 | 00:00:00 | |
| HSKMA3-T | 2026-09-03 05:46:57 | 52.39554 | 8.78722 | 114° | 75km/h | 14898m | -12.6m/s | -54°C | 1.2% | 128.9hPa | 2.6V | 08:18:45 | 02:15:27 | 00:00:00 | |
| DF8AY | 2026-09-03 05:46:56 | 52.39562 | 8.78694 | 115° | 78km/h | 14911m | -13.4m/s | -54.1°C | 1.2% | 128.7hPa | 2.6V | 08:18:45 | 02:15:26 | 00:00:00 | |
| DO2JMG | 2026-09-03 05:46:55 | 52.39571 | 8.78665 | 115° | 77km/h | 14924m | -14.1m/s | -54.2°C | 1.2% | 128.4hPa | 2.5V | 08:18:45 | 02:15:25 | 00:00:00 | |
| AU51GT2 | 2026-09-03 05:46:55 | 52.39571 | 8.78665 | 114° | 77km/h | 14924m | -14.1m/s | -54.2°C | 1.7% | 128.4hPa | 2.6V | 00:00:00 | 00:00:00 | 00:00:00 | |
| DB0DAN | 2026-09-03 05:46:55 | 52.39571 | 8.78665 | 115° | 73km/h | 14924m | -14.1m/s | -54.2°C | 1.7% | 128.38hPa | 2.5V | 00:00:00 | 00:00:00 | 00:00:00 | |
| DO2LYB-13 | 2026-09-03 05:46:54 | 52.39571 | 8.78665 | 116° | 77km/h | 14924m | -14.1m/s | -54.2°C | 1.8% | 128.4hPa | 2.6V | 00:00:00 | 00:00:00 | 00:00:00 | |
| DL1NUX | 2026-09-03 05:46:53 | 52.39633 | 8.78467 | 118° | 77km/h | 15019m | -13.5m/s | -54.4°C | 4.5% | 126.5hPa | 2.6V | 08:18:36 | 02:15:18 | 00:00:00 | |
| AA1-15 | 2026-09-03 05:46:51 | 52.39605 | 8.78551 | 119° | 77km/h | 14978m | -13.5m/s | -54.2°C | 1.2% | 127.3hPa | 2.6V | 08:18:45 | 02:15:21 | 00:00:00 | |
| DL1XH-west | 2026-09-03 05:46:49 | 52.39624 | 8.78495 | 118° | 77km/h | 15006m | -14m/s | -54.3°C | 1.2% | 126.8hPa | 2.5V | 08:18:45 | 02:15:19 | 00:00:00 | |
| DL1XH1-15 | 2026-09-03 05:46:48 | 52.39679 | 8.78327 | 117° | 77km/h | 15089m | -14.2m/s | -54.5°C | 4.5% | 125.1hPa | 2.6V | 08:18:41 | 02:15:13 | 00:00:00 | |
| DL1XH-15 | 2026-09-03 05:46:47 | 52.39687 | 8.78299 | 118° | 77km/h | 15103m | -13.9m/s | -54.5°C | 4.5% | 124.8hPa | 2.6V | 08:18:42 | 02:15:12 | 00:00:00 | |
| HSKMA3-T | 2026-09-03 05:46:46 | 52.39652 | 8.78411 | 119° | 77km/h | 15047m | -13.7m/s | -54.4°C | 1.2% | 126hPa | 2.5V | 08:18:45 | 02:15:16 | 00:00:00 | |
| DF8AY | 2026-09-03 05:46:45 | 52.39661 | 8.78383 | 117° | 77km/h | 15060m | -13.7m/s | -54.4°C | 1.2% | 125.7hPa | 2.5V | 08:18:45 | 02:15:15 | 00:00:00 | |
| DO2JMG | 2026-09-03 05:46:44 | 52.39669 | 8.78355 | 117° | 77km/h | 15074m | -14.4m/s | -54.4°C | 1.2% | 125.5hPa | 2.5V | 08:18:45 | 02:15:14 | 00:00:00 | |
| BIOWL1-15 | 2026-09-03 05:46:42 | 52.39687 | 8.78299 | 118° | 77km/h | 15103m | -13.9m/s | -54.5°C | 1.1% | 124.8hPa | 2.6V | 08:18:45 | 02:15:12 | 00:00:00 | |
| AA1-15 | 2026-09-03 05:46:40 | 52.39705 | 8.78244 | 118° | 77km/h | 15130m | -13.3m/s | -54.5°C | 1.1% | 124.4hPa | 2.5V | 08:18:45 | 02:15:10 | 00:00:00 | |
| DB0DAN | 2026-09-03 05:46:40 | 52.39705 | 8.78244 | 118° | 73km/h | 15130m | -13.3m/s | -54.5°C | 1.7% | 124.37hPa | 2.5V | 00:00:00 | 00:00:00 | 00:00:00 | |
| DL1XH1-15 | 2026-09-03 05:46:38 | 52.39774 | 8.78053 | 121° | 75km/h | 15227m | -14m/s | -54.7°C | 4.5% | 122.5hPa | 2.5V | 08:18:51 | 02:15:03 | 00:00:00 | |
| DL1XH-west | 2026-09-03 05:46:38 | 52.39724 | 8.78189 | 119° | 77km/h | 15157m | -14.3m/s | -54.7°C | 1.1% | 123.9hPa | 2.5V | 08:19:36 | 02:15:08 | 00:00:00 | |
| DL1XH-15 | 2026-09-03 05:46:37 | 52.39784 | 8.78027 | 122° | 73km/h | 15241m | -14.2m/s | -54.6°C | 4.5% | 122.3hPa | 2.6V | 08:18:52 | 02:15:02 | 00:00:00 | |
| HSKMA3-T | 2026-09-03 05:46:35 | 52.39754 | 8.78106 | 122° | 77km/h | 15199m | -14.1m/s | -54.8°C | 1.1% | 122.9hPa | 2.5V | 08:19:36 | 02:15:05 | 00:00:00 | |
| DF8AY | 2026-09-03 05:46:34 | 52.39764 | 8.78079 | 121° | 77km/h | 15213m | -14m/s | -54.7°C | 1.1% | 122.8hPa | 2.5V | 08:20:27 | 02:15:04 | 00:00:00 | |
| DO2JMG | 2026-09-03 05:46:33 | 52.39774 | 8.78053 | 122° | 75km/h | 15227m | -14m/s | -54.7°C | 1.1% | 122.5hPa | 2.5V | 08:19:36 | 02:15:03 | 00:00:00 | |
| DL1NUX | 2026-09-03 05:46:33 | 52.39820 | 8.77930 | 118° | 66km/h | 15297m | -14.1m/s | -53.7°C | 4.1% | 121.2hPa | 2.5V | 08:18:56 | 02:14:58 | 00:00:00 | |
| BIOWL1-15 | 2026-09-03 05:46:31 | 52.39794 | 8.78002 | 122° | 69km/h | 15255m | -13.8m/s | -54.5°C | 1% | 122hPa | 2.6V | 08:19:36 | 02:15:01 | 00:00:00 | |
| AA1-15 | 2026-09-03 05:46:29 | 52.39812 | 8.77954 | 121° | 68km/h | 15283m | -13.8m/s | -53.9°C | 0.9% | 121.5hPa | 2.5V | 08:19:36 | 02:14:59 | 00:00:00 | |
| DL1XH-west | 2026-09-03 05:46:28 | 52.39821 | 8.77930 | 118° | 66km/h | 15297m | -14.1m/s | -53.7°C | 0.9% | 121.2hPa | 2.5V | 08:19:36 | 02:14:58 | 00:00:00 | |
| DL1XH-15 | 2026-09-03 05:46:27 | 52.39864 | 8.77785 | 114° | 66km/h | 15381m | -13.8m/s | -53.6°C | 4% | 119.6hPa | 2.6V | 08:19:02 | 02:14:52 | 00:00:00 | |
| DO2SHX-10 | 2026-09-03 05:46:27 | 52.39828 | 8.77906 | 118° | 66km/h | 15311m | -13.5m/s | -53.7°C | 4.1% | 120.9hPa | 2.6V | 00:00:00 | 02:14:57 | 00:00:00 | |
| DL1CLM-18 | 2026-09-03 05:46:26 | 52.39828 | 8.77906 | 118° | 66km/h | 15311m | -13.5m/s | -53.7°C | 1.5% | 120.9hPa | 2.6V | 08:19:00 | 00:00:00 | 00:00:00 | |
| DB0DAN | 2026-09-03 05:46:25 | 52.39843 | 8.77858 | 115° | 60km/h | 15338m | -14.3m/s | -53.7°C | 1.4% | 120.37hPa | 2.6V | 00:00:00 | 00:00:00 | 00:00:00 | |
| HSKMA3-T | 2026-09-03 05:46:25 | 52.39843 | 8.77858 | 115° | 64km/h | 15338m | -14.3m/s | -53.7°C | 0.7% | 120.4hPa | 2.6V | 08:19:36 | 02:14:55 | 00:00:00 | |
| DF8AY | 2026-09-03 05:46:23 | 52.39857 | 8.77810 | 113° | 66km/h | 15367m | -14.3m/s | -53.6°C | 0.7% | 119.9hPa | 2.5V | 08:20:27 | 02:14:53 | 00:00:00 | |
| DM0DOS-11 | 2026-09-03 05:46:22 | 52.39882 | 8.77710 | 111° | 66km/h | 15423m | -14m/s | -53.7°C | 4.1% | 118.8hPa | 2.5V | 08:19:05 | 02:14:49 | 00:00:00 | |
| DO2JMG | 2026-09-03 05:46:22 | 52.39863 | 8.77785 | 114° | 66km/h | 15381m | -13.8m/s | -53.6°C | 0.7% | 119.6hPa | 2.6V | 08:19:36 | 02:14:52 | 00:00:00 | |
| BIOWL1-15 | 2026-09-03 05:46:20 | 52.39876 | 8.77735 | 112° | 66km/h | 15409m | -14.3m/s | -53.7°C | 0.8% | 119.1hPa | 2.5V | 08:19:36 | 02:14:50 | 00:00:00 | |
| AA1-15 | 2026-09-03 05:46:19 | 52.39882 | 8.77710 | 112° | 66km/h | 15423m | -14m/s | -53.7°C | 0.8% | 118.8hPa | 2.5V | 08:19:36 | 02:14:49 | 00:00:00 | |
| DL1XH-west | 2026-09-03 05:46:18 | 52.39888 | 8.77686 | 113° | 64km/h | 15438m | -14.2m/s | -53.7°C | 0.8% | 118.5hPa | 2.5V | 08:19:36 | 02:14:48 | 00:00:00 | |
| DO2SHX-10 | 2026-09-03 05:46:18 | 52.39888 | 8.77686 | 113° | 62km/h | 15438m | -14.1m/s | -53.6°C | 4.1% | 118.5hPa | 2.5V | 00:00:00 | 02:14:48 | 00:00:00 | |
| DL1XH-15 | 2026-09-03 05:46:17 | 52.39922 | 8.77539 | 109° | 66km/h | 15523m | -13.8m/s | -53.7°C | 4% | 117hPa | 2.5V | 08:19:12 | 02:14:42 | 00:00:00 | |
| HSKMA3-T | 2026-09-03 05:46:15 | 52.39905 | 8.77613 | 111° | 62km/h | 15480m | -14.2m/s | -53.6°C | 0.7% | 117.8hPa | 2.6V | 08:19:36 | 02:14:45 | 00:00:00 | |
| DF8AY | 2026-09-03 05:46:13 | 52.39917 | 8.77564 | 110° | 64km/h | 15509m | -14.4m/s | -53.7°C | 0.7% | 117.2hPa | 2.5V | 08:20:27 | 02:14:43 | 00:00:00 | |
| DB0UT-7 | 2026-09-03 05:46:13 | 52.39917 | 8.77564 | 110° | 68km/h | 15509m | -14.3m/s | -53.6°C | 4.0% | 117.2hPa | 2.5V | 08:19:00 | 00:00:00 | 00:00:00 | |
| DL1NUX | 2026-09-03 05:46:12 | 52.39948 | 8.77409 | 106° | 68km/h | 15594m | -14.3m/s | -54°C | 4% | 115.7hPa | 2.5V | 08:19:17 | 02:14:37 | 00:00:00 | |
| DO2JMG | 2026-09-03 05:46:11 | 52.39928 | 8.77514 | 110° | 66km/h | 15537m | -14.2m/s | -53.7°C | 0.7% | 116.8hPa | 2.6V | 08:19:36 | 02:14:41 | 00:00:00 | |
| DB0DAN | 2026-09-03 05:46:10 | 52.39933 | 8.77488 | 108° | 62km/h | 15552m | -14.2m/s | -53.7°C | 1.4% | 116.44hPa | 2.6V | 00:00:00 | 00:00:00 | 00:00:00 | |
| BIOWL1-15 | 2026-09-03 05:46:09 | 52.39938 | 8.77462 | 107° | 66km/h | 15566m | -14.5m/s | -53.8°C | 0.7% | 116.2hPa | 2.5V | 08:19:36 | 02:14:39 | 00:00:00 | |
| AA1-15 | 2026-09-03 05:46:08 | 52.39943 | 8.77436 | 106° | 68km/h | 15580m | -13.9m/s | -53.9°C | 0.7% | 116hPa | 2.5V | 08:19:36 | 02:14:38 | 00:00:00 | |
| DL1XH-15 | 2026-09-03 05:46:07 | 52.39971 | 8.77268 | 105° | 75km/h | 15666m | -14.2m/s | -54.3°C | 4.1% | 114.4hPa | 2.5V | 08:19:22 | 02:14:32 | 00:00:00 | |
| DL1XH-west | 2026-09-03 05:46:07 | 52.39948 | 8.77409 | 106° | 68km/h | 15594m | -14.3m/s | -54°C | 0.7% | 115.7hPa | 2.5V | 08:19:36 | 02:14:37 | 00:00:00 | |
| HSKMA3-T | 2026-09-03 05:46:04 | 52.39961 | 8.77326 | 105° | 71km/h | 15637m | -14.3m/s | -54.2°C | 0.7% | 114.9hPa | 2.6V | 08:19:36 | 02:14:34 | 00:00:00 | |
| HTAHTA | 2026-09-03 05:46:04 | 52.39961 | 8.77326 | 105° | 71km/h | 15638m | -14.3m/s | -54.2°C | 1.4% | 114.9hPa | 2.5V | 00:00:00 | 00:00:00 | 00:00:00 | |
| DO9LL-15 | 2026-09-03 05:46:03 | 52.39966 | 8.77297 | 105° | 68km/h | 15652m | -14.3m/s | -54.2°C | 4.1% | 114.6hPa | 2.5V | 00:00:00 | 02:14:33 | 00:00:00 | |
| DL1NUX | 2026-09-03 05:46:02 | 52.40003 | 8.77125 | 114° | 73km/h | 15738m | -14.6m/s | -54.3°C | 4.1% | 113.1hPa | 2.5V | 08:19:27 | 02:14:27 | 00:00:00 | |
| DO2JMG | 2026-09-03 05:46:01 | 52.39976 | 8.77239 | 108° | 75km/h | 15680m | -14.5m/s | -54.3°C | 0.7% | 114.2hPa | 2.5V | 08:19:36 | 02:14:31 | 00:00:00 | |
| BIOWL1-15 | 2026-09-03 05:45:59 | 52.39989 | 8.77181 | 111° | 73km/h | 15709m | -14.3m/s | -54.4°C | 0.8% | 113.6hPa | 2.6V | 08:19:36 | 02:14:29 | 00:00:00 | |
| AA1-15 | 2026-09-03 05:45:58 | 52.39996 | 8.77153 | 112° | 75km/h | 15724m | -14.3m/s | -54.4°C | 0.8% | 113.4hPa | 2.5V | 08:19:36 | 02:14:28 | 00:00:00 | |
| DL1XH-west | 2026-09-03 05:45:57 | 52.40003 | 8.77125 | 114° | 73km/h | 15738m | -14.6m/s | -54.3°C | 0.7% | 113.1hPa | 2.5V | 08:19:36 | 02:14:27 | 00:00:00 | |
| EDDB2-12 | 2026-09-03 05:45:56 | 52.40010 | 8.77098 | 113° | 71km/h | 15753m | -14.7m/s | -54.3°C | 1.4% | 112.9hPa | 2.6V | 00:00:00 | 00:00:00 | 00:00:00 | |
| DB0DAN | 2026-09-03 05:45:55 | 52.40018 | 8.77071 | 114° | 68km/h | 15768m | -14.5m/s | -54.2°C | 1.4% | 112.6hPa | 2.6V | 00:00:00 | 00:00:00 | 00:00:00 | |
| HSKMA3-T | 2026-09-03 05:45:53 | 52.40032 | 8.77019 | 115° | 69km/h | 15797m | -14.9m/s | -54.2°C | 0.7% | 112.1hPa | 2.5V | 08:19:36 | 02:14:23 | 00:00:00 | |
| AU51GT2 | 2026-09-03 05:45:53 | 52.40040 | 8.76994 | 116° | 66km/h | 15812m | -14.5m/s | -54.1°C | 1.4% | 111.9hPa | 2.6V | 00:00:00 | 00:00:00 | 00:00:00 | |
| DM0DOS-11 | 2026-09-03 05:45:52 | 52.40061 | 8.76921 | 115° | 64km/h | 15855m | -14.5m/s | -54°C | 4% | 111hPa | 2.6V | 08:19:35 | 02:14:19 | 00:00:00 | |
| DO2JMG | 2026-09-03 05:45:50 | 52.40054 | 8.76945 | 116° | 64km/h | 15841m | -14.9m/s | -54.1°C | 0.6% | 111.3hPa | 2.6V | 08:19:36 | 02:14:20 | 00:00:00 | |
| DF4FW | 2026-09-03 05:45:49 | 52.40054 | 8.76945 | 117° | 64km/h | 15841m | -14.9m/s | -54.1°C | 1.4% | 111.4hPa | 2.5V | 00:00:00 | 00:00:00 | 00:00:00 | |
| DL1XH1-15 | 2026-09-03 05:45:48 | 52.40101 | 8.76778 | 112° | 64km/h | 15943m | -14.9m/s | -54.5°C | 4.2% | 109.5hPa | 2.5V | 08:19:41 | 02:14:13 | 00:00:00 | |
| BIOWL1-15 | 2026-09-03 05:45:48 | 52.40068 | 8.76898 | 115° | 64km/h | 15870m | -14.7m/s | -54°C | 0.6% | 110.8hPa | 2.5V | 08:19:36 | 02:14:18 | 00:00:00 | |
| DL1XH-west | 2026-09-03 05:45:47 | 52.40075 | 8.76874 | 115° | 64km/h | 15885m | -14.7m/s | -54.1°C | 0.6% | 110.6hPa | 2.5V | 08:20:27 | 02:14:17 | 00:00:00 | |
| SMARD9-15 | 2026-09-03 05:45:45 | 52.40095 | 8.76803 | 112° | 64km/h | 15929m | -14.6m/s | -54.4°C | 1.4% | 109.8hPa | 2.5V | 00:00:00 | 00:00:00 | 00:00:00 | |
| DF8AY | 2026-09-03 05:45:45 | 52.40088 | 8.76827 | 114° | 64km/h | 15914m | -14.7m/s | -54.3°C | 0.7% | 110.1hPa | 2.6V | 08:20:27 | 02:14:15 | 00:00:00 | |
| HSKMA3-T | 2026-09-03 05:45:43 | 52.40101 | 8.76778 | 112° | 64km/h | 15943m | -14.9m/s | -54.5°C | 0.7% | 109.5hPa | 2.5V | 08:20:27 | 02:14:13 | 00:00:00 | |
| DB0UT-7 | 2026-09-03 05:45:43 | 52.40101 | 8.76778 | 113° | 71km/h | 15943m | -14.9m/s | -54.4°C | 4.2% | 109.5hPa | 2.5V | 00:00:00 | 02:14:13 | 00:00:00 | |
| DM0DOS-11 | 2026-09-03 05:45:42 | 52.40125 | 8.76678 | 109° | 66km/h | 16003m | -14.4m/s | -54.6°C | 4.3% | 108.6hPa | 2.5V | 08:19:45 | 02:14:09 | 00:00:00 | |
| DO2JMG | 2026-09-03 05:45:40 | 52.40119 | 8.76703 | 110° | 66km/h | 15988m | -14.8m/s | -54.7°C | 0.8% | 108.8hPa | 2.6V | 08:20:27 | 02:14:10 | 00:00:00 | |
| DO2SHX-10 | 2026-09-03 05:45:39 | 52.40125 | 8.76678 | 110° | 66km/h | 16003m | -14.4m/s | -54.6°C | 4.3% | 108.5hPa | 2.5V | 00:00:00 | 02:14:09 | 00:00:00 | |
| DL1XH1-15 | 2026-09-03 05:45:38 | 52.40158 | 8.76523 | 107° | 71km/h | 16091m | -14.8m/s | -54.5°C | 4.3% | 107hPa | 2.5V | 08:19:51 | 02:14:03 | 00:00:00 | |
| DL1XH-west | 2026-09-03 05:45:37 | 52.40136 | 8.76628 | 110° | 66km/h | 16032m | -14.9m/s | -54.5°C | 0.7% | 108hPa | 2.5V | 08:20:27 | 02:14:07 | 00:00:00 | |
| DF8AY | 2026-09-03 05:45:36 | 52.40153 | 8.76551 | 109° | 69km/h | 16077m | -15m/s | -54.5°C | 0.8% | 107.2hPa | 2.6V | 08:20:27 | 02:14:04 | 00:00:00 | |
| AA1-15 | 2026-09-03 05:45:36 | 52.40141 | 8.76603 | 111° | 66km/h | 16047m | -14.9m/s | -54.5°C | 0.7% | 107.8hPa | 2.6V | 08:20:27 | 02:14:06 | 00:00:00 | |
| DJ2DS-15 | 2026-09-03 05:45:36 | 52.40141 | 8.76603 | 112° | 73km/h | 16047m | -14.8m/s | -54.4°C | 4.3% | 107.8hPa | 2.5V | 00:00:00 | 02:14:06 | 00:00:00 | |
| BUE01 | 2026-09-03 05:45:35 | 52.40147 | 8.76577 | 110° | 66km/h | 16062m | -15.1m/s | -54.5°C | 1.4% | 107.5hPa | 2.5V | 00:00:00 | 00:00:00 | 00:00:00 | |
| DL3OBA | 2026-09-03 05:45:34 | 52.40147 | 8.76577 | 111° | 68km/h | 16062m | -15.1m/s | -54.5°C | 1.4% | 107.5hPa | 2.5V | 08:20:00 | 00:00:00 | 00:00:00 | |
| DO9LL-15 | 2026-09-03 05:45:33 | 52.40158 | 8.76523 | 108° | 73km/h | 16092m | -14.7m/s | -54.5°C | 4.3% | 107.0hPa | 2.5V | 00:00:00 | 02:14:03 | 00:00:00 | |
| DM0DOS-11 | 2026-09-03 05:45:32 | 52.40180 | 8.76408 | 106° | 75km/h | 16151m | -15.3m/s | -54.1°C | 4.2% | 106hPa | 2.6V | 08:19:55 | 02:13:59 | 00:00:00 | |
| HSKMA3-T | 2026-09-03 05:45:32 | 52.40164 | 8.76495 | 107° | 73km/h | 16106m | -15.1m/s | -54.5°C | 0.8% | 106.8hPa | 2.5V | 08:20:27 | 02:14:02 | 00:00:00 | |
| DD8BA-10 | 2026-09-03 05:45:32 | 52.40164 | 8.76495 | 107° | 75km/h | 16107m | -15.0m/s | -54.4°C | 4.4% | 106.7hPa | 2.5V | 00:00:00 | 00:00:00 | 00:00:00 | |
| DL1NUX | 2026-09-03 05:45:31 | 52.40197 | 8.76318 | 108° | 77km/h | 16197m | -14.8m/s | -54.2°C | 4.2% | 105.2hPa | 2.5V | 08:19:58 | 02:13:56 | 00:00:00 | |
| DO2JMG | 2026-09-03 05:45:30 | 52.40174 | 8.76437 | 106° | 75km/h | 16136m | -15.2m/s | -54.3°C | 0.7% | 106.3hPa | 2.6V | 08:20:27 | 02:14:00 | 00:00:00 | |
| DO2SHX-10 | 2026-09-03 05:45:30 | 52.40174 | 8.76437 | 107° | 75km/h | 16137m | -15.1m/s | -54.2°C | 4.3% | 106.2hPa | 2.6V | 00:00:00 | 02:14:00 | 00:00:00 | |
| SONDE2-11 | 2026-09-03 05:45:29 | 52.40180 | 8.76408 | 106° | 75km/h | 16152m | -15.3m/s | -54.1°C | 1.4% | 106.1hPa | 2.6V | 00:00:00 | 00:00:00 | 00:00:00 | |
| DL1XH1-15 | 2026-09-03 05:45:28 | 52.40215 | 8.76230 | 109° | 73km/h | 16241m | -15.1m/s | -54.1°C | 4.3% | 104.5hPa | 2.6V | 08:20:01 | 02:13:53 | 00:00:00 | |
| BIOWL1-15 | 2026-09-03 05:45:26 | 52.40197 | 8.76318 | 108° | 77km/h | 16197m | -14.8m/s | -54.2°C | 0.7% | 105.2hPa | 2.5V | 08:20:27 | 02:13:56 | 00:00:00 | |
| AA1-15 | 2026-09-03 05:45:25 | 52.40203 | 8.76288 | 108° | 75km/h | 16211m | -15.1m/s | -54.2°C | 0.7% | 105.1hPa | 2.6V | 08:20:27 | 02:13:55 | 00:00:00 | |
| DO2SHX-10 | 2026-09-03 05:45:24 | 52.40208 | 8.76259 | 109° | 73km/h | 16227m | -14.9m/s | -54.1°C | 4.3% | 104.7hPa | 2.6V | 00:00:00 | 02:13:54 | 00:00:00 | |
| BIOWL7-15 | 2026-09-03 05:45:23 | 52.40208 | 8.76259 | 110° | 73km/h | 16227m | -14.9m/s | -54.1°C | 1.4% | 104.7hPa | 2.6V | 08:20:00 | 00:00:00 | 00:00:00 | |
| DM0DOS-11 | 2026-09-03 05:45:22 | 52.40240 | 8.76118 | 110° | 71km/h | 16302m | -15.4m/s | -53.3°C | 4.1% | 103.6hPa | 2.6V | 08:20:05 | 02:13:49 | 00:00:00 | |
| HSKMA3-T | 2026-09-03 05:45:22 | 52.40221 | 8.76202 | 111° | 73km/h | 16257m | -15.2m/s | -54°C | 0.8% | 104.4hPa | 2.5V | 08:20:27 | 02:13:52 | 00:00:00 | |
| DL4XJ-10 | 2026-09-03 05:45:22 | 52.40221 | 8.76202 | 112° | 71km/h | 16257m | -15.1m/s | -52.8°C | 0% | 0hPa | 2.5V | 00:00:00 | 00:00:00 | 00:00:00 | |
| DO2SHX-10 | 2026-09-03 05:45:21 | 52.40228 | 8.76174 | 112° | 73km/h | 16272m | -15.0m/s | -53.7°C | 4.2% | 104.0hPa | 2.5V | 00:00:00 | 02:13:51 | 00:00:00 | |
| DL1NUX | 2026-09-03 05:45:20 | 52.40264 | 8.76007 | 106° | 71km/h | 16364m | -15.9m/s | -52.8°C | 3.9% | 102.6hPa | 2.5V | 08:20:09 | 02:13:45 | 00:00:00 | |
| DO2JMG | 2026-09-03 05:45:20 | 52.40234 | 8.76146 | 110° | 71km/h | 16287m | -15.3m/s | -53.5°C | 0.7% | 103.8hPa | 2.5V | 08:20:27 | 02:13:50 | 00:00:00 | |
| DL8DAS-14 | 2026-09-03 05:45:20 | 52.40241 | 8.76118 | 110° | 69km/h | 16302m | -15.4m/s | -53.3°C | 1.3% | 103.6hPa | 2.6V | 00:00:00 | 00:00:00 | 00:00:00 | |
| DD1CC8 | 2026-09-03 05:45:19 | 52.40241 | 8.76118 | 110° | 69km/h | 16302m | -15.4m/s | -53.3°C | 1.3% | 103.6hPa | 2.6V | 00:00:00 | 00:00:00 | 00:00:00 | |
| DL1XH1-15 | 2026-09-03 05:45:18 | 52.40274 | 8.75949 | 105° | 73km/h | 16395m | -14.9m/s | -52.8°C | 3.9% | 102hPa | 2.6V | 08:20:11 | 02:13:43 | 00:00:00 | |
| DL1XH-west | 2026-09-03 05:45:16 | 52.40259 | 8.76035 | 107° | 71km/h | 16348m | -15.8m/s | -52.8°C | 0.5% | 102.9hPa | 2.5V | 08:20:27 | 02:13:46 | 00:00:00 | |
| AA1-15 | 2026-09-03 05:45:15 | 52.40264 | 8.76007 | 107° | 71km/h | 16364m | -15.9m/s | -52.8°C | 0.5% | 102.6hPa | 2.5V | 08:20:27 | 02:13:45 | 00:00:00 | |
| HSKMA3-T | 2026-09-03 05:45:12 | 52.40279 | 8.75920 | 105° | 71km/h | 16410m | -15.2m/s | -52.8°C | 0.5% | 101.9hPa | 2.6V | 08:20:27 | 02:13:42 | 00:00:00 | |
| DF8AY | 2026-09-03 05:45:11 | 52.40284 | 8.75892 | 106° | 71km/h | 16425m | -15.7m/s | -52.9°C | 0.5% | 101.6hPa | 2.5V | 08:20:27 | 02:13:41 | 00:00:00 | |
| DB0DAN | 2026-09-03 05:45:10 | 52.40289 | 8.75864 | 106° | 69km/h | 16441m | -15.9m/s | -53°C | 1.3% | 101.42hPa | 2.5V | 00:00:00 | 00:00:00 | 00:00:00 | |
| DL1NUX | 2026-09-03 05:45:10 | 52.40318 | 8.75724 | 112° | 73km/h | 16519m | -15.8m/s | -52.6°C | 3.7% | 100.2hPa | 2.5V | 08:20:19 | 02:13:35 | 00:00:00 | |
| DO2JMG | 2026-09-03 05:45:09 | 52.40294 | 8.75835 | 107° | 73km/h | 16457m | -15.7m/s | -52.9°C | 0.5% | 101.1hPa | 2.5V | 08:20:27 | 02:13:39 | 00:00:00 | |
| DL1XH1-15 | 2026-09-03 05:45:08 | 52.40333 | 8.75670 | 113° | 71km/h | 16551m | -15.8m/s | -52.4°C | 3.7% | 99.7hPa | 2.5V | 08:20:21 | 02:13:33 | 00:00:00 | |
| SO1NDE-10 | 2026-09-03 05:45:08 | 52.40299 | 8.75806 | 108° | 62km/h | 16473m | -15.3m/s | -52.7°C | 3.8% | 100.9hPa | 2.6V | 08:20:00 | 02:13:38 | 00:00:00 | |
| DL1XH-15 | 2026-09-03 05:45:07 | 52.40340 | 8.75643 | 114° | 69km/h | 16566m | -15.4m/s | -52.3°C | 3.7% | 99.4hPa | 2.6V | 08:20:22 | 02:13:32 | 00:00:00 | |
| BIOWL1-15 | 2026-09-03 05:45:07 | 52.40312 | 8.75752 | 112° | 71km/h | 16503m | -15.5m/s | -52.6°C | 0.5% | 100.4hPa | 2.6V | 08:20:27 | 02:13:36 | 00:00:00 | |
| DL1XH-west | 2026-09-03 05:45:05 | 52.40318 | 8.75724 | 113° | 73km/h | 16519m | -15.8m/s | -52.7°C | 0.4% | 100.2hPa | 2.5V | 08:20:27 | 02:13:35 | 00:00:00 | |
| AA1-15 | 2026-09-03 05:45:04 | 52.40326 | 8.75697 | 113° | 73km/h | 16535m | -15.4m/s | -52.5°C | 0.4% | 99.9hPa | 2.5V | 08:20:27 | 02:13:34 | 00:00:00 | |
| HSKMA3-T | 2026-09-03 05:45:01 | 52.40348 | 8.75617 | 116° | 71km/h | 16582m | -15.9m/s | -52.3°C | 0.3% | 99.2hPa | 2.6V | 08:20:27 | 02:13:31 | 00:00:00 | |
| GOEST3-10 | 2026-09-03 05:45:01 | 52.40347 | 8.75617 | 117° | 69km/h | 16582m | -15.8m/s | -52.2°C | 3.6% | 99.2hPa | 2.6V | 08:20:00 | 00:00:00 | 00:00:00 | |
| DL1NUX | 2026-09-03 05:45:00 | 52.40395 | 8.75466 | 117° | 64km/h | 16677m | -15.6m/s | -52.1°C | 3.5% | 97.8hPa | 2.6V | 08:20:29 | 02:13:25 | 00:00:00 | |
| DO2JMG | 2026-09-03 05:44:58 | 52.40371 | 8.75539 | 117° | 68km/h | 16630m | -15.8m/s | -51.9°C | 0.3% | 98.5hPa | 2.5V | 08:20:27 | 02:13:28 | 00:00:00 | |
| DO2SHX-10 | 2026-09-03 05:44:58 | 52.40371 | 8.75539 | 117° | 68km/h | 16630m | -15.8m/s | -51.8°C | 3.5% | 98.4hPa | 2.5V | 00:00:00 | 02:13:28 | 00:00:00 | |
| DL1XH-15 | 2026-09-03 05:44:57 | 52.40417 | 8.75398 | 118° | 58km/h | 16724m | -15.8m/s | -52.5°C | 3.6% | 97.1hPa | 2.5V | 08:20:32 | 02:13:22 | 00:00:00 | |
| BIOWL1-15 | 2026-09-03 05:44:56 | 52.40387 | 8.75490 | 118° | 68km/h | 16661m | -15.6m/s | -52°C | 0.3% | 98hPa | 2.6V | 08:21:18 | 02:13:26 | 00:00:00 | |
| DB0DAN | 2026-09-03 05:44:55 | 52.40395 | 8.75466 | 118° | 60km/h | 16677m | -15.6m/s | -52.1°C | 1.1% | 97.76hPa | 2.6V | 00:00:00 | 00:00:00 | 00:00:00 | |
| DL1XH-west | 2026-09-03 05:44:54 | 52.40402 | 8.75443 | 120° | 64km/h | 16693m | -15.7m/s | -52.2°C | 0.3% | 97.5hPa | 2.5V | 08:21:18 | 02:13:24 | 00:00:00 | |
| AA1-15 | 2026-09-03 05:44:53 | 52.40410 | 8.75420 | 118° | 62km/h | 16708m | -15.7m/s | -52.4°C | 0.3% | 97.2hPa | 2.5V | 08:21:18 | 02:13:23 | 00:00:00 | |
| HSKMA3-T | 2026-09-03 05:44:51 | 52.40425 | 8.75377 | 121° | 60km/h | 16740m | -15.9m/s | -52.4°C | 0.3% | 96.8hPa | 2.6V | 08:21:18 | 02:13:21 | 00:00:00 | |
| DO2JMG | 2026-09-03 05:44:48 | 52.40447 | 8.75314 | 121° | 55km/h | 16787m | -15.7m/s | -52.4°C | 0.4% | 96.1hPa | 2.5V | 08:21:18 | 02:13:18 | 00:00:00 | |
| DL1XH-15 | 2026-09-03 05:44:47 | 52.40493 | 8.75205 | 126° | 51km/h | 16884m | -15.9m/s | -53°C | 3.7% | 94.7hPa | 2.5V | 08:20:42 | 02:13:12 | 00:00:00 | |
| BIOWL1-15 | 2026-09-03 05:44:45 | 52.40470 | 8.75257 | 123° | 53km/h | 16836m | -16.2m/s | -52.7°C | 0.3% | 95.4hPa | 2.6V | 08:21:18 | 02:13:15 | 00:00:00 | |
| DL1XH-west | 2026-09-03 05:44:43 | 52.40485 | 8.75222 | 128° | 51km/h | 16869m | -16.2m/s | -52.9°C | 0.4% | 94.9hPa | 2.6V | 08:21:18 | 02:13:13 | 00:00:00 | |
| HSKMA3-T | 2026-09-03 05:44:40 | 52.40508 | 8.75173 | 126° | 47km/h | 16916m | -15.9m/s | -53.2°C | 0.4% | 94.1hPa | 2.5V | 08:21:18 | 02:13:10 | 00:00:00 | |
| DB0DAN | 2026-09-03 05:44:40 | 52.40508 | 8.75173 | 126° | 46km/h | 16916m | -15.9m/s | -53.2°C | 1.2% | 94.11hPa | 2.5V | 00:00:00 | 00:00:00 | 00:00:00 | |
| DL1NUX | 2026-09-03 05:44:40 | 52.40542 | 8.75092 | 122° | 46km/h | 16997m | -16.1m/s | -53.6°C | 3.9% | 93hPa | 2.5V | 08:20:49 | 02:13:05 | 00:00:00 | |
| DF8AY-15 | 2026-09-03 05:44:40 | 52.40508 | 8.75173 | 127° | 38km/h | 16917m | -15.9m/s | -53.1°C | 3.8% | 94.1hPa | 2.6V | 00:00:00 | 02:13:10 | 00:00:00 | |
| DO3DL | 2026-09-03 05:44:39 | 52.40508 | 8.75173 | 127° | 47km/h | 16917m | -15.9m/s | -53.2°C | 1.2% | 94.1hPa | 2.6V | 08:21:00 | 00:00:00 | 00:00:00 | |
| DL1XH1-15 | 2026-09-03 05:44:38 | 52.40554 | 8.75062 | 122° | 44km/h | 17029m | -16.5m/s | -53.8°C | 4% | 92.5hPa | 2.6V | 08:20:51 | 02:13:03 | 00:00:00 | |
| DO2JMG | 2026-09-03 05:44:37 | 52.40529 | 8.75125 | 124° | 47km/h | 16965m | -16m/s | -53.4°C | 0.4% | 93.5hPa | 2.5V | 08:21:18 | 02:13:07 | 00:00:00 | |
| DL1XH-west | 2026-09-03 05:44:33 | 52.40554 | 8.75062 | 122° | 44km/h | 17029m | -16.5m/s | -53.8°C | 0.5% | 92.5hPa | 2.6V | 08:21:18 | 02:13:03 | 00:00:00 | |
| DO9LL-15 | 2026-09-03 05:44:33 | 52.40553 | 8.75062 | 123° | 44km/h | 17030m | -16.5m/s | -53.8°C | 4.0% | 92.5hPa | 2.5V | 00:00:00 | 02:13:03 | 00:00:00 | |
| DM0DOS-11 | 2026-09-03 05:44:32 | 52.40576 | 8.75006 | 122° | 37km/h | 17095m | -16.3m/s | -54°C | 4% | 91.6hPa | 2.5V | 08:20:55 | 02:12:59 | 00:00:00 | |
| DD8BA-10 | 2026-09-03 05:44:32 | 52.40559 | 8.75047 | 124° | 37km/h | 17046m | -16.4m/s | -53.8°C | 4.0% | 92.3hPa | 2.5V | 00:00:00 | 00:00:00 | 00:00:00 | |
| GOEST3-10 | 2026-09-03 05:44:31 | 52.40565 | 8.75032 | 125° | 37km/h | 17063m | -16.2m/s | -53.9°C | 4.0% | 92.0hPa | 2.5V | 00:00:00 | 00:00:00 | 00:00:00 | |
| DL1NUX | 2026-09-03 05:44:30 | 52.40592 | 8.74956 | 115° | 33km/h | 17160m | -16.4m/s | -53.9°C | 4.1% | 90.7hPa | 2.5V | 08:20:59 | 02:12:55 | 00:00:00 | |
| HSKMA3-T | 2026-09-03 05:44:29 | 52.40576 | 8.75006 | 122° | 37km/h | 17095m | -16.3m/s | -54°C | 0.6% | 91.6hPa | 2.5V | 08:21:18 | 02:12:59 | 00:00:00 | |
| DO2LYB-13 | 2026-09-03 05:44:28 | 52.40576 | 8.75006 | 123° | 37km/h | 17095m | -16.3m/s | -54.0°C | 1.3% | 91.6hPa | 2.6V | 00:00:00 | 00:00:00 | 00:00:00 | |
| DL1XH-15 | 2026-09-03 05:44:27 | 52.40602 | 8.74920 | 110° | 33km/h | 17210m | -16.6m/s | -53.3°C | 3.8% | 90hPa | 2.6V | 08:21:02 | 02:12:52 | 00:00:00 | |
| DO2JMG | 2026-09-03 05:44:27 | 52.40585 | 8.74981 | 118° | 35km/h | 17127m | -16.4m/s | -53.9°C | 0.6% | 91.1hPa | 2.6V | 08:21:18 | 02:12:57 | 00:00:00 | |
| DB0DAN | 2026-09-03 05:44:25 | 52.40592 | 8.74956 | 115° | 31km/h | 17160m | -16.4m/s | -53.9°C | 1.3% | 90.66hPa | 2.5V | 00:00:00 | 00:00:00 | 00:00:00 | |
| AA1-15 | 2026-09-03 05:44:23 | 52.40599 | 8.74932 | 115° | 31km/h | 17193m | -17.2m/s | -53.4°C | 0.4% | 90.2hPa | 2.5V | 08:21:18 | 02:12:53 | 00:00:00 | |
| DL1XH-west | 2026-09-03 05:44:22 | 52.40602 | 8.74920 | 111° | 33km/h | 17210m | -16.6m/s | -53.3°C | 0.4% | 90hPa | 2.6V | 08:21:18 | 02:12:52 | 00:00:00 | |
| DM0DOS-11 | 2026-09-03 05:44:22 | 52.40611 | 8.74879 | 104° | 37km/h | 17260m | -16.7m/s | -53.5°C | 3.9% | 89.3hPa | 2.5V | 08:21:05 | 02:12:49 | 00:00:00 | |
| BIOWL9-15 | 2026-09-03 05:44:22 | 52.40605 | 8.74907 | 111° | 33km/h | 17227m | -17.1m/s | -53.3°C | 1.2% | 89.7hPa | 2.5V | 00:00:00 | 00:00:00 | 00:00:00 | |
| GOEST3-10 | 2026-09-03 05:44:21 | 52.40605 | 8.74907 | 112° | 38km/h | 17227m | -17.1m/s | -53.3°C | 3.9% | 89.7hPa | 2.5V | 00:00:00 | 00:00:00 | 00:00:00 | |
| DL1NUX | 2026-09-03 05:44:20 | 52.40620 | 8.74812 | 101° | 44km/h | 17327m | -16.4m/s | -53.8°C | 4% | 88.3hPa | 2.5V | 08:21:09 | 02:12:45 | 00:00:00 | |
| DF8AY-15 | 2026-09-03 05:44:20 | 52.40608 | 8.74893 | 108° | 53km/h | 17243m | -16.7m/s | -53.3°C | 3.9% | 89.5hPa | 2.5V | 00:00:00 | 02:12:50 | 00:00:00 | |
| DO2SHX-10 | 2026-09-03 05:44:19 | 52.40610 | 8.74879 | 105° | 40km/h | 17260m | -16.6m/s | -53.4°C | 3.9% | 89.2hPa | 2.6V | 00:00:00 | 02:12:49 | 00:00:00 | |
| DL1XH1-15 | 2026-09-03 05:44:18 | 52.40625 | 8.74774 | 102° | 51km/h | 17360m | -16.7m/s | -53.7°C | 4% | 87.9hPa | 2.6V | 08:21:11 | 02:12:43 | 00:00:00 | |
| HSKMA3-T | 2026-09-03 05:44:18 | 52.40613 | 8.74864 | 104° | 38km/h | 17277m | -17.2m/s | -53.6°C | 0.5% | 89hPa | 2.6V | 08:21:18 | 02:12:48 | 00:00:00 | |
| DO2JMG | 2026-09-03 05:44:16 | 52.40618 | 8.74830 | 103° | 44km/h | 17311m | -16.3m/s | -53.7°C | 0.6% | 88.6hPa | 2.5V | 08:21:18 | 02:12:46 | 00:00:00 | |
| DJ2DS-15 | 2026-09-03 05:44:16 | 52.40618 | 8.74830 | 103° | 60km/h | 17311m | -16.3m/s | -53.7°C | 4.0% | 88.5hPa | 2.5V | 00:00:00 | 02:12:46 | 00:00:00 | |
| DF5WG-10 | 2026-09-03 05:44:15 | 52.40620 | 8.74812 | 102° | 57km/h | 17327m | -16.3m/s | -53.7°C | 4.0% | 88.3hPa | 2.5V | 00:00:00 | 02:12:45 | 00:00:00 | |
| DB0UT-7 | 2026-09-03 05:44:13 | 52.40625 | 8.74774 | 103° | 57km/h | 17360m | -16.7m/s | -53.6°C | 4.0% | 87.9hPa | 2.5V | 00:00:00 | 00:00:00 | 00:00:00 | |
| DM0DOS-11 | 2026-09-03 05:44:12 | 52.40636 | 8.74688 | 102° | 57km/h | 17427m | -16.9m/s | -53.5°C | 4% | 87hPa | 2.5V | 08:21:15 | 02:12:39 | 00:00:00 | |
| AA1-15 | 2026-09-03 05:44:12 | 52.40628 | 8.74753 | 101° | 51km/h | 17377m | -16.7m/s | -53.8°C | 0.6% | 87.7hPa | 2.6V | 08:21:18 | 02:12:42 | 00:00:00 | |
| DL1XH-west | 2026-09-03 05:44:11 | 52.40630 | 8.74732 | 102° | 53km/h | 17393m | -17.2m/s | -53.8°C | 0.6% | 87.4hPa | 2.6V | 08:21:18 | 02:12:41 | 00:00:00 | |
| GOEST3-10 | 2026-09-03 05:44:11 | 52.40630 | 8.74732 | 103° | 57km/h | 17394m | -17.1m/s | -53.8°C | 4.1% | 87.4hPa | 2.6V | 00:00:00 | 00:00:00 | 00:00:00 | |
| DL1NUX | 2026-09-03 05:44:10 | 52.40652 | 8.74594 | 107° | 62km/h | 17496m | -17.1m/s | 0°C | 0% | 0hPa | 2.6V | 08:30:00 | 02:12:35 | 00:00:00 | |
| DO2SHX-10 | 2026-09-03 05:44:09 | 52.40636 | 8.74688 | 103° | 57km/h | 17428m | -16.9m/s | -53.4°C | 4.0% | 86.9hPa | 2.5V | 00:00:00 | 02:12:39 | 00:00:00 | |
| DL1XH1-15 | 2026-09-03 05:44:08 | 52.40662 | 8.74544 | 112° | 66km/h | 17529m | -17m/s | -53.1°C | 3.8% | 85.6hPa | 2.5V | 08:21:21 | 02:12:33 | 00:00:00 | |
| HSKMA3-T | 2026-09-03 05:44:07 | 52.40643 | 8.74643 | 106° | 58km/h | 17461m | -17.2m/s | -53.1°C | 0.5% | 86.5hPa | 2.6V | 08:21:18 | 02:12:37 | 00:00:00 | |
| DO2JMG | 2026-09-03 05:44:05 | 52.40652 | 8.74594 | 107° | 62km/h | 17496m | -17.1m/s | -53.1°C | 0.5% | 86.1hPa | 2.6V | 08:22:09 | 02:12:35 | 00:00:00 | |
| DO3DL | 2026-09-03 05:44:04 | 52.40652 | 8.74594 | 108° | 62km/h | 17496m | -17.1m/s | -53.1°C | 1.2% | 86.1hPa | 2.5V | 08:22:00 | 00:00:00 | 00:00:00 | |
| DM0DOS-11 | 2026-09-03 05:44:03 | 52.40689 | 8.74441 | 116° | 68km/h | 17597m | -17m/s | -53.5°C | 4% | 84.7hPa | 2.5V | 08:21:25 | 02:12:29 | 00:00:00 | |
| DL1XH-west | 2026-09-03 05:44:01 | 52.40675 | 8.74492 | 114° | 69km/h | 17563m | -16.8m/s | -53.4°C | 0.5% | 85.2hPa | 2.6V | 08:22:09 | 02:12:31 | 00:00:00 | |
| GOEST3-10 | 2026-09-03 05:44:01 | 52.40675 | 8.74492 | 114° | 68km/h | 17563m | -16.8m/s | -53.4°C | 3.9% | 85.1hPa | 2.6V | 00:00:00 | 00:00:00 | 00:00:00 | |
| DL1NUX | 2026-09-03 05:44:00 | 52.40720 | 8.74348 | 120° | 58km/h | 17664m | -17.2m/s | 0°C | 0% | 0hPa | 2.5V | 08:30:00 | 02:12:25 | 00:00:00 | |
| HTAHTA | 2026-09-03 05:44:00 | 52.40689 | 8.74441 | 116° | 68km/h | 17597m | -17.0m/s | -53.5°C | 1.2% | 84.7hPa | 2.5V | 00:00:00 | 00:00:00 | 00:00:00 | |
| DD1CC3-15 | 2026-09-03 05:43:59 | 52.40682 | 8.74466 | 115° | 68km/h | 17580m | -16.9m/s | -53.5°C | 1.2% | 84.9hPa | 2.5V | 08:22:00 | 00:00:00 | 00:00:00 | |
| DL1XH1-15 | 2026-09-03 05:43:58 | 52.40734 | 8.74308 | 124° | 55km/h | 17699m | -17.5m/s | -53.1°C | 3.8% | 83.4hPa | 2.5V | 08:21:31 | 02:12:23 | 00:00:00 | |
| DL1XH-15 | 2026-09-03 05:43:57 | 52.40742 | 8.74290 | 127° | 51km/h | 17716m | -17.4m/s | -53°C | 3.8% | 83.2hPa | 2.6V | 08:21:32 | 02:12:22 | 00:00:00 | |
| HSKMA3-T | 2026-09-03 05:43:56 | 52.40712 | 8.74370 | 119° | 64km/h | 17648m | -17m/s | -53.1°C | 0.4% | 84hPa | 2.6V | 08:22:09 | 02:12:26 | 00:00:00 | |
| DO2JMG | 2026-09-03 05:43:54 | 52.40727 | 8.74327 | 121° | 57km/h | 17681m | -17.1m/s | -53.2°C | 0.4% | 83.5hPa | 2.5V | 08:22:09 | 02:12:24 | 00:00:00 | |
| BIOWL1-15 | 2026-09-03 05:43:52 | 52.40742 | 8.74290 | 127° | 51km/h | 17716m | -17.4m/s | -53°C | 0.4% | 83.2hPa | 2.6V | 08:22:09 | 02:12:22 | 00:00:00 | |
| AA1-15 | 2026-09-03 05:43:51 | 52.40750 | 8.74273 | 129° | 49km/h | 17733m | -17.5m/s | -52.9°C | 0.4% | 83hPa | 2.6V | 08:22:09 | 02:12:21 | 00:00:00 | |
| DL1XH-west | 2026-09-03 05:43:50 | 52.40758 | 8.74258 | 131° | 47km/h | 17751m | -17.7m/s | -53°C | 0.4% | 82.7hPa | 2.6V | 08:22:09 | 02:12:20 | 00:00:00 | |
| DL3AQ-11 | 2026-09-03 05:43:50 | 52.40765 | 8.74244 | 132° | 46km/h | 17769m | -17.6m/s | -53.0°C | 1.1% | 82.5hPa | 2.5V | 00:00:00 | 00:00:00 | 00:00:00 | |
| AU51GT2 | 2026-09-03 05:43:49 | 52.40773 | 8.74229 | 133° | 46km/h | 17786m | -17.6m/s | -53.1°C | 1.2% | 82.2hPa | 2.5V | 00:00:00 | 00:00:00 | 00:00:00 | |
| DL1XH1-15 | 2026-09-03 05:43:48 | 52.40808 | 8.74159 | 126° | 42km/h | 17873m | -17.8m/s | -53.1°C | 3.8% | 81.2hPa | 2.5V | 08:21:41 | 02:12:13 | 00:00:00 | |
| DF8AY | 2026-09-03 05:43:46 | 52.40789 | 8.74201 | 129° | 46km/h | 17820m | -17.4m/s | -53.1°C | 0.5% | 81.9hPa | 2.6V | 08:22:09 | 02:12:16 | 00:00:00 | |
| HSKMA3-T | 2026-09-03 05:43:45 | 52.40796 | 8.74186 | 127° | 42km/h | 17838m | -17.6m/s | -53°C | 0.4% | 81.7hPa | 2.6V | 08:22:09 | 02:12:15 | 00:00:00 | |
| DO2JMG | 2026-09-03 05:43:44 | 52.40802 | 8.74172 | 127° | 42km/h | 17855m | -17.4m/s | -53.1°C | 0.5% | 81.4hPa | 2.6V | 08:22:09 | 02:12:14 | 00:00:00 | |
| DB0UT-7 | 2026-09-03 05:43:43 | 52.40808 | 8.74158 | 127° | 47km/h | 17873m | -17.8m/s | -53.1°C | 3.8% | 81.1hPa | 2.6V | 00:00:00 | 02:12:13 | 00:00:00 | |
| DM0DOS-11 | 2026-09-03 05:43:42 | 52.40829 | 8.74103 | 116° | 38km/h | 17944m | -17.8m/s | -53.5°C | 4% | 80.3hPa | 2.6V | 08:21:45 | 02:12:09 | 00:00:00 | |
| BIOWL1-15 | 2026-09-03 05:43:42 | 52.40814 | 8.74145 | 124° | 40km/h | 17891m | -17.9m/s | -53.2°C | 0.4% | 80.9hPa | 2.5V | 08:22:09 | 02:12:12 | 00:00:00 | |
| DL4XJ-10 | 2026-09-03 05:43:42 | 52.40814 | 8.74145 | 125° | 46km/h | 17891m | -17.9m/s | -52.0°C | 0% | 0hPa | 2.6V | 00:00:00 | 00:00:00 | 00:00:00 | |
| SMARD9-15 | 2026-09-03 05:43:41 | 52.40825 | 8.74117 | 118° | 38km/h | 17926m | -17.9m/s | -53.4°C | 1.2% | 80.5hPa | 2.6V | 00:00:00 | 00:00:00 | 00:00:00 | |
| DL1NUX | 2026-09-03 05:43:40 | 52.40845 | 8.74041 | 115° | 42km/h | 18015m | -18m/s | 0°C | 0% | 0hPa | 2.6V | 08:30:00 | 02:12:05 | 00:00:00 | |
| DL1XH-west | 2026-09-03 05:43:40 | 52.40825 | 8.74117 | 119° | 38km/h | 17926m | -17.9m/s | -53.4°C | 0.5% | 80.5hPa | 2.6V | 08:22:09 | 02:12:10 | 00:00:00 | |
| DB0DAN | 2026-09-03 05:43:40 | 52.40825 | 8.74117 | 119° | 37km/h | 17926m | -17.9m/s | -53.4°C | 1.2% | 80.51hPa | 2.6V | 00:00:00 | 00:00:00 | 00:00:00 | |
| DF8AY-15 | 2026-09-03 05:43:40 | 52.40825 | 8.74117 | 119° | 46km/h | 17926m | -17.8m/s | -53.3°C | 3.9% | 80.5hPa | 2.5V | 00:00:00 | 02:12:10 | 00:00:00 | |
| DO2SHX-10 | 2026-09-03 05:43:39 | 52.40829 | 8.74103 | 117° | 40km/h | 17944m | -17.8m/s | -53.4°C | 4.0% | 80.3hPa | 2.5V | 00:00:00 | 02:12:09 | 00:00:00 | |
| DL1XH1-15 | 2026-09-03 05:43:38 | 52.40856 | 8.74008 | 116° | 47km/h | 18051m | -18m/s | -53.3°C | 3.9% | 79hPa | 2.5V | 08:21:51 | 02:12:03 | 00:00:00 | |
| SO1NDE-10 | 2026-09-03 05:43:38 | 52.40833 | 8.74088 | 113° | 33km/h | 17962m | -17.8m/s | 0°C | 0% | 0hPa | 2.5V | 00:00:00 | 02:12:08 | 00:00:00 | |
| DL1XH-15 | 2026-09-03 05:43:37 | 52.40861 | 8.73990 | 115° | 47km/h | 18069m | -17.6m/s | -53.2°C | 3.9% | 78.8hPa | 2.5V | 08:21:52 | 02:12:02 | 00:00:00 | |
| HSKMA3-T | 2026-09-03 05:43:35 | 52.40845 | 8.74041 | 116° | 42km/h | 18015m | -18m/s | -53.5°C | 0.6% | 79.4hPa | 2.6V | 08:22:09 | 02:12:05 | 00:00:00 | |
| DO2JMG | 2026-09-03 05:43:33 | 52.40856 | 8.74008 | 116° | 47km/h | 18051m | -18m/s | -53.3°C | 0.5% | 79hPa | 2.5V | 08:22:09 | 02:12:03 | 00:00:00 | |
| DO2SHX-10 | 2026-09-03 05:43:33 | 52.40856 | 8.74008 | 117° | 47km/h | 18051m | -17.9m/s | -53.3°C | 3.9% | 78.9hPa | 2.6V | 00:00:00 | 02:12:03 | 00:00:00 | |
| DM0DOS-11 | 2026-09-03 05:43:32 | 52.40876 | 8.73937 | 116° | 49km/h | 18122m | -18.3m/s | -53.4°C | 4% | 78hPa | 2.6V | 08:21:55 | 02:11:59 | 00:00:00 | |
| BIOWL1-15 | 2026-09-03 05:43:31 | 52.40891 | 8.73881 | 114° | 49km/h | 18176m | -18.7m/s | -53.3°C | 0.5% | 77.4hPa | 2.5V | 08:22:09 | 02:11:56 | 00:00:00 | |
| DL1XH-west | 2026-09-03 05:43:30 | 52.40876 | 8.73937 | 117° | 49km/h | 18122m | -18.3m/s | -53.4°C | 0.5% | 78hPa | 2.6V | 08:22:09 | 02:11:59 | 00:00:00 | |
| DO2SHX-10 | 2026-09-03 05:43:30 | 52.40871 | 8.73955 | 116° | 49km/h | 18105m | -17.9m/s | -53.3°C | 4.0% | 78.3hPa | 2.5V | 00:00:00 | 02:12:00 | 00:00:00 | |
| HTAHTA | 2026-09-03 05:43:29 | 52.40882 | 8.73918 | 113° | 49km/h | 18140m | -17.9m/s | -53.5°C | 1.2% | 77.8hPa | 2.5V | 00:00:00 | 00:00:00 | 00:00:00 | |
| DL1XH-15 | 2026-09-03 05:43:28 | 52.40910 | 8.73804 | 110° | 53km/h | 18250m | -18.1m/s | -53.1°C | 4% | 76.6hPa | 2.5V | 08:22:02 | 02:11:52 | 00:00:00 | |
| DF8AY | 2026-09-03 05:43:25 | 52.40896 | 8.73862 | 111° | 51km/h | 18195m | -18.2m/s | -53.2°C | 0.5% | 77.2hPa | 2.6V | 08:22:09 | 02:11:55 | 00:00:00 | |
| HSKMA3-T | 2026-09-03 05:43:24 | 52.40901 | 8.73842 | 110° | 49km/h | 18213m | -18.3m/s | -53.2°C | 0.5% | 77hPa | 2.6V | 08:22:09 | 02:11:54 | 00:00:00 | |
| DO2JMG | 2026-09-03 05:43:22 | 52.40910 | 8.73804 | 110° | 53km/h | 18250m | -18.1m/s | -53.1°C | 0.6% | 76.6hPa | 2.5V | 08:22:09 | 02:11:52 | 00:00:00 | |
| BIOWL1-15 | 2026-09-03 05:43:21 | 52.40914 | 8.73784 | 111° | 49km/h | 18268m | -18.2m/s | -52.9°C | 0.5% | 76.3hPa | 2.5V | 08:22:09 | 02:11:51 | 00:00:00 | |
| DL1XH-west | 2026-09-03 05:43:18 | 52.40931 | 8.73725 | 117° | 53km/h | 18323m | -18.7m/s | -52.7°C | 0.5% | 75.7hPa | 2.6V | 08:22:09 | 02:11:48 | 00:00:00 | |
| HSKMA3-T | 2026-09-03 05:43:14 | 52.40957 | 8.73650 | 126° | 53km/h | 18397m | -18.7m/s | -52.4°C | 0.4% | 74.9hPa | 2.5V | 08:23:00 | 02:11:44 | 00:00:00 | |
| DB0UT-7 | 2026-09-03 05:43:13 | 52.40965 | 8.73632 | 125° | 42km/h | 18415m | -18.4m/s | -52.4°C | 3.7% | 74.6hPa | 2.6V | 00:00:00 | 00:00:00 | 00:00:00 | |
| DM0DOS-11 | 2026-09-03 05:43:12 | 52.40993 | 8.73570 | 125° | 44km/h | 18489m | -18.3m/s | -52.3°C | 3.7% | 73.8hPa | 2.6V | 08:22:15 | 02:11:39 | 00:00:00 | |
| DO2JMG | 2026-09-03 05:43:11 | 52.40980 | 8.73600 | 128° | 49km/h | 18452m | -18.5m/s | -52.3°C | 0.3% | 74.3hPa | 2.5V | 08:23:00 | 02:11:41 | 00:00:00 | |
| BIOWL1-15 | 2026-09-03 05:43:10 | 52.40987 | 8.73585 | 129° | 44km/h | 18471m | -18.3m/s | -52.3°C | 0.4% | 74hPa | 2.5V | 08:23:00 | 02:11:40 | 00:00:00 | |
| DL3AQ-11 | 2026-09-03 05:43:10 | 52.40993 | 8.73570 | 125° | 44km/h | 18489m | -18.3m/s | -52.3°C | 1.1% | 73.8hPa | 2.6V | 00:00:00 | 00:00:00 | 00:00:00 | |
| DO2SHX-10 | 2026-09-03 05:43:09 | 52.40993 | 8.73570 | 126° | 40km/h | 18489m | -18.2m/s | -52.3°C | 3.7% | 73.8hPa | 2.6V | 00:00:00 | 02:11:39 | 00:00:00 | |
| DL1XH1-15 | 2026-09-03 05:43:08 | 52.41028 | 8.73492 | 126° | 35km/h | 18600m | -18.6m/s | -52.2°C | 3.7% | 72.5hPa | 2.6V | 08:22:21 | 02:11:33 | 00:00:00 | |
| AA1-15 | 2026-09-03 05:43:08 | 52.41000 | 8.73556 | 129° | 42km/h | 18507m | -18.5m/s | -52.3°C | 0.4% | 73.6hPa | 2.6V | 08:23:00 | 02:11:38 | 00:00:00 | |
| DL1XH-west | 2026-09-03 05:43:07 | 52.41006 | 8.73543 | 125° | 38km/h | 18526m | -18.3m/s | -52.4°C | 0.4% | 73.4hPa | 2.5V | 08:23:00 | 02:11:37 | 00:00:00 | |
| HSKMA3-T | 2026-09-03 05:43:04 | 52.41022 | 8.73504 | 128° | 37km/h | 18581m | -18.6m/s | -52.4°C | 0.4% | 72.7hPa | 2.6V | 08:23:00 | 02:11:34 | 00:00:00 | |
| DF8AY | 2026-09-03 05:43:03 | 52.41028 | 8.73492 | 126° | 35km/h | 18600m | -18.6m/s | -52.2°C | 0.3% | 72.5hPa | 2.6V | 08:23:00 | 02:11:33 | 00:00:00 | |
| DO2JMG | 2026-09-03 05:43:01 | 52.41038 | 8.73467 | 122° | 38km/h | 18638m | -18.4m/s | -52°C | 0.3% | 72.1hPa | 2.5V | 08:23:00 | 02:11:31 | 00:00:00 | |
| BIOWL1-15 | 2026-09-03 05:43:00 | 52.41043 | 8.73454 | 122° | 40km/h | 18656m | -18.5m/s | -52°C | 0.3% | 71.9hPa | 2.5V | 08:23:00 | 02:11:30 | 00:00:00 | |
| BUE01 | 2026-09-03 05:42:59 | 52.41049 | 8.73439 | 122° | 42km/h | 18674m | -19.2m/s | -52.1°C | 1.0% | 71.7hPa | 2.5V | 00:00:00 | 00:00:00 | 00:00:00 | |
| DL1XH1-15 | 2026-09-03 05:42:58 | 52.41088 | 8.73350 | 129° | 46km/h | 18789m | -19.1m/s | -52.6°C | 3.8% | 70.4hPa | 2.5V | 08:22:31 | 02:11:23 | 00:00:00 | |
| HTAHTA | 2026-09-03 05:42:58 | 52.41061 | 8.73410 | 126° | 42km/h | 18713m | -19.2m/s | -52.3°C | 1.1% | 71.3hPa | 2.6V | 00:00:00 | 00:00:00 | 00:00:00 | |
| DL1XH-15 | 2026-09-03 05:42:57 | 52.41095 | 8.73336 | 127° | 44km/h | 18808m | -18.8m/s | -52.6°C | 3.8% | 70.2hPa | 2.6V | 08:22:32 | 02:11:22 | 00:00:00 | |
| AA1-15 | 2026-09-03 05:42:57 | 52.41061 | 8.73410 | 127° | 44km/h | 18713m | -19.2m/s | -52.3°C | 0.4% | 71.3hPa | 2.6V | 08:23:00 | 02:11:27 | 00:00:00 | |
| DL1XH-west | 2026-09-03 05:42:56 | 52.41068 | 8.73395 | 126° | 42km/h | 18732m | -18.8m/s | -52.3°C | 0.4% | 71.1hPa | 2.6V | 08:23:00 | 02:11:26 | 00:00:00 | |
| DB0DAN | 2026-09-03 05:42:55 | 52.41074 | 8.73381 | 124° | 42km/h | 18750m | -18.8m/s | -52.4°C | 1.1% | 70.83hPa | 2.5V | 00:00:00 | 00:00:00 | 00:00:00 | |
| HSKMA3-T | 2026-09-03 05:42:54 | 52.41081 | 8.73365 | 126° | 47km/h | 18769m | -19.3m/s | -52.5°C | 0.4% | 70.7hPa | 2.5V | 08:23:00 | 02:11:24 | 00:00:00 | |
| DF8AY | 2026-09-03 05:42:52 | 52.41095 | 8.73336 | 128° | 44km/h | 18808m | -18.8m/s | -52.6°C | 0.5% | 70.2hPa | 2.6V | 08:23:00 | 02:11:22 | 00:00:00 | |
| DD8BA-10 | 2026-09-03 05:42:52 | 52.41095 | 8.73336 | 128° | 42km/h | 18808m | -18.7m/s | -52.6°C | 3.8% | 70.2hPa | 2.6V | 00:00:00 | 00:00:00 | 00:00:00 | |
| GOEST3-10 | 2026-09-03 05:42:51 | 52.41102 | 8.73322 | 134° | 42km/h | 18827m | -18.8m/s | -52.6°C | 3.8% | 70.0hPa | 2.5V | 00:00:00 | 00:00:00 | 00:00:00 | |
| DM0DOS-11 | 2026-09-03 05:42:50 | 52.41117 | 8.73298 | 135° | 42km/h | 18865m | -19m/s | -52.4°C | 3.8% | 69.6hPa | 2.5V | 08:22:35 | 02:11:19 | 00:00:00 | |
| DO2JMG | 2026-09-03 05:42:50 | 52.41110 | 8.73309 | 136° | 40km/h | 18846m | -19.3m/s | -52.6°C | 0.4% | 69.8hPa | 2.6V | 08:23:00 | 02:11:20 | 00:00:00 | |
| BIOWL1-15 | 2026-09-03 05:42:49 | 52.41117 | 8.73298 | 136° | 42km/h | 18865m | -19m/s | -52.4°C | 0.5% | 69.6hPa | 2.5V | 08:23:00 | 02:11:19 | 00:00:00 | |
| BIOWL9-15 | 2026-09-03 05:42:48 | 52.41125 | 8.73286 | 141° | 42km/h | 18884m | -19.2m/s | -52.3°C | 1.1% | 69.4hPa | 2.6V | 00:00:00 | 00:00:00 | 00:00:00 | |
| DL1XH-15 | 2026-09-03 05:42:47 | 52.41171 | 8.73220 | 128° | 40km/h | 19000m | -19.3m/s | -52.5°C | 3.8% | 68.2hPa | 2.6V | 08:22:42 | 02:11:12 | 00:00:00 | |
| AA1-15 | 2026-09-03 05:42:46 | 52.41141 | 8.73266 | 139° | 40km/h | 18923m | -19m/s | -52°C | 0.4% | 69hPa | 2.6V | 08:23:00 | 02:11:16 | 00:00:00 | |
| DL1XH-west | 2026-09-03 05:42:45 | 52.41149 | 8.73255 | 140° | 42km/h | 18942m | -19.2m/s | -52.1°C | 0.4% | 68.8hPa | 2.6V | 08:23:00 | 02:11:15 | 00:00:00 | |
| DD1CC8 | 2026-09-03 05:42:44 | 52.41157 | 8.73244 | 139° | 40km/h | 18961m | -19.7m/s | -52.3°C | 1.1% | 68.6hPa | 2.5V | 00:00:00 | 00:00:00 | 00:00:00 | |
| HSKMA3-T | 2026-09-03 05:42:43 | 52.41164 | 8.73232 | 136° | 40km/h | 18981m | -19.4m/s | -52.4°C | 0.4% | 68.4hPa | 2.5V | 08:23:00 | 02:11:13 | 00:00:00 | |
| DF8AY | 2026-09-03 05:42:42 | 52.41171 | 8.73220 | 129° | 40km/h | 19000m | -19.3m/s | -52.5°C | 0.5% | 68.2hPa | 2.6V | 08:23:00 | 02:11:12 | 00:00:00 | |
| BIOWL1-15 | 2026-09-03 05:42:40 | 52.41194 | 8.73167 | 120° | 37km/h | 19077m | -19.2m/s | -52.6°C | 0.6% | 67.4hPa | 2.6V | 08:23:00 | 02:11:08 | 00:00:00 | |
| DO2JMG | 2026-09-03 05:42:39 | 52.41189 | 8.73180 | 123° | 38km/h | 19058m | -19.1m/s | -52.6°C | 0.5% | 67.6hPa | 2.5V | 08:23:00 | 02:11:09 | 00:00:00 | |
| DL1XH1-15 | 2026-09-03 05:42:38 | 52.41220 | 8.73094 | 125° | 44km/h | 19175m | -19.7m/s | -52.8°C | 4% | 66.4hPa | 2.6V | 08:22:51 | 02:11:03 | 00:00:00 | |
| AA1-15 | 2026-09-03 05:42:35 | 52.41209 | 8.73124 | 119° | 42km/h | 19135m | -19.7m/s | -52.6°C | 0.6% | 66.8hPa | 2.5V | 08:23:00 | 02:11:05 | 00:00:00 | |
| DL1XH-west | 2026-09-03 05:42:34 | 52.41214 | 8.73109 | 123° | 44km/h | 19155m | -19.8m/s | -52.7°C | 0.5% | 66.6hPa | 2.5V | 08:23:00 | 02:11:04 | 00:00:00 | |
| HSKMA3-T | 2026-09-03 05:42:32 | 52.41226 | 8.73079 | 127° | 42km/h | 19194m | -19.6m/s | -52.8°C | 0.6% | 66.1hPa | 2.6V | 08:23:00 | 02:11:02 | 00:00:00 | |
| DF8AY | 2026-09-03 05:42:31 | 52.41233 | 8.73065 | 127° | 42km/h | 19214m | -19.3m/s | -52.9°C | 0.6% | 66hPa | 2.6V | 08:23:00 | 02:11:01 | 00:00:00 | |
| DO2JMG | 2026-09-03 05:42:29 | 52.41245 | 8.73038 | 125° | 40km/h | 19253m | -19.6m/s | -52.7°C | 0.6% | 65.6hPa | 2.5V | 08:23:00 | 02:10:59 | 00:00:00 | |
| DL1XH1-15 | 2026-09-03 05:42:28 | 52.41278 | 8.72971 | 137° | 29km/h | 19372m | -20.4m/s | -51.2°C | 3.6% | 64.3hPa | 2.5V | 08:23:01 | 02:10:53 | 00:00:00 | |
| BIOWL1-15 | 2026-09-03 05:42:27 | 52.41256 | 8.73013 | 126° | 37km/h | 19292m | -19.8m/s | -52.1°C | 0.5% | 65.1hPa | 2.6V | 08:23:00 | 02:10:57 | 00:00:00 | |
| AA1-15 | 2026-09-03 05:42:25 | 52.41267 | 8.72990 | 132° | 35km/h | 19332m | -20.3m/s | -51.5°C | 0.4% | 64.8hPa | 2.6V | 08:23:00 | 02:10:55 | 00:00:00 | |
| DL1XH-west | 2026-09-03 05:42:23 | 52.41278 | 8.72971 | 138° | 29km/h | 19372m | -20.4m/s | -51.2°C | 0.4% | 64.3hPa | 2.5V | 08:23:51 | 02:10:53 | 00:00:00 | |
| HSKMA3-T | 2026-09-03 05:42:22 | 52.41283 | 8.72963 | 141° | 27km/h | 19393m | -20.2m/s | -51.1°C | 0.3% | 64.2hPa | 2.5V | 08:23:51 | 02:10:52 | 00:00:00 | |
| DF8AY | 2026-09-03 05:42:21 | 52.41288 | 8.72956 | 145° | 24km/h | 19413m | -20.3m/s | -51°C | 0.2% | 63.9hPa | 2.6V | 08:23:51 | 02:10:51 | 00:00:00 | |
| DJ8HS-15 | 2026-09-03 05:42:21 | 52.41288 | 8.72956 | 146° | 22km/h | 19414m | -20.2m/s | -50.9°C | 3.4% | 63.9hPa | 2.6V | 00:00:00 | 02:10:51 | 00:00:00 | |
| DM0DOS-11 | 2026-09-03 05:42:20 | 52.41298 | 8.72945 | 148° | 22km/h | 19454m | -20.1m/s | -50.7°C | 3.4% | 63.5hPa | 2.6V | 08:23:05 | 02:10:49 | 00:00:00 | |
| DO2JMG | 2026-09-03 05:42:18 | 52.41303 | 8.72939 | 148° | 22km/h | 19475m | -20.1m/s | -50.6°C | 0.2% | 63.4hPa | 2.5V | 08:23:51 | 02:10:48 | 00:00:00 | |
| BIOWL1-15 | 2026-09-03 05:42:16 | 52.41311 | 8.72929 | 141° | 20km/h | 19516m | -20.6m/s | -50.7°C | 0.1% | 63hPa | 2.5V | 08:23:51 | 02:10:46 | 00:00:00 | |
| DF8AY | 2026-09-03 05:42:16 | 52.41334 | 8.72885 | 131° | 26km/h | 19637m | -20.3m/s | -51.5°C | 0.2% | 61.8hPa | 2.5V | 08:23:51 | 02:10:40 | 00:00:00 | |
| AA1-15 | 2026-09-03 05:42:16 | 52.41315 | 8.72923 | 137° | 20km/h | 19536m | -20.5m/s | -50.9°C | 0.2% | 62.7hPa | 2.6V | 08:23:51 | 02:10:45 | 00:00:00 | |
| DL1XH-west | 2026-09-03 05:42:13 | 52.41323 | 8.72910 | 127° | 24km/h | 19577m | -19.8m/s | -51.2°C | 0.2% | 62.4hPa | 2.6V | 08:23:51 | 02:10:43 | 00:00:00 | |
| HSKMA3-T | 2026-09-03 05:42:12 | 52.41326 | 8.72902 | 124° | 24km/h | 19597m | -20.2m/s | -51.3°C | 0.2% | 62.2hPa | 2.5V | 08:23:51 | 02:10:42 | 00:00:00 | |
| DD8BA-10 | 2026-09-03 05:42:12 | 52.41326 | 8.72902 | 125° | 22km/h | 19597m | -20.1m/s | -51.2°C | 3.4% | 62.1hPa | 2.6V | 00:00:00 | 00:00:00 | 00:00:00 | |
| DB0NH | 2026-09-03 05:42:11 | 52.41330 | 8.72893 | 125° | 20km/h | 19617m | -20.2m/s | -51.3°C | 3.4% | 61.9hPa | 2.6V | 00:00:00 | 02:10:41 | 00:00:00 | |
| DM0DOS-11 | 2026-09-03 05:42:10 | 52.41338 | 8.72877 | 131° | 24km/h | 19657m | -20.5m/s | -51.6°C | 3.5% | 61.6hPa | 2.6V | 08:23:15 | 02:10:39 | 00:00:00 | |
| DB0DAN | 2026-09-03 05:42:10 | 52.41334 | 8.72885 | 130° | 24km/h | 19637m | -20.3m/s | -51.5°C | 1% | 61.8hPa | 2.5V | 00:00:00 | 00:00:00 | 00:00:00 | |
| DO2JMG | 2026-09-03 05:42:08 | 52.41342 | 8.72870 | 130° | 22km/h | 19678m | -20.9m/s | -51.8°C | 0.3% | 61.4hPa | 2.6V | 08:23:51 | 02:10:38 | 00:00:00 | |
| DL1XH-15 | 2026-09-03 05:42:07 | 52.41365 | 8.72834 | 144° | 24km/h | 19801m | -20.6m/s | -52°C | 3.5% | 60.2hPa | 2.5V | 08:23:22 | 02:10:32 | 00:00:00 | |
| BIOWL1-15 | 2026-09-03 05:42:06 | 52.41349 | 8.72857 | 132° | 20km/h | 19719m | -20.4m/s | -52°C | 0.3% | 61hPa | 2.5V | 08:23:51 | 02:10:36 | 00:00:00 | |
| AA1-15 | 2026-09-03 05:42:04 | 52.41356 | 8.72845 | 137° | 20km/h | 19760m | -20.4m/s | -51.9°C | 0.3% | 60.6hPa | 2.6V | 08:23:51 | 02:10:34 | 00:00:00 | |
| DL1XH-west | 2026-09-03 05:42:02 | 52.41365 | 8.72834 | 144° | 24km/h | 19801m | -20.7m/s | -52°C | 0.3% | 60.2hPa | 2.5V | 08:23:51 | 02:10:32 | 00:00:00 | |
| HSKMA3-T | 2026-09-03 05:42:01 | 52.41370 | 8.72829 | 147° | 26km/h | 19821m | -20.6m/s | -52°C | 0.3% | 60.1hPa | 2.6V | 08:23:51 | 02:10:31 | 00:00:00 | |
| DF8AY | 2026-09-03 05:42:00 | 52.41376 | 8.72823 | 149° | 27km/h | 19842m | -20.9m/s | -52.1°C | 0.3% | 59.9hPa | 2.6V | 08:23:51 | 02:10:30 | 00:00:00 | |
| DF8AY-15 | 2026-09-03 05:42:00 | 52.41375 | 8.72823 | 149° | 18km/h | 19842m | -20.8m/s | -52.1°C | 3.5% | 59.8hPa | 2.5V | 00:00:00 | 02:10:30 | 00:00:00 | |
| DL1XH1-15 | 2026-09-03 05:41:58 | 52.41417 | 8.72796 | 161° | 16km/h | 19989m | -21m/s | -52.6°C | 3.7% | 58.5hPa | 2.5V | 08:23:31 | 02:10:23 | 00:00:00 | |
| DO2JMG | 2026-09-03 05:41:57 | 52.41395 | 8.72807 | 159° | 27km/h | 19905m | -21.3m/s | -52.2°C | 0.3% | 59.2hPa | 2.6V | 08:23:51 | 02:10:27 | 00:00:00 | |
| BIOWL1-15 | 2026-09-03 05:41:56 | 52.41401 | 8.72803 | 162° | 26km/h | 19926m | -21m/s | -52.3°C | 0.3% | 59.1hPa | 2.6V | 08:23:51 | 02:10:26 | 00:00:00 | |
| AA1-15 | 2026-09-03 05:41:54 | 52.41412 | 8.72798 | 164° | 20km/h | 19968m | -21m/s | -52.6°C | 0.4% | 58.7hPa | 2.5V | 08:23:51 | 02:10:24 | 00:00:00 | |
| DL1XH-west | 2026-09-03 05:41:52 | 52.41420 | 8.72794 | 154° | 15km/h | 20010m | -21.3m/s | -52.6°C | 0.4% | 58.3hPa | 2.6V | 08:23:51 | 02:10:22 | 00:00:00 | |
| HSKMA3-T | 2026-09-03 05:41:51 | 52.41423 | 8.72791 | 145° | 13km/h | 20031m | -20.8m/s | -52.5°C | 0.4% | 58.1hPa | 2.6V | 08:23:51 | 02:10:21 | 00:00:00 | |
| DM0DOS-11 | 2026-09-03 05:41:50 | 52.41427 | 8.72785 | 135° | 11km/h | 20072m | -21.4m/s | -52.7°C | 3.7% | 57.8hPa | 2.5V | 08:23:35 | 02:10:19 | 00:00:00 | |
| DF8AY | 2026-09-03 05:41:49 | 52.41427 | 8.72785 | 135° | 11km/h | 20072m | -21.5m/s | -52.7°C | 0.4% | 57.8hPa | 2.5V | 08:23:51 | 02:10:19 | 00:00:00 | |
| DL1XH1-15 | 2026-09-03 05:41:48 | 52.41436 | 8.72759 | 113° | 15km/h | 20199m | -22m/s | -53.5°C | 4.1% | 56.6hPa | 2.5V | 08:23:41 | 02:10:13 | 00:00:00 | |
| DL1XH-15 | 2026-09-03 05:41:47 | 52.41437 | 8.72753 | 109° | 15km/h | 20221m | -21.5m/s | -53.7°C | 4.1% | 56.5hPa | 2.5V | 08:23:42 | 02:10:12 | 00:00:00 | |
| DO2JMG | 2026-09-03 05:41:47 | 52.41430 | 8.72779 | 118° | 11km/h | 20114m | -21.2m/s | -52.9°C | 0.5% | 57.4hPa | 2.5V | 08:23:51 | 02:10:17 | 00:00:00 | |
| BIOWL1-15 | 2026-09-03 05:41:47 | 52.41433 | 8.72770 | 121° | 13km/h | 20156m | -21.4m/s | -53.3°C | 0.5% | 57hPa | 2.6V | 08:23:51 | 02:10:15 | 00:00:00 | |
| DJ2DS-15 | 2026-09-03 05:41:46 | 52.41431 | 8.72775 | 119° | 11km/h | 20135m | -21.2m/s | -53.1°C | 1.1% | 57.1hPa | 2.5V | 00:00:00 | 00:00:00 | 00:00:00 | |
| AU51GT2 | 2026-09-03 05:41:45 | 52.41434 | 8.72765 | 118° | 13km/h | 20178m | -21.8m/s | -53.4°C | 1.2% | 56.8hPa | 2.5V | 00:00:00 | 00:00:00 | 00:00:00 | |
| AA1-15 | 2026-09-03 05:41:43 | 52.41435 | 8.72759 | 113° | 15km/h | 20199m | -22m/s | -53.6°C | 0.6% | 56.6hPa | 2.5V | 08:23:51 | 02:10:13 | 00:00:00 | |
| DL1XH-west | 2026-09-03 05:41:41 | 52.41438 | 8.72747 | 109° | 16km/h | 20242m | -21.7m/s | -53.7°C | 0.6% | 56.2hPa | 2.5V | 08:23:51 | 02:10:11 | 00:00:00 | |
| DB0NH | 2026-09-03 05:41:41 | 52.41438 | 8.72747 | 109° | 22km/h | 20243m | -21.6m/s | -53.7°C | 4.1% | 56.2hPa | 2.5V | 00:00:00 | 02:10:11 | 00:00:00 | |
| DM0DOS-11 | 2026-09-03 05:41:40 | 52.41441 | 8.72733 | 103° | 16km/h | 20285m | -21.8m/s | -53.7°C | 4.1% | 55.9hPa | 2.6V | 08:23:45 | 02:10:09 | 00:00:00 | |
| HSKMA3-T | 2026-09-03 05:41:40 | 52.41439 | 8.72740 | 108° | 16km/h | 20264m | -21.1m/s | -53.8°C | 0.7% | 56.1hPa | 2.6V | 08:23:51 | 02:10:10 | 00:00:00 | |
| DF8AY | 2026-09-03 05:41:39 | 52.41440 | 8.72733 | 103° | 16km/h | 20285m | -21.8m/s | -53.7°C | 0.7% | 55.9hPa | 2.6V | 08:23:51 | 02:10:09 | 00:00:00 | |
| BIOWL1-15 | 2026-09-03 05:41:39 | 52.41442 | 8.72701 | 92° | 22km/h | 20372m | -21.2m/s | -53.3°C | 0.5% | 55.2hPa | 2.5V | 08:23:51 | 02:10:05 | 00:00:00 | |
| DL1XH1-15 | 2026-09-03 05:41:38 | 52.41444 | 8.72682 | 96° | 26km/h | 20415m | -21.4m/s | -53.1°C | 4% | 54.8hPa | 2.6V | 08:23:51 | 02:10:03 | 00:00:00 | |
| DL1XH-15 | 2026-09-03 05:41:37 | 52.41445 | 8.72671 | 100° | 27km/h | 20436m | -21.5m/s | -53°C | 3.9% | 54.5hPa | 2.6V | 08:23:52 | 02:10:02 | 00:00:00 | |
| DO2JMG | 2026-09-03 05:41:36 | 52.41442 | 8.72710 | 91° | 20km/h | 20350m | -21.3m/s | -53.3°C | 0.6% | 55.3hPa | 2.5V | 08:23:51 | 02:10:06 | 00:00:00 | |
| AA1-15 | 2026-09-03 05:41:32 | 52.41445 | 8.72671 | 100° | 27km/h | 20436m | -21.5m/s | -53°C | 0.5% | 54.6hPa | 2.6V | 08:24:42 | 02:10:02 | 00:00:00 | |
| DL1XH-west | 2026-09-03 05:41:30 | 52.41449 | 8.72648 | 112° | 31km/h | 20479m | -21.7m/s | -52.6°C | 0.4% | 54.2hPa | 2.5V | 08:24:42 | 02:10:00 | 00:00:00 | |
| HSKMA3-T | 2026-09-03 05:41:29 | 52.41452 | 8.72636 | 117° | 33km/h | 20501m | -21.9m/s | -52.6°C | 0.4% | 54hPa | 2.5V | 08:24:42 | 02:09:59 | 00:00:00 | |
| DF8AY | 2026-09-03 05:41:28 | 52.41456 | 8.72625 | 122° | 33km/h | 20523m | -22.3m/s | -52.7°C | 0.4% | 53.9hPa | 2.6V | 08:24:42 | 02:09:58 | 00:00:00 | |
| DL1XH-15 | 2026-09-03 05:41:27 | 52.41483 | 8.72576 | 135° | 18km/h | 20655m | -21.5m/s | -52.6°C | 3.8% | 52.8hPa | 2.6V | 08:24:02 | 02:09:52 | 00:00:00 | |
| DO2JMG | 2026-09-03 05:41:25 | 52.41470 | 8.72595 | 134° | 26km/h | 20591m | -21.3m/s | -52.8°C | 0.5% | 53.2hPa | 2.5V | 08:24:42 | 02:09:55 | 00:00:00 | |
| BIOWL1-15 | 2026-09-03 05:41:24 | 52.41475 | 8.72587 | 137° | 24km/h | 20612m | -21.7m/s | -52.8°C | 0.5% | 53.1hPa | 2.5V | 08:24:42 | 02:09:54 | 00:00:00 | |
| AA1-15 | 2026-09-03 05:41:21 | 52.41486 | 8.72570 | 127° | 16km/h | 20677m | -22.2m/s | -52.7°C | 0.5% | 52.6hPa | 2.6V | 08:24:42 | 02:09:51 | 00:00:00 | |
| DL1XH-west | 2026-09-03 05:41:20 | 52.41488 | 8.72565 | 116° | 15km/h | 20699m | -22.1m/s | -52.7°C | 0.5% | 52.4hPa | 2.6V | 08:24:42 | 02:09:50 | 00:00:00 | |
| HSKMA3-T | 2026-09-03 05:41:19 | 52.41489 | 8.72560 | 103° | 13km/h | 20721m | -22m/s | -52.8°C | 0.5% | 52.2hPa | 2.5V | 08:24:42 | 02:09:49 | 00:00:00 | |
| DF8AY | 2026-09-03 05:41:18 | 52.41490 | 8.72554 | 93° | 16km/h | 20743m | -21.7m/s | -52.9°C | 0.6% | 52hPa | 2.5V | 08:24:42 | 02:09:48 | 00:00:00 | |
| DL1XH-15 | 2026-09-03 05:41:17 | 52.41485 | 8.72506 | 86° | 20km/h | 20876m | -23m/s | -52.8°C | 3.9% | 51hPa | 2.5V | 08:24:12 | 02:09:42 | 00:00:00 | |
| DO2JMG | 2026-09-03 05:41:14 | 52.41487 | 8.72523 | 79° | 22km/h | 20831m | -22.5m/s | -53°C | 0.5% | 51.4hPa | 2.6V | 08:24:42 | 02:09:44 | 00:00:00 | |
| BIOWL1-15 | 2026-09-03 05:41:13 | 52.41486 | 8.72515 | 81° | 22km/h | 20853m | -22.6m/s | -52.9°C | 0.6% | 51.2hPa | 2.5V | 08:24:42 | 02:09:43 | 00:00:00 | |
| DB0UT-7 | 2026-09-03 05:41:13 | 52.41486 | 8.72514 | 82° | 15km/h | 20853m | -22.5m/s | -52.8°C | 3.9% | 51.1hPa | 2.6V | 00:00:00 | 00:00:00 | 00:00:00 | |
| DD8BA-10 | 2026-09-03 05:41:12 | 52.41485 | 8.72506 | 87° | 15km/h | 20876m | -22.9m/s | -52.8°C | 3.9% | 50.9hPa | 2.6V | 00:00:00 | 00:00:00 | 00:00:00 | |
| DB0NH | 2026-09-03 05:41:11 | 52.41485 | 8.72497 | 92° | 13km/h | 20899m | -22.8m/s | -52.8°C | 3.9% | 50.7hPa | 2.6V | 00:00:00 | 02:09:41 | 00:00:00 | |
| DM0DOS-11 | 2026-09-03 05:41:10 | 52.41486 | 8.72482 | 99° | 16km/h | 20945m | -22.2m/s | -52.6°C | 3.8% | 50.4hPa | 2.6V | 08:24:15 | 02:09:39 | 00:00:00 | |
| AA1-15 | 2026-09-03 05:41:10 | 52.41486 | 8.72490 | 96° | 16km/h | 20922m | -22.4m/s | -52.7°C | 0.5% | 50.6hPa | 2.6V | 08:24:42 | 02:09:40 | 00:00:00 | |
| GOEST3-10 | 2026-09-03 05:41:10 | 52.41486 | 8.72490 | 96° | 15km/h | 20922m | -22.3m/s | -52.7°C | 3.9% | 50.6hPa | 2.6V | 00:00:00 | 00:00:00 | 00:00:00 | |
| DL3AQ-11 | 2026-09-03 05:41:09 | 52.41486 | 8.72482 | 99° | 15km/h | 20945m | -22.2m/s | -52.6°C | 1.1% | 50.4hPa | 2.6V | 00:00:00 | 00:00:00 | 00:00:00 | |
| DL1XH1-15 | 2026-09-03 05:41:08 | 52.41491 | 8.72450 | 91° | 9km/h | 21083m | -22.7m/s | -52°C | 3.6% | 49.4hPa | 2.6V | 08:24:21 | 02:09:33 | 00:00:00 | |
| HSKMA3-T | 2026-09-03 05:41:08 | 52.41487 | 8.72476 | 104° | 15km/h | 20968m | -22.7m/s | -52.6°C | 0.5% | 50.3hPa | 2.6V | 08:24:42 | 02:09:38 | 00:00:00 | |
| DF8AY | 2026-09-03 05:41:07 | 52.41488 | 8.72469 | 108° | 15km/h | 20992m | -22.2m/s | -52.5°C | 0.5% | 50.1hPa | 2.5V | 08:24:42 | 02:09:37 | 00:00:00 | |
| DO2JMG | 2026-09-03 05:41:03 | 52.41491 | 8.72450 | 92° | 9km/h | 21083m | -22.7m/s | -52°C | 0.3% | 49.4hPa | 2.6V | 08:24:42 | 02:09:33 | 00:00:00 | |
| BIOWL1-15 | 2026-09-03 05:41:02 | 52.41492 | 8.72447 | 85° | 9km/h | 21106m | -22.5m/s | -51.9°C | 0.3% | 49.2hPa | 2.6V | 08:24:42 | 02:09:32 | 00:00:00 | |
| AA1-15 | 2026-09-03 05:41:00 | 52.41491 | 8.72442 | 49° | 5km/h | 21151m | -22.5m/s | -51.9°C | 0.4% | 48.9hPa | 2.5V | 08:24:42 | 02:09:30 | 00:00:00 | |
| DM0DOS-11 | 2026-09-03 05:41:00 | 52.41490 | 8.72440 | 58° | 7km/h | 21174m | -22.6m/s | -51.8°C | 3.6% | 48.7hPa | 2.6V | 08:24:25 | 02:09:29 | 00:00:00 | |
| DL1XH-west | 2026-09-03 05:40:59 | 52.41490 | 8.72440 | 58° | 7km/h | 21174m | -22.6m/s | -51.8°C | 0.3% | 48.7hPa | 2.6V | 08:24:42 | 02:09:29 | 00:00:00 | |
| HSKMA3-T | 2026-09-03 05:40:58 | 52.41489 | 8.72438 | 61° | 7km/h | 21197m | -23.1m/s | -51.8°C | 0.3% | 48.5hPa | 2.6V | 08:24:42 | 02:09:28 | 00:00:00 | |
| DF8AY | 2026-09-03 05:40:57 | 52.41488 | 8.72435 | 74° | 9km/h | 21220m | -22.9m/s | -51.9°C | 0.4% | 48.3hPa | 2.6V | 08:24:42 | 02:09:27 | 00:00:00 | |
| DO2JMG | 2026-09-03 05:40:52 | 52.41490 | 8.72408 | 114° | 20km/h | 21335m | -24.1m/s | -52.3°C | 0.4% | 47.4hPa | 2.6V | 08:24:42 | 02:09:22 | 00:00:00 | |
| DD8BA-10 | 2026-09-03 05:40:52 | 52.41490 | 8.72408 | 115° | 16km/h | 21335m | -24.0m/s | -52.2°C | 3.7% | 47.4hPa | 2.6V | 00:00:00 | 00:00:00 | 00:00:00 | |
| DF5WG-10 | 2026-09-03 05:40:51 | 52.41492 | 8.72401 | 122° | 11km/h | 21359m | -23.8m/s | -52.3°C | 3.7% | 47.2hPa | 2.6V | 08:24:00 | 02:09:21 | 00:00:00 | |
| DM0DOS-11 | 2026-09-03 05:40:50 | 52.41499 | 8.72387 | 135° | 22km/h | 21407m | -23.8m/s | -52.3°C | 3.8% | 46.9hPa | 2.5V | 08:24:35 | 02:09:19 | 00:00:00 | |
| AA1-15 | 2026-09-03 05:40:49 | 52.41499 | 8.72387 | 136° | 22km/h | 21407m | -23.8m/s | -52.3°C | 0.5% | 46.9hPa | 2.5V | 08:24:42 | 02:09:19 | 00:00:00 | |
| DL1XH-west | 2026-09-03 05:40:48 | 52.41503 | 8.72381 | 139° | 20km/h | 21431m | -23.9m/s | -52.2°C | 0.4% | 46.8hPa | 2.5V | 08:24:42 | 02:09:18 | 00:00:00 | |
| DF8AY | 2026-09-03 05:40:46 | 52.41510 | 8.72373 | 152° | 13km/h | 21479m | -23.4m/s | -52°C | 0.3% | 46.4hPa | 2.6V | 08:24:42 | 02:09:16 | 00:00:00 | |
| DL3AQ-11 | 2026-09-03 05:40:46 | 52.41513 | 8.72371 | 149° | 11km/h | 21503m | -23.0m/s | -52.0°C | 1.0% | 46.3hPa | 2.6V | 00:00:00 | 00:00:00 | 00:00:00 | |
| BIOWL9-15 | 2026-09-03 05:40:44 | 52.41516 | 8.72369 | 147° | 9km/h | 21525m | -23.0m/s | -51.9°C | 1.0% | 46.1hPa | 2.6V | 00:00:00 | 00:00:00 | 00:00:00 | |
| DO2JMG | 2026-09-03 05:40:41 | 52.41520 | 8.72363 | 146° | 5km/h | 21595m | -23.9m/s | -51.7°C | 0.3% | 45.6hPa | 2.6V | 08:25:33 | 02:09:11 | 00:00:00 | |
| DB0NH | 2026-09-03 05:40:41 | 52.41520 | 8.72363 | 146° | 20km/h | 21595m | -23.8m/s | -51.7°C | 3.5% | 45.5hPa | 2.6V | 00:00:00 | 02:09:11 | 00:00:00 | |
| DM0DOS-11 | 2026-09-03 05:40:40 | 52.41521 | 8.72360 | 68° | 5km/h | 21642m | -23.8m/s | -51.7°C | 3.5% | 45.2hPa | 2.6V | 08:24:45 | 02:09:09 | 00:00:00 | |
| AA1-15 | 2026-09-03 05:40:38 | 52.41520 | 8.72357 | 76° | 11km/h | 21665m | -23.2m/s | -51.8°C | 0.3% | 45hPa | 2.6V | 08:25:33 | 02:09:08 | 00:00:00 | |
| DL1XH-west | 2026-09-03 05:40:37 | 52.41520 | 8.72354 | 82° | 9km/h | 21687m | -21.6m/s | -51.9°C | 0.4% | 44.9hPa | 2.5V | 08:25:33 | 02:09:07 | 00:00:00 | |
| DF8AY | 2026-09-03 05:40:36 | 52.41519 | 8.72350 | 77° | 9km/h | 21709m | -22.2m/s | -52.1°C | 0.4% | 44.8hPa | 2.5V | 08:25:33 | 02:09:06 | 00:00:00 | |
| BIOWL1-15 | 2026-09-03 05:40:31 | 52.41514 | 8.72326 | 68° | 20km/h | 21828m | -24.2m/s | -52.9°C | 0.6% | 44hPa | 2.5V | 08:25:33 | 02:09:01 | 00:00:00 | |
| DM0DOS-11 | 2026-09-03 05:40:30 | 52.41511 | 8.72309 | 77° | 24km/h | 21876m | -24.8m/s | -52.9°C | 4.1% | 43.7hPa | 2.5V | 08:24:55 | 02:08:59 | 00:00:00 | |
| DO2JMG | 2026-09-03 05:40:30 | 52.41513 | 8.72318 | 73° | 22km/h | 21852m | -24.6m/s | -53°C | 0.6% | 43.8hPa | 2.5V | 08:25:33 | 02:09:00 | 00:00:00 | |
| DL1XH-west | 2026-09-03 05:40:27 | 52.41510 | 8.72288 | 97° | 27km/h | 21926m | -25.3m/s | -52.9°C | 0.6% | 43.3hPa | 2.6V | 08:25:33 | 02:08:57 | 00:00:00 | |
| HSKMA3-T | 2026-09-03 05:40:26 | 52.41512 | 8.72277 | 102° | 27km/h | 21951m | -25m/s | -53°C | 0.7% | 43.2hPa | 2.6V | 08:25:33 | 02:08:56 | 00:00:00 | |
| DF8AY | 2026-09-03 05:40:25 | 52.41513 | 8.72266 | 105° | 27km/h | 21976m | -25.3m/s | -53°C | 0.7% | 43hPa | 2.5V | 08:25:33 | 02:08:55 | 00:00:00 | |
| BIOWL1-15 | 2026-09-03 05:40:24 | 52.41525 | 8.72210 | 111° | 31km/h | 22101m | -25.8m/s | -52°C | 0.5% | 42.1hPa | 2.6V | 08:25:33 | 02:08:50 | 00:00:00 | |
| DO2SHX-10 | 2026-09-03 05:40:23 | 52.41517 | 8.72244 | 108° | 29km/h | 22026m | -24.5m/s | -52.8°C | 4.1% | 42.7hPa | 2.6V | 00:00:00 | 02:08:53 | 00:00:00 | |
| DD8BA-10 | 2026-09-03 05:40:22 | 52.41519 | 8.72233 | 114° | 26km/h | 22050m | -25.3m/s | -52.6°C | 4.0% | 42.4hPa | 2.6V | 08:25:00 | 00:00:00 | 00:00:00 | |
| DJ8HS-15 | 2026-09-03 05:40:21 | 52.41522 | 8.72222 | 113° | 18km/h | 22076m | -25.3m/s | -52.3°C | 4.0% | 42.2hPa | 2.5V | 00:00:00 | 02:08:51 | 00:00:00 | |
| DM0DOS-11 | 2026-09-03 05:40:20 | 52.41528 | 8.72199 | 116° | 29km/h | 22127m | -25.2m/s | -51.9°C | 3.8% | 42hPa | 2.5V | 08:25:05 | 02:08:49 | 00:00:00 | |
| DO2JMG | 2026-09-03 05:40:19 | 52.41527 | 8.72199 | 117° | 29km/h | 22127m | -25.3m/s | -51.9°C | 0.5% | 42hPa | 2.5V | 08:25:33 | 02:08:49 | 00:00:00 | |
| SONDE2-11 | 2026-09-03 05:40:19 | 52.41530 | 8.72189 | 119° | 26km/h | 22154m | -25.5m/s | -51.9°C | 1.0% | 41.8hPa | 2.5V | 00:00:00 | 00:00:00 | 00:00:00 | |
| DL1XH-15 | 2026-09-03 05:40:17 | 52.41552 | 8.72151 | 155° | 16km/h | 22305m | -23.3m/s | -51°C | 3.5% | 40.8hPa | 2.5V | 08:25:12 | 02:08:42 | 00:00:00 | |
| AA1-15 | 2026-09-03 05:40:17 | 52.41534 | 8.72180 | 125° | 27km/h | 22179m | -25.4m/s | -51.8°C | 0.4% | 41.7hPa | 2.5V | 08:25:33 | 02:08:47 | 00:00:00 | |
| DL1XH-west | 2026-09-03 05:40:16 | 52.41538 | 8.72171 | 129° | 26km/h | 22205m | -25.4m/s | -51.7°C | 0.5% | 41.5hPa | 2.6V | 08:25:33 | 02:08:46 | 00:00:00 | |
| DF8AY | 2026-09-03 05:40:15 | 52.41541 | 8.72164 | 135° | 22km/h | 22231m | -25.3m/s | -51.6°C | 0.5% | 41.3hPa | 2.6V | 08:25:33 | 02:08:45 | 00:00:00 | |
| BIOWL1-15 | 2026-09-03 05:40:10 | 52.41560 | 8.72144 | 150° | 18km/h | 22351m | -25.1m/s | -50.9°C | 0.3% | 40.6hPa | 2.6V | 08:25:33 | 02:08:40 | 00:00:00 | |
| GOEST3-10 | 2026-09-03 05:40:10 | 52.41560 | 8.72144 | 151° | 15km/h | 22351m | -25.0m/s | -50.8°C | 3.5% | 40.6hPa | 2.6V | 00:00:00 | 00:00:00 | 00:00:00 | |
| DD1CC8 | 2026-09-03 05:40:09 | 52.41567 | 8.72139 | 150° | 15km/h | 22403m | -26.2m/s | -50.9°C | 0.9% | 40.3hPa | 2.6V | 00:00:00 | 00:00:00 | 00:00:00 | |
| DL1XH1-15 | 2026-09-03 05:40:08 | 52.41579 | 8.72128 | 149° | 9km/h | 22529m | -23.7m/s | -50.9°C | 3.5% | 39.3hPa | 2.6V | 08:25:21 | 02:08:33 | 00:00:00 | |
| DO2JMG | 2026-09-03 05:40:08 | 52.41567 | 8.72139 | 150° | 15km/h | 22403m | -26.2m/s | -50.9°C | 0.3% | 40.3hPa | 2.6V | 08:25:33 | 02:08:38 | 00:00:00 | |
| AA1-15 | 2026-09-03 05:40:07 | 52.41570 | 8.72136 | 142° | 13km/h | 22429m | -25.8m/s | -50.8°C | 0.3% | 40.1hPa | 2.5V | 08:25:33 | 02:08:37 | 00:00:00 | |
| DL1XH-west | 2026-09-03 05:40:06 | 52.41573 | 8.72133 | 140° | 11km/h | 22454m | -25.6m/s | -50.7°C | 0.3% | 40hPa | 2.5V | 08:25:33 | 02:08:36 | 00:00:00 | |
| HSKMA3-T | 2026-09-03 05:40:05 | 52.41575 | 8.72130 | 156° | 11km/h | 22480m | -25.1m/s | -50.8°C | 0.2% | 39.8hPa | 2.6V | 08:25:33 | 02:08:35 | 00:00:00 | |
| DF8AY | 2026-09-03 05:40:04 | 52.41577 | 8.72129 | 170° | 7km/h | 22505m | -24.7m/s | -50.8°C | 0.3% | 39.6hPa | 2.6V | 08:25:33 | 02:08:34 | 00:00:00 | |
| DO2SHX-10 | 2026-09-03 05:40:04 | 52.41577 | 8.72129 | 171° | 9km/h | 22505m | -24.6m/s | -50.8°C | 3.5% | 39.5hPa | 2.5V | 00:00:00 | 02:08:34 | 00:00:00 | |
| SMARD9-15 | 2026-09-03 05:40:03 | 52.41579 | 8.72128 | 149° | 7km/h | 22530m | -23.7m/s | -50.9°C | 0.9% | 39.3hPa | 2.5V | 00:00:00 | 00:00:00 | 00:00:00 | |
| DD8BA-10 | 2026-09-03 05:40:02 | 52.41581 | 8.72126 | 173° | 4km/h | 22552m | -21.9m/s | -50.9°C | 3.5% | 39.2hPa | 2.5V | 00:00:00 | 00:00:00 | 00:00:00 | |
| DB0ND-19 | 2026-09-03 05:40:01 | 52.41585 | 8.72122 | 124° | 5km/h | 22623m | -25.0m/s | -50.9°C | 0.9% | 38.9hPa | 2.5V | 00:00:00 | 00:00:00 | 00:00:00 | |
| DM0DOS-11 | 2026-09-03 05:40:00 | 52.41585 | 8.72122 | 124° | 5km/h | 22623m | -25m/s | -50.9°C | 3.5% | 38.9hPa | 2.5V | 08:25:25 | 02:08:29 | 00:00:00 | |
| BIOWL1-15 | 2026-09-03 05:40:00 | 52.41584 | 8.72124 | 123° | 5km/h | 22598m | -24.7m/s | -50.9°C | 0.3% | 39.1hPa | 2.5V | 08:25:33 | 02:08:30 | 00:00:00 | |
| DO1YAY-16 | 2026-09-03 05:39:59 | 52.41585 | 8.72122 | 124° | 5km/h | 22623m | -25.0m/s | -50.9°C | 0.9% | 38.9hPa | 2.6V | 00:00:00 | 00:00:00 | 00:00:00 | |
| DL1XH1-15 | 2026-09-03 05:39:58 | 52.41586 | 8.72118 | 104° | 2km/h | 22769m | -25.9m/s | -50.4°C | 3.3% | 38hPa | 2.6V | 08:25:31 | 02:08:23 | 00:00:00 | |
| DO2JMG | 2026-09-03 05:39:58 | 52.41586 | 8.72121 | 129° | 2km/h | 22647m | -23.7m/s | -50.9°C | 0.3% | 38.8hPa | 2.6V | 08:25:33 | 02:08:28 | 00:00:00 | |
| EDDB2-11 | 2026-09-03 05:39:58 | 52.41586 | 8.72120 | 157° | 2km/h | 22670m | -21.4m/s | -50.8°C | 0.9% | 38.6hPa | 2.6V | 00:00:00 | 00:00:00 | 00:00:00 | |
| DL1XH-15 | 2026-09-03 05:39:57 | 52.41587 | 8.72117 | 111° | 5km/h | 22794m | -25.7m/s | -50.4°C | 3.3% | 37.9hPa | 2.6V | 08:25:32 | 02:08:22 | 00:00:00 | |
| AA1-15 | 2026-09-03 05:39:57 | 52.41586 | 8.72120 | 158° | 4km/h | 22670m | -21.4m/s | -50.8°C | 0.3% | 38.6hPa | 2.6V | 08:25:33 | 02:08:27 | 00:00:00 | |
| DL1XH-west | 2026-09-03 05:39:55 | 52.41586 | 8.72120 | 351° | 2km/h | 22716m | -25.7m/s | -50.6°C | 0.2% | 38.3hPa | 2.5V | 08:25:33 | 02:08:25 | 00:00:00 | |
| DF8AY | 2026-09-03 05:39:54 | 52.41586 | 8.72118 | 105° | 2km/h | 22769m | -25.9m/s | -50.4°C | 0.2% | 38hPa | 2.6V | 08:25:33 | 02:08:23 | 00:00:00 | |
| HSKMA3-T | 2026-09-03 05:39:54 | 52.41586 | 8.72120 | 78° | 4km/h | 22742m | -25.6m/s | -50.4°C | 0.2% | 38.2hPa | 2.5V | 08:25:33 | 02:08:24 | 00:00:00 | |
| BIOWL1-15 | 2026-09-03 05:39:51 | 52.41590 | 8.72108 | 115° | 11km/h | 22873m | -26m/s | -50.7°C | 0.2% | 37.4hPa | 2.5V | 08:26:24 | 02:08:19 | 00:00:00 | |
| DO2JMG | 2026-09-03 05:39:48 | 52.41591 | 8.72104 | 109° | 11km/h | 22899m | -26.3m/s | -50.7°C | 0.2% | 37.3hPa | 2.5V | 08:26:24 | 02:08:18 | 00:00:00 | |
| DL1XH-15 | 2026-09-03 05:39:47 | 52.41598 | 8.72082 | 140° | 7km/h | 23058m | -26.8m/s | -51°C | 3.4% | 36.4hPa | 2.5V | 08:25:42 | 02:08:12 | 00:00:00 | |
| AA1-15 | 2026-09-03 05:39:46 | 52.41593 | 8.72095 | 114° | 13km/h | 22951m | -26.5m/s | -50.6°C | 0.2% | 37hPa | 2.6V | 08:26:24 | 02:08:16 | 00:00:00 | |
| DL1XH-west | 2026-09-03 05:39:44 | 52.41595 | 8.72087 | 115° | 7km/h | 23004m | -26.3m/s | -50.7°C | 0.2% | 36.7hPa | 2.6V | 08:26:24 | 02:08:14 | 00:00:00 | |
| EDDB2-12 | 2026-09-03 05:39:44 | 52.41595 | 8.72087 | 115° | 5km/h | 23005m | -26.3m/s | -50.7°C | 0.9% | 36.7hPa | 2.5V | 00:00:00 | 00:00:00 | 00:00:00 | |
| DF8AY | 2026-09-03 05:39:42 | 52.41598 | 8.72082 | 140° | 7km/h | 23058m | -26.8m/s | -51°C | 0.3% | 36.4hPa | 2.5V | 08:26:24 | 02:08:12 | 00:00:00 | |
| DD8BA-10 | 2026-09-03 05:39:42 | 52.41597 | 8.72082 | 141° | 11km/h | 23058m | -26.7m/s | -50.9°C | 3.4% | 36.3hPa | 2.6V | 00:00:00 | 00:00:00 | 00:00:00 | |
| DJ8HS-15 | 2026-09-03 05:39:41 | 52.41599 | 8.72079 | 134° | 13km/h | 23085m | -26.5m/s | -51.0°C | 3.4% | 36.2hPa | 2.6V | 08:25:00 | 02:08:11 | 00:00:00 | |
| DO2SHX-10 | 2026-09-03 05:39:40 | 52.41601 | 8.72077 | 151° | 11km/h | 23111m | -26.8m/s | -51.0°C | 3.4% | 36.0hPa | 2.6V | 00:00:00 | 02:08:10 | 00:00:00 | |
| DL1XH1-15 | 2026-09-03 05:39:38 | 52.41619 | 8.72085 | 251° | 11km/h | 23300m | -27.1m/s | -51°C | 3.5% | 35hPa | 2.6V | 08:25:51 | 02:08:03 | 00:00:00 | |
| DO2JMG | 2026-09-03 05:39:38 | 52.41606 | 8.72074 | 187° | 11km/h | 23165m | -26.6m/s | -51.1°C | 0.3% | 35.8hPa | 2.6V | 08:26:24 | 02:08:08 | 00:00:00 | |
| AA1-15 | 2026-09-03 05:39:35 | 52.41615 | 8.72078 | 224° | 11km/h | 23246m | -26.8m/s | -51.1°C | 0.3% | 35.3hPa | 2.6V | 08:26:24 | 02:08:05 | 00:00:00 | |
| DL1XH-west | 2026-09-03 05:39:34 | 52.41617 | 8.72081 | 234° | 11km/h | 23273m | -26.9m/s | -51.1°C | 0.2% | 35.2hPa | 2.6V | 08:26:24 | 02:08:04 | 00:00:00 | |
| HSKMA3-T | 2026-09-03 05:39:33 | 52.41619 | 8.72085 | 252° | 11km/h | 23300m | -27.1m/s | -51.1°C | 0.3% | 35hPa | 2.6V | 08:26:24 | 02:08:03 | 00:00:00 | |
| DF8AY | 2026-09-03 05:39:32 | 52.41620 | 8.72089 | 258° | 13km/h | 23328m | -27.8m/s | -51.1°C | 0.3% | 34.9hPa | 2.6V | 08:26:24 | 02:08:02 | 00:00:00 | |
| DO9LL-15 | 2026-09-03 05:39:32 | 52.41619 | 8.72089 | 259° | 13km/h | 23328m | -27.7m/s | -51.0°C | 3.5% | 34.9hPa | 2.6V | 08:25:00 | 02:08:02 | 00:00:00 | |
| DO2SHX-10 | 2026-09-03 05:39:31 | 52.41620 | 8.72094 | 272° | 11km/h | 23356m | -27.6m/s | -51.1°C | 3.5% | 34.7hPa | 2.5V | 00:00:00 | 02:08:01 | 00:00:00 | |
| DF7PN | 2026-09-03 05:39:30 | 52.41618 | 8.72101 | 327° | 7km/h | 23410m | -27.3m/s | -51.4°C | 1.0% | 34.4hPa | 2.5V | 00:00:00 | 00:00:00 | 00:00:00 | |
| DF5WG-10 | 2026-09-03 05:39:29 | 52.41618 | 8.72101 | 328° | 16km/h | 23410m | -27.3m/s | -51.3°C | 3.6% | 34.4hPa | 2.5V | 00:00:00 | 02:07:59 | 00:00:00 | |
| DL1XH1-15 | 2026-09-03 05:39:28 | 52.41601 | 8.72084 | 69° | 18km/h | 23574m | -27.7m/s | -52°C | 3.8% | 33.6hPa | 2.5V | 08:26:01 | 02:07:53 | 00:00:00 | |
| DO2JMG | 2026-09-03 05:39:27 | 52.41613 | 8.72102 | 10° | 13km/h | 23464m | -27.5m/s | -51.7°C | 0.4% | 34.2hPa | 2.5V | 08:26:24 | 02:07:57 | 00:00:00 | |
| AA1-15 | 2026-09-03 05:39:24 | 52.41603 | 8.72091 | 62° | 18km/h | 23546m | -28m/s | -51.9°C | 0.4% | 33.7hPa | 2.6V | 08:26:24 | 02:07:54 | 00:00:00 | |
| DL1XH-west | 2026-09-03 05:39:23 | 52.41601 | 8.72084 | 69° | 18km/h | 23574m | -27.7m/s | -52°C | 0.5% | 33.6hPa | 2.5V | 08:26:24 | 02:07:53 | 00:00:00 | |
| DF8AY | 2026-09-03 05:39:22 | 52.41600 | 8.72077 | 77° | 18km/h | 23602m | -28.2m/s | -52°C | 0.5% | 33.4hPa | 2.6V | 08:26:24 | 02:07:52 | 00:00:00 | |
| DD8BA-10 | 2026-09-03 05:39:22 | 52.41600 | 8.72077 | 78° | 15km/h | 23602m | -28.2m/s | -52.0°C | 3.8% | 33.4hPa | 2.6V | 00:00:00 | 00:00:00 | 00:00:00 | |
| DJ8HS-15 | 2026-09-03 05:39:21 | 52.41599 | 8.72069 | 82° | 11km/h | 23631m | -27.8m/s | -51.9°C | 3.8% | 33.2hPa | 2.6V | 00:00:00 | 02:07:51 | 00:00:00 | |
| DF8AY-15 | 2026-09-03 05:39:20 | 52.41599 | 8.72062 | 92° | 11km/h | 23659m | -27.9m/s | -51.8°C | 3.8% | 33.1hPa | 2.6V | 08:26:00 | 02:07:50 | 00:00:00 | |
| DO2SHX-10 | 2026-09-03 05:39:19 | 52.41599 | 8.72057 | 119° | 13km/h | 23687m | -28.8m/s | -51.6°C | 3.7% | 33.0hPa | 2.5V | 00:00:00 | 02:07:49 | 00:00:00 | |
| DL1XH1-15 | 2026-09-03 05:39:18 | 52.41612 | 8.72036 | 143° | 11km/h | 23860m | -28.9m/s | -50.9°C | 3.6% | 32.1hPa | 2.5V | 08:26:11 | 02:07:43 | 00:00:00 | |
| DO2JMG | 2026-09-03 05:39:16 | 52.41606 | 8.72044 | 143° | 13km/h | 23774m | -28.1m/s | -51.4°C | 0.4% | 32.6hPa | 2.6V | 08:26:24 | 02:07:46 | 00:00:00 | |
| DL1XH-west | 2026-09-03 05:39:13 | 52.41612 | 8.72036 | 143° | 11km/h | 23860m | -28.9m/s | -50.9°C | 0.4% | 32.1hPa | 2.5V | 08:26:24 | 02:07:43 | 00:00:00 | |
| HSKMA3-T | 2026-09-03 05:39:12 | 52.41614 | 8.72034 | 140° | 9km/h | 23889m | -28.8m/s | -50.9°C | 0.2% | 32hPa | 2.5V | 08:26:24 | 02:07:42 | 00:00:00 | |
| DD8BA-10 | 2026-09-03 05:39:12 | 52.41614 | 8.72034 | 140° | 7km/h | 23889m | -28.8m/s | -50.8°C | 3.5% | 31.9hPa | 2.6V | 00:00:00 | 00:00:00 | 00:00:00 | |
| DB0NH | 2026-09-03 05:39:11 | 52.41615 | 8.72031 | 104° | 7km/h | 23918m | -27.8m/s | -50.8°C | 3.5% | 31.8hPa | 2.6V | 00:00:00 | 02:07:41 | 00:00:00 | |
| DM0DOS-11 | 2026-09-03 05:39:10 | 52.41616 | 8.72028 | 58° | 4km/h | 23973m | -27.9m/s | -50.9°C | 3.5% | 31.6hPa | 2.6V | 08:26:15 | 02:07:39 | 00:00:00 | |
| DO2SHX-10 | 2026-09-03 05:39:10 | 52.41616 | 8.72029 | 102° | 5km/h | 23946m | -28.0m/s | -50.8°C | 3.5% | 31.7hPa | 2.6V | 00:00:00 | 02:07:40 | 00:00:00 | |
| DF5WG-10 | 2026-09-03 05:39:09 | 52.41616 | 8.72027 | 59° | 11km/h | 23974m | -27.8m/s | -50.9°C | 3.5% | 31.5hPa | 2.6V | 00:00:00 | 02:07:39 | 00:00:00 | |
| DL1XH1-15 | 2026-09-03 05:39:08 | 52.41607 | 8.72018 | 63° | 11km/h | 24146m | -29.3m/s | -51.4°C | 3.7% | 30.8hPa | 2.6V | 08:26:21 | 02:07:33 | 00:00:00 | |
| BIOWL1-15 | 2026-09-03 05:39:08 | 52.41612 | 8.72024 | 17° | 9km/h | 24057m | -28.6m/s | -51.1°C | 0.3% | 31.2hPa | 2.6V | 08:26:24 | 02:07:36 | 00:00:00 | |
| DL1XH-15 | 2026-09-03 05:39:07 | 52.41606 | 8.72014 | 79° | 13km/h | 24176m | -29.5m/s | -51.4°C | 3.7% | 30.6hPa | 2.5V | 08:26:22 | 02:07:32 | 00:00:00 | |
| DO2JMG | 2026-09-03 05:39:05 | 52.41610 | 8.72023 | 35° | 9km/h | 24087m | -29.5m/s | -51.3°C | 0.3% | 31.1hPa | 2.6V | 08:26:24 | 02:07:35 | 00:00:00 | |
| AA1-15 | 2026-09-03 05:39:03 | 52.41607 | 8.72018 | 63° | 11km/h | 24146m | -29.3m/s | -51.4°C | 0.4% | 30.8hPa | 2.6V | 08:26:24 | 02:07:33 | 00:00:00 | |
| DL1XH-west | 2026-09-03 05:39:02 | 52.41606 | 8.72014 | 80° | 13km/h | 24176m | -29.5m/s | -51.4°C | 0.5% | 30.6hPa | 2.5V | 08:26:24 | 02:07:32 | 00:00:00 | |
| HSKMA3-T | 2026-09-03 05:39:01 | 52.41605 | 8.72009 | 89° | 13km/h | 24205m | -29.4m/s | -51.4°C | 0.4% | 30.4hPa | 2.5V | 08:26:24 | 02:07:31 | 00:00:00 | |
| DJ8HS-15 | 2026-09-03 05:39:01 | 52.41605 | 8.72009 | 89° | 7km/h | 24206m | -29.4m/s | -51.3°C | 3.7% | 30.4hPa | 2.6V | 00:00:00 | 02:07:31 | 00:00:00 | |
| DM0DOS-11 | 2026-09-03 05:39:00 | 52.41605 | 8.72000 | 94° | 13km/h | 24265m | -30.1m/s | -51.2°C | 3.6% | 30.2hPa | 2.6V | 08:26:25 | 02:07:29 | 00:00:00 | |
| DF7PN | 2026-09-03 05:38:59 | 52.41606 | 8.71996 | 98° | 11km/h | 24295m | -30.4m/s | -51.3°C | 0.9% | 30.1hPa | 2.6V | 00:00:00 | 00:00:00 | 00:00:00 | |
| DL1XH1-15 | 2026-09-03 05:38:58 | 52.41610 | 8.71983 | 134° | 4km/h | 24447m | -30m/s | -50.9°C | 3.6% | 29.3hPa | 2.6V | 08:26:31 | 02:07:23 | 00:00:00 | |
| DL1XH-15 | 2026-09-03 05:38:57 | 52.41611 | 8.71983 | 149° | 4km/h | 24477m | -30.3m/s | -50.8°C | 3.5% | 29.2hPa | 2.6V | 08:26:32 | 02:07:22 | 00:00:00 | |
| BIOWL1-15 | 2026-09-03 05:38:56 | 52.41607 | 8.71989 | 114° | 9km/h | 24356m | -30.4m/s | -51.2°C | 0.4% | 29.8hPa | 2.5V | 08:27:15 | 02:07:26 | 00:00:00 | |
| DO2JMG | 2026-09-03 05:38:55 | 52.41608 | 8.71986 | 124° | 7km/h | 24387m | -30.3m/s | -51.2°C | 0.4% | 29.6hPa | 2.5V | 08:27:15 | 02:07:25 | 00:00:00 | |
| AA1-15 | 2026-09-03 05:38:52 | 52.41611 | 8.71983 | 150° | 4km/h | 24477m | -30.3m/s | -50.8°C | 0.3% | 29.2hPa | 2.6V | 08:27:15 | 02:07:22 | 00:00:00 | |
| DL1XH-west | 2026-09-03 05:38:51 | 52.41612 | 8.71983 | 176° | 5km/h | 24508m | -30.3m/s | -50.7°C | 0.3% | 29.1hPa | 2.6V | 08:27:15 | 02:07:21 | 00:00:00 | |
| HSKMA3-T | 2026-09-03 05:38:50 | 52.41613 | 8.71982 | 164° | 4km/h | 24539m | -30.4m/s | -50.8°C | 0.3% | 29hPa | 2.5V | 08:27:15 | 02:07:20 | 00:00:00 | |
| HTAHTA | 2026-09-03 05:38:49 | 52.41614 | 8.71982 | 146° | 2km/h | 24569m | -30.2m/s | -50.9°C | 0.9% | 28.8hPa | 2.6V | 00:00:00 | 00:00:00 | 00:00:00 | |
| DL1XH1-15 | 2026-09-03 05:38:48 | 52.41609 | 8.71976 | 44° | 11km/h | 24752m | -31.4m/s | -51°C | 3.6% | 28.1hPa | 2.6V | 08:26:41 | 02:07:13 | 00:00:00 | |
| DO2SHX-10 | 2026-09-03 05:38:48 | 52.41614 | 8.71982 | 71° | 4km/h | 24600m | -30.6m/s | -50.9°C | 3.6% | 28.7hPa | 2.6V | 00:00:00 | 02:07:18 | 00:00:00 | |
| DL1XH-15 | 2026-09-03 05:38:47 | 52.41607 | 8.71973 | 54° | 13km/h | 24782m | -31.4m/s | -51°C | 3.7% | 27.9hPa | 2.5V | 08:26:42 | 02:07:12 | 00:00:00 | |
| BIOWL1-15 | 2026-09-03 05:38:45 | 52.41613 | 8.71980 | 39° | 7km/h | 24691m | -30.5m/s | -51°C | 0.4% | 28.3hPa | 2.6V | 08:27:15 | 02:07:15 | 00:00:00 | |
| DO2JMG | 2026-09-03 05:38:44 | 52.41611 | 8.71978 | 38° | 9km/h | 24721m | -30.3m/s | -51°C | 0.4% | 28.1hPa | 2.6V | 08:27:15 | 02:07:14 | 00:00:00 | |
| AA1-15 | 2026-09-03 05:38:41 | 52.41605 | 8.71969 | 67° | 11km/h | 24814m | -31.6m/s | -50.9°C | 0.3% | 27.8hPa | 2.6V | 08:27:15 | 02:07:11 | 00:00:00 | |
| DL1XH-west | 2026-09-03 05:38:40 | 52.41604 | 8.71964 | 77° | 13km/h | 24845m | -31.7m/s | -50.7°C | 0.4% | 27.6hPa | 2.6V | 08:27:15 | 02:07:10 | 00:00:00 | |
| HSKMA3-T | 2026-09-03 05:38:39 | 52.41604 | 8.71959 | 82° | 15km/h | 24876m | -31.6m/s | -50.6°C | 0.3% | 27.5hPa | 2.6V | 08:27:15 | 02:07:09 | 00:00:00 | |
| AU51GT2 | 2026-09-03 05:38:38 | 52.41604 | 8.71953 | 89° | 15km/h | 24908m | -31.8m/s | -50.5°C | 0.9% | 27.3hPa | 2.6V | 00:00:00 | 00:00:00 | 00:00:00 | |
| DL1XH-15 | 2026-09-03 05:38:37 | 52.41608 | 8.71919 | 129° | 13km/h | 25099m | -32.4m/s | -50.1°C | 3.5% | 26.6hPa | 2.6V | 08:26:52 | 02:07:02 | 00:00:00 | |
| BIOWL1-15 | 2026-09-03 05:38:34 | 52.41605 | 8.71929 | 102° | 15km/h | 25034m | -32.4m/s | -50.3°C | 0.2% | 26.8hPa | 2.6V | 08:27:15 | 02:07:04 | 00:00:00 | |
| DO2JMG | 2026-09-03 05:38:33 | 52.41607 | 8.71924 | 120° | 13km/h | 25066m | -32.5m/s | -50.2°C | 0.2% | 26.7hPa | 2.6V | 08:27:15 | 02:07:03 | 00:00:00 | |
| AA1-15 | 2026-09-03 05:38:30 | 52.41613 | 8.71911 | 143° | 15km/h | 25164m | -32.9m/s | -50°C | 0.2% | 26.4hPa | 2.5V | 08:27:15 | 02:07:00 | 00:00:00 | |
| DL1XH-west | 2026-09-03 05:38:29 | 52.41616 | 8.71907 | 146° | 15km/h | 25197m | -33.4m/s | -50°C | 0.2% | 26.2hPa | 2.6V | 08:27:15 | 02:06:59 | 00:00:00 | |
| HSKMA3-T | 2026-09-03 05:38:28 | 52.41619 | 8.71903 | 153° | 18km/h | 25230m | -33.2m/s | -50.1°C | 0.2% | 26hPa | 2.6V | 08:27:15 | 02:06:58 | 00:00:00 | |
| DF7PN | 2026-09-03 05:38:28 | 52.41623 | 8.71900 | 158° | 18km/h | 25264m | -33.3m/s | -50.1°C | 0.9% | 25.9hPa | 2.6V | 00:00:00 | 00:00:00 | 00:00:00 | |
| DL1XH-15 | 2026-09-03 05:38:27 | 52.41646 | 8.71890 | 169° | 16km/h | 25424m | -31m/s | -50°C | 3.5% | 25.2hPa | 2.6V | 08:27:02 | 02:06:52 | 00:00:00 | |
| BIOWL1-15 | 2026-09-03 05:38:26 | 52.41637 | 8.71893 | 169° | 18km/h | 25362m | -31.8m/s | -50.1°C | 0.3% | 25.5hPa | 2.5V | 08:27:15 | 02:06:54 | 00:00:00 | |
| DB0DAN | 2026-09-03 05:38:25 | 52.41633 | 8.71895 | 167° | 16km/h | 25329m | -32.3m/s | -50.1°C | 0.9% | 25.61hPa | 2.5V | 00:00:00 | 00:00:00 | 00:00:00 | |
| DO2JMG | 2026-09-03 05:38:23 | 52.41642 | 8.71891 | 169° | 18km/h | 25393m | -30.8m/s | -50°C | 0.3% | 25.3hPa | 2.6V | 08:27:15 | 02:06:53 | 00:00:00 | |
| AA1-15 | 2026-09-03 05:38:20 | 52.41654 | 8.71889 | 182° | 11km/h | 25487m | -31.8m/s | -49.9°C | 0.3% | 25hPa | 2.6V | 08:27:15 | 02:06:50 | 00:00:00 | |
| DL1XH-west | 2026-09-03 05:38:18 | 52.41658 | 8.71890 | 179° | 5km/h | 25550m | -32.1m/s | -49.7°C | 0.2% | 24.8hPa | 2.6V | 08:27:15 | 02:06:48 | 00:00:00 | |
| HSKMA3-T | 2026-09-03 05:38:17 | 52.41659 | 8.71889 | 198° | 4km/h | 25582m | -32.1m/s | -49.7°C | 0.2% | 24.6hPa | 2.6V | 08:27:15 | 02:06:47 | 00:00:00 | |
| BIOWL1-15 | 2026-09-03 05:38:15 | 52.41663 | 8.71895 | 246° | 7km/h | 25712m | -33.3m/s | -49.4°C | 0.1% | 24.2hPa | 2.6V | 08:27:15 | 02:06:43 | 00:00:00 | |
| DJ2DS-15 | 2026-09-03 05:38:15 | 52.41661 | 8.71891 | 247° | 5km/h | 25646m | -32.3m/s | -49.4°C | 3.3% | 24.3hPa | 2.5V | 00:00:00 | 02:06:45 | 00:00:00 | |
| DM0DOS-11 | 2026-09-03 05:38:14 | 52.41667 | 8.71903 | 223° | 4km/h | 25846m | -33.5m/s | -49.2°C | 3.3% | 23.6hPa | 2.5V | 08:27:15 | 02:06:39 | 00:00:00 | |
| DO2JMG | 2026-09-03 05:38:12 | 52.41664 | 8.71898 | 243° | 7km/h | 25745m | -33.3m/s | -49.4°C | 0.2% | 24.1hPa | 2.6V | 08:27:15 | 02:06:42 | 00:00:00 | |
| AA1-15 | 2026-09-03 05:38:09 | 52.41667 | 8.71903 | 223° | 4km/h | 25846m | -33.5m/s | -49.2°C | 0.1% | 23.6hPa | 2.5V | 08:27:15 | 02:06:39 | 00:00:00 | |
| DF8AY | 2026-09-03 05:38:08 | 52.41668 | 8.71904 | 211° | 4km/h | 25880m | -34.3m/s | -49.2°C | 0.1% | 23.6hPa | 2.6V | 08:28:06 | 02:06:38 | 00:00:00 | |
| DL1XH-west | 2026-09-03 05:38:07 | 52.41669 | 8.71905 | 209° | 5km/h | 25914m | -33.8m/s | -49.2°C | 0.1% | 23.5hPa | 2.6V | 08:28:06 | 02:06:37 | 00:00:00 | |
| DD1CC8 | 2026-09-03 05:38:05 | 52.41672 | 8.71904 | 186° | 4km/h | 26017m | -34.0m/s | -49.4°C | 0.8% | 23.1hPa | 2.6V | 00:00:00 | 00:00:00 | 00:00:00 | |
| DM0DOS-11 | 2026-09-03 05:38:04 | 52.41676 | 8.71901 | 150° | 5km/h | 26189m | -35.2m/s | -49.1°C | 3.3% | 22.5hPa | 2.6V | 08:27:25 | 02:06:29 | 00:00:00 | |
| BIOWL1-15 | 2026-09-03 05:38:03 | 52.41672 | 8.71904 | 129° | 4km/h | 26051m | -34.2m/s | -49.4°C | 0.2% | 22.9hPa | 2.6V | 08:28:06 | 02:06:33 | 00:00:00 | |
| DO2JMG | 2026-09-03 05:38:02 | 52.41673 | 8.71903 | 186° | 4km/h | 26085m | -34.4m/s | -49.3°C | 0.1% | 22.8hPa | 2.6V | 08:28:06 | 02:06:32 | 00:00:00 | |
| AA1-15 | 2026-09-03 05:37:59 | 52.41675 | 8.71901 | 150° | 5km/h | 26189m | -35.2m/s | -49.1°C | 0.1% | 22.5hPa | 2.6V | 08:28:06 | 02:06:29 | 00:00:00 | |
| DF8AY | 2026-09-03 05:37:58 | 52.41676 | 8.71899 | 120° | 5km/h | 26224m | -35.2m/s | -49.2°C | 0.2% | 22.3hPa | 2.5V | 08:28:06 | 02:06:28 | 00:00:00 | |
| DL1XH-west | 2026-09-03 05:37:57 | 52.41677 | 8.71898 | 160° | 5km/h | 26260m | -35.7m/s | -49.2°C | 0.2% | 22.2hPa | 2.6V | 08:28:06 | 02:06:27 | 00:00:00 | |
| HSKMA3-T | 2026-09-03 05:37:56 | 52.41679 | 8.71897 | 161° | 9km/h | 26296m | -35.6m/s | -49.3°C | 0.2% | 22.1hPa | 2.6V | 08:28:06 | 02:06:26 | 00:00:00 | |
| DB0DAN | 2026-09-03 05:37:55 | 52.41680 | 8.71896 | 164° | 5km/h | 26332m | -35.4m/s | -49.3°C | 0.8% | 22hPa | 2.6V | 00:00:00 | 00:00:00 | 00:00:00 | |
| DJ2DS-15 | 2026-09-03 05:37:55 | 52.41680 | 8.71896 | 165° | 5km/h | 26332m | -35.4m/s | -49.3°C | 3.4% | 21.9hPa | 2.6V | 00:00:00 | 02:06:25 | 00:00:00 | |
| DM0DOS-11 | 2026-09-03 05:37:54 | 52.41689 | 8.71904 | 200° | 4km/h | 26536m | -35.2m/s | -49°C | 3.3% | 21.3hPa | 2.5V | 08:27:35 | 02:06:19 | 00:00:00 | |
| BIOWL1-15 | 2026-09-03 05:37:52 | 52.41685 | 8.71900 | 205° | 9km/h | 26437m | -33.8m/s | -49°C | 0.1% | 21.6hPa | 2.6V | 08:28:06 | 02:06:22 | 00:00:00 | |
| DO2JMG | 2026-09-03 05:37:51 | 52.41687 | 8.71902 | 204° | 7km/h | 26470m | -33.2m/s | -49.1°C | 0.2% | 21.5hPa | 2.6V | 08:28:06 | 02:06:21 | 00:00:00 | |
| BUE01 | 2026-09-03 05:37:49 | 52.41689 | 8.71903 | 84° | 2km/h | 26572m | -35.5m/s | -49.0°C | 0.8% | 21.2hPa | 2.5V | 00:00:00 | 00:00:00 | 00:00:00 | |
| DL1XH1-15 | 2026-09-03 05:37:48 | 52.41691 | 8.71900 | 197° | 5km/h | 26755m | -38m/s | -49°C | 3.3% | 20.6hPa | 2.5V | 08:27:41 | 02:06:13 | 00:00:00 | |
| AA1-15 | 2026-09-03 05:37:48 | 52.41689 | 8.71903 | 84° | 2km/h | 26572m | -35.5m/s | -49°C | 0.2% | 21.2hPa | 2.5V | 08:28:06 | 02:06:18 | 00:00:00 | |
| DF8AY | 2026-09-03 05:37:47 | 52.41689 | 8.71903 | 136° | 4km/h | 26607m | -36.4m/s | -49°C | 0.2% | 21hPa | 2.6V | 08:28:06 | 02:06:17 | 00:00:00 | |
| DL1XH-west | 2026-09-03 05:37:46 | 52.41690 | 8.71902 | 98° | 4km/h | 26643m | -36.2m/s | -49°C | 0.1% | 20.9hPa | 2.6V | 08:28:06 | 02:06:16 | 00:00:00 | |
| HSKMA3-T | 2026-09-03 05:37:45 | 52.41690 | 8.71901 | 159° | 4km/h | 26680m | -36.4m/s | -49.1°C | 0.2% | 20.9hPa | 2.6V | 08:28:06 | 02:06:15 | 00:00:00 | |
| DO2SHX-10 | 2026-09-03 05:37:45 | 52.41690 | 8.71901 | 159° | 4km/h | 26680m | -36.4m/s | -49.0°C | 3.3% | 20.8hPa | 2.6V | 00:00:00 | 02:06:15 | 00:00:00 | |
| DM0DOS-11 | 2026-09-03 05:37:44 | 52.41693 | 8.71903 | 350° | 4km/h | 26905m | -37m/s | -48.5°C | 3.2% | 20.1hPa | 2.6V | 08:27:45 | 02:06:09 | 00:00:00 | |
| BIOWL1-15 | 2026-09-03 05:37:43 | 52.41693 | 8.71901 | 226° | 5km/h | 26830m | -38m/s | -48.7°C | 0.1% | 20.4hPa | 2.6V | 08:28:06 | 02:06:11 | 00:00:00 | |
| DO2JMG | 2026-09-03 05:37:40 | 52.41694 | 8.71903 | 205° | 4km/h | 26868m | -37.2m/s | -48.6°C | 0.1% | 20.2hPa | 2.6V | 08:28:06 | 02:06:10 | 00:00:00 | |
| DB0NH | 2026-09-03 05:37:40 | 52.41694 | 8.71903 | 206° | 16km/h | 26868m | -37.2m/s | -48.5°C | 3.3% | 20.2hPa | 2.6V | 00:00:00 | 02:06:10 | 00:00:00 | |
| DO2SHX-10 | 2026-09-03 05:37:39 | 52.41693 | 8.71903 | 351° | 7km/h | 26905m | -36.9m/s | -48.4°C | 3.2% | 20.1hPa | 2.6V | 00:00:00 | 02:06:09 | 00:00:00 | |
| DL1XH1-15 | 2026-09-03 05:37:38 | 52.41673 | 8.71895 | 19° | 26km/h | 27127m | -37.5m/s | -48.3°C | 3.2% | 19.4hPa | 2.5V | 08:27:51 | 02:06:03 | 00:00:00 | |
| DF8AY | 2026-09-03 05:37:37 | 52.41691 | 8.71903 | 22° | 11km/h | 26979m | -37.2m/s | -48.4°C | 0.1% | 19.9hPa | 2.5V | 08:28:06 | 02:06:07 | 00:00:00 | |
| DL3AQ-11 | 2026-09-03 05:37:37 | 52.41688 | 8.71902 | 7° | 13km/h | 27016m | -37.1m/s | -48.4°C | 0.8% | 19.8hPa | 2.6V | 00:00:00 | 00:00:00 | 00:00:00 | |
| DL1XH-west | 2026-09-03 05:37:36 | 52.41688 | 8.71902 | 7° | 13km/h | 27016m | -37.1m/s | -48.4°C | 0.1% | 19.8hPa | 2.6V | 08:28:06 | 02:06:06 | 00:00:00 | |
| DO2SHX-10 | 2026-09-03 05:37:36 | 52.41688 | 8.71902 | 8° | 20km/h | 27016m | -37.1m/s | -48.3°C | 3.2% | 19.7hPa | 2.6V | 00:00:00 | 02:06:06 | 00:00:00 | |
| DJ2DS-15 | 2026-09-03 05:37:35 | 52.41684 | 8.71900 | 18° | 22km/h | 27053m | -37.1m/s | -48.4°C | 3.3% | 19.6hPa | 2.6V | 00:00:00 | 02:06:05 | 00:00:00 | |
| DM0DOS-11 | 2026-09-03 05:37:34 | 52.41645 | 8.71873 | 28° | 31km/h | 27268m | -34.5m/s | -48.1°C | 3.2% | 19hPa | 2.6V | 08:27:55 | 02:05:59 | 00:00:00 | |
| HSKMA3-T | 2026-09-03 05:37:34 | 52.41679 | 8.71898 | 13° | 26km/h | 27090m | -37.4m/s | -48.5°C | 0.1% | 19.6hPa | 2.6V | 08:28:06 | 02:06:04 | 00:00:00 | |
| BIOWL1-15 | 2026-09-03 05:37:30 | 52.41652 | 8.71879 | 28° | 33km/h | 27234m | -34.3m/s | -48.1°C | 0.1% | 19.1hPa | 2.6V | 08:28:06 | 02:06:00 | 00:00:00 | |
| DO2JMG | 2026-09-03 05:37:29 | 52.41645 | 8.71873 | 28° | 31km/h | 27268m | -34.5m/s | -48.1°C | 0.1% | 19hPa | 2.6V | 08:28:06 | 02:05:59 | 00:00:00 | |
| DL1XH1-15 | 2026-09-03 05:37:28 | 52.41623 | 8.71833 | 75° | 16km/h | 27492m | -38m/s | -47.6°C | 3.1% | 18.4hPa | 2.6V | 08:28:01 | 02:05:53 | 00:00:00 | |
| SMARD9-15 | 2026-09-03 05:37:28 | 52.41633 | 8.71859 | 43° | 26km/h | 27341m | -37.3m/s | -48.0°C | 0.8% | 18.8hPa | 2.5V | 00:00:00 | 00:00:00 | 00:00:00 | |
| DL1XH-15 | 2026-09-03 05:37:27 | 52.41622 | 8.71827 | 87° | 11km/h | 27530m | -38.3m/s | -47.7°C | 3.1% | 18.3hPa | 2.5V | 08:28:02 | 02:05:52 | 00:00:00 | |
| DF8AY | 2026-09-03 05:37:26 | 52.41629 | 8.71852 | 52° | 22km/h | 27378m | -37.7m/s | -47.9°C | 0.1% | 18.7hPa | 2.6V | 08:28:06 | 02:05:56 | 00:00:00 | |
| DL1XH-west | 2026-09-03 05:37:25 | 52.41626 | 8.71845 | 59° | 20km/h | 27416m | -37.6m/s | -47.8°C | 0% | 18.6hPa | 2.6V | 08:28:06 | 02:05:55 | 00:00:00 | |
| DF5WG-10 | 2026-09-03 05:37:25 | 52.41626 | 8.71845 | 60° | 13km/h | 27416m | -37.6m/s | -47.7°C | 3.1% | 18.6hPa | 2.6V | 00:00:00 | 02:05:55 | 00:00:00 | |
| DM0DOS-11 | 2026-09-03 05:37:24 | 52.41625 | 8.71815 | 125° | 11km/h | 27646m | -38.8m/s | -48°C | 3.2% | 18hPa | 2.6V | 08:28:05 | 02:05:49 | 00:00:00 | |
| HSKMA3-T | 2026-09-03 05:37:24 | 52.41624 | 8.71839 | 65° | 15km/h | 27454m | -37.6m/s | -47.7°C | 0% | 18.5hPa | 2.6V | 08:28:06 | 02:05:54 | 00:00:00 | |
| BIOWL1-15 | 2026-09-03 05:37:21 | 52.41625 | 8.71815 | 125° | 11km/h | 27646m | -38.8m/s | -48°C | 0.1% | 18hPa | 2.6V | 08:28:06 | 02:05:49 | 00:00:00 | |
| DO2JMG | 2026-09-03 05:37:18 | 52.41627 | 8.71812 | 153° | 7km/h | 27685m | -38.9m/s | -47.9°C | 0.1% | 17.8hPa | 2.6V | 08:28:06 | 02:05:48 | 00:00:00 | |
| BUE01 | 2026-09-03 05:37:18 | 52.41627 | 8.71812 | 153° | 7km/h | 27685m | -38.9m/s | -47.9°C | 0.8% | 17.8hPa | 2.5V | 00:00:00 | 00:00:00 | 00:00:00 | |
| DL1XH-15 | 2026-09-03 05:37:17 | 52.41637 | 8.71802 | 108° | 9km/h | 27918m | -39.8m/s | -47.3°C | 3.1% | 17.2hPa | 2.5V | 08:28:12 | 02:05:42 | 00:00:00 | |
| DF8AY | 2026-09-03 05:37:16 | 52.41631 | 8.71809 | 150° | 7km/h | 27762m | -38.5m/s | -47.8°C | 0.1% | 17.6hPa | 2.5V | 08:28:57 | 02:05:46 | 00:00:00 | |
| AA1-15 | 2026-09-03 05:37:15 | 52.41633 | 8.71808 | 172° | 9km/h | 27801m | -39.7m/s | -47.6°C | 0.1% | 17.5hPa | 2.6V | 08:28:57 | 02:05:45 | 00:00:00 | |
| DL1XH-west | 2026-09-03 05:37:14 | 52.41635 | 8.71806 | 129° | 7km/h | 27840m | -39.3m/s | -47.4°C | 0% | 17.4hPa | 2.6V | 08:28:57 | 02:05:44 | 00:00:00 | |
| SONDE2-11 | 2026-09-03 05:37:12 | 52.41637 | 8.71802 | 108° | 7km/h | 27918m | -39.8m/s | -47.3°C | 0.7% | 17.2hPa | 2.6V | 00:00:00 | 00:00:00 | 00:00:00 | |
| DB0DAN | 2026-09-03 05:37:10 | 52.41638 | 8.71794 | 96° | 13km/h | 27996m | -40.1m/s | -47.4°C | 0.8% | 17.01hPa | 2.6V | 00:00:00 | 00:00:00 | 00:00:00 | |
| BIOWL1-15 | 2026-09-03 05:37:09 | 52.41638 | 8.71788 | 87° | 16km/h | 28037m | -41m/s | -47.3°C | 0.1% | 16.9hPa | 2.6V | 08:28:57 | 02:05:39 | 00:00:00 | |
| DL1XH1-15 | 2026-09-03 05:37:08 | 52.41641 | 8.71731 | 103° | 27km/h | 28280m | -40.7m/s | -47.3°C | 3.3% | 16.3hPa | 2.6V | 08:28:21 | 02:05:33 | 00:00:00 | |
| DO2JMG | 2026-09-03 05:37:08 | 52.41638 | 8.71781 | 98° | 18km/h | 28077m | -40.4m/s | -47.2°C | 0.1% | 16.9hPa | 2.6V | 08:28:57 | 02:05:38 | 00:00:00 | |
| DF8AY | 2026-09-03 05:37:05 | 52.41639 | 8.71752 | 91° | 29km/h | 28199m | -40.6m/s | -46.8°C | 0% | 16.5hPa | 2.6V | 08:28:57 | 02:05:35 | 00:00:00 | |
| DL1XH-west | 2026-09-03 05:37:04 | 52.41640 | 8.71741 | 98° | 26km/h | 28239m | -40.6m/s | -47°C | 0% | 16.4hPa | 2.6V | 08:28:57 | 02:05:34 | 00:00:00 | |
| BIOWL1-15 | 2026-09-03 05:36:58 | 52.41695 | 8.71657 | 161° | 27km/h | 28737m | -42.5m/s | -45.1°C | 0% | 15.2hPa | 2.6V | 08:28:57 | 02:05:22 | 00:00:00 | |
| DL1XH1-15 | 2026-09-03 05:36:58 | 52.41687 | 8.71660 | 165° | 29km/h | 28694m | -42m/s | -45.2°C | 2.8% | 15.3hPa | 2.6V | 08:28:31 | 02:05:23 | 00:00:00 | |
| DO2JMG | 2026-09-03 05:36:57 | 52.41662 | 8.71681 | 142° | 29km/h | 28527m | -40.9m/s | -46.5°C | 0.1% | 15.7hPa | 2.6V | 08:28:57 | 02:05:27 | 00:00:00 | |
| DF8AY | 2026-09-03 05:36:55 | 52.41674 | 8.71669 | 154° | 29km/h | 28610m | -41.9m/s | -45.7°C | 0% | 15.5hPa | 2.5V | 08:28:57 | 02:05:25 | 00:00:00 | |
| DB0DAN | 2026-09-03 05:36:55 | 52.41674 | 8.71669 | 154° | 27km/h | 28610m | -41.9m/s | -45.7°C | 0.7% | 15.46hPa | 2.5V | 00:00:00 | 00:00:00 | 00:00:00 | |
| AA1-15 | 2026-09-03 05:36:54 | 52.41681 | 8.71664 | 157° | 27km/h | 28652m | -41.8m/s | -45.4°C | 0% | 15.4hPa | 2.6V | 08:28:57 | 02:05:24 | 00:00:00 | |
| DL1XH-west | 2026-09-03 05:36:53 | 52.41687 | 8.71660 | 166° | 29km/h | 28694m | -42m/s | -45.2°C | 0% | 15.3hPa | 2.6V | 08:28:57 | 02:05:23 | 00:00:00 | |
| DL1LOL-11 | 2026-09-03 05:36:51 | 52.41701 | 8.71653 | 167° | 26km/h | 28780m | -42.4m/s | -45.0°C | 0.6% | 15.1hPa | 2.6V | 08:28:00 | 00:00:00 | 00:00:00 | |
| DO3MHA-12 | 2026-09-03 05:36:50 | 52.41708 | 8.71651 | 173° | 22km/h | 28822m | -42.3m/s | -44.7°C | 2.7% | 15.0hPa | 2.6V | 08:28:00 | 02:05:20 | 00:00:00 | |
| SMARD9-10 | 2026-09-03 05:36:49 | 52.41708 | 8.71651 | 173° | 26km/h | 28822m | -42.4m/s | -44.7°C | 0.6% | 15.0hPa | 2.6V | 00:00:00 | 00:00:00 | 00:00:00 | |
| DL1XH1-15 | 2026-09-03 05:36:48 | 52.41749 | 8.71636 | 150° | 18km/h | 29125m | -43.7m/s | -44.1°C | 2.5% | 14.3hPa | 2.6V | 08:28:41 | 02:05:13 | 00:00:00 | |
| BIOWL1-15 | 2026-09-03 05:36:46 | 52.41734 | 8.71643 | 167° | 24km/h | 28994m | -44.1m/s | -44°C | 0% | 14.6hPa | 2.5V | 08:28:57 | 02:05:16 | 00:00:00 | |
| DF8AY | 2026-09-03 05:36:44 | 52.41744 | 8.71639 | 162° | 20km/h | 29081m | -44.1m/s | -44°C | 0% | 14.4hPa | 2.6V | 08:28:57 | 02:05:14 | 00:00:00 | |
| DM0DOS-11 | 2026-09-03 05:36:44 | 52.41763 | 8.71621 | 138° | 15km/h | 29295m | -41.6m/s | -44.3°C | 2.6% | 13.9hPa | 2.6V | 08:28:45 | 02:05:09 | 00:00:00 | |
| AA1-15 | 2026-09-03 05:36:43 | 52.41749 | 8.71636 | 151° | 20km/h | 29125m | -43.7m/s | -44.1°C | 0% | 14.3hPa | 2.6V | 08:28:57 | 02:05:13 | 00:00:00 | |
| DL1XH-west | 2026-09-03 05:36:42 | 52.41753 | 8.71632 | 151° | 20km/h | 29168m | -43.6m/s | -44.2°C | 0% | 14.2hPa | 2.6V | 08:28:57 | 02:05:12 | 00:00:00 | |
| DO3DL | 2026-09-03 05:36:41 | 52.41753 | 8.71632 | 152° | 20km/h | 29168m | -43.6m/s | -44.2°C | 0.6% | 14.2hPa | 2.5V | 08:28:00 | 00:00:00 | 00:00:00 | |
| DB0DAN | 2026-09-03 05:36:40 | 52.41760 | 8.71625 | 143° | 15km/h | 29253m | -42.6m/s | -44.2°C | 0.6% | 14.05hPa | 2.5V | 00:00:00 | 00:00:00 | 00:00:00 | |
| DO3MHA-12 | 2026-09-03 05:36:40 | 52.41760 | 8.71625 | 143° | 15km/h | 29254m | -42.5m/s | -44.2°C | 2.6% | 14.0hPa | 2.6V | 00:00:00 | 02:05:10 | 00:00:00 | |
| DL1XH1-15 | 2026-09-03 05:36:38 | 52.41778 | 8.71602 | 151° | 16km/h | 29551m | -45.9m/s | -44.6°C | 2.8% | 13.5hPa | 2.6V | 08:28:51 | 02:05:03 | 00:00:00 | |
| DO2SHX-10 | 2026-09-03 05:36:38 | 52.41765 | 8.71617 | 137° | 13km/h | 29337m | -42.0m/s | -44.3°C | 2.7% | 13.8hPa | 2.6V | 00:00:00 | 02:05:08 | 00:00:00 | |
| DL1XH-15 | 2026-09-03 05:36:37 | 52.41782 | 8.71599 | 146° | 15km/h | 29596m | -45m/s | -44.5°C | 2.7% | 13.3hPa | 2.6V | 08:28:52 | 02:05:02 | 00:00:00 | |
| BIOWL1-15 | 2026-09-03 05:36:36 | 52.41770 | 8.71610 | 140° | 15km/h | 29421m | -42m/s | -44.5°C | 0% | 13.7hPa | 2.6V | 08:28:57 | 02:05:06 | 00:00:00 | |
| DO3DL | 2026-09-03 05:36:36 | 52.41770 | 8.71610 | 141° | 15km/h | 29421m | -42.0m/s | -44.5°C | 0.6% | 13.7hPa | 2.5V | 08:28:00 | 00:00:00 | 00:00:00 | |
| GOEST3-10 | 2026-09-03 05:36:35 | 52.41773 | 8.71607 | 149° | 15km/h | 29463m | -42.3m/s | -44.5°C | 2.7% | 13.6hPa | 2.5V | 00:00:00 | 02:05:05 | 00:00:00 | |
| DM0DOS-11 | 2026-09-03 05:36:34 | 52.41792 | 8.71593 | 160° | 15km/h | 29733m | -46m/s | -44.7°C | 2.9% | 13.1hPa | 2.5V | 08:28:55 | 02:04:59 | 00:00:00 | |
| DF8AY | 2026-09-03 05:36:33 | 52.41778 | 8.71602 | 151° | 16km/h | 29551m | -45.9m/s | -44.6°C | 0% | 13.5hPa | 2.6V | 08:28:57 | 02:05:03 | 00:00:00 | |
| DL1XH-west | 2026-09-03 05:36:32 | 52.41782 | 8.71599 | 147° | 15km/h | 29596m | -45m/s | -44.5°C | 0% | 13.3hPa | 2.6V | 08:28:57 | 02:05:02 | 00:00:00 | |
| BIOWL1-15 | 2026-09-03 05:36:31 | 52.41804 | 8.71592 | 168° | 11km/h | 29912m | -43.4m/s | -44.4°C | 0% | 12.7hPa | 2.6V | 08:29:48 | 02:04:55 | 00:00:00 | |
| DL3AQ-11 | 2026-09-03 05:36:30 | 52.41792 | 8.71593 | 160° | 13km/h | 29733m | -46.0m/s | -44.7°C | 0.7% | 13.1hPa | 2.5V | 00:00:00 | 00:00:00 | 00:00:00 | |
| DO2SHX-10 | 2026-09-03 05:36:29 | 52.41792 | 8.71593 | 161° | 15km/h | 29733m | -45.9m/s | -44.6°C | 2.9% | 13.0hPa | 2.5V | 00:00:00 | 02:04:59 | 00:00:00 | |
| DL1XH1-15 | 2026-09-03 05:36:28 | 52.41809 | 8.71590 | 142° | 9km/h | 29996m | -42.7m/s | -44°C | 2.7% | 12.6hPa | 2.5V | 08:29:01 | 02:04:53 | 00:00:00 | |
| S3001 | 2026-09-03 05:36:28 | 52.41807 | 8.71591 | 175° | 9km/h | 29955m | -41.3m/s | -44.2°C | 0.6% | 12.6hPa | 2.5V | 00:00:00 | 00:00:00 | 00:00:00 | |
| DL1XH-15 | 2026-09-03 05:36:27 | 52.41810 | 8.71588 | 122° | 7km/h | 30039m | -44.5m/s | -44°C | 2.7% | 12.4hPa | 2.5V | 08:29:02 | 02:04:52 | 00:00:00 | |
| DO2JMG | 2026-09-03 05:36:26 | 52.41801 | 8.71592 | 172° | 11km/h | 29869m | -44m/s | -44.5°C | 0% | 12.8hPa | 2.6V | 08:29:48 | 02:04:56 | 00:00:00 | |
| SMARD9-15 | 2026-09-03 05:36:26 | 52.41804 | 8.71592 | 168° | 9km/h | 29912m | -43.4m/s | -44.4°C | 0.6% | 12.7hPa | 2.6V | 00:00:00 | 00:00:00 | 00:00:00 | |
| GOEST3-10 | 2026-09-03 05:36:25 | 52.41804 | 8.71592 | 169° | 9km/h | 29912m | -43.4m/s | -44.3°C | 2.8% | 12.7hPa | 2.6V | 00:00:00 | 02:04:55 | 00:00:00 | |
| DM0DOS-11 | 2026-09-03 05:36:24 | 52.41817 | 8.71578 | 140° | 15km/h | 30171m | -44.9m/s | -43.9°C | 2.8% | 12.2hPa | 2.6V | 08:29:05 | 02:04:49 | 00:00:00 | |
| AA1-15 | 2026-09-03 05:36:22 | 52.41810 | 8.71588 | 123° | 7km/h | 30039m | -44.5m/s | -44°C | 0% | 12.4hPa | 2.5V | 08:29:48 | 02:04:52 | 00:00:00 | |
| DL1XH-west | 2026-09-03 05:36:21 | 52.41812 | 8.71586 | 141° | 9km/h | 30083m | -44m/s | -44°C | 0% | 12.3hPa | 2.6V | 08:29:48 | 02:04:51 | 00:00:00 | |
| DL1CLM-18 | 2026-09-03 05:36:20 | 52.41814 | 8.71582 | 140° | 15km/h | 30127m | -43.9m/s | -43.9°C | 0.6% | 12.3hPa | 2.5V | 08:29:00 | 00:00:00 | 00:00:00 | |
| D01LWL | 2026-09-03 05:36:19 | 52.41817 | 8.71578 | 140° | 13km/h | 30171m | -44.9m/s | -43.9°C | 0.6% | 12.2hPa | 2.5V | 00:00:00 | 00:00:00 | 00:00:00 | |
| DL1XH1-15 | 2026-09-03 05:36:18 | 52.41842 | 8.71550 | 133° | 20km/h | 30444m | -45.6m/s | -43.2°C | 2.7% | 11.7hPa | 2.5V | 08:29:11 | 02:04:43 | 00:00:00 | |
| DL1XH-15 | 2026-09-03 05:36:17 | 52.41846 | 8.71544 | 127° | 18km/h | 30489m | -46m/s | -43.2°C | 2.7% | 11.6hPa | 2.6V | 08:29:12 | 02:04:42 | 00:00:00 | |
| DO2JMG | 2026-09-03 05:36:15 | 52.41834 | 8.71560 | 148° | 20km/h | 30353m | -46.2m/s | -43.6°C | 0% | 11.9hPa | 2.6V | 08:29:48 | 02:04:45 | 00:00:00 | |
| DJ2DS-15 | 2026-09-03 05:36:15 | 52.41834 | 8.71560 | 148° | 20km/h | 30354m | -46.2m/s | -43.6°C | 2.8% | 11.8hPa | 2.6V | 00:00:00 | 02:04:45 | 00:00:00 | |
| DM0DOS-11 | 2026-09-03 05:36:14 | 52.41857 | 8.71529 | 149° | 20km/h | 30626m | -45.5m/s | -42.2°C | 2.6% | 11.4hPa | 2.6V | 08:29:15 | 02:04:39 | 00:00:00 | |
| AA1-15 | 2026-09-03 05:36:12 | 52.41846 | 8.71544 | 128° | 18km/h | 30489m | -46m/s | -43.2°C | 0% | 11.6hPa | 2.6V | 08:29:48 | 02:04:42 | 00:00:00 | |
| DL1XH-west | 2026-09-03 05:36:11 | 52.41849 | 8.71538 | 138° | 18km/h | 30535m | -45.7m/s | -43°C | 0% | 11.5hPa | 2.6V | 08:29:48 | 02:04:41 | 00:00:00 | |
| DB0DAN | 2026-09-03 05:36:10 | 52.41853 | 8.71534 | 145° | 18km/h | 30580m | -46.1m/s | -42.6°C | 0.6% | 11.47hPa | 2.6V | 00:00:00 | 00:00:00 | 00:00:00 | |
| DO3MHA-12 | 2026-09-03 05:36:10 | 52.41853 | 8.71534 | 146° | 22km/h | 30581m | -46.1m/s | -42.6°C | 2.7% | 11.4hPa | 2.6V | 00:00:00 | 02:04:40 | 00:00:00 | |
| DO3DL | 2026-09-03 05:36:09 | 52.41853 | 8.71534 | 146° | 18km/h | 30581m | -46.1m/s | -42.6°C | 0.6% | 11.5hPa | 2.6V | 08:29:00 | 00:00:00 | 00:00:00 | |
| DL1XH1-15 | 2026-09-03 05:36:08 | 52.41886 | 8.71511 | 172° | 24km/h | 30905m | -49.1m/s | -41.2°C | 2.4% | 10.9hPa | 2.6V | 08:29:21 | 02:04:33 | 00:00:00 | |
| DL1XH-15 | 2026-09-03 05:36:07 | 52.41891 | 8.71510 | 175° | 22km/h | 30955m | -50.5m/s | -41.1°C | 2.4% | 10.8hPa | 2.5V | 08:29:22 | 02:04:32 | 00:00:00 | |
| DO2JMG | 2026-09-03 05:36:05 | 52.41876 | 8.71515 | 169° | 22km/h | 30810m | -47.2m/s | -41.4°C | 0% | 11.2hPa | 2.6V | 08:29:48 | 02:04:35 | 00:00:00 | |
| BIOWL1-15 | 2026-09-03 05:36:04 | 52.41881 | 8.71513 | 167° | 20km/h | 30857m | -47.2m/s | -41.3°C | 0% | 11hPa | 2.6V | 08:29:48 | 02:04:34 | 00:00:00 | |
| DL1XH-west | 2026-09-03 05:36:01 | 52.41897 | 8.71510 | 175° | 24km/h | 31005m | -51m/s | -41°C | 0% | 10.8hPa | 2.6V | 08:29:48 | 02:04:31 | 00:00:00 | |
| HSKMA3-T | 2026-09-03 05:36:00 | 52.41903 | 8.71509 | 169° | 22km/h | 31056m | -50.3m/s | -41°C | 0% | 10.7hPa | 2.6V | 08:29:48 | 02:04:30 | 00:00:00 | |
| DO3MHA-12 | 2026-09-03 05:36:00 | 52.41903 | 8.71509 | 170° | 15km/h | 31056m | -50.2m/s | -40.9°C | 2.4% | 10.7hPa | 2.6V | 00:00:00 | 02:04:30 | 00:00:00 | |
| DL1XH1-15 | 2026-09-03 05:35:59 | 52.41936 | 8.71514 | 192° | 7km/h | 31411m | -50.4m/s | -40.5°C | 2.4% | 10.1hPa | 2.6V | 08:29:31 | 02:04:23 | 00:00:00 | |
| DL1XH-15 | 2026-09-03 05:35:57 | 52.41938 | 8.71514 | 180° | 4km/h | 31461m | -50m/s | -40.6°C | 2.4% | 10.1hPa | 2.5V | 08:29:32 | 02:04:22 | 00:00:00 | |
| S3001 | 2026-09-03 05:35:57 | 52.41926 | 8.71509 | 182° | 18km/h | 31259m | -51.4m/s | -40.6°C | 0.5% | 10.3hPa | 2.6V | 00:00:00 | 00:00:00 | 00:00:00 | |
| DL1LOL-11 | 2026-09-03 05:35:56 | 52.41921 | 8.71508 | 190° | 22km/h | 31208m | -51.1m/s | -40.8°C | 0.5% | 10.4hPa | 2.6V | 08:29:00 | 00:00:00 | 00:00:00 | |
| DB0DAN | 2026-09-03 05:35:55 | 52.41930 | 8.71510 | 200° | 13km/h | 31310m | -51.2m/s | -40.5°C | 0.5% | 10.28hPa | 2.6V | 00:00:00 | 00:00:00 | 00:00:00 | |
| BIOWL1-15 | 2026-09-03 05:35:54 | 52.41934 | 8.71512 | 208° | 13km/h | 31361m | -50.9m/s | -40.5°C | 0% | 10.2hPa | 2.6V | 08:29:48 | 02:04:24 | 00:00:00 | |
| AA1-15 | 2026-09-03 05:35:51 | 52.41939 | 8.71514 | 151° | 4km/h | 31511m | -49.9m/s | -40.7°C | 0% | 10hPa | 2.6V | 08:29:48 | 02:04:21 | 00:00:00 | |
| DL1XH-west | 2026-09-03 05:35:50 | 52.41940 | 8.71513 | 144° | 7km/h | 31561m | -49m/s | -40.6°C | 0% | 9.9hPa | 2.6V | 08:29:48 | 02:04:20 | 00:00:00 | |
| DF8AY | 2026-09-03 05:35:49 | 52.41941 | 8.71510 | 135° | 11km/h | 31609m | -48.9m/s | -40.4°C | 0% | 9.8hPa | 2.6V | 08:29:48 | 02:04:19 | 00:00:00 | |
| D01LWL | 2026-09-03 05:35:49 | 52.41944 | 8.71508 | 146° | 11km/h | 31658m | -47.7m/s | -40.3°C | 0.5% | 9.7hPa | 2.6V | 00:00:00 | 00:00:00 | 00:00:00 | |
| DL1XH1-15 | 2026-09-03 05:35:48 | 52.41959 | 8.71511 | 213° | 16km/h | 31887m | -45m/s | -39.5°C | 2.4% | 9.4hPa | 2.6V | 08:29:41 | 02:04:13 | 00:00:00 | |
| DL1XH-15 | 2026-09-03 05:35:46 | 52.41964 | 8.71518 | 216° | 7km/h | 31979m | -48.1m/s | -38.9°C | 2.4% | 9.2hPa | 2.5V | 08:29:43 | 02:04:11 | 00:00:00 | |
| DJ2DS-15 | 2026-09-03 05:35:46 | 52.41956 | 8.71507 | 204° | 15km/h | 31842m | -46.0m/s | -39.7°C | 0.5% | 9.5hPa | 2.6V | 00:00:00 | 00:00:00 | 00:00:00 | |
| BUE01 | 2026-09-03 05:35:45 | 52.41956 | 8.71507 | 204° | 15km/h | 31842m | -46.0m/s | -39.7°C | 0.5% | 9.5hPa | 2.6V | 00:00:00 | 00:00:00 | 00:00:00 | |
| DM0DOS-11 | 2026-09-03 05:35:44 | 52.41967 | 8.71519 | 159° | 4km/h | 32075m | -48m/s | -38.2°C | 2.2% | 9.1hPa | 2.6V | 08:29:45 | 02:04:09 | 00:00:00 | |
| BIOWL1-15 | 2026-09-03 05:35:43 | 52.41959 | 8.71511 | 213° | 16km/h | 31887m | -45.1m/s | -39.5°C | 0% | 9.4hPa | 2.6V | 08:29:48 | 02:04:13 | 00:00:00 | |
| DL1XH-west | 2026-09-03 05:35:40 | 52.41966 | 8.71519 | 184° | 5km/h | 32027m | -48.7m/s | -38.5°C | 0% | 9.2hPa | 2.5V | 08:29:48 | 02:04:10 | 00:00:00 | |
| HSKMA3-T | 2026-09-03 05:35:39 | 52.41967 | 8.71519 | 160° | 4km/h | 32075m | -48m/s | -38.2°C | 0% | 9.1hPa | 2.6V | 08:29:48 | 02:04:09 | 00:00:00 | |
| DO2KSM | 2026-09-03 05:35:38 | 52.41967 | 8.71519 | 161° | 4km/h | 32076m | -48.0m/s | -38.2°C | 0.4% | 9.1hPa | 2.5V | 08:29:00 | 00:00:00 | 00:00:00 | |
| DL3AQ-11 | 2026-09-03 05:35:37 | 52.41972 | 8.71504 | 117° | 15km/h | 32272m | -51.9m/s | -37.4°C | 0.4% | 8.9hPa | 2.5V | 00:00:00 | 00:00:00 | 00:00:00 | |
| DL1XH-15 | 2026-09-03 05:35:36 | 52.41979 | 8.71497 | 149° | 7km/h | 32523m | -68.1m/s | -36.2°C | 1.9% | 8.7hPa | 2.5V | 08:30:00 | 02:04:01 | 00:00:00 | |
| EDDB2-12 | 2026-09-03 05:35:36 | 52.41972 | 8.71504 | 117° | 15km/h | 32272m | -51.9m/s | -37.4°C | 0.4% | 8.9hPa | 2.6V | 00:00:00 | 00:00:00 | 00:00:00 | |
| DJ2DS-15 | 2026-09-03 05:35:35 | 52.41972 | 8.71504 | 118° | 7km/h | 32273m | -51.8m/s | -37.4°C | 2.1% | 8.8hPa | 2.6V | 00:00:00 | 02:04:05 | 00:00:00 | |
| DM0DOS-11 | 2026-09-03 05:35:34 | 52.41981 | 8.71495 | 130° | 4km/h | 32664m | -72.1m/s | -35.5°C | 1.8% | 8.5hPa | 2.6V | 08:30:00 | 02:03:59 | 00:00:00 | |
| BIOWL1-15 | 2026-09-03 05:35:34 | 52.41977 | 8.71498 | 178° | 7km/h | 32457m | -65.7m/s | -36.6°C | 0% | 8.7hPa | 2.6V | 18:12:15 | 02:04:02 | 00:00:00 | |
| DO2JMG | 2026-09-03 05:35:33 | 52.41975 | 8.71498 | 158° | 7km/h | 32392m | -65.1m/s | -36.9°C | 0% | 8.8hPa | 2.6V | 18:12:15 | 02:04:03 | 00:00:00 | |
| DL1XH-west | 2026-09-03 05:35:29 | 52.41981 | 8.71495 | 131° | 4km/h | 32664m | -72.1m/s | -35.5°C | 0% | 8.5hPa | 2.6V | 18:12:15 | 02:03:59 | 00:00:00 | |
| DJTTGO | 2026-09-03 05:35:29 | 52.41981 | 8.71495 | 132° | 4km/h | 32665m | -72.1m/s | -35.5°C | 0.3% | 8.5hPa | 2.6V | 00:00:00 | 00:00:00 | 00:00:00 | |
| HSKMA3-T | 2026-09-03 05:35:28 | 52.41982 | 8.71493 | 103° | 7km/h | 32736m | -70.3m/s | -35.5°C | 0% | 8.4hPa | 2.6V | 18:12:15 | 02:03:58 | 00:00:00 | |
| DL8OAI-8 | 2026-09-03 05:35:28 | 52.41981 | 8.71495 | 132° | 4km/h | 32665m | -72.1m/s | -35.5°C | 0.4% | 8.5hPa | 2.6V | 00:00:00 | 00:00:00 | 00:00:00 | |
| DL1XH-15 | 2026-09-03 05:35:27 | 52.41986 | 8.71476 | 117° | 4km/h | 33194m | -64.9m/s | -34°C | 1.6% | 7.8hPa | 2.6V | 08:30:00 | 02:03:51 | 00:00:00 | |
| S3001 | 2026-09-03 05:35:26 | 52.41983 | 8.71485 | 102° | 9km/h | 32935m | -63.9m/s | -35.2°C | 0.3% | 8.1hPa | 2.6V | 00:00:00 | 00:00:00 | 00:00:00 | |
| GOEST3-10 | 2026-09-03 05:35:25 | 52.41983 | 8.71485 | 103° | 7km/h | 32936m | -63.9m/s | -35.1°C | 1.8% | 8.0hPa | 2.6V | 00:00:00 | 02:03:55 | 00:00:00 | |
| DB0DAN | 2026-09-03 05:35:25 | 52.41983 | 8.71485 | 102° | 9km/h | 32935m | -63.9m/s | -35.2°C | 0.3% | 8.1hPa | 2.6V | 00:00:00 | 00:00:00 | 00:00:00 | |
| DM0DOS-11 | 2026-09-03 05:35:24 | 52.41987 | 8.71473 | 110° | 7km/h | 33326m | -66.7m/s | -34.1°C | 1.6% | 7.6hPa | 2.6V | 08:30:00 | 02:03:49 | 00:00:00 | |
| BIOWL1-15 | 2026-09-03 05:35:22 | 52.41985 | 8.71478 | 142° | 9km/h | 33129m | -65.6m/s | -34.2°C | 0% | 7.9hPa | 2.6V | 18:12:15 | 02:03:52 | 00:00:00 | |
| DL1XH-west | 2026-09-03 05:35:19 | 52.41987 | 8.71473 | 110° | 7km/h | 33327m | -66.7m/s | -34.1°C | 0% | 7.6hPa | 2.6V | 18:12:15 | 02:03:49 | 00:00:00 | |
| DF8AY | 2026-09-03 05:35:18 | 52.41987 | 8.71470 | 108° | 9km/h | 33392m | -64.4m/s | -34.4°C | 0% | 7.6hPa | 2.6V | 18:12:15 | 02:03:48 | 00:00:00 | |
| HSKMA3-T | 2026-09-03 05:35:17 | 52.41988 | 8.71466 | 121° | 11km/h | 33456m | -62.9m/s | -34.7°C | 0% | 7.5hPa | 2.7V | 18:12:15 | 02:03:47 | 00:00:00 | |
| DL1XH-15 | 2026-09-03 05:35:16 | 52.42001 | 8.71446 | 142° | 11km/h | 33796m | -49.4m/s | -34.1°C | 1.7% | 7.1hPa | 2.6V | 08:30:00 | 02:03:41 | 00:00:00 | |
| DL4BBY-15 | 2026-09-03 05:35:16 | 52.41990 | 8.71462 | 123° | 15km/h | 33518m | -61.1m/s | -33.5°C | 0% | 0hPa | 2.6V | 00:00:00 | 00:00:00 | 00:00:00 | |
| DJ2DS-15 | 2026-09-03 05:35:15 | 52.41991 | 8.71459 | 133° | 16km/h | 33578m | -59.0m/s | -34.7°C | 1.8% | 7.3hPa | 2.6V | 00:00:00 | 02:03:45 | 00:00:00 | |
| DM0DOS-11 | 2026-09-03 05:35:14 | 52.42003 | 8.71441 | 94° | 4km/h | 33897m | -54.7m/s | -33.6°C | 1.6% | 7hPa | 2.6V | 08:30:00 | 02:03:39 | 00:00:00 | |
| DO2JMG | 2026-09-03 05:35:12 | 52.41998 | 8.71449 | 138° | 11km/h | 33745m | -52m/s | -34.2°C | 0% | 7.1hPa | 2.6V | 18:12:15 | 02:03:42 | 00:00:00 | |
| BIOWL1-15 | 2026-09-03 05:35:11 | 52.42000 | 8.71446 | 142° | 11km/h | 33796m | -49.4m/s | -34.1°C | 0% | 7.1hPa | 2.6V | 18:12:15 | 02:03:41 | 00:00:00 | |
| DB0DAN | 2026-09-03 05:35:10 | 52.42002 | 8.71443 | 126° | 9km/h | 33845m | -48.4m/s | -33.9°C | 0.3% | 7.02hPa | 2.6V | 00:00:00 | 00:00:00 | 00:00:00 | |
| DL1XH-west | 2026-09-03 05:35:08 | 52.42003 | 8.71439 | 89° | 7km/h | 33952m | -56.7m/s | -33.3°C | 0% | 7hPa | 2.7V | 18:12:15 | 02:03:38 | 00:00:00 | |
| DF8AY | 2026-09-03 05:35:07 | 52.42003 | 8.71434 | 95° | 13km/h | 34010m | -58.3m/s | -33.2°C | 0% | 6.8hPa | 2.6V | 18:12:15 | 02:03:37 | 00:00:00 | |
| HSKMA3-T | 2026-09-03 05:35:06 | 52.42003 | 8.71429 | 100° | 15km/h | 34067m | -58.1m/s | -33.3°C | 0% | 6.8hPa | 2.6V | 18:12:15 | 02:03:36 | 00:00:00 | |
| EDDB2-12 | 2026-09-03 05:35:05 | 52.42008 | 8.71417 | 133° | 24km/h | 34181m | -57.2m/s | -33.3°C | 0.3% | 6.7hPa | 2.6V | 00:00:00 | 00:00:00 | 00:00:00 | |
| DM0DOS-11 | 2026-09-03 05:35:04 | 52.42027 | 8.71424 | 224° | 20km/h | 34455m | -43.4m/s | -33.5°C | 1.6% | 6.3hPa | 2.6V | 08:30:00 | 02:03:29 | 00:00:00 | |
| DO2JMG | 2026-09-03 05:35:01 | 52.42020 | 8.71414 | 221° | 18km/h | 34354m | -58.1m/s | -33°C | 0% | 6.5hPa | 2.7V | 18:12:15 | 02:03:31 | 00:00:00 | |
| BIOWL1-15 | 2026-09-03 05:35:00 | 52.42023 | 8.71419 | 220° | 18km/h | 34408m | -50.6m/s | -33.3°C | 0% | 6.4hPa | 2.7V | 18:12:15 | 02:03:30 | 00:00:00 | |
| SONCRA | 2026-09-03 05:34:59 | 52.42031 | 8.71431 | 226° | 20km/h | 34494m | -35.1m/s | -33.6°C | 0.3% | 6.3hPa | 2.6V | 00:00:00 | 00:00:00 | 00:00:00 | |
| DL1XH1-15 | 2026-09-03 05:34:58 | 52.42027 | 8.71439 | 26° | 24km/h | 34560m | 8.3m/s | -33.5°C | 1.6% | 6.2hPa | 2.6V | 08:30:00 | 02:03:23 | 00:00:00 | |
| DL1XH-west | 2026-09-03 05:34:58 | 52.42031 | 8.71431 | 227° | 22km/h | 34494m | -35.1m/s | -33.6°C | 0% | 6.3hPa | 2.6V | 18:12:15 | 02:03:28 | 00:00:00 | |
| AA1-15 | 2026-09-03 05:34:57 | 52.42034 | 8.71437 | 232° | 18km/h | 34525m | -26.8m/s | -33.5°C | 0% | 6.3hPa | 2.6V | 18:12:15 | 02:03:27 | 00:00:00 | |
| HSKMA3-T | 2026-09-03 05:34:56 | 52.42037 | 8.71443 | 237° | 18km/h | 34547m | -17.8m/s | -33.4°C | 0% | 6.2hPa | 2.7V | 18:12:15 | 02:03:26 | 00:00:00 | |
| S3001 | 2026-09-03 05:34:55 | 52.42022 | 8.71435 | 30° | 15km/h | 34554m | 5.1m/s | -33.6°C | 0.3% | 6.2hPa | 2.6V | 00:00:00 | 00:00:00 | 00:00:00 | |
| DM0DOS-11 | 2026-09-03 05:34:54 | 52.42021 | 8.71430 | 167° | 9km/h | 34533m | 6.5m/s | -33.6°C | 1.6% | 6.2hPa | 2.6V | 08:30:00 | 02:03:19 | 00:00:00 | |
| BIOWL1-15 | 2026-09-03 05:34:52 | 52.42020 | 8.71431 | 129° | 4km/h | 34540m | 7.7m/s | -33.7°C | 0% | 6.2hPa | 2.7V | 18:12:15 | 02:03:20 | 00:00:00 | |
| DO2JMG | 2026-09-03 05:34:51 | 52.42020 | 8.71432 | 40° | 7km/h | 34548m | 6.8m/s | -33.7°C | 0% | 6.2hPa | 2.7V | 18:12:15 | 02:03:21 | 00:00:00 | |
| DF7PN | 2026-09-03 05:34:50 | 52.42020 | 8.71431 | 128° | 2km/h | 34541m | 7.7m/s | -33.7°C | 0.3% | 6.2hPa | 2.7V | 00:00:00 | 00:00:00 | 00:00:00 | |
| DO1YAY-16 | 2026-09-03 05:34:49 | 52.42021 | 8.71430 | 167° | 7km/h | 34533m | 6.5m/s | -33.6°C | 0.3% | 6.2hPa | 2.7V | 00:00:00 | 00:00:00 | 00:00:00 | |
| DL1XH1-15 | 2026-09-03 05:34:48 | 52.42023 | 8.71392 | 67° | 29km/h | 34498m | 4.7m/s | -33.7°C | 1.6% | 6.3hPa | 2.7V | 08:30:00 | 02:03:13 | 00:00:00 | |
| DL1XH-west | 2026-09-03 05:34:47 | 52.42026 | 8.71426 | 129° | 13km/h | 34522m | 5.1m/s | -33.7°C | 0% | 6.3hPa | 2.7V | 18:12:15 | 02:03:17 | 00:00:00 | |
| HSKMA3-T | 2026-09-03 05:34:46 | 52.42027 | 8.71420 | 102° | 16km/h | 34516m | 7m/s | -33.8°C | 0% | 6.2hPa | 2.7V | 18:12:15 | 02:03:16 | 00:00:00 | |
| DF8AY | 2026-09-03 05:34:45 | 52.42027 | 8.71413 | 81° | 22km/h | 34509m | 6.9m/s | -33.7°C | 0% | 6.2hPa | 2.6V | 18:12:15 | 02:03:15 | 00:00:00 | |
| DO2JMG | 2026-09-03 05:34:41 | 52.42018 | 8.71372 | 74° | 20km/h | 34487m | 6.8m/s | -33.7°C | 0% | 6.3hPa | 2.7V | 18:12:15 | 02:03:11 | 00:00:00 | |
| DB0DAN | 2026-09-03 05:34:40 | 52.42018 | 8.71366 | 93° | 13km/h | 34480m | 7.1m/s | -33.7°C | 0.3% | 6.26hPa | 2.6V | 00:00:00 | 00:00:00 | 00:00:00 | |
| BIOWL1-15 | 2026-09-03 05:34:39 | 52.42019 | 8.71361 | 126° | 11km/h | 34473m | 6.3m/s | -33.8°C | 0% | 6.3hPa | 2.6V | 18:12:15 | 02:03:09 | 00:00:00 | |
| DL1XH-west | 2026-09-03 05:34:36 | 52.42025 | 8.71351 | 117° | 11km/h | 34456m | 6.1m/s | -33.8°C | 0% | 6.3hPa | 2.7V | 18:12:15 | 02:03:06 | 00:00:00 | |
| HSKMA3-T | 2026-09-03 05:34:35 | 52.42026 | 8.71346 | 90° | 15km/h | 34449m | 6.9m/s | -33.8°C | 0% | 6.3hPa | 2.7V | 18:12:15 | 02:03:05 | 00:00:00 | |
| DF8AY | 2026-09-03 05:34:34 | 52.42025 | 8.71339 | 71° | 20km/h | 34442m | 6.2m/s | -33.7°C | 0% | 6.3hPa | 2.6V | 18:12:15 | 02:03:04 | 00:00:00 | |
| DO2JMG | 2026-09-03 05:34:30 | 52.42016 | 8.71304 | 75° | 18km/h | 34418m | 6.6m/s | -33.6°C | 0% | 6.4hPa | 2.7V | 18:12:15 | 02:03:00 | 00:00:00 | |
| BIOWL1-15 | 2026-09-03 05:34:30 | 52.42014 | 8.71292 | 82° | 13km/h | 34406m | 5.7m/s | -33.7°C | 0% | 6.3hPa | 2.6V | 18:12:15 | 02:02:58 | 00:00:00 | |
| DL3AQ-11 | 2026-09-03 05:34:30 | 52.42015 | 8.71298 | 81° | 15km/h | 34412m | 5.9m/s | -33.6°C | 0.3% | 6.3hPa | 2.7V | 00:00:00 | 00:00:00 | 00:00:00 | |
| SONCRA | 2026-09-03 05:34:28 | 52.42014 | 8.71287 | 75° | 11km/h | 34401m | 5.8m/s | -33.7°C | 0.3% | 6.3hPa | 2.7V | 00:00:00 | 00:00:00 | 00:00:00 | |
| DD1CC8 | 2026-09-03 05:34:27 | 52.42014 | 8.71287 | 75° | 11km/h | 34401m | 5.8m/s | -33.7°C | 0.3% | 6.3hPa | 2.7V | 00:00:00 | 00:00:00 | 00:00:00 | |
| DL1XH-15 | 2026-09-03 05:34:26 | 52.42003 | 8.71247 | 87° | 16km/h | 34363m | 7m/s | -33.7°C | 1.6% | 6.4hPa | 2.7V | 08:30:00 | 02:02:51 | 00:00:00 | |
| DL1XH-west | 2026-09-03 05:34:25 | 52.42011 | 8.71276 | 58° | 18km/h | 34387m | 6.9m/s | -33.7°C | 0% | 6.4hPa | 2.7V | 18:12:15 | 02:02:55 | 00:00:00 | |
| DB0DAN | 2026-09-03 05:34:25 | 52.42011 | 8.71276 | 58° | 16km/h | 34387m | 6.9m/s | -33.7°C | 0.3% | 6.39hPa | 2.7V | 00:00:00 | 00:00:00 | 00:00:00 | |
| DF8AY | 2026-09-03 05:34:24 | 52.42005 | 8.71262 | 61° | 20km/h | 34375m | 5.7m/s | -33.8°C | 0% | 6.3hPa | 2.6V | 18:12:15 | 02:02:53 | 00:00:00 | |
| HSKMA3-T | 2026-09-03 05:34:24 | 52.42008 | 8.71269 | 57° | 20km/h | 34381m | 6.1m/s | -33.7°C | 0% | 6.4hPa | 2.6V | 18:12:15 | 02:02:54 | 00:00:00 | |
| DO2JMG | 2026-09-03 05:34:20 | 52.42003 | 8.71241 | 105° | 16km/h | 34356m | 6.3m/s | -33.8°C | 0% | 6.4hPa | 2.7V | 18:12:15 | 02:02:50 | 00:00:00 | |
| GOEST3-10 | 2026-09-03 05:34:20 | 52.42003 | 8.71240 | 106° | 20km/h | 34356m | 6.2m/s | -33.7°C | 1.6% | 6.3hPa | 2.6V | 00:00:00 | 00:00:00 | 00:00:00 | |
| DF7PN | 2026-09-03 05:34:19 | 52.42004 | 8.71234 | 109° | 16km/h | 34350m | 5.1m/s | -33.8°C | 0% | 6.4hPa | 2.6V | 00:00:00 | 00:00:00 | 00:00:00 | |
| DL1XH1-15 | 2026-09-03 05:34:18 | 52.41994 | 8.71176 | 58° | 29km/h | 34314m | 4.9m/s | -34°C | 1.6% | 6.4hPa | 2.6V | 08:30:00 | 02:02:43 | 00:00:00 | |
| BIOWL1-15 | 2026-09-03 05:34:17 | 52.42006 | 8.71219 | 87° | 22km/h | 34340m | 6.3m/s | -33.9°C | 0% | 6.4hPa | 2.6V | 18:12:15 | 02:02:47 | 00:00:00 | |
| DL3AQ-11 | 2026-09-03 05:34:17 | 52.42005 | 8.71209 | 73° | 26km/h | 34333m | 7.3m/s | -33.9°C | 0.3% | 6.5hPa | 2.6V | 00:00:00 | 00:00:00 | 00:00:00 | |
| DL1XH-15 | 2026-09-03 05:34:16 | 52.41989 | 8.71160 | 73° | 16km/h | 34302m | 6.9m/s | -34°C | 1.6% | 6.5hPa | 2.6V | 08:30:00 | 02:02:41 | 00:00:00 | |
| DL1XH-west | 2026-09-03 05:34:15 | 52.42002 | 8.71198 | 63° | 31km/h | 34326m | 6.6m/s | -33.9°C | 0% | 6.5hPa | 2.7V | 18:12:15 | 02:02:45 | 00:00:00 | |
| AA1-15 | 2026-09-03 05:34:14 | 52.41998 | 8.71187 | 59° | 31km/h | 34320m | 5.5m/s | -33.9°C | 0% | 6.4hPa | 2.7V | 18:12:15 | 02:02:44 | 00:00:00 | |
| DJ2DS-15 | 2026-09-03 05:34:14 | 52.41998 | 8.71187 | 60° | 18km/h | 34320m | 5.4m/s | -33.9°C | 1.6% | 6.4hPa | 2.7V | 00:00:00 | 02:02:44 | 00:00:00 | |
| DM0DOS-11 | 2026-09-03 05:34:13 | 52.41990 | 8.71149 | 110° | 13km/h | 34290m | 5.6m/s | -34.1°C | 1.7% | 6.5hPa | 2.7V | 08:30:00 | 02:02:39 | 00:00:00 | |
| HSKMA3-T | 2026-09-03 05:34:13 | 52.41994 | 8.71176 | 58° | 29km/h | 34315m | 4.9m/s | -34°C | 0% | 6.4hPa | 2.6V | 18:12:15 | 02:02:43 | 00:00:00 | |
| DO2JMG | 2026-09-03 05:34:09 | 52.41989 | 8.71149 | 111° | 13km/h | 34290m | 5.6m/s | -34.1°C | 0% | 6.5hPa | 2.7V | 18:12:15 | 02:02:39 | 00:00:00 | |
| DL1XH1-15 | 2026-09-03 05:34:08 | 52.41989 | 8.71103 | 85° | 20km/h | 34253m | 7m/s | -34.1°C | 1.6% | 6.5hPa | 2.7V | 08:30:00 | 02:02:33 | 00:00:00 | |
| BIOWL1-15 | 2026-09-03 05:34:07 | 52.41991 | 8.71137 | 96° | 16km/h | 34277m | 6.6m/s | -34.1°C | 0% | 6.5hPa | 2.6V | 18:12:15 | 02:02:37 | 00:00:00 | |
| DL1XH-west | 2026-09-03 05:34:04 | 52.41990 | 8.71111 | 82° | 22km/h | 34260m | 5.7m/s | -34.2°C | 0% | 6.5hPa | 2.7V | 18:12:15 | 02:02:34 | 00:00:00 | |
| AA1-15 | 2026-09-03 05:34:03 | 52.41989 | 8.71103 | 86° | 20km/h | 34253m | 7m/s | -34.2°C | 0% | 6.5hPa | 2.7V | 18:12:15 | 02:02:33 | 00:00:00 | |
| DO2JMG | 2026-09-03 05:33:58 | 52.41989 | 8.71066 | 79° | 20km/h | 34222m | 6.6m/s | -34.1°C | 0% | 6.5hPa | 2.7V | 18:12:15 | 02:02:28 | 00:00:00 | |
| SONCRA | 2026-09-03 05:33:57 | 52.41988 | 8.71058 | 78° | 18km/h | 34216m | 5.1m/s | -34.1°C | 0.3% | 6.5hPa | 2.6V | 00:00:00 | 00:00:00 | 00:00:00 | |
| DL1XH-15 | 2026-09-03 05:33:56 | 52.41993 | 8.71039 | 151° | 4km/h | 34179m | 5.6m/s | -34.2°C | 1.7% | 6.6hPa | 2.6V | 08:30:00 | 02:02:21 | 00:00:00 | |
| BIOWL1-15 | 2026-09-03 05:33:56 | 52.41987 | 8.71050 | 82° | 16km/h | 34211m | 4.9m/s | -34.1°C | 0% | 6.5hPa | 2.6V | 18:12:15 | 02:02:26 | 00:00:00 | |
| DL1XH-west | 2026-09-03 05:33:54 | 52.41988 | 8.71042 | 133° | 7km/h | 34198m | 7.2m/s | -34.2°C | 0% | 6.6hPa | 2.7V | 18:12:15 | 02:02:24 | 00:00:00 | |
| AA1-15 | 2026-09-03 05:33:52 | 52.41991 | 8.71040 | 178° | 7km/h | 34185m | 5.9m/s | -34.2°C | 0% | 6.5hPa | 2.6V | 18:12:15 | 02:02:22 | 00:00:00 | |
| DO2JMG | 2026-09-03 05:33:48 | 52.41990 | 8.71030 | 54° | 16km/h | 34160m | 5.1m/s | -34.2°C | 0% | 6.6hPa | 2.7V | 18:12:15 | 02:02:18 | 00:00:00 | |
| DO1YAY-16 | 2026-09-03 05:33:47 | 52.41986 | 8.71020 | 62° | 11km/h | 34150m | 5.9m/s | -34.2°C | 0.3% | 6.6hPa | 2.7V | 00:00:00 | 00:00:00 | 00:00:00 | |
| DL1XH-15 | 2026-09-03 05:33:46 | 52.41993 | 8.71013 | 147° | 9km/h | 34120m | 6m/s | -34.1°C | 1.7% | 6.6hPa | 2.7V | 08:30:00 | 02:02:11 | 00:00:00 | |
| BIOWL1-15 | 2026-09-03 05:33:45 | 52.41986 | 8.71016 | 89° | 5km/h | 34144m | 6.8m/s | -34.2°C | 0% | 6.6hPa | 2.6V | 18:12:15 | 02:02:15 | 00:00:00 | |
| EDDB2-11 | 2026-09-03 05:33:45 | 52.41986 | 8.71016 | 88° | 5km/h | 34144m | 6.8m/s | -34.2°C | 0.3% | 6.6hPa | 2.7V | 00:00:00 | 00:00:00 | 00:00:00 | |
| D01LWL | 2026-09-03 05:33:44 | 52.41986 | 8.71015 | 158° | 5km/h | 34137m | 6.4m/s | -34.2°C | 0.3% | 6.6hPa | 2.7V | 00:00:00 | 00:00:00 | 00:00:00 | |
| DL1XH-west | 2026-09-03 05:33:43 | 52.41988 | 8.71014 | 179° | 9km/h | 34131m | 5.7m/s | -34.2°C | 0% | 6.6hPa | 2.7V | 18:12:15 | 02:02:13 | 00:00:00 | |
| AA1-15 | 2026-09-03 05:33:42 | 52.41990 | 8.71014 | 172° | 9km/h | 34126m | 5.3m/s | -34.2°C | 0% | 6.6hPa | 2.7V | 18:12:15 | 02:02:12 | 00:00:00 | |
| HSKMA3-T | 2026-09-03 05:33:41 | 52.41993 | 8.71013 | 147° | 9km/h | 34120m | 6m/s | -34.2°C | 0% | 6.6hPa | 2.7V | 18:12:15 | 02:02:11 | 00:00:00 | |
| DB0NH | 2026-09-03 05:33:40 | 52.41994 | 8.71010 | 117° | 11km/h | 34114m | 6.7m/s | -34.1°C | 1.7% | 6.6hPa | 2.6V | 00:00:00 | 02:02:10 | 00:00:00 | |
| HTAHTA | 2026-09-03 05:33:39 | 52.41996 | 8.70997 | 94° | 18km/h | 34101m | 5.5m/s | -34.1°C | 0.3% | 6.6hPa | 2.6V | 00:00:00 | 00:00:00 | 00:00:00 | |
| DL1XH1-15 | 2026-09-03 05:33:38 | 52.42004 | 8.70962 | 124° | 15km/h | 34072m | 5.2m/s | -34.2°C | 1.7% | 6.7hPa | 2.6V | 08:30:00 | 02:02:03 | 00:00:00 | |
| DO2JMG | 2026-09-03 05:33:37 | 52.41996 | 8.70989 | 99° | 20km/h | 34096m | 5.7m/s | -34.2°C | 0% | 6.7hPa | 2.7V | 18:12:15 | 02:02:07 | 00:00:00 | |
| DL3AQ-11 | 2026-09-03 05:33:37 | 52.41997 | 8.70981 | 109° | 20km/h | 34089m | 6.9m/s | -34.2°C | 0.3% | 6.6hPa | 2.7V | 00:00:00 | 00:00:00 | 00:00:00 | |
| DL1XH-15 | 2026-09-03 05:33:36 | 52.42006 | 8.70953 | 82° | 11km/h | 34059m | 6.8m/s | -34.1°C | 1.6% | 6.7hPa | 2.7V | 08:30:00 | 02:02:01 | 00:00:00 | |
| DO3MHA-12 | 2026-09-03 05:33:36 | 52.41997 | 8.70981 | 110° | 11km/h | 34089m | 6.9m/s | -34.1°C | 1.6% | 6.6hPa | 2.6V | 00:00:00 | 02:02:06 | 00:00:00 | |
| GOEST3-10 | 2026-09-03 05:33:35 | 52.41999 | 8.70973 | 121° | 15km/h | 34083m | 5.9m/s | -34.1°C | 1.7% | 6.6hPa | 2.6V | 00:00:00 | 02:02:05 | 00:00:00 | |
| DM0DOS-11 | 2026-09-03 05:33:34 | 52.42004 | 8.70946 | 53° | 9km/h | 34047m | 5.1m/s | -34.1°C | 1.6% | 6.7hPa | 2.6V | 08:30:00 | 02:01:59 | 00:00:00 | |
| BIOWL1-15 | 2026-09-03 05:33:34 | 52.42002 | 8.70967 | 126° | 16km/h | 34077m | 5.2m/s | -34.2°C | 0% | 6.7hPa | 2.6V | 18:12:15 | 02:02:04 | 00:00:00 | |
| DL1XH-west | 2026-09-03 05:33:33 | 52.42004 | 8.70962 | 125° | 15km/h | 34072m | 5.2m/s | -34.2°C | 0% | 6.7hPa | 2.6V | 18:12:15 | 02:02:03 | 00:00:00 | |
| AA1-15 | 2026-09-03 05:33:31 | 52.42006 | 8.70953 | 83° | 11km/h | 34059m | 6.8m/s | -34.1°C | 0% | 6.7hPa | 2.7V | 18:12:15 | 02:02:01 | 00:00:00 | |
| HSKMA3-T | 2026-09-03 05:33:30 | 52.42005 | 8.70949 | 62° | 11km/h | 34053m | 5.8m/s | -34.1°C | 0% | 6.7hPa | 2.6V | 18:12:15 | 02:02:00 | 00:00:00 | |
| DD8BA-10 | 2026-09-03 05:33:30 | 52.42005 | 8.70949 | 63° | 11km/h | 34053m | 5.7m/s | -34.0°C | 1.6% | 6.7hPa | 2.7V | 00:00:00 | 00:00:00 | 00:00:00 | |
| DJ3KS | 2026-09-03 05:33:29 | 52.42005 | 8.70949 | 63° | 11km/h | 34053m | 5.8m/s | -34.1°C | 0% | 0hPa | 2.7V | 00:00:00 | 00:00:00 | 00:00:00 | |
| DL1XH1-15 | 2026-09-03 05:33:28 | 52.42014 | 8.70934 | 132° | 13km/h | 34013m | 5.9m/s | -34.1°C | 1.6% | 6.8hPa | 2.7V | 08:30:00 | 02:01:53 | 00:00:00 | |
| DO2JMG | 2026-09-03 05:33:27 | 52.42003 | 8.70941 | 137° | 5km/h | 34036m | 7.1m/s | -34.2°C | 0% | 6.7hPa | 2.7V | 18:12:15 | 02:01:57 | 00:00:00 | |
| DL1XH-15 | 2026-09-03 05:33:26 | 52.42015 | 8.70924 | 80° | 15km/h | 34000m | 5.9m/s | -34.1°C | 1.6% | 6.8hPa | 2.6V | 08:30:00 | 02:01:51 | 00:00:00 | |
| DB0DAN | 2026-09-03 05:33:25 | 52.42008 | 8.70939 | 163° | 13km/h | 34023m | 5m/s | -34.1°C | 0.3% | 6.71hPa | 2.6V | 00:00:00 | 00:00:00 | 00:00:00 | |
| GOEST3-10 | 2026-09-03 05:33:25 | 52.42008 | 8.70939 | 164° | 13km/h | 34024m | 4.9m/s | -34.1°C | 1.6% | 6.7hPa | 2.6V | 00:00:00 | 02:01:55 | 00:00:00 | |
| DM0DOS-11 | 2026-09-03 05:33:24 | 52.42013 | 8.70914 | 67° | 9km/h | 33990m | 4.8m/s | -34.2°C | 1.6% | 6.7hPa | 2.6V | 08:30:00 | 02:01:49 | 00:00:00 | |
| DL4XJ-10 | 2026-09-03 05:33:24 | 52.42011 | 8.70937 | 153° | 13km/h | 34019m | 4.7m/s | -32.8°C | 0% | 0hPa | 2.7V | 00:00:00 | 00:00:00 | 00:00:00 | |
| DL1NUX | 2026-09-03 05:33:23 | 52.42013 | 8.70912 | 87° | 4km/h | 33984m | 6.7m/s | 0°C | 0% | 0hPa | 2.7V | 08:30:00 | 02:01:48 | 00:00:00 | |
| BIOWL1-15 | 2026-09-03 05:33:23 | 52.42014 | 8.70934 | 133° | 13km/h | 34013m | 5.9m/s | -34.1°C | 0% | 6.8hPa | 2.7V | 18:12:15 | 02:01:53 | 00:00:00 | |
| DL1XH-west | 2026-09-03 05:33:22 | 52.42015 | 8.70929 | 106° | 13km/h | 34007m | 6.9m/s | -34.2°C | 0% | 6.8hPa | 2.7V | 18:12:15 | 02:01:52 | 00:00:00 | |
| AA1-15 | 2026-09-03 05:33:21 | 52.42015 | 8.70924 | 81° | 15km/h | 34000m | 5.9m/s | -34.1°C | 0% | 6.8hPa | 2.6V | 18:12:15 | 02:01:51 | 00:00:00 | |
| HSKMA3-T | 2026-09-03 05:33:19 | 52.42013 | 8.70914 | 68° | 9km/h | 33990m | 4.8m/s | -34.3°C | 0% | 6.7hPa | 2.6V | 18:12:15 | 02:01:49 | 00:00:00 | |
| DL1XH1-15 | 2026-09-03 05:33:18 | 52.42020 | 8.70926 | 243° | 7km/h | 33955m | 6.4m/s | -34.5°C | 1.7% | 6.8hPa | 2.6V | 08:30:00 | 02:01:43 | 00:00:00 | |
| DF7PN | 2026-09-03 05:33:17 | 52.42013 | 8.70912 | 213° | 5km/h | 33978m | 6.5m/s | -34.3°C | 0.3% | 6.7hPa | 2.7V | 00:00:00 | 00:00:00 | 00:00:00 | |
| DL1XH-15 | 2026-09-03 05:33:16 | 52.42020 | 8.70926 | 68° | 9km/h | 33943m | 5.9m/s | -34.6°C | 1.7% | 6.8hPa | 2.7V | 08:30:00 | 02:01:41 | 00:00:00 | |
| DO2JMG | 2026-09-03 05:33:16 | 52.42015 | 8.70914 | 226° | 13km/h | 33971m | 5.6m/s | -34.3°C | 0% | 6.8hPa | 2.7V | 18:12:15 | 02:01:46 | 00:00:00 | |
| DO1YAY-16 | 2026-09-03 05:33:16 | 52.42017 | 8.70918 | 231° | 13km/h | 33966m | 5.0m/s | -34.4°C | 0.3% | 6.8hPa | 2.6V | 00:00:00 | 00:00:00 | 00:00:00 | |
| GOEST3-10 | 2026-09-03 05:33:15 | 52.42017 | 8.70918 | 232° | 9km/h | 33966m | 5.0m/s | -34.3°C | 1.6% | 6.8hPa | 2.6V | 00:00:00 | 02:01:45 | 00:00:00 | |
| DM0DOS-11 | 2026-09-03 05:33:14 | 52.42019 | 8.70914 | 95° | 20km/h | 33930m | 6.6m/s | -34.7°C | 1.7% | 6.8hPa | 2.6V | 08:30:00 | 02:01:39 | 00:00:00 | |
| BIOWL1-15 | 2026-09-03 05:33:12 | 52.42021 | 8.70927 | 10° | 2km/h | 33949m | 6.4m/s | -34.6°C | 0% | 6.8hPa | 2.7V | 18:12:15 | 02:01:42 | 00:00:00 | |
| DL1XH-west | 2026-09-03 05:33:11 | 52.42020 | 8.70926 | 68° | 9km/h | 33943m | 5.9m/s | -34.7°C | 0% | 6.8hPa | 2.7V | 18:12:15 | 02:01:41 | 00:00:00 | |
| HSKMA3-T | 2026-09-03 05:33:08 | 52.42020 | 8.70905 | 106° | 24km/h | 33924m | 6.7m/s | -34.8°C | 0% | 6.9hPa | 2.6V | 18:12:15 | 02:01:38 | 00:00:00 | |
| DO2JMG | 2026-09-03 05:33:06 | 52.42025 | 8.70885 | 112° | 27km/h | 33912m | 5.3m/s | -34.8°C | 0% | 6.8hPa | 2.7V | 18:12:15 | 02:01:36 | 00:00:00 | |
| GOEST3-10 | 2026-09-03 05:33:05 | 52.42027 | 8.70874 | 108° | 16km/h | 33907m | 5.8m/s | -34.8°C | 1.7% | 6.8hPa | 2.6V | 00:00:00 | 02:01:35 | 00:00:00 | |
| DM0DOS-11 | 2026-09-03 05:33:04 | 52.42031 | 8.70849 | 209° | 11km/h | 33869m | 6.2m/s | -34.9°C | 1.7% | 6.8hPa | 2.6V | 08:30:00 | 02:01:29 | 00:00:00 | |
| DL1XH-west | 2026-09-03 05:33:01 | 52.42029 | 8.70848 | 102° | 4km/h | 33882m | 5.9m/s | -34.9°C | 0% | 6.9hPa | 2.7V | 18:12:15 | 02:01:31 | 00:00:00 | |
| AA1-15 | 2026-09-03 05:33:00 | 52.42029 | 8.70848 | 191° | 5km/h | 33876m | 7.2m/s | -34.9°C | 0% | 6.9hPa | 2.7V | 18:12:15 | 02:01:30 | 00:00:00 | |
| BIOWL9-15 | 2026-09-03 05:32:59 | 52.42034 | 8.70851 | 211° | 11km/h | 33864m | 5.0m/s | -34.9°C | 0.3% | 6.9hPa | 2.7V | 00:00:00 | 00:00:00 | 00:00:00 | |
| DL1XH1-15 | 2026-09-03 05:32:58 | 52.42035 | 8.70846 | 67° | 18km/h | 33834m | 5.7m/s | -34.9°C | 1.7% | 7hPa | 2.7V | 08:30:00 | 02:01:23 | 00:00:00 | |
| HSKMA3-T | 2026-09-03 05:32:58 | 52.42034 | 8.70851 | 211° | 13km/h | 33863m | 5m/s | -34.9°C | 0% | 6.9hPa | 2.6V | 18:12:15 | 02:01:28 | 00:00:00 | |
| DO2JMG | 2026-09-03 05:32:56 | 52.42038 | 8.70855 | 204° | 4km/h | 33853m | 6.3m/s | -34.9°C | 0% | 6.9hPa | 2.7V | 18:12:15 | 02:01:26 | 00:00:00 | |
| DB0DAN | 2026-09-03 05:32:55 | 52.42038 | 8.70855 | 65° | 4km/h | 33847m | 6.8m/s | -34.9°C | 0.3% | 6.92hPa | 2.6V | 00:00:00 | 00:00:00 | 00:00:00 | |
| SONCRA | 2026-09-03 05:32:55 | 52.42037 | 8.70852 | 58° | 11km/h | 33840m | 6.5m/s | -34.9°C | 0.3% | 6.9hPa | 2.6V | 00:00:00 | 00:00:00 | 00:00:00 | |
| DM0DOS-11 | 2026-09-03 05:32:54 | 52.42036 | 8.70814 | 117° | 16km/h | 33810m | 4.7m/s | -34.9°C | 1.7% | 7hPa | 2.6V | 08:30:00 | 02:01:19 | 00:00:00 | |
| DJ2DS-15 | 2026-09-03 05:32:54 | 52.42037 | 8.70852 | 59° | 13km/h | 33840m | 6.4m/s | -34.8°C | 1.7% | 6.9hPa | 2.6V | 00:00:00 | 02:01:24 | 08:30:00 | |
| DO3MHA-12 | 2026-09-03 05:32:53 | 52.42035 | 8.70846 | 68° | 13km/h | 33834m | 5.7m/s | -34.8°C | 1.7% | 6.9hPa | 2.7V | 00:00:00 | 02:01:23 | 00:00:00 | |
| DO3MHA-11 | 2026-09-03 05:32:52 | 52.42034 | 8.70838 | 79° | 13km/h | 33829m | 5.8m/s | -34.8°C | 1.7% | 6.8hPa | 2.7V | 00:00:00 | 02:01:22 | 00:00:00 | |
| DL1NUX | 2026-09-03 05:32:51 | 52.42039 | 8.70804 | 13° | 2km/h | 33793m | 6.8m/s | 0°C | 0% | 0hPa | 2.7V | 08:30:00 | 02:01:16 | 00:00:00 | |
| DL1XH-west | 2026-09-03 05:32:50 | 52.42034 | 8.70821 | 105° | 20km/h | 33816m | 5.6m/s | -34.9°C | 0% | 6.9hPa | 2.6V | 18:12:15 | 02:01:20 | 00:00:00 | |
| DD8BA-10 | 2026-09-03 05:32:50 | 52.42034 | 8.70821 | 106° | 11km/h | 33816m | 5.6m/s | -34.8°C | 1.7% | 6.8hPa | 2.6V | 00:00:00 | 00:00:00 | 08:30:00 | |
| DL1XH1-15 | 2026-09-03 05:32:48 | 52.42035 | 8.70811 | 287° | 9km/h | 33776m | 5.3m/s | -35.1°C | 1.7% | 7hPa | 2.6V | 08:30:00 | 02:01:13 | 00:00:00 | |
| HSKMA3-T | 2026-09-03 05:32:47 | 52.42039 | 8.70805 | 115° | 5km/h | 33800m | 6.8m/s | -35°C | 0% | 7hPa | 2.7V | 18:12:15 | 02:01:17 | 00:00:00 | |
| DO2JMG | 2026-09-03 05:32:45 | 52.42038 | 8.70805 | 318° | 7km/h | 33786m | 5.7m/s | -34.9°C | 0% | 7hPa | 2.7V | 18:12:15 | 02:01:15 | 00:00:00 | |
| DO1YAY-16 | 2026-09-03 05:32:45 | 52.42036 | 8.70808 | 305° | 9km/h | 33781m | 5.1m/s | -35.0°C | 0.3% | 7.0hPa | 2.7V | 00:00:00 | 00:00:00 | 00:00:00 | |
| DM0DOS-11 | 2026-09-03 05:32:44 | 52.42041 | 8.70818 | 151° | 11km/h | 33752m | 5.3m/s | -35.4°C | 1.7% | 7hPa | 2.7V | 08:30:00 | 02:01:09 | 00:00:00 | |
| AA1-15 | 2026-09-03 05:32:40 | 52.42039 | 8.70819 | 180° | 11km/h | 33757m | 5.5m/s | -35.4°C | 0% | 7hPa | 2.7V | 18:12:15 | 02:01:10 | 00:00:00 | |
| DL1XH-west | 2026-09-03 05:32:39 | 52.42041 | 8.70818 | 152° | 11km/h | 33752m | 5.3m/s | -35.4°C | 0% | 7hPa | 2.7V | 18:12:15 | 02:01:09 | 00:00:00 | |
| DL1XH1-15 | 2026-09-03 05:32:38 | 52.42038 | 8.70797 | 74° | 2km/h | 33716m | 6.5m/s | -35.7°C | 1.8% | 7.1hPa | 2.7V | 08:30:00 | 02:01:03 | 00:00:00 | |
| HSKMA3-T | 2026-09-03 05:32:36 | 52.42042 | 8.70806 | 61° | 13km/h | 33733m | 5.7m/s | -35.6°C | 0% | 7hPa | 2.6V | 18:12:15 | 02:01:06 | 00:00:00 | |
| DO2JMG | 2026-09-03 05:32:35 | 52.42041 | 8.70802 | 53° | 13km/h | 33727m | 4.9m/s | -35.7°C | 0% | 7hPa | 2.7V | 18:12:15 | 02:01:05 | 00:00:00 | |
| GOEST3-10 | 2026-09-03 05:32:35 | 52.42041 | 8.70801 | 54° | 9km/h | 33728m | 4.8m/s | -35.6°C | 1.8% | 7.0hPa | 2.7V | 00:00:00 | 02:01:05 | 00:00:00 | |
| DO2KSM | 2026-09-03 05:32:34 | 52.42040 | 8.70801 | 54° | 13km/h | 33728m | 4.9m/s | -35.7°C | 0.3% | 7.0hPa | 2.7V | 00:00:00 | 00:00:00 | 00:00:00 | |
| DJ2DS-15 | 2026-09-03 05:32:33 | 52.42038 | 8.70797 | 75° | 11km/h | 33717m | 6.5m/s | -35.7°C | 1.8% | 7.0hPa | 2.7V | 00:00:00 | 02:01:03 | 00:00:00 | |
| DO9LL-15 | 2026-09-03 05:32:32 | 52.42039 | 8.70797 | 226° | 11km/h | 33711m | 5.9m/s | -35.6°C | 1.7% | 7.1hPa | 2.7V | 00:00:00 | 02:01:02 | 00:00:00 | |
| DM0DOS-11 | 2026-09-03 05:32:31 | 52.42043 | 8.70815 | 262° | 20km/h | 33692m | 7.1m/s | -35.9°C | 1.8% | 7.1hPa | 2.7V | 08:30:00 | 02:00:59 | 00:00:00 | |
| BIOWL1-15 | 2026-09-03 05:32:29 | 52.42043 | 8.70815 | 262° | 20km/h | 33692m | 7.1m/s | -35.9°C | 0% | 7.1hPa | 2.7V | 18:12:15 | 02:00:59 | 00:00:00 | |
| DL1XH-west | 2026-09-03 05:32:28 | 52.42044 | 8.70824 | 271° | 20km/h | 33686m | 5.7m/s | -35.8°C | 0% | 7.1hPa | 2.7V | 18:12:15 | 02:00:58 | 00:00:00 | |
| DO2LYB-13 | 2026-09-03 05:32:27 | 52.42044 | 8.70824 | 272° | 20km/h | 33686m | 5.7m/s | -35.8°C | 0.4% | 7.1hPa | 2.6V | 00:00:00 | 00:00:00 | 00:00:00 | |
| DL1XH-15 | 2026-09-03 05:32:26 | 52.42052 | 8.70833 | 127° | 11km/h | 33645m | 5.4m/s | -36°C | 1.8% | 7.1hPa | 2.6V | 08:30:00 | 02:00:51 | 00:00:00 | |
| HSKMA3-T | 2026-09-03 05:32:26 | 52.42043 | 8.70838 | 270° | 13km/h | 33676m | 5m/s | -35.8°C | 0% | 7.1hPa | 2.6V | 18:12:15 | 02:00:56 | 00:00:00 | |
| DO2JMG | 2026-09-03 05:32:25 | 52.42044 | 8.70842 | 241° | 7km/h | 33670m | 6.6m/s | -35.9°C | 0% | 7.1hPa | 2.6V | 18:12:15 | 02:00:55 | 00:00:00 | |
| DF8AY | 2026-09-03 05:32:19 | 52.42053 | 8.70828 | 26° | 4km/h | 33633m | 6.1m/s | -36°C | 0% | 7.2hPa | 2.7V | 18:12:15 | 02:00:49 | 00:00:00 | |
| DL1XH-west | 2026-09-03 05:32:18 | 52.42052 | 8.70829 | 322° | 5km/h | 33627m | 5.1m/s | -36°C | 0% | 7.1hPa | 2.6V | 18:12:15 | 02:00:48 | 00:00:00 | |
| DF8AY-15 | 2026-09-03 05:32:18 | 52.42052 | 8.70829 | 322° | 7km/h | 33628m | 5.1m/s | -36.0°C | 1.8% | 7.1hPa | 2.7V | 00:00:00 | 02:00:48 | 00:00:00 | |
| SMARD9-15 | 2026-09-03 05:32:17 | 52.42051 | 8.70831 | 292° | 7km/h | 33622m | 5.2m/s | -36.1°C | 0.4% | 7.2hPa | 2.7V | 00:00:00 | 00:00:00 | 00:00:00 | |
| DL1XH-15 | 2026-09-03 05:32:16 | 52.42062 | 8.70843 | 167° | 7km/h | 33587m | 6m/s | -36°C | 1.8% | 7.2hPa | 2.7V | 08:30:00 | 02:00:41 | 00:00:00 | |
| HSKMA3-T | 2026-09-03 05:32:15 | 52.42052 | 8.70838 | 233° | 11km/h | 33610m | 6.8m/s | -36.1°C | 0% | 7.2hPa | 2.7V | 18:12:15 | 02:00:45 | 00:00:00 | |
| DO2JMG | 2026-09-03 05:32:14 | 52.42054 | 8.70841 | 207° | 13km/h | 33603m | 5.6m/s | -36°C | 0% | 7.2hPa | 2.6V | 18:12:15 | 02:00:44 | 00:00:00 | |
| DO1YAY-16 | 2026-09-03 05:32:14 | 52.42057 | 8.70843 | 191° | 11km/h | 33598m | 5.1m/s | -36.0°C | 0.4% | 7.1hPa | 2.7V | 00:00:00 | 00:00:00 | 00:00:00 | |
| DB0UT-7 | 2026-09-03 05:32:13 | 52.42057 | 8.70843 | 192° | 11km/h | 33598m | 5.1m/s | -36.0°C | 1.8% | 7.1hPa | 2.7V | 00:00:00 | 00:00:00 | 00:00:00 | |
| EDDB2-11 | 2026-09-03 05:32:12 | 52.42060 | 8.70843 | 179° | 9km/h | 33593m | 5.4m/s | -36.0°C | 0.4% | 7.2hPa | 2.7V | 00:00:00 | 00:00:00 | 00:00:00 | |
| DO3MHA-12 | 2026-09-03 05:32:11 | 52.42062 | 8.70843 | 168° | 9km/h | 33587m | 6.0m/s | -36.0°C | 1.8% | 7.1hPa | 2.7V | 00:00:00 | 02:00:41 | 00:00:00 | |
| DM0DOS-11 | 2026-09-03 05:32:10 | 52.42062 | 8.70842 | 21° | 4km/h | 33574m | 5.6m/s | -35.9°C | 1.8% | 7.2hPa | 2.6V | 08:30:00 | 02:00:39 | 00:00:00 | |
| DB0DAN | 2026-09-03 05:32:10 | 52.42063 | 8.70843 | 113° | 2km/h | 33581m | 6.6m/s | -35.9°C | 0.4% | 7.18hPa | 2.7V | 00:00:00 | 00:00:00 | 00:00:00 | |
| DF8AY | 2026-09-03 05:32:08 | 52.42061 | 8.70842 | 20° | 4km/h | 33569m | 4.6m/s | -36°C | 0% | 7.2hPa | 2.6V | 18:12:15 | 02:00:38 | 00:00:00 | |
| DL1XH-west | 2026-09-03 05:32:07 | 52.42061 | 8.70841 | 72° | 2km/h | 33565m | 4.8m/s | -36°C | 0% | 7.2hPa | 2.6V | 18:12:15 | 02:00:37 | 00:00:00 | |
| HTAHTA | 2026-09-03 05:32:06 | 52.42063 | 8.70837 | 149° | 11km/h | 33552m | 7.3m/s | -36.0°C | 0.4% | 7.2hPa | 2.7V | 00:00:00 | 00:00:00 | 00:00:00 | |
| GOEST3-10 | 2026-09-03 05:32:05 | 52.42063 | 8.70837 | 150° | 15km/h | 33553m | 7.2m/s | -36.0°C | 1.9% | 7.1hPa | 2.7V | 00:00:00 | 02:00:35 | 00:00:00 | |
| DM0DOS-11 | 2026-09-03 05:32:04 | 52.42079 | 8.70828 | 337° | 7km/h | 33516m | 6.3m/s | -35.9°C | 1.8% | 7.2hPa | 2.7V | 08:30:00 | 02:00:29 | 00:00:00 | |
| HSKMA3-T | 2026-09-03 05:32:04 | 52.42067 | 8.70834 | 156° | 18km/h | 33546m | 6.2m/s | -36°C | 0% | 7.2hPa | 2.6V | 18:12:15 | 02:00:34 | 00:00:00 | |
| DO2JMG | 2026-09-03 05:32:03 | 52.42071 | 8.70831 | 159° | 20km/h | 33540m | 5m/s | -35.9°C | 0% | 7.2hPa | 2.6V | 18:12:15 | 02:00:33 | 00:00:00 | |
| DO9LL-15 | 2026-09-03 05:32:02 | 52.42075 | 8.70829 | 163° | 13km/h | 33536m | 4.6m/s | -35.9°C | 1.8% | 7.2hPa | 2.6V | 00:00:00 | 02:00:32 | 00:00:00 | |
| DF4FW | 2026-09-03 05:32:01 | 52.42075 | 8.70829 | 164° | 16km/h | 33536m | 4.6m/s | -36.0°C | 0.4% | 7.2hPa | 2.7V | 00:00:00 | 00:00:00 | 00:00:00 | |
| EDDB2-12 | 2026-09-03 05:31:59 | 52.42077 | 8.70829 | 341° | 9km/h | 33511m | 4.9m/s | -35.9°C | 0.4% | 7.2hPa | 2.7V | 00:00:00 | 00:00:00 | 00:00:00 | |
| DL1XH1-15 | 2026-09-03 05:31:58 | 52.42080 | 8.70819 | 131° | 20km/h | 33480m | 5.9m/s | -35.8°C | 1.8% | 7.3hPa | 2.7V | 08:30:00 | 02:00:23 | 00:00:00 | |
| BIOWL1-15 | 2026-09-03 05:31:57 | 52.42075 | 8.70830 | 351° | 7km/h | 33505m | 4.7m/s | -35.9°C | 0% | 7.3hPa | 2.6V | 18:12:15 | 02:00:27 | 00:00:00 | |
| DL1XH-west | 2026-09-03 05:31:56 | 52.42074 | 8.70830 | 45° | 4km/h | 33500m | 6.6m/s | -35.9°C | 0% | 7.3hPa | 2.6V | 18:12:15 | 02:00:26 | 00:00:00 | |
| HSKMA3-T | 2026-09-03 05:31:54 | 52.42076 | 8.70824 | 133° | 16km/h | 33487m | 6.2m/s | -35.8°C | 0% | 7.3hPa | 2.7V | 18:12:15 | 02:00:24 | 00:00:00 | |
| DO2JMG | 2026-09-03 05:31:52 | 52.42083 | 8.70812 | 126° | 20km/h | 33474m | 6.5m/s | -35.8°C | 0% | 7.3hPa | 2.7V | 18:12:15 | 02:00:22 | 00:00:00 | |
| DJ2DS-15 | 2026-09-03 05:31:52 | 52.42082 | 8.70812 | 126° | 13km/h | 33475m | 6.4m/s | -35.7°C | 1.8% | 7.3hPa | 2.7V | 00:00:00 | 02:00:22 | 00:00:00 | |
| DO3MHA-11 | 2026-09-03 05:31:51 | 52.42085 | 8.70805 | 117° | 11km/h | 33468m | 6.3m/s | -35.7°C | 1.8% | 7.3hPa | 2.6V | 00:00:00 | 02:00:21 | 08:30:00 | |
| DD8BA-10 | 2026-09-03 05:31:50 | 52.42086 | 8.70799 | 107° | 11km/h | 33462m | 6.0m/s | -35.6°C | 1.8% | 7.3hPa | 2.6V | 00:00:00 | 00:00:00 | 00:00:00 | |
| DL1NUX | 2026-09-03 05:31:49 | 52.42090 | 8.70775 | 64° | 5km/h | 33426m | 5.6m/s | 0°C | 0% | 0hPa | 2.6V | 08:30:00 | 02:00:14 | 00:00:00 | |
| DL1XH1-15 | 2026-09-03 05:31:48 | 52.42089 | 8.70773 | 37° | 9km/h | 33420m | 7.2m/s | -35.4°C | 1.8% | 7.4hPa | 2.6V | 08:30:00 | 02:00:13 | 00:00:00 | |
| DF8AY | 2026-09-03 05:31:47 | 52.42089 | 8.70784 | 109° | 11km/h | 33443m | 7m/s | -35.5°C | 0% | 7.3hPa | 2.7V | 18:12:15 | 02:00:17 | 00:00:00 | |
| BIOWL1-15 | 2026-09-03 05:31:46 | 52.42090 | 8.70781 | 117° | 9km/h | 33437m | 5.7m/s | -35.5°C | 0% | 7.3hPa | 2.7V | 18:12:15 | 02:00:16 | 00:00:00 | |
| DL1XH-west | 2026-09-03 05:31:45 | 52.42090 | 8.70778 | 103° | 7km/h | 33432m | 5.2m/s | -35.5°C | 0% | 7.3hPa | 2.6V | 18:12:15 | 02:00:15 | 00:00:00 | |
| HSKMA3-T | 2026-09-03 05:31:44 | 52.42090 | 8.70775 | 65° | 5km/h | 33426m | 5.6m/s | -35.5°C | 0% | 7.4hPa | 2.6V | 18:12:15 | 02:00:14 | 00:00:00 | |
| DO2JMG | 2026-09-03 05:31:41 | 52.42085 | 8.70768 | 41° | 11km/h | 33407m | 5.1m/s | -35.4°C | 0% | 7.4hPa | 2.7V | 18:12:15 | 02:00:11 | 00:00:00 | |
| DO3MHA-12 | 2026-09-03 05:31:41 | 52.42084 | 8.70768 | 41° | 15km/h | 33408m | 5.1m/s | -35.3°C | 1.8% | 7.4hPa | 2.7V | 00:00:00 | 02:00:11 | 08:30:00 | |
| DB0NH | 2026-09-03 05:31:40 | 52.42083 | 8.70764 | 69° | 13km/h | 33402m | 5.0m/s | -35.3°C | 1.7% | 7.4hPa | 2.6V | 00:00:00 | 02:00:10 | 00:00:00 | |
| SP3BTT-10 | 2026-09-03 05:31:39 | 52.42083 | 8.70760 | 106° | 15km/h | 33396m | 7.2m/s | -35.3°C | 1.7% | 7.3hPa | 2.6V | 00:00:00 | 00:00:00 | 00:00:00 | |
| DL1XH1-15 | 2026-09-03 05:31:38 | 52.42102 | 8.70729 | 85° | 4km/h | 33360m | 6.6m/s | -35.4°C | 1.7% | 7.4hPa | 2.7V | 08:30:00 | 02:00:03 | 00:00:00 | |
| DL1NUX | 2026-09-03 05:31:37 | 52.42101 | 8.70728 | 355° | 7km/h | 33353m | 6.1m/s | 0°C | 0% | 0hPa | 2.7V | 08:30:00 | 02:00:02 | 00:00:00 | |
| AA1-15 | 2026-09-03 05:31:36 | 52.42094 | 8.70741 | 142° | 26km/h | 33377m | 4.5m/s | -35.3°C | 0% | 7.4hPa | 2.7V | 18:12:15 | 02:00:06 | 00:00:00 | |
| BIOWL1-15 | 2026-09-03 05:31:35 | 52.42098 | 8.70736 | 141° | 20km/h | 33373m | 5.1m/s | -35.3°C | 0% | 7.4hPa | 2.6V | 18:12:15 | 02:00:05 | 00:00:00 | |
| HSKMA3-T | 2026-09-03 05:31:33 | 52.42102 | 8.70729 | 85° | 4km/h | 33360m | 6.6m/s | -35.4°C | 0% | 7.4hPa | 2.7V | 18:12:15 | 02:00:03 | 00:00:00 | |
| DO2JMG | 2026-09-03 05:31:30 | 52.42097 | 8.70730 | 326° | 9km/h | 33341m | 6.4m/s | -35.5°C | 0% | 7.5hPa | 2.6V | 18:12:15 | 02:00:00 | 00:00:00 | |
| DD8BA-10 | 2026-09-03 05:31:30 | 52.42097 | 8.70730 | 327° | 5km/h | 33342m | 6.4m/s | -35.4°C | 1.8% | 7.4hPa | 2.6V | 00:00:00 | 00:00:00 | 00:00:00 | |
| DF4FW | 2026-09-03 05:31:29 | 52.42097 | 8.70730 | 327° | 9km/h | 33342m | 6.4m/s | -35.5°C | 0.3% | 7.5hPa | 2.6V | 00:00:00 | 00:00:00 | 00:00:00 | |
| DL1XH1-15 | 2026-09-03 05:31:28 | 52.42100 | 8.70723 | 59° | 4km/h | 33299m | 5.9m/s | -35.6°C | 1.7% | 7.5hPa | 2.6V | 08:30:00 | 01:59:53 | 00:00:00 | |
| DL1NUX | 2026-09-03 05:31:27 | 52.42100 | 8.70723 | 286° | 4km/h | 33294m | 5.3m/s | 0°C | 0% | 0hPa | 2.6V | 08:30:00 | 01:59:52 | 00:00:00 | |
| BIOWL1-15 | 2026-09-03 05:31:26 | 52.42100 | 8.70723 | 286° | 4km/h | 33294m | 5.3m/s | -35.7°C | 0% | 7.5hPa | 2.6V | 18:12:15 | 01:59:52 | 00:00:00 | |
| DL1XH-15 | 2026-09-03 05:31:26 | 52.42100 | 8.70725 | 251° | 9km/h | 33288m | 5.3m/s | -35.7°C | 1.8% | 7.5hPa | 2.7V | 08:30:00 | 01:59:51 | 00:00:00 | |
| DF8AY | 2026-09-03 05:31:26 | 52.42099 | 8.70730 | 133° | 7km/h | 33319m | 5.5m/s | -35.6°C | 0% | 7.5hPa | 2.6V | 18:12:15 | 01:59:56 | 00:00:00 | |
| AA1-15 | 2026-09-03 05:31:25 | 52.42100 | 8.70728 | 118° | 9km/h | 33312m | 6.5m/s | -35.6°C | 0% | 7.5hPa | 2.7V | 18:12:15 | 01:59:55 | 00:00:00 | |
| DL1XH-west | 2026-09-03 05:31:24 | 52.42100 | 8.70725 | 97° | 7km/h | 33306m | 6.5m/s | -35.6°C | 0% | 7.5hPa | 2.7V | 18:12:15 | 01:59:54 | 00:00:00 | |
| HSKMA3-T | 2026-09-03 05:31:23 | 52.42100 | 8.70723 | 60° | 4km/h | 33299m | 5.9m/s | -35.6°C | 0% | 7.5hPa | 2.6V | 18:12:15 | 01:59:53 | 00:00:00 | |
| DO2JMG | 2026-09-03 05:31:20 | 52.42102 | 8.70730 | 241° | 16km/h | 33283m | 6.5m/s | -35.7°C | 0% | 7.5hPa | 2.7V | 18:12:15 | 01:59:50 | 00:00:00 | |
| DD8BA-10 | 2026-09-03 05:31:20 | 52.42101 | 8.70730 | 242° | 20km/h | 33283m | 6.4m/s | -35.6°C | 1.8% | 7.5hPa | 2.7V | 00:00:00 | 00:00:00 | 08:30:00 | |
| DO2SHX-10 | 2026-09-03 05:31:19 | 52.42104 | 8.70737 | 233° | 26km/h | 33276m | 7.2m/s | -35.6°C | 1.8% | 7.4hPa | 2.7V | 00:00:00 | 01:59:49 | 00:00:00 | |
| DL1XH1-15 | 2026-09-03 05:31:18 | 52.42114 | 8.70767 | 27° | 16km/h | 33241m | 6.9m/s | -35.7°C | 1.8% | 7.6hPa | 2.7V | 08:30:00 | 01:59:43 | 00:00:00 | |
| NBG1-10 | 2026-09-03 05:31:18 | 52.42108 | 8.70745 | 230° | 16km/h | 33270m | 5.7m/s | -35.5°C | 1.8% | 7.4hPa | 2.6V | 00:00:00 | 01:59:48 | 00:00:00 | |
| S3001 | 2026-09-03 05:31:17 | 52.42113 | 8.70753 | 230° | 24km/h | 33265m | 4.1m/s | -35.5°C | 0.4% | 7.5hPa | 2.6V | 00:00:00 | 00:00:00 | 00:00:00 | |
| DL1NUX | 2026-09-03 05:31:16 | 52.42106 | 8.70754 | 58° | 27km/h | 33228m | 5.9m/s | 0°C | 0% | 0hPa | 2.6V | 08:30:00 | 01:59:41 | 00:00:00 | |
| AA1-15 | 2026-09-03 05:31:15 | 52.42117 | 8.70765 | 257° | 11km/h | 33255m | 6.4m/s | -35.5°C | 0% | 7.5hPa | 2.7V | 18:12:15 | 01:59:45 | 00:00:00 | |
| HSKMA3-T | 2026-09-03 05:31:13 | 52.42114 | 8.70767 | 27° | 16km/h | 33241m | 6.9m/s | -35.7°C | 0% | 7.6hPa | 2.7V | 18:12:15 | 01:59:43 | 00:00:00 | |
| DO2JMG | 2026-09-03 05:31:10 | 52.42104 | 8.70744 | 74° | 27km/h | 33222m | 6.6m/s | -35.7°C | 0% | 7.6hPa | 2.6V | 18:12:15 | 01:59:40 | 00:00:00 | |
| DB0DAN | 2026-09-03 05:31:10 | 52.42104 | 8.70744 | 74° | 26km/h | 33222m | 6.6m/s | -35.7°C | 0.4% | 7.56hPa | 2.6V | 00:00:00 | 00:00:00 | 00:00:00 | |
| DO3MHA-11 | 2026-09-03 05:31:10 | 52.42103 | 8.70744 | 74° | 11km/h | 33223m | 6.6m/s | -35.7°C | 1.8% | 7.5hPa | 2.7V | 00:00:00 | 01:59:40 | 00:00:00 | |
| D01LWL | 2026-09-03 05:31:09 | 52.42103 | 8.70734 | 92° | 22km/h | 33216m | 5.7m/s | -35.7°C | 0% | 7.6hPa | 2.7V | 00:00:00 | 00:00:00 | 00:00:00 | |
| DL1XH1-15 | 2026-09-03 05:31:08 | 52.42109 | 8.70724 | 303° | 7km/h | 33181m | 5m/s | -35.9°C | 1.8% | 7.7hPa | 2.7V | 08:30:00 | 01:59:33 | 00:00:00 | |
| DD8BA-10 | 2026-09-03 05:31:08 | 52.42104 | 8.70725 | 114° | 9km/h | 33211m | 5.0m/s | -35.6°C | 1.7% | 7.5hPa | 2.7V | 00:00:00 | 00:00:00 | 00:00:00 | |
| DL4XJ-10 | 2026-09-03 05:31:07 | 52.42106 | 8.70720 | 135° | 13km/h | 33206m | 5.7m/s | -34.3°C | 0% | 0hPa | 2.7V | 00:00:00 | 00:00:00 | 00:00:00 | |
| DL1XH-15 | 2026-09-03 05:31:06 | 52.42107 | 8.70727 | 51° | 4km/h | 33170m | 6.3m/s | -35.9°C | 1.8% | 7.7hPa | 2.7V | 08:30:00 | 01:59:31 | 00:00:00 | |
| AA1-15 | 2026-09-03 05:31:04 | 52.42109 | 8.70722 | 281° | 7km/h | 33186m | 5.9m/s | -35.8°C | 0% | 7.6hPa | 2.6V | 18:12:15 | 01:59:34 | 00:00:00 | |
| DL1XH-west | 2026-09-03 05:31:03 | 52.42108 | 8.70725 | 304° | 7km/h | 33181m | 5m/s | -35.9°C | 0% | 7.7hPa | 2.7V | 18:12:15 | 01:59:33 | 00:00:00 | |
| BIOWL1-15 | 2026-09-03 05:31:02 | 52.42107 | 8.70726 | 327° | 5km/h | 33176m | 5.4m/s | -35.9°C | 0% | 7.7hPa | 2.7V | 18:12:15 | 01:59:32 | 00:00:00 | |
| DO9LL-15 | 2026-09-03 05:31:02 | 52.42107 | 8.70726 | 328° | 11km/h | 33176m | 5.3m/s | -35.9°C | 1.8% | 7.6hPa | 2.6V | 00:00:00 | 01:59:32 | 00:00:00 | |
| DO3MHA-12 | 2026-09-03 05:31:01 | 52.42106 | 8.70727 | 52° | 13km/h | 33170m | 6.3m/s | -35.9°C | 1.8% | 7.6hPa | 2.6V | 00:00:00 | 01:59:31 | 00:00:00 | |
| DM0DOS-11 | 2026-09-03 05:31:00 | 52.42107 | 8.70720 | 104° | 15km/h | 33157m | 6.1m/s | -35.9°C | 1.8% | 7.7hPa | 2.6V | 08:30:00 | 01:59:29 | 00:00:00 | |
| DO2JMG | 2026-09-03 05:30:59 | 52.42107 | 8.70720 | 104° | 15km/h | 33157m | 6.1m/s | -35.9°C | 0% | 7.7hPa | 2.6V | 18:12:15 | 01:59:29 | 00:00:00 | |
| DO2SHX-10 | 2026-09-03 05:30:59 | 52.42107 | 8.70720 | 105° | 16km/h | 33157m | 6.1m/s | -35.9°C | 1.8% | 7.6hPa | 2.6V | 00:00:00 | 01:59:29 | 00:00:00 | |
| DL1XH1-15 | 2026-09-03 05:30:58 | 52.42101 | 8.70683 | 52° | 13km/h | 33121m | 5.4m/s | -36.2°C | 1.8% | 7.7hPa | 2.6V | 08:30:00 | 01:59:23 | 00:00:00 | |
| DD8BA-10 | 2026-09-03 05:30:58 | 52.42108 | 8.70713 | 100° | 13km/h | 33152m | 5.3m/s | -35.9°C | 1.8% | 7.6hPa | 2.7V | 00:00:00 | 00:00:00 | 00:00:00 | |
| SP3BTT-10 | 2026-09-03 05:30:57 | 52.42108 | 8.70706 | 87° | 9km/h | 33146m | 6.0m/s | -36.0°C | 1.8% | 7.6hPa | 2.7V | 00:00:00 | 00:00:00 | 00:00:00 | |
| DL1XH-15 | 2026-09-03 05:30:56 | 52.42099 | 8.70675 | 97° | 9km/h | 33107m | 6.9m/s | -36.3°C | 1.8% | 7.7hPa | 2.7V | 08:30:00 | 01:59:21 | 00:00:00 | |
| DB0DAN | 2026-09-03 05:30:55 | 52.42105 | 8.70693 | 55° | 16km/h | 33132m | 6.2m/s | -36.1°C | 0.4% | 7.75hPa | 2.6V | 00:00:00 | 00:00:00 | 00:00:00 | |
| AA1-15 | 2026-09-03 05:30:53 | 52.42101 | 8.70683 | 53° | 13km/h | 33121m | 5.4m/s | -36.2°C | 0% | 7.8hPa | 2.6V | 18:12:15 | 01:59:23 | 00:00:00 | |
| DL1XH-west | 2026-09-03 05:30:52 | 52.42099 | 8.70679 | 72° | 11km/h | 33115m | 7.5m/s | -36.2°C | 0% | 7.7hPa | 2.6V | 18:12:15 | 01:59:22 | 00:00:00 | |
| BIOWL1-15 | 2026-09-03 05:30:51 | 52.42099 | 8.70675 | 98° | 9km/h | 33107m | 6.9m/s | -36.3°C | 0% | 7.7hPa | 2.7V | 18:12:15 | 01:59:21 | 00:00:00 | |
| DO3MHA-12 | 2026-09-03 05:30:51 | 52.42099 | 8.70675 | 98° | 11km/h | 33108m | 6.9m/s | -36.2°C | 1.8% | 7.7hPa | 2.6V | 00:00:00 | 01:59:21 | 00:00:00 | |
| DM0DOS-11 | 2026-09-03 05:30:50 | 52.42101 | 8.70668 | 115° | 9km/h | 33095m | 5.7m/s | -36.4°C | 1.8% | 7.8hPa | 2.6V | 08:30:00 | 01:59:19 | 00:00:00 | |
| DO2JMG | 2026-09-03 05:30:49 | 52.42101 | 8.70668 | 116° | 9km/h | 33095m | 5.7m/s | -36.4°C | 0% | 7.8hPa | 2.6V | 18:12:15 | 01:59:19 | 00:00:00 | |
| DO2SHX-10 | 2026-09-03 05:30:49 | 52.42101 | 8.70668 | 116° | 11km/h | 33095m | 5.6m/s | -36.3°C | 1.8% | 7.7hPa | 2.6V | 00:00:00 | 01:59:19 | 00:00:00 | |
| DF8AY-15 | 2026-09-03 05:30:48 | 52.42101 | 8.70665 | 92° | 9km/h | 33089m | 6.2m/s | -36.4°C | 1.8% | 7.7hPa | 2.6V | 00:00:00 | 01:59:18 | 00:00:00 | |
| DF4FW | 2026-09-03 05:30:47 | 52.42101 | 8.70662 | 51° | 7km/h | 33083m | 7.2m/s | -36.4°C | 0.4% | 7.7hPa | 2.6V | 00:00:00 | 00:00:00 | 00:00:00 | |
| DL1XH-15 | 2026-09-03 05:30:46 | 52.42093 | 8.70636 | 105° | 15km/h | 33045m | 5.7m/s | -36.6°C | 1.8% | 7.8hPa | 2.6V | 08:30:00 | 01:59:11 | 00:00:00 | |
| DL3AQ-11 | 2026-09-03 05:30:46 | 52.42096 | 8.70657 | 34° | 13km/h | 33070m | 5.0m/s | -36.5°C | 0.4% | 7.8hPa | 2.6V | 00:00:00 | 00:00:00 | 00:00:00 | |
| SMARD9-15 | 2026-09-03 05:30:44 | 52.42094 | 8.70654 | 49° | 13km/h | 33065m | 5.6m/s | -36.6°C | 0.4% | 7.8hPa | 2.6V | 00:00:00 | 00:00:00 | 00:00:00 | |
| DL1XH-west | 2026-09-03 05:30:42 | 52.42092 | 8.70642 | 95° | 16km/h | 33051m | 6.7m/s | -36.6°C | 0% | 7.8hPa | 2.6V | 18:12:15 | 01:59:12 | 00:00:00 | |
| HSKMA3-T | 2026-09-03 05:30:41 | 52.42092 | 8.70636 | 105° | 15km/h | 33045m | 5.7m/s | -36.6°C | 0% | 7.8hPa | 2.6V | 18:12:15 | 01:59:11 | 00:00:00 | |
| DO3MHA-12 | 2026-09-03 05:30:41 | 52.42092 | 8.70636 | 106° | 7km/h | 33046m | 5.6m/s | -36.5°C | 1.8% | 7.8hPa | 2.6V | 00:00:00 | 01:59:11 | 00:00:00 | |
| DM0DOS-11 | 2026-09-03 05:30:40 | 52.42094 | 8.70628 | 113° | 5km/h | 33033m | 7.2m/s | -36.5°C | 1.8% | 7.8hPa | 2.7V | 08:30:00 | 01:59:09 | 00:00:00 | |
| BIOWL1-15 | 2026-09-03 05:30:40 | 52.42093 | 8.70631 | 112° | 11km/h | 33039m | 5.6m/s | -36.6°C | 0% | 7.8hPa | 2.6V | 18:12:15 | 01:59:10 | 00:00:00 | |
| DJ8HS-15 | 2026-09-03 05:30:40 | 52.42093 | 8.70631 | 112° | 9km/h | 33040m | 5.5m/s | -36.5°C | 1.8% | 7.7hPa | 2.6V | 00:00:00 | 01:59:10 | 08:30:00 | |
| EDDB2-11 | 2026-09-03 05:30:39 | 52.42094 | 8.70628 | 113° | 5km/h | 33033m | 7.2m/s | -36.5°C | 0.4% | 7.8hPa | 2.7V | 00:00:00 | 00:00:00 | 00:00:00 | |
| DL1XH1-15 | 2026-09-03 05:30:38 | 52.42095 | 8.70638 | 168° | 4km/h | 32993m | 5.4m/s | -36.8°C | 1.9% | 7.8hPa | 2.7V | 08:30:00 | 01:59:03 | 00:00:00 | |
| DO2JMG | 2026-09-03 05:30:38 | 52.42094 | 8.70627 | 291° | 2km/h | 33026m | 6.9m/s | -36.6°C | 0% | 7.8hPa | 2.7V | 18:12:15 | 01:59:08 | 00:00:00 | |
| DD8BA-10 | 2026-09-03 05:30:38 | 52.42094 | 8.70627 | 291° | 5km/h | 33026m | 6.9m/s | -36.5°C | 1.8% | 7.8hPa | 2.6V | 00:00:00 | 00:00:00 | 00:00:00 | |
| DD1CC3-15 | 2026-09-03 05:30:37 | 52.42094 | 8.70627 | 0° | 0km/h | 33026m | 6.9m/s | -36.6°C | 0.4% | 7.8hPa | 2.6V | 00:00:00 | 00:00:00 | 00:00:00 | |
| DL1XH-15 | 2026-09-03 05:30:36 | 52.42096 | 8.70635 | 76° | 5km/h | 32982m | 6.2m/s | -36.9°C | 1.9% | 7.8hPa | 2.6V | 08:30:00 | 01:59:01 | 00:00:00 | |
| AA1-15 | 2026-09-03 05:30:32 | 52.42096 | 8.70637 | 115° | 5km/h | 32988m | 5.4m/s | -36.9°C | 0% | 7.9hPa | 2.7V | 18:12:15 | 01:59:02 | 00:00:00 | |
| DL1XH-west | 2026-09-03 05:30:31 | 52.42096 | 8.70635 | 76° | 5km/h | 32982m | 6.2m/s | -36.9°C | 0% | 7.9hPa | 2.6V | 18:12:15 | 01:59:01 | 00:00:00 | |
| BIOWL1-15 | 2026-09-03 05:30:31 | 52.42093 | 8.70630 | 33° | 11km/h | 32968m | 6.5m/s | -37.1°C | 0% | 7.9hPa | 2.6V | 18:12:15 | 01:58:59 | 00:00:00 | |
| HSKMA3-T | 2026-09-03 05:30:30 | 52.42095 | 8.70632 | 46° | 9km/h | 32975m | 7.5m/s | -37°C | 0% | 7.9hPa | 2.6V | 18:12:15 | 01:59:00 | 00:00:00 | |
| DM0DOS-11 | 2026-09-03 05:30:30 | 52.42093 | 8.70630 | 32° | 11km/h | 32968m | 6.5m/s | -37.1°C | 1.9% | 7.9hPa | 2.6V | 08:30:00 | 01:58:59 | 00:00:00 | |
| DO3MHA-11 | 2026-09-03 05:30:30 | 52.42095 | 8.70632 | 47° | 13km/h | 32976m | 7.4m/s | -37.0°C | 1.9% | 7.8hPa | 2.6V | 00:00:00 | 01:59:00 | 00:00:00 | |
| SONDE2-11 | 2026-09-03 05:30:29 | 52.42093 | 8.70630 | 32° | 11km/h | 32969m | 6.5m/s | -37.1°C | 0.4% | 7.9hPa | 2.6V | 00:00:00 | 00:00:00 | 00:00:00 | |
| DL1XH1-15 | 2026-09-03 05:30:28 | 52.42099 | 8.70615 | 181° | 20km/h | 32931m | 5.4m/s | -37.1°C | 1.9% | 7.9hPa | 2.6V | 08:30:00 | 01:58:53 | 00:00:00 | |
| DO2JMG | 2026-09-03 05:30:27 | 52.42089 | 8.70624 | 63° | 9km/h | 32957m | 5m/s | -37.1°C | 0% | 7.9hPa | 2.7V | 18:12:15 | 01:58:57 | 00:00:00 | |
| DL4XJ-10 | 2026-09-03 05:30:27 | 52.42089 | 8.70624 | 63° | 13km/h | 32957m | 5.0m/s | -35.8°C | 0% | 0hPa | 2.7V | 00:00:00 | 00:00:00 | 00:00:00 | |
| DO3DL | 2026-09-03 05:30:26 | 52.42089 | 8.70624 | 64° | 9km/h | 32957m | 5.0m/s | -37.1°C | 0.4% | 7.9hPa | 2.7V | 00:00:00 | 00:00:00 | 00:00:00 | |
| DB0DAN | 2026-09-03 05:30:25 | 52.42091 | 8.70618 | 145° | 13km/h | 32944m | 7.5m/s | -37.2°C | 0.4% | 7.91hPa | 2.7V | 00:00:00 | 00:00:00 | 00:00:00 | |
| AA1-15 | 2026-09-03 05:30:22 | 52.42104 | 8.70616 | 198° | 18km/h | 32925m | 6.7m/s | -37.2°C | 0% | 8hPa | 2.6V | 18:12:15 | 01:58:52 | 00:00:00 | |
| DL1XH-west | 2026-09-03 05:30:21 | 52.42107 | 8.70619 | 220° | 16km/h | 32917m | 7.4m/s | -37.2°C | 0% | 7.9hPa | 2.7V | 18:12:15 | 01:58:51 | 00:00:00 | |
| DO3MHA-12 | 2026-09-03 05:30:21 | 52.42107 | 8.70619 | 221° | 9km/h | 32918m | 7.3m/s | -37.1°C | 1.9% | 7.9hPa | 2.6V | 00:00:00 | 01:58:51 | 00:00:00 | |
| DM0DOS-11 | 2026-09-03 05:30:20 | 52.42111 | 8.70630 | 258° | 13km/h | 32904m | 5.6m/s | -37.2°C | 1.9% | 8hPa | 2.6V | 08:30:00 | 01:58:49 | 00:00:00 | |
| SO1NDE-10 | 2026-09-03 05:30:20 | 52.42111 | 8.70630 | 259° | 18km/h | 32905m | 5.6m/s | 0°C | 0% | 0hPa | 2.6V | 00:00:00 | 01:58:49 | 00:00:00 | |
| DD1CC8 | 2026-09-03 05:30:19 | 52.42111 | 8.70634 | 261° | 7km/h | 32899m | 5.6m/s | -37.2°C | 0.4% | 8.0hPa | 2.6V | 00:00:00 | 00:00:00 | 00:00:00 | |
| HSKMA3-T | 2026-09-03 05:30:19 | 52.42111 | 8.70630 | 259° | 13km/h | 32904m | 5.6m/s | -37.2°C | 0% | 8hPa | 2.6V | 18:12:15 | 01:58:49 | 00:00:00 | |
| DD8BA-10 | 2026-09-03 05:30:18 | 52.42111 | 8.70634 | 262° | 11km/h | 32899m | 5.6m/s | -37.1°C | 1.9% | 7.9hPa | 2.6V | 00:00:00 | 00:00:00 | 00:00:00 | |
| DL3AQ-11 | 2026-09-03 05:30:17 | 52.42112 | 8.70636 | 135° | 4km/h | 32885m | 7.1m/s | -37.2°C | 0.4% | 7.9hPa | 2.6V | 00:00:00 | 00:00:00 | 00:00:00 | |
| DL1XH-15 | 2026-09-03 05:30:16 | 52.42118 | 8.70622 | 171° | 11km/h | 32853m | 5.5m/s | -37.1°C | 1.9% | 8hPa | 2.6V | 08:30:00 | 01:58:41 | 00:00:00 | |
| DO2JMG | 2026-09-03 05:30:16 | 52.42112 | 8.70636 | 135° | 5km/h | 32885m | 7.1m/s | -37.2°C | 0% | 7.9hPa | 2.6V | 18:12:15 | 01:58:46 | 00:00:00 | |
| DL1XH-west | 2026-09-03 05:30:11 | 52.42118 | 8.70622 | 172° | 11km/h | 32853m | 5.5m/s | -37.1°C | 0% | 8hPa | 2.6V | 18:12:15 | 01:58:41 | 00:00:00 | |
| DO3MHA-12 | 2026-09-03 05:30:11 | 52.42118 | 8.70622 | 172° | 18km/h | 32853m | 5.4m/s | -37.1°C | 1.9% | 8.0hPa | 2.6V | 00:00:00 | 01:58:41 | 08:30:00 | |
| DM0DOS-11 | 2026-09-03 05:30:10 | 52.42126 | 8.70623 | 187° | 22km/h | 32839m | 8m/s | -37.1°C | 1.9% | 8hPa | 2.7V | 08:30:00 | 01:58:39 | 00:00:00 | |
| DB0DAN | 2026-09-03 05:30:10 | 52.42121 | 8.70622 | 184° | 15km/h | 32846m | 6.2m/s | -37.1°C | 0.4% | 8.04hPa | 2.6V | 00:00:00 | 00:00:00 | 00:00:00 | |
| DF8AY | 2026-09-03 05:30:10 | 52.42121 | 8.70622 | 184° | 16km/h | 32846m | 6.2m/s | -37.1°C | 0% | 8hPa | 2.6V | 18:12:15 | 01:58:40 | 00:00:00 | |
| BIOWL1-15 | 2026-09-03 05:30:08 | 52.42145 | 8.70631 | 208° | 26km/h | 32820m | 5.4m/s | -37.1°C | 0% | 8.1hPa | 2.6V | 18:12:15 | 01:58:36 | 00:00:00 | |
| DL1XH1-15 | 2026-09-03 05:30:08 | 52.42154 | 8.70649 | 260° | 13km/h | 32800m | 5.5m/s | -37.1°C | 1.9% | 8.1hPa | 2.7V | 08:30:00 | 01:58:33 | 00:00:00 | |
| HSKMA3-T | 2026-09-03 05:30:08 | 52.42132 | 8.70624 | 191° | 27km/h | 32832m | 7.3m/s | -37.2°C | 0% | 8hPa | 2.7V | 18:12:15 | 01:58:38 | 00:00:00 | |
| DD8BA-10 | 2026-09-03 05:30:08 | 52.42132 | 8.70624 | 191° | 16km/h | 32832m | 7.3m/s | -37.1°C | 1.9% | 8.0hPa | 2.6V | 00:00:00 | 00:00:00 | 00:00:00 | |
| D01LWL | 2026-09-03 05:30:07 | 52.42145 | 8.70631 | 208° | 24km/h | 32820m | 5.4m/s | -37.1°C | 0.4% | 8.1hPa | 2.6V | 00:00:00 | 00:00:00 | 00:00:00 | |
| DL1XH-15 | 2026-09-03 05:30:06 | 52.42155 | 8.70655 | 215° | 5km/h | 32788m | 7m/s | -37.1°C | 1.9% | 8.1hPa | 2.6V | 08:30:00 | 01:58:31 | 00:00:00 | |
| DO2JMG | 2026-09-03 05:30:05 | 52.42149 | 8.70637 | 222° | 22km/h | 32814m | 7.6m/s | -37.2°C | 0% | 8.1hPa | 2.6V | 18:12:15 | 01:58:35 | 00:00:00 | |
| GOEST3-10 | 2026-09-03 05:30:05 | 52.42149 | 8.70636 | 222° | 13km/h | 32814m | 7.6m/s | -37.1°C | 1.9% | 8.0hPa | 2.6V | 00:00:00 | 01:58:35 | 00:00:00 | |
| DM0DOS-11 | 2026-09-03 05:30:04 | 52.42160 | 8.70653 | 158° | 18km/h | 32774m | 6.4m/s | -37°C | 1.9% | 8.1hPa | 2.6V | 08:30:00 | 01:58:29 | 00:00:00 | |
| DL1XH-west | 2026-09-03 05:30:01 | 52.42155 | 8.70655 | 215° | 5km/h | 32788m | 7m/s | -37.1°C | 0% | 8.1hPa | 2.6V | 18:12:15 | 01:58:31 | 00:00:00 | |
| BIOWL1-15 | 2026-09-03 05:30:00 | 52.42165 | 8.70651 | 162° | 24km/h | 32768m | 5.7m/s | -37.1°C | 0% | 8.1hPa | 2.6V | 18:12:15 | 01:58:28 | 00:00:00 | |
| AA1-15 | 2026-09-03 05:30:00 | 52.42157 | 8.70655 | 167° | 11km/h | 32781m | 7.4m/s | -37°C | 0% | 8.2hPa | 2.6V | 18:12:15 | 01:58:30 | 00:00:00 | |
| DF8AY | 2026-09-03 05:29:59 | 52.42160 | 8.70653 | 159° | 18km/h | 32774m | 6.4m/s | -37°C | 0% | 8.1hPa | 2.6V | 18:12:15 | 01:58:29 | 00:00:00 | |
| HSKMA3-T | 2026-09-03 05:29:57 | 52.42171 | 8.70648 | 170° | 24km/h | 32762m | 6m/s | -37°C | 0% | 8.1hPa | 2.7V | 18:12:15 | 01:58:27 | 00:00:00 | |
| SP3BTT-10 | 2026-09-03 05:29:57 | 52.42171 | 8.70648 | 170° | 18km/h | 32762m | 6.0m/s | -37.0°C | 1.9% | 8.1hPa | 2.7V | 00:00:00 | 00:00:00 | 00:00:00 | |
| DL1XH-15 | 2026-09-03 05:29:56 | 52.42197 | 8.70668 | 213° | 18km/h | 32724m | 6.2m/s | -37.1°C | 1.9% | 8.2hPa | 2.7V | 08:30:00 | 01:58:21 | 00:00:00 | |
| DO2JMG | 2026-09-03 05:29:54 | 52.42186 | 8.70652 | 216° | 20km/h | 32741m | 6.7m/s | -37.1°C | 0% | 8.2hPa | 2.6V | 18:12:15 | 01:58:24 | 00:00:00 | |
| DL1XH-west | 2026-09-03 05:29:50 | 52.42201 | 8.70671 | 197° | 18km/h | 32717m | 7.2m/s | -37.1°C | 0% | 8.2hPa | 2.7V | 18:12:15 | 01:58:20 | 00:00:00 | |
| AA1-15 | 2026-09-03 05:29:49 | 52.42206 | 8.70672 | 178° | 20km/h | 32710m | 6.7m/s | -37.1°C | 0% | 8.1hPa | 2.6V | 18:12:15 | 01:58:19 | 00:00:00 | |
| BIOWL1-15 | 2026-09-03 05:29:48 | 52.42211 | 8.70671 | 168° | 20km/h | 32704m | 6.2m/s | -37.2°C | 0% | 8.2hPa | 2.6V | 18:12:15 | 01:58:18 | 00:00:00 | |
| HSKMA3-T | 2026-09-03 05:29:46 | 52.42219 | 8.70666 | 149° | 13km/h | 32690m | 7.6m/s | -37.2°C | 0% | 8.2hPa | 2.6V | 18:12:15 | 01:58:16 | 00:00:00 | |
| DO2JMG | 2026-09-03 05:29:44 | 52.42222 | 8.70660 | 109° | 9km/h | 32677m | 5.8m/s | -37.2°C | 0% | 8.2hPa | 2.7V | 18:12:15 | 01:58:14 | 00:00:00 | |
| DL1XH-west | 2026-09-03 05:29:40 | 52.42230 | 8.70642 | 145° | 20km/h | 32650m | 6.4m/s | -37.4°C | 0% | 8.2hPa | 2.6V | 18:12:15 | 01:58:10 | 00:00:00 | |
| AA1-15 | 2026-09-03 05:29:39 | 52.42234 | 8.70638 | 159° | 22km/h | 32644m | 5.9m/s | -37.4°C | 0% | 8.3hPa | 2.7V | 18:12:15 | 01:58:09 | 00:00:00 | |
| DL1XH1-15 | 2026-09-03 05:29:38 | 52.42257 | 8.70645 | 163° | 11km/h | 32607m | 7.2m/s | -37.5°C | 1.9% | 8.3hPa | 2.7V | 08:30:00 | 01:58:03 | 00:00:00 | |
| DF8AY | 2026-09-03 05:29:38 | 52.42239 | 8.70636 | 174° | 20km/h | 32638m | 6.3m/s | -37.5°C | 0% | 8.3hPa | 2.7V | 18:12:15 | 01:58:08 | 00:00:00 | |
| BIOWL1-15 | 2026-09-03 05:29:37 | 52.42244 | 8.70637 | 192° | 18km/h | 32631m | 7.7m/s | -37.5°C | 0% | 8.3hPa | 2.6V | 18:12:15 | 01:58:07 | 00:00:00 | |
| DL1NUX | 2026-09-03 05:29:36 | 52.42263 | 8.70635 | 124° | 24km/h | 32592m | 7.2m/s | 0°C | 0% | 0hPa | 2.6V | 00:00:00 | 01:58:01 | 00:00:00 | |
| HSKMA3-T | 2026-09-03 05:29:36 | 52.42248 | 8.70639 | 210° | 16km/h | 32624m | 6.7m/s | -37.4°C | 0% | 8.3hPa | 2.6V | 18:12:15 | 01:58:06 | 00:00:00 | |
| DO2JMG | 2026-09-03 05:29:33 | 52.42257 | 8.70645 | 164° | 11km/h | 32607m | 7.2m/s | -37.6°C | 0% | 8.3hPa | 2.7V | 18:12:15 | 01:58:03 | 00:00:00 | |
| DJ2DS-15 | 2026-09-03 05:29:32 | 52.42260 | 8.70642 | 138° | 16km/h | 32600m | 7.9m/s | -37.5°C | 1.9% | 8.3hPa | 2.6V | 00:00:00 | 01:58:02 | 00:00:00 | |
| DM0DOS-11 | 2026-09-03 05:29:31 | 52.42269 | 8.70618 | 114° | 22km/h | 32580m | 5.4m/s | -37.9°C | 1.9% | 8.3hPa | 2.6V | 08:30:00 | 01:57:59 | 00:00:00 | |
| DL1XH-west | 2026-09-03 05:29:30 | 52.42266 | 8.70627 | 119° | 26km/h | 32586m | 6m/s | -37.8°C | 0% | 8.3hPa | 2.6V | 18:12:15 | 01:58:00 | 00:00:00 | |
| BIOWL1-15 | 2026-09-03 05:29:29 | 52.42271 | 8.70608 | 108° | 5km/h | 32566m | 7.6m/s | -37.9°C | 0% | 8.4hPa | 2.7V | 18:12:15 | 01:57:57 | 00:00:00 | |
| DL1XH1-15 | 2026-09-03 05:29:28 | 52.42274 | 8.70616 | 208° | 11km/h | 32539m | 7m/s | -37.9°C | 2% | 8.4hPa | 2.6V | 08:30:00 | 01:57:53 | 00:00:00 | |
| AA1-15 | 2026-09-03 05:29:28 | 52.42271 | 8.70612 | 110° | 15km/h | 32574m | 6.9m/s | -37.9°C | 0% | 8.4hPa | 2.6V | 18:12:15 | 01:57:58 | 00:00:00 | |
| HSKMA3-T | 2026-09-03 05:29:25 | 52.42272 | 8.70610 | 261° | 7km/h | 32553m | 6.3m/s | -37.9°C | 0% | 8.4hPa | 2.6V | 18:12:15 | 01:57:55 | 00:00:00 | |
| DB0DAN | 2026-09-03 05:29:25 | 52.42272 | 8.70610 | 261° | 7km/h | 32553m | 6.3m/s | -37.9°C | 0.4% | 8.38hPa | 2.6V | 00:00:00 | 00:00:00 | 00:00:00 | |
| DO2JMG | 2026-09-03 05:29:23 | 52.42274 | 8.70616 | 209° | 11km/h | 32539m | 7m/s | -37.9°C | 0% | 8.4hPa | 2.6V | 18:12:15 | 01:57:53 | 00:00:00 | |
| DL1XH-west | 2026-09-03 05:29:19 | 52.42289 | 8.70612 | 157° | 18km/h | 32512m | 7.1m/s | -38°C | 0% | 8.4hPa | 2.6V | 18:12:15 | 01:57:49 | 00:00:00 | |
| AA1-15 | 2026-09-03 05:29:18 | 52.42293 | 8.70609 | 153° | 18km/h | 32506m | 6m/s | -38°C | 0% | 8.5hPa | 2.6V | 18:12:15 | 01:57:48 | 00:00:00 | |
| BIOWL1-15 | 2026-09-03 05:29:16 | 52.42301 | 8.70600 | 141° | 22km/h | 32494m | 6.3m/s | -38.1°C | 0% | 8.4hPa | 2.6V | 18:12:15 | 01:57:46 | 00:00:00 | |
| HSKMA3-T | 2026-09-03 05:29:14 | 52.42310 | 8.70585 | 132° | 27km/h | 32480m | 6.7m/s | -38°C | 0% | 8.5hPa | 2.7V | 18:12:15 | 01:57:44 | 00:00:00 | |
| DO2JMG | 2026-09-03 05:29:12 | 52.42318 | 8.70570 | 128° | 18km/h | 32469m | 5.2m/s | -38°C | 0% | 8.5hPa | 2.6V | 18:12:15 | 01:57:42 | 00:00:00 | |
| DJ2DS-15 | 2026-09-03 05:29:12 | 52.42318 | 8.70570 | 129° | 11km/h | 32469m | 5.1m/s | -38.0°C | 2.0% | 8.4hPa | 2.6V | 00:00:00 | 01:57:42 | 00:00:00 | |
| DK9SH | 2026-09-03 05:29:11 | 52.42318 | 8.70570 | 129° | 18km/h | 32469m | 5.2m/s | -38.0°C | 0.4% | 8.5hPa | 2.6V | 00:00:00 | 00:00:00 | 00:00:00 | |
| DB0DAN | 2026-09-03 05:29:10 | 52.42321 | 8.70564 | 102° | 2km/h | 32456m | 8.6m/s | -38.2°C | 0.4% | 8.51hPa | 2.6V | 00:00:00 | 00:00:00 | 00:00:00 | |
| BIOWL1-15 | 2026-09-03 05:29:09 | 52.42318 | 8.70567 | 126° | 13km/h | 32423m | 7.2m/s | -38.3°C | 0% | 8.5hPa | 2.6V | 18:12:15 | 01:57:35 | 00:00:00 | |
| DL1XH-west | 2026-09-03 05:29:09 | 52.42320 | 8.70565 | 314° | 7km/h | 32447m | 7.7m/s | -38.2°C | 0% | 8.5hPa | 2.7V | 18:12:15 | 01:57:39 | 00:00:00 | |
| DL1XH1-15 | 2026-09-03 05:29:08 | 52.42325 | 8.70554 | 136° | 29km/h | 32410m | 5.9m/s | -38.4°C | 2% | 8.6hPa | 2.7V | 08:30:00 | 01:57:33 | 00:00:00 | |
| AA1-15 | 2026-09-03 05:29:08 | 52.42319 | 8.70568 | 317° | 11km/h | 32441m | 5.6m/s | -38.2°C | 0% | 8.6hPa | 2.7V | 18:12:15 | 01:57:38 | 00:00:00 | |
| DF8AY | 2026-09-03 05:29:06 | 52.42317 | 8.70570 | 87° | 2km/h | 32430m | 7m/s | -38.3°C | 0% | 8.6hPa | 2.6V | 18:12:15 | 01:57:36 | 00:00:00 | |
| HSKMA3-T | 2026-09-03 05:29:03 | 52.42325 | 8.70554 | 137° | 29km/h | 32410m | 5.9m/s | -38.4°C | 0% | 8.6hPa | 2.7V | 18:12:15 | 01:57:33 | 00:00:00 | |
| DL1NUX | 2026-09-03 05:29:02 | 52.42344 | 8.70535 | 353° | 2km/h | 32370m | 6.9m/s | 0°C | 0% | 0hPa | 2.7V | 00:00:00 | 01:57:27 | 00:00:00 | |
| DO2JMG | 2026-09-03 05:29:02 | 52.42330 | 8.70546 | 141° | 27km/h | 32404m | 6.5m/s | -38.4°C | 0% | 8.6hPa | 2.6V | 18:12:15 | 01:57:32 | 00:00:00 | |
| DO9LL-15 | 2026-09-03 05:29:02 | 52.42330 | 8.70546 | 141° | 11km/h | 32404m | 6.4m/s | -38.3°C | 2.0% | 8.6hPa | 2.6V | 00:00:00 | 01:57:32 | 00:00:00 | |
| DO3MHA-12 | 2026-09-03 05:29:01 | 52.42336 | 8.70540 | 147° | 9km/h | 32397m | 6.9m/s | -38.4°C | 2.0% | 8.5hPa | 2.6V | 00:00:00 | 01:57:31 | 00:00:00 | |
| DM0DOS-11 | 2026-09-03 05:29:00 | 52.42342 | 8.70534 | 169° | 7km/h | 32383m | 6.5m/s | -38.3°C | 2% | 8.6hPa | 2.6V | 08:30:00 | 01:57:29 | 00:00:00 | |
| DL1XH-west | 2026-09-03 05:28:58 | 52.42344 | 8.70534 | 220° | 2km/h | 32377m | 6.3m/s | -38.3°C | 0% | 8.6hPa | 2.6V | 18:12:15 | 01:57:28 | 00:00:00 | |
| DF8AY | 2026-09-03 05:28:57 | 52.42343 | 8.70534 | 34° | 5km/h | 32363m | 7m/s | -38.4°C | 0% | 8.6hPa | 2.7V | 18:12:15 | 01:57:26 | 00:00:00 | |
| AA1-15 | 2026-09-03 05:28:57 | 52.42343 | 8.70535 | 354° | 2km/h | 32370m | 6.9m/s | -38.4°C | 0% | 8.6hPa | 2.7V | 18:12:15 | 01:57:27 | 00:00:00 | |
| BIOWL1-15 | 2026-09-03 05:28:55 | 52.42342 | 8.70532 | 58° | 7km/h | 32357m | 6.4m/s | -38.3°C | 0% | 8.6hPa | 2.6V | 18:12:15 | 01:57:25 | 00:00:00 | |
| DB0DAN | 2026-09-03 05:28:55 | 52.42342 | 8.70532 | 58° | 7km/h | 32357m | 6.4m/s | -38.3°C | 0.4% | 8.64hPa | 2.6V | 00:00:00 | 00:00:00 | 00:00:00 | |
| HSKMA3-T | 2026-09-03 05:28:53 | 52.42341 | 8.70526 | 92° | 7km/h | 32344m | 6m/s | -38.3°C | 0% | 8.7hPa | 2.6V | 18:12:15 | 01:57:23 | 00:00:00 | |
| DO2JMG | 2026-09-03 05:28:51 | 52.42342 | 8.70522 | 152° | 5km/h | 32330m | 6.9m/s | -38.3°C | 0% | 8.7hPa | 2.7V | 18:12:15 | 01:57:21 | 00:00:00 | |
| DO3MHA-12 | 2026-09-03 05:28:51 | 52.42342 | 8.70522 | 152° | 11km/h | 32331m | 6.8m/s | -38.2°C | 2.1% | 8.6hPa | 2.6V | 00:00:00 | 01:57:21 | 00:00:00 | |
| DM0DOS-11 | 2026-09-03 05:28:50 | 52.42345 | 8.70519 | 141° | 9km/h | 32319m | 5.6m/s | -38.3°C | 2.1% | 8.7hPa | 2.6V | 08:30:00 | 01:57:19 | 00:00:00 | |
| DL1XH-west | 2026-09-03 05:28:48 | 52.42347 | 8.70516 | 123° | 13km/h | 32312m | 7m/s | -38.3°C | 0% | 8.7hPa | 2.6V | 18:12:15 | 01:57:18 | 00:00:00 | |
| AA1-15 | 2026-09-03 05:28:46 | 52.42350 | 8.70504 | 107° | 18km/h | 32298m | 6m/s | -38.3°C | 0% | 8.7hPa | 2.6V | 18:12:15 | 01:57:16 | 00:00:00 | |
| DF8AY | 2026-09-03 05:28:45 | 52.42351 | 8.70497 | 109° | 16km/h | 32293m | 5m/s | -38.3°C | 0% | 8.7hPa | 2.7V | 18:12:15 | 01:57:15 | 00:00:00 | |
| BIOWL1-15 | 2026-09-03 05:28:44 | 52.42352 | 8.70492 | 124° | 11km/h | 32287m | 5.4m/s | -38.4°C | 0% | 8.7hPa | 2.6V | 18:12:15 | 01:57:14 | 00:00:00 | |
| HSKMA3-T | 2026-09-03 05:28:42 | 52.42356 | 8.70491 | 222° | 11km/h | 32273m | 7.7m/s | -38.2°C | 0% | 8.8hPa | 2.6V | 18:12:15 | 01:57:12 | 00:00:00 | |
| DO2JMG | 2026-09-03 05:28:40 | 52.42361 | 8.70501 | 236° | 16km/h | 32260m | 5.7m/s | -38.3°C | 0% | 8.8hPa | 2.6V | 18:12:15 | 01:57:10 | 00:00:00 | |
| DB0DAN | 2026-09-03 05:28:40 | 52.42361 | 8.70501 | 236° | 16km/h | 32260m | 5.7m/s | -38.3°C | 0.4% | 8.76hPa | 2.6V | 00:00:00 | 00:00:00 | 00:00:00 | |
| DJ8HS-15 | 2026-09-03 05:28:40 | 52.42361 | 8.70501 | 236° | 13km/h | 32260m | 5.7m/s | -38.2°C | 2.0% | 8.7hPa | 2.6V | 00:00:00 | 01:57:10 | 00:00:00 | |
| DL1XH1-15 | 2026-09-03 05:28:38 | 52.42374 | 8.70499 | 129° | 11km/h | 32213m | 6m/s | -38.2°C | 2% | 8.8hPa | 2.7V | 08:30:00 | 01:57:03 | 00:00:00 | |
| DL1XH-west | 2026-09-03 05:28:37 | 52.42367 | 8.70509 | 162° | 7km/h | 32240m | 6.3m/s | -38.2°C | 0% | 8.8hPa | 2.6V | 18:12:15 | 01:57:07 | 00:00:00 | |
| AA1-15 | 2026-09-03 05:28:35 | 52.42370 | 8.70505 | 140° | 9km/h | 32227m | 7.5m/s | -38.3°C | 0% | 8.8hPa | 2.6V | 18:12:15 | 01:57:05 | 00:00:00 | |
| BIOWL1-15 | 2026-09-03 05:28:34 | 52.42372 | 8.70503 | 136° | 9km/h | 32219m | 6.4m/s | -38.3°C | 0% | 8.8hPa | 2.6V | 18:12:15 | 01:57:04 | 00:00:00 | |
| HSKMA3-T | 2026-09-03 05:28:31 | 52.42378 | 8.70490 | 124° | 16km/h | 32200m | 7.2m/s | -38.2°C | 0% | 8.8hPa | 2.6V | 18:12:15 | 01:57:01 | 00:00:00 | |
| DO3MHA-12 | 2026-09-03 05:28:31 | 52.42378 | 8.70490 | 124° | 15km/h | 32200m | 7.1m/s | -38.1°C | 2.0% | 8.8hPa | 2.6V | 00:00:00 | 01:57:01 | 00:00:00 | |
| DM0DOS-11 | 2026-09-03 05:28:30 | 52.42382 | 8.70482 | 160° | 11km/h | 32188m | 5.3m/s | -38.2°C | 2% | 8.9hPa | 2.6V | 08:30:00 | 01:56:59 | 00:00:00 | |
| DO2JMG | 2026-09-03 05:28:30 | 52.42380 | 8.70485 | 132° | 15km/h | 32194m | 5.3m/s | -38.2°C | 0% | 8.9hPa | 2.6V | 18:12:15 | 01:57:00 | 00:00:00 | |
| DO3MHA-11 | 2026-09-03 05:28:30 | 52.42380 | 8.70485 | 133° | 15km/h | 32194m | 5.2m/s | -38.1°C | 2.0% | 8.9hPa | 2.6V | 00:00:00 | 01:57:00 | 00:00:00 | |
| DL3AQ-11 | 2026-09-03 05:28:29 | 52.42388 | 8.70486 | 232° | 16km/h | 32175m | 8.5m/s | -38.4°C | 0.4% | 8.9hPa | 2.6V | 00:00:00 | 00:00:00 | 00:00:00 | |
| DL1XH1-15 | 2026-09-03 05:28:28 | 52.42396 | 8.70513 | 223° | 7km/h | 32148m | 6.8m/s | -38.3°C | 2% | 8.9hPa | 2.6V | 08:30:00 | 01:56:53 | 00:00:00 | |
| DL1XH-west | 2026-09-03 05:28:27 | 52.42388 | 8.70486 | 233° | 16km/h | 32174m | 8.5m/s | -38.4°C | 0% | 8.9hPa | 2.7V | 18:12:15 | 01:56:57 | 00:00:00 | |
| AA1-15 | 2026-09-03 05:28:25 | 52.42392 | 8.70501 | 247° | 22km/h | 32161m | 5.4m/s | -38.3°C | 0% | 8.9hPa | 2.6V | 18:12:15 | 01:56:55 | 00:00:00 | |
| BIOWL1-15 | 2026-09-03 05:28:25 | 52.42396 | 8.70513 | 224° | 9km/h | 32148m | 6.8m/s | -38.3°C | 0% | 8.9hPa | 2.6V | 18:12:15 | 01:56:53 | 00:00:00 | |
| DB0DAN | 2026-09-03 05:28:25 | 52.42392 | 8.70501 | 247° | 20km/h | 32161m | 5.4m/s | -38.3°C | 0.4% | 8.92hPa | 2.6V | 00:00:00 | 00:00:00 | 00:00:00 | |
| HSKMA3-T | 2026-09-03 05:28:21 | 52.42399 | 8.70510 | 120° | 11km/h | 32135m | 6m/s | -38.3°C | 0% | 8.9hPa | 2.7V | 18:12:15 | 01:56:51 | 00:00:00 | |
| DO3MHA-12 | 2026-09-03 05:28:21 | 52.42399 | 8.70510 | 120° | 13km/h | 32136m | 6.0m/s | -38.3°C | 1.9% | 8.9hPa | 2.6V | 00:00:00 | 01:56:51 | 00:00:00 | |
| DM0DOS-11 | 2026-09-03 05:28:20 | 52.42401 | 8.70502 | 122° | 11km/h | 32122m | 7.2m/s | -38.4°C | 1.9% | 8.9hPa | 2.6V | 08:30:00 | 01:56:49 | 00:00:00 | |
| DO2JMG | 2026-09-03 05:28:19 | 52.42401 | 8.70502 | 122° | 11km/h | 32122m | 7.2m/s | -38.4°C | 0% | 8.9hPa | 2.6V | 18:12:15 | 01:56:49 | 00:00:00 | |
| DL1XH1-15 | 2026-09-03 05:28:18 | 52.42417 | 8.70493 | 179° | 13km/h | 32083m | 5.8m/s | -38.6°C | 2% | 9hPa | 2.6V | 08:30:00 | 01:56:43 | 00:00:00 | |
| DD8BA-10 | 2026-09-03 05:28:18 | 52.42403 | 8.70499 | 138° | 15km/h | 32115m | 5.8m/s | -38.4°C | 2.0% | 8.9hPa | 2.6V | 00:00:00 | 00:00:00 | 08:30:00 | |
| DL3AQ-11 | 2026-09-03 05:28:17 | 52.42408 | 8.70495 | 167° | 11km/h | 32104m | 6.2m/s | -38.6°C | 0.4% | 9.0hPa | 2.6V | 00:00:00 | 00:00:00 | 00:00:00 | |
| DL1XH-15 | 2026-09-03 05:28:16 | 52.42424 | 8.70496 | 215° | 16km/h | 32072m | 6.3m/s | -38.7°C | 2% | 9hPa | 2.6V | 08:30:00 | 01:56:41 | 00:00:00 | |
| DL1XH-west | 2026-09-03 05:28:16 | 52.42408 | 8.70495 | 168° | 11km/h | 32103m | 6.2m/s | -38.6°C | 0% | 9hPa | 2.6V | 18:12:15 | 01:56:46 | 00:00:00 | |
| AA1-15 | 2026-09-03 05:28:15 | 52.42411 | 8.70494 | 169° | 13km/h | 32097m | 7.1m/s | -38.6°C | 0% | 9hPa | 2.7V | 18:12:15 | 01:56:45 | 00:00:00 | |
| DF8AY | 2026-09-03 05:28:14 | 52.42414 | 8.70493 | 173° | 13km/h | 32090m | 6.7m/s | -38.6°C | 0% | 9hPa | 2.6V | 18:12:15 | 01:56:44 | 00:00:00 | |
| BIOWL1-15 | 2026-09-03 05:28:14 | 52.42421 | 8.70494 | 198° | 15km/h | 32078m | 5.7m/s | -38.6°C | 0% | 9hPa | 2.6V | 18:12:15 | 01:56:42 | 00:00:00 | |
| DB0UT-7 | 2026-09-03 05:28:13 | 52.42417 | 8.70492 | 180° | 22km/h | 32084m | 5.8m/s | -38.5°C | 2.0% | 9.0hPa | 2.6V | 00:00:00 | 00:00:00 | 08:30:00 | |
| DJ2DS-15 | 2026-09-03 05:28:12 | 52.42421 | 8.70493 | 198° | 27km/h | 32078m | 5.6m/s | -38.6°C | 2.0% | 9.0hPa | 2.6V | 00:00:00 | 01:56:42 | 00:00:00 | |
| SMARD9-10 | 2026-09-03 05:28:11 | 52.42421 | 8.70493 | 199° | 15km/h | 32078m | 5.7m/s | -38.6°C | 0.4% | 9.0hPa | 2.6V | 00:00:00 | 00:00:00 | 00:00:00 | |
| DB0DAN | 2026-09-03 05:28:10 | 52.42428 | 8.70502 | 227° | 20km/h | 32065m | 7.9m/s | -38.9°C | 0.4% | 9.03hPa | 2.6V | 00:00:00 | 00:00:00 | 00:00:00 | |
| HSKMA3-T | 2026-09-03 05:28:10 | 52.42428 | 8.70502 | 227° | 20km/h | 32065m | 7.9m/s | -38.9°C | 0% | 9hPa | 2.6V | 18:12:15 | 01:56:40 | 00:00:00 | |
| DO2JMG | 2026-09-03 05:28:09 | 52.42431 | 8.70508 | 231° | 24km/h | 32058m | 6.2m/s | -39°C | 0% | 9hPa | 2.7V | 18:12:15 | 01:56:39 | 00:00:00 | |
| SMARD9-15 | 2026-09-03 05:28:09 | 52.42435 | 8.70515 | 221° | 20km/h | 32052m | 4.7m/s | -39.0°C | 0.4% | 9.0hPa | 2.7V | 00:00:00 | 00:00:00 | 00:00:00 | |
| DL1XH1-15 | 2026-09-03 05:28:08 | 52.42462 | 8.70500 | 136° | 35km/h | 32020m | 5.5m/s | -39.4°C | 2.1% | 9.1hPa | 2.7V | 08:30:00 | 01:56:33 | 00:00:00 | |
| DD8BA-10 | 2026-09-03 05:28:08 | 52.42435 | 8.70515 | 222° | 26km/h | 32052m | 4.6m/s | -39.0°C | 2.0% | 9.0hPa | 2.6V | 00:00:00 | 00:00:00 | 00:00:00 | |
| DL4XJ-10 | 2026-09-03 05:28:07 | 52.42439 | 8.70519 | 200° | 26km/h | 32048m | 4.9m/s | -37.8°C | 0% | 0hPa | 2.6V | 00:00:00 | 00:00:00 | 00:00:00 | |
| DL1XH-15 | 2026-09-03 05:28:06 | 52.42474 | 8.70485 | 154° | 27km/h | 32008m | 6.3m/s | -39.5°C | 2.1% | 9.1hPa | 2.6V | 08:30:00 | 01:56:31 | 00:00:00 | |
| DL1XH-west | 2026-09-03 05:28:05 | 52.42450 | 8.70517 | 148° | 26km/h | 32033m | 7.7m/s | -39.2°C | 0% | 9hPa | 2.6V | 18:12:15 | 01:56:35 | 00:00:00 | |
| AA1-15 | 2026-09-03 05:28:04 | 52.42455 | 8.70510 | 138° | 33km/h | 32026m | 6.3m/s | -39.3°C | 0% | 9.1hPa | 2.6V | 18:12:15 | 01:56:34 | 00:00:00 | |
| BIOWL1-15 | 2026-09-03 05:28:02 | 52.42468 | 8.70491 | 142° | 33km/h | 32015m | 6m/s | -39.5°C | 0% | 9.1hPa | 2.7V | 18:12:15 | 01:56:32 | 00:00:00 | |
| DO2JMG | 2026-09-03 05:27:59 | 52.42486 | 8.70482 | 191° | 24km/h | 31996m | 6m/s | -39.7°C | 0% | 9.1hPa | 2.6V | 18:12:15 | 01:56:29 | 00:00:00 | |
| BUE01 | 2026-09-03 05:27:59 | 52.42486 | 8.70482 | 190° | 24km/h | 31996m | 6.0m/s | -39.7°C | 0.5% | 9.1hPa | 2.6V | 00:00:00 | 00:00:00 | 00:00:00 | |
| DD8BA-10 | 2026-09-03 05:27:58 | 52.42492 | 8.70485 | 200° | 26km/h | 31990m | 6.1m/s | -39.7°C | 2.1% | 9.1hPa | 2.6V | 00:00:00 | 00:00:00 | 00:00:00 | |
| DL1NUX | 2026-09-03 05:27:57 | 52.42539 | 8.70499 | 186° | 27km/h | 31953m | 6.7m/s | 0°C | 0% | 0hPa | 2.6V | 00:00:00 | 01:56:22 | 00:00:00 | |
| DL1XH-15 | 2026-09-03 05:27:56 | 52.42545 | 8.70500 | 189° | 22km/h | 31947m | 6.4m/s | -39.8°C | 2.1% | 9.2hPa | 2.7V | 08:30:00 | 01:56:21 | 00:00:00 | |
| DL1XH-west | 2026-09-03 05:27:54 | 52.42523 | 8.70496 | 186° | 35km/h | 31966m | 5.6m/s | -39.7°C | 0% | 9.2hPa | 2.6V | 18:12:15 | 01:56:24 | 00:00:00 | |
| AA1-15 | 2026-09-03 05:27:53 | 52.42531 | 8.70498 | 185° | 33km/h | 31960m | 5.9m/s | -39.7°C | 0% | 9.2hPa | 2.6V | 18:12:15 | 01:56:23 | 00:00:00 | |
| BIOWL1-15 | 2026-09-03 05:27:51 | 52.42545 | 8.70500 | 189° | 22km/h | 31947m | 6.4m/s | -39.8°C | 0% | 9.2hPa | 2.7V | 18:12:15 | 01:56:21 | 00:00:00 | |
| DO2JMG | 2026-09-03 05:27:48 | 52.42555 | 8.70497 | 125° | 11km/h | 31928m | 8m/s | -39.9°C | 0% | 9.2hPa | 2.6V | 18:12:15 | 01:56:18 | 00:00:00 | |
| DF8AY-15 | 2026-09-03 05:27:48 | 52.42555 | 8.70497 | 126° | 11km/h | 31928m | 8.0m/s | -39.8°C | 2.1% | 9.2hPa | 2.6V | 00:00:00 | 01:56:18 | 00:00:00 | |
| DL4XJ-10 | 2026-09-03 05:27:47 | 52.42556 | 8.70493 | 105° | 9km/h | 31921m | 6.9m/s | -38.6°C | 0% | 0hPa | 2.6V | 00:00:00 | 00:00:00 | 00:00:00 | |
| DL1XH-15 | 2026-09-03 05:27:46 | 52.42561 | 8.70492 | 215° | 15km/h | 31883m | 6.7m/s | -40.3°C | 2.2% | 9.3hPa | 2.6V | 08:30:00 | 01:56:11 | 00:00:00 | |
| DL8DAS-14 | 2026-09-03 05:27:45 | 52.42557 | 8.70483 | 220° | 0km/h | 31902m | 7.4m/s | -40.2°C | 0.5% | 9.2hPa | 2.6V | 00:00:00 | 00:00:00 | 00:00:00 | |
| SONCRA | 2026-09-03 05:27:44 | 52.42557 | 8.70483 | 220° | 0km/h | 31902m | 7.4m/s | -40.2°C | 0.5% | 9.2hPa | 2.6V | 00:00:00 | 00:00:00 | 00:00:00 | |
| DL1XH-west | 2026-09-03 05:27:43 | 52.42557 | 8.70485 | 244° | 9km/h | 31895m | 6.3m/s | -40.2°C | 0% | 9.2hPa | 2.6V | 18:12:15 | 01:56:13 | 00:00:00 | |
| BIOWL1-15 | 2026-09-03 05:27:42 | 52.42565 | 8.70495 | 195° | 16km/h | 31876m | 7.2m/s | -40.3°C | 0% | 9.3hPa | 2.6V | 18:12:15 | 01:56:10 | 00:00:00 | |
| DF8AY | 2026-09-03 05:27:42 | 52.42559 | 8.70489 | 233° | 13km/h | 31889m | 5.7m/s | -40.2°C | 0% | 9.3hPa | 2.6V | 18:12:15 | 01:56:12 | 00:00:00 | |
| DB0DAN | 2026-09-03 05:27:40 | 52.42565 | 8.70495 | 195° | 15km/h | 31876m | 7.2m/s | -40.3°C | 0.5% | 9.33hPa | 2.6V | 00:00:00 | 00:00:00 | 00:00:00 | |
| DO2JMG | 2026-09-03 05:27:38 | 52.42573 | 8.70494 | 163° | 18km/h | 31864m | 5.2m/s | -40.3°C | 0% | 9.3hPa | 2.6V | 18:12:15 | 01:56:08 | 00:00:00 | |
| HSKMA3-T | 2026-09-03 05:27:37 | 52.42577 | 8.70492 | 155° | 16km/h | 31859m | 5.4m/s | -40.4°C | 0% | 9.3hPa | 2.6V | 18:12:15 | 01:56:07 | 00:00:00 | |
| DL3AQ-11 | 2026-09-03 05:27:37 | 52.42580 | 8.70489 | 150° | 11km/h | 31853m | 6.7m/s | -40.4°C | 0.5% | 9.3hPa | 2.6V | 00:00:00 | 00:00:00 | 00:00:00 | |
| DL1XH-15 | 2026-09-03 05:27:36 | 52.42579 | 8.70481 | 65° | 9km/h | 31820m | 7.4m/s | -40.7°C | 2.2% | 9.4hPa | 2.6V | 08:30:00 | 01:56:01 | 00:00:00 | |
| DL1XH-west | 2026-09-03 05:27:33 | 52.42582 | 8.70486 | 28° | 5km/h | 31833m | 5.8m/s | -40.5°C | 0% | 9.3hPa | 2.7V | 18:12:15 | 01:56:03 | 00:00:00 | |
| DF8AY | 2026-09-03 05:27:31 | 52.42579 | 8.70481 | 66° | 9km/h | 31820m | 7.4m/s | -40.7°C | 0% | 9.4hPa | 2.6V | 18:12:15 | 01:56:01 | 00:00:00 | |
| BIOWL1-15 | 2026-09-03 05:27:29 | 52.42579 | 8.70474 | 109° | 9km/h | 31808m | 5.5m/s | -40.9°C | 0% | 9.4hPa | 2.6V | 18:12:15 | 01:55:59 | 00:00:00 | |
| DL1XH1-15 | 2026-09-03 05:27:28 | 52.42593 | 8.70480 | 168° | 11km/h | 31770m | 6.9m/s | -40.7°C | 2.2% | 9.4hPa | 2.6V | 08:30:00 | 01:55:53 | 00:00:00 | |
| DO2JMG | 2026-09-03 05:27:28 | 52.42580 | 8.70471 | 150° | 5km/h | 31801m | 7.2m/s | -40.9°C | 0% | 9.4hPa | 2.6V | 18:12:15 | 01:55:58 | 00:00:00 | |
| HSKMA3-T | 2026-09-03 05:27:27 | 52.42582 | 8.70471 | 201° | 9km/h | 31794m | 7.5m/s | -40.9°C | 0% | 9.4hPa | 2.7V | 18:12:15 | 01:55:57 | 00:00:00 | |
| DL3AQ-11 | 2026-09-03 05:27:26 | 52.42587 | 8.70477 | 212° | 13km/h | 31782m | 5.4m/s | -40.7°C | 0.5% | 9.4hPa | 2.7V | 00:00:00 | 00:00:00 | 00:00:00 | |
| DL1NUX | 2026-09-03 05:27:25 | 52.42597 | 8.70470 | 89° | 9km/h | 31750m | 7.2m/s | 0°C | 0% | 0hPa | 2.7V | 00:00:00 | 01:55:50 | 00:00:00 | |
| DB0DAN | 2026-09-03 05:27:25 | 52.42587 | 8.70477 | 213° | 13km/h | 31782m | 5.4m/s | -40.7°C | 0.5% | 9.4hPa | 2.6V | 00:00:00 | 00:00:00 | 00:00:00 | |
| DL1XH-west | 2026-09-03 05:27:23 | 52.42593 | 8.70480 | 168° | 11km/h | 31770m | 6.9m/s | -40.7°C | 0% | 9.5hPa | 2.6V | 18:12:15 | 01:55:53 | 00:00:00 | |
| AA1-15 | 2026-09-03 05:27:22 | 52.42595 | 8.70478 | 133° | 11km/h | 31763m | 6.2m/s | -40.8°C | 0% | 9.4hPa | 2.6V | 18:12:15 | 01:55:52 | 00:00:00 | |
| DM0DOS-11 | 2026-09-03 05:27:21 | 52.42597 | 8.70466 | 75° | 7km/h | 31743m | 6.8m/s | -40.9°C | 2.2% | 9.5hPa | 2.6V | 08:30:00 | 01:55:49 | 00:00:00 | |
| DF8AY | 2026-09-03 05:27:20 | 52.42597 | 8.70470 | 90° | 9km/h | 31750m | 7.2m/s | -40.8°C | 0% | 9.5hPa | 2.7V | 18:12:15 | 01:55:50 | 00:00:00 | |
| BIOWL1-15 | 2026-09-03 05:27:19 | 52.42597 | 8.70466 | 76° | 7km/h | 31743m | 6.8m/s | -40.9°C | 0% | 9.5hPa | 2.6V | 18:12:15 | 01:55:49 | 00:00:00 | |
| DL1XH1-15 | 2026-09-03 05:27:18 | 52.42606 | 8.70452 | 183° | 16km/h | 31708m | 5.2m/s | -41.1°C | 2.3% | 9.5hPa | 2.6V | 08:30:00 | 01:55:43 | 00:00:00 | |
| DO2JMG | 2026-09-03 05:27:17 | 52.42596 | 8.70461 | 110° | 5km/h | 31732m | 5m/s | -40.9°C | 0% | 9.5hPa | 2.6V | 18:12:15 | 01:55:47 | 00:00:00 | |
| HSKMA3-T | 2026-09-03 05:27:16 | 52.42597 | 8.70458 | 129° | 9km/h | 31726m | 6.9m/s | -40.9°C | 0% | 9.5hPa | 2.6V | 18:12:15 | 01:55:46 | 00:00:00 | |
| AU51GT2 | 2026-09-03 05:27:16 | 52.42599 | 8.70455 | 143° | 13km/h | 31719m | 6.8m/s | -40.9°C | 0.5% | 9.5hPa | 2.7V | 00:00:00 | 00:00:00 | 00:00:00 | |
| SP3BTT-10 | 2026-09-03 05:27:15 | 52.42599 | 8.70455 | 144° | 16km/h | 31719m | 6.7m/s | -40.9°C | 2.2% | 9.5hPa | 2.7V | 00:00:00 | 00:00:00 | 00:00:00 | |
| DM0DOS-11 | 2026-09-03 05:27:14 | 52.42619 | 8.70470 | 241° | 15km/h | 31683m | 5m/s | -40.9°C | 2.2% | 9.6hPa | 2.7V | 08:30:00 | 01:55:39 | 00:00:00 | |
| DL1XH-west | 2026-09-03 05:27:13 | 52.42606 | 8.70452 | 184° | 16km/h | 31708m | 5.2m/s | -41.1°C | 0% | 9.5hPa | 2.6V | 18:12:15 | 01:55:43 | 00:00:00 | |
| AA1-15 | 2026-09-03 05:27:12 | 52.42610 | 8.70454 | 203° | 16km/h | 31701m | 7.5m/s | -41.1°C | 0% | 9.6hPa | 2.6V | 18:12:15 | 01:55:42 | 00:00:00 | |
| DJ2DS-15 | 2026-09-03 05:27:12 | 52.42610 | 8.70454 | 203° | 13km/h | 31702m | 7.5m/s | -41.0°C | 2.3% | 9.5hPa | 2.6V | 00:00:00 | 01:55:42 | 00:00:00 | |
| DB0DAN | 2026-09-03 05:27:10 | 52.42617 | 8.70464 | 238° | 18km/h | 31688m | 5.4m/s | -40.9°C | 0.5% | 9.55hPa | 2.6V | 00:00:00 | 00:00:00 | 00:00:00 | |
| DF8AY | 2026-09-03 05:27:10 | 52.42617 | 8.70464 | 238° | 18km/h | 31688m | 5.4m/s | -40.9°C | 0% | 9.6hPa | 2.6V | 18:12:15 | 01:55:40 | 00:00:00 | |
| BIOWL1-15 | 2026-09-03 05:27:09 | 52.42619 | 8.70470 | 241° | 15km/h | 31683m | 5m/s | -40.9°C | 0% | 9.6hPa | 2.7V | 18:12:15 | 01:55:39 | 00:00:00 | |
| DO2JMG | 2026-09-03 05:27:07 | 52.42622 | 8.70474 | 94° | 5km/h | 31663m | 6.6m/s | -41.2°C | 0% | 9.6hPa | 2.6V | 18:12:15 | 01:55:36 | 00:00:00 | |
| HSKMA3-T | 2026-09-03 05:27:05 | 52.42622 | 8.70471 | 84° | 7km/h | 31657m | 6.4m/s | -41.2°C | 0% | 9.6hPa | 2.6V | 18:12:15 | 01:55:35 | 00:00:00 | |
| DL1XH-west | 2026-09-03 05:27:02 | 52.42622 | 8.70467 | 206° | 5km/h | 31638m | 5.1m/s | -41.4°C | 0% | 9.7hPa | 2.6V | 18:12:15 | 01:55:32 | 00:00:00 | |
| AA1-15 | 2026-09-03 05:27:01 | 52.42624 | 8.70468 | 201° | 11km/h | 31633m | 5.4m/s | -41.5°C | 0% | 9.7hPa | 2.6V | 18:12:15 | 01:55:31 | 00:00:00 | |
| DL1NUX | 2026-09-03 05:27:00 | 52.42648 | 8.70488 | 234° | 20km/h | 31595m | 6.2m/s | 0°C | 0% | 0hPa | 2.6V | 00:00:00 | 01:55:25 | 00:00:00 | |
| DF8AY | 2026-09-03 05:26:59 | 52.42651 | 8.70495 | 238° | 18km/h | 31589m | 5m/s | -41.6°C | 0% | 9.7hPa | 2.5V | 18:12:15 | 01:55:24 | 00:00:00 | |
| DL1XH1-15 | 2026-09-03 05:26:58 | 52.42653 | 8.70500 | 228° | 15km/h | 31584m | 5.7m/s | -41.6°C | 2.3% | 9.7hPa | 2.6V | 08:30:00 | 01:55:23 | 00:00:00 | |
| BIOWL1-15 | 2026-09-03 05:26:58 | 52.42635 | 8.70473 | 198° | 20km/h | 31614m | 5.5m/s | -41.6°C | 0% | 9.7hPa | 2.6V | 18:12:15 | 01:55:28 | 00:00:00 | |
| BUE01 | 2026-09-03 05:26:57 | 52.42645 | 8.70482 | 221° | 20km/h | 31602m | 7.4m/s | -41.6°C | 0.5% | 9.7hPa | 2.7V | 00:00:00 | 00:00:00 | 00:00:00 | |
| DL1XH-15 | 2026-09-03 05:26:56 | 52.42659 | 8.70505 | 180° | 15km/h | 31570m | 6.4m/s | -41.5°C | 2.3% | 9.7hPa | 2.7V | 08:30:00 | 01:55:21 | 00:00:00 | |
| DO2JMG | 2026-09-03 05:26:56 | 52.42645 | 8.70482 | 222° | 22km/h | 31601m | 7.4m/s | -41.6°C | 0% | 9.7hPa | 2.6V | 18:12:15 | 01:55:26 | 00:00:00 | |
| HSKMA3-T | 2026-09-03 05:26:55 | 52.42648 | 8.70488 | 235° | 20km/h | 31595m | 6.2m/s | -41.6°C | 0% | 9.7hPa | 2.6V | 18:12:15 | 01:55:25 | 00:00:00 | |
| DB0DAN | 2026-09-03 05:26:55 | 52.42648 | 8.70488 | 235° | 20km/h | 31595m | 6.2m/s | -41.6°C | 0.5% | 9.7hPa | 2.6V | 00:00:00 | 00:00:00 | 00:00:00 | |
| DL1XH-west | 2026-09-03 05:26:52 | 52.42656 | 8.70504 | 207° | 13km/h | 31577m | 7.1m/s | -41.6°C | 0% | 9.7hPa | 2.6V | 18:12:15 | 01:55:22 | 00:00:00 | |
| AA1-15 | 2026-09-03 05:26:50 | 52.42663 | 8.70505 | 169° | 16km/h | 31564m | 5.5m/s | -41.5°C | 0% | 9.8hPa | 2.6V | 18:12:15 | 01:55:20 | 00:00:00 | |
| DL1XH1-15 | 2026-09-03 05:26:48 | 52.42696 | 8.70517 | 200° | 26km/h | 31522m | 5.1m/s | -41.4°C | 2.4% | 9.8hPa | 2.6V | 08:30:00 | 01:55:13 | 00:00:00 | |
| BIOWL1-15 | 2026-09-03 05:26:47 | 52.42675 | 8.70505 | 197° | 16km/h | 31546m | 5.5m/s | -41.4°C | 0% | 9.8hPa | 2.6V | 18:12:15 | 01:55:17 | 00:00:00 | |
| DL1XH-15 | 2026-09-03 05:26:46 | 52.42707 | 8.70526 | 216° | 20km/h | 31510m | 7m/s | -41.4°C | 2.3% | 9.8hPa | 2.6V | 08:30:00 | 01:55:11 | 00:00:00 | |
| DO2JMG | 2026-09-03 05:26:45 | 52.42684 | 8.70510 | 199° | 24km/h | 31534m | 7.1m/s | -41.4°C | 0% | 9.8hPa | 2.7V | 18:12:15 | 01:55:15 | 00:00:00 | |
| HSKMA3-T | 2026-09-03 05:26:44 | 52.42690 | 8.70513 | 197° | 26km/h | 31528m | 6.4m/s | -41.4°C | 0% | 9.8hPa | 2.6V | 18:12:15 | 01:55:14 | 00:00:00 | |
| DF8AY | 2026-09-03 05:26:43 | 52.42696 | 8.70517 | 201° | 26km/h | 31522m | 5.1m/s | -41.4°C | 0% | 9.8hPa | 2.6V | 18:12:15 | 01:55:13 | 00:00:00 | |
| DL1XH-west | 2026-09-03 05:26:41 | 52.42707 | 8.70526 | 216° | 20km/h | 31510m | 7m/s | -41.4°C | 0% | 9.8hPa | 2.6V | 18:12:15 | 01:55:11 | 00:00:00 | |
| DB0DAN | 2026-09-03 05:26:40 | 52.42710 | 8.70531 | 223° | 15km/h | 31504m | 5.7m/s | -41.4°C | 0.5% | 9.83hPa | 2.6V | 00:00:00 | 00:00:00 | 00:00:00 | |
| AA1-15 | 2026-09-03 05:26:40 | 52.42710 | 8.70531 | 223° | 16km/h | 31504m | 5.7m/s | -41.4°C | 0% | 9.8hPa | 2.6V | 18:12:15 | 01:55:10 | 00:00:00 | |
| GOEST3-10 | 2026-09-03 05:26:40 | 52.42710 | 8.70530 | 224° | 16km/h | 31504m | 5.6m/s | -41.4°C | 2.3% | 9.8hPa | 2.7V | 00:00:00 | 00:00:00 | 00:00:00 | |
| DL1CLM-18 | 2026-09-03 05:26:39 | 52.42710 | 8.70530 | 224° | 16km/h | 31504m | 5.7m/s | -41.4°C | 0.5% | 9.8hPa | 2.7V | 00:00:00 | 00:00:00 | 00:00:00 | |
| DL1XH1-15 | 2026-09-03 05:26:38 | 52.42745 | 8.70533 | 190° | 27km/h | 31464m | 6.9m/s | -41.4°C | 2.3% | 9.9hPa | 2.7V | 08:30:00 | 01:55:03 | 00:00:00 | |
| BIOWL1-15 | 2026-09-03 05:26:36 | 52.42725 | 8.70535 | 166° | 24km/h | 31480m | 5.7m/s | -41.4°C | 0% | 9.9hPa | 2.6V | 18:12:15 | 01:55:06 | 00:00:00 | |
| HSKMA3-T | 2026-09-03 05:26:34 | 52.42738 | 8.70532 | 178° | 27km/h | 31470m | 5.1m/s | -41.4°C | 0% | 9.9hPa | 2.6V | 18:12:15 | 01:55:04 | 00:00:00 | |
| DF8AY | 2026-09-03 05:26:33 | 52.42745 | 8.70533 | 191° | 27km/h | 31464m | 6.9m/s | -41.4°C | 0% | 9.9hPa | 2.7V | 18:12:15 | 01:55:03 | 00:00:00 | |
| DL1XH-west | 2026-09-03 05:26:30 | 52.42765 | 8.70552 | 219° | 35km/h | 31445m | 5.1m/s | -41.3°C | 0% | 9.9hPa | 2.6V | 18:12:15 | 01:55:00 | 00:00:00 | |
| GOEST3-10 | 2026-09-03 05:26:30 | 52.42765 | 8.70551 | 219° | 31km/h | 31446m | 5.0m/s | -41.2°C | 2.3% | 9.8hPa | 2.6V | 00:00:00 | 00:00:00 | 00:00:00 | |
| D01LWL | 2026-09-03 05:26:29 | 52.42772 | 8.70560 | 214° | 33km/h | 31440m | 5.9m/s | -41.2°C | 0.5% | 9.9hPa | 2.6V | 00:00:00 | 00:00:00 | 00:00:00 | |
| DL1XH1-15 | 2026-09-03 05:26:28 | 52.42811 | 8.70572 | 173° | 20km/h | 31402m | 5.4m/s | -41.1°C | 2.3% | 10hPa | 2.6V | 08:30:00 | 01:54:53 | 00:00:00 | |
| BIOWL1-15 | 2026-09-03 05:26:28 | 52.42794 | 8.70573 | 183° | 27km/h | 31422m | 5.5m/s | -41.2°C | 0% | 10hPa | 2.6V | 18:12:15 | 01:54:56 | 00:00:00 | |
| DD8BA-10 | 2026-09-03 05:26:28 | 52.42779 | 8.70567 | 205° | 27km/h | 31434m | 6.6m/s | -41.2°C | 2.3% | 9.9hPa | 2.6V | 00:00:00 | 00:00:00 | 00:00:00 | |
| DL4XJ-10 | 2026-09-03 05:26:27 | 52.42786 | 8.70571 | 194° | 31km/h | 31428m | 6.0m/s | -39.9°C | 0% | 0hPa | 2.6V | 00:00:00 | 00:00:00 | 00:00:00 | |
| DL1XH-15 | 2026-09-03 05:26:26 | 52.42822 | 8.70569 | 169° | 26km/h | 31391m | 6.5m/s | -41.1°C | 2.3% | 10hPa | 2.6V | 08:30:00 | 01:54:51 | 00:00:00 | |
| DO2JMG | 2026-09-03 05:26:24 | 52.42806 | 8.70572 | 176° | 20km/h | 31408m | 6.8m/s | -41.2°C | 0% | 10hPa | 2.6V | 18:12:15 | 01:54:54 | 00:00:00 | |
| DF8AY | 2026-09-03 05:26:23 | 52.42811 | 8.70572 | 174° | 20km/h | 31402m | 5.4m/s | -41.2°C | 0% | 10hPa | 2.6V | 18:12:15 | 01:54:53 | 00:00:00 | |
| DL1XH-west | 2026-09-03 05:26:20 | 52.42829 | 8.70567 | 172° | 31km/h | 31385m | 6.4m/s | -41.2°C | 0% | 10hPa | 2.6V | 18:12:15 | 01:54:50 | 00:00:00 | |
| DJ8HS-15 | 2026-09-03 05:26:20 | 52.42829 | 8.70567 | 173° | 33km/h | 31385m | 6.3m/s | -41.1°C | 2.3% | 10.0hPa | 2.6V | 00:00:00 | 01:54:50 | 00:00:00 | |
| DL1XH1-15 | 2026-09-03 05:26:18 | 52.42889 | 8.70609 | 207° | 33km/h | 31344m | 6.1m/s | -41.4°C | 2.3% | 10.1hPa | 2.6V | 08:30:00 | 01:54:43 | 00:00:00 | |
| BIOWL1-15 | 2026-09-03 05:26:17 | 52.42874 | 8.70591 | 219° | 40km/h | 31354m | 5.4m/s | -41.4°C | 0% | 10.1hPa | 2.6V | 18:12:15 | 01:54:45 | 00:00:00 | |
| DL3AQ-11 | 2026-09-03 05:26:17 | 52.42865 | 8.70581 | 213° | 40km/h | 31361m | 7.3m/s | -41.4°C | 0.5% | 10.1hPa | 2.6V | 00:00:00 | 00:00:00 | 00:00:00 | |
| DL1XH-15 | 2026-09-03 05:26:16 | 52.42903 | 8.70612 | 167° | 29km/h | 31331m | 5.9m/s | -41.4°C | 2.3% | 10.1hPa | 2.6V | 08:30:00 | 01:54:41 | 00:00:00 | |
| DO2JMG | 2026-09-03 05:26:13 | 52.42889 | 8.70609 | 207° | 33km/h | 31344m | 6.1m/s | -41.4°C | 0% | 10.1hPa | 2.6V | 18:12:15 | 01:54:43 | 00:00:00 | |
| DF8AY | 2026-09-03 05:26:12 | 52.42896 | 8.70612 | 189° | 29km/h | 31337m | 6.5m/s | -41.4°C | 0% | 10.1hPa | 2.6V | 18:12:15 | 01:54:42 | 00:00:00 | |
| DJ2DS-15 | 2026-09-03 05:26:12 | 52.42896 | 8.70612 | 189° | 31km/h | 31338m | 6.5m/s | -41.3°C | 2.3% | 10.0hPa | 2.6V | 00:00:00 | 01:54:42 | 00:00:00 | |
| DF4FW | 2026-09-03 05:26:11 | 52.42896 | 8.70612 | 189° | 29km/h | 31338m | 6.5m/s | -41.4°C | 0.5% | 10.1hPa | 2.6V | 00:00:00 | 00:00:00 | 00:00:00 | |
| DB0DAN | 2026-09-03 05:26:10 | 52.42910 | 8.70608 | 154° | 27km/h | 31326m | 5.2m/s | -41.4°C | 0.5% | 10.09hPa | 2.6V | 00:00:00 | 00:00:00 | 00:00:00 | |
| DL1XH-west | 2026-09-03 05:26:09 | 52.42916 | 8.70602 | 150° | 27km/h | 31320m | 5.5m/s | -41.5°C | 0% | 10.2hPa | 2.7V | 18:12:15 | 01:54:39 | 00:00:00 | |
| DJ2DS-15 | 2026-09-03 05:26:09 | 52.42922 | 8.70597 | 153° | 24km/h | 31314m | 6.7m/s | -41.5°C | 0.5% | 10.1hPa | 2.6V | 00:00:00 | 00:00:00 | 00:00:00 | |
| DL1XH1-15 | 2026-09-03 05:26:08 | 52.42952 | 8.70598 | 187° | 33km/h | 31284m | 6.9m/s | -41.6°C | 2.3% | 10.2hPa | 2.6V | 08:30:00 | 01:54:33 | 00:00:00 | |
| DD8BA-10 | 2026-09-03 05:26:08 | 52.42922 | 8.70597 | 154° | 33km/h | 31315m | 6.6m/s | -41.4°C | 2.3% | 10.1hPa | 2.6V | 00:00:00 | 00:00:00 | 00:00:00 | |
| DL4XJ-10 | 2026-09-03 05:26:07 | 52.42927 | 8.70594 | 166° | 31km/h | 31308m | 5.7m/s | -40.2°C | 0% | 0hPa | 2.6V | 00:00:00 | 00:00:00 | 00:00:00 | |
| DL1XH-15 | 2026-09-03 05:26:06 | 52.42972 | 8.70601 | 186° | 42km/h | 31272m | 5.2m/s | -41.6°C | 2.3% | 10.2hPa | 2.6V | 08:30:00 | 01:54:31 | 00:00:00 | |
| BIOWL1-15 | 2026-09-03 05:26:06 | 52.42945 | 8.70596 | 190° | 27km/h | 31291m | 6.7m/s | -41.6°C | 0% | 10.2hPa | 2.6V | 18:12:15 | 01:54:34 | 00:00:00 | |
| HSKMA3-T | 2026-09-03 05:26:03 | 52.42952 | 8.70598 | 188° | 33km/h | 31284m | 6.9m/s | -41.6°C | 0% | 10.2hPa | 2.6V | 18:12:15 | 01:54:33 | 00:00:00 | |
| DO2JMG | 2026-09-03 05:26:02 | 52.42961 | 8.70599 | 186° | 38km/h | 31278m | 6.1m/s | -41.6°C | 0% | 10.2hPa | 2.6V | 18:12:15 | 01:54:32 | 00:00:00 | |
| DO3MHA-12 | 2026-09-03 05:26:02 | 52.42961 | 8.70599 | 186° | 35km/h | 31278m | 6.0m/s | -41.6°C | 2.4% | 10.1hPa | 2.6V | 00:00:00 | 01:54:32 | 00:00:00 | |
| DO1YAY-16 | 2026-09-03 05:26:01 | 52.42972 | 8.70601 | 186° | 42km/h | 31272m | 5.2m/s | -41.7°C | 0.5% | 10.2hPa | 2.6V | 00:00:00 | 00:00:00 | 00:00:00 | |
| EDDB2-11 | 2026-09-03 05:26:00 | 52.42993 | 8.70607 | 193° | 42km/h | 31261m | 6.9m/s | -41.8°C | 0.5% | 10.2hPa | 2.6V | 00:00:00 | 00:00:00 | 00:00:00 | |
| DM0DOS-11 | 2026-09-03 05:25:59 | 52.42993 | 8.70607 | 193° | 42km/h | 31261m | 6.9m/s | -41.8°C | 2.3% | 10.2hPa | 2.6V | 08:30:00 | 01:54:29 | 00:00:00 | |
| AA1-15 | 2026-09-03 05:25:59 | 52.42993 | 8.70607 | 193° | 42km/h | 31261m | 6.9m/s | -41.8°C | 0% | 10.2hPa | 2.6V | 18:12:15 | 01:54:29 | 00:00:00 | |
| DL1XH1-15 | 2026-09-03 05:25:58 | 52.43039 | 8.70603 | 140° | 27km/h | 31225m | 4.7m/s | -41.8°C | 2.4% | 10.3hPa | 2.6V | 08:30:00 | 01:54:23 | 00:00:00 | |
| DO3MHA-11 | 2026-09-03 05:25:58 | 52.43003 | 8.70611 | 196° | 27km/h | 31255m | 5.6m/s | -41.7°C | 2.4% | 10.2hPa | 2.6V | 00:00:00 | 01:54:28 | 00:00:00 | |
| DL1XH-15 | 2026-09-03 05:25:56 | 52.43048 | 8.70592 | 157° | 20km/h | 31214m | 6.3m/s | -41.8°C | 2.4% | 10.2hPa | 2.6V | 08:30:00 | 01:54:21 | 00:00:00 | |
| DB0DAN | 2026-09-03 05:25:55 | 52.43027 | 8.70614 | 164° | 27km/h | 31237m | 7.3m/s | -41.9°C | 0.5% | 10.25hPa | 2.6V | 00:00:00 | 00:00:00 | 00:00:00 | |
| BUE01 | 2026-09-03 05:25:55 | 52.43033 | 8.70609 | 146° | 27km/h | 31231m | 6.2m/s | -41.8°C | 0.5% | 10.3hPa | 2.6V | 00:00:00 | 00:00:00 | 00:00:00 | |
| DM0DOS-11 | 2026-09-03 05:25:54 | 52.43059 | 8.70592 | 191° | 27km/h | 31203m | 4.7m/s | -41.9°C | 2.4% | 10.3hPa | 2.6V | 08:30:00 | 01:54:19 | 00:00:00 | |
| BIOWL1-15 | 2026-09-03 05:25:53 | 52.43044 | 8.70596 | 143° | 24km/h | 31220m | 5.5m/s | -41.8°C | 0% | 10.3hPa | 2.6V | 18:12:15 | 01:54:22 | 00:00:00 | |
| HSKMA3-T | 2026-09-03 05:25:53 | 52.43039 | 8.70603 | 140° | 27km/h | 31225m | 4.7m/s | -41.8°C | 0% | 10.3hPa | 2.6V | 18:12:15 | 01:54:23 | 00:00:00 | |
| DO2JMG | 2026-09-03 05:25:51 | 52.43048 | 8.70592 | 157° | 20km/h | 31214m | 6.3m/s | -41.8°C | 0% | 10.2hPa | 2.6V | 18:12:15 | 01:54:21 | 00:00:00 | |
| DL3AQ-11 | 2026-09-03 05:25:50 | 52.43059 | 8.70592 | 191° | 27km/h | 31203m | 4.7m/s | -41.9°C | 0.5% | 10.3hPa | 2.6V | 00:00:00 | 00:00:00 | 00:00:00 | |
| SONDE2-11 | 2026-09-03 05:25:49 | 52.43059 | 8.70592 | 191° | 27km/h | 31203m | 4.7m/s | -41.9°C | 0.5% | 10.3hPa | 2.6V | 00:00:00 | 00:00:00 | 00:00:00 | |
| DL1XH1-15 | 2026-09-03 05:25:48 | 52.43123 | 8.70591 | 171° | 47km/h | 31170m | 5.1m/s | -41.8°C | 2.4% | 10.3hPa | 2.6V | 08:30:00 | 01:54:13 | 00:00:00 | |
| DL1XH-west | 2026-09-03 05:25:48 | 52.43067 | 8.70594 | 192° | 35km/h | 31198m | 5.1m/s | -41.9°C | 0% | 10.3hPa | 2.6V | 18:12:15 | 01:54:18 | 00:00:00 | |
| DO3MHA-11 | 2026-09-03 05:25:48 | 52.43067 | 8.70594 | 192° | 35km/h | 31199m | 5.0m/s | -41.8°C | 2.4% | 10.2hPa | 2.6V | 00:00:00 | 01:54:18 | 08:30:00 | |
| DL4XJ-10 | 2026-09-03 05:25:47 | 52.43076 | 8.70597 | 188° | 38km/h | 31193m | 6.6m/s | -40.6°C | 0% | 0hPa | 2.6V | 00:00:00 | 00:00:00 | 00:00:00 | |
| DL1XH-15 | 2026-09-03 05:25:46 | 52.43144 | 8.70587 | 176° | 38km/h | 31158m | 5.7m/s | -41.8°C | 2.4% | 10.4hPa | 2.6V | 08:30:00 | 01:54:11 | 00:00:00 | |
| DL4BBY-15 | 2026-09-03 05:25:46 | 52.43087 | 8.70598 | 181° | 35km/h | 31186m | 6.6m/s | -40.6°C | 0% | 0hPa | 2.6V | 00:00:00 | 00:00:00 | 00:00:00 | |
| GOEST3-10 | 2026-09-03 05:25:45 | 52.43099 | 8.70597 | 175° | 46km/h | 31180m | 5.5m/s | -41.8°C | 2.3% | 10.3hPa | 2.6V | 00:00:00 | 01:54:15 | 00:00:00 | |
| DM0DOS-11 | 2026-09-03 05:25:44 | 52.43162 | 8.70584 | 168° | 33km/h | 31147m | 5.7m/s | -41.7°C | 2.4% | 10.4hPa | 2.6V | 08:30:00 | 01:54:09 | 00:00:00 | |
| BIOWL1-15 | 2026-09-03 05:25:42 | 52.43134 | 8.70589 | 174° | 42km/h | 31164m | 6m/s | -41.8°C | 0% | 10.4hPa | 2.7V | 18:12:15 | 01:54:12 | 00:00:00 | |
| DB0DAN | 2026-09-03 05:25:40 | 52.43153 | 8.70586 | 175° | 33km/h | 31153m | 5.3m/s | -41.8°C | 0.5% | 10.32hPa | 2.6V | 00:00:00 | 00:00:00 | 00:00:00 | |
| DO2JMG | 2026-09-03 05:25:40 | 52.43153 | 8.70586 | 175° | 35km/h | 31153m | 5.3m/s | -41.8°C | 0% | 10.3hPa | 2.6V | 18:12:15 | 01:54:10 | 00:00:00 | |
| DB0NH | 2026-09-03 05:25:40 | 52.43153 | 8.70586 | 175° | 33km/h | 31153m | 5.3m/s | -41.7°C | 2.4% | 10.3hPa | 2.6V | 00:00:00 | 01:54:10 | 00:00:00 | |
| DD1CC8 | 2026-09-03 05:25:39 | 52.43162 | 8.70584 | 168° | 31km/h | 31147m | 5.7m/s | -41.7°C | 0.5% | 10.4hPa | 2.6V | 00:00:00 | 00:00:00 | 00:00:00 | |
| DL1XH1-15 | 2026-09-03 05:25:38 | 52.43206 | 8.70552 | 165° | 29km/h | 31111m | 5.8m/s | -41.7°C | 2.3% | 10.5hPa | 2.6V | 08:30:00 | 01:54:03 | 00:00:00 | |
| DL1XH-west | 2026-09-03 05:25:38 | 52.43170 | 8.70580 | 160° | 33km/h | 31141m | 7.2m/s | -41.7°C | 0% | 10.4hPa | 2.6V | 18:12:15 | 01:54:08 | 00:00:00 | |
| DD8BA-10 | 2026-09-03 05:25:38 | 52.43169 | 8.70580 | 161° | 33km/h | 31141m | 7.1m/s | -41.7°C | 2.4% | 10.3hPa | 2.6V | 00:00:00 | 00:00:00 | 00:00:00 | |
| DL3AQ-11 | 2026-09-03 05:25:37 | 52.43177 | 8.70575 | 152° | 33km/h | 31134m | 6.1m/s | -41.7°C | 0.5% | 10.4hPa | 2.6V | 00:00:00 | 00:00:00 | 00:00:00 | |
| DL1XH-15 | 2026-09-03 05:25:36 | 52.43221 | 8.70546 | 163° | 33km/h | 31100m | 5.7m/s | -41.7°C | 2.4% | 10.4hPa | 2.6V | 08:30:00 | 01:54:01 | 00:00:00 | |
| S3001 | 2026-09-03 05:25:36 | 52.43192 | 8.70562 | 152° | 31km/h | 31123m | 5.8m/s | -41.7°C | 0.5% | 10.5hPa | 2.6V | 00:00:00 | 00:00:00 | 00:00:00 | |
| GOEST3-10 | 2026-09-03 05:25:35 | 52.43192 | 8.70562 | 153° | 31km/h | 31124m | 5.8m/s | -41.6°C | 2.4% | 10.4hPa | 2.6V | 00:00:00 | 01:54:05 | 00:00:00 | |
| DM0DOS-11 | 2026-09-03 05:25:34 | 52.43238 | 8.70535 | 154° | 40km/h | 31087m | 5.8m/s | -41.8°C | 2.3% | 10.4hPa | 2.6V | 08:30:00 | 01:53:59 | 00:00:00 | |
| HSKMA3-T | 2026-09-03 05:25:32 | 52.43214 | 8.70550 | 167° | 29km/h | 31105m | 5.4m/s | -41.7°C | 0% | 10.4hPa | 2.6V | 18:12:15 | 01:54:02 | 00:00:00 | |
| BIOWL1-15 | 2026-09-03 05:25:31 | 52.43221 | 8.70546 | 163° | 33km/h | 31100m | 5.7m/s | -41.7°C | 0% | 10.4hPa | 2.6V | 18:12:15 | 01:54:01 | 00:00:00 | |
| DO2JMG | 2026-09-03 05:25:29 | 52.43239 | 8.70535 | 155° | 40km/h | 31087m | 5.8m/s | -41.8°C | 0% | 10.5hPa | 2.6V | 18:12:15 | 01:53:59 | 00:00:00 | |
| EDDB2-11 | 2026-09-03 05:25:29 | 52.43248 | 8.70528 | 156° | 42km/h | 31082m | 4.9m/s | -41.8°C | 0.5% | 10.5hPa | 2.6V | 00:00:00 | 00:00:00 | 00:00:00 | |
| DL1XH1-15 | 2026-09-03 05:25:28 | 52.43293 | 8.70512 | 171° | 29km/h | 31052m | 6.6m/s | -41.8°C | 2.4% | 10.6hPa | 2.6V | 08:30:00 | 01:53:53 | 00:00:00 | |
| DL1XH-west | 2026-09-03 05:25:28 | 52.43248 | 8.70528 | 156° | 42km/h | 31081m | 4.9m/s | -41.8°C | 0% | 10.5hPa | 2.6V | 18:12:15 | 01:53:58 | 00:00:00 | |
| DD8BA-10 | 2026-09-03 05:25:28 | 52.43248 | 8.70528 | 157° | 31km/h | 31082m | 4.8m/s | -41.7°C | 2.3% | 10.4hPa | 2.6V | 00:00:00 | 00:00:00 | 00:00:00 | |
| DO2SHX-10 | 2026-09-03 05:25:27 | 52.43258 | 8.70522 | 161° | 38km/h | 31077m | 5.3m/s | -41.8°C | 2.3% | 10.4hPa | 2.6V | 00:00:00 | 01:53:57 | 08:30:00 | |
| DL1XH-15 | 2026-09-03 05:25:26 | 52.43307 | 8.70506 | 156° | 26km/h | 31039m | 5.4m/s | -41.9°C | 2.4% | 10.6hPa | 2.5V | 08:30:00 | 01:53:51 | 00:00:00 | |
| DB0DAN | 2026-09-03 05:25:25 | 52.43277 | 8.70515 | 174° | 35km/h | 31063m | 6.2m/s | -41.8°C | 0.5% | 10.53hPa | 2.6V | 00:00:00 | 00:00:00 | 00:00:00 | |
| HSKMA3-T | 2026-09-03 05:25:22 | 52.43300 | 8.70509 | 163° | 27km/h | 31045m | 6.7m/s | -41.8°C | 0% | 10.5hPa | 2.6V | 18:12:15 | 01:53:52 | 00:00:00 | |
| BIOWL1-15 | 2026-09-03 05:25:21 | 52.43307 | 8.70506 | 157° | 26km/h | 31039m | 5.4m/s | -41.9°C | 0% | 10.6hPa | 2.5V | 18:12:15 | 01:53:51 | 00:00:00 | |
| DO3MHA-12 | 2026-09-03 05:25:21 | 52.43307 | 8.70506 | 157° | 27km/h | 31040m | 5.4m/s | -41.8°C | 2.4% | 10.5hPa | 2.6V | 00:00:00 | 01:53:51 | 00:00:00 | |
| SMARD9-10 | 2026-09-03 05:25:20 | 52.43307 | 8.70506 | 158° | 26km/h | 31040m | 5.4m/s | -41.9°C | 0.5% | 10.6hPa | 2.6V | 00:00:00 | 00:00:00 | 00:00:00 | |
| DM0DOS-11 | 2026-09-03 05:25:19 | 52.43317 | 8.70498 | 161° | 22km/h | 31028m | 6.8m/s | -41.9°C | 2.4% | 10.5hPa | 2.6V | 08:30:00 | 01:53:49 | 00:00:00 | |
| DO2JMG | 2026-09-03 05:25:19 | 52.43318 | 8.70498 | 162° | 22km/h | 31028m | 6.8m/s | -41.9°C | 0% | 10.5hPa | 2.6V | 18:12:15 | 01:53:49 | 00:00:00 | |
| AA1-15 | 2026-09-03 05:25:18 | 52.43323 | 8.70496 | 170° | 22km/h | 31021m | 6.2m/s | -41.9°C | 0% | 10.6hPa | 2.6V | 18:12:15 | 01:53:48 | 00:00:00 | |
| DO3MHA-11 | 2026-09-03 05:25:18 | 52.43323 | 8.70496 | 170° | 31km/h | 31022m | 6.1m/s | -41.8°C | 2.4% | 10.5hPa | 2.6V | 00:00:00 | 01:53:48 | 00:00:00 | |
| DL1XH-15 | 2026-09-03 05:25:16 | 52.43374 | 8.70469 | 167° | 35km/h | 30980m | 6.8m/s | -42°C | 2.3% | 10.6hPa | 2.6V | 08:30:00 | 01:53:41 | 00:00:00 | |
| DL4BBY-15 | 2026-09-03 05:25:16 | 52.43334 | 8.70492 | 167° | 26km/h | 31010m | 5.4m/s | -40.6°C | 0% | 0hPa | 2.5V | 00:00:00 | 00:00:00 | 00:00:00 | |
| GOEST3-10 | 2026-09-03 05:25:15 | 52.43341 | 8.70489 | 161° | 35km/h | 31005m | 7.1m/s | -41.8°C | 2.3% | 10.6hPa | 2.5V | 00:00:00 | 01:53:45 | 00:00:00 | |
| DM0DOS-11 | 2026-09-03 05:25:14 | 52.43390 | 8.70465 | 173° | 29km/h | 30968m | 4.9m/s | -42°C | 2.4% | 10.7hPa | 2.6V | 08:30:00 | 01:53:39 | 00:00:00 | |
| HSKMA3-T | 2026-09-03 05:25:11 | 52.43374 | 8.70469 | 167° | 35km/h | 30980m | 6.8m/s | -42°C | 0% | 10.6hPa | 2.6V | 18:12:15 | 01:53:41 | 00:00:00 | |
| DB0DAN | 2026-09-03 05:25:10 | 52.43382 | 8.70466 | 173° | 31km/h | 30973m | 5.6m/s | -42°C | 0.5% | 10.66hPa | 2.6V | 00:00:00 | 00:00:00 | 00:00:00 | |
| DF8AY | 2026-09-03 05:25:09 | 52.43390 | 8.70465 | 173° | 29km/h | 30968m | 4.9m/s | -42°C | 0% | 10.7hPa | 2.6V | 18:12:15 | 01:53:39 | 00:00:00 | |
| DL1XH-west | 2026-09-03 05:25:08 | 52.43397 | 8.70463 | 167° | 27km/h | 30962m | 6.1m/s | -42°C | 0% | 10.7hPa | 2.6V | 18:12:15 | 01:53:38 | 00:00:00 | |
| DD8BA-10 | 2026-09-03 05:25:08 | 52.43397 | 8.70463 | 167° | 27km/h | 30963m | 6.0m/s | -42.0°C | 2.4% | 10.6hPa | 2.6V | 00:00:00 | 00:00:00 | 00:00:00 | |
| DL4XJ-10 | 2026-09-03 05:25:07 | 52.43403 | 8.70459 | 157° | 24km/h | 30956m | 6.8m/s | -40.7°C | 0% | 0hPa | 2.6V | 00:00:00 | 00:00:00 | 00:00:00 | |
| DL1XH-15 | 2026-09-03 05:25:06 | 52.43436 | 8.70436 | 170° | 27km/h | 30922m | 4.7m/s | -42.1°C | 2.4% | 10.7hPa | 2.6V | 08:30:00 | 01:53:31 | 00:00:00 | |
| BIOWL1-15 | 2026-09-03 05:25:02 | 52.43444 | 8.70433 | 167° | 31km/h | 30916m | 6.6m/s | -42.2°C | 0% | 10.8hPa | 2.6V | 18:12:15 | 01:53:30 | 00:00:00 | |
| HSKMA3-T | 2026-09-03 05:25:01 | 52.43436 | 8.70436 | 170° | 27km/h | 30922m | 4.7m/s | -42.1°C | 0% | 10.7hPa | 2.6V | 18:12:15 | 01:53:31 | 00:00:00 | |
| DF7PN | 2026-09-03 05:25:00 | 52.43444 | 8.70433 | 166° | 31km/h | 30916m | 6.6m/s | -42.2°C | 0.5% | 10.8hPa | 2.6V | 00:00:00 | 00:00:00 | 00:00:00 | |
| DM0DOS-11 | 2026-09-03 05:24:59 | 52.43452 | 8.70430 | 162° | 35km/h | 30910m | 6.3m/s | -42.1°C | 2.4% | 10.7hPa | 2.6V | 08:30:00 | 01:53:29 | 00:00:00 | |
| DF8AY | 2026-09-03 05:24:59 | 52.43452 | 8.70430 | 163° | 35km/h | 30910m | 6.3m/s | -42.2°C | 0% | 10.7hPa | 2.6V | 18:12:15 | 01:53:29 | 00:00:00 | |
| DO2JMG | 2026-09-03 05:24:57 | 52.43469 | 8.70421 | 165° | 33km/h | 30899m | 4.3m/s | -42.2°C | 0% | 10.8hPa | 2.6V | 18:12:15 | 01:53:27 | 00:00:00 | |
| DL3AQ-11 | 2026-09-03 05:24:57 | 52.43476 | 8.70419 | 172° | 27km/h | 30895m | 6.2m/s | -42.2°C | 0.5% | 10.8hPa | 2.6V | 00:00:00 | 00:00:00 | 00:00:00 | |
| D01LWL | 2026-09-03 05:24:56 | 52.43476 | 8.70419 | 172° | 27km/h | 30895m | 6.2m/s | -42.2°C | 0.5% | 10.8hPa | 2.6V | 00:00:00 | 00:00:00 | 00:00:00 | |
| DB0DAN | 2026-09-03 05:24:55 | 52.43483 | 8.70418 | 183° | 22km/h | 30888m | 6.8m/s | -42.2°C | 0.5% | 10.81hPa | 2.6V | 00:00:00 | 00:00:00 | 00:00:00 | |
| BIOWL1-15 | 2026-09-03 05:24:50 | 52.43495 | 8.70409 | 112° | 20km/h | 30858m | 4.9m/s | -42.3°C | 0% | 10.9hPa | 2.5V | 18:12:15 | 01:53:20 | 00:00:00 | |
| DM0DOS-11 | 2026-09-03 05:24:49 | 52.43498 | 8.70401 | 121° | 22km/h | 30852m | 5m/s | -42.3°C | 2.4% | 10.9hPa | 2.6V | 08:30:00 | 01:53:19 | 00:00:00 | |
| DL1XH1-15 | 2026-09-03 05:24:48 | 52.43535 | 8.70375 | 160° | 31km/h | 30818m | 6.4m/s | -42.5°C | 2.3% | 10.9hPa | 2.7V | 08:30:00 | 01:53:13 | 00:00:00 | |
| DF8AY | 2026-09-03 05:24:48 | 52.43501 | 8.70393 | 136° | 24km/h | 30847m | 6.3m/s | -42.4°C | 0% | 10.9hPa | 2.6V | 18:12:15 | 01:53:18 | 00:00:00 | |
| DL1XH-west | 2026-09-03 05:24:47 | 52.43506 | 8.70388 | 153° | 26km/h | 30841m | 6.5m/s | -42.4°C | 0% | 10.9hPa | 2.6V | 18:12:15 | 01:53:17 | 00:00:00 | |
| DO2JMG | 2026-09-03 05:24:46 | 52.43513 | 8.70384 | 166° | 29km/h | 30834m | 5.5m/s | -42.4°C | 0% | 10.9hPa | 2.5V | 18:12:15 | 01:53:16 | 00:00:00 | |
| DL3AQ-11 | 2026-09-03 05:24:45 | 52.43520 | 8.70381 | 170° | 29km/h | 30829m | 5.1m/s | -42.5°C | 0.5% | 10.9hPa | 2.6V | 00:00:00 | 00:00:00 | 00:00:00 | |
| EDDB2-12 | 2026-09-03 05:24:44 | 52.43528 | 8.70379 | 167° | 31km/h | 30824m | 5.1m/s | -42.5°C | 0.5% | 10.9hPa | 2.6V | 00:00:00 | 00:00:00 | 00:00:00 | |
| HSKMA3-T | 2026-09-03 05:24:40 | 52.43553 | 8.70358 | 142° | 24km/h | 30801m | 6.3m/s | -42.7°C | 0% | 10.9hPa | 2.6V | 18:12:15 | 01:53:10 | 00:00:00 | |
| DB0DAN | 2026-09-03 05:24:40 | 52.43553 | 8.70358 | 142° | 22km/h | 30801m | 6.3m/s | -42.7°C | 0.6% | 10.93hPa | 2.6V | 00:00:00 | 00:00:00 | 00:00:00 | |
| DM0DOS-11 | 2026-09-03 05:24:39 | 52.43557 | 8.70353 | 146° | 20km/h | 30794m | 6.8m/s | -42.8°C | 2.5% | 10.9hPa | 2.6V | 08:30:00 | 01:53:09 | 00:00:00 | |
| BIOWL1-15 | 2026-09-03 05:24:39 | 52.43557 | 8.70353 | 146° | 20km/h | 30794m | 6.8m/s | -42.8°C | 0% | 10.9hPa | 2.6V | 18:12:15 | 01:53:09 | 00:00:00 | |
| DL1XH-west | 2026-09-03 05:24:37 | 52.43564 | 8.70346 | 145° | 16km/h | 30783m | 4.8m/s | -42.9°C | 0% | 11hPa | 2.6V | 18:12:15 | 01:53:07 | 00:00:00 | |
| AA1-15 | 2026-09-03 05:24:36 | 52.43567 | 8.70341 | 133° | 16km/h | 30778m | 5.2m/s | -42.9°C | 0% | 11hPa | 2.6V | 18:12:15 | 01:53:06 | 00:00:00 | |
| DO2JMG | 2026-09-03 05:24:35 | 52.43570 | 8.70336 | 121° | 18km/h | 30772m | 7m/s | -43°C | 0% | 11hPa | 2.6V | 18:12:15 | 01:53:05 | 00:00:00 | |
| BIOWL1-15 | 2026-09-03 05:24:30 | 52.43597 | 8.70292 | 151° | 20km/h | 30730m | 5.7m/s | -43.2°C | 0% | 11.1hPa | 2.6V | 18:12:15 | 01:52:58 | 00:00:00 | |
| HSKMA3-T | 2026-09-03 05:24:29 | 52.43592 | 8.70295 | 157° | 22km/h | 30735m | 4.7m/s | -43.2°C | 0% | 11.1hPa | 2.6V | 18:12:15 | 01:52:59 | 00:00:00 | |
| DO3MHA-12 | 2026-09-03 05:24:29 | 52.43592 | 8.70295 | 158° | 16km/h | 30735m | 4.6m/s | -43.2°C | 2.4% | 11.0hPa | 2.6V | 00:00:00 | 01:52:59 | 00:00:00 | |
| DL1XH1-15 | 2026-09-03 05:24:28 | 52.43609 | 8.70269 | 140° | 9km/h | 30699m | 6.3m/s | -43.4°C | 2.5% | 11.1hPa | 2.6V | 08:30:00 | 01:52:53 | 00:00:00 | |
| DL1XH-west | 2026-09-03 05:24:26 | 52.43604 | 8.70282 | 124° | 16km/h | 30717m | 5.9m/s | -43.3°C | 0% | 11.1hPa | 2.6V | 18:12:15 | 01:52:56 | 00:00:00 | |
| AA1-15 | 2026-09-03 05:24:25 | 52.43605 | 8.70276 | 118° | 15km/h | 30712m | 5m/s | -43.3°C | 0% | 11.1hPa | 2.7V | 18:12:15 | 01:52:55 | 00:00:00 | |
| DB0DAN | 2026-09-03 05:24:25 | 52.43605 | 8.70276 | 118° | 13km/h | 30712m | 5m/s | -43.3°C | 0.6% | 11.05hPa | 2.7V | 00:00:00 | 00:00:00 | 00:00:00 | |
| DO2JMG | 2026-09-03 05:24:24 | 52.43607 | 8.70272 | 124° | 11km/h | 30706m | 7m/s | -43.3°C | 0% | 11.1hPa | 2.7V | 18:12:15 | 01:52:54 | 00:00:00 | |
| HSKMA3-T | 2026-09-03 05:24:19 | 52.43619 | 8.70254 | 134° | 20km/h | 30675m | 5.3m/s | -43.7°C | 0% | 11.2hPa | 2.6V | 18:12:15 | 01:52:49 | 00:00:00 | |
| DO3MHA-12 | 2026-09-03 05:24:19 | 52.43619 | 8.70254 | 134° | 22km/h | 30675m | 5.2m/s | -43.6°C | 2.5% | 11.1hPa | 2.6V | 00:00:00 | 01:52:49 | 00:00:00 | |
| DL1XH1-15 | 2026-09-03 05:24:18 | 52.43652 | 8.70238 | 171° | 24km/h | 30639m | 6.9m/s | -44.1°C | 2.5% | 11.2hPa | 2.6V | 08:30:00 | 01:52:43 | 00:00:00 | |
| BIOWL1-15 | 2026-09-03 05:24:17 | 52.43628 | 8.70244 | 155° | 22km/h | 30664m | 6m/s | -43.8°C | 0% | 11.2hPa | 2.6V | 18:12:15 | 01:52:47 | 00:00:00 | |
| DL1XH-west | 2026-09-03 05:24:16 | 52.43633 | 8.70241 | 168° | 24km/h | 30658m | 7.2m/s | -43.9°C | 0% | 11.2hPa | 2.5V | 18:12:15 | 01:52:46 | 00:00:00 | |
| DF8AY | 2026-09-03 05:24:15 | 52.43640 | 8.70239 | 177° | 26km/h | 30651m | 5.8m/s | -43.9°C | 0% | 11.2hPa | 2.6V | 18:12:15 | 01:52:45 | 00:00:00 | |
| AA1-15 | 2026-09-03 05:24:14 | 52.43646 | 8.70239 | 178° | 26km/h | 30646m | 5.3m/s | -44°C | 0% | 11.2hPa | 2.6V | 18:12:15 | 01:52:44 | 00:00:00 | |
| DM0DOS-11 | 2026-09-03 05:24:14 | 52.43669 | 8.70225 | 154° | 15km/h | 30615m | 6.9m/s | -44.3°C | 2.7% | 11.2hPa | 2.6V | 08:30:00 | 01:52:39 | 00:00:00 | |
| DO2JMG | 2026-09-03 05:24:13 | 52.43652 | 8.70238 | 171° | 24km/h | 30639m | 6.9m/s | -44.1°C | 0% | 11.2hPa | 2.6V | 18:12:15 | 01:52:43 | 00:00:00 | |
| DB0UT-7 | 2026-09-03 05:24:13 | 52.43652 | 8.70238 | 172° | 22km/h | 30640m | 6.8m/s | -44.0°C | 2.5% | 11.2hPa | 2.6V | 00:00:00 | 00:00:00 | 00:00:00 | |
| DJ2DS-15 | 2026-09-03 05:24:12 | 52.43657 | 8.70235 | 158° | 24km/h | 30633m | 6.4m/s | -44.1°C | 2.6% | 11.2hPa | 2.6V | 00:00:00 | 01:52:42 | 00:00:00 | |
| DJ3KS | 2026-09-03 05:24:11 | 52.43657 | 8.70236 | 159° | 20km/h | 30633m | 6.5m/s | 0°C | 0% | 0hPa | 2.6V | 00:00:00 | 00:00:00 | 00:00:00 | |
| DB0DAN | 2026-09-03 05:24:10 | 52.43665 | 8.70228 | 148° | 16km/h | 30621m | 5.3m/s | -44.3°C | 0.6% | 11.28hPa | 2.6V | 00:00:00 | 00:00:00 | 00:00:00 | |
| HSKMA3-T | 2026-09-03 05:24:08 | 52.43672 | 8.70223 | 164° | 15km/h | 30609m | 5.7m/s | -44.3°C | 0% | 11.3hPa | 2.6V | 18:12:15 | 01:52:38 | 00:00:00 | |
| DL1XH-west | 2026-09-03 05:24:06 | 52.43678 | 8.70219 | 144° | 15km/h | 30599m | 5.6m/s | -44.4°C | 0% | 11.3hPa | 2.6V | 18:12:15 | 01:52:36 | 00:00:00 | |
| DF8AY | 2026-09-03 05:24:05 | 52.43681 | 8.70214 | 130° | 16km/h | 30592m | 7.2m/s | -44.4°C | 0% | 11.3hPa | 2.6V | 18:12:15 | 01:52:35 | 00:00:00 | |
| DO2SHX-10 | 2026-09-03 05:24:05 | 52.43681 | 8.70214 | 130° | 20km/h | 30592m | 7.2m/s | -44.4°C | 2.7% | 11.2hPa | 2.6V | 00:00:00 | 01:52:35 | 00:00:00 | |
| DM0DOS-11 | 2026-09-03 05:24:04 | 52.43708 | 8.70178 | 150° | 29km/h | 30556m | 5.3m/s | -44.4°C | 2.6% | 11.4hPa | 2.6V | 08:30:00 | 01:52:29 | 00:00:00 | |
| DO2JMG | 2026-09-03 05:24:03 | 52.43687 | 8.70202 | 129° | 22km/h | 30580m | 5.2m/s | -44.4°C | 0% | 11.3hPa | 2.5V | 18:12:15 | 01:52:33 | 00:00:00 | |
| DF8AY | 2026-09-03 05:24:00 | 52.43740 | 8.70129 | 136° | 33km/h | 30527m | 7m/s | -44.3°C | 0% | 11.4hPa | 2.7V | 18:12:15 | 01:52:24 | 00:00:00 | |
| DJ8HS-15 | 2026-09-03 05:24:00 | 52.43702 | 8.70184 | 154° | 26km/h | 30562m | 5.1m/s | -44.4°C | 2.7% | 11.3hPa | 2.6V | 00:00:00 | 01:52:30 | 00:00:00 | |
| DO2SHX-10 | 2026-09-03 05:23:59 | 52.43708 | 8.70178 | 151° | 31km/h | 30557m | 5.3m/s | -44.4°C | 2.6% | 11.3hPa | 2.6V | 00:00:00 | 01:52:29 | 00:00:00 | |
| DL1XH1-15 | 2026-09-03 05:23:58 | 52.43745 | 8.70121 | 139° | 27km/h | 30520m | 6m/s | -44.3°C | 2.6% | 11.4hPa | 2.6V | 08:30:00 | 01:52:23 | 00:00:00 | |
| HSKMA3-T | 2026-09-03 05:23:58 | 52.43715 | 8.70171 | 143° | 33km/h | 30550m | 6.7m/s | -44.4°C | 0% | 11.4hPa | 2.6V | 18:12:15 | 01:52:28 | 00:00:00 | |
| BIOWL1-15 | 2026-09-03 05:23:56 | 52.43727 | 8.70151 | 131° | 37km/h | 30538m | 5.2m/s | -44.3°C | 0% | 11.4hPa | 2.6V | 18:12:15 | 01:52:26 | 00:00:00 | |
| DL1XH-west | 2026-09-03 05:23:55 | 52.43734 | 8.70139 | 132° | 37km/h | 30533m | 5.4m/s | -44.3°C | 0% | 11.4hPa | 2.6V | 18:12:15 | 01:52:25 | 00:00:00 | |
| DB0DAN | 2026-09-03 05:23:55 | 52.43734 | 8.70139 | 132° | 35km/h | 30533m | 5.4m/s | -44.3°C | 0.6% | 11.39hPa | 2.6V | 00:00:00 | 00:00:00 | 00:00:00 | |
| DO2JMG | 2026-09-03 05:23:52 | 52.43750 | 8.70114 | 137° | 24km/h | 30515m | 5.2m/s | -44.3°C | 0% | 11.4hPa | 2.6V | 18:12:15 | 01:52:22 | 00:00:00 | |
| BUE01 | 2026-09-03 05:23:50 | 52.43757 | 8.70101 | 119° | 16km/h | 30502m | 6.2m/s | -44.3°C | 0.6% | 11.4hPa | 2.6V | 00:00:00 | 00:00:00 | 00:00:00 | |
| HTAHTA | 2026-09-03 05:23:49 | 52.43759 | 8.70095 | 118° | 15km/h | 30496m | 5.1m/s | -44.4°C | 0.6% | 11.5hPa | 2.6V | 00:00:00 | 00:00:00 | 00:00:00 | |
| DL1XH1-15 | 2026-09-03 05:23:48 | 52.43778 | 8.70072 | 131° | 26km/h | 30459m | 6.7m/s | -44.6°C | 2.7% | 11.6hPa | 2.6V | 08:30:00 | 01:52:13 | 00:00:00 | |
| HSKMA3-T | 2026-09-03 05:23:47 | 52.43763 | 8.70087 | 150° | 11km/h | 30484m | 7.2m/s | -44.5°C | 0% | 11.5hPa | 2.6V | 18:12:15 | 01:52:17 | 00:00:00 | |
| BIOWL1-15 | 2026-09-03 05:23:46 | 52.43766 | 8.70085 | 162° | 15km/h | 30478m | 5.7m/s | -44.5°C | 0% | 11.5hPa | 2.6V | 18:12:15 | 01:52:16 | 00:00:00 | |
| DL1XH-west | 2026-09-03 05:23:45 | 52.43769 | 8.70083 | 156° | 18km/h | 30472m | 5.3m/s | -44.5°C | 0% | 11.5hPa | 2.6V | 18:12:15 | 01:52:15 | 00:00:00 | |
| DJ2DS-15 | 2026-09-03 05:23:45 | 52.43774 | 8.70079 | 143° | 20km/h | 30466m | 6.7m/s | -44.6°C | 0.6% | 11.5hPa | 2.6V | 00:00:00 | 00:00:00 | 00:00:00 | |
| DM0DOS-11 | 2026-09-03 05:23:44 | 52.43794 | 8.70035 | 131° | 22km/h | 30437m | 6.7m/s | -44.7°C | 2.6% | 11.6hPa | 2.6V | 08:30:00 | 01:52:09 | 00:00:00 | |
| DF8AY | 2026-09-03 05:23:44 | 52.43774 | 8.70079 | 144° | 22km/h | 30466m | 6.7m/s | -44.6°C | 0% | 11.5hPa | 2.6V | 18:12:15 | 01:52:14 | 00:00:00 | |
| AA1-15 | 2026-09-03 05:23:42 | 52.43782 | 8.70063 | 124° | 29km/h | 30453m | 4.9m/s | -44.6°C | 0% | 11.6hPa | 2.7V | 18:12:15 | 01:52:12 | 00:00:00 | |
| DO2KSM | 2026-09-03 05:23:41 | 52.43782 | 8.70063 | 125° | 29km/h | 30454m | 4.9m/s | -44.6°C | 0.6% | 11.6hPa | 2.6V | 00:00:00 | 00:00:00 | 00:00:00 | |
| DB0DAN | 2026-09-03 05:23:40 | 52.43790 | 8.70043 | 125° | 26km/h | 30443m | 6.4m/s | -44.7°C | 0.6% | 11.58hPa | 2.6V | 00:00:00 | 00:00:00 | 00:00:00 | |
| DB0NH | 2026-09-03 05:23:40 | 52.43790 | 8.70043 | 126° | 15km/h | 30444m | 6.3m/s | -44.6°C | 2.6% | 11.5hPa | 2.6V | 00:00:00 | 01:52:10 | 00:00:00 | |
| DJ3KS | 2026-09-03 05:23:39 | 52.43790 | 8.70043 | 126° | 27km/h | 30444m | 6.4m/s | 0°C | 0% | 0hPa | 2.6V | 00:00:00 | 00:00:00 | 00:00:00 | |
| DL1XH1-15 | 2026-09-03 05:23:38 | 52.43802 | 8.70007 | 75° | 15km/h | 30400m | 5.6m/s | -44.8°C | 2.7% | 11.6hPa | 2.6V | 08:30:00 | 01:52:03 | 00:00:00 | |
| HSKMA3-T | 2026-09-03 05:23:36 | 52.43802 | 8.70022 | 119° | 11km/h | 30419m | 5.6m/s | -44.8°C | 0% | 11.6hPa | 2.6V | 18:12:15 | 01:52:06 | 00:00:00 | |
| BIOWL1-15 | 2026-09-03 05:23:35 | 52.43803 | 8.70018 | 100° | 11km/h | 30413m | 7.1m/s | -44.8°C | 0% | 11.6hPa | 2.6V | 18:12:15 | 01:52:05 | 00:00:00 | |
| DF8AY | 2026-09-03 05:23:33 | 52.43802 | 8.70007 | 75° | 15km/h | 30400m | 5.6m/s | -44.8°C | 0% | 11.6hPa | 2.6V | 18:12:15 | 01:52:03 | 00:00:00 | |
| DO2JMG | 2026-09-03 05:23:32 | 52.43801 | 8.70002 | 72° | 13km/h | 30394m | 6.3m/s | -44.8°C | 0% | 11.6hPa | 2.6V | 18:12:15 | 01:52:02 | 00:00:00 | |
| AA1-15 | 2026-09-03 05:23:31 | 52.43801 | 8.69998 | 75° | 7km/h | 30388m | 6.7m/s | -44.9°C | 0% | 11.7hPa | 2.6V | 18:12:15 | 01:52:01 | 00:00:00 | |
| DC6BW-12 | 2026-09-03 05:23:31 | 52.43800 | 8.69998 | 76° | 9km/h | 30388m | 6.7m/s | -44.9°C | 0.7% | 11.7hPa | 2.6V | 00:00:00 | 00:00:00 | 00:00:00 | |
| DO2SHX-10 | 2026-09-03 05:23:30 | 52.43800 | 8.69995 | 98° | 9km/h | 30382m | 5.4m/s | -44.9°C | 2.7% | 11.7hPa | 2.6V | 00:00:00 | 01:52:00 | 00:00:00 | |
| SMARD9-15 | 2026-09-03 05:23:29 | 52.43801 | 8.69992 | 119° | 7km/h | 30377m | 4.8m/s | -45.0°C | 0.6% | 11.7hPa | 2.6V | 00:00:00 | 00:00:00 | 00:00:00 | |
| DL1XH1-15 | 2026-09-03 05:23:28 | 52.43816 | 8.69938 | 116° | 26km/h | 30342m | 7m/s | -45°C | 2.8% | 11.7hPa | 2.6V | 08:30:00 | 01:51:53 | 00:00:00 | |
| HSKMA3-T | 2026-09-03 05:23:25 | 52.43810 | 8.69960 | 113° | 31km/h | 30353m | 4.8m/s | -45°C | 0% | 11.7hPa | 2.6V | 18:12:15 | 01:51:55 | 00:00:00 | |
| BIOWL1-15 | 2026-09-03 05:23:24 | 52.43813 | 8.69949 | 114° | 29km/h | 30348m | 4.9m/s | -45°C | 0% | 11.7hPa | 2.6V | 18:12:15 | 01:51:54 | 00:00:00 | |
| DF8AY | 2026-09-03 05:23:22 | 52.43819 | 8.69931 | 122° | 18km/h | 30335m | 6.1m/s | -44.9°C | 0% | 11.7hPa | 2.5V | 18:12:15 | 01:51:52 | 00:00:00 | |
| DO2JMG | 2026-09-03 05:23:21 | 52.43821 | 8.69925 | 128° | 13km/h | 30329m | 5.3m/s | -44.9°C | 0% | 11.8hPa | 2.6V | 18:12:15 | 01:51:51 | 00:00:00 | |
| AA1-15 | 2026-09-03 05:23:20 | 52.43823 | 8.69921 | 129° | 11km/h | 30324m | 5.1m/s | -44.9°C | 0% | 11.8hPa | 2.6V | 18:12:15 | 01:51:50 | 00:00:00 | |
| BUE01 | 2026-09-03 05:23:19 | 52.43825 | 8.69917 | 123° | 11km/h | 30319m | 6.6m/s | -44.9°C | 0.7% | 11.8hPa | 2.6V | 00:00:00 | 00:00:00 | 00:00:00 | |
| DL1XH1-15 | 2026-09-03 05:23:18 | 52.43836 | 8.69885 | 134° | 5km/h | 30282m | 6.5m/s | -44.9°C | 2.7% | 11.8hPa | 2.6V | 08:30:00 | 01:51:43 | 00:00:00 | |
| HSKMA3-T | 2026-09-03 05:23:15 | 52.43833 | 8.69893 | 121° | 16km/h | 30295m | 5.4m/s | -44.9°C | 0% | 11.8hPa | 2.6V | 18:12:15 | 01:51:45 | 00:00:00 | |
| BIOWL1-15 | 2026-09-03 05:23:15 | 52.43836 | 8.69885 | 134° | 5km/h | 30282m | 6.5m/s | -44.9°C | 0% | 11.8hPa | 2.6V | 18:12:15 | 01:51:43 | 00:00:00 | |
| DL1XH-west | 2026-09-03 05:23:14 | 52.43835 | 8.69888 | 126° | 11km/h | 30289m | 7.3m/s | -44.9°C | 0% | 11.9hPa | 2.6V | 18:12:15 | 01:51:44 | 00:00:00 | |
| DF8AY | 2026-09-03 05:23:12 | 52.43837 | 8.69884 | 127° | 4km/h | 30276m | 5.3m/s | -44.9°C | 0% | 11.8hPa | 2.6V | 18:12:15 | 01:51:42 | 00:00:00 | |
| DO2JMG | 2026-09-03 05:23:10 | 52.43838 | 8.69879 | 100° | 11km/h | 30263m | 7m/s | -44.9°C | 0% | 11.9hPa | 2.6V | 18:12:15 | 01:51:40 | 00:00:00 | |
| DB0DAN | 2026-09-03 05:23:10 | 52.43838 | 8.69879 | 100° | 9km/h | 30264m | 7m/s | -44.9°C | 0.6% | 11.89hPa | 2.6V | 00:00:00 | 00:00:00 | 00:00:00 | |
| AA1-15 | 2026-09-03 05:23:09 | 52.43838 | 8.69874 | 100° | 15km/h | 30257m | 5.8m/s | -44.8°C | 0% | 11.9hPa | 2.6V | 18:12:15 | 01:51:39 | 00:00:00 | |
| BIOWL9-15 | 2026-09-03 05:23:09 | 52.43838 | 8.69874 | 99° | 13km/h | 30257m | 5.8m/s | -44.8°C | 0.6% | 11.9hPa | 2.6V | 00:00:00 | 00:00:00 | 00:00:00 | |
| DL1XH1-15 | 2026-09-03 05:23:08 | 52.43850 | 8.69853 | 152° | 11km/h | 30220m | 7.2m/s | -44.8°C | 2.7% | 12hPa | 2.6V | 08:30:00 | 01:51:33 | 00:00:00 | |
| DD8BA-10 | 2026-09-03 05:23:08 | 52.43839 | 8.69868 | 107° | 11km/h | 30252m | 4.8m/s | -44.8°C | 2.7% | 11.9hPa | 2.6V | 00:00:00 | 00:00:00 | 00:00:00 | |
| DL4XJ-10 | 2026-09-03 05:23:07 | 52.43840 | 8.69862 | 118° | 11km/h | 30246m | 6.0m/s | -43.5°C | 0% | 0hPa | 2.6V | 00:00:00 | 00:00:00 | 00:00:00 | |
| DL1XH-15 | 2026-09-03 05:23:06 | 52.43854 | 8.69847 | 128° | 11km/h | 30208m | 5.3m/s | -44.8°C | 2.7% | 11.9hPa | 2.6V | 08:30:00 | 01:51:31 | 00:00:00 | |
| HSKMA3-T | 2026-09-03 05:23:05 | 52.43845 | 8.69856 | 159° | 11km/h | 30233m | 6.2m/s | -44.8°C | 0% | 11.9hPa | 2.6V | 18:12:15 | 01:51:35 | 00:00:00 | |
| BIOWL1-15 | 2026-09-03 05:23:04 | 52.43855 | 8.69844 | 134° | 11km/h | 30203m | 5.2m/s | -44.7°C | 0% | 12hPa | 2.6V | 18:12:15 | 01:51:30 | 00:00:00 | |
| DL1XH-west | 2026-09-03 05:23:03 | 52.43850 | 8.69853 | 153° | 11km/h | 30221m | 7.2m/s | -44.8°C | 0% | 12hPa | 2.6V | 18:12:15 | 01:51:33 | 00:00:00 | |
| DF8AY | 2026-09-03 05:23:01 | 52.43854 | 8.69847 | 129° | 11km/h | 30208m | 5.3m/s | -44.8°C | 0% | 11.9hPa | 2.6V | 18:12:15 | 01:51:31 | 00:00:00 | |
| DO2JMG | 2026-09-03 05:22:59 | 52.43857 | 8.69841 | 152° | 9km/h | 30197m | 7m/s | -44.7°C | 0% | 12hPa | 2.6V | 18:12:15 | 01:51:29 | 00:00:00 | |
| DK5PH-5 | 2026-09-03 05:22:59 | 52.43857 | 8.69841 | 153° | 9km/h | 30197m | 6.9m/s | -44.7°C | 2.7% | 12.0hPa | 2.6V | 00:00:00 | 01:51:29 | 00:00:00 | |
| DL1XH1-15 | 2026-09-03 05:22:58 | 52.43876 | 8.69824 | 120° | 16km/h | 30160m | 4.4m/s | -44.8°C | 2.7% | 12.1hPa | 2.6V | 08:30:00 | 01:51:23 | 00:00:00 | |
| DB0ND-19 | 2026-09-03 05:22:57 | 52.43876 | 8.69824 | 120° | 15km/h | 30160m | 4.4m/s | -44.8°C | 0.6% | 12.1hPa | 2.5V | 00:00:00 | 00:00:00 | 00:00:00 | |
| DL1XH-15 | 2026-09-03 05:22:56 | 52.43879 | 8.69816 | 143° | 7km/h | 30148m | 7m/s | -44.8°C | 2.7% | 12.1hPa | 2.5V | 08:30:00 | 01:51:21 | 00:00:00 | |
| HSKMA3-T | 2026-09-03 05:22:55 | 52.43870 | 8.69834 | 145° | 16km/h | 30171m | 7.3m/s | -44.8°C | 0% | 12.1hPa | 2.6V | 18:12:15 | 01:51:25 | 00:00:00 | |
| GOEST3-10 | 2026-09-03 05:22:55 | 52.43870 | 8.69834 | 145° | 15km/h | 30172m | 7.2m/s | -44.8°C | 2.7% | 12.0hPa | 2.6V | 00:00:00 | 01:51:25 | 00:00:00 | |
| DB0DAN | 2026-09-03 05:22:55 | 52.43870 | 8.69834 | 145° | 16km/h | 30171m | 7.3m/s | -44.8°C | 0.6% | 12.07hPa | 2.6V | 00:00:00 | 00:00:00 | 00:00:00 | |
| DM0DOS-11 | 2026-09-03 05:22:54 | 52.43882 | 8.69816 | 202° | 7km/h | 30136m | 5.3m/s | -44.9°C | 2.7% | 12.1hPa | 2.6V | 08:30:00 | 01:51:19 | 00:00:00 | |
| DL1XH-west | 2026-09-03 05:22:53 | 52.43876 | 8.69824 | 120° | 16km/h | 30160m | 4.4m/s | -44.8°C | 0% | 12.1hPa | 2.6V | 18:12:15 | 01:51:23 | 00:00:00 | |
| BIOWL1-15 | 2026-09-03 05:22:51 | 52.43879 | 8.69816 | 143° | 7km/h | 30148m | 7.1m/s | -44.8°C | 0% | 12.1hPa | 2.5V | 18:12:15 | 01:51:21 | 00:00:00 | |
| DO2JMG | 2026-09-03 05:22:49 | 52.43883 | 8.69816 | 203° | 7km/h | 30136m | 5.3m/s | -44.9°C | 0% | 12.1hPa | 2.6V | 18:12:15 | 01:51:19 | 00:00:00 | |
| DJTTGO | 2026-09-03 05:22:49 | 52.43882 | 8.69816 | 204° | 7km/h | 30136m | 5.3m/s | -44.9°C | 0.6% | 12.1hPa | 2.6V | 00:00:00 | 00:00:00 | 00:00:00 | |
| DL1XH1-15 | 2026-09-03 05:22:48 | 52.43891 | 8.69810 | 168° | 5km/h | 30097m | 6.6m/s | -44.9°C | 2.7% | 12.2hPa | 2.6V | 08:30:00 | 01:51:13 | 00:00:00 | |
| DD8BA-10 | 2026-09-03 05:22:48 | 52.43884 | 8.69817 | 187° | 7km/h | 30130m | 6.2m/s | -44.8°C | 2.7% | 12.1hPa | 2.6V | 00:00:00 | 00:00:00 | 00:00:00 | |
| DO3MHA-11 | 2026-09-03 05:22:47 | 52.43886 | 8.69816 | 157° | 9km/h | 30123m | 7.0m/s | -44.8°C | 2.8% | 12.1hPa | 2.6V | 00:00:00 | 01:51:17 | 08:30:00 | |
| DL1XH-15 | 2026-09-03 05:22:46 | 52.43894 | 8.69808 | 154° | 9km/h | 30085m | 6.3m/s | -44.9°C | 2.7% | 12.2hPa | 2.6V | 08:30:00 | 01:51:11 | 00:00:00 | |
| HSKMA3-T | 2026-09-03 05:22:44 | 52.43890 | 8.69811 | 145° | 5km/h | 30104m | 7.3m/s | -44.9°C | 0% | 12.2hPa | 2.5V | 18:12:15 | 01:51:14 | 00:00:00 | |
| DL1XH-west | 2026-09-03 05:22:43 | 52.43891 | 8.69810 | 168° | 5km/h | 30097m | 6.6m/s | -44.9°C | 0% | 12.2hPa | 2.6V | 18:12:15 | 01:51:13 | 00:00:00 | |
| BIOWL1-15 | 2026-09-03 05:22:41 | 52.43894 | 8.69808 | 155° | 9km/h | 30085m | 6.4m/s | -44.9°C | 0% | 12.2hPa | 2.6V | 18:12:15 | 01:51:11 | 00:00:00 | |
| DO2JMG | 2026-09-03 05:22:39 | 52.43899 | 8.69802 | 138° | 15km/h | 30072m | 5.9m/s | -44.8°C | 0% | 12.2hPa | 2.5V | 18:12:15 | 01:51:09 | 00:00:00 | |
| DO2SHX-10 | 2026-09-03 05:22:39 | 52.43899 | 8.69802 | 139° | 15km/h | 30072m | 5.9m/s | -44.8°C | 2.6% | 12.2hPa | 2.6V | 00:00:00 | 01:51:09 | 00:00:00 | |
| DD8BA-10 | 2026-09-03 05:22:38 | 52.43902 | 8.69799 | 145° | 9km/h | 30067m | 5.3m/s | -44.9°C | 2.7% | 12.2hPa | 2.6V | 00:00:00 | 00:00:00 | 00:00:00 | |
| DO3MHA-11 | 2026-09-03 05:22:37 | 52.43905 | 8.69796 | 162° | 9km/h | 30061m | 6.4m/s | -44.9°C | 2.7% | 12.3hPa | 2.6V | 00:00:00 | 01:51:07 | 00:00:00 | |
| DL1XH-15 | 2026-09-03 05:22:36 | 52.43919 | 8.69797 | 129° | 9km/h | 30021m | 5.7m/s | -45.1°C | 2.7% | 12.3hPa | 2.6V | 08:30:00 | 01:51:01 | 00:00:00 | |
| HSKMA3-T | 2026-09-03 05:22:34 | 52.43913 | 8.69799 | 205° | 11km/h | 30041m | 5.9m/s | -45°C | 0% | 12.3hPa | 2.6V | 18:12:15 | 01:51:04 | 00:00:00 | |
| DL1XH-west | 2026-09-03 05:22:32 | 52.43918 | 8.69799 | 153° | 7km/h | 30028m | 6.6m/s | -45.1°C | 0% | 12.3hPa | 2.6V | 18:12:15 | 01:51:02 | 00:00:00 | |
| DF8AY | 2026-09-03 05:22:30 | 52.43920 | 8.69794 | 123° | 7km/h | 30015m | 6.5m/s | -45.1°C | 0% | 12.3hPa | 2.6V | 18:12:15 | 01:51:00 | 00:00:00 | |
| DO2JMG | 2026-09-03 05:22:28 | 52.43922 | 8.69791 | 147° | 5km/h | 30002m | 5.9m/s | -45.2°C | 0% | 12.4hPa | 2.6V | 18:12:15 | 01:50:58 | 00:00:00 | |
| DD8BA-10 | 2026-09-03 05:22:28 | 52.43922 | 8.69791 | 148° | 16km/h | 30002m | 5.9m/s | -45.1°C | 2.7% | 12.3hPa | 2.6V | 00:00:00 | 00:00:00 | 00:00:00 | |
| DO3MHA-12 | 2026-09-03 05:22:27 | 52.43923 | 8.69790 | 150° | 18km/h | 29997m | 5.2m/s | -45.1°C | 2.7% | 12.3hPa | 2.6V | 00:00:00 | 01:50:57 | 00:00:00 | |
| DL1XH-15 | 2026-09-03 05:22:26 | 52.43947 | 8.69771 | 182° | 24km/h | 29958m | 7.2m/s | -45.4°C | 2.8% | 12.5hPa | 2.6V | 08:30:00 | 01:50:51 | 00:00:00 | |
| DB0DAN | 2026-09-03 05:22:25 | 52.43928 | 8.69784 | 139° | 15km/h | 29984m | 7.7m/s | -45.3°C | 0.7% | 12.41hPa | 2.6V | 00:00:00 | 00:00:00 | 00:00:00 | |
| HSKMA3-T | 2026-09-03 05:22:23 | 52.43936 | 8.69775 | 154° | 22km/h | 29971m | 5.3m/s | -45.4°C | 0% | 12.4hPa | 2.6V | 18:12:15 | 01:50:53 | 00:00:00 | |
| DL1XH-west | 2026-09-03 05:22:21 | 52.43947 | 8.69771 | 183° | 24km/h | 29958m | 7.2m/s | -45.4°C | 0% | 12.5hPa | 2.6V | 18:12:15 | 01:50:51 | 00:00:00 | |
| BIOWL1-15 | 2026-09-03 05:22:20 | 52.43952 | 8.69772 | 191° | 24km/h | 29951m | 5.4m/s | -45.3°C | 0% | 12.5hPa | 2.6V | 18:12:15 | 01:50:50 | 00:00:00 | |
| DF8AY | 2026-09-03 05:22:19 | 52.43958 | 8.69774 | 190° | 22km/h | 29946m | 5.5m/s | -45.3°C | 0% | 12.4hPa | 2.6V | 18:12:15 | 01:50:49 | 00:00:00 | |
| DO2JMG | 2026-09-03 05:22:17 | 52.43967 | 8.69774 | 159° | 15km/h | 29933m | 6.8m/s | -45.2°C | 0% | 12.5hPa | 2.6V | 18:12:15 | 01:50:47 | 00:00:00 | |
| DO3MHA-12 | 2026-09-03 05:22:17 | 52.43967 | 8.69774 | 160° | 15km/h | 29933m | 6.8m/s | -45.2°C | 2.8% | 12.5hPa | 2.6V | 00:00:00 | 01:50:47 | 08:30:00 | |
| DL1XH-15 | 2026-09-03 05:22:16 | 52.43979 | 8.69755 | 132° | 16km/h | 29894m | 7.3m/s | -45.3°C | 2.8% | 12.6hPa | 2.6V | 08:30:00 | 01:50:41 | 00:00:00 | |
| HSKMA3-T | 2026-09-03 05:22:13 | 52.43975 | 8.69762 | 128° | 9km/h | 29907m | 5.6m/s | -45.3°C | 0% | 12.6hPa | 2.6V | 18:12:15 | 01:50:43 | 00:00:00 | |
| DL1XH-west | 2026-09-03 05:22:11 | 52.43979 | 8.69755 | 132° | 16km/h | 29894m | 7.3m/s | -45.3°C | 0% | 12.6hPa | 2.6V | 18:12:15 | 01:50:41 | 00:00:00 | |
| DB0DAN | 2026-09-03 05:22:10 | 52.43982 | 8.69749 | 137° | 22km/h | 29888m | 6.5m/s | -45.3°C | 0.7% | 12.58hPa | 2.6V | 00:00:00 | 00:00:00 | 00:00:00 | |
| DF8AY | 2026-09-03 05:22:09 | 52.43987 | 8.69743 | 145° | 24km/h | 29882m | 5.4m/s | -45.4°C | 0% | 12.6hPa | 2.6V | 18:12:15 | 01:50:39 | 00:00:00 | |
| DB0NH | 2026-09-03 05:22:09 | 52.43987 | 8.69743 | 146° | 22km/h | 29882m | 5.4m/s | -45.3°C | 2.7% | 12.6hPa | 2.6V | 00:00:00 | 01:50:39 | 08:30:00 | |
| DL1XH1-15 | 2026-09-03 05:22:08 | 52.44019 | 8.69730 | 154° | 22km/h | 29844m | 7.4m/s | -45.4°C | 2.8% | 12.7hPa | 2.6V | 08:30:00 | 01:50:33 | 00:00:00 | |
| DO2JMG | 2026-09-03 05:22:07 | 52.43998 | 8.69735 | 168° | 22km/h | 29869m | 7.5m/s | -45.4°C | 0% | 12.6hPa | 2.6V | 18:12:15 | 01:50:37 | 00:00:00 | |
| AA1-15 | 2026-09-03 05:22:06 | 52.44003 | 8.69734 | 179° | 22km/h | 29862m | 5.9m/s | -45.4°C | 0% | 12.7hPa | 2.6V | 18:12:15 | 01:50:36 | 00:00:00 | |
| DL3AQ-11 | 2026-09-03 05:22:06 | 52.44009 | 8.69734 | 179° | 20km/h | 29857m | 4.8m/s | -45.4°C | 0.7% | 12.7hPa | 2.6V | 00:00:00 | 00:00:00 | 00:00:00 | |
| DO2SHX-10 | 2026-09-03 05:22:05 | 52.44008 | 8.69734 | 180° | 20km/h | 29857m | 4.8m/s | -45.4°C | 2.8% | 12.6hPa | 2.6V | 00:00:00 | 01:50:35 | 00:00:00 | |
| DM0DOS-11 | 2026-09-03 05:22:04 | 52.44034 | 8.69703 | 119° | 20km/h | 29818m | 7.1m/s | -45.5°C | 2.9% | 12.7hPa | 2.6V | 08:30:00 | 01:50:29 | 00:00:00 | |
| HSKMA3-T | 2026-09-03 05:22:03 | 52.44019 | 8.69730 | 154° | 22km/h | 29844m | 7.4m/s | -45.4°C | 0% | 12.7hPa | 2.6V | 18:12:15 | 01:50:33 | 00:00:00 | |
| DL1XH-west | 2026-09-03 05:22:00 | 52.44031 | 8.69710 | 123° | 22km/h | 29825m | 7.4m/s | -45.5°C | 0% | 12.8hPa | 2.6V | 18:12:15 | 01:50:30 | 00:00:00 | |
| DF8AY | 2026-09-03 05:21:59 | 52.44034 | 8.69703 | 119° | 20km/h | 29818m | 7.1m/s | -45.6°C | 0% | 12.7hPa | 2.6V | 18:12:15 | 01:50:29 | 00:00:00 | |
| S3001 | 2026-09-03 05:21:59 | 52.44036 | 8.69696 | 117° | 18km/h | 29812m | 6.1m/s | -45.6°C | 0.7% | 12.8hPa | 2.6V | 00:00:00 | 00:00:00 | 00:00:00 | |
| DL1XH1-15 | 2026-09-03 05:21:58 | 52.44052 | 8.69659 | 147° | 18km/h | 29780m | 7m/s | -45.5°C | 2.8% | 12.8hPa | 2.6V | 08:30:00 | 01:50:23 | 00:00:00 | |
| DO2JMG | 2026-09-03 05:21:57 | 52.44039 | 8.69688 | 118° | 20km/h | 29805m | 6.4m/s | -45.6°C | 0% | 12.7hPa | 2.6V | 18:12:15 | 01:50:27 | 00:00:00 | |
| AA1-15 | 2026-09-03 05:21:56 | 52.44041 | 8.69680 | 119° | 24km/h | 29798m | 7.5m/s | -45.6°C | 0% | 12.8hPa | 2.5V | 18:12:15 | 01:50:26 | 00:00:00 | |
| DB0ND-19 | 2026-09-03 05:21:55 | 52.44064 | 8.69655 | 173° | 16km/h | 29761m | 5.6m/s | -45.4°C | 0.7% | 12.9hPa | 2.6V | 00:00:00 | 00:00:00 | 00:00:00 | |
| DM0DOS-11 | 2026-09-03 05:21:54 | 52.44069 | 8.69654 | 159° | 20km/h | 29754m | 7m/s | -45.4°C | 2.8% | 12.8hPa | 2.6V | 08:30:00 | 01:50:19 | 00:00:00 | |
| HSKMA3-T | 2026-09-03 05:21:53 | 52.44052 | 8.69659 | 147° | 18km/h | 29780m | 7m/s | -45.5°C | 0% | 12.8hPa | 2.6V | 18:12:15 | 01:50:23 | 00:00:00 | |
| DL1XH-west | 2026-09-03 05:21:50 | 52.44064 | 8.69655 | 174° | 18km/h | 29760m | 5.6m/s | -45.4°C | 0% | 12.9hPa | 2.6V | 18:12:15 | 01:50:20 | 00:00:00 | |
| BIOWL1-15 | 2026-09-03 05:21:50 | 52.44073 | 8.69649 | 142° | 22km/h | 29747m | 7.1m/s | -45.4°C | 0% | 12.9hPa | 2.6V | 18:12:15 | 01:50:18 | 00:00:00 | |
| DF8AY | 2026-09-03 05:21:49 | 52.44069 | 8.69653 | 159° | 20km/h | 29754m | 7m/s | -45.4°C | 0% | 12.8hPa | 2.6V | 18:12:15 | 01:50:19 | 00:00:00 | |
| DO2JMG | 2026-09-03 05:21:46 | 52.44082 | 8.69634 | 128° | 26km/h | 29734m | 7m/s | -45.3°C | 0% | 12.9hPa | 2.6V | 18:12:15 | 01:50:16 | 00:00:00 | |
| AA1-15 | 2026-09-03 05:21:45 | 52.44086 | 8.69626 | 126° | 24km/h | 29727m | 7.1m/s | -45.3°C | 0% | 13hPa | 2.6V | 18:12:15 | 01:50:15 | 00:00:00 | |
| HTAHTA | 2026-09-03 05:21:45 | 52.44089 | 8.69618 | 122° | 22km/h | 29720m | 5.9m/s | -45.2°C | 0.7% | 12.9hPa | 2.6V | 00:00:00 | 00:00:00 | 00:00:00 | |
| HSKMA3-T | 2026-09-03 05:21:42 | 52.44094 | 8.69601 | 114° | 24km/h | 29708m | 7.4m/s | -45.2°C | 0% | 13hPa | 2.6V | 18:12:15 | 01:50:12 | 00:00:00 | |
| DB0DAN | 2026-09-03 05:21:40 | 52.44099 | 8.69584 | 118° | 20km/h | 29695m | 4.9m/s | -45.1°C | 0.7% | 12.97hPa | 2.6V | 00:00:00 | 00:00:00 | 00:00:00 | |
| DL1XH-west | 2026-09-03 05:21:39 | 52.44102 | 8.69577 | 129° | 16km/h | 29689m | 5.7m/s | -45.1°C | 0% | 13hPa | 2.6V | 18:12:15 | 01:50:09 | 00:00:00 | |
| DF8AY | 2026-09-03 05:21:38 | 52.44105 | 8.69573 | 151° | 15km/h | 29683m | 7.8m/s | -45.1°C | 0% | 13hPa | 2.6V | 18:12:15 | 01:50:08 | 00:00:00 | |
| BIOWL1-15 | 2026-09-03 05:21:37 | 52.44116 | 8.69570 | 164° | 20km/h | 29664m | 6.3m/s | -45.1°C | 0% | 13hPa | 2.5V | 18:12:15 | 01:50:05 | 00:00:00 | |
| DO2JMG | 2026-09-03 05:21:36 | 52.44112 | 8.69571 | 178° | 16km/h | 29670m | 5.4m/s | -45.1°C | 0% | 13hPa | 2.6V | 18:12:15 | 01:50:06 | 00:00:00 | |
| AA1-15 | 2026-09-03 05:21:34 | 52.44121 | 8.69566 | 145° | 22km/h | 29657m | 6.7m/s | -45.1°C | 0% | 13hPa | 2.6V | 18:12:15 | 01:50:04 | 00:00:00 | |
| HSKMA3-T | 2026-09-03 05:21:31 | 52.44131 | 8.69539 | 105° | 27km/h | 29640m | 6.7m/s | -45.1°C | 0% | 13.1hPa | 2.6V | 18:12:15 | 01:50:01 | 00:00:00 | |
| DD1CC8 | 2026-09-03 05:21:31 | 52.44132 | 8.69529 | 97° | 22km/h | 29633m | 7.0m/s | -45.1°C | 0.7% | 13.1hPa | 2.6V | 00:00:00 | 00:00:00 | 00:00:00 | |
| GOEST3-10 | 2026-09-03 05:21:30 | 52.44132 | 8.69529 | 98° | 18km/h | 29633m | 7.0m/s | -45.1°C | 2.8% | 13.0hPa | 2.6V | 00:00:00 | 00:00:00 | 00:00:00 | |
| DO2SHX-10 | 2026-09-03 05:21:29 | 52.44132 | 8.69520 | 93° | 16km/h | 29626m | 6.6m/s | -45.2°C | 2.8% | 13.1hPa | 2.6V | 00:00:00 | 01:49:59 | 00:00:00 | |
| DL1XH1-15 | 2026-09-03 05:21:28 | 52.44141 | 8.69483 | 135° | 15km/h | 29588m | 6.4m/s | -45.4°C | 2.8% | 13.2hPa | 2.6V | 08:30:00 | 01:49:53 | 00:00:00 | |
| DL1XH-west | 2026-09-03 05:21:28 | 52.44133 | 8.69513 | 91° | 16km/h | 29620m | 5.9m/s | -45.3°C | 0% | 13.2hPa | 2.5V | 18:12:15 | 01:49:58 | 00:00:00 | |
| BIOWL1-15 | 2026-09-03 05:21:27 | 52.44133 | 8.69507 | 100° | 15km/h | 29614m | 5.9m/s | -45.3°C | 0% | 13.2hPa | 2.6V | 18:12:15 | 01:49:57 | 00:00:00 | |
| DO3MHA-12 | 2026-09-03 05:21:27 | 52.44133 | 8.69506 | 100° | 13km/h | 29614m | 5.8m/s | 0°C | 0% | 0hPa | 2.6V | 00:00:00 | 01:49:57 | 00:00:00 | |
| DL1XH-15 | 2026-09-03 05:21:26 | 52.44145 | 8.69477 | 138° | 7km/h | 29575m | 6.5m/s | -45.2°C | 2.8% | 13.2hPa | 2.6V | 08:30:00 | 01:49:51 | 00:00:00 | |
| DO2JMG | 2026-09-03 05:21:25 | 52.44136 | 8.69494 | 122° | 18km/h | 29600m | 6.2m/s | -45.3°C | 0% | 13.2hPa | 2.6V | 18:12:15 | 01:49:55 | 00:00:00 | |
| DB0DAN | 2026-09-03 05:21:25 | 52.44136 | 8.69494 | 122° | 16km/h | 29600m | 6.2m/s | -45.3°C | 0.7% | 13.21hPa | 2.6V | 00:00:00 | 00:00:00 | 00:00:00 | |
| AA1-15 | 2026-09-03 05:21:23 | 52.44141 | 8.69483 | 136° | 15km/h | 29589m | 6.4m/s | -45.4°C | 0% | 13.2hPa | 2.6V | 18:12:15 | 01:49:53 | 00:00:00 | |
| DO2SHX-10 | 2026-09-03 05:21:23 | 52.44141 | 8.69483 | 136° | 11km/h | 29589m | 6.4m/s | -45.3°C | 2.8% | 13.1hPa | 2.6V | 00:00:00 | 01:49:53 | 00:00:00 | |
| SP3BTT-10 | 2026-09-03 05:21:22 | 52.44144 | 8.69480 | 141° | 16km/h | 29582m | 7.4m/s | -45.3°C | 2.8% | 13.1hPa | 2.6V | 00:00:00 | 00:00:00 | 00:00:00 | |
| NBG1-10 | 2026-09-03 05:21:21 | 52.44145 | 8.69477 | 139° | 16km/h | 29575m | 6.5m/s | -45.2°C | 2.8% | 13.2hPa | 2.6V | 00:00:00 | 01:49:51 | 00:00:00 | |
| HSKMA3-T | 2026-09-03 05:21:21 | 52.44145 | 8.69477 | 139° | 7km/h | 29575m | 6.5m/s | -45.2°C | 0% | 13.2hPa | 2.6V | 18:12:15 | 01:49:51 | 00:00:00 | |
| DO2SHX-10 | 2026-09-03 05:21:20 | 52.44147 | 8.69475 | 127° | 11km/h | 29569m | 5.7m/s | -45.2°C | 2.8% | 13.2hPa | 2.6V | 00:00:00 | 01:49:50 | 00:00:00 | |
| D01LWL | 2026-09-03 05:21:19 | 52.44149 | 8.69467 | 118° | 15km/h | 29556m | 7.0m/s | -45.2°C | 0.7% | 13.3hPa | 2.6V | 00:00:00 | 00:00:00 | 00:00:00 | |
| DL1XH1-15 | 2026-09-03 05:21:18 | 52.44159 | 8.69443 | 139° | 9km/h | 29523m | 6.2m/s | -45.1°C | 2.8% | 13.3hPa | 2.6V | 08:30:00 | 01:49:43 | 00:00:00 | |
| DL1XH-west | 2026-09-03 05:21:17 | 52.44152 | 8.69461 | 119° | 18km/h | 29549m | 5.4m/s | -45.2°C | 0% | 13.3hPa | 2.7V | 18:12:15 | 01:49:47 | 00:00:00 | |
| BIOWL1-15 | 2026-09-03 05:21:16 | 52.44157 | 8.69446 | 127° | 9km/h | 29530m | 6.5m/s | -45.1°C | 0% | 13.3hPa | 2.5V | 18:12:15 | 01:49:44 | 00:00:00 | |
| DF8AY | 2026-09-03 05:21:16 | 52.44154 | 8.69455 | 120° | 16km/h | 29543m | 5.7m/s | -45.1°C | 0% | 13.3hPa | 2.6V | 18:12:15 | 01:49:46 | 00:00:00 | |
| DO2JMG | 2026-09-03 05:21:15 | 52.44156 | 8.69449 | 121° | 13km/h | 29537m | 7.5m/s | -45.1°C | 0% | 13.3hPa | 2.6V | 18:12:15 | 01:49:45 | 00:00:00 | |
| AA1-15 | 2026-09-03 05:21:13 | 52.44159 | 8.69443 | 140° | 9km/h | 29523m | 6.2m/s | -45.1°C | 0% | 13.3hPa | 2.6V | 18:12:15 | 01:49:43 | 00:00:00 | |
| HSKMA3-T | 2026-09-03 05:21:10 | 52.44166 | 8.69435 | 151° | 15km/h | 29503m | 5.7m/s | -45°C | 0% | 13.4hPa | 2.6V | 18:12:15 | 01:49:40 | 00:00:00 | |
| GOEST3-10 | 2026-09-03 05:21:10 | 52.44166 | 8.69435 | 151° | 9km/h | 29503m | 5.6m/s | -45.0°C | 2.8% | 13.3hPa | 2.6V | 00:00:00 | 00:00:00 | 00:00:00 | |
| DL3AQ-11 | 2026-09-03 05:21:09 | 52.44170 | 8.69432 | 151° | 13km/h | 29498m | 6.0m/s | -45.1°C | 0.6% | 13.4hPa | 2.6V | 00:00:00 | 00:00:00 | 00:00:00 | |
| DL1XH1-15 | 2026-09-03 05:21:08 | 52.44177 | 8.69410 | 111° | 22km/h | 29458m | 6.1m/s | -45°C | 2.8% | 13.5hPa | 2.6V | 08:30:00 | 01:49:33 | 00:00:00 | |
| DL1XH-west | 2026-09-03 05:21:06 | 52.44174 | 8.69426 | 103° | 7km/h | 29477m | 5.4m/s | -45.1°C | 0% | 13.5hPa | 2.6V | 18:12:15 | 01:49:36 | 00:00:00 | |
| BIOWL1-15 | 2026-09-03 05:21:05 | 52.44177 | 8.69410 | 111° | 22km/h | 29458m | 6.1m/s | -45°C | 0% | 13.5hPa | 2.6V | 18:12:15 | 01:49:33 | 00:00:00 | |
| DO2JMG | 2026-09-03 05:21:04 | 52.44176 | 8.69417 | 107° | 16km/h | 29465m | 7.5m/s | -45.1°C | 0% | 13.5hPa | 2.6V | 18:12:15 | 01:49:34 | 00:00:00 | |
| AA1-15 | 2026-09-03 05:21:02 | 52.44179 | 8.69401 | 112° | 24km/h | 29453m | 5.2m/s | -45°C | 0% | 13.5hPa | 2.5V | 18:12:15 | 01:49:32 | 00:00:00 | |
| HSKMA3-T | 2026-09-03 05:20:59 | 52.44185 | 8.69379 | 117° | 13km/h | 29434m | 6.5m/s | -44.9°C | 0% | 13.5hPa | 2.6V | 18:12:15 | 01:49:29 | 00:00:00 | |
| DL1XH1-15 | 2026-09-03 05:20:58 | 52.44202 | 8.69359 | 145° | 16km/h | 29396m | 6.2m/s | -44.9°C | 2.7% | 13.6hPa | 2.6V | 08:30:00 | 01:49:23 | 00:00:00 | |
| DL3AQ-11 | 2026-09-03 05:20:57 | 52.44191 | 8.69370 | 151° | 13km/h | 29415m | 7.1m/s | -44.9°C | 0.7% | 13.6hPa | 2.6V | 00:00:00 | 00:00:00 | 00:00:00 | |
| DL1XH-15 | 2026-09-03 05:20:56 | 52.44207 | 8.69352 | 132° | 11km/h | 29383m | 5.9m/s | -44.9°C | 2.7% | 13.6hPa | 2.6V | 08:30:00 | 01:49:21 | 00:00:00 | |
| DB0DAN | 2026-09-03 05:20:55 | 52.44195 | 8.69367 | 150° | 18km/h | 29408m | 6.3m/s | -44.9°C | 0.7% | 13.57hPa | 2.6V | 00:00:00 | 00:00:00 | 00:00:00 | |
| DL1XH-west | 2026-09-03 05:20:55 | 52.44195 | 8.69367 | 150° | 18km/h | 29408m | 6.3m/s | -44.9°C | 0% | 13.6hPa | 2.6V | 18:12:15 | 01:49:25 | 00:00:00 | |
| DO2JMG | 2026-09-03 05:20:53 | 52.44202 | 8.69359 | 145° | 16km/h | 29396m | 6.2m/s | -44.9°C | 0% | 13.6hPa | 2.6V | 18:12:15 | 01:49:23 | 00:00:00 | |
| AA1-15 | 2026-09-03 05:20:52 | 52.44205 | 8.69356 | 141° | 13km/h | 29390m | 7.6m/s | -44.9°C | 0% | 13.6hPa | 2.6V | 18:12:15 | 01:49:22 | 00:00:00 | |
| HSKMA3-T | 2026-09-03 05:20:48 | 52.44215 | 8.69338 | 131° | 22km/h | 29364m | 7.1m/s | -44.9°C | 0% | 13.7hPa | 2.6V | 18:12:15 | 01:49:18 | 00:00:00 | |
| DD8BA-10 | 2026-09-03 05:20:48 | 52.44214 | 8.69338 | 131° | 18km/h | 29364m | 7.1m/s | -44.9°C | 2.8% | 13.6hPa | 2.6V | 00:00:00 | 00:00:00 | 08:30:00 | |
| DO3MHA-11 | 2026-09-03 05:20:47 | 52.44218 | 8.69332 | 132° | 18km/h | 29357m | 6.0m/s | -44.9°C | 2.8% | 13.6hPa | 2.5V | 00:00:00 | 01:49:17 | 00:00:00 | |
| DL1XH-15 | 2026-09-03 05:20:46 | 52.44239 | 8.69310 | 165° | 18km/h | 29319m | 7.5m/s | -44.9°C | 2.7% | 13.8hPa | 2.5V | 08:30:00 | 01:49:11 | 00:00:00 | |
| DL1XH-west | 2026-09-03 05:20:45 | 52.44226 | 8.69319 | 136° | 18km/h | 29344m | 7.2m/s | -44.8°C | 0% | 13.7hPa | 2.6V | 18:12:15 | 01:49:15 | 00:00:00 | |
| DF8AY | 2026-09-03 05:20:44 | 52.44229 | 8.69315 | 148° | 13km/h | 29337m | 6.4m/s | -44.8°C | 0% | 13.7hPa | 2.6V | 18:12:15 | 01:49:14 | 00:00:00 | |
| BIOWL1-15 | 2026-09-03 05:20:43 | 52.44239 | 8.69310 | 166° | 18km/h | 29319m | 7.5m/s | -44.9°C | 0% | 13.8hPa | 2.5V | 18:12:15 | 01:49:11 | 00:00:00 | |
| DO2JMG | 2026-09-03 05:20:43 | 52.44231 | 8.69313 | 162° | 13km/h | 29332m | 5.6m/s | -44.8°C | 0% | 13.8hPa | 2.6V | 18:12:15 | 01:49:13 | 00:00:00 | |
| AA1-15 | 2026-09-03 05:20:42 | 52.44235 | 8.69311 | 167° | 15km/h | 29325m | 6.2m/s | -44.9°C | 0% | 13.8hPa | 2.6V | 18:12:15 | 01:49:12 | 00:00:00 | |
| DB0DAN | 2026-09-03 05:20:40 | 52.44244 | 8.69307 | 162° | 20km/h | 29312m | 6.1m/s | -44.8°C | 0.6% | 13.75hPa | 2.5V | 00:00:00 | 00:00:00 | 00:00:00 | |
| SONDE2-11 | 2026-09-03 05:20:39 | 52.44249 | 8.69304 | 157° | 20km/h | 29307m | 5.3m/s | -44.8°C | 0.7% | 13.8hPa | 2.6V | 00:00:00 | 00:00:00 | 00:00:00 | |
| DL1XH1-15 | 2026-09-03 05:20:38 | 52.44264 | 8.69277 | 123° | 22km/h | 29267m | 6.1m/s | -44.9°C | 2.7% | 13.9hPa | 2.6V | 08:30:00 | 01:49:03 | 00:00:00 | |
| HSKMA3-T | 2026-09-03 05:20:38 | 52.44253 | 8.69301 | 152° | 16km/h | 29300m | 6.8m/s | -44.9°C | 0% | 13.8hPa | 2.6V | 18:12:15 | 01:49:08 | 00:00:00 | |
| DD8BA-10 | 2026-09-03 05:20:38 | 52.44253 | 8.69301 | 152° | 18km/h | 29301m | 6.8m/s | -44.8°C | 2.7% | 13.7hPa | 2.6V | 00:00:00 | 00:00:00 | 00:00:00 | |
| DO2SHX-10 | 2026-09-03 05:20:37 | 52.44256 | 8.69298 | 140° | 13km/h | 29293m | 7.4m/s | -44.8°C | 2.7% | 13.7hPa | 2.6V | 00:00:00 | 01:49:07 | 00:00:00 | |
| DL1XH-15 | 2026-09-03 05:20:36 | 52.44271 | 8.69262 | 133° | 22km/h | 29257m | 5.7m/s | -45°C | 2.8% | 13.8hPa | 2.6V | 08:30:00 | 01:49:01 | 00:00:00 | |
| DL1XH-west | 2026-09-03 05:20:34 | 52.44261 | 8.69284 | 118° | 18km/h | 29274m | 7.4m/s | -44.9°C | 0% | 13.9hPa | 2.6V | 18:12:15 | 01:49:04 | 00:00:00 | |
| BIOWL1-15 | 2026-09-03 05:20:33 | 52.44264 | 8.69277 | 123° | 22km/h | 29267m | 6.1m/s | -44.9°C | 0% | 13.9hPa | 2.6V | 18:12:15 | 01:49:03 | 00:00:00 | |
| DO2JMG | 2026-09-03 05:20:32 | 52.44267 | 8.69269 | 129° | 24km/h | 29261m | 4.6m/s | -45°C | 0% | 13.9hPa | 2.5V | 18:12:15 | 01:49:02 | 00:00:00 | |
| AA1-15 | 2026-09-03 05:20:31 | 52.44271 | 8.69262 | 134° | 22km/h | 29257m | 5.7m/s | -45°C | 0% | 13.8hPa | 2.6V | 18:12:15 | 01:49:01 | 00:00:00 | |
| DL3AQ-11 | 2026-09-03 05:20:30 | 52.44279 | 8.69253 | 158° | 16km/h | 29243m | 6.5m/s | -44.9°C | 0.7% | 13.9hPa | 2.6V | 00:00:00 | 00:00:00 | 00:00:00 | |
| DD1CC8 | 2026-09-03 05:20:29 | 52.44283 | 8.69251 | 170° | 16km/h | 29237m | 6.0m/s | -44.9°C | 0.7% | 13.9hPa | 2.6V | 00:00:00 | 00:00:00 | 00:00:00 | |
| DL1XH1-15 | 2026-09-03 05:20:28 | 52.44313 | 8.69233 | 143° | 26km/h | 29205m | 7.1m/s | -45°C | 2.8% | 13.9hPa | 2.6V | 08:30:00 | 01:48:53 | 00:00:00 | |
| HSKMA3-T | 2026-09-03 05:20:27 | 52.44288 | 8.69249 | 172° | 22km/h | 29231m | 5.9m/s | -45°C | 0% | 13.9hPa | 2.6V | 18:12:15 | 01:48:57 | 00:00:00 | |
| DK5PH-5 | 2026-09-03 05:20:27 | 52.44288 | 8.69249 | 172° | 29km/h | 29232m | 5.9m/s | -44.9°C | 2.8% | 13.9hPa | 2.5V | 00:00:00 | 01:48:57 | 00:00:00 | |
| DO3DL | 2026-09-03 05:20:26 | 52.44288 | 8.69249 | 173° | 22km/h | 29232m | 5.9m/s | -45.0°C | 0.7% | 14.0hPa | 2.5V | 00:00:00 | 00:00:00 | 00:00:00 | |
| DB0DAN | 2026-09-03 05:20:25 | 52.44300 | 8.69244 | 160° | 27km/h | 29218m | 6.4m/s | -44.9°C | 0.7% | 13.98hPa | 2.5V | 00:00:00 | 00:00:00 | 00:00:00 | |
| DF8AY | 2026-09-03 05:20:24 | 52.44307 | 8.69239 | 151° | 29km/h | 29211m | 5.9m/s | -44.9°C | 0% | 14hPa | 2.6V | 18:12:15 | 01:48:54 | 00:00:00 | |
| BIOWL1-15 | 2026-09-03 05:20:23 | 52.44313 | 8.69233 | 143° | 26km/h | 29205m | 7.1m/s | -45°C | 0% | 14hPa | 2.6V | 18:12:15 | 01:48:53 | 00:00:00 | |
| DO2JMG | 2026-09-03 05:20:21 | 52.44321 | 8.69220 | 128° | 18km/h | 29191m | 5.5m/s | -44.9°C | 0% | 14.1hPa | 2.6V | 18:12:15 | 01:48:51 | 00:00:00 | |
| AA1-15 | 2026-09-03 05:20:20 | 52.44324 | 8.69214 | 128° | 18km/h | 29186m | 4.7m/s | -44.9°C | 0% | 14hPa | 2.5V | 18:12:15 | 01:48:50 | 00:00:00 | |
| GOEST3-10 | 2026-09-03 05:20:20 | 52.44324 | 8.69214 | 129° | 26km/h | 29186m | 4.7m/s | -44.8°C | 2.7% | 14.0hPa | 2.6V | 00:00:00 | 00:00:00 | 00:00:00 | |
| DO1YAY-16 | 2026-09-03 05:20:19 | 52.44327 | 8.69208 | 134° | 20km/h | 29181m | 6.0m/s | -44.9°C | 0.6% | 14.1hPa | 2.6V | 00:00:00 | 00:00:00 | 00:00:00 | |
| DL1XH1-15 | 2026-09-03 05:20:18 | 52.44369 | 8.69180 | 180° | 29km/h | 29142m | 6m/s | -44.6°C | 2.7% | 14.2hPa | 2.6V | 08:30:00 | 01:48:43 | 00:00:00 | |
| DD8BA-10 | 2026-09-03 05:20:18 | 52.44332 | 8.69201 | 143° | 31km/h | 29175m | 7.0m/s | -44.8°C | 2.7% | 14.0hPa | 2.6V | 00:00:00 | 00:00:00 | 00:00:00 | |
| DL3AQ-11 | 2026-09-03 05:20:17 | 52.44345 | 8.69189 | 155° | 33km/h | 29162m | 5.9m/s | -44.8°C | 0.7% | 14.1hPa | 2.5V | 00:00:00 | 00:00:00 | 00:00:00 | |
| DL1XH-15 | 2026-09-03 05:20:16 | 52.44384 | 8.69181 | 181° | 31km/h | 29131m | 5.5m/s | -44.7°C | 2.7% | 14.2hPa | 2.5V | 08:30:00 | 01:48:41 | 00:00:00 | |
| HSKMA3-T | 2026-09-03 05:20:16 | 52.44345 | 8.69189 | 156° | 35km/h | 29161m | 5.9m/s | -44.8°C | 0% | 14.1hPa | 2.6V | 18:12:15 | 01:48:46 | 00:00:00 | |
| DL4BBY-15 | 2026-09-03 05:20:16 | 52.44345 | 8.69189 | 156° | 33km/h | 29163m | 5.9m/s | -43.5°C | 0% | 0hPa | 2.6V | 00:00:00 | 00:00:00 | 00:00:00 | |
| DO2SHX-10 | 2026-09-03 05:20:15 | 52.44353 | 8.69184 | 163° | 31km/h | 29156m | 6.3m/s | -44.6°C | 2.7% | 14.0hPa | 2.6V | 00:00:00 | 01:48:45 | 00:00:00 | |
| DM0DOS-11 | 2026-09-03 05:20:14 | 52.44401 | 8.69178 | 164° | 35km/h | 29118m | 6.3m/s | -44.7°C | 2.7% | 14.2hPa | 2.6V | 08:30:00 | 01:48:39 | 00:00:00 | |
| DF8AY | 2026-09-03 05:20:13 | 52.44369 | 8.69180 | 180° | 29km/h | 29142m | 6m/s | -44.7°C | 0% | 14.2hPa | 2.6V | 18:12:15 | 01:48:43 | 00:00:00 | |
| DL1XH-west | 2026-09-03 05:20:12 | 52.44376 | 8.69180 | 184° | 31km/h | 29136m | 5m/s | -44.7°C | 0% | 14.2hPa | 2.6V | 18:12:15 | 01:48:42 | 00:00:00 | |
| DO2JMG | 2026-09-03 05:20:10 | 52.44392 | 8.69181 | 175° | 35km/h | 29125m | 7.1m/s | -44.7°C | 0% | 14.2hPa | 2.5V | 18:12:15 | 01:48:40 | 00:00:00 | |
| AA1-15 | 2026-09-03 05:20:09 | 52.44401 | 8.69178 | 165° | 35km/h | 29118m | 6.3m/s | -44.7°C | 0% | 14.2hPa | 2.6V | 18:12:15 | 01:48:39 | 00:00:00 | |
| DO2SHX-10 | 2026-09-03 05:20:09 | 52.44401 | 8.69178 | 165° | 35km/h | 29118m | 6.2m/s | -44.7°C | 2.7% | 14.1hPa | 2.6V | 00:00:00 | 01:48:39 | 00:00:00 | |
| DL1XH1-15 | 2026-09-03 05:20:08 | 52.44435 | 8.69136 | 144° | 29km/h | 29082m | 6.7m/s | -44.6°C | 2.7% | 14.3hPa | 2.6V | 08:30:00 | 01:48:33 | 00:00:00 | |
| DD8BA-10 | 2026-09-03 05:20:08 | 52.44409 | 8.69173 | 154° | 33km/h | 29113m | 5.3m/s | -44.7°C | 2.7% | 14.2hPa | 2.6V | 00:00:00 | 00:00:00 | 00:00:00 | |
| DB0NH | 2026-09-03 05:20:07 | 52.44416 | 8.69166 | 144° | 31km/h | 29106m | 7.4m/s | -44.6°C | 2.7% | 14.2hPa | 2.6V | 00:00:00 | 01:48:37 | 00:00:00 | |
| DL1XH-15 | 2026-09-03 05:20:06 | 52.44450 | 8.69126 | 170° | 38km/h | 29069m | 6.2m/s | -44.7°C | 2.7% | 14.3hPa | 2.6V | 08:30:00 | 01:48:31 | 00:00:00 | |
| HSKMA3-T | 2026-09-03 05:20:05 | 52.44425 | 8.69151 | 129° | 26km/h | 29093m | 5m/s | -44.6°C | 0% | 14.2hPa | 2.5V | 18:12:15 | 01:48:35 | 00:00:00 | |
| DO2SHX-10 | 2026-09-03 05:20:05 | 52.44425 | 8.69151 | 130° | 27km/h | 29093m | 5.0m/s | -44.6°C | 2.7% | 14.2hPa | 2.5V | 00:00:00 | 01:48:35 | 00:00:00 | |
| DM0DOS-11 | 2026-09-03 05:20:04 | 52.44471 | 8.69125 | 186° | 42km/h | 29056m | 6.8m/s | -44.7°C | 2.8% | 14.3hPa | 2.5V | 08:30:00 | 01:48:29 | 00:00:00 | |
| BIOWL1-15 | 2026-09-03 05:20:04 | 52.44442 | 8.69130 | 158° | 35km/h | 29075m | 6.8m/s | -44.6°C | 0% | 14.2hPa | 2.6V | 18:12:15 | 01:48:32 | 00:00:00 | |
| DF8AY | 2026-09-03 05:20:03 | 52.44435 | 8.69136 | 144° | 29km/h | 29082m | 6.7m/s | -44.6°C | 0% | 14.3hPa | 2.6V | 18:12:15 | 01:48:33 | 00:00:00 | |
| DL1XH-west | 2026-09-03 05:20:01 | 52.44451 | 8.69126 | 170° | 38km/h | 29069m | 6.2m/s | -44.7°C | 0% | 14.3hPa | 2.6V | 18:12:15 | 01:48:31 | 00:00:00 | |
| AA1-15 | 2026-09-03 05:19:59 | 52.44471 | 8.69125 | 186° | 42km/h | 29056m | 6.8m/s | -44.7°C | 0% | 14.3hPa | 2.5V | 18:12:15 | 01:48:29 | 00:00:00 | |
| DD1CC8 | 2026-09-03 05:19:58 | 52.44490 | 8.69130 | 191° | 33km/h | 29044m | 5.2m/s | -44.6°C | 0.7% | 14.3hPa | 2.6V | 00:00:00 | 00:00:00 | 00:00:00 | |
| DK5PH-5 | 2026-09-03 05:19:57 | 52.44490 | 8.69130 | 192° | 29km/h | 29044m | 5.2m/s | -44.6°C | 2.7% | 14.3hPa | 2.6V | 00:00:00 | 01:48:27 | 00:00:00 | |
| DL1XH-15 | 2026-09-03 05:19:56 | 52.44539 | 8.69116 | 157° | 31km/h | 29008m | 7.1m/s | -44.5°C | 2.7% | 14.4hPa | 2.6V | 08:30:00 | 01:48:21 | 00:00:00 | |
| HSKMA3-T | 2026-09-03 05:19:54 | 52.44515 | 8.69130 | 167° | 35km/h | 29027m | 7.2m/s | -44.5°C | 0% | 14.3hPa | 2.5V | 18:12:15 | 01:48:24 | 00:00:00 | |
| BIOWL1-15 | 2026-09-03 05:19:52 | 52.44532 | 8.69121 | 157° | 35km/h | 29015m | 5.6m/s | -44.5°C | 0% | 14.4hPa | 2.6V | 18:12:15 | 01:48:22 | 00:00:00 | |
| DL1XH-west | 2026-09-03 05:19:50 | 52.44546 | 8.69111 | 161° | 27km/h | 29001m | 6.2m/s | -44.5°C | 0% | 14.4hPa | 2.5V | 18:12:15 | 01:48:20 | 00:00:00 | |
| DO2JMG | 2026-09-03 05:19:48 | 52.44560 | 8.69107 | 176° | 29km/h | 28991m | 5.6m/s | -44.7°C | 0% | 14.5hPa | 2.6V | 18:12:15 | 01:48:18 | 00:00:00 | |
| DD8BA-10 | 2026-09-03 05:19:48 | 52.44560 | 8.69107 | 176° | 27km/h | 28991m | 5.5m/s | -44.6°C | 2.7% | 14.5hPa | 2.6V | 00:00:00 | 00:00:00 | 00:00:00 | |
| DO2SHX-10 | 2026-09-03 05:19:47 | 52.44567 | 8.69106 | 178° | 35km/h | 28985m | 7.2m/s | -44.7°C | 2.6% | 14.4hPa | 2.6V | 00:00:00 | 01:48:17 | 00:00:00 | |
| DL1XH-15 | 2026-09-03 05:19:46 | 52.44613 | 8.69101 | 160° | 18km/h | 28947m | 5.6m/s | -44.9°C | 2.7% | 14.5hPa | 2.6V | 08:30:00 | 01:48:11 | 00:00:00 | |
| HSKMA3-T | 2026-09-03 05:19:44 | 52.44594 | 8.69104 | 177° | 33km/h | 28966m | 5.3m/s | -44.9°C | 0% | 14.5hPa | 2.5V | 18:12:15 | 01:48:14 | 00:00:00 | |
| BIOWL1-15 | 2026-09-03 05:19:43 | 52.44613 | 8.69101 | 161° | 18km/h | 28947m | 5.6m/s | -44.9°C | 0% | 14.5hPa | 2.6V | 18:12:15 | 01:48:11 | 00:00:00 | |
| DF8AY | 2026-09-03 05:19:42 | 52.44608 | 8.69103 | 173° | 22km/h | 28953m | 6.3m/s | -44.9°C | 0% | 14.5hPa | 2.6V | 18:12:15 | 01:48:12 | 00:00:00 | |
| WEDDY | 2026-09-03 05:19:41 | 52.44608 | 8.69103 | 174° | 22km/h | 28954m | 6.3m/s | -44.9°C | 0.6% | 14.5hPa | 2.6V | 00:00:00 | 00:00:00 | 00:00:00 | |
| DB0DAN | 2026-09-03 05:19:40 | 52.44617 | 8.69098 | 148° | 18km/h | 28942m | 5.6m/s | -44.9°C | 0.7% | 14.59hPa | 2.6V | 00:00:00 | 00:00:00 | 00:00:00 | |
| DL1XH-west | 2026-09-03 05:19:39 | 52.44621 | 8.69093 | 144° | 22km/h | 28936m | 6.4m/s | -45°C | 0% | 14.6hPa | 2.6V | 18:12:15 | 01:48:09 | 00:00:00 | |
| DO3DL | 2026-09-03 05:19:39 | 52.44621 | 8.69093 | 145° | 22km/h | 28936m | 6.4m/s | -45.0°C | 0.7% | 14.6hPa | 2.5V | 00:00:00 | 00:00:00 | 00:00:00 | |
| DL1XH1-15 | 2026-09-03 05:19:38 | 52.44654 | 8.69063 | 154° | 16km/h | 28900m | 5.9m/s | -44.9°C | 2.7% | 14.6hPa | 2.5V | 08:30:00 | 01:48:03 | 00:00:00 | |
| AA1-15 | 2026-09-03 05:19:37 | 52.44632 | 8.69081 | 149° | 27km/h | 28924m | 5.3m/s | -44.9°C | 0% | 14.6hPa | 2.6V | 18:12:15 | 01:48:07 | 00:00:00 | |
| DB0NH | 2026-09-03 05:19:37 | 52.44632 | 8.69081 | 149° | 29km/h | 28924m | 5.3m/s | -44.9°C | 2.8% | 14.5hPa | 2.6V | 00:00:00 | 01:48:07 | 00:00:00 | |
| DL1XH-15 | 2026-09-03 05:19:36 | 52.44662 | 8.69057 | 153° | 22km/h | 28889m | 5.3m/s | -44.9°C | 2.7% | 14.7hPa | 2.6V | 08:30:00 | 01:48:01 | 00:00:00 | |
| HSKMA3-T | 2026-09-03 05:19:33 | 52.44654 | 8.69063 | 155° | 16km/h | 28900m | 5.9m/s | -44.9°C | 0% | 14.6hPa | 2.5V | 18:12:15 | 01:48:03 | 00:00:00 | |
| DF8AY | 2026-09-03 05:19:31 | 52.44662 | 8.69057 | 154° | 22km/h | 28889m | 5.3m/s | -44.9°C | 0% | 14.7hPa | 2.6V | 18:12:15 | 01:48:01 | 00:00:00 | |
| DL1XH-west | 2026-09-03 05:19:29 | 52.44675 | 8.69047 | 156° | 35km/h | 28876m | 6.4m/s | -44.8°C | 0% | 14.7hPa | 2.6V | 18:12:15 | 01:47:59 | 00:00:00 | |
| DO2SHX-10 | 2026-09-03 05:19:29 | 52.44675 | 8.69047 | 157° | 37km/h | 28876m | 6.3m/s | -44.8°C | 2.6% | 14.7hPa | 2.6V | 00:00:00 | 01:47:59 | 00:00:00 | |
| DL1XH1-15 | 2026-09-03 05:19:28 | 52.44723 | 8.69028 | 174° | 29km/h | 28839m | 6.9m/s | -45°C | 2.7% | 14.8hPa | 2.6V | 08:30:00 | 01:47:53 | 00:00:00 | |
| DO2JMG | 2026-09-03 05:19:27 | 52.44692 | 8.69036 | 163° | 37km/h | 28864m | 6.5m/s | -44.9°C | 0% | 14.8hPa | 2.6V | 18:12:15 | 01:47:57 | 00:00:00 | |
| AA1-15 | 2026-09-03 05:19:26 | 52.44701 | 8.69032 | 167° | 33km/h | 28858m | 7.1m/s | -45°C | 0% | 14.8hPa | 2.6V | 18:12:15 | 01:47:56 | 00:00:00 | |
| DB0DAN | 2026-09-03 05:19:25 | 52.44709 | 8.69030 | 172° | 29km/h | 28851m | 5.8m/s | -45°C | 0.7% | 14.78hPa | 2.6V | 00:00:00 | 00:00:00 | 00:00:00 | |
| DM0DOS-11 | 2026-09-03 05:19:24 | 52.44753 | 8.69018 | 163° | 26km/h | 28814m | 6.5m/s | -45.1°C | 2.8% | 14.9hPa | 2.6V | 08:30:00 | 01:47:49 | 00:00:00 | |
| HSKMA3-T | 2026-09-03 05:19:23 | 52.44723 | 8.69028 | 175° | 29km/h | 28839m | 6.9m/s | -45°C | 0% | 14.8hPa | 2.6V | 18:12:15 | 01:47:53 | 00:00:00 | |
| BIOWL1-15 | 2026-09-03 05:19:20 | 52.44746 | 8.69021 | 165° | 29km/h | 28820m | 5.5m/s | -45.1°C | 0% | 14.9hPa | 2.5V | 18:12:15 | 01:47:50 | 00:00:00 | |
| DL1XH-west | 2026-09-03 05:19:19 | 52.44753 | 8.69018 | 163° | 26km/h | 28814m | 6.6m/s | -45.1°C | 0% | 14.9hPa | 2.6V | 18:12:15 | 01:47:49 | 00:00:00 | |
| AA1-15 | 2026-09-03 05:19:16 | 52.44768 | 8.69008 | 152° | 24km/h | 28796m | 4.8m/s | -45.2°C | 0% | 15hPa | 2.5V | 18:12:15 | 01:47:46 | 00:00:00 | |
| DL4BBY-15 | 2026-09-03 05:19:16 | 52.44768 | 8.69008 | 152° | 27km/h | 28797m | 4.8m/s | -43.9°C | 0% | 0hPa | 2.6V | 00:00:00 | 00:00:00 | 00:00:00 | |
| D01LWL | 2026-09-03 05:19:15 | 52.44781 | 8.68996 | 151° | 35km/h | 28783m | 6.5m/s | -45.2°C | 0.6% | 14.9hPa | 2.6V | 00:00:00 | 00:00:00 | 00:00:00 | |
| DM0DOS-11 | 2026-09-03 05:19:14 | 52.44821 | 8.68972 | 171° | 26km/h | 28753m | 5.7m/s | -45.4°C | 2.7% | 15hPa | 2.6V | 08:30:00 | 01:47:39 | 00:00:00 | |
| HSKMA3-T | 2026-09-03 05:19:13 | 52.44790 | 8.68989 | 154° | 38km/h | 28778m | 5.3m/s | -45.3°C | 0% | 14.9hPa | 2.6V | 18:12:15 | 01:47:43 | 00:00:00 | |
| BIOWL1-15 | 2026-09-03 05:19:11 | 52.44821 | 8.68972 | 171° | 26km/h | 28753m | 5.7m/s | -45.4°C | 0% | 15hPa | 2.6V | 18:12:15 | 01:47:39 | 00:00:00 | |
| DF8AY | 2026-09-03 05:19:10 | 52.44815 | 8.68974 | 168° | 29km/h | 28759m | 6.5m/s | -45.3°C | 0% | 15hPa | 2.6V | 18:12:15 | 01:47:40 | 00:00:00 | |
| DB0DAN | 2026-09-03 05:19:10 | 52.44815 | 8.68974 | 168° | 27km/h | 28759m | 6.5m/s | -45.3°C | 0.7% | 15.02hPa | 2.6V | 00:00:00 | 00:00:00 | 00:00:00 | |
| DL4XJ-10 | 2026-09-03 05:19:10 | 52.44814 | 8.68974 | 169° | 27km/h | 28759m | 6.4m/s | -44.0°C | 0% | 0hPa | 2.6V | 00:00:00 | 00:00:00 | 00:00:00 | |
| DL8OAI-8 | 2026-09-03 05:19:09 | 52.44815 | 8.68974 | 169° | 29km/h | 28760m | 6.5m/s | -45.3°C | 0.7% | 15.0hPa | 2.6V | 00:00:00 | 00:00:00 | 00:00:00 | |
| DO2SHX-10 | 2026-09-03 05:19:08 | 52.44827 | 8.68970 | 170° | 24km/h | 28747m | 6.7m/s | -45.3°C | 2.7% | 15.0hPa | 2.6V | 00:00:00 | 01:47:38 | 00:00:00 | |
| DL1XH-west | 2026-09-03 05:19:08 | 52.44828 | 8.68970 | 169° | 24km/h | 28747m | 6.8m/s | -45.4°C | 0% | 15.1hPa | 2.6V | 18:12:15 | 01:47:38 | 00:00:00 | |
| DD8BA-10 | 2026-09-03 05:19:07 | 52.44833 | 8.68968 | 163° | 29km/h | 28741m | 6.1m/s | -45.3°C | 2.7% | 15.0hPa | 2.6V | 00:00:00 | 00:00:00 | 00:00:00 | |
| DL1XH-15 | 2026-09-03 05:19:06 | 52.44863 | 8.68939 | 144° | 33km/h | 28706m | 7.2m/s | -45.6°C | 2.8% | 15.1hPa | 2.6V | 08:30:00 | 01:47:31 | 00:00:00 | |
| DO2JMG | 2026-09-03 05:19:05 | 52.44844 | 8.68960 | 151° | 20km/h | 28730m | 5.8m/s | -45.4°C | 0% | 15.1hPa | 2.5V | 18:12:15 | 01:47:35 | 00:00:00 | |
| DM0DOS-11 | 2026-09-03 05:19:04 | 52.44879 | 8.68921 | 145° | 44km/h | 28693m | 5.3m/s | -45.6°C | 2.7% | 15.1hPa | 2.5V | 08:30:00 | 01:47:29 | 00:00:00 | |
| HSKMA3-T | 2026-09-03 05:19:02 | 52.44857 | 8.68946 | 144° | 26km/h | 28712m | 4.8m/s | -45.6°C | 0% | 15.1hPa | 2.6V | 18:12:15 | 01:47:32 | 00:00:00 | |
| BIOWL1-15 | 2026-09-03 05:19:00 | 52.44888 | 8.68911 | 146° | 42km/h | 28688m | 5.3m/s | -45.7°C | 0% | 15.1hPa | 2.5V | 18:12:15 | 01:47:28 | 00:00:00 | |
| DF8AY | 2026-09-03 05:18:59 | 52.44879 | 8.68921 | 145° | 44km/h | 28693m | 5.3m/s | -45.6°C | 0% | 15.1hPa | 2.5V | 18:12:15 | 01:47:29 | 00:00:00 | |
| DL1XH-west | 2026-09-03 05:18:57 | 52.44896 | 8.68902 | 146° | 37km/h | 28682m | 6.7m/s | -45.7°C | 0% | 15.2hPa | 2.6V | 18:12:15 | 01:47:27 | 00:00:00 | |
| DL3AQ-11 | 2026-09-03 05:18:57 | 52.44903 | 8.68894 | 143° | 27km/h | 28676m | 6.2m/s | -45.7°C | 0.7% | 15.2hPa | 2.6V | 00:00:00 | 00:00:00 | 00:00:00 | |
| DL1XH-15 | 2026-09-03 05:18:56 | 52.44919 | 8.68860 | 103° | 18km/h | 28644m | 6.8m/s | -45.9°C | 2.8% | 15.2hPa | 2.6V | 08:30:00 | 01:47:21 | 00:00:00 | |
| AA1-15 | 2026-09-03 05:18:55 | 52.44908 | 8.68887 | 139° | 24km/h | 28669m | 6m/s | -45.7°C | 0% | 15.2hPa | 2.5V | 18:12:15 | 01:47:25 | 00:00:00 | |
| DB0DAN | 2026-09-03 05:18:55 | 52.44908 | 8.68887 | 139° | 22km/h | 28669m | 6m/s | -45.7°C | 0.7% | 15.18hPa | 2.5V | 00:00:00 | 00:00:00 | 00:00:00 | |
| DO2JMG | 2026-09-03 05:18:54 | 52.44912 | 8.68881 | 133° | 22km/h | 28663m | 7m/s | -45.9°C | 0% | 15.2hPa | 2.5V | 18:12:15 | 01:47:24 | 00:00:00 | |
| HSKMA3-T | 2026-09-03 05:18:51 | 52.44919 | 8.68860 | 104° | 18km/h | 28644m | 6.8m/s | -45.9°C | 0% | 15.2hPa | 2.6V | 18:12:15 | 01:47:21 | 00:00:00 | |
| SMARD9-15 | 2026-09-03 05:18:50 | 52.44920 | 8.68846 | 101° | 16km/h | 28632m | 4.7m/s | -46.1°C | 0.7% | 15.3hPa | 2.5V | 00:00:00 | 00:00:00 | 00:00:00 | |
| DO2SHX-10 | 2026-09-03 05:18:49 | 52.44920 | 8.68846 | 102° | 20km/h | 28632m | 4.6m/s | -46.0°C | 2.8% | 15.2hPa | 2.5V | 00:00:00 | 01:47:19 | 00:00:00 | |
| DL1XH1-15 | 2026-09-03 05:18:48 | 52.44950 | 8.68798 | 143° | 27km/h | 28596m | 6.4m/s | -46.3°C | 2.8% | 15.3hPa | 2.5V | 08:30:00 | 01:47:13 | 00:00:00 | |
| DF8AY | 2026-09-03 05:18:48 | 52.44922 | 8.68839 | 117° | 20km/h | 28627m | 4.8m/s | -46.1°C | 0% | 15.3hPa | 2.6V | 18:12:15 | 01:47:18 | 00:00:00 | |
| BIOWL1-15 | 2026-09-03 05:18:47 | 52.44925 | 8.68832 | 128° | 26km/h | 28621m | 7.2m/s | -46.2°C | 0% | 15.3hPa | 2.6V | 18:12:15 | 01:47:17 | 00:00:00 | |
| DO3MHA-11 | 2026-09-03 05:18:47 | 52.44925 | 8.68832 | 129° | 24km/h | 28621m | 7.1m/s | -46.1°C | 2.8% | 15.3hPa | 2.6V | 00:00:00 | 01:47:17 | 00:00:00 | |
| DL1XH-15 | 2026-09-03 05:18:46 | 52.44957 | 8.68786 | 117° | 16km/h | 28585m | 5.2m/s | -46.5°C | 2.9% | 15.4hPa | 2.6V | 08:30:00 | 01:47:11 | 00:00:00 | |
| DO2JMG | 2026-09-03 05:18:44 | 52.44943 | 8.68806 | 145° | 33km/h | 28602m | 5.8m/s | -46.3°C | 0% | 15.3hPa | 2.6V | 18:12:15 | 01:47:14 | 00:00:00 | |
| HSKMA3-T | 2026-09-03 05:18:41 | 52.44957 | 8.68786 | 118° | 16km/h | 28585m | 5.2m/s | -46.5°C | 0% | 15.4hPa | 2.6V | 18:12:15 | 01:47:11 | 00:00:00 | |
| DB0DAN | 2026-09-03 05:18:40 | 52.44958 | 8.68780 | 103° | 16km/h | 28580m | 6.2m/s | -46.6°C | 0.7% | 15.41hPa | 2.6V | 00:00:00 | 00:00:00 | 00:00:00 | |
| DF8AY | 2026-09-03 05:18:38 | 52.44960 | 8.68762 | 97° | 24km/h | 28566m | 6.1m/s | -46.7°C | 0% | 15.4hPa | 2.6V | 18:12:15 | 01:47:08 | 00:00:00 | |
| BIOWL1-15 | 2026-09-03 05:18:37 | 52.44961 | 8.68752 | 98° | 26km/h | 28561m | 4.8m/s | -46.7°C | 0% | 15.4hPa | 2.6V | 18:12:15 | 01:47:07 | 00:00:00 | |
| DD8BA-10 | 2026-09-03 05:18:37 | 52.44960 | 8.68752 | 99° | 24km/h | 28561m | 4.8m/s | -46.7°C | 2.9% | 15.4hPa | 2.6V | 00:00:00 | 00:00:00 | 00:00:00 | |
| DL1XH-15 | 2026-09-03 05:18:36 | 52.44970 | 8.68709 | 127° | 24km/h | 28524m | 7m/s | -47°C | 2.9% | 15.5hPa | 2.6V | 08:30:00 | 01:47:01 | 00:00:00 | |
| DO2SHX-10 | 2026-09-03 05:18:36 | 52.44961 | 8.68742 | 99° | 18km/h | 28556m | 5.4m/s | -46.7°C | 2.9% | 15.4hPa | 2.6V | 00:00:00 | 01:47:06 | 00:00:00 | |
| DO9LL-15 | 2026-09-03 05:18:35 | 52.44962 | 8.68734 | 99° | 26km/h | 28550m | 7.1m/s | -46.6°C | 2.8% | 15.4hPa | 2.6V | 00:00:00 | 01:47:05 | 00:00:00 | |
| DM0DOS-11 | 2026-09-03 05:18:34 | 52.44978 | 8.68689 | 119° | 33km/h | 28513m | 4.7m/s | -47.1°C | 2.9% | 15.6hPa | 2.6V | 08:30:00 | 01:46:59 | 00:00:00 | |
| AA1-15 | 2026-09-03 05:18:34 | 52.44963 | 8.68727 | 103° | 15km/h | 28543m | 6.4m/s | -46.8°C | 0% | 15.5hPa | 2.5V | 18:12:15 | 01:47:04 | 00:00:00 | |
| DO2JMG | 2026-09-03 05:18:33 | 52.44964 | 8.68721 | 119° | 15km/h | 28537m | 5.4m/s | -46.8°C | 0% | 15.5hPa | 2.6V | 18:12:15 | 01:47:03 | 00:00:00 | |
| HSKMA3-T | 2026-09-03 05:18:30 | 52.44974 | 8.68700 | 125° | 31km/h | 28518m | 5.6m/s | -47°C | 0% | 15.5hPa | 2.6V | 18:12:15 | 01:47:00 | 00:00:00 | |
| DF8AY | 2026-09-03 05:18:28 | 52.44982 | 8.68677 | 114° | 31km/h | 28508m | 5.9m/s | -47.2°C | 0% | 15.6hPa | 2.5V | 18:12:15 | 01:46:58 | 00:00:00 | |
| DL1XH-west | 2026-09-03 05:18:26 | 52.44985 | 8.68654 | 93° | 24km/h | 28495m | 5.9m/s | -47.3°C | 0% | 15.6hPa | 2.6V | 18:12:15 | 01:46:56 | 00:00:00 | |
| DB0DAN | 2026-09-03 05:18:25 | 52.44985 | 8.68645 | 89° | 22km/h | 28490m | 5.5m/s | -47.3°C | 0.7% | 15.62hPa | 2.6V | 00:00:00 | 00:00:00 | 00:00:00 | |
| DD1CC8 | 2026-09-03 05:18:25 | 52.44986 | 8.68636 | 92° | 20km/h | 28484m | 5.6m/s | -47.4°C | 0.7% | 15.7hPa | 2.6V | 00:00:00 | 00:00:00 | 00:00:00 | |
| DM0DOS-11 | 2026-09-03 05:18:24 | 52.44992 | 8.68588 | 96° | 27km/h | 28453m | 6.1m/s | -47.6°C | 3.1% | 15.7hPa | 2.6V | 08:30:00 | 01:46:49 | 00:00:00 | |
| AA1-15 | 2026-09-03 05:18:23 | 52.44986 | 8.68627 | 102° | 22km/h | 28478m | 6.7m/s | -47.4°C | 0% | 15.7hPa | 2.6V | 18:12:15 | 01:46:53 | 00:00:00 | |
| DO2JMG | 2026-09-03 05:18:22 | 52.44988 | 8.68618 | 108° | 24km/h | 28472m | 5.5m/s | -47.4°C | 0.1% | 15.7hPa | 2.5V | 18:12:15 | 01:46:52 | 00:00:00 | |
| HSKMA3-T | 2026-09-03 05:18:20 | 52.44991 | 8.68598 | 103° | 26km/h | 28460m | 7m/s | -47.6°C | 0.1% | 15.7hPa | 2.6V | 18:12:15 | 01:46:50 | 00:00:00 | |
| DF8AY | 2026-09-03 05:18:17 | 52.44993 | 8.68561 | 95° | 37km/h | 28442m | 5.3m/s | -47.6°C | 0.1% | 15.7hPa | 2.5V | 18:12:15 | 01:46:47 | 00:00:00 | |
| DL1XH-west | 2026-09-03 05:18:16 | 52.44994 | 8.68546 | 99° | 40km/h | 28437m | 6.9m/s | -47.6°C | 0.1% | 15.7hPa | 2.6V | 18:12:15 | 01:46:46 | 00:00:00 | |
| DL4BBY-15 | 2026-09-03 05:18:16 | 52.44994 | 8.68545 | 99° | 27km/h | 28437m | 6.8m/s | -46.4°C | 0% | 0hPa | 2.6V | 00:00:00 | 00:00:00 | 00:00:00 | |
| EDDB2-11 | 2026-09-03 05:18:15 | 52.44999 | 8.68511 | 102° | 42km/h | 28425m | 4.3m/s | -47.6°C | 0.8% | 15.8hPa | 2.6V | 00:00:00 | 00:00:00 | 00:00:00 | |
| DM0DOS-11 | 2026-09-03 05:18:14 | 52.44996 | 8.68453 | 51° | 15km/h | 28398m | 5.1m/s | -47.6°C | 3% | 15.8hPa | 2.6V | 08:30:00 | 01:46:39 | 00:00:00 | |
| DO2JMG | 2026-09-03 05:18:12 | 52.45001 | 8.68480 | 90° | 33km/h | 28416m | 6.7m/s | -47.6°C | 0% | 15.8hPa | 2.6V | 18:12:15 | 01:46:42 | 00:00:00 | |
| HSKMA3-T | 2026-09-03 05:18:09 | 52.44996 | 8.68453 | 52° | 15km/h | 28398m | 5.1m/s | -47.7°C | 0% | 15.8hPa | 2.6V | 18:12:15 | 01:46:39 | 00:00:00 | |
| DF8AY | 2026-09-03 05:18:07 | 52.44994 | 8.68446 | 104° | 7km/h | 28385m | 6.4m/s | -47.6°C | 0% | 15.9hPa | 2.6V | 18:12:15 | 01:46:37 | 00:00:00 | |
| DL1XH-west | 2026-09-03 05:18:05 | 52.44997 | 8.68439 | 123° | 15km/h | 28375m | 4.1m/s | -47.7°C | 0.1% | 15.9hPa | 2.5V | 18:12:15 | 01:46:35 | 00:00:00 | |
| DO2JMG | 2026-09-03 05:18:01 | 52.44996 | 8.68403 | 72° | 35km/h | 28352m | 6.1m/s | -47.6°C | 0.1% | 16hPa | 2.6V | 18:12:15 | 01:46:31 | 00:00:00 | |
| HSKMA3-T | 2026-09-03 05:17:59 | 52.44991 | 8.68374 | 77° | 38km/h | 28339m | 6.7m/s | -47.6°C | 0.1% | 16hPa | 2.6V | 18:12:15 | 01:46:29 | 00:00:00 | |
| DL1XH1-15 | 2026-09-03 05:17:58 | 52.44976 | 8.68299 | 53° | 27km/h | 28305m | 4.9m/s | -47.4°C | 3.1% | 16.1hPa | 2.6V | 08:30:00 | 01:46:23 | 00:00:00 | |
| DF8AY | 2026-09-03 05:17:57 | 52.44987 | 8.68344 | 81° | 35km/h | 28328m | 5m/s | -47.5°C | 0.1% | 16hPa | 2.6V | 18:12:15 | 01:46:27 | 00:00:00 | |
| BIOWL1-15 | 2026-09-03 05:17:55 | 52.44983 | 8.68319 | 67° | 29km/h | 28317m | 6.5m/s | -47.4°C | 0.1% | 16.1hPa | 2.6V | 18:12:15 | 01:46:25 | 00:00:00 | |
| DB0DAN | 2026-09-03 05:17:55 | 52.44983 | 8.68319 | 67° | 27km/h | 28317m | 6.5m/s | -47.4°C | 0.8% | 16.08hPa | 2.6V | 00:00:00 | 00:00:00 | 00:00:00 | |
| DL1XH-west | 2026-09-03 05:17:54 | 52.44980 | 8.68308 | 57° | 29km/h | 28311m | 6m/s | -47.4°C | 0.1% | 16.1hPa | 2.5V | 18:12:15 | 01:46:24 | 00:00:00 | |
| DO2JMG | 2026-09-03 05:17:51 | 52.44969 | 8.68280 | 67° | 24km/h | 28294m | 6.9m/s | -47.3°C | 0.1% | 16.1hPa | 2.6V | 18:12:15 | 01:46:21 | 00:00:00 | |
| AA1-15 | 2026-09-03 05:17:50 | 52.44967 | 8.68271 | 80° | 22km/h | 28288m | 6.6m/s | -47.2°C | 0.1% | 16.1hPa | 2.6V | 18:12:15 | 01:46:20 | 00:00:00 | |
| HSKMA3-T | 2026-09-03 05:17:48 | 52.44967 | 8.68252 | 87° | 26km/h | 28275m | 6.9m/s | -47.2°C | 0.1% | 16.1hPa | 2.5V | 18:12:15 | 01:46:18 | 00:00:00 | |
| DF8AY | 2026-09-03 05:17:47 | 52.44966 | 8.68241 | 83° | 27km/h | 28268m | 6.5m/s | -47.1°C | 0% | 16.1hPa | 2.6V | 18:12:15 | 01:46:17 | 00:00:00 | |
| BIOWL1-15 | 2026-09-03 05:17:47 | 52.44963 | 8.68217 | 79° | 29km/h | 28257m | 4.8m/s | -47°C | 0.1% | 16.1hPa | 2.6V | 18:12:15 | 01:46:15 | 00:00:00 | |
| DD8BA-10 | 2026-09-03 05:17:47 | 52.44966 | 8.68241 | 83° | 26km/h | 28268m | 6.5m/s | -47.1°C | 3.0% | 16.1hPa | 2.6V | 00:00:00 | 00:00:00 | 08:30:00 | |
| DL1XH-15 | 2026-09-03 05:17:46 | 52.44961 | 8.68177 | 77° | 22km/h | 28235m | 5.5m/s | -46.8°C | 3% | 16.2hPa | 2.6V | 08:30:00 | 01:46:11 | 00:00:00 | |
| DF7PN | 2026-09-03 05:17:45 | 52.44963 | 8.68217 | 79° | 27km/h | 28257m | 4.8m/s | -47.0°C | 0.8% | 16.1hPa | 2.5V | 00:00:00 | 00:00:00 | 00:00:00 | |
| DJ2DS-15 | 2026-09-03 05:17:44 | 52.44962 | 8.68206 | 82° | 26km/h | 28252m | 6.5m/s | -47.0°C | 0.7% | 16.2hPa | 2.5V | 00:00:00 | 00:00:00 | 00:00:00 | |
| DL1XH-west | 2026-09-03 05:17:43 | 52.44962 | 8.68195 | 87° | 24km/h | 28246m | 6m/s | -46.9°C | 0% | 16.2hPa | 2.5V | 18:12:15 | 01:46:13 | 00:00:00 | |
| DO2JMG | 2026-09-03 05:17:41 | 52.44961 | 8.68177 | 78° | 22km/h | 28235m | 5.5m/s | -46.8°C | 0% | 16.2hPa | 2.6V | 18:12:15 | 01:46:11 | 00:00:00 | |
| DB0DAN | 2026-09-03 05:17:40 | 52.44959 | 8.68168 | 68° | 24km/h | 28228m | 7.3m/s | -46.7°C | 0.7% | 16.25hPa | 2.6V | 00:00:00 | 00:00:00 | 00:00:00 | |
| AA1-15 | 2026-09-03 05:17:39 | 52.44956 | 8.68158 | 56° | 27km/h | 28221m | 6.3m/s | -46.7°C | 0% | 16.3hPa | 2.5V | 18:12:15 | 01:46:09 | 00:00:00 | |
| HSKMA3-T | 2026-09-03 05:17:38 | 52.44952 | 8.68149 | 49° | 27km/h | 28216m | 5.5m/s | -46.6°C | 0% | 16.3hPa | 2.6V | 18:12:15 | 01:46:08 | 00:00:00 | |
| DF8AY | 2026-09-03 05:17:37 | 52.44943 | 8.68135 | 46° | 20km/h | 28203m | 6.3m/s | -46.7°C | 0% | 16.3hPa | 2.6V | 18:12:15 | 01:46:06 | 00:00:00 | |
| BIOWL1-15 | 2026-09-03 05:17:37 | 52.44940 | 8.68130 | 56° | 15km/h | 28198m | 5m/s | -46.7°C | 0% | 16.3hPa | 2.6V | 18:12:15 | 01:46:05 | 00:00:00 | |
| DL3AQ-11 | 2026-09-03 05:17:37 | 52.44943 | 8.68135 | 45° | 18km/h | 28203m | 6.3m/s | -46.7°C | 0.7% | 16.3hPa | 2.6V | 00:00:00 | 00:00:00 | 00:00:00 | |
| DL1XH-15 | 2026-09-03 05:17:36 | 52.44935 | 8.68097 | 79° | 29km/h | 28175m | 5m/s | -46.8°C | 2.9% | 16.4hPa | 2.6V | 08:30:00 | 01:46:01 | 00:00:00 | |
| DL1XH-west | 2026-09-03 05:17:33 | 52.44938 | 8.68117 | 78° | 20km/h | 28187m | 6m/s | -46.7°C | 0% | 16.4hPa | 2.5V | 18:12:15 | 01:46:03 | 00:00:00 | |
| DO2JMG | 2026-09-03 05:17:30 | 52.44934 | 8.68085 | 79° | 27km/h | 28170m | 4.8m/s | -46.9°C | 0% | 16.4hPa | 2.6V | 18:12:15 | 01:46:00 | 00:00:00 | |
| AA1-15 | 2026-09-03 05:17:29 | 52.44933 | 8.68075 | 78° | 24km/h | 28164m | 6.2m/s | -46.9°C | 0% | 16.4hPa | 2.6V | 18:12:15 | 01:45:59 | 00:00:00 | |
| HSKMA3-T | 2026-09-03 05:17:27 | 52.44930 | 8.68060 | 71° | 13km/h | 28151m | 6.4m/s | -47°C | 0% | 16.4hPa | 2.6V | 18:12:15 | 01:45:57 | 00:00:00 | |
| DF8AY | 2026-09-03 05:17:26 | 52.44929 | 8.68056 | 66° | 11km/h | 28145m | 5.7m/s | -47°C | 0% | 16.4hPa | 2.6V | 18:12:15 | 01:45:56 | 00:00:00 | |
| BIOWL1-15 | 2026-09-03 05:17:26 | 52.44926 | 8.68046 | 62° | 13km/h | 28132m | 5.6m/s | -47.1°C | 0% | 16.5hPa | 2.5V | 18:12:15 | 01:45:54 | 00:00:00 | |
| DL1XH-west | 2026-09-03 05:17:23 | 52.44925 | 8.68041 | 57° | 15km/h | 28127m | 4.5m/s | -47.1°C | 0.1% | 16.5hPa | 2.5V | 18:12:15 | 01:45:53 | 00:00:00 | |
| DO2JMG | 2026-09-03 05:17:20 | 52.44918 | 8.68032 | 28° | 11km/h | 28109m | 5.6m/s | -47.3°C | 0% | 16.5hPa | 2.6V | 18:12:15 | 01:45:50 | 00:00:00 | |
| AA1-15 | 2026-09-03 05:17:19 | 52.44916 | 8.68029 | 39° | 13km/h | 28103m | 5.3m/s | -47.3°C | 0% | 16.6hPa | 2.6V | 18:12:15 | 01:45:49 | 00:00:00 | |
| DF8AY | 2026-09-03 05:17:17 | 52.44909 | 8.68014 | 58° | 16km/h | 28085m | 4.5m/s | -47.4°C | 0% | 16.6hPa | 2.6V | 18:12:15 | 01:45:46 | 00:00:00 | |
| HSKMA3-T | 2026-09-03 05:17:17 | 52.44911 | 8.68020 | 59° | 18km/h | 28091m | 5.6m/s | -47.4°C | 0% | 16.6hPa | 2.6V | 18:12:15 | 01:45:47 | 00:00:00 | |
| DD8BA-10 | 2026-09-03 05:17:17 | 52.44911 | 8.68020 | 59° | 7km/h | 28091m | 5.6m/s | -47.4°C | 3.0% | 16.5hPa | 2.6V | 00:00:00 | 00:00:00 | 00:00:00 | |
| DL4BBY-15 | 2026-09-03 05:17:16 | 52.44909 | 8.68014 | 58° | 7km/h | 28086m | 4.5m/s | -46.1°C | 0% | 0hPa | 2.6V | 00:00:00 | 00:00:00 | 00:00:00 | |
| DB0ND-19 | 2026-09-03 05:17:15 | 52.44907 | 8.68009 | 49° | 13km/h | 28081m | 5.8m/s | -47.4°C | 0.8% | 16.7hPa | 2.6V | 00:00:00 | 00:00:00 | 00:00:00 | |
| DM0DOS-11 | 2026-09-03 05:17:14 | 52.44900 | 8.68007 | 134° | 2km/h | 28043m | 5.1m/s | -47.4°C | 3.2% | 16.7hPa | 2.6V | 08:30:00 | 01:45:39 | 00:00:00 | |
| BIOWL1-15 | 2026-09-03 05:17:13 | 52.44903 | 8.68005 | 350° | 7km/h | 28068m | 5.9m/s | -47.4°C | 0% | 16.6hPa | 2.6V | 18:12:15 | 01:45:43 | 00:00:00 | |
| DL1XH-west | 2026-09-03 05:17:12 | 52.44901 | 8.68006 | 323° | 7km/h | 28061m | 5.8m/s | -47.4°C | 0.1% | 16.7hPa | 2.5V | 18:12:15 | 01:45:42 | 00:00:00 | |
| DO2JMG | 2026-09-03 05:17:10 | 52.44900 | 8.68008 | 38° | 0km/h | 28048m | 6.2m/s | -47.5°C | 0.1% | 16.7hPa | 2.6V | 18:12:15 | 01:45:40 | 00:00:00 | |
| DB0DAN | 2026-09-03 05:17:10 | 52.44900 | 8.68008 | 38° | 0km/h | 28048m | 6.2m/s | -47.5°C | 0.8% | 16.71hPa | 2.6V | 00:00:00 | 00:00:00 | 00:00:00 | |
| AA1-15 | 2026-09-03 05:17:08 | 52.44901 | 8.68007 | 157° | 2km/h | 28037m | 5.3m/s | -47.4°C | 0.1% | 16.7hPa | 2.6V | 18:12:15 | 01:45:38 | 00:00:00 | |
| HSKMA3-T | 2026-09-03 05:17:07 | 52.44901 | 8.68007 | 207° | 2km/h | 28031m | 6.8m/s | -47.4°C | 0.1% | 16.8hPa | 2.6V | 18:12:15 | 01:45:37 | 00:00:00 | |
| DF8AY | 2026-09-03 05:17:05 | 52.44902 | 8.68007 | 135° | 4km/h | 28020m | 4.7m/s | -47.4°C | 0% | 16.8hPa | 2.5V | 18:12:15 | 01:45:35 | 00:00:00 | |
| DM0DOS-11 | 2026-09-03 05:17:05 | 52.44907 | 8.67979 | 93° | 7km/h | 27983m | 6.1m/s | -47.5°C | 3% | 16.9hPa | 2.5V | 08:30:00 | 01:45:29 | 00:00:00 | |
| BIOWL1-15 | 2026-09-03 05:17:03 | 52.44904 | 8.68001 | 114° | 13km/h | 28008m | 7.2m/s | -47.5°C | 0% | 16.8hPa | 2.6V | 18:12:15 | 01:45:33 | 00:00:00 | |
| DL1XH-west | 2026-09-03 05:17:01 | 52.44906 | 8.67989 | 106° | 16km/h | 27996m | 5.2m/s | -47.5°C | 0% | 16.8hPa | 2.6V | 18:12:15 | 01:45:31 | 00:00:00 | |
| DO2JMG | 2026-09-03 05:16:59 | 52.44907 | 8.67979 | 94° | 7km/h | 27983m | 6.1m/s | -47.5°C | 0% | 16.9hPa | 2.5V | 18:12:15 | 01:45:29 | 00:00:00 | |
| AA1-15 | 2026-09-03 05:16:57 | 52.44908 | 8.67976 | 118° | 2km/h | 27972m | 5.5m/s | -47.5°C | 0% | 16.9hPa | 2.6V | 18:12:15 | 01:45:27 | 00:00:00 | |
| HSKMA3-T | 2026-09-03 05:16:56 | 52.44908 | 8.67975 | 127° | 5km/h | 27966m | 6.4m/s | -47.5°C | 0% | 16.9hPa | 2.6V | 18:12:15 | 01:45:26 | 00:00:00 | |
| DL1XH-15 | 2026-09-03 05:16:56 | 52.44914 | 8.67961 | 151° | 4km/h | 27936m | 6.7m/s | -47.4°C | 3.1% | 17hPa | 2.6V | 08:30:00 | 01:45:21 | 00:00:00 | |
| DF8AY | 2026-09-03 05:16:55 | 52.44909 | 8.67973 | 125° | 9km/h | 27960m | 6.4m/s | -47.5°C | 0.1% | 17hPa | 2.6V | 18:12:15 | 01:45:25 | 00:00:00 | |
| DB0DAN | 2026-09-03 05:16:55 | 52.44909 | 8.67973 | 125° | 7km/h | 27960m | 6.4m/s | -47.5°C | 0.8% | 16.99hPa | 2.6V | 00:00:00 | 00:00:00 | 00:00:00 | |
| DM0DOS-11 | 2026-09-03 05:16:54 | 52.44916 | 8.67961 | 182° | 4km/h | 27925m | 4.7m/s | -47.4°C | 3.1% | 17hPa | 2.5V | 08:30:00 | 01:45:19 | 00:00:00 | |
| BIOWL1-15 | 2026-09-03 05:16:52 | 52.44913 | 8.67963 | 128° | 7km/h | 27943m | 6.6m/s | -47.4°C | 0.1% | 17hPa | 2.6V | 18:12:15 | 01:45:22 | 00:00:00 | |
| DL1XH-west | 2026-09-03 05:16:50 | 52.44915 | 8.67961 | 198° | 2km/h | 27930m | 5.1m/s | -47.4°C | 0.1% | 17.1hPa | 2.5V | 18:12:15 | 01:45:20 | 00:00:00 | |
| DO2JMG | 2026-09-03 05:16:48 | 52.44917 | 8.67961 | 156° | 5km/h | 27919m | 7m/s | -47.4°C | 0.1% | 17hPa | 2.6V | 18:12:15 | 01:45:18 | 00:00:00 | |
| AA1-15 | 2026-09-03 05:16:47 | 52.44918 | 8.67959 | 139° | 9km/h | 27913m | 6.3m/s | -47.3°C | 0% | 17.1hPa | 2.6V | 18:12:15 | 01:45:17 | 00:00:00 | |
| DO2SHX-10 | 2026-09-03 05:16:47 | 52.44918 | 8.67959 | 140° | 9km/h | 27913m | 6.3m/s | -47.3°C | 3.1% | 17.0hPa | 2.6V | 00:00:00 | 01:45:17 | 00:00:00 | |
| DL1XH-15 | 2026-09-03 05:16:46 | 52.44927 | 8.67951 | 142° | 7km/h | 27876m | 7.1m/s | -47.3°C | 3% | 17.1hPa | 2.6V | 08:30:00 | 01:45:11 | 00:00:00 | |
| HSKMA3-T | 2026-09-03 05:16:45 | 52.44922 | 8.67954 | 146° | 9km/h | 27901m | 6.2m/s | -47.3°C | 0% | 17.1hPa | 2.6V | 18:12:15 | 01:45:15 | 00:00:00 | |
| DM0DOS-11 | 2026-09-03 05:16:44 | 52.44930 | 8.67946 | 128° | 5km/h | 27865m | 4.9m/s | -47.3°C | 3% | 17.2hPa | 2.6V | 08:30:00 | 01:45:09 | 00:00:00 | |
| BIOWL1-15 | 2026-09-03 05:16:41 | 52.44927 | 8.67951 | 142° | 7km/h | 27876m | 7.1m/s | -47.3°C | 0% | 17.1hPa | 2.6V | 18:12:15 | 01:45:11 | 00:00:00 | |
| DL1XH-west | 2026-09-03 05:16:40 | 52.44929 | 8.67949 | 133° | 7km/h | 27870m | 5.6m/s | -47.3°C | 0% | 17.2hPa | 2.6V | 18:12:15 | 01:45:10 | 00:00:00 | |
| DB0DAN | 2026-09-03 05:16:40 | 52.44929 | 8.67949 | 133° | 7km/h | 27870m | 5.6m/s | -47.3°C | 0.8% | 17.2hPa | 2.6V | 00:00:00 | 00:00:00 | 00:00:00 | |
| DJ8HS-15 | 2026-09-03 05:16:40 | 52.44929 | 8.67949 | 133° | 9km/h | 27870m | 5.5m/s | -47.3°C | 3.0% | 17.1hPa | 2.6V | 00:00:00 | 01:45:10 | 00:00:00 | |
| DO3MHA-12 | 2026-09-03 05:16:39 | 52.44930 | 8.67946 | 129° | 5km/h | 27865m | 4.9m/s | 0°C | 0% | 0hPa | 2.6V | 00:00:00 | 01:45:09 | 00:00:00 | |
| DL1XH1-15 | 2026-09-03 05:16:38 | 52.44935 | 8.67943 | 143° | 13km/h | 27828m | 5.5m/s | -47.5°C | 3.1% | 17.3hPa | 2.6V | 08:30:00 | 01:45:03 | 00:00:00 | |
| DO2JMG | 2026-09-03 05:16:38 | 52.44931 | 8.67945 | 127° | 4km/h | 27858m | 7.1m/s | -47.3°C | 0% | 17.2hPa | 2.6V | 18:12:15 | 01:45:08 | 00:00:00 | |
| AA1-15 | 2026-09-03 05:16:37 | 52.44931 | 8.67945 | 268° | 2km/h | 27852m | 6.3m/s | -47.3°C | 0% | 17.3hPa | 2.6V | 18:12:15 | 01:45:07 | 00:00:00 | |
| DD8BA-10 | 2026-09-03 05:16:37 | 52.44931 | 8.67945 | 268° | 7km/h | 27852m | 6.2m/s | -47.3°C | 3.0% | 17.2hPa | 2.6V | 00:00:00 | 00:00:00 | 00:00:00 | |
| DL1XH-15 | 2026-09-03 05:16:36 | 52.44941 | 8.67935 | 141° | 13km/h | 27818m | 5.7m/s | -47.6°C | 3.1% | 17.3hPa | 2.6V | 08:30:00 | 01:45:01 | 00:00:00 | |
| HSKMA3-T | 2026-09-03 05:16:34 | 52.44933 | 8.67945 | 153° | 9km/h | 27834m | 7m/s | -47.4°C | 0.1% | 17.3hPa | 2.6V | 18:12:15 | 01:45:04 | 00:00:00 | |
| BIOWL1-15 | 2026-09-03 05:16:33 | 52.44941 | 8.67935 | 141° | 13km/h | 27818m | 5.7m/s | -47.6°C | 0% | 17.3hPa | 2.6V | 18:12:15 | 01:45:01 | 00:00:00 | |
| DL1XH-west | 2026-09-03 05:16:29 | 52.44945 | 8.67931 | 169° | 5km/h | 27805m | 5.9m/s | -47.7°C | 0% | 17.3hPa | 2.5V | 18:12:15 | 01:44:59 | 00:00:00 | |
| DO2JMG | 2026-09-03 05:16:28 | 52.44946 | 8.67932 | 196° | 5km/h | 27799m | 5.3m/s | -47.8°C | 0% | 17.4hPa | 2.5V | 18:12:15 | 01:44:58 | 00:00:00 | |
| AA1-15 | 2026-09-03 05:16:27 | 52.44948 | 8.67932 | 192° | 9km/h | 27794m | 5.7m/s | -47.8°C | 0% | 17.4hPa | 2.6V | 18:12:15 | 01:44:57 | 00:00:00 | |
| DJTTGO | 2026-09-03 05:16:27 | 52.44948 | 8.67932 | 193° | 9km/h | 27794m | 5.7m/s | -47.8°C | 0.8% | 17.4hPa | 2.6V | 00:00:00 | 00:00:00 | 00:00:00 | |
| DL8OAI-8 | 2026-09-03 05:16:26 | 52.44948 | 8.67932 | 193° | 9km/h | 27794m | 5.7m/s | -47.8°C | 0.8% | 17.4hPa | 2.6V | 00:00:00 | 00:00:00 | 00:00:00 | |
| DL1XH-15 | 2026-09-03 05:16:26 | 52.44962 | 8.67924 | 67° | 9km/h | 27758m | 5.8m/s | -47.9°C | 3.2% | 17.4hPa | 2.6V | 08:30:00 | 01:44:51 | 00:00:00 | |
| DB0DAN | 2026-09-03 05:16:25 | 52.44954 | 8.67932 | 173° | 15km/h | 27781m | 5.3m/s | -47.8°C | 0.8% | 17.37hPa | 2.6V | 00:00:00 | 00:00:00 | 00:00:00 | |
| HSKMA3-T | 2026-09-03 05:16:24 | 52.44957 | 8.67931 | 165° | 15km/h | 27776m | 4.6m/s | -47.8°C | 0.1% | 17.4hPa | 2.6V | 18:12:15 | 01:44:54 | 00:00:00 | |
| BIOWL1-15 | 2026-09-03 05:16:22 | 52.44960 | 8.67920 | 61° | 15km/h | 27753m | 5.4m/s | -47.9°C | 0.1% | 17.5hPa | 2.5V | 18:12:15 | 01:44:50 | 00:00:00 | |
| DO2SHX-10 | 2026-09-03 05:16:22 | 52.44962 | 8.67927 | 121° | 11km/h | 27765m | 6.9m/s | -47.8°C | 3.2% | 17.4hPa | 2.6V | 00:00:00 | 01:44:52 | 00:00:00 | |
| SONCRA | 2026-09-03 05:16:21 | 52.44962 | 8.67924 | 67° | 9km/h | 27759m | 5.8m/s | -47.9°C | 0.8% | 17.4hPa | 2.5V | 00:00:00 | 00:00:00 | 00:00:00 | |
| DJ8HS-15 | 2026-09-03 05:16:20 | 52.44960 | 8.67920 | 61° | 15km/h | 27753m | 5.3m/s | -47.8°C | 3.2% | 17.5hPa | 2.5V | 00:00:00 | 01:44:50 | 00:00:00 | |
| DO3MHA-12 | 2026-09-03 05:16:19 | 52.44959 | 8.67914 | 67° | 11km/h | 27748m | 5.7m/s | 0°C | 0% | 0hPa | 2.5V | 00:00:00 | 01:44:49 | 00:00:00 | |
| DL1XH1-15 | 2026-09-03 05:16:18 | 52.44960 | 8.67898 | 231° | 9km/h | 27712m | 4.9m/s | -47.8°C | 3.1% | 17.6hPa | 2.5V | 08:30:00 | 01:44:43 | 00:00:00 | |
| DL1XH-west | 2026-09-03 05:16:18 | 52.44958 | 8.67908 | 79° | 16km/h | 27741m | 5.9m/s | -47.8°C | 0.1% | 17.6hPa | 2.6V | 18:12:15 | 01:44:48 | 00:00:00 | |
| AA1-15 | 2026-09-03 05:16:16 | 52.44957 | 8.67897 | 104° | 9km/h | 27730m | 5.4m/s | -47.9°C | 0% | 17.6hPa | 2.6V | 18:12:15 | 01:44:46 | 00:00:00 | |
| DF8AY | 2026-09-03 05:16:13 | 52.44960 | 8.67897 | 232° | 9km/h | 27712m | 4.9m/s | -47.8°C | 0% | 17.6hPa | 2.5V | 18:12:15 | 01:44:43 | 00:00:00 | |
| BIOWL1-15 | 2026-09-03 05:16:10 | 52.44965 | 8.67899 | 125° | 9km/h | 27695m | 5m/s | -47.9°C | 0.1% | 17.6hPa | 2.6V | 18:12:15 | 01:44:40 | 00:00:00 | |
| DB0DAN | 2026-09-03 05:16:10 | 52.44965 | 8.67899 | 125° | 9km/h | 27695m | 5m/s | -47.9°C | 0.8% | 17.61hPa | 2.6V | 00:00:00 | 00:00:00 | 00:00:00 | |
| DO3MHA-12 | 2026-09-03 05:16:09 | 52.44966 | 8.67895 | 92° | 13km/h | 27690m | 4.9m/s | 0°C | 0% | 0hPa | 2.6V | 00:00:00 | 01:44:39 | 00:00:00 | |
| DL1XH1-15 | 2026-09-03 05:16:08 | 52.44953 | 8.67842 | 91° | 26km/h | 27654m | 5.8m/s | -48°C | 3.1% | 17.8hPa | 2.6V | 08:30:00 | 01:44:33 | 00:00:00 | |
| DL1XH-west | 2026-09-03 05:16:07 | 52.44963 | 8.67881 | 60° | 22km/h | 27676m | 6.5m/s | -47.9°C | 0% | 17.7hPa | 2.6V | 18:12:15 | 01:44:37 | 00:00:00 | |
| AA1-15 | 2026-09-03 05:16:06 | 52.44960 | 8.67872 | 57° | 26km/h | 27671m | 5.3m/s | -48°C | 0.1% | 17.8hPa | 2.6V | 18:12:15 | 01:44:36 | 00:00:00 | |
| DL3AQ-11 | 2026-09-03 05:16:06 | 52.44956 | 8.67863 | 62° | 26km/h | 27666m | 4.9m/s | -48.0°C | 0.8% | 17.8hPa | 2.5V | 00:00:00 | 00:00:00 | 00:00:00 | |
| DO9LL-15 | 2026-09-03 05:16:05 | 52.44956 | 8.67863 | 63° | 18km/h | 27666m | 4.9m/s | -47.9°C | 3.1% | 17.7hPa | 2.5V | 00:00:00 | 01:44:35 | 00:00:00 | |
| DM0DOS-11 | 2026-09-03 05:16:04 | 52.44962 | 8.67824 | 199° | 11km/h | 27630m | 5.8m/s | -48.2°C | 3.2% | 17.8hPa | 2.5V | 08:30:00 | 01:44:29 | 00:00:00 | |
| HSKMA3-T | 2026-09-03 05:16:03 | 52.44953 | 8.67842 | 91° | 26km/h | 27654m | 5.8m/s | -48°C | 0.1% | 17.8hPa | 2.6V | 18:12:15 | 01:44:33 | 00:00:00 | |
| BIOWL1-15 | 2026-09-03 05:15:59 | 52.44962 | 8.67824 | 200° | 11km/h | 27630m | 5.9m/s | -48.2°C | 0.2% | 17.8hPa | 2.5V | 18:12:15 | 01:44:29 | 00:00:00 | |
| DL1XH1-15 | 2026-09-03 05:15:58 | 52.44965 | 8.67807 | 70° | 26km/h | 27595m | 6.8m/s | -48.2°C | 3.2% | 17.9hPa | 2.6V | 08:30:00 | 01:44:23 | 00:00:00 | |
| DL1XH-west | 2026-09-03 05:15:56 | 52.44967 | 8.67827 | 117° | 5km/h | 27614m | 6m/s | -48.2°C | 0.2% | 17.9hPa | 2.6V | 18:12:15 | 01:44:26 | 00:00:00 | |
| AA1-15 | 2026-09-03 05:15:55 | 52.44967 | 8.67823 | 88° | 15km/h | 27608m | 6.2m/s | -48.3°C | 0.1% | 17.9hPa | 2.6V | 18:12:15 | 01:44:25 | 00:00:00 | |
| DO2SHX-10 | 2026-09-03 05:15:55 | 52.44967 | 8.67823 | 88° | 24km/h | 27608m | 6.1m/s | -48.2°C | 3.2% | 17.9hPa | 2.6V | 00:00:00 | 01:44:25 | 00:00:00 | |
| DM0DOS-11 | 2026-09-03 05:15:54 | 52.44953 | 8.67767 | 65° | 24km/h | 27570m | 6.8m/s | -48°C | 3.2% | 18hPa | 2.6V | 08:30:00 | 01:44:19 | 00:00:00 | |
| HSKMA3-T | 2026-09-03 05:15:53 | 52.44965 | 8.67807 | 71° | 26km/h | 27595m | 6.8m/s | -48.2°C | 0.2% | 17.9hPa | 2.6V | 18:12:15 | 01:44:23 | 00:00:00 | |
| DF8AY | 2026-09-03 05:15:52 | 52.44962 | 8.67796 | 63° | 27km/h | 27588m | 7.1m/s | -48.1°C | 0.2% | 18hPa | 2.6V | 18:12:15 | 01:44:22 | 00:00:00 | |
| BIOWL1-15 | 2026-09-03 05:15:49 | 52.44953 | 8.67767 | 66° | 24km/h | 27570m | 6.8m/s | -48°C | 0.1% | 18hPa | 2.6V | 18:12:15 | 01:44:19 | 00:00:00 | |
| DL1XH1-15 | 2026-09-03 05:15:48 | 52.44939 | 8.67752 | 1° | 11km/h | 27535m | 5.4m/s | -47.9°C | 3.2% | 18.1hPa | 2.6V | 08:30:00 | 01:44:13 | 00:00:00 | |
| DO2JMG | 2026-09-03 05:15:46 | 52.44947 | 8.67751 | 27° | 9km/h | 27553m | 7.4m/s | -48°C | 0.1% | 18.1hPa | 2.6V | 18:12:15 | 01:44:16 | 00:00:00 | |
| DL1XH-west | 2026-09-03 05:15:45 | 52.44944 | 8.67750 | 351° | 11km/h | 27546m | 6.8m/s | -48°C | 0.2% | 18.1hPa | 2.6V | 18:12:15 | 01:44:15 | 00:00:00 | |
| DL1LOL-11 | 2026-09-03 05:15:45 | 52.44944 | 8.67750 | 352° | 11km/h | 27546m | 6.8m/s | -48.0°C | 0.8% | 18.1hPa | 2.5V | 00:00:00 | 00:00:00 | 00:00:00 | |
| DM0DOS-11 | 2026-09-03 05:15:44 | 52.44927 | 8.67730 | 55° | 27km/h | 27512m | 6.4m/s | -47.6°C | 3.1% | 18.1hPa | 2.5V | 08:30:00 | 01:44:09 | 00:00:00 | |
| HSKMA3-T | 2026-09-03 05:15:42 | 52.44936 | 8.67750 | 35° | 11km/h | 27529m | 6.3m/s | -47.8°C | 0.1% | 18.1hPa | 2.6V | 18:12:15 | 01:44:12 | 00:00:00 | |
| BIOWL1-15 | 2026-09-03 05:15:40 | 52.44923 | 8.67720 | 50° | 29km/h | 27506m | 6.6m/s | -47.6°C | 0.1% | 18.2hPa | 2.6V | 18:12:15 | 01:44:08 | 00:00:00 | |
| DB0DAN | 2026-09-03 05:15:40 | 52.44931 | 8.67739 | 58° | 24km/h | 27518m | 4.8m/s | -47.7°C | 0.8% | 18.13hPa | 2.6V | 00:00:00 | 00:00:00 | 00:00:00 | |
| DL1XH-west | 2026-09-03 05:15:35 | 52.44909 | 8.67696 | 46° | 20km/h | 27488m | 7.5m/s | -47.5°C | 0% | 18.3hPa | 2.5V | 18:12:15 | 01:44:05 | 00:00:00 | |
| DO2SHX-10 | 2026-09-03 05:15:35 | 52.44909 | 8.67696 | 47° | 16km/h | 27489m | 7.4m/s | -47.4°C | 3.0% | 18.2hPa | 2.5V | 00:00:00 | 01:44:05 | 00:00:00 | |
| DM0DOS-11 | 2026-09-03 05:15:34 | 52.44881 | 8.67676 | 26° | 29km/h | 27453m | 5.2m/s | -47.5°C | 3.1% | 18.3hPa | 2.5V | 08:30:00 | 01:43:59 | 00:00:00 | |
| HSKMA3-T | 2026-09-03 05:15:32 | 52.44899 | 8.67686 | 16° | 18km/h | 27471m | 6.8m/s | -47.6°C | 0% | 18.3hPa | 2.6V | 18:12:15 | 01:44:02 | 00:00:00 | |
| DF8AY | 2026-09-03 05:15:31 | 52.44894 | 8.67684 | 15° | 24km/h | 27464m | 6.5m/s | -47.6°C | 0% | 18.2hPa | 2.6V | 18:12:15 | 01:44:01 | 00:00:00 | |
| BIOWL1-15 | 2026-09-03 05:15:30 | 52.44875 | 8.67670 | 35° | 27km/h | 27447m | 7.4m/s | -47.6°C | 0.1% | 18.3hPa | 2.5V | 18:12:15 | 01:43:58 | 00:00:00 | |
| DL4XJ-10 | 2026-09-03 05:15:30 | 52.44888 | 8.67680 | 20° | 29km/h | 27459m | 5.1m/s | -46.3°C | 0% | 0hPa | 2.6V | 00:00:00 | 00:00:00 | 00:00:00 | |
| SONDE2-11 | 2026-09-03 05:15:29 | 52.44875 | 8.67670 | 35° | 27km/h | 27447m | 7.4m/s | -47.6°C | 0.8% | 18.3hPa | 2.6V | 00:00:00 | 00:00:00 | 00:00:00 | |
| DL1XH1-15 | 2026-09-03 05:15:28 | 52.44849 | 8.67627 | 34° | 33km/h | 27416m | 6.2m/s | -47.8°C | 3.1% | 18.4hPa | 2.6V | 08:30:00 | 01:43:53 | 00:00:00 | |
| GOEST3-10 | 2026-09-03 05:15:28 | 52.44875 | 8.67669 | 36° | 29km/h | 27447m | 7.3m/s | -47.5°C | 3.1% | 18.3hPa | 2.5V | 00:00:00 | 00:00:00 | 00:00:00 | |
| DK5PH-5 | 2026-09-03 05:15:27 | 52.44869 | 8.67662 | 47° | 27km/h | 27440m | 6.2m/s | -47.5°C | 3.1% | 18.2hPa | 2.6V | 00:00:00 | 01:43:57 | 00:00:00 | |
| DL1XH-15 | 2026-09-03 05:15:26 | 52.44835 | 8.67615 | 22° | 29km/h | 27404m | 6.3m/s | -47.8°C | 3.1% | 18.4hPa | 2.6V | 08:30:00 | 01:43:51 | 00:00:00 | |
| DB0DAN | 2026-09-03 05:15:25 | 52.44860 | 8.67645 | 50° | 27km/h | 27429m | 6.2m/s | -47.7°C | 0.8% | 18.43hPa | 2.6V | 00:00:00 | 00:00:00 | 00:00:00 | |
| DL1XH-west | 2026-09-03 05:15:25 | 52.44860 | 8.67645 | 50° | 29km/h | 27428m | 6.2m/s | -47.7°C | 0.1% | 18.4hPa | 2.6V | 18:12:15 | 01:43:55 | 00:00:00 | |
| AA1-15 | 2026-09-03 05:15:24 | 52.44855 | 8.67636 | 43° | 31km/h | 27422m | 6.7m/s | -47.7°C | 0.1% | 18.4hPa | 2.5V | 18:12:15 | 01:43:54 | 00:00:00 | |
| HSKMA3-T | 2026-09-03 05:15:22 | 52.44842 | 8.67620 | 27° | 31km/h | 27410m | 5.5m/s | -47.8°C | 0.1% | 18.4hPa | 2.6V | 18:12:15 | 01:43:52 | 00:00:00 | |
| DF8AY | 2026-09-03 05:15:21 | 52.44828 | 8.67611 | 18° | 26km/h | 27397m | 6.8m/s | -47.8°C | 0.1% | 18.5hPa | 2.5V | 18:12:15 | 01:43:50 | 00:00:00 | |
| DJ8HS-15 | 2026-09-03 05:15:20 | 52.44828 | 8.67611 | 19° | 27km/h | 27398m | 6.7m/s | -47.7°C | 3.1% | 18.4hPa | 2.6V | 00:00:00 | 01:43:50 | 00:00:00 | |
| DO2SHX-10 | 2026-09-03 05:15:19 | 52.44822 | 8.67608 | 13° | 29km/h | 27391m | 5.4m/s | -47.7°C | 3.0% | 18.4hPa | 2.6V | 00:00:00 | 01:43:49 | 00:00:00 | |
| DL1XH1-15 | 2026-09-03 05:15:18 | 52.44776 | 8.67594 | 23° | 26km/h | 27355m | 6.5m/s | -47.8°C | 3.1% | 18.6hPa | 2.6V | 08:30:00 | 01:43:43 | 00:00:00 | |
| BIOWL1-15 | 2026-09-03 05:15:17 | 52.44808 | 8.67605 | 6° | 33km/h | 27379m | 7.3m/s | -47.7°C | 0% | 18.6hPa | 2.6V | 18:12:15 | 01:43:47 | 00:00:00 | |
| DL1XH-15 | 2026-09-03 05:15:16 | 52.44765 | 8.67584 | 34° | 26km/h | 27345m | 4.7m/s | -47.9°C | 3.1% | 18.6hPa | 2.6V | 08:30:00 | 01:43:41 | 00:00:00 | |
| DL1XH-west | 2026-09-03 05:15:16 | 52.44791 | 8.67601 | 10° | 33km/h | 27368m | 4.7m/s | -47.7°C | 0% | 18.6hPa | 2.6V | 18:12:15 | 01:43:45 | 00:00:00 | |
| DO2JMG | 2026-09-03 05:15:14 | 52.44783 | 8.67598 | 15° | 31km/h | 27362m | 7m/s | -47.8°C | 0% | 18.5hPa | 2.5V | 18:12:15 | 01:43:44 | 00:00:00 | |
| HSKMA3-T | 2026-09-03 05:15:12 | 52.44771 | 8.67590 | 31° | 24km/h | 27350m | 5m/s | -47.9°C | 0.1% | 18.6hPa | 2.6V | 18:12:15 | 01:43:42 | 00:00:00 | |
| DJ2DS-15 | 2026-09-03 05:15:12 | 52.44771 | 8.67590 | 32° | 29km/h | 27350m | 5.0m/s | -47.8°C | 3.1% | 18.5hPa | 2.6V | 00:00:00 | 01:43:42 | 00:00:00 | |
| DD1CC3-15 | 2026-09-03 05:15:11 | 52.44770 | 8.67590 | 32° | 24km/h | 27350m | 5.0m/s | -47.9°C | 0.8% | 18.6hPa | 2.6V | 00:00:00 | 00:00:00 | 00:00:00 | |
| DB0DAN | 2026-09-03 05:15:10 | 52.44760 | 8.67578 | 32° | 26km/h | 27339m | 6.4m/s | -47.9°C | 0.8% | 18.65hPa | 2.6V | 00:00:00 | 00:00:00 | 00:00:00 | |
| DF8AY | 2026-09-03 05:15:09 | 52.44753 | 8.67573 | 26° | 31km/h | 27333m | 6.4m/s | -47.9°C | 0.1% | 18.7hPa | 2.5V | 18:12:15 | 01:43:39 | 00:00:00 | |
| DL1XH1-15 | 2026-09-03 05:15:08 | 52.44713 | 8.67560 | 351° | 20km/h | 27297m | 5.2m/s | -48.1°C | 3.1% | 18.8hPa | 2.6V | 08:30:00 | 01:43:33 | 00:00:00 | |
| GOEST3-10 | 2026-09-03 05:15:08 | 52.44746 | 8.67567 | 21° | 27km/h | 27327m | 5.6m/s | -47.9°C | 3.2% | 18.6hPa | 2.6V | 00:00:00 | 00:00:00 | 00:00:00 | |
| BIOWL1-15 | 2026-09-03 05:15:08 | 52.44730 | 8.67560 | 10° | 29km/h | 27316m | 6.4m/s | -48.1°C | 0.1% | 18.7hPa | 2.6V | 18:12:15 | 01:43:36 | 00:00:00 | |
| DD8BA-10 | 2026-09-03 05:15:07 | 52.44738 | 8.67563 | 15° | 26km/h | 27322m | 4.9m/s | -47.9°C | 3.2% | 18.6hPa | 2.6V | 00:00:00 | 00:00:00 | 00:00:00 | |
| DL1XH-15 | 2026-09-03 05:15:06 | 52.44701 | 8.67562 | 359° | 26km/h | 27285m | 6.3m/s | -48.2°C | 3.1% | 18.8hPa | 2.6V | 08:30:00 | 01:43:31 | 00:00:00 | |
| DL1XH-west | 2026-09-03 05:15:04 | 52.44718 | 8.67559 | 355° | 20km/h | 27303m | 5.8m/s | -48.1°C | 0.1% | 18.7hPa | 2.5V | 18:12:15 | 01:43:34 | 00:00:00 | |
| AA1-15 | 2026-09-03 05:15:03 | 52.44713 | 8.67560 | 352° | 20km/h | 27297m | 5.2m/s | -48.1°C | 0.1% | 18.8hPa | 2.6V | 18:12:15 | 01:43:33 | 00:00:00 | |
| HSKMA3-T | 2026-09-03 05:15:01 | 52.44701 | 8.67562 | 360° | 26km/h | 27285m | 6.3m/s | -48.2°C | 0.1% | 18.8hPa | 2.6V | 18:12:15 | 01:43:31 | 00:00:00 | |
| DF8AY | 2026-09-03 05:14:59 | 52.44687 | 8.67560 | 11° | 27km/h | 27273m | 6.8m/s | -48.3°C | 0.1% | 18.9hPa | 2.5V | 18:12:15 | 01:43:29 | 00:00:00 | |
| DL1XH1-15 | 2026-09-03 05:14:58 | 52.44640 | 8.67538 | 7° | 35km/h | 27237m | 4.9m/s | -48.2°C | 3.2% | 18.9hPa | 2.6V | 08:30:00 | 01:43:23 | 00:00:00 | |
| BIOWL1-15 | 2026-09-03 05:14:56 | 52.44667 | 8.67549 | 19° | 33km/h | 27255m | 5.1m/s | -48.3°C | 0.1% | 18.9hPa | 2.6V | 18:12:15 | 01:43:26 | 00:00:00 | |
| DO2SHX-10 | 2026-09-03 05:14:55 | 52.44658 | 8.67545 | 18° | 37km/h | 27249m | 7.1m/s | -48.2°C | 3.1% | 18.9hPa | 2.5V | 00:00:00 | 01:43:25 | 00:00:00 | |
| DM0DOS-11 | 2026-09-03 05:14:54 | 52.44616 | 8.67543 | 323° | 18km/h | 27212m | 5.3m/s | -48.1°C | 3.1% | 19hPa | 2.5V | 08:30:00 | 01:43:19 | 00:00:00 | |
| DL1XH-west | 2026-09-03 05:14:53 | 52.44640 | 8.67538 | 8° | 37km/h | 27237m | 4.9m/s | -48.3°C | 0.1% | 18.9hPa | 2.6V | 18:12:15 | 01:43:23 | 00:00:00 | |
| AA1-15 | 2026-09-03 05:14:52 | 52.44632 | 8.67537 | 2° | 31km/h | 27231m | 6.2m/s | -48.3°C | 0.2% | 19hPa | 2.6V | 18:12:15 | 01:43:22 | 00:00:00 | |
| HSKMA3-T | 2026-09-03 05:14:50 | 52.44620 | 8.67539 | 336° | 18km/h | 27218m | 6m/s | -48.1°C | 0.1% | 18.9hPa | 2.5V | 18:12:15 | 01:43:20 | 00:00:00 | |
| DF8AY | 2026-09-03 05:14:48 | 52.44612 | 8.67548 | 324° | 20km/h | 27207m | 6.4m/s | -48.1°C | 0.1% | 19hPa | 2.6V | 18:12:15 | 01:43:18 | 00:00:00 | |
| BIOWL1-15 | 2026-09-03 05:14:48 | 52.44602 | 8.67557 | 342° | 26km/h | 27195m | 5.2m/s | -48.1°C | 0.1% | 19.1hPa | 2.6V | 18:12:15 | 01:43:16 | 00:00:00 | |
| GOEST3-10 | 2026-09-03 05:14:48 | 52.44612 | 8.67548 | 324° | 24km/h | 27207m | 6.4m/s | -48.1°C | 3.1% | 19.0hPa | 2.6V | 00:00:00 | 00:00:00 | 00:00:00 | |
| DD8BA-10 | 2026-09-03 05:14:47 | 52.44608 | 8.67553 | 332° | 26km/h | 27201m | 6.3m/s | -48.1°C | 3.1% | 19.0hPa | 2.6V | 00:00:00 | 00:00:00 | 08:30:00 | |
| DL1XH-15 | 2026-09-03 05:14:46 | 52.44573 | 8.67553 | 21° | 26km/h | 27165m | 5.7m/s | -48.5°C | 3.2% | 19.1hPa | 2.6V | 08:30:00 | 01:43:11 | 00:00:00 | |
| DL3AQ-11 | 2026-09-03 05:14:46 | 52.44596 | 8.67559 | 351° | 24km/h | 27190m | 4.6m/s | -48.2°C | 0.8% | 19.1hPa | 2.5V | 00:00:00 | 00:00:00 | 00:00:00 | |
| DL8DAS-15 | 2026-09-03 05:14:45 | 52.44602 | 8.67557 | 343° | 26km/h | 27195m | 5.2m/s | -48.1°C | 0.8% | 19.1hPa | 2.5V | 00:00:00 | 00:00:00 | 00:00:00 | |
| DM0DOS-11 | 2026-09-03 05:14:44 | 52.44560 | 8.67547 | 9° | 29km/h | 27152m | 5.4m/s | -48.6°C | 3.3% | 19.2hPa | 2.5V | 08:30:00 | 01:43:09 | 00:00:00 | |
| DL1XH-west | 2026-09-03 05:14:43 | 52.44584 | 8.67559 | 11° | 22km/h | 27177m | 6.7m/s | -48.4°C | 0.1% | 19.1hPa | 2.5V | 18:12:15 | 01:43:13 | 00:00:00 | |
| AA1-15 | 2026-09-03 05:14:41 | 52.44573 | 8.67553 | 21° | 26km/h | 27165m | 5.7m/s | -48.5°C | 0.1% | 19.1hPa | 2.6V | 18:12:15 | 01:43:11 | 00:00:00 | |
| DB0DAN | 2026-09-03 05:14:40 | 52.44567 | 8.67549 | 17° | 27km/h | 27159m | 7m/s | -48.5°C | 0.8% | 19.17hPa | 2.6V | 00:00:00 | 00:00:00 | 00:00:00 | |
| HSKMA3-T | 2026-09-03 05:14:39 | 52.44560 | 8.67547 | 10° | 29km/h | 27152m | 5.4m/s | -48.6°C | 0.2% | 19.2hPa | 2.5V | 18:12:15 | 01:43:09 | 00:00:00 | |
| DF7PN | 2026-09-03 05:14:39 | 52.44553 | 8.67545 | 2° | 24km/h | 27147m | 5.2m/s | -48.6°C | 0.8% | 19.2hPa | 2.5V | 00:00:00 | 00:00:00 | 00:00:00 | |
| DL1XH1-15 | 2026-09-03 05:14:38 | 52.44530 | 8.67563 | 321° | 24km/h | 27116m | 6.1m/s | -48.6°C | 3.3% | 19.3hPa | 2.5V | 08:30:00 | 01:43:03 | 00:00:00 | |
| DF8AY | 2026-09-03 05:14:38 | 52.44553 | 8.67545 | 3° | 26km/h | 27147m | 5.2m/s | -48.6°C | 0.1% | 19.2hPa | 2.5V | 18:12:15 | 01:43:08 | 00:00:00 | |
| GOEST3-10 | 2026-09-03 05:14:38 | 52.44553 | 8.67545 | 3° | 22km/h | 27148m | 5.1m/s | -48.5°C | 3.2% | 19.1hPa | 2.6V | 00:00:00 | 00:00:00 | 00:00:00 | |
| DD8BA-10 | 2026-09-03 05:14:37 | 52.44547 | 8.67545 | 354° | 18km/h | 27141m | 7.2m/s | -48.6°C | 3.2% | 19.2hPa | 2.6V | 00:00:00 | 00:00:00 | 00:00:00 | |
| DL1XH-15 | 2026-09-03 05:14:36 | 52.44521 | 8.67574 | 324° | 20km/h | 27104m | 6.3m/s | -48.6°C | 3.2% | 19.3hPa | 2.6V | 08:30:00 | 01:43:01 | 00:00:00 | |
| BIOWL1-15 | 2026-09-03 05:14:35 | 52.44538 | 8.67552 | 322° | 20km/h | 27128m | 5.5m/s | -48.6°C | 0.2% | 19.3hPa | 2.6V | 18:12:15 | 01:43:05 | 00:00:00 | |
| DL1XH-west | 2026-09-03 05:14:32 | 52.44525 | 8.67569 | 323° | 24km/h | 27110m | 5.2m/s | -48.6°C | 0.2% | 19.4hPa | 2.5V | 18:12:15 | 01:43:02 | 00:00:00 | |
| AA1-15 | 2026-09-03 05:14:30 | 52.44517 | 8.67578 | 327° | 15km/h | 27098m | 6.9m/s | -48.6°C | 0.2% | 19.3hPa | 2.6V | 18:12:15 | 01:43:00 | 00:00:00 | |
| DL3AQ-11 | 2026-09-03 05:14:30 | 52.44514 | 8.67581 | 338° | 11km/h | 27092m | 5.7m/s | -48.6°C | 0.8% | 19.4hPa | 2.5V | 00:00:00 | 00:00:00 | 00:00:00 | |
| DF5WG-10 | 2026-09-03 05:14:29 | 52.44514 | 8.67581 | 339° | 15km/h | 27092m | 5.6m/s | -48.5°C | 3.2% | 19.3hPa | 2.5V | 00:00:00 | 01:42:59 | 00:00:00 | |
| DL1XH1-15 | 2026-09-03 05:14:28 | 52.44495 | 8.67588 | 310° | 11km/h | 27055m | 5.9m/s | -48.4°C | 3.2% | 19.4hPa | 2.5V | 08:30:00 | 01:42:53 | 00:00:00 | |
| HSKMA3-T | 2026-09-03 05:14:28 | 52.44511 | 8.67582 | 350° | 13km/h | 27085m | 6.5m/s | -48.6°C | 0.2% | 19.4hPa | 2.5V | 18:12:15 | 01:42:58 | 00:00:00 | |
| DF8AY | 2026-09-03 05:14:27 | 52.44508 | 8.67583 | 354° | 15km/h | 27079m | 6.6m/s | -48.5°C | 0.2% | 19.4hPa | 2.6V | 18:12:15 | 01:42:57 | 00:00:00 | |
| DL1XH-15 | 2026-09-03 05:14:27 | 52.44492 | 8.67598 | 296° | 18km/h | 27043m | 7.3m/s | -48.5°C | 3.2% | 19.5hPa | 2.6V | 08:30:00 | 01:42:51 | 00:00:00 | |
| SMARD9-10 | 2026-09-03 05:14:26 | 52.44508 | 8.67583 | 355° | 15km/h | 27079m | 6.6m/s | -48.5°C | 0.8% | 19.4hPa | 2.6V | 00:00:00 | 00:00:00 | 00:00:00 | |
| DB0DAN | 2026-09-03 05:14:25 | 52.44500 | 8.67584 | 350° | 13km/h | 27068m | 5.1m/s | -48.4°C | 0.8% | 19.46hPa | 2.6V | 00:00:00 | 00:00:00 | 00:00:00 | |
| DM0DOS-11 | 2026-09-03 05:14:24 | 52.44487 | 8.67614 | 293° | 22km/h | 27031m | 5m/s | -48.4°C | 3.1% | 19.6hPa | 2.6V | 08:30:00 | 01:42:49 | 00:00:00 | |
| BIOWL1-15 | 2026-09-03 05:14:24 | 52.44497 | 8.67586 | 338° | 11km/h | 27062m | 7.2m/s | -48.4°C | 0.1% | 19.5hPa | 2.5V | 18:12:15 | 01:42:54 | 00:00:00 | |
| DO2JMG | 2026-09-03 05:14:22 | 52.44494 | 8.67592 | 297° | 15km/h | 27049m | 5.3m/s | -48.5°C | 0.1% | 19.4hPa | 2.6V | 18:12:15 | 01:42:52 | 00:00:00 | |
| DL1XH-west | 2026-09-03 05:14:21 | 52.44492 | 8.67598 | 297° | 18km/h | 27043m | 7.3m/s | -48.5°C | 0.1% | 19.5hPa | 2.6V | 18:12:15 | 01:42:51 | 00:00:00 | |
| AA1-15 | 2026-09-03 05:14:20 | 52.44490 | 8.67606 | 296° | 22km/h | 27037m | 5.8m/s | -48.5°C | 0.1% | 19.6hPa | 2.6V | 18:12:15 | 01:42:50 | 00:00:00 | |
| HSKMA3-T | 2026-09-03 05:14:18 | 52.44485 | 8.67622 | 289° | 20km/h | 27026m | 6.4m/s | -48.5°C | 0.1% | 19.6hPa | 2.5V | 18:12:15 | 01:42:48 | 00:00:00 | |
| BIOWL1-15 | 2026-09-03 05:14:17 | 52.44481 | 8.67639 | 344° | 7km/h | 26995m | 5.7m/s | -48.4°C | 0% | 19.7hPa | 2.6V | 18:12:15 | 01:42:43 | 00:00:00 | |
| DF8AY | 2026-09-03 05:14:16 | 52.44484 | 8.67634 | 278° | 9km/h | 27014m | 5.2m/s | -48.4°C | 0.1% | 19.6hPa | 2.6V | 18:12:15 | 01:42:46 | 00:00:00 | |
| DL4BBY-15 | 2026-09-03 05:14:16 | 52.44484 | 8.67634 | 278° | 13km/h | 27014m | 5.2m/s | -47.2°C | 0% | 0hPa | 2.5V | 00:00:00 | 00:00:00 | 00:00:00 | |
| DO2SHX-10 | 2026-09-03 05:14:15 | 52.44483 | 8.67636 | 297° | 5km/h | 27008m | 5.3m/s | -48.4°C | 3.2% | 19.6hPa | 2.5V | 00:00:00 | 01:42:45 | 00:00:00 | |
| DM0DOS-11 | 2026-09-03 05:14:14 | 52.44479 | 8.67647 | 246° | 13km/h | 26972m | 5.4m/s | -48.4°C | 3.2% | 19.7hPa | 2.5V | 08:30:00 | 01:42:39 | 00:00:00 | |
| DO2JMG | 2026-09-03 05:14:11 | 52.44478 | 8.67641 | 305° | 4km/h | 26985m | 6.9m/s | -48.4°C | 0.1% | 19.7hPa | 2.6V | 18:12:15 | 01:42:41 | 00:00:00 | |
| DL1XH-west | 2026-09-03 05:14:10 | 52.44478 | 8.67643 | 244° | 7km/h | 26978m | 6.3m/s | -48.4°C | 0.2% | 19.7hPa | 2.6V | 18:12:15 | 01:42:40 | 00:00:00 | |
| DB0DAN | 2026-09-03 05:14:10 | 52.44478 | 8.67643 | 244° | 7km/h | 26978m | 6.3m/s | -48.4°C | 0.8% | 19.72hPa | 2.6V | 00:00:00 | 00:00:00 | 00:00:00 | |
| AA1-15 | 2026-09-03 05:14:09 | 52.44479 | 8.67647 | 246° | 13km/h | 26972m | 5.4m/s | -48.4°C | 0.2% | 19.7hPa | 2.5V | 18:12:15 | 01:42:39 | 00:00:00 | |
| DO2SHX-10 | 2026-09-03 05:14:09 | 52.44479 | 8.67647 | 247° | 16km/h | 26973m | 5.3m/s | -48.4°C | 3.2% | 19.7hPa | 2.5V | 00:00:00 | 01:42:39 | 00:00:00 | |
| DL1XH1-15 | 2026-09-03 05:14:08 | 52.44485 | 8.67690 | 220° | 15km/h | 26937m | 6.1m/s | -48.6°C | 3.2% | 19.8hPa | 2.5V | 08:30:00 | 01:42:33 | 00:00:00 | |
| HSKMA3-T | 2026-09-03 05:14:08 | 52.44480 | 8.67653 | 254° | 16km/h | 26967m | 5.6m/s | -48.5°C | 0.1% | 19.7hPa | 2.5V | 18:12:15 | 01:42:38 | 00:00:00 | |
| DF8AY | 2026-09-03 05:14:06 | 52.44482 | 8.67668 | 265° | 22km/h | 26954m | 5.3m/s | -48.6°C | 0.1% | 19.8hPa | 2.6V | 18:12:15 | 01:42:36 | 00:00:00 | |
| DF8AY-15 | 2026-09-03 05:14:06 | 52.44482 | 8.67668 | 265° | 13km/h | 26954m | 5.3m/s | -48.5°C | 3.2% | 19.7hPa | 2.6V | 00:00:00 | 01:42:36 | 00:00:00 | |
| DO9LL-15 | 2026-09-03 05:14:05 | 52.44482 | 8.67677 | 263° | 11km/h | 26949m | 4.5m/s | -48.6°C | 3.3% | 19.7hPa | 2.6V | 00:00:00 | 01:42:35 | 00:00:00 | |
| DM0DOS-11 | 2026-09-03 05:14:04 | 52.44495 | 8.67687 | 126° | 9km/h | 26912m | 5.8m/s | -48.6°C | 3.1% | 19.9hPa | 2.6V | 08:30:00 | 01:42:29 | 00:00:00 | |
| BIOWL1-15 | 2026-09-03 05:14:04 | 52.44488 | 8.67692 | 189° | 13km/h | 26931m | 6.2m/s | -48.6°C | 0.1% | 19.8hPa | 2.5V | 18:12:15 | 01:42:32 | 00:00:00 | |
| DO2JMG | 2026-09-03 05:14:00 | 52.44494 | 8.67689 | 140° | 11km/h | 26918m | 7.4m/s | -48.6°C | 0.1% | 19.9hPa | 2.6V | 18:12:15 | 01:42:30 | 00:00:00 | |
| DL1XH-west | 2026-09-03 05:13:59 | 52.44495 | 8.67687 | 126° | 9km/h | 26912m | 5.8m/s | -48.6°C | 0.1% | 19.9hPa | 2.6V | 18:12:15 | 01:42:29 | 00:00:00 | |
| AA1-15 | 2026-09-03 05:13:58 | 52.44497 | 8.67684 | 137° | 7km/h | 26907m | 4.6m/s | -48.6°C | 0.1% | 19.9hPa | 2.5V | 18:12:15 | 01:42:28 | 00:00:00 | |
| HSKMA3-T | 2026-09-03 05:13:57 | 52.44498 | 8.67682 | 165° | 9km/h | 26901m | 6.5m/s | -48.7°C | 0.1% | 19.9hPa | 2.5V | 18:12:15 | 01:42:27 | 00:00:00 | |
| DF8AY | 2026-09-03 05:13:55 | 52.44504 | 8.67685 | 214° | 16km/h | 26889m | 5.7m/s | -48.7°C | 0.2% | 20hPa | 2.6V | 18:12:15 | 01:42:25 | 00:00:00 | |
| DB0DAN | 2026-09-03 05:13:55 | 52.44504 | 8.67685 | 214° | 15km/h | 26889m | 5.7m/s | -48.7°C | 0.8% | 19.99hPa | 2.6V | 00:00:00 | 00:00:00 | 00:00:00 | |
| DM0DOS-11 | 2026-09-03 05:13:54 | 52.44515 | 8.67713 | 183° | 9km/h | 26854m | 6.4m/s | -48.8°C | 3.2% | 20.1hPa | 2.6V | 08:30:00 | 01:42:19 | 00:00:00 | |
| BIOWL1-15 | 2026-09-03 05:13:52 | 52.44511 | 8.67702 | 254° | 16km/h | 26870m | 4.7m/s | -48.7°C | 0.2% | 20hPa | 2.5V | 18:12:15 | 01:42:22 | 00:00:00 | |
| DL3AQ-11 | 2026-09-03 05:13:50 | 52.44515 | 8.67713 | 183° | 9km/h | 26854m | 6.4m/s | -48.8°C | 0.8% | 20.1hPa | 2.5V | 00:00:00 | 00:00:00 | 00:00:00 | |
| AU51GT2 | 2026-09-03 05:13:49 | 52.44515 | 8.67713 | 183° | 9km/h | 26854m | 6.4m/s | -48.8°C | 0.8% | 20.1hPa | 2.5V | 00:00:00 | 00:00:00 | 00:00:00 | |
| DL1XH-west | 2026-09-03 05:13:49 | 52.44515 | 8.67713 | 183° | 9km/h | 26854m | 6.4m/s | -48.8°C | 0.1% | 20.1hPa | 2.6V | 18:12:15 | 01:42:19 | 00:00:00 | |
| DL1XH1-15 | 2026-09-03 05:13:48 | 52.44522 | 8.67692 | 39° | 4km/h | 26820m | 5m/s | -48.9°C | 3.2% | 20.2hPa | 2.5V | 08:30:00 | 01:42:13 | 00:00:00 | |
| AA1-15 | 2026-09-03 05:13:48 | 52.44518 | 8.67712 | 154° | 13km/h | 26848m | 5.7m/s | -48.9°C | 0.1% | 20.1hPa | 2.6V | 18:12:15 | 01:42:18 | 00:00:00 | |
| HSKMA3-T | 2026-09-03 05:13:46 | 52.44523 | 8.67703 | 115° | 15km/h | 26837m | 6.2m/s | -48.8°C | 0.2% | 20.1hPa | 2.6V | 18:12:15 | 01:42:16 | 00:00:00 | |
| DF8AY | 2026-09-03 05:13:45 | 52.44524 | 8.67698 | 92° | 11km/h | 26831m | 6.2m/s | -48.9°C | 0.1% | 20.1hPa | 2.6V | 18:12:15 | 01:42:15 | 00:00:00 | |
| BIOWL1-15 | 2026-09-03 05:13:41 | 52.44525 | 8.67712 | 295° | 13km/h | 26779m | 5.7m/s | -49.1°C | 0.2% | 20.3hPa | 2.5V | 18:12:15 | 01:42:06 | 00:00:00 | |
| DB0DAN | 2026-09-03 05:13:40 | 52.44523 | 8.67696 | 235° | 9km/h | 26803m | 5.1m/s | -49.1°C | 0.8% | 20.24hPa | 2.6V | 00:00:00 | 00:00:00 | 00:00:00 | |
| DL1XH-west | 2026-09-03 05:13:39 | 52.44525 | 8.67699 | 240° | 11km/h | 26798m | 4.9m/s | -49.1°C | 0.2% | 20.3hPa | 2.6V | 18:12:15 | 01:42:09 | 00:00:00 | |
| DL1XH1-15 | 2026-09-03 05:13:38 | 52.44522 | 8.67721 | 230° | 2km/h | 26762m | 6.6m/s | -49.2°C | 3.4% | 20.4hPa | 2.6V | 08:30:00 | 01:42:03 | 00:00:00 | |
| AA1-15 | 2026-09-03 05:13:37 | 52.44526 | 8.67708 | 278° | 11km/h | 26786m | 6.5m/s | -49.1°C | 0.2% | 20.3hPa | 2.5V | 18:12:15 | 01:42:07 | 00:00:00 | |
| HSKMA3-T | 2026-09-03 05:13:35 | 52.44524 | 8.67716 | 301° | 9km/h | 26774m | 4.9m/s | -49.1°C | 0.2% | 20.4hPa | 2.6V | 18:12:15 | 01:42:05 | 00:00:00 | |
| DF8AY | 2026-09-03 05:13:34 | 52.44523 | 8.67719 | 296° | 5km/h | 26768m | 6.4m/s | -49.1°C | 0.3% | 20.3hPa | 2.6V | 18:12:15 | 01:42:04 | 00:00:00 | |
| BIOWL1-15 | 2026-09-03 05:13:31 | 52.44523 | 8.67720 | 103° | 2km/h | 26751m | 6m/s | -49.2°C | 0.2% | 20.4hPa | 2.5V | 18:12:15 | 01:42:01 | 00:00:00 | |
| DO2JMG | 2026-09-03 05:13:29 | 52.44522 | 8.67721 | 315° | 5km/h | 26739m | 5.1m/s | -49.1°C | 0.2% | 20.4hPa | 2.6V | 18:12:15 | 01:41:59 | 00:00:00 | |
| DF8AY | 2026-09-03 05:13:28 | 52.44525 | 8.67736 | 278° | 5km/h | 26706m | 6.3m/s | -49°C | 0.2% | 20.5hPa | 2.6V | 18:12:15 | 01:41:53 | 00:00:00 | |
| DL1XH-west | 2026-09-03 05:13:28 | 52.44522 | 8.67723 | 285° | 5km/h | 26733m | 5.3m/s | -49.1°C | 0.3% | 20.4hPa | 2.6V | 18:12:15 | 01:41:58 | 00:00:00 | |
| AA1-15 | 2026-09-03 05:13:26 | 52.44522 | 8.67728 | 234° | 9km/h | 26721m | 5.3m/s | -49°C | 0.2% | 20.5hPa | 2.5V | 18:12:15 | 01:41:56 | 00:00:00 | |
| HSKMA3-T | 2026-09-03 05:13:25 | 52.44524 | 8.67731 | 230° | 9km/h | 26716m | 4.2m/s | -49°C | 0.2% | 20.5hPa | 2.6V | 18:12:15 | 01:41:55 | 00:00:00 | |
| DB0DAN | 2026-09-03 05:13:25 | 52.44524 | 8.67731 | 230° | 9km/h | 26717m | 4.2m/s | -49°C | 0.8% | 20.54hPa | 2.6V | 00:00:00 | 00:00:00 | 00:00:00 | |
| BIOWL1-15 | 2026-09-03 05:13:20 | 52.44522 | 8.67736 | 45° | 5km/h | 26688m | 6.2m/s | -49°C | 0.2% | 20.6hPa | 2.6V | 18:12:15 | 01:41:50 | 00:00:00 | |
| DL1XH-west | 2026-09-03 05:13:18 | 52.44522 | 8.67733 | 136° | 5km/h | 26676m | 5.2m/s | -49°C | 0.2% | 20.7hPa | 2.6V | 18:12:15 | 01:41:48 | 00:00:00 | |
| GOEST3-10 | 2026-09-03 05:13:18 | 52.44522 | 8.67733 | 136° | 4km/h | 26676m | 5.1m/s | -48.9°C | 3.3% | 20.6hPa | 2.5V | 00:00:00 | 00:00:00 | 00:00:00 | |
| DD8BA-10 | 2026-09-03 05:13:17 | 52.44523 | 8.67732 | 151° | 9km/h | 26671m | 5.0m/s | -48.9°C | 3.3% | 20.6hPa | 2.5V | 00:00:00 | 00:00:00 | 08:30:00 | |
| DL1XH-15 | 2026-09-03 05:13:16 | 52.44524 | 8.67748 | 266° | 15km/h | 26635m | 4.7m/s | -48.9°C | 3.4% | 20.8hPa | 2.5V | 08:30:00 | 01:41:41 | 00:00:00 | |
| HSKMA3-T | 2026-09-03 05:13:15 | 52.44524 | 8.67732 | 289° | 4km/h | 26658m | 6.1m/s | -49°C | 0.2% | 20.7hPa | 2.6V | 18:12:15 | 01:41:45 | 00:00:00 | |
| SONCRA | 2026-09-03 05:13:15 | 52.44523 | 8.67734 | 278° | 7km/h | 26653m | 5.2m/s | -48.9°C | 0.9% | 20.7hPa | 2.5V | 00:00:00 | 00:00:00 | 00:00:00 | |
| DM0DOS-11 | 2026-09-03 05:13:14 | 52.44523 | 8.67759 | 303° | 13km/h | 26623m | 6.1m/s | -48.8°C | 3.3% | 20.8hPa | 2.5V | 08:30:00 | 01:41:39 | 00:00:00 | |
| DF8AY | 2026-09-03 05:13:13 | 52.44523 | 8.67738 | 265° | 11km/h | 26647m | 7.1m/s | -48.9°C | 0.3% | 20.8hPa | 2.6V | 18:12:15 | 01:41:43 | 00:00:00 | |
| DJ2DS-15 | 2026-09-03 05:13:12 | 52.44524 | 8.67743 | 261° | 9km/h | 26640m | 5.7m/s | -48.8°C | 3.3% | 20.8hPa | 2.5V | 00:00:00 | 01:41:42 | 00:00:00 | |
| DB0DAN | 2026-09-03 05:13:10 | 52.44524 | 8.67754 | 282° | 13km/h | 26629m | 6.7m/s | -48.9°C | 0.9% | 20.78hPa | 2.5V | 00:00:00 | 00:00:00 | 00:00:00 | |
| BIOWL1-15 | 2026-09-03 05:13:09 | 52.44523 | 8.67759 | 303° | 13km/h | 26623m | 6.1m/s | -48.8°C | 0.2% | 20.8hPa | 2.5V | 18:12:15 | 01:41:39 | 00:00:00 | |
| DL1XH1-15 | 2026-09-03 05:13:08 | 52.44520 | 8.67760 | 130° | 5km/h | 26587m | 6.4m/s | -48.7°C | 3.1% | 20.9hPa | 2.6V | 08:30:00 | 01:41:33 | 00:00:00 | |
| DF8AY | 2026-09-03 05:13:08 | 52.44520 | 8.67760 | 131° | 5km/h | 26587m | 6.4m/s | -48.7°C | 0.1% | 20.9hPa | 2.6V | 18:12:15 | 01:41:33 | 00:00:00 | |
| DL1XH-west | 2026-09-03 05:13:07 | 52.44519 | 8.67765 | 337° | 7km/h | 26612m | 5.6m/s | -48.9°C | 0.2% | 20.9hPa | 2.6V | 18:12:15 | 01:41:37 | 00:00:00 | |
| AA1-15 | 2026-09-03 05:13:05 | 52.44518 | 8.67764 | 116° | 5km/h | 26599m | 6.2m/s | -48.8°C | 0.2% | 20.9hPa | 2.5V | 18:12:15 | 01:41:35 | 00:00:00 | |
| HSKMA3-T | 2026-09-03 05:13:04 | 52.44519 | 8.67762 | 127° | 7km/h | 26593m | 5.9m/s | -48.8°C | 0.2% | 20.9hPa | 2.6V | 18:12:15 | 01:41:34 | 00:00:00 | |
| DO2SHX-10 | 2026-09-03 05:13:04 | 52.44519 | 8.67762 | 127° | 5km/h | 26594m | 5.8m/s | -48.7°C | 3.2% | 20.8hPa | 2.6V | 00:00:00 | 01:41:34 | 00:00:00 | |
| GOEST3-10 | 2026-09-03 05:13:03 | 52.44520 | 8.67760 | 131° | 9km/h | 26587m | 6.4m/s | -48.6°C | 3.1% | 20.9hPa | 2.6V | 00:00:00 | 01:41:33 | 00:00:00 | |
| D01LWL | 2026-09-03 05:13:02 | 52.44521 | 8.67759 | 168° | 4km/h | 26582m | 4.9m/s | -48.6°C | 0.8% | 20.9hPa | 2.6V | 00:00:00 | 00:00:00 | 00:00:00 | |
| DO2SHX-10 | 2026-09-03 05:13:01 | 52.44523 | 8.67759 | 189° | 11km/h | 26577m | 4.6m/s | -48.6°C | 3.1% | 20.9hPa | 2.6V | 00:00:00 | 01:41:31 | 00:00:00 | |
| DJ8HS-15 | 2026-09-03 05:13:00 | 52.44525 | 8.67760 | 194° | 9km/h | 26571m | 6.9m/s | -48.6°C | 3.2% | 20.9hPa | 2.6V | 00:00:00 | 01:41:30 | 00:00:00 | |
| DL8DAS-15 | 2026-09-03 05:12:59 | 52.44525 | 8.67760 | 194° | 11km/h | 26571m | 7.0m/s | -48.7°C | 0.9% | 21.0hPa | 2.6V | 00:00:00 | 00:00:00 | 00:00:00 | |
| DL1XH1-15 | 2026-09-03 05:12:58 | 52.44532 | 8.67772 | 106° | 4km/h | 26533m | 6.8m/s | -48.8°C | 3.3% | 21.1hPa | 2.6V | 08:30:00 | 01:41:23 | 00:00:00 | |
| BIOWL1-15 | 2026-09-03 05:12:58 | 52.44531 | 8.67763 | 213° | 11km/h | 26559m | 4.9m/s | -48.7°C | 0.2% | 21hPa | 2.6V | 18:12:15 | 01:41:28 | 00:00:00 | |
| DL1XH-west | 2026-09-03 05:12:57 | 52.44533 | 8.67766 | 236° | 9km/h | 26553m | 6.6m/s | -48.8°C | 0.3% | 21hPa | 2.6V | 18:12:15 | 01:41:27 | 00:00:00 | |
| DO2JMG | 2026-09-03 05:12:56 | 52.44533 | 8.67769 | 280° | 7km/h | 26547m | 5.3m/s | -48.8°C | 0.2% | 21.1hPa | 2.6V | 18:12:15 | 01:41:26 | 00:00:00 | |
| DJ2DS-15 | 2026-09-03 05:12:56 | 52.44533 | 8.67772 | 311° | 5km/h | 26543m | 3.9m/s | -48.8°C | 0.9% | 21.1hPa | 2.5V | 00:00:00 | 00:00:00 | 00:00:00 | |
| DB0DAN | 2026-09-03 05:12:55 | 52.44533 | 8.67772 | 311° | 5km/h | 26543m | 3.9m/s | -48.8°C | 0.9% | 21.09hPa | 2.5V | 00:00:00 | 00:00:00 | 00:00:00 | |
| HSKMA3-T | 2026-09-03 05:12:54 | 52.44532 | 8.67773 | 345° | 4km/h | 26538m | 4.9m/s | -48.8°C | 0.2% | 21.1hPa | 2.6V | 18:12:15 | 01:41:24 | 00:00:00 | |
| DF8AY | 2026-09-03 05:12:52 | 52.44532 | 8.67770 | 137° | 9km/h | 26526m | 6.1m/s | -48.8°C | 0.2% | 21.1hPa | 2.6V | 18:12:15 | 01:41:22 | 00:00:00 | |
| BIOWL1-15 | 2026-09-03 05:12:50 | 52.44544 | 8.67763 | 188° | 11km/h | 26503m | 5.8m/s | -48.7°C | 0.1% | 21.2hPa | 2.6V | 18:12:15 | 01:41:18 | 00:00:00 | |
| DL1XH-west | 2026-09-03 05:12:46 | 52.44549 | 8.67765 | 201° | 9km/h | 26492m | 6.1m/s | -48.7°C | 0.1% | 21.3hPa | 2.6V | 18:12:15 | 01:41:16 | 00:00:00 | |
| DO2JMG | 2026-09-03 05:12:45 | 52.44552 | 8.67766 | 191° | 9km/h | 26486m | 6.4m/s | -48.7°C | 0.1% | 21.3hPa | 2.5V | 18:12:15 | 01:41:15 | 00:00:00 | |
| MET0W-2 | 2026-09-03 05:12:44 | 52.44554 | 8.67767 | 187° | 9km/h | 26480m | 5.0m/s | 0°C | -1.0% | -1.0hPa | 2.6V | 00:00:00 | 00:00:00 | 00:00:00 | |
| AA1-15 | 2026-09-03 05:12:43 | 52.44556 | 8.67768 | 200° | 9km/h | 26475m | 5.2m/s | -48.7°C | 0.2% | 21.4hPa | 2.6V | 18:12:15 | 01:41:13 | 00:00:00 | |
| DF8AY | 2026-09-03 05:12:42 | 52.44559 | 8.67770 | 216° | 11km/h | 26469m | 6.3m/s | -48.7°C | 0.2% | 21.3hPa | 2.6V | 18:12:15 | 01:41:12 | 00:00:00 | |
| BIOWL1-15 | 2026-09-03 05:12:38 | 52.44571 | 8.67785 | 201° | 20km/h | 26447m | 6.5m/s | -48.8°C | 0.2% | 21.4hPa | 2.6V | 18:12:15 | 01:41:08 | 00:00:00 | |
| DL1XH-west | 2026-09-03 05:12:36 | 52.44580 | 8.67789 | 197° | 18km/h | 26436m | 5.4m/s | -48.8°C | 0.2% | 21.4hPa | 2.6V | 18:12:15 | 01:41:06 | 00:00:00 | |
| DO2JMG | 2026-09-03 05:12:35 | 52.44584 | 8.67792 | 204° | 15km/h | 26430m | 6.4m/s | -48.7°C | 0.2% | 21.4hPa | 2.6V | 18:12:15 | 01:41:05 | 00:00:00 | |
| DO9LL-15 | 2026-09-03 05:12:35 | 52.44584 | 8.67792 | 204° | 7km/h | 26430m | 6.3m/s | -48.7°C | 3.2% | 21.4hPa | 2.5V | 00:00:00 | 01:41:05 | 00:00:00 | |
| DM0DOS-11 | 2026-09-03 05:12:34 | 52.44590 | 8.67792 | 173° | 2km/h | 26394m | 6.5m/s | -48.8°C | 3.2% | 21.6hPa | 2.5V | 08:30:00 | 01:40:59 | 00:00:00 | |
| HSKMA3-T | 2026-09-03 05:12:33 | 52.44588 | 8.67795 | 209° | 4km/h | 26419m | 5.2m/s | -48.7°C | 0.2% | 21.5hPa | 2.5V | 18:12:15 | 01:41:03 | 00:00:00 | |
| DF8AY | 2026-09-03 05:12:32 | 52.44589 | 8.67794 | 109° | 4km/h | 26406m | 6.1m/s | -48.7°C | 0.2% | 21.6hPa | 2.6V | 18:12:15 | 01:41:01 | 00:00:00 | |
| AA1-15 | 2026-09-03 05:12:32 | 52.44589 | 8.67795 | 142° | 2km/h | 26413m | 6.9m/s | -48.7°C | 0.2% | 21.5hPa | 2.5V | 18:12:15 | 01:41:02 | 00:00:00 | |
| DJ2DS-15 | 2026-09-03 05:12:32 | 52.44588 | 8.67795 | 143° | 7km/h | 26413m | 6.9m/s | -48.6°C | 3.2% | 21.4hPa | 2.6V | 00:00:00 | 01:41:02 | 00:00:00 | |
| DO2SHX-10 | 2026-09-03 05:12:31 | 52.44589 | 8.67794 | 109° | 4km/h | 26406m | 6.1m/s | -48.7°C | 3.2% | 21.5hPa | 2.6V | 00:00:00 | 01:41:01 | 08:30:00 | |
| DL3AQ-11 | 2026-09-03 05:12:30 | 52.44590 | 8.67792 | 173° | 0km/h | 26395m | 6.5m/s | -48.8°C | 0.8% | 21.6hPa | 2.6V | 00:00:00 | 00:00:00 | 00:00:00 | |
| DF5WG-10 | 2026-09-03 05:12:29 | 52.44590 | 8.67792 | 174° | 5km/h | 26395m | 6.5m/s | -48.7°C | 3.2% | 21.5hPa | 2.6V | 00:00:00 | 01:40:59 | 00:00:00 | |
| DL1XH1-15 | 2026-09-03 05:12:28 | 52.44603 | 8.67801 | 183° | 13km/h | 26360m | 5.1m/s | -48.9°C | 3.2% | 21.7hPa | 2.6V | 08:30:00 | 01:40:53 | 00:00:00 | |
| BIOWL1-15 | 2026-09-03 05:12:27 | 52.44592 | 8.67795 | 229° | 9km/h | 26383m | 4.6m/s | -48.8°C | 0.1% | 21.6hPa | 2.6V | 18:12:15 | 01:40:57 | 00:00:00 | |
| DL1XH-west | 2026-09-03 05:12:26 | 52.44593 | 8.67798 | 214° | 11km/h | 26378m | 6.2m/s | -48.8°C | 0.1% | 21.6hPa | 2.6V | 18:12:15 | 01:40:56 | 00:00:00 | |
| DO2JMG | 2026-09-03 05:12:25 | 52.44596 | 8.67800 | 196° | 13km/h | 26372m | 6.3m/s | -48.9°C | 0.2% | 21.6hPa | 2.5V | 18:12:15 | 01:40:55 | 00:00:00 | |
| HSKMA3-T | 2026-09-03 05:12:23 | 52.44603 | 8.67801 | 183° | 13km/h | 26361m | 5.1m/s | -48.9°C | 0.1% | 21.7hPa | 2.6V | 18:12:15 | 01:40:53 | 00:00:00 | |
| AA1-15 | 2026-09-03 05:12:22 | 52.44605 | 8.67801 | 195° | 9km/h | 26355m | 6.1m/s | -49°C | 0.2% | 21.7hPa | 2.6V | 18:12:15 | 01:40:52 | 00:00:00 | |
| DF8AY | 2026-09-03 05:12:21 | 52.44607 | 8.67803 | 213° | 9km/h | 26349m | 5.7m/s | -49°C | 0.2% | 21.7hPa | 2.6V | 18:12:15 | 01:40:51 | 00:00:00 | |
| BIOWL1-15 | 2026-09-03 05:12:19 | 52.44611 | 8.67805 | 93° | 4km/h | 26326m | 4.7m/s | -49.2°C | 0.2% | 21.8hPa | 2.6V | 18:12:15 | 01:40:47 | 00:00:00 | |
| DL1XH1-15 | 2026-09-03 05:12:18 | 52.44607 | 8.67805 | 339° | 5km/h | 26304m | 4.8m/s | -49.2°C | 3.4% | 21.9hPa | 2.5V | 08:30:00 | 01:40:43 | 00:00:00 | |
| DL1XH-west | 2026-09-03 05:12:15 | 52.44610 | 8.67804 | 356° | 5km/h | 26315m | 7m/s | -49.2°C | 0.3% | 21.9hPa | 2.6V | 18:12:15 | 01:40:45 | 00:00:00 | |
| DO2JMG | 2026-09-03 05:12:14 | 52.44608 | 8.67804 | 341° | 7km/h | 26309m | 5.5m/s | -49.2°C | 0.3% | 21.8hPa | 2.5V | 18:12:15 | 01:40:44 | 00:00:00 | |
| AA1-15 | 2026-09-03 05:12:12 | 52.44606 | 8.67805 | 64° | 0km/h | 26298m | 6.1m/s | -49.2°C | 0.3% | 21.9hPa | 2.6V | 18:12:15 | 01:40:42 | 00:00:00 | |
| DF8AY | 2026-09-03 05:12:10 | 52.44609 | 8.67802 | 157° | 13km/h | 26286m | 5.2m/s | -49.2°C | 0.3% | 21.9hPa | 2.6V | 18:12:15 | 01:40:40 | 00:00:00 | |
| DB0DAN | 2026-09-03 05:12:10 | 52.44609 | 8.67802 | 157° | 13km/h | 26286m | 5.2m/s | -49.2°C | 0.9% | 21.9hPa | 2.6V | 00:00:00 | 00:00:00 | 00:00:00 | |
| DL4XJ-10 | 2026-09-03 05:12:10 | 52.44610 | 8.67803 | 157° | 5km/h | 26286m | 5.2m/s | -48.0°C | 0% | 0hPa | 2.5V | 00:00:00 | 00:00:00 | 00:00:00 | |
| S3001 | 2026-09-03 05:12:09 | 52.44616 | 8.67799 | 175° | 11km/h | 26276m | 5.9m/s | -49.1°C | 0.8% | 22.0hPa | 2.5V | 00:00:00 | 00:00:00 | 00:00:00 | |
| DL1XH1-15 | 2026-09-03 05:12:08 | 52.44618 | 8.67800 | 43° | 5km/h | 26248m | 5.2m/s | -49°C | 3.3% | 22.1hPa | 2.5V | 08:30:00 | 01:40:33 | 00:00:00 | |
| GOEST3-10 | 2026-09-03 05:12:08 | 52.44616 | 8.67799 | 176° | 7km/h | 26276m | 5.9m/s | -49.1°C | 3.3% | 22.0hPa | 2.6V | 00:00:00 | 00:00:00 | 00:00:00 | |
| DB0NH | 2026-09-03 05:12:07 | 52.44619 | 8.67800 | 196° | 5km/h | 26270m | 5.6m/s | -49.0°C | 3.3% | 21.9hPa | 2.6V | 00:00:00 | 01:40:37 | 00:00:00 | |
| DL1XH-15 | 2026-09-03 05:12:06 | 52.44616 | 8.67797 | 23° | 4km/h | 26238m | 5.6m/s | -49°C | 3.3% | 22.1hPa | 2.6V | 08:30:00 | 01:40:31 | 00:00:00 | |
| BIOWL1-15 | 2026-09-03 05:12:06 | 52.44620 | 8.67801 | 232° | 4km/h | 26265m | 4.9m/s | -49.1°C | 0.2% | 22hPa | 2.6V | 18:12:15 | 01:40:36 | 00:00:00 | |
| DL1XH-west | 2026-09-03 05:12:05 | 52.44620 | 8.67802 | 333° | 2km/h | 26260m | 5.3m/s | -49.1°C | 0.2% | 22hPa | 2.6V | 18:12:15 | 01:40:35 | 00:00:00 | |
| DO2JMG | 2026-09-03 05:12:03 | 52.44618 | 8.67800 | 44° | 5km/h | 26248m | 5.2m/s | -49°C | 0.2% | 22.1hPa | 2.5V | 18:12:15 | 01:40:33 | 00:00:00 | |
| HSKMA3-T | 2026-09-03 05:12:02 | 52.44617 | 8.67799 | 49° | 5km/h | 26243m | 5m/s | -49°C | 0.2% | 22.1hPa | 2.6V | 18:12:15 | 01:40:32 | 00:00:00 | |
| AA1-15 | 2026-09-03 05:12:01 | 52.44616 | 8.67797 | 23° | 4km/h | 26238m | 5.6m/s | -49°C | 0.2% | 22.1hPa | 2.6V | 18:12:15 | 01:40:31 | 00:00:00 | |
| DF8AY | 2026-09-03 05:11:59 | 52.44615 | 8.67799 | 286° | 5km/h | 26227m | 4.8m/s | -49.1°C | 0.2% | 22.1hPa | 2.6V | 18:12:15 | 01:40:29 | 00:00:00 | |
| DL1XH1-15 | 2026-09-03 05:11:58 | 52.44619 | 8.67799 | 190° | 4km/h | 26194m | 6.5m/s | -49°C | 3.3% | 22.2hPa | 2.6V | 08:30:00 | 01:40:23 | 00:00:00 | |
| GOEST3-10 | 2026-09-03 05:11:58 | 52.44615 | 8.67801 | 266° | 5km/h | 26222m | 4.3m/s | -49.0°C | 3.3% | 22.1hPa | 2.6V | 00:00:00 | 00:00:00 | 08:30:00 | |
| DD8BA-10 | 2026-09-03 05:11:57 | 52.44615 | 8.67803 | 219° | 5km/h | 26217m | 6.3m/s | -49.0°C | 3.3% | 22.1hPa | 2.6V | 00:00:00 | 00:00:00 | 00:00:00 | |
| DL1XH-15 | 2026-09-03 05:11:56 | 52.44621 | 8.67802 | 250° | 7km/h | 26183m | 4.2m/s | -49°C | 3.3% | 22.3hPa | 2.6V | 08:30:00 | 01:40:21 | 00:00:00 | |
| BIOWL1-15 | 2026-09-03 05:11:55 | 52.44617 | 8.67801 | 135° | 7km/h | 26205m | 5.2m/s | -49.1°C | 0.2% | 22.2hPa | 2.6V | 18:12:15 | 01:40:25 | 00:00:00 | |
| DB0DAN | 2026-09-03 05:11:55 | 52.44617 | 8.67801 | 135° | 5km/h | 26205m | 5.2m/s | -49.1°C | 0.8% | 22.21hPa | 2.6V | 00:00:00 | 00:00:00 | 00:00:00 | |
| DL1XH-west | 2026-09-03 05:11:54 | 52.44618 | 8.67799 | 146° | 5km/h | 26199m | 5.1m/s | -49.1°C | 0.2% | 22.2hPa | 2.6V | 18:12:15 | 01:40:24 | 00:00:00 | |
| DO2JMG | 2026-09-03 05:11:53 | 52.44619 | 8.67799 | 191° | 5km/h | 26194m | 6.6m/s | -49°C | 0.2% | 22.2hPa | 2.6V | 18:12:15 | 01:40:23 | 00:00:00 | |
| HSKMA3-T | 2026-09-03 05:11:52 | 52.44620 | 8.67800 | 232° | 5km/h | 26188m | 5.3m/s | -49°C | 0.2% | 22.2hPa | 2.5V | 18:12:15 | 01:40:22 | 00:00:00 | |
| AA1-15 | 2026-09-03 05:11:50 | 52.44622 | 8.67805 | 251° | 5km/h | 26178m | 6m/s | -49.1°C | 0.2% | 22.3hPa | 2.6V | 18:12:15 | 01:40:20 | 00:00:00 | |
| DF8AY | 2026-09-03 05:11:49 | 52.44622 | 8.67807 | 232° | 4km/h | 26172m | 6.5m/s | -49°C | 0.2% | 22.3hPa | 2.6V | 18:12:15 | 01:40:19 | 00:00:00 | |
| DO2SHX-10 | 2026-09-03 05:11:48 | 52.44623 | 8.67807 | 208° | 5km/h | 26166m | 5.6m/s | -49.0°C | 3.3% | 22.3hPa | 2.5V | 00:00:00 | 01:40:18 | 00:00:00 | |
| DD8BA-10 | 2026-09-03 05:11:47 | 52.44623 | 8.67808 | 221° | 5km/h | 26160m | 5.4m/s | -49.0°C | 3.3% | 22.3hPa | 2.5V | 00:00:00 | 00:00:00 | 08:30:00 | |
| DL1XH-15 | 2026-09-03 05:11:46 | 52.44629 | 8.67815 | 105° | 5km/h | 26126m | 5.8m/s | -49°C | 3.3% | 22.5hPa | 2.5V | 08:30:00 | 01:40:11 | 00:00:00 | |
| BIOWL9-15 | 2026-09-03 05:11:46 | 52.44624 | 8.67810 | 233° | 5km/h | 26154m | 6.6m/s | -49.0°C | 0.8% | 22.4hPa | 2.6V | 00:00:00 | 00:00:00 | 00:00:00 | |
| BIOWL1-15 | 2026-09-03 05:11:46 | 52.44626 | 8.67815 | 234° | 7km/h | 26144m | 4.3m/s | -49°C | 0.2% | 22.4hPa | 2.6V | 18:12:15 | 01:40:14 | 00:00:00 | |
| AU51GT2 | 2026-09-03 05:11:45 | 52.44626 | 8.67815 | 233° | 5km/h | 26144m | 4.3m/s | -49.0°C | 0.8% | 22.4hPa | 2.6V | 00:00:00 | 00:00:00 | 00:00:00 | |
| DL1XH-west | 2026-09-03 05:11:43 | 52.44627 | 8.67817 | 214° | 4km/h | 26139m | 6.5m/s | -49°C | 0.2% | 22.4hPa | 2.6V | 18:12:15 | 01:40:13 | 00:00:00 | |
| DO2JMG | 2026-09-03 05:11:42 | 52.44628 | 8.67817 | 124° | 4km/h | 26132m | 6.3m/s | -49°C | 0.2% | 22.5hPa | 2.5V | 18:12:15 | 01:40:12 | 00:00:00 | |
| HSKMA3-T | 2026-09-03 05:11:41 | 52.44628 | 8.67815 | 105° | 5km/h | 26126m | 5.8m/s | -49°C | 0.2% | 22.5hPa | 2.5V | 18:12:15 | 01:40:11 | 00:00:00 | |
| AA1-15 | 2026-09-03 05:11:40 | 52.44629 | 8.67813 | 114° | 5km/h | 26120m | 5.9m/s | -49°C | 0.2% | 22.5hPa | 2.6V | 18:12:15 | 01:40:10 | 00:00:00 | |
| DF8AY | 2026-09-03 05:11:38 | 52.44631 | 8.67810 | 155° | 5km/h | 26109m | 4.8m/s | -49°C | 0.2% | 22.6hPa | 2.6V | 18:12:15 | 01:40:08 | 00:00:00 | |
| S3001 | 2026-09-03 05:11:38 | 52.44632 | 8.67809 | 143° | 4km/h | 26104m | 4.4m/s | -49.0°C | 0.9% | 22.6hPa | 2.5V | 00:00:00 | 00:00:00 | 00:00:00 | |
| DL3AQ-11 | 2026-09-03 05:11:37 | 52.44632 | 8.67808 | 109° | 4km/h | 26099m | 6.8m/s | -49.1°C | 0.8% | 22.6hPa | 2.5V | 00:00:00 | 00:00:00 | 00:00:00 | |
| DL1XH-15 | 2026-09-03 05:11:36 | 52.44633 | 8.67800 | 206° | 5km/h | 26070m | 5.8m/s | -49.2°C | 3.3% | 22.7hPa | 2.5V | 08:30:00 | 01:40:01 | 00:00:00 | |
| DL1XH-west | 2026-09-03 05:11:33 | 52.44632 | 8.67800 | 90° | 4km/h | 26082m | 4.9m/s | -49.1°C | 0.2% | 22.6hPa | 2.6V | 18:12:15 | 01:40:03 | 00:00:00 | |
| DO2JMG | 2026-09-03 05:11:32 | 52.44632 | 8.67799 | 168° | 2km/h | 26076m | 6.9m/s | -49.1°C | 0.2% | 22.6hPa | 2.6V | 18:12:15 | 01:40:02 | 00:00:00 | |
| HSKMA3-T | 2026-09-03 05:11:30 | 52.44635 | 8.67801 | 208° | 7km/h | 26064m | 5.3m/s | -49.2°C | 0.3% | 22.7hPa | 2.5V | 18:12:15 | 01:40:00 | 00:00:00 | |
| AA1-15 | 2026-09-03 05:11:29 | 52.44637 | 8.67802 | 196° | 7km/h | 26058m | 6.6m/s | -49.2°C | 0.2% | 22.7hPa | 2.6V | 18:12:15 | 01:39:59 | 00:00:00 | |
| D01LWL | 2026-09-03 05:11:29 | 52.44638 | 8.67803 | 174° | 5km/h | 26052m | 5.7m/s | -49.2°C | 0.9% | 22.8hPa | 2.6V | 00:00:00 | 00:00:00 | 00:00:00 | |
| DL1XH1-15 | 2026-09-03 05:11:28 | 52.44645 | 8.67805 | 202° | 4km/h | 26025m | 4.8m/s | -49.3°C | 3.3% | 22.8hPa | 2.6V | 08:30:00 | 01:39:53 | 00:00:00 | |
| DF8AY | 2026-09-03 05:11:27 | 52.44640 | 8.67802 | 166° | 5km/h | 26047m | 5m/s | -49.2°C | 0.2% | 22.7hPa | 2.6V | 18:12:15 | 01:39:57 | 00:00:00 | |
| DO2SHX-10 | 2026-09-03 05:11:27 | 52.44640 | 8.67802 | 166° | 5km/h | 26047m | 4.9m/s | -49.2°C | 3.3% | 22.7hPa | 2.6V | 00:00:00 | 01:39:57 | 00:00:00 | |
| DL1XH-15 | 2026-09-03 05:11:26 | 52.44646 | 8.67804 | 98° | 5km/h | 26013m | 5.7m/s | -49.3°C | 3.4% | 22.9hPa | 2.6V | 08:30:00 | 01:39:51 | 00:00:00 | |
| DB0DAN | 2026-09-03 05:11:25 | 52.44642 | 8.67803 | 208° | 5km/h | 26035m | 6.1m/s | -49.2°C | 0.8% | 22.8hPa | 2.5V | 00:00:00 | 00:00:00 | 00:00:00 | |
| DL1XH-west | 2026-09-03 05:11:23 | 52.44645 | 8.67805 | 203° | 4km/h | 26025m | 4.8m/s | -49.3°C | 0.2% | 22.8hPa | 2.6V | 18:12:15 | 01:39:53 | 00:00:00 | |
| DO2JMG | 2026-09-03 05:11:22 | 52.44646 | 8.67805 | 142° | 4km/h | 26019m | 6.9m/s | -49.3°C | 0.2% | 22.9hPa | 2.6V | 18:12:15 | 01:39:52 | 00:00:00 | |
| HSKMA3-T | 2026-09-03 05:11:20 | 52.44646 | 8.67802 | 93° | 4km/h | 26007m | 5m/s | -49.3°C | 0.3% | 22.9hPa | 2.5V | 18:12:15 | 01:39:50 | 00:00:00 | |
| AA1-15 | 2026-09-03 05:11:19 | 52.44646 | 8.67801 | 56° | 2km/h | 26002m | 6.4m/s | -49.4°C | 0.3% | 22.9hPa | 2.5V | 18:12:15 | 01:39:49 | 00:00:00 | |
| DF8AY | 2026-09-03 05:11:17 | 52.44645 | 8.67803 | 286° | 5km/h | 25990m | 5.4m/s | -49.4°C | 0.3% | 23hPa | 2.6V | 18:12:15 | 01:39:47 | 00:00:00 | |
| DL1XH-west | 2026-09-03 05:11:13 | 52.44644 | 8.67810 | 223° | 4km/h | 25967m | 5.3m/s | -49.4°C | 0.2% | 23.1hPa | 2.6V | 18:12:15 | 01:39:43 | 00:00:00 | |
| DO2JMG | 2026-09-03 05:11:12 | 52.44645 | 8.67811 | 212° | 9km/h | 25961m | 6.9m/s | -49.3°C | 0.2% | 23hPa | 2.6V | 18:12:15 | 01:39:42 | 00:00:00 | |
| DJ2DS-15 | 2026-09-03 05:11:12 | 52.44645 | 8.67811 | 212° | 9km/h | 25962m | 6.9m/s | -49.3°C | 3.3% | 23.0hPa | 2.6V | 00:00:00 | 01:39:42 | 00:00:00 | |
| DM0DOS-11 | 2026-09-03 05:11:10 | 52.44653 | 8.67815 | 173° | 11km/h | 25945m | 6.5m/s | -49.3°C | 3.3% | 23.1hPa | 2.6V | 08:30:00 | 01:39:39 | 00:00:00 | |
| DB0DAN | 2026-09-03 05:11:10 | 52.44650 | 8.67814 | 189° | 11km/h | 25950m | 4.7m/s | -49.3°C | 0.9% | 23.08hPa | 2.5V | 00:00:00 | 00:00:00 | 00:00:00 | |
| HSKMA3-T | 2026-09-03 05:11:09 | 52.44653 | 8.67815 | 173° | 11km/h | 25945m | 6.5m/s | -49.3°C | 0.2% | 23.1hPa | 2.6V | 18:12:15 | 01:39:39 | 00:00:00 | |
| AA1-15 | 2026-09-03 05:11:08 | 52.44656 | 8.67813 | 153° | 9km/h | 25939m | 5.7m/s | -49.3°C | 0.3% | 23.2hPa | 2.7V | 18:12:15 | 01:39:38 | 00:00:00 | |
| DF8AY | 2026-09-03 05:11:07 | 52.44659 | 8.67810 | 168° | 5km/h | 25928m | 5.9m/s | -49.3°C | 0.3% | 23.2hPa | 2.6V | 18:12:15 | 01:39:36 | 00:00:00 | |
| S3001 | 2026-09-03 05:11:07 | 52.44659 | 8.67810 | 167° | 5km/h | 25928m | 5.9m/s | -49.3°C | 0.9% | 23.2hPa | 2.6V | 00:00:00 | 00:00:00 | 00:00:00 | |
| DL1XH-15 | 2026-09-03 05:11:06 | 52.44663 | 8.67824 | 276° | 7km/h | 25900m | 5.9m/s | -49.3°C | 3.3% | 23.4hPa | 2.6V | 08:30:00 | 01:39:31 | 00:00:00 | |
| BIOWL1-15 | 2026-09-03 05:11:03 | 52.44663 | 8.67817 | 255° | 11km/h | 25912m | 4.7m/s | -49.3°C | 0.2% | 23.2hPa | 2.5V | 18:12:15 | 01:39:33 | 00:00:00 | |
| DO2JMG | 2026-09-03 05:11:01 | 52.44663 | 8.67824 | 277° | 7km/h | 25900m | 5.9m/s | -49.3°C | 0.2% | 23.4hPa | 2.6V | 18:12:15 | 01:39:31 | 00:00:00 | |
| DM0DOS-11 | 2026-09-03 05:11:00 | 52.44664 | 8.67830 | 246° | 7km/h | 25891m | 4.7m/s | -49.3°C | 3.3% | 23.3hPa | 2.5V | 08:30:00 | 01:39:29 | 00:00:00 | |
| DJ8HS-15 | 2026-09-03 05:11:00 | 52.44663 | 8.67827 | 269° | 11km/h | 25896m | 3.9m/s | -49.2°C | 3.3% | 23.2hPa | 2.5V | 00:00:00 | 01:39:30 | 00:00:00 | |
| DL1XH1-15 | 2026-09-03 05:10:58 | 52.44674 | 8.67859 | 271° | 7km/h | 25857m | 5.3m/s | -49.3°C | 3.3% | 23.4hPa | 2.5V | 08:30:00 | 01:39:23 | 00:00:00 | |
| HSKMA3-T | 2026-09-03 05:10:58 | 52.44665 | 8.67833 | 235° | 13km/h | 25885m | 6.2m/s | -49.3°C | 0.2% | 23.3hPa | 2.6V | 18:12:15 | 01:39:28 | 00:00:00 | |
| AA1-15 | 2026-09-03 05:10:57 | 52.44667 | 8.67838 | 232° | 16km/h | 25879m | 6.1m/s | -49.4°C | 0.2% | 23.4hPa | 2.6V | 18:12:15 | 01:39:27 | 00:00:00 | |
| DL3AQ-11 | 2026-09-03 05:10:57 | 52.44670 | 8.67844 | 233° | 16km/h | 25874m | 5.1m/s | -49.4°C | 0.9% | 23.4hPa | 2.6V | 00:00:00 | 00:00:00 | 00:00:00 | |
| DL1XH-15 | 2026-09-03 05:10:56 | 52.44673 | 8.67864 | 264° | 5km/h | 25846m | 6.2m/s | -49.4°C | 3.3% | 23.4hPa | 2.6V | 08:30:00 | 01:39:21 | 00:00:00 | |
| DF8AY | 2026-09-03 05:10:55 | 52.44672 | 8.67849 | 241° | 16km/h | 25869m | 4.9m/s | -49.3°C | 0.2% | 23.4hPa | 2.6V | 18:12:15 | 01:39:25 | 00:00:00 | |
| DB0DAN | 2026-09-03 05:10:55 | 52.44672 | 8.67849 | 241° | 15km/h | 25869m | 4.9m/s | -49.3°C | 0.9% | 23.39hPa | 2.6V | 00:00:00 | 00:00:00 | 00:00:00 | |
| DL1XH-west | 2026-09-03 05:10:52 | 52.44673 | 8.67862 | 289° | 5km/h | 25852m | 5.1m/s | -49.4°C | 0.2% | 23.4hPa | 2.6V | 18:12:15 | 01:39:22 | 00:00:00 | |
| DO2JMG | 2026-09-03 05:10:50 | 52.44674 | 8.67867 | 242° | 9km/h | 25840m | 5.8m/s | -49.4°C | 0.2% | 23.6hPa | 2.6V | 18:12:15 | 01:39:20 | 00:00:00 | |
| Es werden nur die letzten 3500 von 7781 Frames angezeigt. GPX/KML und Diagramme bleiben verfügbar. | |||||||||||||||